<?xml version='1.0' encoding='UTF-8'?><gpx version="1.1" creator="JPX - https://github.com/jenetics/jpx" xmlns="http://www.topografix.com/GPX/1/1"><trk><trkseg><trkpt lat="45.5076472413564" lon="10.463540894728116"><ele>182.0</ele><time>2026-03-28T08:03:21Z</time></trkpt><trkpt lat="45.5077108726278" lon="10.463571158700182"><ele>182.0</ele><time>2026-03-28T08:05:50Z</time></trkpt><trkpt lat="45.507775277505914" lon="10.46356454894425"><ele>182.0</ele><time>2026-03-28T08:06:39Z</time></trkpt><trkpt lat="45.50784272882802" lon="10.463554333153231"><ele>182.0</ele><time>2026-03-28T08:09:04Z</time></trkpt><trkpt lat="45.50792104697424" lon="10.46354994087409"><ele>182.0</ele><time>2026-03-28T08:12:11Z</time></trkpt><trkpt lat="45.50799301306259" lon="10.46354242943127"><ele>182.0</ele><time>2026-03-28T08:13:13Z</time></trkpt><trkpt lat="45.50807022565844" lon="10.463560937054078"><ele>182.0</ele><time>2026-03-28T08:15:00Z</time></trkpt><trkpt lat="45.50814666065664" lon="10.463544452636418"><ele>183.0</ele><time>2026-03-28T08:15:10Z</time></trkpt><trkpt lat="45.50821878246249" lon="10.46353336452431"><ele>184.0</ele><time>2026-03-28T08:15:24Z</time></trkpt><trkpt lat="45.50831241891471" lon="10.463513920650206"><ele>185.0</ele><time>2026-03-28T08:15:26Z</time></trkpt><trkpt lat="45.50836603663723" lon="10.463572322826819"><ele>186.0</ele><time>2026-03-28T08:15:28Z</time></trkpt><trkpt lat="45.50832119738677" lon="10.463671199217144"><ele>187.0</ele><time>2026-03-28T08:15:30Z</time></trkpt><trkpt lat="45.50824631760322" lon="10.46370005419706"><ele>188.0</ele><time>2026-03-28T08:15:31Z</time></trkpt><trkpt lat="45.508140353186" lon="10.463708824938088"><ele>188.0</ele><time>2026-03-28T08:15:32Z</time></trkpt><trkpt lat="45.508026233508424" lon="10.463721677597016"><ele>188.0</ele><time>2026-03-28T08:15:33Z</time></trkpt><trkpt lat="45.50790138656568" lon="10.463738309964949"><ele>188.0</ele><time>2026-03-28T08:15:34Z</time></trkpt><trkpt lat="45.5077626629393" lon="10.463755174654757"><ele>188.0</ele><time>2026-03-28T08:15:35Z</time></trkpt><trkpt lat="45.50761266367924" lon="10.463772659232545"><ele>187.0</ele><time>2026-03-28T08:15:36Z</time></trkpt><trkpt lat="45.50745939808072" lon="10.463785099786751"><ele>186.0</ele><time>2026-03-28T08:15:37Z</time></trkpt><trkpt lat="45.50732048836341" lon="10.463800913841348"><ele>185.0</ele><time>2026-03-28T08:15:38Z</time></trkpt><trkpt lat="45.50720025410239" lon="10.463812442161213"><ele>184.0</ele><time>2026-03-28T08:15:39Z</time></trkpt><trkpt lat="45.50709675064441" lon="10.46380974501136"><ele>183.66666666666669</ele><time>2026-03-28T08:15:40Z</time></trkpt><trkpt lat="45.507002616764716" lon="10.463784124427205"><ele>183.33333333333334</ele><time>2026-03-28T08:15:41Z</time></trkpt><trkpt lat="45.50692684649405" lon="10.463731451636585"><ele>183.0</ele><time>2026-03-28T08:15:42Z</time></trkpt><trkpt lat="45.50686250417376" lon="10.463665416198486"><ele>182.66666666666666</ele><time>2026-03-28T08:15:43Z</time></trkpt><trkpt lat="45.5067980646545" lon="10.463617003423312"><ele>182.33333333333331</ele><time>2026-03-28T08:15:44Z</time></trkpt><trkpt lat="45.50672920755175" lon="10.463615474874853"><ele>182.0</ele><time>2026-03-28T08:15:45Z</time></trkpt><trkpt lat="45.50665753202758" lon="10.463665266559225"><ele>182.0</ele><time>2026-03-28T08:15:46Z</time></trkpt><trkpt lat="45.50660809949137" lon="10.463753792093975"><ele>182.0</ele><time>2026-03-28T08:15:47Z</time></trkpt><trkpt lat="45.50658848972166" lon="10.46387119401906"><ele>182.0</ele><time>2026-03-28T08:15:48Z</time></trkpt><trkpt lat="45.50657858582276" lon="10.463966789196816"><ele>182.0</ele><time>2026-03-28T08:15:49Z</time></trkpt><trkpt lat="45.50665568005404" lon="10.464090415117196"><ele>182.0</ele><time>2026-03-28T08:15:50Z</time></trkpt><trkpt lat="45.50671130246584" lon="10.4641982261124"><ele>182.0</ele><time>2026-03-28T08:15:51Z</time></trkpt><trkpt lat="45.50673701809637" lon="10.464347304840338"><ele>182.0</ele><time>2026-03-28T08:15:52Z</time></trkpt><trkpt lat="45.50673095347322" lon="10.464533198614106"><ele>182.0</ele><time>2026-03-28T08:15:53Z</time></trkpt><trkpt lat="45.506710955815535" lon="10.464748275181936"><ele>182.0</ele><time>2026-03-28T08:15:54Z</time></trkpt><trkpt lat="45.50669047884942" lon="10.464976422661298"><ele>182.0</ele><time>2026-03-28T08:15:55Z</time></trkpt><trkpt lat="45.50667264947294" lon="10.465202252737393"><ele>182.33333333333331</ele><time>2026-03-28T08:15:56Z</time></trkpt><trkpt lat="45.50665087875982" lon="10.465455298853927"><ele>182.66666666666666</ele><time>2026-03-28T08:15:57Z</time></trkpt><trkpt lat="45.50663290478622" lon="10.465727900930936"><ele>183.0</ele><time>2026-03-28T08:15:58Z</time></trkpt><trkpt lat="45.506629340397765" lon="10.466006924919046"><ele>183.33333333333334</ele><time>2026-03-28T08:15:59Z</time></trkpt><trkpt lat="45.506652405620706" lon="10.466290802053722"><ele>183.66666666666669</ele><time>2026-03-28T08:16:00Z</time></trkpt><trkpt lat="45.50670106275169" lon="10.466581660915136"><ele>184.0</ele><time>2026-03-28T08:16:01Z</time></trkpt><trkpt lat="45.50675825852159" lon="10.46688050783609"><ele>183.5</ele><time>2026-03-28T08:16:02Z</time></trkpt><trkpt lat="45.50681510236275" lon="10.467194659531781"><ele>183.0</ele><time>2026-03-28T08:16:03Z</time></trkpt><trkpt lat="45.50686564222988" lon="10.467506898214937"><ele>183.0</ele><time>2026-03-28T08:16:04Z</time></trkpt><trkpt lat="45.506913670889595" lon="10.467821185885008"><ele>183.0</ele><time>2026-03-28T08:16:05Z</time></trkpt><trkpt lat="45.506957726457806" lon="10.468136036856091"><ele>184.0</ele><time>2026-03-28T08:16:06Z</time></trkpt><trkpt lat="45.506999717726465" lon="10.468432937108206"><ele>185.0</ele><time>2026-03-28T08:16:07Z</time></trkpt><trkpt lat="45.50704465985114" lon="10.468718559971602"><ele>186.0</ele><time>2026-03-28T08:16:08Z</time></trkpt><trkpt lat="45.50708338242747" lon="10.468988867319451"><ele>187.0</ele><time>2026-03-28T08:16:09Z</time></trkpt><trkpt lat="45.507108479021234" lon="10.469249096563088"><ele>188.0</ele><time>2026-03-28T08:16:10Z</time></trkpt><trkpt lat="45.50708411199792" lon="10.469496384304344"><ele>189.0</ele><time>2026-03-28T08:16:11Z</time></trkpt><trkpt lat="45.5070732021095" lon="10.46976712121529"><ele>189.0</ele><time>2026-03-28T08:16:12Z</time></trkpt><trkpt lat="45.507029422755664" lon="10.470040549985988"><ele>189.0</ele><time>2026-03-28T08:16:13Z</time></trkpt><trkpt lat="45.50697837030588" lon="10.470328927054002"><ele>189.0</ele><time>2026-03-28T08:16:14Z</time></trkpt><trkpt lat="45.50691687763255" lon="10.470621418665528"><ele>189.66666666666666</ele><time>2026-03-28T08:16:15Z</time></trkpt><trkpt lat="45.50684652795165" lon="10.470911450982095"><ele>190.33333333333331</ele><time>2026-03-28T08:16:16Z</time></trkpt><trkpt lat="45.50677406006639" lon="10.471194000156254"><ele>191.0</ele><time>2026-03-28T08:16:17Z</time></trkpt><trkpt lat="45.50670398277273" lon="10.47145354333126"><ele>191.66666666666666</ele><time>2026-03-28T08:16:18Z</time></trkpt><trkpt lat="45.506642319824635" lon="10.471713086449139"><ele>192.33333333333331</ele><time>2026-03-28T08:16:19Z</time></trkpt><trkpt lat="45.50659769649148" lon="10.4719881509567"><ele>193.0</ele><time>2026-03-28T08:16:20Z</time></trkpt><trkpt lat="45.50657081261247" lon="10.47228810271265"><ele>193.66666666666666</ele><time>2026-03-28T08:16:21Z</time></trkpt><trkpt lat="45.50654894216492" lon="10.472586763127575"><ele>194.33333333333331</ele><time>2026-03-28T08:16:22Z</time></trkpt><trkpt lat="45.506515646882384" lon="10.472890465109744"><ele>195.0</ele><time>2026-03-28T08:16:23Z</time></trkpt><trkpt lat="45.506483815404984" lon="10.473172490920385"><ele>195.0</ele><time>2026-03-28T08:16:24Z</time></trkpt><trkpt lat="45.506457615316904" lon="10.47341936792993"><ele>195.0</ele><time>2026-03-28T08:16:25Z</time></trkpt><trkpt lat="45.50641702769761" lon="10.473636578822818"><ele>195.0</ele><time>2026-03-28T08:16:26Z</time></trkpt><trkpt lat="45.506395808275464" lon="10.473823956655202"><ele>194.8</ele><time>2026-03-28T08:16:27Z</time></trkpt><trkpt lat="45.50639231146102" lon="10.473985866907004"><ele>194.6</ele><time>2026-03-28T08:16:28Z</time></trkpt><trkpt lat="45.506356918242645" lon="10.474122081608353"><ele>194.39999999999998</ele><time>2026-03-28T08:16:29Z</time></trkpt><trkpt lat="45.50630656409239" lon="10.474256939444624"><ele>194.2</ele><time>2026-03-28T08:16:30Z</time></trkpt><trkpt lat="45.50624657324682" lon="10.474382462212255"><ele>194.0</ele><time>2026-03-28T08:16:31Z</time></trkpt><trkpt lat="45.50618757078648" lon="10.474488785143102"><ele>194.0</ele><time>2026-03-28T08:16:32Z</time></trkpt><trkpt lat="45.50613131776574" lon="10.474583787644669"><ele>194.0</ele><time>2026-03-28T08:16:33Z</time></trkpt><trkpt lat="45.506074209108085" lon="10.474645479070672"><ele>194.0</ele><time>2026-03-28T08:16:34Z</time></trkpt><trkpt lat="45.50600949331745" lon="10.47471445604675"><ele>194.0</ele><time>2026-03-28T08:16:36Z</time></trkpt><trkpt lat="45.50592792352675" lon="10.474536307348473"><ele>194.0</ele><time>2026-03-28T08:16:37Z</time></trkpt><trkpt lat="45.50587512219319" lon="10.47444952843777"><ele>194.0</ele><time>2026-03-28T08:16:38Z</time></trkpt><trkpt lat="45.50583262705403" lon="10.474329386450904"><ele>194.0</ele><time>2026-03-28T08:16:39Z</time></trkpt><trkpt lat="45.50580046653707" lon="10.474184927691635"><ele>194.0</ele><time>2026-03-28T08:16:40Z</time></trkpt><trkpt lat="45.50577767943084" lon="10.474016327054706"><ele>194.0</ele><time>2026-03-28T08:16:41Z</time></trkpt><trkpt lat="45.50575248533683" lon="10.47383349660118"><ele>194.0</ele><time>2026-03-28T08:16:42Z</time></trkpt><trkpt lat="45.505709781605646" lon="10.473634767393305"><ele>194.0</ele><time>2026-03-28T08:16:43Z</time></trkpt><trkpt lat="45.50567926875251" lon="10.473423717927533"><ele>194.0</ele><time>2026-03-28T08:16:44Z</time></trkpt><trkpt lat="45.50562636015904" lon="10.473253575090096"><ele>194.0</ele><time>2026-03-28T08:16:45Z</time></trkpt><trkpt lat="45.505579297503374" lon="10.473143555442341"><ele>194.00000000000003</ele><time>2026-03-28T08:16:46Z</time></trkpt><trkpt lat="45.50553826610288" lon="10.473051467591787"><ele>194.0</ele><time>2026-03-28T08:16:47Z</time></trkpt><trkpt lat="45.50548563417364" lon="10.47300103775243"><ele>194.0</ele><time>2026-03-28T08:16:48Z</time></trkpt><trkpt lat="45.505412053361965" lon="10.473025163483719"><ele>194.0</ele><time>2026-03-28T08:16:49Z</time></trkpt><trkpt lat="45.50535269735387" lon="10.47308071049041"><ele>194.00000000000003</ele><time>2026-03-28T08:16:50Z</time></trkpt><trkpt lat="45.505300061283926" lon="10.473169328880491"><ele>194.0</ele><time>2026-03-28T08:16:51Z</time></trkpt><trkpt lat="45.5052213827712" lon="10.473256286799222"><ele>194.0</ele><time>2026-03-28T08:16:52Z</time></trkpt><trkpt lat="45.50513674979437" lon="10.473370253555254"><ele>194.0</ele><time>2026-03-28T08:16:53Z</time></trkpt><trkpt lat="45.50502987157267" lon="10.473509008791696"><ele>194.0</ele><time>2026-03-28T08:16:54Z</time></trkpt><trkpt lat="45.50491935197221" lon="10.473678274105668"><ele>194.0</ele><time>2026-03-28T08:16:55Z</time></trkpt><trkpt lat="45.504799054911096" lon="10.473815155094037"><ele>194.0</ele><time>2026-03-28T08:16:56Z</time></trkpt><trkpt lat="45.504672877785325" lon="10.473948141562888"><ele>194.0</ele><time>2026-03-28T08:16:57Z</time></trkpt><trkpt lat="45.5045234469556" lon="10.474018543803357"><ele>194.0</ele><time>2026-03-28T08:16:58Z</time></trkpt><trkpt lat="45.504388817967154" lon="10.474055757196872"><ele>196.75</ele><time>2026-03-28T08:16:59Z</time></trkpt><trkpt lat="45.50425760468847" lon="10.474053986016003"><ele>199.5</ele><time>2026-03-28T08:17:00Z</time></trkpt><trkpt lat="45.504110696911205" lon="10.474042000760706"><ele>202.25</ele><time>2026-03-28T08:17:01Z</time></trkpt><trkpt lat="45.50396549454448" lon="10.474047479493656"><ele>205.0</ele><time>2026-03-28T08:17:02Z</time></trkpt><trkpt lat="45.50381754140323" lon="10.47401597407578"><ele>206.25</ele><time>2026-03-28T08:17:03Z</time></trkpt><trkpt lat="45.503683474792396" lon="10.474006394081595"><ele>207.5</ele><time>2026-03-28T08:17:04Z</time></trkpt><trkpt lat="45.50356035117072" lon="10.47401343524508"><ele>208.75</ele><time>2026-03-28T08:17:05Z</time></trkpt><trkpt lat="45.503446370609055" lon="10.474035835843651"><ele>210.0</ele><time>2026-03-28T08:17:06Z</time></trkpt><trkpt lat="45.5033270320896" lon="10.474085186812944"><ele>210.0</ele><time>2026-03-28T08:17:07Z</time></trkpt><trkpt lat="45.50320283060296" lon="10.47416872753341"><ele>210.0</ele><time>2026-03-28T08:17:08Z</time></trkpt><trkpt lat="45.50306724835349" lon="10.47427602279249"><ele>210.0</ele><time>2026-03-28T08:17:09Z</time></trkpt><trkpt lat="45.502932361539884" lon="10.474387095528748"><ele>210.0</ele><time>2026-03-28T08:17:10Z</time></trkpt><trkpt lat="45.50281049743066" lon="10.474483629160817"><ele>209.75</ele><time>2026-03-28T08:17:11Z</time></trkpt><trkpt lat="45.50269741469805" lon="10.474568610680873"><ele>209.5</ele><time>2026-03-28T08:17:12Z</time></trkpt><trkpt lat="45.502586847628095" lon="10.474647775428588"><ele>209.25</ele><time>2026-03-28T08:17:13Z</time></trkpt><trkpt lat="45.50248141391806" lon="10.474653299110145"><ele>209.0</ele><time>2026-03-28T08:17:14Z</time></trkpt><trkpt lat="45.50238099438487" lon="10.47464652378962"><ele>209.0</ele><time>2026-03-28T08:17:15Z</time></trkpt><trkpt lat="45.50227892352718" lon="10.474612896059169"><ele>209.0</ele><time>2026-03-28T08:17:16Z</time></trkpt><trkpt lat="45.502163133115054" lon="10.474560397656068"><ele>209.0</ele><time>2026-03-28T08:17:17Z</time></trkpt><trkpt lat="45.50203055316523" lon="10.474492978957498"><ele>209.0</ele><time>2026-03-28T08:17:18Z</time></trkpt><trkpt lat="45.50190179156952" lon="10.474416284409402"><ele>209.2</ele><time>2026-03-28T08:17:19Z</time></trkpt><trkpt lat="45.50178910931608" lon="10.474338487328277"><ele>209.39999999999998</ele><time>2026-03-28T08:17:20Z</time></trkpt><trkpt lat="45.50169002480238" lon="10.474263854270346"><ele>209.6</ele><time>2026-03-28T08:17:21Z</time></trkpt><trkpt lat="45.501602155048616" lon="10.474182253646202"><ele>209.8</ele><time>2026-03-28T08:17:22Z</time></trkpt><trkpt lat="45.50151994869773" lon="10.474101596948511"><ele>210.0</ele><time>2026-03-28T08:17:23Z</time></trkpt><trkpt lat="45.50145351561904" lon="10.474043727604798"><ele>210.0</ele><time>2026-03-28T08:17:24Z</time></trkpt><trkpt lat="45.50138844123429" lon="10.474036280421993"><ele>210.0</ele><time>2026-03-28T08:17:25Z</time></trkpt><trkpt lat="45.50125635212892" lon="10.474050638546892"><ele>210.0</ele><time>2026-03-28T08:17:27Z</time></trkpt><trkpt lat="45.501194149120266" lon="10.47413033429873"><ele>210.0</ele><time>2026-03-28T08:17:28Z</time></trkpt><trkpt lat="45.50106946759219" lon="10.474063120204598"><ele>210.0</ele><time>2026-03-28T08:17:30Z</time></trkpt><trkpt lat="45.50104904202333" lon="10.47394346813239"><ele>209.8</ele><time>2026-03-28T08:17:31Z</time></trkpt><trkpt lat="45.50100496437959" lon="10.473843370399733"><ele>209.6</ele><time>2026-03-28T08:17:32Z</time></trkpt><trkpt lat="45.50095524261257" lon="10.473733558305746"><ele>209.39999999999998</ele><time>2026-03-28T08:17:33Z</time></trkpt><trkpt lat="45.50090685044785" lon="10.47361549364673"><ele>209.2</ele><time>2026-03-28T08:17:34Z</time></trkpt><trkpt lat="45.50085581765055" lon="10.473478078639946"><ele>209.0</ele><time>2026-03-28T08:17:35Z</time></trkpt><trkpt lat="45.50081243740177" lon="10.473358999842302"><ele>209.0</ele><time>2026-03-28T08:17:36Z</time></trkpt><trkpt lat="45.50077526174988" lon="10.473259274043427"><ele>209.0</ele><time>2026-03-28T08:17:37Z</time></trkpt><trkpt lat="45.50074879806903" lon="10.473176348907144"><ele>209.0</ele><time>2026-03-28T08:17:38Z</time></trkpt><trkpt lat="45.50067884085588" lon="10.473060935865215"><ele>209.0</ele><time>2026-03-28T08:17:40Z</time></trkpt><trkpt lat="45.5005615305703" lon="10.47302127701726"><ele>209.0</ele><time>2026-03-28T08:17:42Z</time></trkpt><trkpt lat="45.50048002249068" lon="10.473007340278132"><ele>207.25</ele><time>2026-03-28T08:17:43Z</time></trkpt><trkpt lat="45.50037732410305" lon="10.472982982977747"><ele>205.5</ele><time>2026-03-28T08:17:44Z</time></trkpt><trkpt lat="45.50026339316688" lon="10.47295366825001"><ele>203.75</ele><time>2026-03-28T08:17:45Z</time></trkpt><trkpt lat="45.500140000645" lon="10.47291613200182"><ele>202.0</ele><time>2026-03-28T08:17:46Z</time></trkpt><trkpt lat="45.50000840559162" lon="10.47287549158655"><ele>202.0</ele><time>2026-03-28T08:17:47Z</time></trkpt><trkpt lat="45.49986978310404" lon="10.472819856072462"><ele>202.0</ele><time>2026-03-28T08:17:48Z</time></trkpt><trkpt lat="45.49972415825565" lon="10.47277806986741"><ele>202.0</ele><time>2026-03-28T08:17:49Z</time></trkpt><trkpt lat="45.49958947197847" lon="10.472738827705395"><ele>202.0</ele><time>2026-03-28T08:17:50Z</time></trkpt><trkpt lat="45.49946761933134" lon="10.472702341527585"><ele>201.39999999999998</ele><time>2026-03-28T08:17:51Z</time></trkpt><trkpt lat="45.49935007212273" lon="10.472666222904557"><ele>200.79999999999998</ele><time>2026-03-28T08:17:52Z</time></trkpt><trkpt lat="45.499249359173156" lon="10.472633676204676"><ele>200.2</ele><time>2026-03-28T08:17:53Z</time></trkpt><trkpt lat="45.4991680038327" lon="10.472607385089495"><ele>199.6</ele><time>2026-03-28T08:17:54Z</time></trkpt><trkpt lat="45.499103401832365" lon="10.472610175231134"><ele>199.0</ele><time>2026-03-28T08:17:55Z</time></trkpt><trkpt lat="45.49902844596529" lon="10.472566854180439"><ele>199.0</ele><time>2026-03-28T08:17:57Z</time></trkpt><trkpt lat="45.498987524061654" lon="10.472723191191571"><ele>199.0</ele><time>2026-03-28T08:18:00Z</time></trkpt><trkpt lat="45.499000596097055" lon="10.472814816640497"><ele>199.0</ele><time>2026-03-28T08:18:01Z</time></trkpt><trkpt lat="45.499009229066296" lon="10.472949880529642"><ele>199.0</ele><time>2026-03-28T08:18:02Z</time></trkpt><trkpt lat="45.49900802075557" lon="10.473101278655268"><ele>199.0</ele><time>2026-03-28T08:18:03Z</time></trkpt><trkpt lat="45.49899654986084" lon="10.473245394167654"><ele>199.2</ele><time>2026-03-28T08:18:04Z</time></trkpt><trkpt lat="45.498996748341746" lon="10.473403009543286"><ele>199.39999999999998</ele><time>2026-03-28T08:18:05Z</time></trkpt><trkpt lat="45.49898684844917" lon="10.473559092829246"><ele>199.6</ele><time>2026-03-28T08:18:06Z</time></trkpt><trkpt lat="45.498983072319454" lon="10.473713677064094"><ele>199.8</ele><time>2026-03-28T08:18:07Z</time></trkpt><trkpt lat="45.498972951063536" lon="10.473856882994006"><ele>200.0</ele><time>2026-03-28T08:18:08Z</time></trkpt><trkpt lat="45.49896370068427" lon="10.473998506788417"><ele>200.5</ele><time>2026-03-28T08:18:09Z</time></trkpt><trkpt lat="45.49896057083025" lon="10.474146424767403"><ele>201.0</ele><time>2026-03-28T08:18:10Z</time></trkpt><trkpt lat="45.49895334871859" lon="10.474299657139946"><ele>201.5</ele><time>2026-03-28T08:18:11Z</time></trkpt><trkpt lat="45.49894937342121" lon="10.4744662859926"><ele>202.0</ele><time>2026-03-28T08:18:12Z</time></trkpt><trkpt lat="45.49894203672578" lon="10.47463945143817"><ele>202.33333333333331</ele><time>2026-03-28T08:18:13Z</time></trkpt><trkpt lat="45.49893592450972" lon="10.474789169210332"><ele>202.66666666666666</ele><time>2026-03-28T08:18:14Z</time></trkpt><trkpt lat="45.498930030684335" lon="10.474910805591094"><ele>203.0</ele><time>2026-03-28T08:18:15Z</time></trkpt><trkpt lat="45.498925326535726" lon="10.475021831762234"><ele>203.33333333333331</ele><time>2026-03-28T08:18:16Z</time></trkpt><trkpt lat="45.49892261583894" lon="10.4751319531299"><ele>203.66666666666666</ele><time>2026-03-28T08:18:17Z</time></trkpt><trkpt lat="45.498912911329604" lon="10.475237374450536"><ele>204.0</ele><time>2026-03-28T08:18:18Z</time></trkpt><trkpt lat="45.49890650797751" lon="10.475373884699405"><ele>204.0</ele><time>2026-03-28T08:18:20Z</time></trkpt><trkpt lat="45.498866755791106" lon="10.475471723446583"><ele>204.0</ele><time>2026-03-28T08:18:23Z</time></trkpt><trkpt lat="45.498760450768195" lon="10.475409362130247"><ele>204.0</ele><time>2026-03-28T08:18:24Z</time></trkpt><trkpt lat="45.49869296881037" lon="10.475414489019524"><ele>204.0</ele><time>2026-03-28T08:18:25Z</time></trkpt><trkpt lat="45.49861752365654" lon="10.475441528102433"><ele>204.0</ele><time>2026-03-28T08:18:26Z</time></trkpt><trkpt lat="45.498534141308056" lon="10.47544678372344"><ele>204.0</ele><time>2026-03-28T08:18:27Z</time></trkpt><trkpt lat="45.49842341059133" lon="10.475465170489388"><ele>204.79999999999998</ele><time>2026-03-28T08:18:28Z</time></trkpt><trkpt lat="45.49831631369648" lon="10.475453009952776"><ele>205.6</ele><time>2026-03-28T08:18:29Z</time></trkpt><trkpt lat="45.498212427369374" lon="10.475456082347186"><ele>206.4</ele><time>2026-03-28T08:18:30Z</time></trkpt><trkpt lat="45.498104456541164" lon="10.47545585814165"><ele>207.2</ele><time>2026-03-28T08:18:31Z</time></trkpt><trkpt lat="45.49798555229424" lon="10.475452496416505"><ele>208.0</ele><time>2026-03-28T08:18:32Z</time></trkpt><trkpt lat="45.49789128859565" lon="10.475462700386387"><ele>208.16666666666666</ele><time>2026-03-28T08:18:33Z</time></trkpt><trkpt lat="45.49780394625676" lon="10.475465131643151"><ele>208.33333333333331</ele><time>2026-03-28T08:18:34Z</time></trkpt><trkpt lat="45.49772989329916" lon="10.475436562474256"><ele>208.5</ele><time>2026-03-28T08:18:35Z</time></trkpt><trkpt lat="45.497649278163486" lon="10.475436333011533"><ele>208.66666666666669</ele><time>2026-03-28T08:18:36Z</time></trkpt><trkpt lat="45.49755558703512" lon="10.475399038957637"><ele>208.83333333333334</ele><time>2026-03-28T08:18:37Z</time></trkpt><trkpt lat="45.49745174261199" lon="10.475371584176429"><ele>209.0</ele><time>2026-03-28T08:18:38Z</time></trkpt><trkpt lat="45.497337112561006" lon="10.475340686444465"><ele>208.0</ele><time>2026-03-28T08:18:39Z</time></trkpt><trkpt lat="45.49722983681911" lon="10.475316603398424"><ele>207.0</ele><time>2026-03-28T08:18:40Z</time></trkpt><trkpt lat="45.49710437827795" lon="10.475313881091619"><ele>206.0</ele><time>2026-03-28T08:18:41Z</time></trkpt><trkpt lat="45.49698288494841" lon="10.47526344419648"><ele>205.0</ele><time>2026-03-28T08:18:42Z</time></trkpt><trkpt lat="45.49687814579941" lon="10.475228112046855"><ele>205.0</ele><time>2026-03-28T08:18:43Z</time></trkpt><trkpt lat="45.49678355024952" lon="10.475189531035149"><ele>205.0</ele><time>2026-03-28T08:18:44Z</time></trkpt><trkpt lat="45.49667076522727" lon="10.475152306107164"><ele>205.0</ele><time>2026-03-28T08:18:45Z</time></trkpt><trkpt lat="45.49654086746443" lon="10.475161448303176"><ele>205.0</ele><time>2026-03-28T08:18:46Z</time></trkpt><trkpt lat="45.49640753747259" lon="10.475151866435548"><ele>205.0</ele><time>2026-03-28T08:18:47Z</time></trkpt><trkpt lat="45.49628119835166" lon="10.475111957221161"><ele>205.0</ele><time>2026-03-28T08:18:48Z</time></trkpt><trkpt lat="45.49615856760017" lon="10.475096250838853"><ele>205.0</ele><time>2026-03-28T08:18:49Z</time></trkpt><trkpt lat="45.49603672953618" lon="10.475088424202983"><ele>205.0</ele><time>2026-03-28T08:18:50Z</time></trkpt><trkpt lat="45.495928393928736" lon="10.475101851330107"><ele>205.4</ele><time>2026-03-28T08:18:51Z</time></trkpt><trkpt lat="45.49582023579417" lon="10.475087886502036"><ele>205.8</ele><time>2026-03-28T08:18:52Z</time></trkpt><trkpt lat="45.49572585798692" lon="10.475013021166069"><ele>206.2</ele><time>2026-03-28T08:18:53Z</time></trkpt><trkpt lat="45.49563198709978" lon="10.474990905035087"><ele>206.6</ele><time>2026-03-28T08:18:54Z</time></trkpt><trkpt lat="45.495539213645394" lon="10.47498454316132"><ele>207.0</ele><time>2026-03-28T08:18:55Z</time></trkpt><trkpt lat="45.495443122777814" lon="10.474981487946684"><ele>207.25</ele><time>2026-03-28T08:18:56Z</time></trkpt><trkpt lat="45.49533054219391" lon="10.474977498115239"><ele>207.5</ele><time>2026-03-28T08:18:57Z</time></trkpt><trkpt lat="45.495206836853896" lon="10.474969232727629"><ele>207.75</ele><time>2026-03-28T08:18:58Z</time></trkpt><trkpt lat="45.49508422184859" lon="10.4749594197452"><ele>208.0</ele><time>2026-03-28T08:18:59Z</time></trkpt><trkpt lat="45.494964247118894" lon="10.47494938180693"><ele>208.0</ele><time>2026-03-28T08:19:00Z</time></trkpt><trkpt lat="45.49484369025866" lon="10.474938619257209"><ele>208.0</ele><time>2026-03-28T08:19:01Z</time></trkpt><trkpt lat="45.494708024038616" lon="10.474926570723769"><ele>208.0</ele><time>2026-03-28T08:19:02Z</time></trkpt><trkpt lat="45.4945649938619" lon="10.47491587937769"><ele>208.0</ele><time>2026-03-28T08:19:03Z</time></trkpt><trkpt lat="45.49442639560585" lon="10.474905036344486"><ele>208.0</ele><time>2026-03-28T08:19:04Z</time></trkpt><trkpt lat="45.49430605020777" lon="10.4748932481163"><ele>208.0</ele><time>2026-03-28T08:19:05Z</time></trkpt><trkpt lat="45.49418411484318" lon="10.474881304156519"><ele>208.0</ele><time>2026-03-28T08:19:06Z</time></trkpt><trkpt lat="45.494066564731156" lon="10.474880539481344"><ele>208.0</ele><time>2026-03-28T08:19:07Z</time></trkpt><trkpt lat="45.49394503731938" lon="10.47487300628373"><ele>208.0</ele><time>2026-03-28T08:19:08Z</time></trkpt><trkpt lat="45.49383561449042" lon="10.47487028335873"><ele>208.0</ele><time>2026-03-28T08:19:09Z</time></trkpt><trkpt lat="45.49373678484042" lon="10.47488217855361"><ele>208.0</ele><time>2026-03-28T08:19:10Z</time></trkpt><trkpt lat="45.49365110744553" lon="10.474913615156625"><ele>208.0</ele><time>2026-03-28T08:19:11Z</time></trkpt><trkpt lat="45.493557998658765" lon="10.474902174839078"><ele>208.0</ele><time>2026-03-28T08:19:12Z</time></trkpt><trkpt lat="45.49344839361805" lon="10.474897632329405"><ele>208.8</ele><time>2026-03-28T08:19:13Z</time></trkpt><trkpt lat="45.49334020389378" lon="10.474892709213545"><ele>209.60000000000002</ele><time>2026-03-28T08:19:14Z</time></trkpt><trkpt lat="45.49321688121314" lon="10.474889622562586"><ele>210.39999999999998</ele><time>2026-03-28T08:19:15Z</time></trkpt><trkpt lat="45.49309819611637" lon="10.474888232334107"><ele>211.2</ele><time>2026-03-28T08:19:16Z</time></trkpt><trkpt lat="45.4930024698645" lon="10.474886447170146"><ele>212.0</ele><time>2026-03-28T08:19:17Z</time></trkpt><trkpt lat="45.4929313564504" lon="10.474881039112853"><ele>212.8</ele><time>2026-03-28T08:19:18Z</time></trkpt><trkpt lat="45.492823218127185" lon="10.474831244451671"><ele>213.6</ele><time>2026-03-28T08:19:20Z</time></trkpt><trkpt lat="45.4928300464598" lon="10.47472712995278"><ele>214.40000000000003</ele><time>2026-03-28T08:19:22Z</time></trkpt><trkpt lat="45.492817522092295" lon="10.474620659982403"><ele>215.20000000000002</ele><time>2026-03-28T08:19:23Z</time></trkpt><trkpt lat="45.492801061207395" lon="10.474479117652805"><ele>216.0</ele><time>2026-03-28T08:19:24Z</time></trkpt><trkpt lat="45.4927684014826" lon="10.474302027184299"><ele>216.0</ele><time>2026-03-28T08:19:25Z</time></trkpt><trkpt lat="45.49272568030259" lon="10.474119722704353"><ele>216.00000000000003</ele><time>2026-03-28T08:19:26Z</time></trkpt><trkpt lat="45.49268142650953" lon="10.473960058864984"><ele>216.00000000000003</ele><time>2026-03-28T08:19:27Z</time></trkpt><trkpt lat="45.4926352970935" lon="10.473832677084786"><ele>216.0</ele><time>2026-03-28T08:19:28Z</time></trkpt><trkpt lat="45.492589277913616" lon="10.473719024788398"><ele>216.0</ele><time>2026-03-28T08:19:29Z</time></trkpt><trkpt lat="45.49254533207508" lon="10.473618560945765"><ele>215.0</ele><time>2026-03-28T08:19:30Z</time></trkpt><trkpt lat="45.49249225335579" lon="10.473503670222211"><ele>214.0</ele><time>2026-03-28T08:19:31Z</time></trkpt><trkpt lat="45.49243804687664" lon="10.473387903124769"><ele>213.0</ele><time>2026-03-28T08:19:32Z</time></trkpt><trkpt lat="45.49238207192998" lon="10.473307715159898"><ele>212.0</ele><time>2026-03-28T08:19:33Z</time></trkpt><trkpt lat="45.49234000200823" lon="10.473221686672066"><ele>211.0</ele><time>2026-03-28T08:19:34Z</time></trkpt><trkpt lat="45.49229077820026" lon="10.473142059766076"><ele>210.0</ele><time>2026-03-28T08:19:35Z</time></trkpt><trkpt lat="45.49223162339306" lon="10.473044662734882"><ele>210.0</ele><time>2026-03-28T08:19:36Z</time></trkpt><trkpt lat="45.4921376866405" lon="10.472957028955355"><ele>210.0</ele><time>2026-03-28T08:19:37Z</time></trkpt><trkpt lat="45.492048929689034" lon="10.472889834405073"><ele>210.0</ele><time>2026-03-28T08:19:38Z</time></trkpt><trkpt lat="45.49195237514744" lon="10.47284821841243"><ele>210.0</ele><time>2026-03-28T08:19:39Z</time></trkpt><trkpt lat="45.49187119839867" lon="10.472830216804308"><ele>210.0</ele><time>2026-03-28T08:19:40Z</time></trkpt><trkpt lat="45.49178260657914" lon="10.472857125301136"><ele>208.75</ele><time>2026-03-28T08:19:41Z</time></trkpt><trkpt lat="45.491680050796234" lon="10.472882831725377"><ele>207.5</ele><time>2026-03-28T08:19:42Z</time></trkpt><trkpt lat="45.49154073017641" lon="10.4729319868901"><ele>206.25</ele><time>2026-03-28T08:19:43Z</time></trkpt><trkpt lat="45.49139127655331" lon="10.47297366716798"><ele>205.0</ele><time>2026-03-28T08:19:44Z</time></trkpt><trkpt lat="45.491216593939306" lon="10.473007392667249"><ele>204.0</ele><time>2026-03-28T08:19:45Z</time></trkpt><trkpt lat="45.491081897461996" lon="10.473034979862492"><ele>203.0</ele><time>2026-03-28T08:19:46Z</time></trkpt><trkpt lat="45.49094015641284" lon="10.473064400760778"><ele>202.0</ele><time>2026-03-28T08:19:47Z</time></trkpt><trkpt lat="45.49081253936112" lon="10.473082496101634"><ele>201.0</ele><time>2026-03-28T08:19:48Z</time></trkpt><trkpt lat="45.49072717551661" lon="10.473100113536756"><ele>201.0</ele><time>2026-03-28T08:19:49Z</time></trkpt><trkpt lat="45.49062388719237" lon="10.473106921176857"><ele>201.0</ele><time>2026-03-28T08:19:50Z</time></trkpt><trkpt lat="45.490523180160004" lon="10.473140104305111"><ele>201.0</ele><time>2026-03-28T08:19:51Z</time></trkpt><trkpt lat="45.49041364035715" lon="10.473212388070008"><ele>201.0</ele><time>2026-03-28T08:19:52Z</time></trkpt><trkpt lat="45.490288051464574" lon="10.473298302118526"><ele>198.0</ele><time>2026-03-28T08:19:53Z</time></trkpt><trkpt lat="45.490154410798034" lon="10.473369640052244"><ele>195.0</ele><time>2026-03-28T08:19:54Z</time></trkpt><trkpt lat="45.49003648661412" lon="10.473476473970452"><ele>192.0</ele><time>2026-03-28T08:19:55Z</time></trkpt><trkpt lat="45.48994747790318" lon="10.473554301476145"><ele>189.0</ele><time>2026-03-28T08:19:56Z</time></trkpt><trkpt lat="45.489856630480325" lon="10.473630680676736"><ele>189.0</ele><time>2026-03-28T08:19:57Z</time></trkpt><trkpt lat="45.489779767136696" lon="10.473717550823599"><ele>189.0</ele><time>2026-03-28T08:19:58Z</time></trkpt><trkpt lat="45.48970721235236" lon="10.473832719756704"><ele>189.0</ele><time>2026-03-28T08:19:59Z</time></trkpt><trkpt lat="45.48960705289473" lon="10.473929142452233"><ele>189.0</ele><time>2026-03-28T08:20:00Z</time></trkpt><trkpt lat="45.48949531701151" lon="10.474017238883931"><ele>188.25</ele><time>2026-03-28T08:20:01Z</time></trkpt><trkpt lat="45.48936711530365" lon="10.47411015253543"><ele>187.5</ele><time>2026-03-28T08:20:02Z</time></trkpt><trkpt lat="45.4892357629184" lon="10.474194904457677"><ele>186.75</ele><time>2026-03-28T08:20:03Z</time></trkpt><trkpt lat="45.489107623437405" lon="10.474273692552334"><ele>186.0</ele><time>2026-03-28T08:20:04Z</time></trkpt><trkpt lat="45.488977507788505" lon="10.474354746083991"><ele>186.0</ele><time>2026-03-28T08:20:05Z</time></trkpt><trkpt lat="45.48884543734169" lon="10.474445269039455"><ele>186.0</ele><time>2026-03-28T08:20:06Z</time></trkpt><trkpt lat="45.48871537532929" lon="10.474489979031645"><ele>186.0</ele><time>2026-03-28T08:20:07Z</time></trkpt><trkpt lat="45.48858916961263" lon="10.47452067010526"><ele>186.0</ele><time>2026-03-28T08:20:08Z</time></trkpt><trkpt lat="45.48848057498703" lon="10.474577843478729"><ele>185.60000000000002</ele><time>2026-03-28T08:20:09Z</time></trkpt><trkpt lat="45.48838593990636" lon="10.474652593429267"><ele>185.2</ele><time>2026-03-28T08:20:10Z</time></trkpt><trkpt lat="45.4882875042665" lon="10.474713573082397"><ele>184.8</ele><time>2026-03-28T08:20:11Z</time></trkpt><trkpt lat="45.48820204494348" lon="10.474772311782036"><ele>184.39999999999998</ele><time>2026-03-28T08:20:12Z</time></trkpt><trkpt lat="45.48811158410269" lon="10.474797375801677"><ele>184.0</ele><time>2026-03-28T08:20:13Z</time></trkpt><trkpt lat="45.488019716104134" lon="10.474848717510543"><ele>183.6</ele><time>2026-03-28T08:20:14Z</time></trkpt><trkpt lat="45.48790909781021" lon="10.474918480630265"><ele>183.2</ele><time>2026-03-28T08:20:15Z</time></trkpt><trkpt lat="45.4878032029252" lon="10.474985816722606"><ele>182.79999999999998</ele><time>2026-03-28T08:20:16Z</time></trkpt><trkpt lat="45.487713021612535" lon="10.475048496880646"><ele>182.39999999999998</ele><time>2026-03-28T08:20:17Z</time></trkpt><trkpt lat="45.487631728951385" lon="10.475117094341154"><ele>182.0</ele><time>2026-03-28T08:20:18Z</time></trkpt><trkpt lat="45.48756187907278" lon="10.475185796163721"><ele>182.0</ele><time>2026-03-28T08:20:19Z</time></trkpt><trkpt lat="45.48751488550099" lon="10.47529228121357"><ele>182.0</ele><time>2026-03-28T08:20:20Z</time></trkpt><trkpt lat="45.48747812149724" lon="10.475377389501354"><ele>182.0</ele><time>2026-03-28T08:20:21Z</time></trkpt><trkpt lat="45.48744394767626" lon="10.475464494757457"><ele>182.0</ele><time>2026-03-28T08:20:22Z</time></trkpt><trkpt lat="45.48738541033441" lon="10.475540954138715"><ele>182.0</ele><time>2026-03-28T08:20:23Z</time></trkpt><trkpt lat="45.487292735037016" lon="10.475553610713138"><ele>182.0</ele><time>2026-03-28T08:20:24Z</time></trkpt><trkpt lat="45.48721958751029" lon="10.47556745844411"><ele>182.39999999999998</ele><time>2026-03-28T08:20:25Z</time></trkpt><trkpt lat="45.487146975553145" lon="10.475594049119845"><ele>182.79999999999998</ele><time>2026-03-28T08:20:26Z</time></trkpt><trkpt lat="45.48704424589056" lon="10.475606536495471"><ele>183.2</ele><time>2026-03-28T08:20:28Z</time></trkpt><trkpt lat="45.48700083594317" lon="10.475429402810787"><ele>183.6</ele><time>2026-03-28T08:20:30Z</time></trkpt><trkpt lat="45.48694889763342" lon="10.475330787130149"><ele>184.0</ele><time>2026-03-28T08:20:32Z</time></trkpt><trkpt lat="45.48692432594503" lon="10.475208553986226"><ele>184.16666666666669</ele><time>2026-03-28T08:20:35Z</time></trkpt><trkpt lat="45.4868871282219" lon="10.475101479603705"><ele>184.33333333333334</ele><time>2026-03-28T08:20:37Z</time></trkpt><trkpt lat="45.486841401340584" lon="10.474987936806386"><ele>184.5</ele><time>2026-03-28T08:20:39Z</time></trkpt><trkpt lat="45.48680648553041" lon="10.47487314353033"><ele>184.66666666666666</ele><time>2026-03-28T08:20:41Z</time></trkpt><trkpt lat="45.4867696072908" lon="10.47471098760617"><ele>184.83333333333331</ele><time>2026-03-28T08:20:43Z</time></trkpt><trkpt lat="45.486744424816216" lon="10.474625617134606"><ele>185.0</ele><time>2026-03-28T08:20:44Z</time></trkpt><trkpt lat="45.48672384499941" lon="10.474529176162587"><ele>185.0</ele><time>2026-03-28T08:20:45Z</time></trkpt><trkpt lat="45.48670177313625" lon="10.47442507962178"><ele>185.0</ele><time>2026-03-28T08:20:46Z</time></trkpt><trkpt lat="45.486692199263274" lon="10.47430227093262"><ele>185.0</ele><time>2026-03-28T08:20:47Z</time></trkpt><trkpt lat="45.486686385894274" lon="10.474181092818766"><ele>185.0</ele><time>2026-03-28T08:20:48Z</time></trkpt><trkpt lat="45.48666559145036" lon="10.474085601036743"><ele>185.0</ele><time>2026-03-28T08:20:49Z</time></trkpt><trkpt lat="45.48663740525116" lon="10.473976599337012"><ele>185.0</ele><time>2026-03-28T08:20:50Z</time></trkpt><trkpt lat="45.48661557943232" lon="10.473881942153255"><ele>185.0</ele><time>2026-03-28T08:20:51Z</time></trkpt><trkpt lat="45.486596804685604" lon="10.473796147972989"><ele>185.0</ele><time>2026-03-28T08:20:52Z</time></trkpt><trkpt lat="45.486539450829135" lon="10.473565931925533"><ele>185.0</ele><time>2026-03-28T08:20:55Z</time></trkpt><trkpt lat="45.48649768558631" lon="10.47344763944971"><ele>185.0</ele><time>2026-03-28T08:20:57Z</time></trkpt><trkpt lat="45.48645385411948" lon="10.473358792511638"><ele>185.0</ele><time>2026-03-28T08:21:00Z</time></trkpt><trkpt lat="45.48642352201306" lon="10.473276805580845"><ele>185.0</ele><time>2026-03-28T08:21:04Z</time></trkpt><trkpt lat="45.48638922302632" lon="10.473188049033535"><ele>185.0</ele><time>2026-03-28T08:21:13Z</time></trkpt><trkpt lat="45.486334077896956" lon="10.473059388152521"><ele>185.0</ele><time>2026-03-28T08:21:15Z</time></trkpt><trkpt lat="45.48628717770648" lon="10.472983171037816"><ele>185.0</ele><time>2026-03-28T08:21:16Z</time></trkpt><trkpt lat="45.48623018370149" lon="10.472884084259494"><ele>185.0</ele><time>2026-03-28T08:21:17Z</time></trkpt><trkpt lat="45.486190879761395" lon="10.472783665460716"><ele>185.0</ele><time>2026-03-28T08:21:18Z</time></trkpt><trkpt lat="45.48615918526203" lon="10.472704026817796"><ele>184.6</ele><time>2026-03-28T08:21:19Z</time></trkpt><trkpt lat="45.48607698769363" lon="10.472566612650558"><ele>184.2</ele><time>2026-03-28T08:21:21Z</time></trkpt><trkpt lat="45.48600974808172" lon="10.472514816314371"><ele>183.8</ele><time>2026-03-28T08:21:22Z</time></trkpt><trkpt lat="45.48595019785447" lon="10.472472240178348"><ele>183.4</ele><time>2026-03-28T08:21:23Z</time></trkpt><trkpt lat="45.48586830700964" lon="10.472362142490427"><ele>183.0</ele><time>2026-03-28T08:21:25Z</time></trkpt><trkpt lat="45.48579983302032" lon="10.472291258343587"><ele>183.0</ele><time>2026-03-28T08:21:27Z</time></trkpt><trkpt lat="45.485676461074256" lon="10.47235189366126"><ele>183.0</ele><time>2026-03-28T08:21:29Z</time></trkpt><trkpt lat="45.48561276605459" lon="10.47236572004736"><ele>183.0</ele><time>2026-03-28T08:21:31Z</time></trkpt><trkpt lat="45.48556832464705" lon="10.472144618750729"><ele>183.0</ele><time>2026-03-28T08:21:33Z</time></trkpt><trkpt lat="45.485525398038895" lon="10.47198699897009"><ele>182.25</ele><time>2026-03-28T08:21:34Z</time></trkpt><trkpt lat="45.48550146308583" lon="10.471812442799735"><ele>181.5</ele><time>2026-03-28T08:21:35Z</time></trkpt><trkpt lat="45.48545961017113" lon="10.47163508043563"><ele>180.75</ele><time>2026-03-28T08:21:36Z</time></trkpt><trkpt lat="45.48540652717732" lon="10.471469999951989"><ele>180.0</ele><time>2026-03-28T08:21:37Z</time></trkpt><trkpt lat="45.485362020426166" lon="10.471317566393493"><ele>178.75</ele><time>2026-03-28T08:21:38Z</time></trkpt><trkpt lat="45.48534385040247" lon="10.471163939348907"><ele>177.5</ele><time>2026-03-28T08:21:39Z</time></trkpt><trkpt lat="45.485313910668815" lon="10.47100695679741"><ele>176.25</ele><time>2026-03-28T08:21:40Z</time></trkpt><trkpt lat="45.48527700790461" lon="10.470850551738975"><ele>175.0</ele><time>2026-03-28T08:21:41Z</time></trkpt><trkpt lat="45.485254909605985" lon="10.47069055002444"><ele>175.0</ele><time>2026-03-28T08:21:42Z</time></trkpt><trkpt lat="45.485246769021344" lon="10.470530538744338"><ele>175.0</ele><time>2026-03-28T08:21:43Z</time></trkpt><trkpt lat="45.48522424846967" lon="10.470376234690354"><ele>175.0</ele><time>2026-03-28T08:21:44Z</time></trkpt><trkpt lat="45.485202453838106" lon="10.470230375152852"><ele>175.0</ele><time>2026-03-28T08:21:45Z</time></trkpt><trkpt lat="45.48518189843825" lon="10.470090292334337"><ele>175.0</ele><time>2026-03-28T08:21:46Z</time></trkpt><trkpt lat="45.48516263458273" lon="10.469955276082292"><ele>174.5</ele><time>2026-03-28T08:21:47Z</time></trkpt><trkpt lat="45.48514638574042" lon="10.469837471987956"><ele>174.0</ele><time>2026-03-28T08:21:48Z</time></trkpt><trkpt lat="45.48513157883953" lon="10.469730122043334"><ele>173.5</ele><time>2026-03-28T08:21:49Z</time></trkpt><trkpt lat="45.48509971424816" lon="10.469630869129178"><ele>173.0</ele><time>2026-03-28T08:21:50Z</time></trkpt><trkpt lat="45.48509813627195" lon="10.469527435085745"><ele>172.5</ele><time>2026-03-28T08:21:51Z</time></trkpt><trkpt lat="45.48506410659977" lon="10.46941745282957"><ele>172.0</ele><time>2026-03-28T08:21:52Z</time></trkpt><trkpt lat="45.48503052318935" lon="10.469299513336747"><ele>171.75</ele><time>2026-03-28T08:21:53Z</time></trkpt><trkpt lat="45.485108798364706" lon="10.46910129919332"><ele>171.5</ele><time>2026-03-28T08:21:54Z</time></trkpt><trkpt lat="45.485105243199484" lon="10.468937072816933"><ele>171.25</ele><time>2026-03-28T08:21:55Z</time></trkpt><trkpt lat="45.48509745209768" lon="10.468765071785986"><ele>171.0</ele><time>2026-03-28T08:21:56Z</time></trkpt><trkpt lat="45.485083013299686" lon="10.468577554558363"><ele>170.75</ele><time>2026-03-28T08:21:57Z</time></trkpt><trkpt lat="45.4850687584325" lon="10.468382302710053"><ele>170.5</ele><time>2026-03-28T08:21:58Z</time></trkpt><trkpt lat="45.48505477494635" lon="10.468189823771835"><ele>170.25</ele><time>2026-03-28T08:21:59Z</time></trkpt><trkpt lat="45.48503999160029" lon="10.468004833070541"><ele>170.0</ele><time>2026-03-28T08:22:00Z</time></trkpt><trkpt lat="45.4850263808303" lon="10.467812384704807"><ele>169.75</ele><time>2026-03-28T08:22:01Z</time></trkpt><trkpt lat="45.48501200916816" lon="10.467622917581346"><ele>169.5</ele><time>2026-03-28T08:22:02Z</time></trkpt><trkpt lat="45.48499751916112" lon="10.467439304631204"><ele>169.25</ele><time>2026-03-28T08:22:03Z</time></trkpt><trkpt lat="45.484975734418114" lon="10.467245189889061"><ele>169.0</ele><time>2026-03-28T08:22:04Z</time></trkpt><trkpt lat="45.484951725937016" lon="10.467053454136114"><ele>169.0</ele><time>2026-03-28T08:22:05Z</time></trkpt><trkpt lat="45.48492162711953" lon="10.466857813373958"><ele>169.0</ele><time>2026-03-28T08:22:06Z</time></trkpt><trkpt lat="45.48489020773913" lon="10.466668358901797"><ele>169.0</ele><time>2026-03-28T08:22:07Z</time></trkpt><trkpt lat="45.48486768470927" lon="10.466488500323067"><ele>169.0</ele><time>2026-03-28T08:22:08Z</time></trkpt><trkpt lat="45.484847837244956" lon="10.466301733941645"><ele>168.5</ele><time>2026-03-28T08:22:09Z</time></trkpt><trkpt lat="45.48482525484945" lon="10.466119729835883"><ele>168.0</ele><time>2026-03-28T08:22:10Z</time></trkpt><trkpt lat="45.484810808255865" lon="10.465937629554107"><ele>167.5</ele><time>2026-03-28T08:22:11Z</time></trkpt><trkpt lat="45.48479351630929" lon="10.46576012100693"><ele>167.0</ele><time>2026-03-28T08:22:12Z</time></trkpt><trkpt lat="45.48477553490603" lon="10.465578689408833"><ele>166.75</ele><time>2026-03-28T08:22:13Z</time></trkpt><trkpt lat="45.48475410077298" lon="10.465408391557581"><ele>166.5</ele><time>2026-03-28T08:22:14Z</time></trkpt><trkpt lat="45.48472637528468" lon="10.465236772647023"><ele>166.25</ele><time>2026-03-28T08:22:15Z</time></trkpt><trkpt lat="45.48470124647244" lon="10.465052106161961"><ele>166.0</ele><time>2026-03-28T08:22:16Z</time></trkpt><trkpt lat="45.484679729467175" lon="10.46485616802721"><ele>166.0</ele><time>2026-03-28T08:22:17Z</time></trkpt><trkpt lat="45.484658930914904" lon="10.46465874055285"><ele>166.0</ele><time>2026-03-28T08:22:18Z</time></trkpt><trkpt lat="45.48464105309489" lon="10.464484499764584"><ele>166.0</ele><time>2026-03-28T08:22:19Z</time></trkpt><trkpt lat="45.48462119306206" lon="10.46429761645974"><ele>166.0</ele><time>2026-03-28T08:22:20Z</time></trkpt><trkpt lat="45.48460102838234" lon="10.464113408583732"><ele>165.8</ele><time>2026-03-28T08:22:21Z</time></trkpt><trkpt lat="45.48458474326241" lon="10.46393901764951"><ele>165.60000000000002</ele><time>2026-03-28T08:22:22Z</time></trkpt><trkpt lat="45.48457368959582" lon="10.463777885448815"><ele>165.4</ele><time>2026-03-28T08:22:23Z</time></trkpt><trkpt lat="45.484565833101286" lon="10.46363711545498"><ele>165.2</ele><time>2026-03-28T08:22:24Z</time></trkpt><trkpt lat="45.48456108916976" lon="10.463501063126575"><ele>165.0</ele><time>2026-03-28T08:22:25Z</time></trkpt><trkpt lat="45.48456465433334" lon="10.463397700124554"><ele>164.83333333333334</ele><time>2026-03-28T08:22:26Z</time></trkpt><trkpt lat="45.484561478654605" lon="10.463304314523777"><ele>164.66666666666666</ele><time>2026-03-28T08:22:27Z</time></trkpt><trkpt lat="45.48454251005447" lon="10.463202131886021"><ele>164.5</ele><time>2026-03-28T08:22:28Z</time></trkpt><trkpt lat="45.48450239595115" lon="10.46311991461224"><ele>164.33333333333331</ele><time>2026-03-28T08:22:29Z</time></trkpt><trkpt lat="45.48444673553721" lon="10.463033818317179"><ele>164.16666666666666</ele><time>2026-03-28T08:22:30Z</time></trkpt><trkpt lat="45.48437820990762" lon="10.46294238784244"><ele>164.0</ele><time>2026-03-28T08:22:31Z</time></trkpt><trkpt lat="45.484316263751495" lon="10.462828305290051"><ele>163.75</ele><time>2026-03-28T08:22:32Z</time></trkpt><trkpt lat="45.48426933907075" lon="10.462676074143534"><ele>163.5</ele><time>2026-03-28T08:22:33Z</time></trkpt><trkpt lat="45.4842385991783" lon="10.462509504962885"><ele>163.25</ele><time>2026-03-28T08:22:34Z</time></trkpt><trkpt lat="45.484189400312296" lon="10.462351909685138"><ele>163.0</ele><time>2026-03-28T08:22:35Z</time></trkpt><trkpt lat="45.48411651872745" lon="10.462210597363597"><ele>162.83333333333334</ele><time>2026-03-28T08:22:36Z</time></trkpt><trkpt lat="45.48404798878088" lon="10.462091799222442"><ele>162.66666666666669</ele><time>2026-03-28T08:22:37Z</time></trkpt><trkpt lat="45.48399771371555" lon="10.4619795545621"><ele>162.5</ele><time>2026-03-28T08:22:38Z</time></trkpt><trkpt lat="45.48395163303484" lon="10.461893676931744"><ele>162.33333333333334</ele><time>2026-03-28T08:22:39Z</time></trkpt><trkpt lat="45.48391757299653" lon="10.461817763581255"><ele>162.16666666666666</ele><time>2026-03-28T08:22:40Z</time></trkpt><trkpt lat="45.48388545318165" lon="10.461736395731672"><ele>162.0</ele><time>2026-03-28T08:22:41Z</time></trkpt><trkpt lat="45.48389279084481" lon="10.461572885948934"><ele>162.0</ele><time>2026-03-28T08:22:43Z</time></trkpt><trkpt lat="45.483917422836846" lon="10.461375338542831"><ele>162.0</ele><time>2026-03-28T08:22:45Z</time></trkpt><trkpt lat="45.48391979820139" lon="10.461228672142889"><ele>162.0</ele><time>2026-03-28T08:22:46Z</time></trkpt><trkpt lat="45.48391909011017" lon="10.461059813853229"><ele>162.0</ele><time>2026-03-28T08:22:47Z</time></trkpt><trkpt lat="45.483918602593604" lon="10.460882323028967"><ele>162.0</ele><time>2026-03-28T08:22:48Z</time></trkpt><trkpt lat="45.48391676366827" lon="10.460701521720093"><ele>162.0</ele><time>2026-03-28T08:22:49Z</time></trkpt><trkpt lat="45.48390828858041" lon="10.46051885311402"><ele>162.0</ele><time>2026-03-28T08:22:50Z</time></trkpt><trkpt lat="45.483893961639254" lon="10.46033632798229"><ele>162.0</ele><time>2026-03-28T08:22:51Z</time></trkpt><trkpt lat="45.48387181441598" lon="10.46017420947089"><ele>162.0</ele><time>2026-03-28T08:22:52Z</time></trkpt><trkpt lat="45.48385420324152" lon="10.460028375172044"><ele>162.0</ele><time>2026-03-28T08:22:53Z</time></trkpt><trkpt lat="45.483829716527126" lon="10.45987101165501"><ele>162.0</ele><time>2026-03-28T08:22:54Z</time></trkpt><trkpt lat="45.483809318678446" lon="10.459738486761124"><ele>162.0</ele><time>2026-03-28T08:22:55Z</time></trkpt><trkpt lat="45.48378533758474" lon="10.459608678892234"><ele>162.0</ele><time>2026-03-28T08:22:56Z</time></trkpt><trkpt lat="45.483768611962056" lon="10.45951620783684"><ele>161.83333333333334</ele><time>2026-03-28T08:22:57Z</time></trkpt><trkpt lat="45.48375069943938" lon="10.45942234766508"><ele>161.66666666666666</ele><time>2026-03-28T08:22:58Z</time></trkpt><trkpt lat="45.48377499344645" lon="10.459261310162429"><ele>161.5</ele><time>2026-03-28T08:23:00Z</time></trkpt><trkpt lat="45.48384430482746" lon="10.459147702940832"><ele>161.33333333333331</ele><time>2026-03-28T08:23:02Z</time></trkpt><trkpt lat="45.48389231337133" lon="10.459077146915265"><ele>161.16666666666666</ele><time>2026-03-28T08:23:03Z</time></trkpt><trkpt lat="45.48394579054025" lon="10.459007278124629"><ele>161.0</ele><time>2026-03-28T08:23:04Z</time></trkpt><trkpt lat="45.4839974096602" lon="10.458922418880748"><ele>161.0</ele><time>2026-03-28T08:23:05Z</time></trkpt><trkpt lat="45.484053647228066" lon="10.458839133608441"><ele>161.0</ele><time>2026-03-28T08:23:06Z</time></trkpt><trkpt lat="45.48411369466444" lon="10.458748558308752"><ele>161.0</ele><time>2026-03-28T08:23:07Z</time></trkpt><trkpt lat="45.48417269673535" lon="10.458649685901275"><ele>161.0</ele><time>2026-03-28T08:23:08Z</time></trkpt><trkpt lat="45.48424172472013" lon="10.45854710350911"><ele>161.0</ele><time>2026-03-28T08:23:09Z</time></trkpt><trkpt lat="45.48431899958552" lon="10.458440218715273"><ele>160.5</ele><time>2026-03-28T08:23:10Z</time></trkpt><trkpt lat="45.48438582188682" lon="10.458344519656372"><ele>160.0</ele><time>2026-03-28T08:23:11Z</time></trkpt><trkpt lat="45.48442871911158" lon="10.45826733752551"><ele>159.5</ele><time>2026-03-28T08:23:12Z</time></trkpt><trkpt lat="45.48447518668471" lon="10.458157389763585"><ele>159.0</ele><time>2026-03-28T08:23:13Z</time></trkpt><trkpt lat="45.4845035348834" lon="10.458058836238338"><ele>158.5</ele><time>2026-03-28T08:23:14Z</time></trkpt><trkpt lat="45.484518635240036" lon="10.45795177664687"><ele>158.0</ele><time>2026-03-28T08:23:15Z</time></trkpt><trkpt lat="45.4845200500009" lon="10.457842309046324"><ele>158.0</ele><time>2026-03-28T08:23:16Z</time></trkpt><trkpt lat="45.48451328234302" lon="10.45771548823732"><ele>158.0</ele><time>2026-03-28T08:23:17Z</time></trkpt><trkpt lat="45.484508401486" lon="10.457566350673662"><ele>158.0</ele><time>2026-03-28T08:23:18Z</time></trkpt><trkpt lat="45.48451043662593" lon="10.457420225428722"><ele>158.0</ele><time>2026-03-28T08:23:19Z</time></trkpt><trkpt lat="45.48451403048778" lon="10.45723775115612"><ele>158.0</ele><time>2026-03-28T08:23:20Z</time></trkpt><trkpt lat="45.484515597763654" lon="10.45704467201888"><ele>158.0</ele><time>2026-03-28T08:23:21Z</time></trkpt><trkpt lat="45.48451549301097" lon="10.456837073823628"><ele>158.0</ele><time>2026-03-28T08:23:22Z</time></trkpt><trkpt lat="45.48451376884338" lon="10.456647903218418"><ele>158.0</ele><time>2026-03-28T08:23:23Z</time></trkpt><trkpt lat="45.48451500227" lon="10.4564607298052"><ele>158.0</ele><time>2026-03-28T08:23:24Z</time></trkpt><trkpt lat="45.48451293850636" lon="10.45626868095575"><ele>157.75</ele><time>2026-03-28T08:23:25Z</time></trkpt><trkpt lat="45.48451153535038" lon="10.45606488741293"><ele>157.5</ele><time>2026-03-28T08:23:26Z</time></trkpt><trkpt lat="45.4845099168032" lon="10.455878205020149"><ele>157.25</ele><time>2026-03-28T08:23:27Z</time></trkpt><trkpt lat="45.48450598291639" lon="10.455695764115756"><ele>157.0</ele><time>2026-03-28T08:23:28Z</time></trkpt><trkpt lat="45.484507318972376" lon="10.45552836553858"><ele>156.79999999999998</ele><time>2026-03-28T08:23:29Z</time></trkpt><trkpt lat="45.48451261818921" lon="10.45537319689043"><ele>156.6</ele><time>2026-03-28T08:23:30Z</time></trkpt><trkpt lat="45.484515073806534" lon="10.455222556213167"><ele>156.39999999999998</ele><time>2026-03-28T08:23:31Z</time></trkpt><trkpt lat="45.48451282263404" lon="10.455070291286205"><ele>156.2</ele><time>2026-03-28T08:23:32Z</time></trkpt><trkpt lat="45.48451328482416" lon="10.454915609108788"><ele>156.0</ele><time>2026-03-28T08:23:33Z</time></trkpt><trkpt lat="45.484515476317924" lon="10.454767332567393"><ele>156.0</ele><time>2026-03-28T08:23:34Z</time></trkpt><trkpt lat="45.484520479902805" lon="10.454635314686277"><ele>156.0</ele><time>2026-03-28T08:23:35Z</time></trkpt><trkpt lat="45.48452486461464" lon="10.454512087839829"><ele>156.0</ele><time>2026-03-28T08:23:36Z</time></trkpt><trkpt lat="45.484527660789055" lon="10.454384601959388"><ele>156.0</ele><time>2026-03-28T08:23:37Z</time></trkpt><trkpt lat="45.48453159425319" lon="10.454265748204342"><ele>156.0</ele><time>2026-03-28T08:23:38Z</time></trkpt><trkpt lat="45.484537717170106" lon="10.454160358638067"><ele>156.0</ele><time>2026-03-28T08:23:39Z</time></trkpt><trkpt lat="45.484542632210776" lon="10.454013754713573"><ele>155.8</ele><time>2026-03-28T08:23:41Z</time></trkpt><trkpt lat="45.48448145090295" lon="10.453950212060773"><ele>155.6</ele><time>2026-03-28T08:23:43Z</time></trkpt><trkpt lat="45.48438424177559" lon="10.453960204256209"><ele>155.4</ele><time>2026-03-28T08:23:45Z</time></trkpt><trkpt lat="45.48430375144105" lon="10.453954080086982"><ele>155.2</ele><time>2026-03-28T08:23:46Z</time></trkpt><trkpt lat="45.484204151929845" lon="10.453940169730604"><ele>155.0</ele><time>2026-03-28T08:23:47Z</time></trkpt><trkpt lat="45.48407548213821" lon="10.453921610171612"><ele>155.0</ele><time>2026-03-28T08:23:48Z</time></trkpt><trkpt lat="45.48391398349803" lon="10.453897543362668"><ele>155.0</ele><time>2026-03-28T08:23:49Z</time></trkpt><trkpt lat="45.48375854879537" lon="10.453867768743395"><ele>155.0</ele><time>2026-03-28T08:23:50Z</time></trkpt><trkpt lat="45.48359810202521" lon="10.453840887427804"><ele>154.66666666666666</ele><time>2026-03-28T08:23:51Z</time></trkpt><trkpt lat="45.48343616383285" lon="10.453818541662935"><ele>154.33333333333334</ele><time>2026-03-28T08:23:52Z</time></trkpt><trkpt lat="45.48327563500308" lon="10.453795347971823"><ele>154.0</ele><time>2026-03-28T08:23:53Z</time></trkpt><trkpt lat="45.483117289614334" lon="10.453772569024581"><ele>153.75</ele><time>2026-03-28T08:23:54Z</time></trkpt><trkpt lat="45.48297608112871" lon="10.453754212342103"><ele>153.5</ele><time>2026-03-28T08:23:55Z</time></trkpt><trkpt lat="45.4828435985073" lon="10.453737852774863"><ele>153.25</ele><time>2026-03-28T08:23:56Z</time></trkpt><trkpt lat="45.482712092927414" lon="10.453720106559594"><ele>153.0</ele><time>2026-03-28T08:23:57Z</time></trkpt><trkpt lat="45.48257722806403" lon="10.453695242650593"><ele>152.75</ele><time>2026-03-28T08:23:58Z</time></trkpt><trkpt lat="45.482442495579335" lon="10.453669085091697"><ele>152.5</ele><time>2026-03-28T08:23:59Z</time></trkpt><trkpt lat="45.482293887645426" lon="10.453649105332907"><ele>152.25</ele><time>2026-03-28T08:24:00Z</time></trkpt><trkpt lat="45.48214819426622" lon="10.453631095606914"><ele>152.0</ele><time>2026-03-28T08:24:01Z</time></trkpt><trkpt lat="45.482017650114464" lon="10.453619863027486"><ele>152.0</ele><time>2026-03-28T08:24:02Z</time></trkpt><trkpt lat="45.48188859086111" lon="10.453599698853937"><ele>152.0</ele><time>2026-03-28T08:24:03Z</time></trkpt><trkpt lat="45.48176147674169" lon="10.453582769938153"><ele>152.0</ele><time>2026-03-28T08:24:04Z</time></trkpt><trkpt lat="45.481649271405594" lon="10.453565721911751"><ele>152.0</ele><time>2026-03-28T08:24:05Z</time></trkpt><trkpt lat="45.48154054648624" lon="10.45354722754994"><ele>152.0</ele><time>2026-03-28T08:24:06Z</time></trkpt><trkpt lat="45.48143803566214" lon="10.453530095427542"><ele>152.0</ele><time>2026-03-28T08:24:07Z</time></trkpt><trkpt lat="45.48132080606144" lon="10.453511628860998"><ele>152.0</ele><time>2026-03-28T08:24:08Z</time></trkpt><trkpt lat="45.48118793384353" lon="10.453491441018866"><ele>152.0</ele><time>2026-03-28T08:24:09Z</time></trkpt><trkpt lat="45.481062504368374" lon="10.453476325266326"><ele>151.75</ele><time>2026-03-28T08:24:10Z</time></trkpt><trkpt lat="45.480937676072976" lon="10.4534639476406"><ele>151.5</ele><time>2026-03-28T08:24:11Z</time></trkpt><trkpt lat="45.48080450245752" lon="10.453445763936397"><ele>151.25</ele><time>2026-03-28T08:24:12Z</time></trkpt><trkpt lat="45.480670470664336" lon="10.453425304580788"><ele>151.0</ele><time>2026-03-28T08:24:13Z</time></trkpt><trkpt lat="45.480540093736344" lon="10.453404922756985"><ele>151.2</ele><time>2026-03-28T08:24:14Z</time></trkpt><trkpt lat="45.48041868333147" lon="10.453387266959218"><ele>151.39999999999998</ele><time>2026-03-28T08:24:15Z</time></trkpt><trkpt lat="45.48030809006987" lon="10.453375679168383"><ele>151.6</ele><time>2026-03-28T08:24:16Z</time></trkpt><trkpt lat="45.480200115547305" lon="10.453365492548569"><ele>151.79999999999998</ele><time>2026-03-28T08:24:17Z</time></trkpt><trkpt lat="45.4801054417847" lon="10.45335814041582"><ele>152.0</ele><time>2026-03-28T08:24:18Z</time></trkpt><trkpt lat="45.48000866650641" lon="10.453355380762586"><ele>152.0</ele><time>2026-03-28T08:24:19Z</time></trkpt><trkpt lat="45.47993182749359" lon="10.453364656710812"><ele>152.0</ele><time>2026-03-28T08:24:20Z</time></trkpt><trkpt lat="45.47983920349733" lon="10.453392361385797"><ele>152.0</ele><time>2026-03-28T08:24:21Z</time></trkpt><trkpt lat="45.47975769110208" lon="10.453457816596543"><ele>152.0</ele><time>2026-03-28T08:24:22Z</time></trkpt><trkpt lat="45.47964963198314" lon="10.453553239917424"><ele>152.0</ele><time>2026-03-28T08:24:23Z</time></trkpt><trkpt lat="45.47953415634128" lon="10.453662797837248"><ele>151.66666666666666</ele><time>2026-03-28T08:24:24Z</time></trkpt><trkpt lat="45.47939938564244" lon="10.45379342703074"><ele>151.33333333333334</ele><time>2026-03-28T08:24:25Z</time></trkpt><trkpt lat="45.479249726751966" lon="10.453941273563476"><ele>151.0</ele><time>2026-03-28T08:24:26Z</time></trkpt><trkpt lat="45.47909224101844" lon="10.454113183168388"><ele>151.0</ele><time>2026-03-28T08:24:27Z</time></trkpt><trkpt lat="45.47884706516313" lon="10.454163712647233"><ele>151.0</ele><time>2026-03-28T08:24:28Z</time></trkpt><trkpt lat="45.47869451505951" lon="10.454364483902316"><ele>151.0</ele><time>2026-03-28T08:24:29Z</time></trkpt><trkpt lat="45.478537482703544" lon="10.45455654383021"><ele>151.0</ele><time>2026-03-28T08:24:30Z</time></trkpt><trkpt lat="45.47838265999452" lon="10.454669263224071"><ele>151.0</ele><time>2026-03-28T08:24:31Z</time></trkpt><trkpt lat="45.47819934141184" lon="10.454976597345663"><ele>151.0</ele><time>2026-03-28T08:24:32Z</time></trkpt><trkpt lat="45.478057970103045" lon="10.4551521951865"><ele>151.0</ele><time>2026-03-28T08:24:33Z</time></trkpt><trkpt lat="45.47791273367885" lon="10.45531850574839"><ele>151.0</ele><time>2026-03-28T08:24:34Z</time></trkpt><trkpt lat="45.47777863623326" lon="10.455472061817803"><ele>152.0</ele><time>2026-03-28T08:24:35Z</time></trkpt><trkpt lat="45.477645843354495" lon="10.455624124088413"><ele>153.0</ele><time>2026-03-28T08:24:36Z</time></trkpt><trkpt lat="45.4776338445238" lon="10.455925784276952"><ele>154.0</ele><time>2026-03-28T08:24:37Z</time></trkpt><trkpt lat="45.47754414215072" lon="10.456024605418675"><ele>154.0</ele><time>2026-03-28T08:24:38Z</time></trkpt><trkpt lat="45.47747405903323" lon="10.456103945629032"><ele>154.0</ele><time>2026-03-28T08:24:39Z</time></trkpt><trkpt lat="45.477422880727154" lon="10.456174965128943"><ele>154.0</ele><time>2026-03-28T08:24:40Z</time></trkpt><trkpt lat="45.47737609422793" lon="10.456247615022127"><ele>154.0</ele><time>2026-03-28T08:24:41Z</time></trkpt><trkpt lat="45.477333475990314" lon="10.456339542139144"><ele>154.0</ele><time>2026-03-28T08:24:42Z</time></trkpt><trkpt lat="45.47729195220536" lon="10.456473723951088"><ele>154.0</ele><time>2026-03-28T08:24:43Z</time></trkpt><trkpt lat="45.477255401072654" lon="10.456634344868645"><ele>153.75</ele><time>2026-03-28T08:24:44Z</time></trkpt><trkpt lat="45.4772159552991" lon="10.456806724953989"><ele>153.5</ele><time>2026-03-28T08:24:45Z</time></trkpt><trkpt lat="45.477168749792945" lon="10.456995899973423"><ele>153.25</ele><time>2026-03-28T08:24:46Z</time></trkpt><trkpt lat="45.47712384126829" lon="10.457202214286259"><ele>153.0</ele><time>2026-03-28T08:24:47Z</time></trkpt><trkpt lat="45.47708576180019" lon="10.457407815293855"><ele>153.5</ele><time>2026-03-28T08:24:48Z</time></trkpt><trkpt lat="45.477056681928616" lon="10.457597810326778"><ele>154.0</ele><time>2026-03-28T08:24:49Z</time></trkpt><trkpt lat="45.4770353924433" lon="10.45777634540647"><ele>154.5</ele><time>2026-03-28T08:24:50Z</time></trkpt><trkpt lat="45.476998086471" lon="10.457932204071584"><ele>155.0</ele><time>2026-03-28T08:24:51Z</time></trkpt><trkpt lat="45.47697015243342" lon="10.45808556320113"><ele>155.0</ele><time>2026-03-28T08:24:52Z</time></trkpt><trkpt lat="45.47694552337541" lon="10.458234673835001"><ele>155.0</ele><time>2026-03-28T08:24:53Z</time></trkpt><trkpt lat="45.47691536798992" lon="10.458385363940542"><ele>155.0</ele><time>2026-03-28T08:24:54Z</time></trkpt><trkpt lat="45.47688857180983" lon="10.458532578896053"><ele>155.0</ele><time>2026-03-28T08:24:55Z</time></trkpt><trkpt lat="45.476862117887855" lon="10.458693678509007"><ele>155.0</ele><time>2026-03-28T08:24:56Z</time></trkpt><trkpt lat="45.47682876150294" lon="10.458852035321762"><ele>155.0</ele><time>2026-03-28T08:24:57Z</time></trkpt><trkpt lat="45.476768011966726" lon="10.458988453030221"><ele>155.0</ele><time>2026-03-28T08:24:58Z</time></trkpt><trkpt lat="45.47673282166453" lon="10.45912104851194"><ele>155.0</ele><time>2026-03-28T08:24:59Z</time></trkpt><trkpt lat="45.47672233202477" lon="10.459252483138656"><ele>155.0</ele><time>2026-03-28T08:25:00Z</time></trkpt><trkpt lat="45.47669636875788" lon="10.459335625566"><ele>155.0</ele><time>2026-03-28T08:25:01Z</time></trkpt><trkpt lat="45.47663798443142" lon="10.45943033551727"><ele>155.0</ele><time>2026-03-28T08:25:03Z</time></trkpt><trkpt lat="45.47658552030684" lon="10.459530230648875"><ele>155.0</ele><time>2026-03-28T08:25:05Z</time></trkpt><trkpt lat="45.47641598946888" lon="10.459508635985843"><ele>155.0</ele><time>2026-03-28T08:25:06Z</time></trkpt><trkpt lat="45.476315974403974" lon="10.459584387642774"><ele>155.0</ele><time>2026-03-28T08:25:07Z</time></trkpt><trkpt lat="45.47619897948869" lon="10.459674035768357"><ele>155.0</ele><time>2026-03-28T08:25:08Z</time></trkpt><trkpt lat="45.47606454614657" lon="10.459779249157226"><ele>155.0</ele><time>2026-03-28T08:25:09Z</time></trkpt><trkpt lat="45.47592473911507" lon="10.459890344048997"><ele>155.0</ele><time>2026-03-28T08:25:10Z</time></trkpt><trkpt lat="45.475786986057656" lon="10.460010405464077"><ele>155.0</ele><time>2026-03-28T08:25:11Z</time></trkpt><trkpt lat="45.47565128856423" lon="10.460158208167593"><ele>155.0</ele><time>2026-03-28T08:25:12Z</time></trkpt><trkpt lat="45.47549232021685" lon="10.460285618845866"><ele>155.0</ele><time>2026-03-28T08:25:13Z</time></trkpt><trkpt lat="45.475325053462456" lon="10.460405535516353"><ele>154.0</ele><time>2026-03-28T08:25:14Z</time></trkpt><trkpt lat="45.475142038851054" lon="10.460496776650121"><ele>153.0</ele><time>2026-03-28T08:25:15Z</time></trkpt><trkpt lat="45.474959168283974" lon="10.460581987178037"><ele>152.0</ele><time>2026-03-28T08:25:16Z</time></trkpt><trkpt lat="45.47479120395169" lon="10.460711806940484"><ele>152.0</ele><time>2026-03-28T08:25:17Z</time></trkpt><trkpt lat="45.474622009986156" lon="10.460835188656613"><ele>152.0</ele><time>2026-03-28T08:25:18Z</time></trkpt><trkpt lat="45.47446989114419" lon="10.460965020305181"><ele>152.0</ele><time>2026-03-28T08:25:19Z</time></trkpt><trkpt lat="45.47431959133551" lon="10.461097427207456"><ele>152.66666666666666</ele><time>2026-03-28T08:25:20Z</time></trkpt><trkpt lat="45.4741755013585" lon="10.461245175834929"><ele>153.33333333333334</ele><time>2026-03-28T08:25:21Z</time></trkpt><trkpt lat="45.474039792419326" lon="10.46141109980727"><ele>154.0</ele><time>2026-03-28T08:25:22Z</time></trkpt><trkpt lat="45.47389631274444" lon="10.461611471583073"><ele>153.66666666666669</ele><time>2026-03-28T08:25:23Z</time></trkpt><trkpt lat="45.473753899306296" lon="10.461800076015924"><ele>153.33333333333334</ele><time>2026-03-28T08:25:24Z</time></trkpt><trkpt lat="45.47360106037817" lon="10.461923187794332"><ele>153.0</ele><time>2026-03-28T08:25:25Z</time></trkpt><trkpt lat="45.473440520414506" lon="10.462053299170586"><ele>153.66666666666666</ele><time>2026-03-28T08:25:26Z</time></trkpt><trkpt lat="45.473275269288294" lon="10.462191703747166"><ele>154.33333333333331</ele><time>2026-03-28T08:25:27Z</time></trkpt><trkpt lat="45.473121246181236" lon="10.46236028540779"><ele>155.0</ele><time>2026-03-28T08:25:28Z</time></trkpt><trkpt lat="45.472959890699784" lon="10.462520746045357"><ele>154.66666666666666</ele><time>2026-03-28T08:25:29Z</time></trkpt><trkpt lat="45.47278503357905" lon="10.462669138931162"><ele>154.33333333333334</ele><time>2026-03-28T08:25:30Z</time></trkpt><trkpt lat="45.47262707568334" lon="10.46285414785004"><ele>154.0</ele><time>2026-03-28T08:25:31Z</time></trkpt><trkpt lat="45.47246317902862" lon="10.46299098477933"><ele>154.0</ele><time>2026-03-28T08:25:32Z</time></trkpt><trkpt lat="45.47231914880458" lon="10.463141654426076"><ele>154.0</ele><time>2026-03-28T08:25:33Z</time></trkpt><trkpt lat="45.47217498006531" lon="10.463309139002012"><ele>154.0</ele><time>2026-03-28T08:25:34Z</time></trkpt><trkpt lat="45.47203742198258" lon="10.463488474200762"><ele>153.66666666666669</ele><time>2026-03-28T08:25:35Z</time></trkpt><trkpt lat="45.47187288229827" lon="10.463596737178358"><ele>153.33333333333334</ele><time>2026-03-28T08:25:36Z</time></trkpt><trkpt lat="45.471709444266665" lon="10.463694244618841"><ele>153.0</ele><time>2026-03-28T08:25:37Z</time></trkpt><trkpt lat="45.47156101381923" lon="10.463776397917515"><ele>153.0</ele><time>2026-03-28T08:25:38Z</time></trkpt><trkpt lat="45.471420814448095" lon="10.463847398909449"><ele>153.0</ele><time>2026-03-28T08:25:39Z</time></trkpt><trkpt lat="45.47128589856617" lon="10.463924784002188"><ele>153.0</ele><time>2026-03-28T08:25:40Z</time></trkpt><trkpt lat="45.47116345012888" lon="10.464024298257373"><ele>153.0</ele><time>2026-03-28T08:25:41Z</time></trkpt><trkpt lat="45.471040764178" lon="10.464183957345197"><ele>152.66666666666666</ele><time>2026-03-28T08:25:42Z</time></trkpt><trkpt lat="45.470914023091254" lon="10.46436681924955"><ele>152.33333333333331</ele><time>2026-03-28T08:25:43Z</time></trkpt><trkpt lat="45.47079932514476" lon="10.464583612606358"><ele>152.0</ele><time>2026-03-28T08:25:44Z</time></trkpt><trkpt lat="45.47065435431745" lon="10.464793621837678"><ele>152.0</ele><time>2026-03-28T08:25:45Z</time></trkpt><trkpt lat="45.47053562874035" lon="10.464994881565563"><ele>152.0</ele><time>2026-03-28T08:25:46Z</time></trkpt><trkpt lat="45.47042763984501" lon="10.465174796793296"><ele>152.0</ele><time>2026-03-28T08:25:47Z</time></trkpt><trkpt lat="45.47031285882665" lon="10.465342317108618"><ele>152.0</ele><time>2026-03-28T08:25:48Z</time></trkpt><trkpt lat="45.47018328986828" lon="10.465502891602851"><ele>152.0</ele><time>2026-03-28T08:25:49Z</time></trkpt><trkpt lat="45.470042904467405" lon="10.46565997465307"><ele>152.0</ele><time>2026-03-28T08:25:50Z</time></trkpt><trkpt lat="45.46991083822553" lon="10.465811187131953"><ele>152.0</ele><time>2026-03-28T08:25:51Z</time></trkpt><trkpt lat="45.46979939179476" lon="10.465951752853563"><ele>152.0</ele><time>2026-03-28T08:25:52Z</time></trkpt><trkpt lat="45.469722323189735" lon="10.466099144609316"><ele>152.0</ele><time>2026-03-28T08:25:53Z</time></trkpt><trkpt lat="45.46967212854068" lon="10.466280115578197"><ele>152.0</ele><time>2026-03-28T08:25:54Z</time></trkpt><trkpt lat="45.46962845989483" lon="10.46647148022081"><ele>152.66666666666666</ele><time>2026-03-28T08:25:55Z</time></trkpt><trkpt lat="45.469577192156336" lon="10.466690309386252"><ele>153.33333333333334</ele><time>2026-03-28T08:25:56Z</time></trkpt><trkpt lat="45.46951931070378" lon="10.466925183445975"><ele>154.0</ele><time>2026-03-28T08:25:57Z</time></trkpt><trkpt lat="45.469469663455676" lon="10.467163662768966"><ele>154.0</ele><time>2026-03-28T08:25:58Z</time></trkpt><trkpt lat="45.46943124418248" lon="10.467373397644101"><ele>154.0</ele><time>2026-03-28T08:25:59Z</time></trkpt><trkpt lat="45.469363196659934" lon="10.46754782995641"><ele>154.0</ele><time>2026-03-28T08:26:00Z</time></trkpt><trkpt lat="45.46929180065754" lon="10.467692928635259"><ele>154.0</ele><time>2026-03-28T08:26:01Z</time></trkpt><trkpt lat="45.469206200525434" lon="10.46782900023109"><ele>154.0</ele><time>2026-03-28T08:26:02Z</time></trkpt><trkpt lat="45.469100194402635" lon="10.467946364038315"><ele>154.0</ele><time>2026-03-28T08:26:03Z</time></trkpt><trkpt lat="45.468983748070954" lon="10.46803738068622"><ele>154.0</ele><time>2026-03-28T08:26:04Z</time></trkpt><trkpt lat="45.46885420759989" lon="10.468116201243165"><ele>154.0</ele><time>2026-03-28T08:26:05Z</time></trkpt><trkpt lat="45.46870624849209" lon="10.468198868657861"><ele>154.0</ele><time>2026-03-28T08:26:06Z</time></trkpt><trkpt lat="45.46854535592037" lon="10.468269359848719"><ele>154.0</ele><time>2026-03-28T08:26:07Z</time></trkpt><trkpt lat="45.46839220467033" lon="10.468322329665899"><ele>154.0</ele><time>2026-03-28T08:26:08Z</time></trkpt><trkpt lat="45.46825502615141" lon="10.468356963148382"><ele>154.0</ele><time>2026-03-28T08:26:09Z</time></trkpt><trkpt lat="45.46813356866827" lon="10.46838231063399"><ele>154.0</ele><time>2026-03-28T08:26:10Z</time></trkpt><trkpt lat="45.46804070258965" lon="10.46841247352077"><ele>154.0</ele><time>2026-03-28T08:26:11Z</time></trkpt><trkpt lat="45.467956335980695" lon="10.468404178170047"><ele>154.0</ele><time>2026-03-28T08:26:12Z</time></trkpt><trkpt lat="45.4678325699687" lon="10.46841755060846"><ele>154.0</ele><time>2026-03-28T08:26:14Z</time></trkpt><trkpt lat="45.467796789203675" lon="10.468564249322291"><ele>154.0</ele><time>2026-03-28T08:26:15Z</time></trkpt><trkpt lat="45.46777989462579" lon="10.468696920209094"><ele>154.0</ele><time>2026-03-28T08:26:16Z</time></trkpt><trkpt lat="45.4677783712392" lon="10.46885654645215"><ele>154.0</ele><time>2026-03-28T08:26:17Z</time></trkpt><trkpt lat="45.46776668210799" lon="10.469051235512104"><ele>154.0</ele><time>2026-03-28T08:26:18Z</time></trkpt><trkpt lat="45.46774239747337" lon="10.469290212854462"><ele>153.33333333333334</ele><time>2026-03-28T08:26:19Z</time></trkpt><trkpt lat="45.46771370662271" lon="10.469543184239978"><ele>152.66666666666666</ele><time>2026-03-28T08:26:20Z</time></trkpt><trkpt lat="45.46768313873022" lon="10.469804987024515"><ele>152.0</ele><time>2026-03-28T08:26:21Z</time></trkpt><trkpt lat="45.46761875151635" lon="10.47008086592466"><ele>152.0</ele><time>2026-03-28T08:26:22Z</time></trkpt><trkpt lat="45.467556057939376" lon="10.470362919392864"><ele>152.0</ele><time>2026-03-28T08:26:23Z</time></trkpt><trkpt lat="45.467491888552274" lon="10.47064471392101"><ele>152.0</ele><time>2026-03-28T08:26:24Z</time></trkpt><trkpt lat="45.46744045095208" lon="10.470945443808146"><ele>152.33333333333331</ele><time>2026-03-28T08:26:25Z</time></trkpt><trkpt lat="45.46738280965808" lon="10.471228206969439"><ele>152.66666666666666</ele><time>2026-03-28T08:26:26Z</time></trkpt><trkpt lat="45.46733679041244" lon="10.471472463994349"><ele>153.0</ele><time>2026-03-28T08:26:27Z</time></trkpt><trkpt lat="45.467302730416776" lon="10.471679029263095"><ele>153.20000000000002</ele><time>2026-03-28T08:26:28Z</time></trkpt><trkpt lat="45.467280101311665" lon="10.471845535837634"><ele>153.4</ele><time>2026-03-28T08:26:29Z</time></trkpt><trkpt lat="45.467257272034594" lon="10.471974240515058"><ele>153.60000000000002</ele><time>2026-03-28T08:26:30Z</time></trkpt><trkpt lat="45.46723057844307" lon="10.472061761415475"><ele>153.8</ele><time>2026-03-28T08:26:31Z</time></trkpt><trkpt lat="45.46713316969314" lon="10.47213330663137"><ele>154.0</ele><time>2026-03-28T08:26:33Z</time></trkpt><trkpt lat="45.467056496019744" lon="10.47211828982312"><ele>154.66666666666669</ele><time>2026-03-28T08:26:34Z</time></trkpt><trkpt lat="45.466981112406906" lon="10.472067526750562"><ele>155.33333333333334</ele><time>2026-03-28T08:26:35Z</time></trkpt><trkpt lat="45.46690686794864" lon="10.47200203848994"><ele>156.0</ele><time>2026-03-28T08:26:36Z</time></trkpt><trkpt lat="45.466824714998324" lon="10.471948749015498"><ele>156.66666666666666</ele><time>2026-03-28T08:26:37Z</time></trkpt><trkpt lat="45.4667402139791" lon="10.471883095186328"><ele>157.33333333333331</ele><time>2026-03-28T08:26:38Z</time></trkpt><trkpt lat="45.46665604196008" lon="10.47188618100293"><ele>158.0</ele><time>2026-03-28T08:26:39Z</time></trkpt><trkpt lat="45.466583190442165" lon="10.471860140713874"><ele>158.0</ele><time>2026-03-28T08:26:40Z</time></trkpt><trkpt lat="45.4664691527193" lon="10.471802355702335"><ele>158.0</ele><time>2026-03-28T08:26:42Z</time></trkpt><trkpt lat="45.466420242217865" lon="10.471871945136995"><ele>158.0</ele><time>2026-03-28T08:26:43Z</time></trkpt><trkpt lat="45.466319196893885" lon="10.472009352289083"><ele>158.0</ele><time>2026-03-28T08:26:45Z</time></trkpt><trkpt lat="45.466237874204424" lon="10.472024259244572"><ele>158.0</ele><time>2026-03-28T08:26:46Z</time></trkpt><trkpt lat="45.4661532023658" lon="10.472066419899543"><ele>158.0</ele><time>2026-03-28T08:26:47Z</time></trkpt><trkpt lat="45.466075450679185" lon="10.47210606453864"><ele>158.0</ele><time>2026-03-28T08:26:48Z</time></trkpt><trkpt lat="45.46599067296144" lon="10.472149291736088"><ele>158.0</ele><time>2026-03-28T08:26:49Z</time></trkpt><trkpt lat="45.46591433656663" lon="10.47221214655396"><ele>158.0</ele><time>2026-03-28T08:26:50Z</time></trkpt><trkpt lat="45.46582535299086" lon="10.472252053970415"><ele>158.0</ele><time>2026-03-28T08:26:51Z</time></trkpt><trkpt lat="45.465737995469674" lon="10.472294547604676"><ele>158.0</ele><time>2026-03-28T08:26:52Z</time></trkpt><trkpt lat="45.46564080287316" lon="10.472333226145775"><ele>158.0</ele><time>2026-03-28T08:26:53Z</time></trkpt><trkpt lat="45.465529708233134" lon="10.472356755859108"><ele>158.0</ele><time>2026-03-28T08:26:54Z</time></trkpt><trkpt lat="45.465416720879375" lon="10.47240224007108"><ele>158.0</ele><time>2026-03-28T08:26:55Z</time></trkpt><trkpt lat="45.46530686726112" lon="10.472455882867123"><ele>158.0</ele><time>2026-03-28T08:26:56Z</time></trkpt><trkpt lat="45.46519141263867" lon="10.472478551622201"><ele>158.0</ele><time>2026-03-28T08:26:57Z</time></trkpt><trkpt lat="45.46508001908925" lon="10.472497729562033"><ele>158.0</ele><time>2026-03-28T08:26:58Z</time></trkpt><trkpt lat="45.46498298109762" lon="10.47250941679736"><ele>158.0</ele><time>2026-03-28T08:26:59Z</time></trkpt><trkpt lat="45.464878351289336" lon="10.472484152044697"><ele>158.0</ele><time>2026-03-28T08:27:00Z</time></trkpt><trkpt lat="45.46475898253699" lon="10.472492585438946"><ele>158.0</ele><time>2026-03-28T08:27:01Z</time></trkpt><trkpt lat="45.464628643120406" lon="10.472467880732612"><ele>158.20000000000002</ele><time>2026-03-28T08:27:02Z</time></trkpt><trkpt lat="45.46449669927872" lon="10.472450556335675"><ele>158.4</ele><time>2026-03-28T08:27:03Z</time></trkpt><trkpt lat="45.46438196576068" lon="10.472431129156677"><ele>158.60000000000002</ele><time>2026-03-28T08:27:04Z</time></trkpt><trkpt lat="45.46428281859946" lon="10.472412451015733"><ele>158.8</ele><time>2026-03-28T08:27:05Z</time></trkpt><trkpt lat="45.46419098919501" lon="10.472406794796003"><ele>159.0</ele><time>2026-03-28T08:27:06Z</time></trkpt><trkpt lat="45.464110418935874" lon="10.472398190038989"><ele>159.0</ele><time>2026-03-28T08:27:07Z</time></trkpt><trkpt lat="45.46401591302223" lon="10.472391938956976"><ele>159.0</ele><time>2026-03-28T08:27:09Z</time></trkpt><trkpt lat="45.46394534658383" lon="10.472387220574314"><ele>159.0</ele><time>2026-03-28T08:27:11Z</time></trkpt><trkpt lat="45.46387845028876" lon="10.472392658365823"><ele>159.0</ele><time>2026-03-28T08:27:14Z</time></trkpt><trkpt lat="45.46382684069672" lon="10.472559671337322"><ele>159.0</ele><time>2026-03-28T08:27:16Z</time></trkpt><trkpt lat="45.463817211956254" lon="10.472690168282401"><ele>159.0</ele><time>2026-03-28T08:27:17Z</time></trkpt><trkpt lat="45.46379885516707" lon="10.4728394608467"><ele>159.0</ele><time>2026-03-28T08:27:18Z</time></trkpt><trkpt lat="45.46377584278823" lon="10.473003216329818"><ele>159.0</ele><time>2026-03-28T08:27:19Z</time></trkpt><trkpt lat="45.463756573680236" lon="10.473188554481265"><ele>159.0</ele><time>2026-03-28T08:27:20Z</time></trkpt><trkpt lat="45.463741481782584" lon="10.473386112493035"><ele>159.33333333333334</ele><time>2026-03-28T08:27:21Z</time></trkpt><trkpt lat="45.463726994151166" lon="10.473598718721217"><ele>159.66666666666669</ele><time>2026-03-28T08:27:22Z</time></trkpt><trkpt lat="45.46371295819162" lon="10.47383091651432"><ele>160.0</ele><time>2026-03-28T08:27:23Z</time></trkpt><trkpt lat="45.46369481339499" lon="10.474035478816445"><ele>160.5</ele><time>2026-03-28T08:27:24Z</time></trkpt><trkpt lat="45.46368422752019" lon="10.474210302151727"><ele>161.0</ele><time>2026-03-28T08:27:25Z</time></trkpt><trkpt lat="45.46367360716604" lon="10.474368372312146"><ele>161.5</ele><time>2026-03-28T08:27:26Z</time></trkpt><trkpt lat="45.463661291860326" lon="10.474494250697392"><ele>162.0</ele><time>2026-03-28T08:27:27Z</time></trkpt><trkpt lat="45.46361359284797" lon="10.474672222083107"><ele>162.0</ele><time>2026-03-28T08:27:30Z</time></trkpt><trkpt lat="45.46352861781833" lon="10.474630557326472"><ele>162.0</ele><time>2026-03-28T08:27:31Z</time></trkpt><trkpt lat="45.46346182835546" lon="10.474559465615759"><ele>162.0</ele><time>2026-03-28T08:27:32Z</time></trkpt><trkpt lat="45.46336893142176" lon="10.474491161516942"><ele>162.0</ele><time>2026-03-28T08:27:33Z</time></trkpt><trkpt lat="45.46327456274318" lon="10.474385340802323"><ele>162.0</ele><time>2026-03-28T08:27:34Z</time></trkpt><trkpt lat="45.46317001483463" lon="10.474288452823608"><ele>162.0</ele><time>2026-03-28T08:27:35Z</time></trkpt><trkpt lat="45.46307705324246" lon="10.474199108793814"><ele>162.0</ele><time>2026-03-28T08:27:36Z</time></trkpt><trkpt lat="45.462992768072695" lon="10.474119443842037"><ele>162.0</ele><time>2026-03-28T08:27:37Z</time></trkpt><trkpt lat="45.462909049373714" lon="10.47403620398074"><ele>162.0</ele><time>2026-03-28T08:27:38Z</time></trkpt><trkpt lat="45.462834055012216" lon="10.473967951508165"><ele>162.0</ele><time>2026-03-28T08:27:39Z</time></trkpt><trkpt lat="45.46273910507388" lon="10.473859932432715"><ele>162.0</ele><time>2026-03-28T08:27:41Z</time></trkpt><trkpt lat="45.46266913796" lon="10.473742965248114"><ele>162.0</ele><time>2026-03-28T08:27:43Z</time></trkpt><trkpt lat="45.46254943151959" lon="10.473743236057878"><ele>162.0</ele><time>2026-03-28T08:27:45Z</time></trkpt><trkpt lat="45.46248205317009" lon="10.473809087532281"><ele>162.0</ele><time>2026-03-28T08:27:46Z</time></trkpt><trkpt lat="45.462409961076816" lon="10.473893664985184"><ele>162.0</ele><time>2026-03-28T08:27:47Z</time></trkpt><trkpt lat="45.46233162395721" lon="10.474000169066713"><ele>162.0</ele><time>2026-03-28T08:27:48Z</time></trkpt><trkpt lat="45.46214640763853" lon="10.474286234041042"><ele>162.0</ele><time>2026-03-28T08:27:50Z</time></trkpt><trkpt lat="45.4620313353011" lon="10.474452466362303"><ele>162.0</ele><time>2026-03-28T08:27:51Z</time></trkpt><trkpt lat="45.46192132426185" lon="10.474611729761461"><ele>161.0</ele><time>2026-03-28T08:27:52Z</time></trkpt><trkpt lat="45.46182083966254" lon="10.474760227111581"><ele>160.0</ele><time>2026-03-28T08:27:53Z</time></trkpt><trkpt lat="45.46172762332765" lon="10.474906597033046"><ele>159.0</ele><time>2026-03-28T08:27:54Z</time></trkpt><trkpt lat="45.46164090458336" lon="10.475041966461644"><ele>158.0</ele><time>2026-03-28T08:27:55Z</time></trkpt><trkpt lat="45.46155854288695" lon="10.475153676124862"><ele>158.0</ele><time>2026-03-28T08:27:56Z</time></trkpt><trkpt lat="45.46149302927537" lon="10.475249324629434"><ele>158.0</ele><time>2026-03-28T08:27:57Z</time></trkpt><trkpt lat="45.46144310221334" lon="10.475316546054811"><ele>158.0</ele><time>2026-03-28T08:27:58Z</time></trkpt><trkpt lat="45.461378217650356" lon="10.475406946264584"><ele>158.0</ele><time>2026-03-28T08:28:00Z</time></trkpt><trkpt lat="45.46129131938604" lon="10.475459825536493"><ele>158.0</ele><time>2026-03-28T08:28:02Z</time></trkpt><trkpt lat="45.46124188431669" lon="10.475384469606029"><ele>158.0</ele><time>2026-03-28T08:28:03Z</time></trkpt><trkpt lat="45.46116314806421" lon="10.475320101215846"><ele>157.75</ele><time>2026-03-28T08:28:04Z</time></trkpt><trkpt lat="45.461053837476854" lon="10.47523078076924"><ele>157.5</ele><time>2026-03-28T08:28:05Z</time></trkpt><trkpt lat="45.46093875854368" lon="10.475161780734794"><ele>157.25</ele><time>2026-03-28T08:28:06Z</time></trkpt><trkpt lat="45.460847436198826" lon="10.475088672960961"><ele>157.0</ele><time>2026-03-28T08:28:07Z</time></trkpt><trkpt lat="45.46076350254469" lon="10.4750190787322"><ele>157.0</ele><time>2026-03-28T08:28:08Z</time></trkpt><trkpt lat="45.46068459402479" lon="10.474951588109683"><ele>157.0</ele><time>2026-03-28T08:28:09Z</time></trkpt><trkpt lat="45.46061509437266" lon="10.474892310588453"><ele>157.0</ele><time>2026-03-28T08:28:10Z</time></trkpt><trkpt lat="45.46054937084232" lon="10.474837702576133"><ele>157.0</ele><time>2026-03-28T08:28:11Z</time></trkpt><trkpt lat="45.46049108835447" lon="10.474788311658983"><ele>157.0</ele><time>2026-03-28T08:28:12Z</time></trkpt><trkpt lat="45.4604345408772" lon="10.474742401746823"><ele>157.0</ele><time>2026-03-28T08:28:13Z</time></trkpt><trkpt lat="45.460329787470705" lon="10.474662038794444"><ele>156.6</ele><time>2026-03-28T08:28:15Z</time></trkpt><trkpt lat="45.46021784740478" lon="10.474679667949326"><ele>156.2</ele><time>2026-03-28T08:28:17Z</time></trkpt><trkpt lat="45.460163630736965" lon="10.474746164674409"><ele>155.8</ele><time>2026-03-28T08:28:18Z</time></trkpt><trkpt lat="45.46011412417264" lon="10.47486377313201"><ele>155.4</ele><time>2026-03-28T08:28:19Z</time></trkpt><trkpt lat="45.46005885877183" lon="10.475003886959536"><ele>155.0</ele><time>2026-03-28T08:28:20Z</time></trkpt><trkpt lat="45.45999348646391" lon="10.475179368883886"><ele>155.0</ele><time>2026-03-28T08:28:21Z</time></trkpt><trkpt lat="45.45992763760688" lon="10.475364517119505"><ele>155.0</ele><time>2026-03-28T08:28:22Z</time></trkpt><trkpt lat="45.45983305269384" lon="10.475601242247121"><ele>155.0</ele><time>2026-03-28T08:28:23Z</time></trkpt><trkpt lat="45.45974918325493" lon="10.475784725120574"><ele>155.0</ele><time>2026-03-28T08:28:24Z</time></trkpt><trkpt lat="45.45966964853427" lon="10.476010135511123"><ele>155.0</ele><time>2026-03-28T08:28:25Z</time></trkpt><trkpt lat="45.45956715568198" lon="10.47623891016744"><ele>155.0</ele><time>2026-03-28T08:28:26Z</time></trkpt><trkpt lat="45.459466616362946" lon="10.476492277312554"><ele>154.66666666666666</ele><time>2026-03-28T08:28:27Z</time></trkpt><trkpt lat="45.45936488495582" lon="10.476756974454695"><ele>154.33333333333334</ele><time>2026-03-28T08:28:28Z</time></trkpt><trkpt lat="45.45925796322368" lon="10.477017269551975"><ele>154.0</ele><time>2026-03-28T08:28:29Z</time></trkpt><trkpt lat="45.4591492266339" lon="10.477280334671343"><ele>154.0</ele><time>2026-03-28T08:28:30Z</time></trkpt><trkpt lat="45.45903166702459" lon="10.477554064796402"><ele>154.0</ele><time>2026-03-28T08:28:31Z</time></trkpt><trkpt lat="45.45891769541518" lon="10.477833826352906"><ele>154.5</ele><time>2026-03-28T08:28:32Z</time></trkpt><trkpt lat="45.45881364101002" lon="10.478119249707682"><ele>155.0</ele><time>2026-03-28T08:28:33Z</time></trkpt><trkpt lat="45.458712187391555" lon="10.478406446808277"><ele>155.33333333333331</ele><time>2026-03-28T08:28:34Z</time></trkpt><trkpt lat="45.45862207278153" lon="10.478687064923443"><ele>155.66666666666666</ele><time>2026-03-28T08:28:35Z</time></trkpt><trkpt lat="45.458550893171406" lon="10.47895568862668"><ele>156.0</ele><time>2026-03-28T08:28:36Z</time></trkpt><trkpt lat="45.458486343420674" lon="10.479200400487171"><ele>156.66666666666666</ele><time>2026-03-28T08:28:37Z</time></trkpt><trkpt lat="45.4584245735351" lon="10.479424839993122"><ele>157.33333333333331</ele><time>2026-03-28T08:28:38Z</time></trkpt><trkpt lat="45.458349158595055" lon="10.479640497467454"><ele>158.0</ele><time>2026-03-28T08:28:39Z</time></trkpt><trkpt lat="45.45826452185799" lon="10.479843494470327"><ele>158.0</ele><time>2026-03-28T08:28:40Z</time></trkpt><trkpt lat="45.458148736067486" lon="10.480043619757058"><ele>158.0</ele><time>2026-03-28T08:28:41Z</time></trkpt><trkpt lat="45.45800881112236" lon="10.48020240001684"><ele>158.0</ele><time>2026-03-28T08:28:42Z</time></trkpt><trkpt lat="45.45787532484027" lon="10.480394963439524"><ele>157.66666666666666</ele><time>2026-03-28T08:28:43Z</time></trkpt><trkpt lat="45.45771898438877" lon="10.480573762700455"><ele>157.33333333333334</ele><time>2026-03-28T08:28:44Z</time></trkpt><trkpt lat="45.45757690801123" lon="10.48073590947654"><ele>157.0</ele><time>2026-03-28T08:28:45Z</time></trkpt><trkpt lat="45.4574593583974" lon="10.48088419334029"><ele>157.0</ele><time>2026-03-28T08:28:46Z</time></trkpt><trkpt lat="45.45735775913036" lon="10.481024095476561"><ele>157.0</ele><time>2026-03-28T08:28:47Z</time></trkpt><trkpt lat="45.45727071860884" lon="10.481145306109653"><ele>157.0</ele><time>2026-03-28T08:28:48Z</time></trkpt><trkpt lat="45.457205143606835" lon="10.481288655951406"><ele>157.0</ele><time>2026-03-28T08:28:49Z</time></trkpt><trkpt lat="45.45715999634124" lon="10.481459703987381"><ele>156.66666666666669</ele><time>2026-03-28T08:28:50Z</time></trkpt><trkpt lat="45.45713652298364" lon="10.481662675804513"><ele>156.33333333333334</ele><time>2026-03-28T08:28:51Z</time></trkpt><trkpt lat="45.45712381229123" lon="10.481888081526261"><ele>156.0</ele><time>2026-03-28T08:28:52Z</time></trkpt><trkpt lat="45.45711380670492" lon="10.482134405251264"><ele>156.0</ele><time>2026-03-28T08:28:53Z</time></trkpt><trkpt lat="45.45710354087942" lon="10.482406484529534"><ele>156.0</ele><time>2026-03-28T08:28:54Z</time></trkpt><trkpt lat="45.457090320003275" lon="10.482674339290448"><ele>156.0</ele><time>2026-03-28T08:28:55Z</time></trkpt><trkpt lat="45.457083529080194" lon="10.482936017504468"><ele>156.33333333333334</ele><time>2026-03-28T08:28:56Z</time></trkpt><trkpt lat="45.45707619582749" lon="10.483175370811443"><ele>156.66666666666669</ele><time>2026-03-28T08:28:57Z</time></trkpt><trkpt lat="45.457069441237415" lon="10.483390293116456"><ele>157.0</ele><time>2026-03-28T08:28:58Z</time></trkpt><trkpt lat="45.45706860429398" lon="10.483591863324273"><ele>156.75</ele><time>2026-03-28T08:28:59Z</time></trkpt><trkpt lat="45.45707152400399" lon="10.48378314578855"><ele>156.5</ele><time>2026-03-28T08:29:00Z</time></trkpt><trkpt lat="45.4570767824514" lon="10.483961644625595"><ele>156.25</ele><time>2026-03-28T08:29:01Z</time></trkpt><trkpt lat="45.45708338356379" lon="10.484127024207114"><ele>156.0</ele><time>2026-03-28T08:29:02Z</time></trkpt><trkpt lat="45.457097246165226" lon="10.484288303920644"><ele>158.75</ele><time>2026-03-28T08:29:03Z</time></trkpt><trkpt lat="45.45713311762483" lon="10.484456183979828"><ele>161.5</ele><time>2026-03-28T08:29:04Z</time></trkpt><trkpt lat="45.457193488130265" lon="10.48461929487565"><ele>164.25</ele><time>2026-03-28T08:29:05Z</time></trkpt><trkpt lat="45.45725204946239" lon="10.484764231200218"><ele>167.0</ele><time>2026-03-28T08:29:06Z</time></trkpt><trkpt lat="45.45729629473507" lon="10.48489072822947"><ele>167.0</ele><time>2026-03-28T08:29:07Z</time></trkpt><trkpt lat="45.45732388404317" lon="10.48502656771757"><ele>167.0</ele><time>2026-03-28T08:29:08Z</time></trkpt><trkpt lat="45.457333441104495" lon="10.485152337243838"><ele>167.0</ele><time>2026-03-28T08:29:09Z</time></trkpt><trkpt lat="45.45733246177359" lon="10.485296683827258"><ele>167.0</ele><time>2026-03-28T08:29:10Z</time></trkpt><trkpt lat="45.45733727926082" lon="10.48546557322766"><ele>167.0</ele><time>2026-03-28T08:29:11Z</time></trkpt><trkpt lat="45.45734465861428" lon="10.48563309181158"><ele>167.0</ele><time>2026-03-28T08:29:12Z</time></trkpt><trkpt lat="45.45736740457705" lon="10.485790805975192"><ele>167.0</ele><time>2026-03-28T08:29:13Z</time></trkpt><trkpt lat="45.4574065894806" lon="10.485934502333116"><ele>167.0</ele><time>2026-03-28T08:29:14Z</time></trkpt><trkpt lat="45.457461576995726" lon="10.48606690811775"><ele>167.0</ele><time>2026-03-28T08:29:15Z</time></trkpt><trkpt lat="45.45752123345262" lon="10.486195349191911"><ele>167.0</ele><time>2026-03-28T08:29:16Z</time></trkpt><trkpt lat="45.45756991767946" lon="10.486306616279247"><ele>166.16666666666666</ele><time>2026-03-28T08:29:17Z</time></trkpt><trkpt lat="45.457607650598824" lon="10.486404303849135"><ele>165.33333333333331</ele><time>2026-03-28T08:29:18Z</time></trkpt><trkpt lat="45.45765980859331" lon="10.48653892403694"><ele>164.5</ele><time>2026-03-28T08:29:20Z</time></trkpt><trkpt lat="45.45768568581082" lon="10.48663501160009"><ele>163.66666666666666</ele><time>2026-03-28T08:29:22Z</time></trkpt><trkpt lat="45.457700307600334" lon="10.48675446397437"><ele>162.83333333333334</ele><time>2026-03-28T08:29:24Z</time></trkpt><trkpt lat="45.45770405827582" lon="10.48684595835955"><ele>162.0</ele><time>2026-03-28T08:29:25Z</time></trkpt><trkpt lat="45.45768416386383" lon="10.486945389116167"><ele>162.0</ele><time>2026-03-28T08:29:26Z</time></trkpt><trkpt lat="45.45765598937355" lon="10.487027074024917"><ele>162.0</ele><time>2026-03-28T08:29:27Z</time></trkpt><trkpt lat="45.45762862723639" lon="10.487123977118237"><ele>162.0</ele><time>2026-03-28T08:29:28Z</time></trkpt><trkpt lat="45.45759795174937" lon="10.487250247930259"><ele>162.0</ele><time>2026-03-28T08:29:29Z</time></trkpt><trkpt lat="45.45758634187894" lon="10.487389824902042"><ele>162.0</ele><time>2026-03-28T08:29:30Z</time></trkpt><trkpt lat="45.457579284917465" lon="10.487553723111795"><ele>162.0</ele><time>2026-03-28T08:29:31Z</time></trkpt><trkpt lat="45.45759391517611" lon="10.487731255187287"><ele>160.75</ele><time>2026-03-28T08:29:32Z</time></trkpt><trkpt lat="45.457628662551166" lon="10.48790323735021"><ele>159.5</ele><time>2026-03-28T08:29:33Z</time></trkpt><trkpt lat="45.45768326316922" lon="10.488079922798706"><ele>158.25</ele><time>2026-03-28T08:29:34Z</time></trkpt><trkpt lat="45.457746253306794" lon="10.488250851554193"><ele>157.0</ele><time>2026-03-28T08:29:35Z</time></trkpt><trkpt lat="45.457797914132996" lon="10.488386061233324"><ele>157.0</ele><time>2026-03-28T08:29:36Z</time></trkpt><trkpt lat="45.457844614209364" lon="10.488507714437436"><ele>157.0</ele><time>2026-03-28T08:29:37Z</time></trkpt><trkpt lat="45.45788904053065" lon="10.488613202514903"><ele>157.0</ele><time>2026-03-28T08:29:38Z</time></trkpt><trkpt lat="45.457934999115494" lon="10.48873533127429"><ele>157.0</ele><time>2026-03-28T08:29:39Z</time></trkpt><trkpt lat="45.457970748902824" lon="10.488832487221416"><ele>157.0</ele><time>2026-03-28T08:29:40Z</time></trkpt><trkpt lat="45.458007376558335" lon="10.488939570650142"><ele>157.0</ele><time>2026-03-28T08:29:41Z</time></trkpt><trkpt lat="45.45803673358388" lon="10.489035420207792"><ele>157.8</ele><time>2026-03-28T08:29:42Z</time></trkpt><trkpt lat="45.45804935078654" lon="10.489125947023247"><ele>158.6</ele><time>2026-03-28T08:29:43Z</time></trkpt><trkpt lat="45.45805097044273" lon="10.489231159223689"><ele>159.4</ele><time>2026-03-28T08:29:45Z</time></trkpt><trkpt lat="45.45804642381794" lon="10.489340654009732"><ele>160.20000000000002</ele><time>2026-03-28T08:29:50Z</time></trkpt><trkpt lat="45.45807934754403" lon="10.489425840373185"><ele>161.0</ele><time>2026-03-28T08:29:52Z</time></trkpt><trkpt lat="45.457907038461826" lon="10.489511691283958"><ele>161.0</ele><time>2026-03-28T08:29:53Z</time></trkpt><trkpt lat="45.45783627690229" lon="10.489550686983417"><ele>161.0</ele><time>2026-03-28T08:29:54Z</time></trkpt><trkpt lat="45.45775529940718" lon="10.489607017273537"><ele>161.0</ele><time>2026-03-28T08:29:55Z</time></trkpt><trkpt lat="45.45768439062781" lon="10.48964737465067"><ele>161.0</ele><time>2026-03-28T08:29:56Z</time></trkpt><trkpt lat="45.45762544067215" lon="10.489685329713032"><ele>161.0</ele><time>2026-03-28T08:29:57Z</time></trkpt><trkpt lat="45.45751805539216" lon="10.489745482364139"><ele>161.0</ele><time>2026-03-28T08:29:59Z</time></trkpt><trkpt lat="45.457402255567104" lon="10.489778474246013"><ele>161.0</ele><time>2026-03-28T08:30:01Z</time></trkpt><trkpt lat="45.45733680836549" lon="10.489743998569983"><ele>161.0</ele><time>2026-03-28T08:30:02Z</time></trkpt><trkpt lat="45.45726712295159" lon="10.489684499036139"><ele>161.0</ele><time>2026-03-28T08:30:03Z</time></trkpt><trkpt lat="45.4571914290491" lon="10.489574579554311"><ele>161.0</ele><time>2026-03-28T08:30:04Z</time></trkpt><trkpt lat="45.45709889069353" lon="10.489445564403677"><ele>161.0</ele><time>2026-03-28T08:30:05Z</time></trkpt><trkpt lat="45.457015545222625" lon="10.48931438204901"><ele>160.8</ele><time>2026-03-28T08:30:06Z</time></trkpt><trkpt lat="45.45693784816473" lon="10.489182615546154"><ele>160.60000000000002</ele><time>2026-03-28T08:30:07Z</time></trkpt><trkpt lat="45.4568685180016" lon="10.489063411730399"><ele>160.4</ele><time>2026-03-28T08:30:08Z</time></trkpt><trkpt lat="45.456814839170335" lon="10.488955873775172"><ele>160.2</ele><time>2026-03-28T08:30:09Z</time></trkpt><trkpt lat="45.456781450626195" lon="10.488853797038368"><ele>160.0</ele><time>2026-03-28T08:30:10Z</time></trkpt><trkpt lat="45.456743213013226" lon="10.488670467880292"><ele>159.75</ele><time>2026-03-28T08:30:12Z</time></trkpt><trkpt lat="45.45673783460214" lon="10.488545691424468"><ele>159.5</ele><time>2026-03-28T08:30:13Z</time></trkpt><trkpt lat="45.45674260508321" lon="10.488392851946276"><ele>159.25</ele><time>2026-03-28T08:30:14Z</time></trkpt><trkpt lat="45.45676119619388" lon="10.488215683622702"><ele>159.0</ele><time>2026-03-28T08:30:15Z</time></trkpt><trkpt lat="45.45678282368014" lon="10.488013666219361"><ele>157.66666666666666</ele><time>2026-03-28T08:30:16Z</time></trkpt><trkpt lat="45.456801584364015" lon="10.487788324507049"><ele>156.33333333333331</ele><time>2026-03-28T08:30:17Z</time></trkpt><trkpt lat="45.45681706185184" lon="10.48756998639647"><ele>155.0</ele><time>2026-03-28T08:30:18Z</time></trkpt><trkpt lat="45.45682607232087" lon="10.487354609376238"><ele>155.0</ele><time>2026-03-28T08:30:19Z</time></trkpt><trkpt lat="45.45682851278353" lon="10.487147796807939"><ele>155.0</ele><time>2026-03-28T08:30:20Z</time></trkpt><trkpt lat="45.45683263852984" lon="10.486931585697032"><ele>155.0</ele><time>2026-03-28T08:30:21Z</time></trkpt><trkpt lat="45.45683793993275" lon="10.486717376412281"><ele>155.0</ele><time>2026-03-28T08:30:22Z</time></trkpt><trkpt lat="45.45684582828719" lon="10.486516051839203"><ele>155.0</ele><time>2026-03-28T08:30:23Z</time></trkpt><trkpt lat="45.456849503093764" lon="10.486325866210057"><ele>155.0</ele><time>2026-03-28T08:30:24Z</time></trkpt><trkpt lat="45.45685695379122" lon="10.486138612508636"><ele>155.0</ele><time>2026-03-28T08:30:25Z</time></trkpt><trkpt lat="45.45686298454929" lon="10.48594499210011"><ele>155.0</ele><time>2026-03-28T08:30:26Z</time></trkpt><trkpt lat="45.45685883954467" lon="10.485743359423067"><ele>155.0</ele><time>2026-03-28T08:30:27Z</time></trkpt><trkpt lat="45.45684659212184" lon="10.485543512475154"><ele>155.0</ele><time>2026-03-28T08:30:28Z</time></trkpt><trkpt lat="45.45683251141715" lon="10.485352233956784"><ele>155.0</ele><time>2026-03-28T08:30:29Z</time></trkpt><trkpt lat="45.45681605866892" lon="10.48517650557069"><ele>155.0</ele><time>2026-03-28T08:30:30Z</time></trkpt><trkpt lat="45.456798632502625" lon="10.485007080329366"><ele>155.0</ele><time>2026-03-28T08:30:31Z</time></trkpt><trkpt lat="45.45678215604577" lon="10.48482954835932"><ele>155.0</ele><time>2026-03-28T08:30:32Z</time></trkpt><trkpt lat="45.456769752734985" lon="10.48464235428728"><ele>155.0</ele><time>2026-03-28T08:30:33Z</time></trkpt><trkpt lat="45.456753558993526" lon="10.48445883622554"><ele>155.0</ele><time>2026-03-28T08:30:34Z</time></trkpt><trkpt lat="45.45673199204636" lon="10.484295463018302"><ele>155.25</ele><time>2026-03-28T08:30:35Z</time></trkpt><trkpt lat="45.456703221337634" lon="10.48413936936585"><ele>155.5</ele><time>2026-03-28T08:30:36Z</time></trkpt><trkpt lat="45.45666449509935" lon="10.48398099287458"><ele>155.75</ele><time>2026-03-28T08:30:37Z</time></trkpt><trkpt lat="45.45661291805716" lon="10.48381851080369"><ele>156.0</ele><time>2026-03-28T08:30:38Z</time></trkpt><trkpt lat="45.45655944365526" lon="10.483675307273856"><ele>156.2</ele><time>2026-03-28T08:30:39Z</time></trkpt><trkpt lat="45.45649912016123" lon="10.483543871505507"><ele>156.39999999999998</ele><time>2026-03-28T08:30:40Z</time></trkpt><trkpt lat="45.456435753582454" lon="10.483427384710668"><ele>156.6</ele><time>2026-03-28T08:30:41Z</time></trkpt><trkpt lat="45.45636961184188" lon="10.483309138721044"><ele>156.79999999999998</ele><time>2026-03-28T08:30:42Z</time></trkpt><trkpt lat="45.45629910849804" lon="10.483184642938175"><ele>157.0</ele><time>2026-03-28T08:30:43Z</time></trkpt><trkpt lat="45.456215652437756" lon="10.483061168657787"><ele>156.25</ele><time>2026-03-28T08:30:44Z</time></trkpt><trkpt lat="45.456138671110914" lon="10.482942801863164"><ele>155.5</ele><time>2026-03-28T08:30:45Z</time></trkpt><trkpt lat="45.45605994614616" lon="10.482831935794266"><ele>154.75</ele><time>2026-03-28T08:30:46Z</time></trkpt><trkpt lat="45.455978637220156" lon="10.482709577375392"><ele>154.0</ele><time>2026-03-28T08:30:47Z</time></trkpt><trkpt lat="45.45589881422792" lon="10.48258628259736"><ele>153.75</ele><time>2026-03-28T08:30:48Z</time></trkpt><trkpt lat="45.45581970050892" lon="10.482466606808723"><ele>153.5</ele><time>2026-03-28T08:30:49Z</time></trkpt><trkpt lat="45.45574197140942" lon="10.482339963592436"><ele>153.25</ele><time>2026-03-28T08:30:50Z</time></trkpt><trkpt lat="45.45565178399233" lon="10.482202421663185"><ele>153.0</ele><time>2026-03-28T08:30:51Z</time></trkpt><trkpt lat="45.455553134614256" lon="10.482060276911998"><ele>152.33333333333334</ele><time>2026-03-28T08:30:52Z</time></trkpt><trkpt lat="45.45545168067107" lon="10.481899957784997"><ele>151.66666666666669</ele><time>2026-03-28T08:30:53Z</time></trkpt><trkpt lat="45.4553376122397" lon="10.481723030757964"><ele>151.0</ele><time>2026-03-28T08:30:54Z</time></trkpt><trkpt lat="45.455200582758074" lon="10.48153657712072"><ele>151.0</ele><time>2026-03-28T08:30:55Z</time></trkpt><trkpt lat="45.45505191660864" lon="10.48134083397931"><ele>151.0</ele><time>2026-03-28T08:30:56Z</time></trkpt><trkpt lat="45.454905956485064" lon="10.481148226428925"><ele>151.0</ele><time>2026-03-28T08:30:57Z</time></trkpt><trkpt lat="45.454759116765736" lon="10.480981138826785"><ele>151.33333333333334</ele><time>2026-03-28T08:30:58Z</time></trkpt><trkpt lat="45.454642968015065" lon="10.480784625876522"><ele>151.66666666666666</ele><time>2026-03-28T08:30:59Z</time></trkpt><trkpt lat="45.45450375340395" lon="10.480575668490934"><ele>152.0</ele><time>2026-03-28T08:31:00Z</time></trkpt><trkpt lat="45.45437297201428" lon="10.480346015418164"><ele>151.33333333333331</ele><time>2026-03-28T08:31:01Z</time></trkpt><trkpt lat="45.45424544624585" lon="10.480103863732811"><ele>150.66666666666666</ele><time>2026-03-28T08:31:02Z</time></trkpt><trkpt lat="45.4541012874877" lon="10.479856375892373"><ele>150.0</ele><time>2026-03-28T08:31:03Z</time></trkpt><trkpt lat="45.453980903289285" lon="10.47960806798955"><ele>150.66666666666666</ele><time>2026-03-28T08:31:04Z</time></trkpt><trkpt lat="45.45385783886804" lon="10.479387498157179"><ele>151.33333333333331</ele><time>2026-03-28T08:31:05Z</time></trkpt><trkpt lat="45.45374997208947" lon="10.479177323447948"><ele>152.0</ele><time>2026-03-28T08:31:06Z</time></trkpt><trkpt lat="45.453649143305185" lon="10.47898632343013"><ele>151.25</ele><time>2026-03-28T08:31:07Z</time></trkpt><trkpt lat="45.453561897709164" lon="10.478812806680692"><ele>150.5</ele><time>2026-03-28T08:31:08Z</time></trkpt><trkpt lat="45.453476195728754" lon="10.478652588183477"><ele>149.75</ele><time>2026-03-28T08:31:09Z</time></trkpt><trkpt lat="45.45339705369691" lon="10.478501332914426"><ele>149.0</ele><time>2026-03-28T08:31:10Z</time></trkpt><trkpt lat="45.45331979513191" lon="10.478345989207202"><ele>149.0</ele><time>2026-03-28T08:31:11Z</time></trkpt><trkpt lat="45.453240068243254" lon="10.478189692865271"><ele>149.0</ele><time>2026-03-28T08:31:12Z</time></trkpt><trkpt lat="45.45315368250035" lon="10.47803142672729"><ele>149.0</ele><time>2026-03-28T08:31:13Z</time></trkpt><trkpt lat="45.45306812446417" lon="10.477870065661493"><ele>149.0</ele><time>2026-03-28T08:31:14Z</time></trkpt><trkpt lat="45.45297910295495" lon="10.477701134845999"><ele>148.33333333333331</ele><time>2026-03-28T08:31:15Z</time></trkpt><trkpt lat="45.45289064127433" lon="10.47753010898282"><ele>147.66666666666666</ele><time>2026-03-28T08:31:16Z</time></trkpt><trkpt lat="45.45279881519147" lon="10.4773580553922"><ele>147.0</ele><time>2026-03-28T08:31:17Z</time></trkpt><trkpt lat="45.45270450978727" lon="10.477189594100386"><ele>147.66666666666666</ele><time>2026-03-28T08:31:18Z</time></trkpt><trkpt lat="45.45261391691151" lon="10.477019394280704"><ele>148.33333333333331</ele><time>2026-03-28T08:31:19Z</time></trkpt><trkpt lat="45.45251699724638" lon="10.476856236097849"><ele>149.0</ele><time>2026-03-28T08:31:20Z</time></trkpt><trkpt lat="45.452420954995056" lon="10.476687140737932"><ele>149.0</ele><time>2026-03-28T08:31:21Z</time></trkpt><trkpt lat="45.4523071936742" lon="10.476518733966515"><ele>149.0</ele><time>2026-03-28T08:31:22Z</time></trkpt><trkpt lat="45.45218857592996" lon="10.476342903846264"><ele>149.0</ele><time>2026-03-28T08:31:23Z</time></trkpt><trkpt lat="45.45207365069032" lon="10.476170409091742"><ele>146.66666666666666</ele><time>2026-03-28T08:31:24Z</time></trkpt><trkpt lat="45.45195490968166" lon="10.476000342328508"><ele>144.33333333333334</ele><time>2026-03-28T08:31:25Z</time></trkpt><trkpt lat="45.45182504053491" lon="10.475833007307786"><ele>142.0</ele><time>2026-03-28T08:31:26Z</time></trkpt><trkpt lat="45.45169445640272" lon="10.475669148252997"><ele>142.0</ele><time>2026-03-28T08:31:27Z</time></trkpt><trkpt lat="45.45156538663125" lon="10.475477305783441"><ele>142.0</ele><time>2026-03-28T08:31:28Z</time></trkpt><trkpt lat="45.45140840423533" lon="10.475282620198616"><ele>142.0</ele><time>2026-03-28T08:31:29Z</time></trkpt><trkpt lat="45.45124673393813" lon="10.475082461918058"><ele>141.66666666666669</ele><time>2026-03-28T08:31:30Z</time></trkpt><trkpt lat="45.45108160871774" lon="10.474873141947732"><ele>141.33333333333334</ele><time>2026-03-28T08:31:31Z</time></trkpt><trkpt lat="45.45091918416438" lon="10.474655114496876"><ele>141.0</ele><time>2026-03-28T08:31:32Z</time></trkpt><trkpt lat="45.4507526083243" lon="10.47444154097481"><ele>141.0</ele><time>2026-03-28T08:31:33Z</time></trkpt><trkpt lat="45.45061269634142" lon="10.4741879305649"><ele>141.0</ele><time>2026-03-28T08:31:34Z</time></trkpt><trkpt lat="45.45048094061727" lon="10.473922207251237"><ele>140.0</ele><time>2026-03-28T08:31:35Z</time></trkpt><trkpt lat="45.45036330417654" lon="10.473648904217653"><ele>139.0</ele><time>2026-03-28T08:31:36Z</time></trkpt><trkpt lat="45.45025660576142" lon="10.4733867298112"><ele>138.0</ele><time>2026-03-28T08:31:37Z</time></trkpt><trkpt lat="45.45016233265882" lon="10.473138615559773"><ele>138.66666666666666</ele><time>2026-03-28T08:31:38Z</time></trkpt><trkpt lat="45.45007908239667" lon="10.47290137173686"><ele>139.33333333333331</ele><time>2026-03-28T08:31:39Z</time></trkpt><trkpt lat="45.44999959529206" lon="10.472671984622433"><ele>140.0</ele><time>2026-03-28T08:31:40Z</time></trkpt><trkpt lat="45.449914292226715" lon="10.472445821756395"><ele>140.0</ele><time>2026-03-28T08:31:41Z</time></trkpt><trkpt lat="45.44983145147056" lon="10.472220840818512"><ele>140.0</ele><time>2026-03-28T08:31:42Z</time></trkpt><trkpt lat="45.44975052390153" lon="10.472002773917053"><ele>140.0</ele><time>2026-03-28T08:31:43Z</time></trkpt><trkpt lat="45.44967264267243" lon="10.471787041616814"><ele>139.66666666666666</ele><time>2026-03-28T08:31:44Z</time></trkpt><trkpt lat="45.44959394103258" lon="10.47157407526124"><ele>139.33333333333334</ele><time>2026-03-28T08:31:45Z</time></trkpt><trkpt lat="45.44952059415433" lon="10.471355743356023"><ele>139.0</ele><time>2026-03-28T08:31:46Z</time></trkpt><trkpt lat="45.44943661577358" lon="10.471128334596854"><ele>139.0</ele><time>2026-03-28T08:31:47Z</time></trkpt><trkpt lat="45.449347960979296" lon="10.470900842658251"><ele>139.0</ele><time>2026-03-28T08:31:48Z</time></trkpt><trkpt lat="45.44927626024436" lon="10.47066091238901"><ele>139.0</ele><time>2026-03-28T08:31:49Z</time></trkpt><trkpt lat="45.4491794187644" lon="10.47044257812886"><ele>139.0</ele><time>2026-03-28T08:31:50Z</time></trkpt><trkpt lat="45.44910545823109" lon="10.470237576994737"><ele>139.0</ele><time>2026-03-28T08:31:51Z</time></trkpt><trkpt lat="45.449040679828286" lon="10.470013551962937"><ele>139.0</ele><time>2026-03-28T08:31:52Z</time></trkpt><trkpt lat="45.44897180826081" lon="10.469823092018167"><ele>139.0</ele><time>2026-03-28T08:31:53Z</time></trkpt><trkpt lat="45.44890614512835" lon="10.469643063453395"><ele>139.0</ele><time>2026-03-28T08:31:54Z</time></trkpt><trkpt lat="45.44880631873665" lon="10.469369489799504"><ele>139.0</ele><time>2026-03-28T08:31:56Z</time></trkpt><trkpt lat="45.4487697145426" lon="10.469267881088383"><ele>139.0</ele><time>2026-03-28T08:31:57Z</time></trkpt><trkpt lat="45.44872609109849" lon="10.469146787771988"><ele>138.75</ele><time>2026-03-28T08:31:59Z</time></trkpt><trkpt lat="45.448689562606525" lon="10.469045388116914"><ele>138.5</ele><time>2026-03-28T08:32:01Z</time></trkpt><trkpt lat="45.44849235545245" lon="10.469023801921798"><ele>138.25</ele><time>2026-03-28T08:32:03Z</time></trkpt><trkpt lat="45.448365894304025" lon="10.46897950616634"><ele>138.0</ele><time>2026-03-28T08:32:04Z</time></trkpt><trkpt lat="45.448227753385005" lon="10.46893797438462"><ele>138.0</ele><time>2026-03-28T08:32:05Z</time></trkpt><trkpt lat="45.44810533818222" lon="10.468898819293454"><ele>138.0</ele><time>2026-03-28T08:32:06Z</time></trkpt><trkpt lat="45.44795868655204" lon="10.468853466189346"><ele>138.0</ele><time>2026-03-28T08:32:07Z</time></trkpt><trkpt lat="45.447798110201084" lon="10.468797657597545"><ele>138.0</ele><time>2026-03-28T08:32:08Z</time></trkpt><trkpt lat="45.44763212582033" lon="10.46874445833605"><ele>136.66666666666666</ele><time>2026-03-28T08:32:09Z</time></trkpt><trkpt lat="45.447472733328645" lon="10.468661890142737"><ele>135.33333333333331</ele><time>2026-03-28T08:32:10Z</time></trkpt><trkpt lat="45.44733054645648" lon="10.468587770011966"><ele>134.0</ele><time>2026-03-28T08:32:11Z</time></trkpt><trkpt lat="45.44719441739045" lon="10.468507320414213"><ele>133.66666666666666</ele><time>2026-03-28T08:32:12Z</time></trkpt><trkpt lat="45.44705162680292" lon="10.468424460363522"><ele>133.33333333333334</ele><time>2026-03-28T08:32:13Z</time></trkpt><trkpt lat="45.44687709841118" lon="10.468365551159867"><ele>133.0</ele><time>2026-03-28T08:32:14Z</time></trkpt><trkpt lat="45.44668584115735" lon="10.468348577081064"><ele>133.0</ele><time>2026-03-28T08:32:15Z</time></trkpt><trkpt lat="45.44648917151859" lon="10.468331885383584"><ele>133.0</ele><time>2026-03-28T08:32:16Z</time></trkpt><trkpt lat="45.44628699111535" lon="10.468313188452829"><ele>133.0</ele><time>2026-03-28T08:32:17Z</time></trkpt><trkpt lat="45.44608607092094" lon="10.468286554468467"><ele>133.0</ele><time>2026-03-28T08:32:18Z</time></trkpt><trkpt lat="45.445878366947326" lon="10.468251364207779"><ele>133.0</ele><time>2026-03-28T08:32:19Z</time></trkpt><trkpt lat="45.44568906771981" lon="10.468215886313372"><ele>133.0</ele><time>2026-03-28T08:32:20Z</time></trkpt><trkpt lat="45.445521199529644" lon="10.468180638949047"><ele>132.33333333333334</ele><time>2026-03-28T08:32:21Z</time></trkpt><trkpt lat="45.44534839586342" lon="10.468151304921163"><ele>131.66666666666666</ele><time>2026-03-28T08:32:22Z</time></trkpt><trkpt lat="45.445180812638945" lon="10.468157986733818"><ele>131.0</ele><time>2026-03-28T08:32:23Z</time></trkpt><trkpt lat="45.44499892928236" lon="10.468137653360774"><ele>131.0</ele><time>2026-03-28T08:32:24Z</time></trkpt><trkpt lat="45.444795504171054" lon="10.468145877348306"><ele>131.0</ele><time>2026-03-28T08:32:25Z</time></trkpt><trkpt lat="45.44460999673783" lon="10.468155011836735"><ele>131.0</ele><time>2026-03-28T08:32:26Z</time></trkpt><trkpt lat="45.44443381706381" lon="10.468161554967065"><ele>131.33333333333331</ele><time>2026-03-28T08:32:27Z</time></trkpt><trkpt lat="45.44426680599576" lon="10.4681591623"><ele>131.66666666666666</ele><time>2026-03-28T08:32:28Z</time></trkpt><trkpt lat="45.44411023300096" lon="10.468154415892037"><ele>132.0</ele><time>2026-03-28T08:32:29Z</time></trkpt><trkpt lat="45.443955045934466" lon="10.468159475955014"><ele>132.0</ele><time>2026-03-28T08:32:30Z</time></trkpt><trkpt lat="45.443797083342375" lon="10.468184295213"><ele>132.0</ele><time>2026-03-28T08:32:31Z</time></trkpt><trkpt lat="45.44365616269322" lon="10.468219244820528"><ele>132.0</ele><time>2026-03-28T08:32:32Z</time></trkpt><trkpt lat="45.443527847546804" lon="10.468258461232104"><ele>132.0</ele><time>2026-03-28T08:32:33Z</time></trkpt><trkpt lat="45.443394023224585" lon="10.46829882144633"><ele>132.0</ele><time>2026-03-28T08:32:34Z</time></trkpt><trkpt lat="45.44326163411198" lon="10.468329337167601"><ele>132.0</ele><time>2026-03-28T08:32:35Z</time></trkpt><trkpt lat="45.44311869713834" lon="10.468326053007173"><ele>132.0</ele><time>2026-03-28T08:32:36Z</time></trkpt><trkpt lat="45.442980857223425" lon="10.468306765259173"><ele>132.0</ele><time>2026-03-28T08:32:37Z</time></trkpt><trkpt lat="45.44284114479909" lon="10.468274680605072"><ele>131.66666666666666</ele><time>2026-03-28T08:32:38Z</time></trkpt><trkpt lat="45.44268885874762" lon="10.468246621371067"><ele>131.33333333333331</ele><time>2026-03-28T08:32:39Z</time></trkpt><trkpt lat="45.44252698730981" lon="10.468243826859055"><ele>131.0</ele><time>2026-03-28T08:32:40Z</time></trkpt><trkpt lat="45.44237533510013" lon="10.468200420392924"><ele>131.0</ele><time>2026-03-28T08:32:41Z</time></trkpt><trkpt lat="45.44223582912506" lon="10.468180674861145"><ele>131.0</ele><time>2026-03-28T08:32:42Z</time></trkpt><trkpt lat="45.4420876234049" lon="10.468159680473237"><ele>131.0</ele><time>2026-03-28T08:32:43Z</time></trkpt><trkpt lat="45.44195333940281" lon="10.468134973476825"><ele>131.0</ele><time>2026-03-28T08:32:44Z</time></trkpt><trkpt lat="45.44182950181192" lon="10.468095527178543"><ele>130.75</ele><time>2026-03-28T08:32:45Z</time></trkpt><trkpt lat="45.44172010405163" lon="10.468032439987546"><ele>130.5</ele><time>2026-03-28T08:32:46Z</time></trkpt><trkpt lat="45.441620106384875" lon="10.467967044922505"><ele>130.25</ele><time>2026-03-28T08:32:47Z</time></trkpt><trkpt lat="45.44151048133617" lon="10.467892133617676"><ele>130.0</ele><time>2026-03-28T08:32:48Z</time></trkpt><trkpt lat="45.44138154670667" lon="10.467801995010849"><ele>129.33333333333334</ele><time>2026-03-28T08:32:49Z</time></trkpt><trkpt lat="45.44124447517974" lon="10.467705335425507"><ele>128.66666666666666</ele><time>2026-03-28T08:32:50Z</time></trkpt><trkpt lat="45.44110021911111" lon="10.467599552668153"><ele>128.0</ele><time>2026-03-28T08:32:51Z</time></trkpt><trkpt lat="45.44096155366851" lon="10.467491763741942"><ele>128.0</ele><time>2026-03-28T08:32:52Z</time></trkpt><trkpt lat="45.440843547313655" lon="10.46739242969882"><ele>128.0</ele><time>2026-03-28T08:32:53Z</time></trkpt><trkpt lat="45.440727166766365" lon="10.467296902709013"><ele>128.0</ele><time>2026-03-28T08:32:54Z</time></trkpt><trkpt lat="45.440616928165966" lon="10.467209150493636"><ele>128.0</ele><time>2026-03-28T08:32:55Z</time></trkpt><trkpt lat="45.44051121054835" lon="10.467145293990438"><ele>127.5</ele><time>2026-03-28T08:32:56Z</time></trkpt><trkpt lat="45.44039857876522" lon="10.467062642599933"><ele>127.0</ele><time>2026-03-28T08:32:57Z</time></trkpt><trkpt lat="45.440273788835874" lon="10.466947994974268"><ele>126.5</ele><time>2026-03-28T08:32:58Z</time></trkpt><trkpt lat="45.440136693117104" lon="10.466858949912034"><ele>126.0</ele><time>2026-03-28T08:32:59Z</time></trkpt><trkpt lat="45.439988767408146" lon="10.466780800670447"><ele>126.0</ele><time>2026-03-28T08:33:00Z</time></trkpt><trkpt lat="45.43982421014031" lon="10.466711943492829"><ele>126.0</ele><time>2026-03-28T08:33:01Z</time></trkpt><trkpt lat="45.439656589093" lon="10.466650852560635"><ele>126.0</ele><time>2026-03-28T08:33:02Z</time></trkpt><trkpt lat="45.439482570020836" lon="10.466591918101486"><ele>126.0</ele><time>2026-03-28T08:33:03Z</time></trkpt><trkpt lat="45.43930192771766" lon="10.466535805679811"><ele>126.0</ele><time>2026-03-28T08:33:04Z</time></trkpt><trkpt lat="45.43913432720956" lon="10.466485997842314"><ele>126.0</ele><time>2026-03-28T08:33:05Z</time></trkpt><trkpt lat="45.43898452311759" lon="10.466441798471564"><ele>126.0</ele><time>2026-03-28T08:33:06Z</time></trkpt><trkpt lat="45.4388465931928" lon="10.466404144982471"><ele>126.0</ele><time>2026-03-28T08:33:07Z</time></trkpt><trkpt lat="45.43871548817756" lon="10.466370595966513"><ele>126.0</ele><time>2026-03-28T08:33:08Z</time></trkpt><trkpt lat="45.43858237077154" lon="10.46633547705509"><ele>126.0</ele><time>2026-03-28T08:33:09Z</time></trkpt><trkpt lat="45.43845549955221" lon="10.466286841511538"><ele>126.25</ele><time>2026-03-28T08:33:10Z</time></trkpt><trkpt lat="45.438349183292026" lon="10.466227940568062"><ele>126.5</ele><time>2026-03-28T08:33:11Z</time></trkpt><trkpt lat="45.438257535926326" lon="10.466148759520719"><ele>126.75</ele><time>2026-03-28T08:33:12Z</time></trkpt><trkpt lat="45.43815522386275" lon="10.466072436940207"><ele>127.0</ele><time>2026-03-28T08:33:13Z</time></trkpt><trkpt lat="45.43804350170262" lon="10.465984963478974"><ele>126.25</ele><time>2026-03-28T08:33:14Z</time></trkpt><trkpt lat="45.437919577106356" lon="10.465884851827008"><ele>125.5</ele><time>2026-03-28T08:33:15Z</time></trkpt><trkpt lat="45.43778865167131" lon="10.465776429873696"><ele>124.75</ele><time>2026-03-28T08:33:16Z</time></trkpt><trkpt lat="45.43767448030265" lon="10.465678851144695"><ele>124.0</ele><time>2026-03-28T08:33:17Z</time></trkpt><trkpt lat="45.43755588269207" lon="10.465575605770553"><ele>124.0</ele><time>2026-03-28T08:33:18Z</time></trkpt><trkpt lat="45.43743855077181" lon="10.46547381154216"><ele>124.0</ele><time>2026-03-28T08:33:19Z</time></trkpt><trkpt lat="45.43732101105538" lon="10.46540630195151"><ele>124.0</ele><time>2026-03-28T08:33:20Z</time></trkpt><trkpt lat="45.4372034959482" lon="10.465306695135451"><ele>124.0</ele><time>2026-03-28T08:33:21Z</time></trkpt><trkpt lat="45.43707236362856" lon="10.465252702868"><ele>124.0</ele><time>2026-03-28T08:33:22Z</time></trkpt><trkpt lat="45.436949729945155" lon="10.4651596769061"><ele>124.0</ele><time>2026-03-28T08:33:23Z</time></trkpt><trkpt lat="45.43682715995243" lon="10.465098375054508"><ele>124.0</ele><time>2026-03-28T08:33:24Z</time></trkpt><trkpt lat="45.43671861163469" lon="10.465048107421735"><ele>124.0</ele><time>2026-03-28T08:33:25Z</time></trkpt><trkpt lat="45.4366312454905" lon="10.465006689960948"><ele>124.0</ele><time>2026-03-28T08:33:26Z</time></trkpt><trkpt lat="45.436570315697445" lon="10.464977442002542"><ele>124.0</ele><time>2026-03-28T08:33:27Z</time></trkpt><trkpt lat="45.43651023295878" lon="10.464948600448423"><ele>124.0</ele><time>2026-03-28T08:33:29Z</time></trkpt><trkpt lat="45.43638270080014" lon="10.465204618249981"><ele>124.0</ele><time>2026-03-28T08:33:32Z</time></trkpt><trkpt lat="45.436390029706494" lon="10.465304626509743"><ele>124.0</ele><time>2026-03-28T08:33:33Z</time></trkpt><trkpt lat="45.436377936237086" lon="10.465426783749702"><ele>124.25</ele><time>2026-03-28T08:33:34Z</time></trkpt><trkpt lat="45.436364056430016" lon="10.465585019340638"><ele>124.5</ele><time>2026-03-28T08:33:35Z</time></trkpt><trkpt lat="45.43635291487347" lon="10.465761116298795"><ele>124.75</ele><time>2026-03-28T08:33:36Z</time></trkpt><trkpt lat="45.43633902077118" lon="10.465965054724489"><ele>125.0</ele><time>2026-03-28T08:33:37Z</time></trkpt><trkpt lat="45.43633695155351" lon="10.466151549993853"><ele>125.0</ele><time>2026-03-28T08:33:38Z</time></trkpt><trkpt lat="45.43635611819231" lon="10.466343951409197"><ele>125.0</ele><time>2026-03-28T08:33:39Z</time></trkpt><trkpt lat="45.43637586734138" lon="10.466525517703221"><ele>125.0</ele><time>2026-03-28T08:33:40Z</time></trkpt><trkpt lat="45.43636412155277" lon="10.466725435400042"><ele>125.0</ele><time>2026-03-28T08:33:41Z</time></trkpt><trkpt lat="45.43636001314014" lon="10.466947762527676"><ele>125.0</ele><time>2026-03-28T08:33:42Z</time></trkpt><trkpt lat="45.43635399274601" lon="10.467146737274689"><ele>125.0</ele><time>2026-03-28T08:33:43Z</time></trkpt><trkpt lat="45.436348239715706" lon="10.467339475471345"><ele>125.0</ele><time>2026-03-28T08:33:44Z</time></trkpt><trkpt lat="45.436342599146414" lon="10.467528446146327"><ele>125.0</ele><time>2026-03-28T08:33:45Z</time></trkpt><trkpt lat="45.43634880823199" lon="10.467737207674043"><ele>125.0</ele><time>2026-03-28T08:33:46Z</time></trkpt><trkpt lat="45.436341145410495" lon="10.467949390180571"><ele>125.0</ele><time>2026-03-28T08:33:47Z</time></trkpt><trkpt lat="45.436345206019986" lon="10.468164711970058"><ele>125.0</ele><time>2026-03-28T08:33:48Z</time></trkpt><trkpt lat="45.43634528648367" lon="10.468365734567383"><ele>125.0</ele><time>2026-03-28T08:33:49Z</time></trkpt><trkpt lat="45.43633078850368" lon="10.468557063509499"><ele>125.0</ele><time>2026-03-28T08:33:50Z</time></trkpt><trkpt lat="45.436338917024784" lon="10.468759979008588"><ele>125.0</ele><time>2026-03-28T08:33:51Z</time></trkpt><trkpt lat="45.436330373367774" lon="10.46897616440493"><ele>125.0</ele><time>2026-03-28T08:33:52Z</time></trkpt><trkpt lat="45.436325048476576" lon="10.469196048464976"><ele>125.0</ele><time>2026-03-28T08:33:53Z</time></trkpt><trkpt lat="45.4363270635103" lon="10.469414673173723"><ele>125.75</ele><time>2026-03-28T08:33:54Z</time></trkpt><trkpt lat="45.43633364077334" lon="10.469634881565694"><ele>126.5</ele><time>2026-03-28T08:33:55Z</time></trkpt><trkpt lat="45.43634245767103" lon="10.469827362375948"><ele>127.25</ele><time>2026-03-28T08:33:56Z</time></trkpt><trkpt lat="45.43635032926447" lon="10.469990744651446"><ele>128.0</ele><time>2026-03-28T08:33:57Z</time></trkpt><trkpt lat="45.43635499197179" lon="10.47015312445586"><ele>128.0</ele><time>2026-03-28T08:33:58Z</time></trkpt><trkpt lat="45.436360963157526" lon="10.470346543897886"><ele>128.0</ele><time>2026-03-28T08:33:59Z</time></trkpt><trkpt lat="45.436346210148336" lon="10.470560110552501"><ele>128.0</ele><time>2026-03-28T08:34:00Z</time></trkpt><trkpt lat="45.43635872194062" lon="10.47077727938202"><ele>128.0</ele><time>2026-03-28T08:34:01Z</time></trkpt><trkpt lat="45.43635251269661" lon="10.470990842734404"><ele>127.66666666666666</ele><time>2026-03-28T08:34:02Z</time></trkpt><trkpt lat="45.436333965690906" lon="10.47120959504935"><ele>127.33333333333334</ele><time>2026-03-28T08:34:03Z</time></trkpt><trkpt lat="45.4363447900305" lon="10.471434599933875"><ele>127.0</ele><time>2026-03-28T08:34:04Z</time></trkpt><trkpt lat="45.43634216989681" lon="10.471681846423271"><ele>127.0</ele><time>2026-03-28T08:34:05Z</time></trkpt><trkpt lat="45.43633868203096" lon="10.47188991068829"><ele>127.0</ele><time>2026-03-28T08:34:06Z</time></trkpt><trkpt lat="45.43633553936505" lon="10.472077093967043"><ele>127.0</ele><time>2026-03-28T08:34:07Z</time></trkpt><trkpt lat="45.43634070590715" lon="10.472284247714018"><ele>127.0</ele><time>2026-03-28T08:34:08Z</time></trkpt><trkpt lat="45.436343794247236" lon="10.472503153388885"><ele>127.0</ele><time>2026-03-28T08:34:09Z</time></trkpt><trkpt lat="45.436351018783476" lon="10.472732164469917"><ele>127.0</ele><time>2026-03-28T08:34:10Z</time></trkpt><trkpt lat="45.43636404971533" lon="10.472969838068881"><ele>127.0</ele><time>2026-03-28T08:34:11Z</time></trkpt><trkpt lat="45.4363842360738" lon="10.473202047619845"><ele>127.0</ele><time>2026-03-28T08:34:12Z</time></trkpt><trkpt lat="45.43641245077059" lon="10.473431775891765"><ele>127.0</ele><time>2026-03-28T08:34:13Z</time></trkpt><trkpt lat="45.436437872718216" lon="10.473656085153468"><ele>127.0</ele><time>2026-03-28T08:34:14Z</time></trkpt><trkpt lat="45.43646550569812" lon="10.473894215959888"><ele>127.0</ele><time>2026-03-28T08:34:15Z</time></trkpt><trkpt lat="45.4364864859358" lon="10.474129186994743"><ele>127.0</ele><time>2026-03-28T08:34:16Z</time></trkpt><trkpt lat="45.4365017781721" lon="10.474346683436767"><ele>127.0</ele><time>2026-03-28T08:34:17Z</time></trkpt><trkpt lat="45.43651282907445" lon="10.474545928737239"><ele>127.25</ele><time>2026-03-28T08:34:18Z</time></trkpt><trkpt lat="45.43653113265643" lon="10.474729025242805"><ele>127.5</ele><time>2026-03-28T08:34:19Z</time></trkpt><trkpt lat="45.43654882806898" lon="10.474931814980094"><ele>127.75</ele><time>2026-03-28T08:34:20Z</time></trkpt><trkpt lat="45.43657202862771" lon="10.475156393758299"><ele>128.0</ele><time>2026-03-28T08:34:21Z</time></trkpt><trkpt lat="45.43660018315715" lon="10.4753927453009"><ele>128.0</ele><time>2026-03-28T08:34:22Z</time></trkpt><trkpt lat="45.4366259970275" lon="10.475626118349833"><ele>128.0</ele><time>2026-03-28T08:34:23Z</time></trkpt><trkpt lat="45.43665356918089" lon="10.475831248232259"><ele>128.0</ele><time>2026-03-28T08:34:24Z</time></trkpt><trkpt lat="45.43668282009181" lon="10.47601819673453"><ele>128.0</ele><time>2026-03-28T08:34:25Z</time></trkpt><trkpt lat="45.436708573581726" lon="10.47618656383109"><ele>128.0</ele><time>2026-03-28T08:34:26Z</time></trkpt><trkpt lat="45.436709913094106" lon="10.47632905515892"><ele>128.0</ele><time>2026-03-28T08:34:27Z</time></trkpt><trkpt lat="45.43672588676915" lon="10.47646051445997"><ele>128.0</ele><time>2026-03-28T08:34:28Z</time></trkpt><trkpt lat="45.436760229746504" lon="10.47660606414141"><ele>128.0</ele><time>2026-03-28T08:34:29Z</time></trkpt><trkpt lat="45.4367697331653" lon="10.476749436067024"><ele>128.0</ele><time>2026-03-28T08:34:30Z</time></trkpt><trkpt lat="45.43679228025758" lon="10.47687039506753"><ele>127.99999999999999</ele><time>2026-03-28T08:34:31Z</time></trkpt><trkpt lat="45.43679879258556" lon="10.477003835633807"><ele>128.0</ele><time>2026-03-28T08:34:32Z</time></trkpt><trkpt lat="45.43682304413629" lon="10.477119221167099"><ele>128.0</ele><time>2026-03-28T08:34:33Z</time></trkpt><trkpt lat="45.43683185073138" lon="10.47721068360366"><ele>128.0</ele><time>2026-03-28T08:34:34Z</time></trkpt><trkpt lat="45.43684695457157" lon="10.477307186642228"><ele>127.99999999999999</ele><time>2026-03-28T08:34:35Z</time></trkpt><trkpt lat="45.436840519151865" lon="10.477437632371615"><ele>128.0</ele><time>2026-03-28T08:34:37Z</time></trkpt><trkpt lat="45.43696817984402" lon="10.47753436425525"><ele>128.25</ele><time>2026-03-28T08:34:40Z</time></trkpt><trkpt lat="45.437055721914994" lon="10.477543210827214"><ele>128.5</ele><time>2026-03-28T08:34:41Z</time></trkpt><trkpt lat="45.43717102043684" lon="10.47754752219338"><ele>128.75</ele><time>2026-03-28T08:34:42Z</time></trkpt><trkpt lat="45.437291930697114" lon="10.47755617914575"><ele>129.0</ele><time>2026-03-28T08:34:43Z</time></trkpt><trkpt lat="45.4374396426276" lon="10.477576042984014"><ele>129.0</ele><time>2026-03-28T08:34:44Z</time></trkpt><trkpt lat="45.43759261103811" lon="10.47760264022081"><ele>129.0</ele><time>2026-03-28T08:34:45Z</time></trkpt><trkpt lat="45.43775114717248" lon="10.477620541820894"><ele>129.0</ele><time>2026-03-28T08:34:46Z</time></trkpt><trkpt lat="45.437914200643974" lon="10.477636751298359"><ele>129.33333333333334</ele><time>2026-03-28T08:34:47Z</time></trkpt><trkpt lat="45.438077208009744" lon="10.477650736208737"><ele>129.66666666666669</ele><time>2026-03-28T08:34:48Z</time></trkpt><trkpt lat="45.43825086704118" lon="10.477665761243477"><ele>130.0</ele><time>2026-03-28T08:34:49Z</time></trkpt><trkpt lat="45.438435464719205" lon="10.477687039911823"><ele>130.0</ele><time>2026-03-28T08:34:50Z</time></trkpt><trkpt lat="45.438637144394086" lon="10.477712259226909"><ele>130.0</ele><time>2026-03-28T08:34:51Z</time></trkpt><trkpt lat="45.43884421147986" lon="10.477749685282458"><ele>130.0</ele><time>2026-03-28T08:34:52Z</time></trkpt><trkpt lat="45.43904860478524" lon="10.477799926323986"><ele>130.0</ele><time>2026-03-28T08:34:53Z</time></trkpt><trkpt lat="45.43925568542653" lon="10.477860547488751"><ele>130.0</ele><time>2026-03-28T08:34:54Z</time></trkpt><trkpt lat="45.43946886764694" lon="10.47794064187976"><ele>130.0</ele><time>2026-03-28T08:34:55Z</time></trkpt><trkpt lat="45.43967720837679" lon="10.478031453278764"><ele>130.33333333333334</ele><time>2026-03-28T08:34:56Z</time></trkpt><trkpt lat="45.43988775383134" lon="10.47812384977463"><ele>130.66666666666666</ele><time>2026-03-28T08:34:57Z</time></trkpt><trkpt lat="45.440101483169975" lon="10.478212431465813"><ele>131.0</ele><time>2026-03-28T08:34:58Z</time></trkpt><trkpt lat="45.440315364041886" lon="10.478290423474931"><ele>131.33333333333331</ele><time>2026-03-28T08:34:59Z</time></trkpt><trkpt lat="45.44052509394988" lon="10.478358675144591"><ele>131.66666666666666</ele><time>2026-03-28T08:35:00Z</time></trkpt><trkpt lat="45.44073738617205" lon="10.478426573501599"><ele>132.0</ele><time>2026-03-28T08:35:01Z</time></trkpt><trkpt lat="45.44093477477888" lon="10.47848755558613"><ele>132.0</ele><time>2026-03-28T08:35:02Z</time></trkpt><trkpt lat="45.44112594163925" lon="10.478545541919964"><ele>132.0</ele><time>2026-03-28T08:35:03Z</time></trkpt><trkpt lat="45.44130250295195" lon="10.478598286394197"><ele>132.0</ele><time>2026-03-28T08:35:04Z</time></trkpt><trkpt lat="45.4414629349838" lon="10.478639751943145"><ele>132.66666666666666</ele><time>2026-03-28T08:35:05Z</time></trkpt><trkpt lat="45.44164611948037" lon="10.478667178479911"><ele>133.33333333333331</ele><time>2026-03-28T08:35:06Z</time></trkpt><trkpt lat="45.44183432732363" lon="10.478669789908952"><ele>134.0</ele><time>2026-03-28T08:35:07Z</time></trkpt><trkpt lat="45.44202316286818" lon="10.478643358533825"><ele>134.66666666666666</ele><time>2026-03-28T08:35:08Z</time></trkpt><trkpt lat="45.442223773397465" lon="10.478575228203361"><ele>135.33333333333334</ele><time>2026-03-28T08:35:09Z</time></trkpt><trkpt lat="45.442425906889625" lon="10.47847594379367"><ele>136.0</ele><time>2026-03-28T08:35:10Z</time></trkpt><trkpt lat="45.442633774914356" lon="10.478339925993076"><ele>136.0</ele><time>2026-03-28T08:35:11Z</time></trkpt><trkpt lat="45.44282718472012" lon="10.478204039588622"><ele>136.0</ele><time>2026-03-28T08:35:12Z</time></trkpt><trkpt lat="45.443005353621935" lon="10.478097310556905"><ele>136.0</ele><time>2026-03-28T08:35:13Z</time></trkpt><trkpt lat="45.443174900788854" lon="10.478026815043076"><ele>135.66666666666669</ele><time>2026-03-28T08:35:14Z</time></trkpt><trkpt lat="45.443358961365846" lon="10.477984085021166"><ele>135.33333333333334</ele><time>2026-03-28T08:35:15Z</time></trkpt><trkpt lat="45.443533001603186" lon="10.477958593012135"><ele>135.0</ele><time>2026-03-28T08:35:16Z</time></trkpt><trkpt lat="45.44372229778971" lon="10.477958363494322"><ele>135.33333333333334</ele><time>2026-03-28T08:35:17Z</time></trkpt><trkpt lat="45.44390050731106" lon="10.477986421374583"><ele>135.66666666666669</ele><time>2026-03-28T08:35:18Z</time></trkpt><trkpt lat="45.44406307668814" lon="10.478031144045453"><ele>136.0</ele><time>2026-03-28T08:35:19Z</time></trkpt><trkpt lat="45.44422260201063" lon="10.478076163630634"><ele>136.0</ele><time>2026-03-28T08:35:20Z</time></trkpt><trkpt lat="45.44439020846064" lon="10.47812398415877"><ele>136.0</ele><time>2026-03-28T08:35:21Z</time></trkpt><trkpt lat="45.44454202478899" lon="10.478170412081129"><ele>136.0</ele><time>2026-03-28T08:35:22Z</time></trkpt><trkpt lat="45.4446728177938" lon="10.478210355776982"><ele>136.25</ele><time>2026-03-28T08:35:23Z</time></trkpt><trkpt lat="45.444802967455665" lon="10.478247939517404"><ele>136.5</ele><time>2026-03-28T08:35:24Z</time></trkpt><trkpt lat="45.44493338143958" lon="10.478281385764841"><ele>136.75</ele><time>2026-03-28T08:35:25Z</time></trkpt><trkpt lat="45.44506303710629" lon="10.478315872247654"><ele>137.0</ele><time>2026-03-28T08:35:26Z</time></trkpt><trkpt lat="45.44518296924305" lon="10.478353077212036"><ele>137.0</ele><time>2026-03-28T08:35:27Z</time></trkpt><trkpt lat="45.445303448444214" lon="10.478392235811627"><ele>137.0</ele><time>2026-03-28T08:35:28Z</time></trkpt><trkpt lat="45.44542607072758" lon="10.478436560167866"><ele>137.0</ele><time>2026-03-28T08:35:29Z</time></trkpt><trkpt lat="45.445537692145045" lon="10.478480850218958"><ele>137.0</ele><time>2026-03-28T08:35:30Z</time></trkpt><trkpt lat="45.445654866994346" lon="10.47854108329862"><ele>137.5</ele><time>2026-03-28T08:35:31Z</time></trkpt><trkpt lat="45.44576843282503" lon="10.478607026295183"><ele>138.0</ele><time>2026-03-28T08:35:32Z</time></trkpt><trkpt lat="45.445870996173255" lon="10.478679771925922"><ele>138.5</ele><time>2026-03-28T08:35:33Z</time></trkpt><trkpt lat="45.44596526243265" lon="10.478754019423613"><ele>139.0</ele><time>2026-03-28T08:35:34Z</time></trkpt><trkpt lat="45.44606563673463" lon="10.478828373615007"><ele>139.25</ele><time>2026-03-28T08:35:35Z</time></trkpt><trkpt lat="45.44617194306631" lon="10.478906419167481"><ele>139.5</ele><time>2026-03-28T08:35:36Z</time></trkpt><trkpt lat="45.44627804377406" lon="10.478985262045603"><ele>139.75</ele><time>2026-03-28T08:35:37Z</time></trkpt><trkpt lat="45.44638459939373" lon="10.479071981752186"><ele>140.0</ele><time>2026-03-28T08:35:38Z</time></trkpt><trkpt lat="45.44648434025228" lon="10.47915046941505"><ele>140.4</ele><time>2026-03-28T08:35:39Z</time></trkpt><trkpt lat="45.446577427884165" lon="10.479227374394462"><ele>140.8</ele><time>2026-03-28T08:35:40Z</time></trkpt><trkpt lat="45.44667493665376" lon="10.47931515029"><ele>141.2</ele><time>2026-03-28T08:35:41Z</time></trkpt><trkpt lat="45.44677376758466" lon="10.479402990756917"><ele>141.6</ele><time>2026-03-28T08:35:42Z</time></trkpt><trkpt lat="45.44686556157587" lon="10.47947725596333"><ele>142.0</ele><time>2026-03-28T08:35:43Z</time></trkpt><trkpt lat="45.446971503945534" lon="10.479555232864474"><ele>141.79999999999998</ele><time>2026-03-28T08:35:44Z</time></trkpt><trkpt lat="45.4470752550381" lon="10.47961878668323"><ele>141.6</ele><time>2026-03-28T08:35:45Z</time></trkpt><trkpt lat="45.44717131883161" lon="10.479673968088596"><ele>141.39999999999998</ele><time>2026-03-28T08:35:46Z</time></trkpt><trkpt lat="45.44726820260043" lon="10.479727713502864"><ele>141.2</ele><time>2026-03-28T08:35:47Z</time></trkpt><trkpt lat="45.44737662304655" lon="10.479778475946292"><ele>141.0</ele><time>2026-03-28T08:35:48Z</time></trkpt><trkpt lat="45.4474834918399" lon="10.479829506371365"><ele>140.8</ele><time>2026-03-28T08:35:49Z</time></trkpt><trkpt lat="45.44758384040849" lon="10.479878815865813"><ele>140.6</ele><time>2026-03-28T08:35:50Z</time></trkpt><trkpt lat="45.4476811733126" lon="10.47993840016289"><ele>140.4</ele><time>2026-03-28T08:35:51Z</time></trkpt><trkpt lat="45.44778333134739" lon="10.479991196160933"><ele>140.2</ele><time>2026-03-28T08:35:52Z</time></trkpt><trkpt lat="45.447890580685794" lon="10.480044239277372"><ele>140.0</ele><time>2026-03-28T08:35:53Z</time></trkpt><trkpt lat="45.44799719799318" lon="10.48010398989046"><ele>140.0</ele><time>2026-03-28T08:35:54Z</time></trkpt><trkpt lat="45.44810821929145" lon="10.480153479472113"><ele>140.0</ele><time>2026-03-28T08:35:55Z</time></trkpt><trkpt lat="45.448213797166744" lon="10.480204489999366"><ele>140.0</ele><time>2026-03-28T08:35:56Z</time></trkpt><trkpt lat="45.44832745413166" lon="10.480252417709064"><ele>140.0</ele><time>2026-03-28T08:35:57Z</time></trkpt><trkpt lat="45.44844101438249" lon="10.480296375169113"><ele>140.0</ele><time>2026-03-28T08:35:58Z</time></trkpt><trkpt lat="45.44856299912087" lon="10.480339291870427"><ele>140.0</ele><time>2026-03-28T08:35:59Z</time></trkpt><trkpt lat="45.44868626308986" lon="10.480377963127278"><ele>140.0</ele><time>2026-03-28T08:36:00Z</time></trkpt><trkpt lat="45.44880402598009" lon="10.48041274040458"><ele>140.0</ele><time>2026-03-28T08:36:01Z</time></trkpt><trkpt lat="45.448918885887615" lon="10.480450833255944"><ele>140.0</ele><time>2026-03-28T08:36:02Z</time></trkpt><trkpt lat="45.44903630511456" lon="10.480484882667936"><ele>140.0</ele><time>2026-03-28T08:36:03Z</time></trkpt><trkpt lat="45.449161716819845" lon="10.480519719310582"><ele>140.0</ele><time>2026-03-28T08:36:04Z</time></trkpt><trkpt lat="45.44928710972425" lon="10.480557150116164"><ele>140.0</ele><time>2026-03-28T08:36:05Z</time></trkpt><trkpt lat="45.449401987767494" lon="10.48059246741488"><ele>140.0</ele><time>2026-03-28T08:36:06Z</time></trkpt><trkpt lat="45.44950823682354" lon="10.48062309000144"><ele>140.0</ele><time>2026-03-28T08:36:07Z</time></trkpt><trkpt lat="45.44960480191866" lon="10.480646195247813"><ele>140.0</ele><time>2026-03-28T08:36:08Z</time></trkpt><trkpt lat="45.44969079787523" lon="10.480664489273687"><ele>140.0</ele><time>2026-03-28T08:36:09Z</time></trkpt><trkpt lat="45.44976864728024" lon="10.480683302459724"><ele>140.0</ele><time>2026-03-28T08:36:10Z</time></trkpt><trkpt lat="45.4498448741916" lon="10.480705312901875"><ele>140.6</ele><time>2026-03-28T08:36:11Z</time></trkpt><trkpt lat="45.44992047226311" lon="10.480728727366426"><ele>141.2</ele><time>2026-03-28T08:36:12Z</time></trkpt><trkpt lat="45.45000731594635" lon="10.48075123792969"><ele>141.8</ele><time>2026-03-28T08:36:13Z</time></trkpt><trkpt lat="45.450103322194124" lon="10.480772186608643"><ele>142.4</ele><time>2026-03-28T08:36:14Z</time></trkpt><trkpt lat="45.45021807121796" lon="10.480800949249527"><ele>143.0</ele><time>2026-03-28T08:36:15Z</time></trkpt><trkpt lat="45.450360558144" lon="10.480845015281192"><ele>143.33333333333331</ele><time>2026-03-28T08:36:16Z</time></trkpt><trkpt lat="45.450523003832124" lon="10.480896617362795"><ele>143.66666666666666</ele><time>2026-03-28T08:36:17Z</time></trkpt><trkpt lat="45.45067785115541" lon="10.480935141318872"><ele>144.0</ele><time>2026-03-28T08:36:18Z</time></trkpt><trkpt lat="45.45082613747576" lon="10.480968521683474"><ele>144.0</ele><time>2026-03-28T08:36:19Z</time></trkpt><trkpt lat="45.45095768376024" lon="10.48099786680434"><ele>144.0</ele><time>2026-03-28T08:36:20Z</time></trkpt><trkpt lat="45.45107543935994" lon="10.481027733898907"><ele>144.0</ele><time>2026-03-28T08:36:21Z</time></trkpt><trkpt lat="45.45119137177641" lon="10.481048504590888"><ele>144.0</ele><time>2026-03-28T08:36:22Z</time></trkpt><trkpt lat="45.45130415322272" lon="10.481077932087555"><ele>143.75</ele><time>2026-03-28T08:36:23Z</time></trkpt><trkpt lat="45.451418025068975" lon="10.481109094529003"><ele>143.5</ele><time>2026-03-28T08:36:24Z</time></trkpt><trkpt lat="45.45152970250795" lon="10.481144797048131"><ele>143.25</ele><time>2026-03-28T08:36:25Z</time></trkpt><trkpt lat="45.45164633371925" lon="10.481183663271809"><ele>143.0</ele><time>2026-03-28T08:36:26Z</time></trkpt><trkpt lat="45.45176491020553" lon="10.481226884890708"><ele>144.0</ele><time>2026-03-28T08:36:27Z</time></trkpt><trkpt lat="45.45188200615654" lon="10.481271959707142"><ele>145.0</ele><time>2026-03-28T08:36:28Z</time></trkpt><trkpt lat="45.45199084147488" lon="10.481318430123293"><ele>146.0</ele><time>2026-03-28T08:36:29Z</time></trkpt><trkpt lat="45.45210177893939" lon="10.481368088702455"><ele>147.0</ele><time>2026-03-28T08:36:30Z</time></trkpt><trkpt lat="45.45220450221553" lon="10.481428777384785"><ele>147.0</ele><time>2026-03-28T08:36:31Z</time></trkpt><trkpt lat="45.45229563407123" lon="10.481504876987515"><ele>147.0</ele><time>2026-03-28T08:36:32Z</time></trkpt><trkpt lat="45.452388729129986" lon="10.481601889334952"><ele>147.0</ele><time>2026-03-28T08:36:33Z</time></trkpt><trkpt lat="45.452463547431265" lon="10.481701781485341"><ele>147.0</ele><time>2026-03-28T08:36:34Z</time></trkpt><trkpt lat="45.452527695959326" lon="10.481812453310235"><ele>147.0</ele><time>2026-03-28T08:36:35Z</time></trkpt><trkpt lat="45.45259321815069" lon="10.481942216400808"><ele>147.0</ele><time>2026-03-28T08:36:36Z</time></trkpt><trkpt lat="45.452640529396156" lon="10.48208200876693"><ele>147.0</ele><time>2026-03-28T08:36:37Z</time></trkpt><trkpt lat="45.452676773547815" lon="10.482224277320098"><ele>147.0</ele><time>2026-03-28T08:36:38Z</time></trkpt><trkpt lat="45.452693633133315" lon="10.482377068717456"><ele>147.0</ele><time>2026-03-28T08:36:39Z</time></trkpt><trkpt lat="45.45269778032998" lon="10.482536586020462"><ele>147.0</ele><time>2026-03-28T08:36:40Z</time></trkpt><trkpt lat="45.45269386449937" lon="10.482706835463649"><ele>147.25</ele><time>2026-03-28T08:36:41Z</time></trkpt><trkpt lat="45.45268028654165" lon="10.48288863298336"><ele>147.5</ele><time>2026-03-28T08:36:42Z</time></trkpt><trkpt lat="45.452663699421" lon="10.483068446715947"><ele>147.75</ele><time>2026-03-28T08:36:43Z</time></trkpt><trkpt lat="45.4526500179649" lon="10.483229924923048"><ele>148.0</ele><time>2026-03-28T08:36:44Z</time></trkpt><trkpt lat="45.45263672519666" lon="10.483385281740928"><ele>148.4</ele><time>2026-03-28T08:36:45Z</time></trkpt><trkpt lat="45.45262719365047" lon="10.48353925211727"><ele>148.8</ele><time>2026-03-28T08:36:46Z</time></trkpt><trkpt lat="45.45262282794471" lon="10.483686742734294"><ele>149.2</ele><time>2026-03-28T08:36:47Z</time></trkpt><trkpt lat="45.452625908491335" lon="10.483828866779366"><ele>149.6</ele><time>2026-03-28T08:36:48Z</time></trkpt><trkpt lat="45.45263875236936" lon="10.483975586229473"><ele>150.0</ele><time>2026-03-28T08:36:49Z</time></trkpt><trkpt lat="45.45266767387524" lon="10.484118664483754"><ele>150.0</ele><time>2026-03-28T08:36:50Z</time></trkpt><trkpt lat="45.45270989795896" lon="10.484256078269045"><ele>150.0</ele><time>2026-03-28T08:36:51Z</time></trkpt><trkpt lat="45.452761854193916" lon="10.48439080446139"><ele>150.0</ele><time>2026-03-28T08:36:52Z</time></trkpt><trkpt lat="45.45281665379357" lon="10.484500178569258"><ele>150.0</ele><time>2026-03-28T08:36:53Z</time></trkpt><trkpt lat="45.452877098585645" lon="10.484595176850211"><ele>150.0</ele><time>2026-03-28T08:36:54Z</time></trkpt><trkpt lat="45.452928177197904" lon="10.484667073181997"><ele>150.66666666666666</ele><time>2026-03-28T08:36:55Z</time></trkpt><trkpt lat="45.452976270336165" lon="10.48476786301473"><ele>151.33333333333334</ele><time>2026-03-28T08:36:57Z</time></trkpt><trkpt lat="45.4529377388249" lon="10.484853730145163"><ele>152.0</ele><time>2026-03-28T08:36:58Z</time></trkpt><trkpt lat="45.45288897451997" lon="10.48492365469311"><ele>152.66666666666669</ele><time>2026-03-28T08:37:00Z</time></trkpt><trkpt lat="45.45287355465783" lon="10.48501504600584"><ele>153.33333333333334</ele><time>2026-03-28T08:37:06Z</time></trkpt><trkpt lat="45.45278406608693" lon="10.485067237163156"><ele>154.0</ele><time>2026-03-28T08:37:08Z</time></trkpt><trkpt lat="45.45270782831044" lon="10.48509290207556"><ele>154.33333333333334</ele><time>2026-03-28T08:37:09Z</time></trkpt><trkpt lat="45.45262954119259" lon="10.485091298579913"><ele>154.66666666666669</ele><time>2026-03-28T08:37:10Z</time></trkpt><trkpt lat="45.452552566045185" lon="10.485091689586845"><ele>155.0</ele><time>2026-03-28T08:37:11Z</time></trkpt><trkpt lat="45.452474945185145" lon="10.485089500033132"><ele>155.33333333333334</ele><time>2026-03-28T08:37:12Z</time></trkpt><trkpt lat="45.45239224979664" lon="10.485052571217444"><ele>155.66666666666666</ele><time>2026-03-28T08:37:13Z</time></trkpt><trkpt lat="45.45229295307944" lon="10.485036925728338"><ele>156.0</ele><time>2026-03-28T08:37:14Z</time></trkpt><trkpt lat="45.452191707539356" lon="10.485020973174555"><ele>156.0</ele><time>2026-03-28T08:37:15Z</time></trkpt><trkpt lat="45.452097934098774" lon="10.485025592727675"><ele>156.0</ele><time>2026-03-28T08:37:16Z</time></trkpt><trkpt lat="45.45200867479903" lon="10.485002318241149"><ele>156.0</ele><time>2026-03-28T08:37:17Z</time></trkpt><trkpt lat="45.451916043071" lon="10.484986496853583"><ele>156.0</ele><time>2026-03-28T08:37:18Z</time></trkpt><trkpt lat="45.4518117124327" lon="10.484934808234662"><ele>156.0</ele><time>2026-03-28T08:37:19Z</time></trkpt><trkpt lat="45.45170104683845" lon="10.484889896523015"><ele>156.0</ele><time>2026-03-28T08:37:20Z</time></trkpt><trkpt lat="45.45158458251768" lon="10.484842046413673"><ele>156.0</ele><time>2026-03-28T08:37:21Z</time></trkpt><trkpt lat="45.451456146692635" lon="10.484785176408748"><ele>156.0</ele><time>2026-03-28T08:37:22Z</time></trkpt><trkpt lat="45.451314842804464" lon="10.484718955453701"><ele>156.0</ele><time>2026-03-28T08:37:23Z</time></trkpt><trkpt lat="45.45117267308364" lon="10.484668555535618"><ele>156.5</ele><time>2026-03-28T08:37:24Z</time></trkpt><trkpt lat="45.45102556801223" lon="10.484636191082645"><ele>157.0</ele><time>2026-03-28T08:37:25Z</time></trkpt><trkpt lat="45.45088800517823" lon="10.484618795669352"><ele>157.5</ele><time>2026-03-28T08:37:26Z</time></trkpt><trkpt lat="45.45077132119077" lon="10.484614798304833"><ele>158.0</ele><time>2026-03-28T08:37:27Z</time></trkpt><trkpt lat="45.45066222642145" lon="10.484538998974168"><ele>156.20000000000002</ele><time>2026-03-28T08:37:28Z</time></trkpt><trkpt lat="45.4505569790678" lon="10.484502690936209"><ele>154.4</ele><time>2026-03-28T08:37:29Z</time></trkpt><trkpt lat="45.450460873554846" lon="10.48447017672085"><ele>152.60000000000002</ele><time>2026-03-28T08:37:30Z</time></trkpt><trkpt lat="45.45037259583602" lon="10.48445597795517"><ele>150.8</ele><time>2026-03-28T08:37:31Z</time></trkpt><trkpt lat="45.45027742739106" lon="10.484426172593736"><ele>149.0</ele><time>2026-03-28T08:37:32Z</time></trkpt><trkpt lat="45.45016894435663" lon="10.484387648469019"><ele>148.8</ele><time>2026-03-28T08:37:33Z</time></trkpt><trkpt lat="45.45005966077876" lon="10.484370535107713"><ele>148.60000000000002</ele><time>2026-03-28T08:37:34Z</time></trkpt><trkpt lat="45.44994797241516" lon="10.48437983064988"><ele>148.4</ele><time>2026-03-28T08:37:35Z</time></trkpt><trkpt lat="45.44984243988324" lon="10.48436742154886"><ele>148.20000000000002</ele><time>2026-03-28T08:37:36Z</time></trkpt><trkpt lat="45.44974250681655" lon="10.484365172390165"><ele>148.0</ele><time>2026-03-28T08:37:37Z</time></trkpt><trkpt lat="45.449644064555656" lon="10.484384656087066"><ele>147.5</ele><time>2026-03-28T08:37:38Z</time></trkpt><trkpt lat="45.449529519051545" lon="10.484395592803837"><ele>147.0</ele><time>2026-03-28T08:37:39Z</time></trkpt><trkpt lat="45.44940751335516" lon="10.484418507552354"><ele>146.5</ele><time>2026-03-28T08:37:40Z</time></trkpt><trkpt lat="45.449259204982276" lon="10.484424185488265"><ele>146.0</ele><time>2026-03-28T08:37:41Z</time></trkpt><trkpt lat="45.44911038118881" lon="10.484426141521705"><ele>146.0</ele><time>2026-03-28T08:37:42Z</time></trkpt><trkpt lat="45.448964501454476" lon="10.484417177671473"><ele>146.0</ele><time>2026-03-28T08:37:43Z</time></trkpt><trkpt lat="45.4488343157383" lon="10.484401711790554"><ele>146.0</ele><time>2026-03-28T08:37:44Z</time></trkpt><trkpt lat="45.448713767057626" lon="10.484398860860674"><ele>146.0</ele><time>2026-03-28T08:37:45Z</time></trkpt><trkpt lat="45.44859664702497" lon="10.484394463115288"><ele>146.25</ele><time>2026-03-28T08:37:46Z</time></trkpt><trkpt lat="45.44846930920562" lon="10.484388410567483"><ele>146.5</ele><time>2026-03-28T08:37:47Z</time></trkpt><trkpt lat="45.44832936611091" lon="10.484380213853518"><ele>146.75</ele><time>2026-03-28T08:37:48Z</time></trkpt><trkpt lat="45.44819422334483" lon="10.484368907075368"><ele>147.0</ele><time>2026-03-28T08:37:49Z</time></trkpt><trkpt lat="45.44806357109495" lon="10.484353654006181"><ele>147.79999999999998</ele><time>2026-03-28T08:37:50Z</time></trkpt><trkpt lat="45.44793653137537" lon="10.484332676976772"><ele>148.6</ele><time>2026-03-28T08:37:51Z</time></trkpt><trkpt lat="45.447837425221486" lon="10.484307628231479"><ele>149.39999999999998</ele><time>2026-03-28T08:37:52Z</time></trkpt><trkpt lat="45.4477227251101" lon="10.484227297455227"><ele>150.2</ele><time>2026-03-28T08:37:54Z</time></trkpt><trkpt lat="45.447651918376174" lon="10.484153614090147"><ele>151.0</ele><time>2026-03-28T08:37:55Z</time></trkpt><trkpt lat="45.44758952534886" lon="10.48406331431372"><ele>151.0</ele><time>2026-03-28T08:37:56Z</time></trkpt><trkpt lat="45.44752235947574" lon="10.483978551032989"><ele>151.0</ele><time>2026-03-28T08:37:57Z</time></trkpt><trkpt lat="45.447467523317876" lon="10.483911261028338"><ele>151.0</ele><time>2026-03-28T08:37:58Z</time></trkpt><trkpt lat="45.44739040009372" lon="10.483878488695623"><ele>151.0</ele><time>2026-03-28T08:37:59Z</time></trkpt><trkpt lat="45.44733017876123" lon="10.483849993367416"><ele>151.0</ele><time>2026-03-28T08:38:00Z</time></trkpt><trkpt lat="45.44724417479009" lon="10.483823816600523"><ele>151.0</ele><time>2026-03-28T08:38:01Z</time></trkpt><trkpt lat="45.44713845094124" lon="10.483772444016303"><ele>149.25</ele><time>2026-03-28T08:38:02Z</time></trkpt><trkpt lat="45.447021020332066" lon="10.483740702043335"><ele>147.5</ele><time>2026-03-28T08:38:03Z</time></trkpt><trkpt lat="45.446889507421034" lon="10.483706833641552"><ele>145.75</ele><time>2026-03-28T08:38:04Z</time></trkpt><trkpt lat="45.44674915035452" lon="10.483671340207584"><ele>144.0</ele><time>2026-03-28T08:38:05Z</time></trkpt><trkpt lat="45.446594374843336" lon="10.483632358875228"><ele>144.0</ele><time>2026-03-28T08:38:06Z</time></trkpt><trkpt lat="45.44645241735746" lon="10.4835984912675"><ele>144.0</ele><time>2026-03-28T08:38:07Z</time></trkpt><trkpt lat="45.44631030915524" lon="10.483567537622392"><ele>144.0</ele><time>2026-03-28T08:38:08Z</time></trkpt><trkpt lat="45.44614945545646" lon="10.483536064308447"><ele>143.66666666666666</ele><time>2026-03-28T08:38:09Z</time></trkpt><trkpt lat="45.44599901809769" lon="10.483507721680143"><ele>143.33333333333331</ele><time>2026-03-28T08:38:10Z</time></trkpt><trkpt lat="45.445825146301964" lon="10.483476311644196"><ele>143.0</ele><time>2026-03-28T08:38:11Z</time></trkpt><trkpt lat="45.44564469440311" lon="10.483443712925634"><ele>143.0</ele><time>2026-03-28T08:38:12Z</time></trkpt><trkpt lat="45.44547157779046" lon="10.483411413723196"><ele>143.0</ele><time>2026-03-28T08:38:13Z</time></trkpt><trkpt lat="45.44529671019972" lon="10.483377941602086"><ele>143.0</ele><time>2026-03-28T08:38:14Z</time></trkpt><trkpt lat="45.4451251987209" lon="10.483345111898972"><ele>143.33333333333331</ele><time>2026-03-28T08:38:15Z</time></trkpt><trkpt lat="45.44496765544965" lon="10.483314955902207"><ele>143.66666666666666</ele><time>2026-03-28T08:38:16Z</time></trkpt><trkpt lat="45.44480654549118" lon="10.483284117178698"><ele>144.0</ele><time>2026-03-28T08:38:17Z</time></trkpt><trkpt lat="45.444639194464436" lon="10.483255785041605"><ele>144.0</ele><time>2026-03-28T08:38:18Z</time></trkpt><trkpt lat="45.4444643146321" lon="10.483230445967667"><ele>144.0</ele><time>2026-03-28T08:38:19Z</time></trkpt><trkpt lat="45.44430340476585" lon="10.48320713106251"><ele>144.0</ele><time>2026-03-28T08:38:20Z</time></trkpt><trkpt lat="45.444156511385486" lon="10.48318099357293"><ele>144.0</ele><time>2026-03-28T08:38:21Z</time></trkpt><trkpt lat="45.44401229132565" lon="10.483149166947905"><ele>144.0</ele><time>2026-03-28T08:38:22Z</time></trkpt><trkpt lat="45.44385917556039" lon="10.48310970950577"><ele>144.0</ele><time>2026-03-28T08:38:23Z</time></trkpt><trkpt lat="45.44372308731696" lon="10.483071720165578"><ele>144.0</ele><time>2026-03-28T08:38:24Z</time></trkpt><trkpt lat="45.44357726748567" lon="10.483055836256655"><ele>144.25</ele><time>2026-03-28T08:38:25Z</time></trkpt><trkpt lat="45.443431218473435" lon="10.483009557681502"><ele>144.5</ele><time>2026-03-28T08:38:26Z</time></trkpt><trkpt lat="45.44327756791827" lon="10.482981173259969"><ele>144.75</ele><time>2026-03-28T08:38:27Z</time></trkpt><trkpt lat="45.44314483929418" lon="10.482955079046363"><ele>145.0</ele><time>2026-03-28T08:38:28Z</time></trkpt><trkpt lat="45.44301902124642" lon="10.482927783548913"><ele>144.0</ele><time>2026-03-28T08:38:29Z</time></trkpt><trkpt lat="45.44289840847398" lon="10.482894015898923"><ele>143.0</ele><time>2026-03-28T08:38:30Z</time></trkpt><trkpt lat="45.44277922446766" lon="10.482840613369103"><ele>142.0</ele><time>2026-03-28T08:38:31Z</time></trkpt><trkpt lat="45.44266496964535" lon="10.482776820030045"><ele>141.0</ele><time>2026-03-28T08:38:32Z</time></trkpt><trkpt lat="45.44254300276098" lon="10.48269368519114"><ele>141.0</ele><time>2026-03-28T08:38:33Z</time></trkpt><trkpt lat="45.44241527802502" lon="10.482595845735645"><ele>141.0</ele><time>2026-03-28T08:38:34Z</time></trkpt><trkpt lat="45.44227991066565" lon="10.48249063703606"><ele>141.0</ele><time>2026-03-28T08:38:35Z</time></trkpt><trkpt lat="45.4421385006593" lon="10.48238366517821"><ele>141.0</ele><time>2026-03-28T08:38:36Z</time></trkpt><trkpt lat="45.44199364696019" lon="10.482281843514034"><ele>141.0</ele><time>2026-03-28T08:38:37Z</time></trkpt><trkpt lat="45.44183684251967" lon="10.482171003169684"><ele>141.0</ele><time>2026-03-28T08:38:38Z</time></trkpt><trkpt lat="45.44169037753185" lon="10.482067173586675"><ele>140.0</ele><time>2026-03-28T08:38:39Z</time></trkpt><trkpt lat="45.44153251345716" lon="10.481980108892818"><ele>139.0</ele><time>2026-03-28T08:38:40Z</time></trkpt><trkpt lat="45.44139381522371" lon="10.48185153277952"><ele>138.0</ele><time>2026-03-28T08:38:41Z</time></trkpt><trkpt lat="45.44124632715877" lon="10.481738571222698"><ele>138.0</ele><time>2026-03-28T08:38:42Z</time></trkpt><trkpt lat="45.44109866335914" lon="10.481624588200344"><ele>138.0</ele><time>2026-03-28T08:38:43Z</time></trkpt><trkpt lat="45.44094177609551" lon="10.48150824745994"><ele>138.0</ele><time>2026-03-28T08:38:44Z</time></trkpt><trkpt lat="45.440787669766614" lon="10.481400582602861"><ele>138.0</ele><time>2026-03-28T08:38:45Z</time></trkpt><trkpt lat="45.44064721235298" lon="10.481296513029376"><ele>138.0</ele><time>2026-03-28T08:38:46Z</time></trkpt><trkpt lat="45.44051406359517" lon="10.48118184724829"><ele>138.0</ele><time>2026-03-28T08:38:47Z</time></trkpt><trkpt lat="45.440379548487414" lon="10.48110009923049"><ele>136.66666666666666</ele><time>2026-03-28T08:38:48Z</time></trkpt><trkpt lat="45.44024169006288" lon="10.481036551565348"><ele>135.33333333333331</ele><time>2026-03-28T08:38:49Z</time></trkpt><trkpt lat="45.440092606380205" lon="10.480976802351798"><ele>134.0</ele><time>2026-03-28T08:38:50Z</time></trkpt><trkpt lat="45.439933262212406" lon="10.480918756666396"><ele>134.0</ele><time>2026-03-28T08:38:51Z</time></trkpt><trkpt lat="45.43978276026919" lon="10.480874341754996"><ele>134.0</ele><time>2026-03-28T08:38:52Z</time></trkpt><trkpt lat="45.439635189873954" lon="10.480833993542992"><ele>134.0</ele><time>2026-03-28T08:38:53Z</time></trkpt><trkpt lat="45.43947094555604" lon="10.480791261637002"><ele>134.33333333333331</ele><time>2026-03-28T08:38:54Z</time></trkpt><trkpt lat="45.43930668116266" lon="10.480748524499784"><ele>134.66666666666666</ele><time>2026-03-28T08:38:55Z</time></trkpt><trkpt lat="45.43913739127974" lon="10.480704094567708"><ele>135.0</ele><time>2026-03-28T08:38:56Z</time></trkpt><trkpt lat="45.438966360621606" lon="10.480658742807595"><ele>135.0</ele><time>2026-03-28T08:38:57Z</time></trkpt><trkpt lat="45.438822644635366" lon="10.480620635961005"><ele>135.0</ele><time>2026-03-28T08:38:58Z</time></trkpt><trkpt lat="45.4387001542746" lon="10.48058815549521"><ele>135.0</ele><time>2026-03-28T08:38:59Z</time></trkpt><trkpt lat="45.43859062795882" lon="10.480559112695289"><ele>135.0</ele><time>2026-03-28T08:39:00Z</time></trkpt><trkpt lat="45.4384961607156" lon="10.480536126663399"><ele>134.6</ele><time>2026-03-28T08:39:01Z</time></trkpt><trkpt lat="45.438422787577636" lon="10.480543709444168"><ele>134.2</ele><time>2026-03-28T08:39:02Z</time></trkpt><trkpt lat="45.43829971567493" lon="10.480502812937067"><ele>133.8</ele><time>2026-03-28T08:39:04Z</time></trkpt><trkpt lat="45.43820665666134" lon="10.48046923986862"><ele>133.4</ele><time>2026-03-28T08:39:05Z</time></trkpt><trkpt lat="45.438077456712136" lon="10.48041635895011"><ele>133.0</ele><time>2026-03-28T08:39:06Z</time></trkpt><trkpt lat="45.43792727679008" lon="10.480423474859332"><ele>132.0</ele><time>2026-03-28T08:39:07Z</time></trkpt><trkpt lat="45.437768131945994" lon="10.480406911199928"><ele>131.0</ele><time>2026-03-28T08:39:08Z</time></trkpt><trkpt lat="45.43759694338883" lon="10.480409193544057"><ele>130.0</ele><time>2026-03-28T08:39:09Z</time></trkpt><trkpt lat="45.43741030411406" lon="10.480416107121883"><ele>130.0</ele><time>2026-03-28T08:39:10Z</time></trkpt><trkpt lat="45.43721375968867" lon="10.480419091932852"><ele>130.0</ele><time>2026-03-28T08:39:11Z</time></trkpt><trkpt lat="45.437045203952266" lon="10.48042000454495"><ele>130.0</ele><time>2026-03-28T08:39:12Z</time></trkpt><trkpt lat="45.436886509915425" lon="10.480424676001979"><ele>129.75</ele><time>2026-03-28T08:39:13Z</time></trkpt><trkpt lat="45.43673936826787" lon="10.48042979857016"><ele>129.5</ele><time>2026-03-28T08:39:14Z</time></trkpt><trkpt lat="45.43660193894404" lon="10.480438945551915"><ele>129.25</ele><time>2026-03-28T08:39:15Z</time></trkpt><trkpt lat="45.43645743044781" lon="10.480462292055226"><ele>129.0</ele><time>2026-03-28T08:39:16Z</time></trkpt><trkpt lat="45.43630273584126" lon="10.48052223015415"><ele>129.66666666666666</ele><time>2026-03-28T08:39:17Z</time></trkpt><trkpt lat="45.43613813459096" lon="10.480612605410615"><ele>130.33333333333331</ele><time>2026-03-28T08:39:18Z</time></trkpt><trkpt lat="45.43595856337043" lon="10.48070743892964"><ele>131.0</ele><time>2026-03-28T08:39:19Z</time></trkpt><trkpt lat="45.4357698945474" lon="10.480806421776002"><ele>131.0</ele><time>2026-03-28T08:39:20Z</time></trkpt><trkpt lat="45.435576670190855" lon="10.48088219259862"><ele>131.0</ele><time>2026-03-28T08:39:21Z</time></trkpt><trkpt lat="45.435390738138544" lon="10.480979588594732"><ele>131.0</ele><time>2026-03-28T08:39:22Z</time></trkpt><trkpt lat="45.43520489735947" lon="10.481078958903952"><ele>131.0</ele><time>2026-03-28T08:39:23Z</time></trkpt><trkpt lat="45.435028015994355" lon="10.481160757297305"><ele>131.0</ele><time>2026-03-28T08:39:24Z</time></trkpt><trkpt lat="45.43485607672162" lon="10.481231042409028"><ele>131.0</ele><time>2026-03-28T08:39:25Z</time></trkpt><trkpt lat="45.434691570836556" lon="10.481285459299956"><ele>131.0</ele><time>2026-03-28T08:39:26Z</time></trkpt><trkpt lat="45.43452080515439" lon="10.481321508493604"><ele>131.0</ele><time>2026-03-28T08:39:27Z</time></trkpt><trkpt lat="45.43433727899752" lon="10.481351622417185"><ele>131.0</ele><time>2026-03-28T08:39:28Z</time></trkpt><trkpt lat="45.43415912982605" lon="10.481368712591307"><ele>131.0</ele><time>2026-03-28T08:39:29Z</time></trkpt><trkpt lat="45.43399406926859" lon="10.48137595620955"><ele>131.0</ele><time>2026-03-28T08:39:30Z</time></trkpt><trkpt lat="45.43384113849222" lon="10.481368646732818"><ele>131.0</ele><time>2026-03-28T08:39:31Z</time></trkpt><trkpt lat="45.43369639596856" lon="10.48134020202779"><ele>131.0</ele><time>2026-03-28T08:39:32Z</time></trkpt><trkpt lat="45.43354307790747" lon="10.481294245742594"><ele>131.0</ele><time>2026-03-28T08:39:33Z</time></trkpt><trkpt lat="45.433383269159236" lon="10.481225977791988"><ele>131.0</ele><time>2026-03-28T08:39:34Z</time></trkpt><trkpt lat="45.433217686855514" lon="10.48113759979168"><ele>131.33333333333331</ele><time>2026-03-28T08:39:35Z</time></trkpt><trkpt lat="45.433031352024265" lon="10.481063312122515"><ele>131.66666666666666</ele><time>2026-03-28T08:39:36Z</time></trkpt><trkpt lat="45.43284036807437" lon="10.480928416275418"><ele>132.0</ele><time>2026-03-28T08:39:37Z</time></trkpt><trkpt lat="45.432652054304356" lon="10.480825335950504"><ele>132.0</ele><time>2026-03-28T08:39:38Z</time></trkpt><trkpt lat="45.432470095850725" lon="10.48072452924955"><ele>132.0</ele><time>2026-03-28T08:39:39Z</time></trkpt><trkpt lat="45.43229653454477" lon="10.480627371305339"><ele>132.0</ele><time>2026-03-28T08:39:40Z</time></trkpt><trkpt lat="45.43212867586425" lon="10.480541051923389"><ele>132.33333333333334</ele><time>2026-03-28T08:39:41Z</time></trkpt><trkpt lat="45.43195248902314" lon="10.480456186091105"><ele>132.66666666666669</ele><time>2026-03-28T08:39:42Z</time></trkpt><trkpt lat="45.431774873941045" lon="10.480381538659831"><ele>133.0</ele><time>2026-03-28T08:39:43Z</time></trkpt><trkpt lat="45.431592650928316" lon="10.480319944119614"><ele>131.66666666666669</ele><time>2026-03-28T08:39:44Z</time></trkpt><trkpt lat="45.431422945511024" lon="10.480271706449525"><ele>130.33333333333334</ele><time>2026-03-28T08:39:45Z</time></trkpt><trkpt lat="45.43125734837154" lon="10.48022947793054"><ele>129.0</ele><time>2026-03-28T08:39:46Z</time></trkpt><trkpt lat="45.431108067581576" lon="10.480192451656924"><ele>129.0</ele><time>2026-03-28T08:39:47Z</time></trkpt><trkpt lat="45.43096484385169" lon="10.480156927722478"><ele>129.0</ele><time>2026-03-28T08:39:48Z</time></trkpt><trkpt lat="45.430816270213086" lon="10.480120076929097"><ele>129.0</ele><time>2026-03-28T08:39:49Z</time></trkpt><trkpt lat="45.430661373195235" lon="10.480079583621208"><ele>129.0</ele><time>2026-03-28T08:39:50Z</time></trkpt><trkpt lat="45.430501147771686" lon="10.480037416674284"><ele>129.0</ele><time>2026-03-28T08:39:51Z</time></trkpt><trkpt lat="45.430333654462196" lon="10.480020469959001"><ele>129.0</ele><time>2026-03-28T08:39:52Z</time></trkpt><trkpt lat="45.43016560092043" lon="10.479974659746853"><ele>128.66666666666666</ele><time>2026-03-28T08:39:53Z</time></trkpt><trkpt lat="45.42998777003662" lon="10.4799253929085"><ele>128.33333333333331</ele><time>2026-03-28T08:39:54Z</time></trkpt><trkpt lat="45.42981344391872" lon="10.479880652129843"><ele>128.0</ele><time>2026-03-28T08:39:55Z</time></trkpt><trkpt lat="45.42963290901663" lon="10.47983404671458"><ele>128.0</ele><time>2026-03-28T08:39:56Z</time></trkpt><trkpt lat="45.429453133055965" lon="10.479787856212832"><ele>128.0</ele><time>2026-03-28T08:39:57Z</time></trkpt><trkpt lat="45.429281557884146" lon="10.479751596125451"><ele>128.0</ele><time>2026-03-28T08:39:58Z</time></trkpt><trkpt lat="45.429106447218956" lon="10.479734675854806"><ele>128.0</ele><time>2026-03-28T08:39:59Z</time></trkpt><trkpt lat="45.42891541862716" lon="10.479733015269165"><ele>128.0</ele><time>2026-03-28T08:40:00Z</time></trkpt><trkpt lat="45.4287282726208" lon="10.479714938747222"><ele>128.0</ele><time>2026-03-28T08:40:01Z</time></trkpt><trkpt lat="45.42855737356102" lon="10.479716296166673"><ele>127.0</ele><time>2026-03-28T08:40:02Z</time></trkpt><trkpt lat="45.42837201691474" lon="10.479719300371347"><ele>126.0</ele><time>2026-03-28T08:40:03Z</time></trkpt><trkpt lat="45.428191455166825" lon="10.479723156466857"><ele>125.0</ele><time>2026-03-28T08:40:04Z</time></trkpt><trkpt lat="45.42801004241037" lon="10.47974541456302"><ele>125.33333333333333</ele><time>2026-03-28T08:40:05Z</time></trkpt><trkpt lat="45.4278246971859" lon="10.479750839912972"><ele>125.66666666666666</ele><time>2026-03-28T08:40:06Z</time></trkpt><trkpt lat="45.42763845358357" lon="10.47972662198014"><ele>126.0</ele><time>2026-03-28T08:40:07Z</time></trkpt><trkpt lat="45.42744873220683" lon="10.479722214613309"><ele>126.0</ele><time>2026-03-28T08:40:08Z</time></trkpt><trkpt lat="45.427267954158104" lon="10.47970792449584"><ele>126.0</ele><time>2026-03-28T08:40:09Z</time></trkpt><trkpt lat="45.42707531707021" lon="10.479674610821018"><ele>126.0</ele><time>2026-03-28T08:40:10Z</time></trkpt><trkpt lat="45.42688614077496" lon="10.479629227502391"><ele>124.66666666666666</ele><time>2026-03-28T08:40:11Z</time></trkpt><trkpt lat="45.42671626269068" lon="10.479579433314893"><ele>123.33333333333333</ele><time>2026-03-28T08:40:12Z</time></trkpt><trkpt lat="45.42653368070793" lon="10.479521365013222"><ele>122.0</ele><time>2026-03-28T08:40:13Z</time></trkpt><trkpt lat="45.426359336040576" lon="10.479486799619998"><ele>122.66666666666666</ele><time>2026-03-28T08:40:14Z</time></trkpt><trkpt lat="45.42618638705134" lon="10.47940568695204"><ele>123.33333333333334</ele><time>2026-03-28T08:40:15Z</time></trkpt><trkpt lat="45.426007821375535" lon="10.479345966697883"><ele>124.0</ele><time>2026-03-28T08:40:16Z</time></trkpt><trkpt lat="45.42583481378482" lon="10.479287754872088"><ele>124.0</ele><time>2026-03-28T08:40:17Z</time></trkpt><trkpt lat="45.425661970327916" lon="10.47922959820331"><ele>124.0</ele><time>2026-03-28T08:40:18Z</time></trkpt><trkpt lat="45.425482195787474" lon="10.479166542786146"><ele>124.0</ele><time>2026-03-28T08:40:19Z</time></trkpt><trkpt lat="45.42531465030912" lon="10.479106562855584"><ele>124.33333333333334</ele><time>2026-03-28T08:40:20Z</time></trkpt><trkpt lat="45.42514474350154" lon="10.479046417528977"><ele>124.66666666666666</ele><time>2026-03-28T08:40:21Z</time></trkpt><trkpt lat="45.42497459843733" lon="10.47898698490824"><ele>125.0</ele><time>2026-03-28T08:40:22Z</time></trkpt><trkpt lat="45.424796866522406" lon="10.478924629183336"><ele>124.66666666666666</ele><time>2026-03-28T08:40:23Z</time></trkpt><trkpt lat="45.424625560091414" lon="10.478859292366227"><ele>124.33333333333334</ele><time>2026-03-28T08:40:24Z</time></trkpt><trkpt lat="45.42446286435445" lon="10.478825051761374"><ele>124.0</ele><time>2026-03-28T08:40:25Z</time></trkpt><trkpt lat="45.42431192775896" lon="10.47876785675192"><ele>123.75</ele><time>2026-03-28T08:40:26Z</time></trkpt><trkpt lat="45.42416652463056" lon="10.478718103202427"><ele>123.5</ele><time>2026-03-28T08:40:27Z</time></trkpt><trkpt lat="45.42402715796566" lon="10.478662136528532"><ele>123.25</ele><time>2026-03-28T08:40:28Z</time></trkpt><trkpt lat="45.423892923100645" lon="10.478609308457104"><ele>123.0</ele><time>2026-03-28T08:40:29Z</time></trkpt><trkpt lat="45.423765574636136" lon="10.478558019160761"><ele>123.0</ele><time>2026-03-28T08:40:30Z</time></trkpt><trkpt lat="45.42364997211562" lon="10.47847967194874"><ele>123.0</ele><time>2026-03-28T08:40:31Z</time></trkpt><trkpt lat="45.42351518387169" lon="10.478448370314569"><ele>123.0</ele><time>2026-03-28T08:40:32Z</time></trkpt><trkpt lat="45.42337489577367" lon="10.478369017949197"><ele>123.0</ele><time>2026-03-28T08:40:33Z</time></trkpt><trkpt lat="45.42323034273935" lon="10.478296981604101"><ele>123.0</ele><time>2026-03-28T08:40:34Z</time></trkpt><trkpt lat="45.4230826688354" lon="10.478214624273395"><ele>123.0</ele><time>2026-03-28T08:40:35Z</time></trkpt><trkpt lat="45.4229282888928" lon="10.478126429498976"><ele>123.0</ele><time>2026-03-28T08:40:36Z</time></trkpt><trkpt lat="45.42277253999947" lon="10.478036509198187"><ele>123.66666666666666</ele><time>2026-03-28T08:40:37Z</time></trkpt><trkpt lat="45.42259656629462" lon="10.477938092439102"><ele>124.33333333333333</ele><time>2026-03-28T08:40:38Z</time></trkpt><trkpt lat="45.42243944553695" lon="10.47785055266208"><ele>125.0</ele><time>2026-03-28T08:40:39Z</time></trkpt><trkpt lat="45.42228866881636" lon="10.47776624232889"><ele>123.0</ele><time>2026-03-28T08:40:40Z</time></trkpt><trkpt lat="45.42214875272507" lon="10.477687661532507"><ele>121.0</ele><time>2026-03-28T08:40:41Z</time></trkpt><trkpt lat="45.4220038181556" lon="10.477606262379163"><ele>119.0</ele><time>2026-03-28T08:40:42Z</time></trkpt><trkpt lat="45.42185191544467" lon="10.477519093744721"><ele>119.0</ele><time>2026-03-28T08:40:43Z</time></trkpt><trkpt lat="45.421685471839204" lon="10.477448239071201"><ele>119.0</ele><time>2026-03-28T08:40:44Z</time></trkpt><trkpt lat="45.42151411969311" lon="10.477361540298132"><ele>119.0</ele><time>2026-03-28T08:40:45Z</time></trkpt><trkpt lat="45.421338381730635" lon="10.477296592590257"><ele>119.66666666666666</ele><time>2026-03-28T08:40:46Z</time></trkpt><trkpt lat="45.421158777392755" lon="10.477248043048009"><ele>120.33333333333334</ele><time>2026-03-28T08:40:47Z</time></trkpt><trkpt lat="45.42099025385481" lon="10.477206777290268"><ele>121.0</ele><time>2026-03-28T08:40:48Z</time></trkpt><trkpt lat="45.42083655899652" lon="10.477141010393504"><ele>119.75</ele><time>2026-03-28T08:40:49Z</time></trkpt><trkpt lat="45.420685396392294" lon="10.47710073506691"><ele>118.5</ele><time>2026-03-28T08:40:50Z</time></trkpt><trkpt lat="45.4205436442789" lon="10.477064212423267"><ele>117.25</ele><time>2026-03-28T08:40:51Z</time></trkpt><trkpt lat="45.42039869630011" lon="10.477026924805887"><ele>116.0</ele><time>2026-03-28T08:40:52Z</time></trkpt><trkpt lat="45.420252617181816" lon="10.47698802345777"><ele>115.66666666666666</ele><time>2026-03-28T08:40:53Z</time></trkpt><trkpt lat="45.420098330526784" lon="10.476946936445"><ele>115.33333333333334</ele><time>2026-03-28T08:40:54Z</time></trkpt><trkpt lat="45.41993801922514" lon="10.476904244875882"><ele>115.0</ele><time>2026-03-28T08:40:55Z</time></trkpt><trkpt lat="45.41977876440556" lon="10.476883962279965"><ele>115.5</ele><time>2026-03-28T08:40:56Z</time></trkpt><trkpt lat="45.41963762431511" lon="10.476846145286423"><ele>116.0</ele><time>2026-03-28T08:40:57Z</time></trkpt><trkpt lat="45.41950688783821" lon="10.47679426702073"><ele>116.5</ele><time>2026-03-28T08:40:58Z</time></trkpt><trkpt lat="45.419380838197114" lon="10.476784441130288"><ele>117.0</ele><time>2026-03-28T08:40:59Z</time></trkpt><trkpt lat="45.41927153038984" lon="10.476741538165946"><ele>117.0</ele><time>2026-03-28T08:41:00Z</time></trkpt><trkpt lat="45.419170174148455" lon="10.476725963758218"><ele>117.0</ele><time>2026-03-28T08:41:01Z</time></trkpt><trkpt lat="45.419083469896854" lon="10.476704989420295"><ele>117.0</ele><time>2026-03-28T08:41:02Z</time></trkpt><trkpt lat="45.41900979125963" lon="10.4766839268976"><ele>117.0</ele><time>2026-03-28T08:41:03Z</time></trkpt><trkpt lat="45.41894292590989" lon="10.476666081656102"><ele>117.0</ele><time>2026-03-28T08:41:04Z</time></trkpt><trkpt lat="45.41883313091675" lon="10.476624159532825"><ele>117.0</ele><time>2026-03-28T08:41:06Z</time></trkpt><trkpt lat="45.418718035691946" lon="10.476636074595083"><ele>116.66666666666667</ele><time>2026-03-28T08:41:08Z</time></trkpt><trkpt lat="45.418647635664925" lon="10.476725115090712"><ele>116.33333333333334</ele><time>2026-03-28T08:41:10Z</time></trkpt><trkpt lat="45.41864218628699" lon="10.476820653219056"><ele>116.0</ele><time>2026-03-28T08:41:11Z</time></trkpt><trkpt lat="45.41865730765389" lon="10.476946452720892"><ele>115.66666666666667</ele><time>2026-03-28T08:41:12Z</time></trkpt><trkpt lat="45.418639705241624" lon="10.47707351926217"><ele>115.33333333333334</ele><time>2026-03-28T08:41:13Z</time></trkpt><trkpt lat="45.41856910685851" lon="10.477187679121355"><ele>115.0</ele><time>2026-03-28T08:41:14Z</time></trkpt><trkpt lat="45.41850363185209" lon="10.477348507730895"><ele>116.25</ele><time>2026-03-28T08:41:15Z</time></trkpt><trkpt lat="45.41841419249928" lon="10.477501833859078"><ele>117.5</ele><time>2026-03-28T08:41:16Z</time></trkpt><trkpt lat="45.41831719433318" lon="10.477642083246998"><ele>118.75</ele><time>2026-03-28T08:41:17Z</time></trkpt><trkpt lat="45.418220230795846" lon="10.477777690063736"><ele>120.0</ele><time>2026-03-28T08:41:18Z</time></trkpt><trkpt lat="45.41812582913264" lon="10.477921978268126"><ele>119.33333333333334</ele><time>2026-03-28T08:41:19Z</time></trkpt><trkpt lat="45.418054731928116" lon="10.478106970127511"><ele>118.66666666666667</ele><time>2026-03-28T08:41:20Z</time></trkpt><trkpt lat="45.41800624596484" lon="10.478334439665593"><ele>118.0</ele><time>2026-03-28T08:41:21Z</time></trkpt><trkpt lat="45.41795538910202" lon="10.478561621245996"><ele>119.25</ele><time>2026-03-28T08:41:22Z</time></trkpt><trkpt lat="45.41790312642771" lon="10.478771149910303"><ele>120.5</ele><time>2026-03-28T08:41:23Z</time></trkpt><trkpt lat="45.4178601553497" lon="10.478968638254392"><ele>121.75</ele><time>2026-03-28T08:41:24Z</time></trkpt><trkpt lat="45.417829217227585" lon="10.479141001472314"><ele>123.0</ele><time>2026-03-28T08:41:25Z</time></trkpt><trkpt lat="45.417817033090394" lon="10.479310125287416"><ele>123.0</ele><time>2026-03-28T08:41:26Z</time></trkpt><trkpt lat="45.41784675452726" lon="10.47947864949919"><ele>123.0</ele><time>2026-03-28T08:41:27Z</time></trkpt><trkpt lat="45.417906261203655" lon="10.479650581430336"><ele>123.0</ele><time>2026-03-28T08:41:28Z</time></trkpt><trkpt lat="45.4179819966121" lon="10.479835279812988"><ele>123.0</ele><time>2026-03-28T08:41:29Z</time></trkpt><trkpt lat="45.41805782614712" lon="10.480018392299161"><ele>124.0</ele><time>2026-03-28T08:41:30Z</time></trkpt><trkpt lat="45.41811448115688" lon="10.480205485453174"><ele>125.0</ele><time>2026-03-28T08:41:31Z</time></trkpt><trkpt lat="45.41815382655504" lon="10.48037668421481"><ele>126.0</ele><time>2026-03-28T08:41:32Z</time></trkpt><trkpt lat="45.41819776227051" lon="10.480516462657652"><ele>127.0</ele><time>2026-03-28T08:41:33Z</time></trkpt><trkpt lat="45.418237047197394" lon="10.480634938355964"><ele>127.0</ele><time>2026-03-28T08:41:34Z</time></trkpt><trkpt lat="45.41830219684765" lon="10.48075510293694"><ele>126.99999999999999</ele><time>2026-03-28T08:41:35Z</time></trkpt><trkpt lat="45.41839503946943" lon="10.480867894088643"><ele>126.99999999999999</ele><time>2026-03-28T08:41:36Z</time></trkpt><trkpt lat="45.41849122063065" lon="10.480954346555073"><ele>127.0</ele><time>2026-03-28T08:41:37Z</time></trkpt><trkpt lat="45.41857039764302" lon="10.481024564008273"><ele>127.0</ele><time>2026-03-28T08:41:38Z</time></trkpt><trkpt lat="45.41863353088252" lon="10.481091372808311"><ele>127.00000000000001</ele><time>2026-03-28T08:41:39Z</time></trkpt><trkpt lat="45.418679479682794" lon="10.481159724180632"><ele>127.0</ele><time>2026-03-28T08:41:40Z</time></trkpt><trkpt lat="45.41871614170743" lon="10.481240605632818"><ele>127.0</ele><time>2026-03-28T08:41:41Z</time></trkpt><trkpt lat="45.41870986416914" lon="10.481402338449627"><ele>127.0</ele><time>2026-03-28T08:41:43Z</time></trkpt><trkpt lat="45.418686105705554" lon="10.481490762678161"><ele>127.00000000000001</ele><time>2026-03-28T08:41:44Z</time></trkpt><trkpt lat="45.41866329050904" lon="10.481589076293107"><ele>127.0</ele><time>2026-03-28T08:41:45Z</time></trkpt><trkpt lat="45.41865704820225" lon="10.48167838832198"><ele>127.0</ele><time>2026-03-28T08:41:46Z</time></trkpt><trkpt lat="45.418622821824734" lon="10.481776425204293"><ele>126.99999999999999</ele><time>2026-03-28T08:41:48Z</time></trkpt><trkpt lat="45.41865831183131" lon="10.48190906275709"><ele>126.99999999999999</ele><time>2026-03-28T08:41:51Z</time></trkpt><trkpt lat="45.418723867329085" lon="10.481995138511973"><ele>127.0</ele><time>2026-03-28T08:41:52Z</time></trkpt><trkpt lat="45.41877980473463" lon="10.482106314806815"><ele>127.0</ele><time>2026-03-28T08:41:53Z</time></trkpt><trkpt lat="45.418771082787586" lon="10.48224837028196"><ele>127.0</ele><time>2026-03-28T08:41:54Z</time></trkpt><trkpt lat="45.418775213695504" lon="10.482425329823647"><ele>127.0</ele><time>2026-03-28T08:41:55Z</time></trkpt><trkpt lat="45.418779765218765" lon="10.482610837498775"><ele>127.0</ele><time>2026-03-28T08:41:56Z</time></trkpt><trkpt lat="45.41879284459699" lon="10.482762395833646"><ele>127.0</ele><time>2026-03-28T08:41:57Z</time></trkpt><trkpt lat="45.41879989653233" lon="10.482905422104569"><ele>127.5</ele><time>2026-03-28T08:41:58Z</time></trkpt><trkpt lat="45.41878865276103" lon="10.483038272170198"><ele>128.0</ele><time>2026-03-28T08:41:59Z</time></trkpt><trkpt lat="45.4187898460274" lon="10.483157145347134"><ele>128.5</ele><time>2026-03-28T08:42:00Z</time></trkpt><trkpt lat="45.41898860347159" lon="10.483243234963853"><ele>129.0</ele><time>2026-03-28T08:42:01Z</time></trkpt><trkpt lat="45.41911300937278" lon="10.483335669216087"><ele>128.8</ele><time>2026-03-28T08:42:02Z</time></trkpt><trkpt lat="45.4192159754768" lon="10.483426030344377"><ele>128.60000000000002</ele><time>2026-03-28T08:42:03Z</time></trkpt><trkpt lat="45.4192896406539" lon="10.483532716789194"><ele>128.4</ele><time>2026-03-28T08:42:04Z</time></trkpt><trkpt lat="45.419341622629055" lon="10.483641321338153"><ele>128.20000000000002</ele><time>2026-03-28T08:42:05Z</time></trkpt><trkpt lat="45.41937552573287" lon="10.48373516856891"><ele>128.0</ele><time>2026-03-28T08:42:06Z</time></trkpt><trkpt lat="45.419372244033184" lon="10.483878371675543"><ele>128.0</ele><time>2026-03-28T08:42:08Z</time></trkpt><trkpt lat="45.41934802091019" lon="10.483989590876142"><ele>128.0</ele><time>2026-03-28T08:42:09Z</time></trkpt><trkpt lat="45.41932650303201" lon="10.484135379900698"><ele>128.0</ele><time>2026-03-28T08:42:10Z</time></trkpt><trkpt lat="45.41931454678474" lon="10.484295382795333"><ele>128.0</ele><time>2026-03-28T08:42:11Z</time></trkpt><trkpt lat="45.4193108352052" lon="10.484440622399402"><ele>128.0</ele><time>2026-03-28T08:42:12Z</time></trkpt><trkpt lat="45.41932097970348" lon="10.484554845297078"><ele>129.20000000000002</ele><time>2026-03-28T08:42:13Z</time></trkpt><trkpt lat="45.41935840605489" lon="10.484649887663968"><ele>130.4</ele><time>2026-03-28T08:42:14Z</time></trkpt><trkpt lat="45.41940777368379" lon="10.484734031452955"><ele>131.60000000000002</ele><time>2026-03-28T08:42:15Z</time></trkpt><trkpt lat="45.419470857005805" lon="10.484817172792905"><ele>132.8</ele><time>2026-03-28T08:42:16Z</time></trkpt><trkpt lat="45.41954995120934" lon="10.484911299635671"><ele>134.0</ele><time>2026-03-28T08:42:17Z</time></trkpt><trkpt lat="45.41964331674017" lon="10.48501762669547"><ele>132.5</ele><time>2026-03-28T08:42:18Z</time></trkpt><trkpt lat="45.41975894319963" lon="10.485128154123288"><ele>131.0</ele><time>2026-03-28T08:42:19Z</time></trkpt><trkpt lat="45.419885107727985" lon="10.485241825138116"><ele>129.5</ele><time>2026-03-28T08:42:20Z</time></trkpt><trkpt lat="45.42000991888521" lon="10.485336315928999"><ele>128.0</ele><time>2026-03-28T08:42:21Z</time></trkpt><trkpt lat="45.42014913639677" lon="10.485420425272066"><ele>130.75</ele><time>2026-03-28T08:42:22Z</time></trkpt><trkpt lat="45.420291499123095" lon="10.48548044990775"><ele>133.5</ele><time>2026-03-28T08:42:23Z</time></trkpt><trkpt lat="45.42041224533009" lon="10.485515970860607"><ele>136.25</ele><time>2026-03-28T08:42:24Z</time></trkpt><trkpt lat="45.42052306924103" lon="10.485532059488513"><ele>139.0</ele><time>2026-03-28T08:42:25Z</time></trkpt><trkpt lat="45.42061906790275" lon="10.485537443881745"><ele>139.0</ele><time>2026-03-28T08:42:26Z</time></trkpt><trkpt lat="45.42071118002356" lon="10.485536040292013"><ele>139.0</ele><time>2026-03-28T08:42:27Z</time></trkpt><trkpt lat="45.420790263581935" lon="10.485539572752574"><ele>139.0</ele><time>2026-03-28T08:42:28Z</time></trkpt><trkpt lat="45.42088071350681" lon="10.485522554175272"><ele>139.0</ele><time>2026-03-28T08:42:29Z</time></trkpt><trkpt lat="45.4209864491131" lon="10.485521535635808"><ele>139.0</ele><time>2026-03-28T08:42:30Z</time></trkpt><trkpt lat="45.421098741745254" lon="10.48550221752436"><ele>139.0</ele><time>2026-03-28T08:42:31Z</time></trkpt><trkpt lat="45.421223862199014" lon="10.485512764069904"><ele>139.0</ele><time>2026-03-28T08:42:32Z</time></trkpt><trkpt lat="45.42134892187128" lon="10.485535326599429"><ele>139.0</ele><time>2026-03-28T08:42:33Z</time></trkpt><trkpt lat="45.42148511154398" lon="10.485593474150454"><ele>139.0</ele><time>2026-03-28T08:42:34Z</time></trkpt><trkpt lat="45.421619496532834" lon="10.485632745466084"><ele>139.2</ele><time>2026-03-28T08:42:35Z</time></trkpt><trkpt lat="45.42174447410463" lon="10.485672796829181"><ele>139.4</ele><time>2026-03-28T08:42:36Z</time></trkpt><trkpt lat="45.42186000056968" lon="10.48571278034887"><ele>139.6</ele><time>2026-03-28T08:42:37Z</time></trkpt><trkpt lat="45.42196412673621" lon="10.48575824533649"><ele>139.8</ele><time>2026-03-28T08:42:38Z</time></trkpt><trkpt lat="45.42205016961738" lon="10.485807232498487"><ele>140.0</ele><time>2026-03-28T08:42:39Z</time></trkpt><trkpt lat="45.42212342633468" lon="10.485878521297675"><ele>140.4</ele><time>2026-03-28T08:42:40Z</time></trkpt><trkpt lat="45.42220756917976" lon="10.485979098498554"><ele>140.8</ele><time>2026-03-28T08:42:41Z</time></trkpt><trkpt lat="45.42228312657015" lon="10.486078652567837"><ele>141.2</ele><time>2026-03-28T08:42:42Z</time></trkpt><trkpt lat="45.42233803313731" lon="10.486189926943847"><ele>141.6</ele><time>2026-03-28T08:42:43Z</time></trkpt><trkpt lat="45.42236780846588" lon="10.486317890910106"><ele>142.0</ele><time>2026-03-28T08:42:44Z</time></trkpt><trkpt lat="45.42239071632974" lon="10.48645061714765"><ele>142.5</ele><time>2026-03-28T08:42:45Z</time></trkpt><trkpt lat="45.422390679805275" lon="10.486595128896187"><ele>143.0</ele><time>2026-03-28T08:42:46Z</time></trkpt><trkpt lat="45.42239373584122" lon="10.48675977465353"><ele>143.5</ele><time>2026-03-28T08:42:47Z</time></trkpt><trkpt lat="45.422391828482816" lon="10.486932252229142"><ele>144.0</ele><time>2026-03-28T08:42:48Z</time></trkpt><trkpt lat="45.42238232019728" lon="10.487125346714718"><ele>144.75</ele><time>2026-03-28T08:42:49Z</time></trkpt><trkpt lat="45.42237861644124" lon="10.487301898936787"><ele>145.5</ele><time>2026-03-28T08:42:50Z</time></trkpt><trkpt lat="45.42236554698859" lon="10.48746925246488"><ele>146.25</ele><time>2026-03-28T08:42:51Z</time></trkpt><trkpt lat="45.422381141493915" lon="10.487632679591258"><ele>147.0</ele><time>2026-03-28T08:42:52Z</time></trkpt><trkpt lat="45.42241382644999" lon="10.487800530442373"><ele>147.6</ele><time>2026-03-28T08:42:53Z</time></trkpt><trkpt lat="45.42245616866268" lon="10.487959136865555"><ele>148.2</ele><time>2026-03-28T08:42:54Z</time></trkpt><trkpt lat="45.422497226837315" lon="10.48808660050901"><ele>148.8</ele><time>2026-03-28T08:42:55Z</time></trkpt><trkpt lat="45.42256390304654" lon="10.488203624972305"><ele>149.4</ele><time>2026-03-28T08:42:56Z</time></trkpt><trkpt lat="45.422636400603565" lon="10.4883087456254"><ele>150.0</ele><time>2026-03-28T08:42:57Z</time></trkpt><trkpt lat="45.42273385235975" lon="10.48840948237739"><ele>150.0</ele><time>2026-03-28T08:42:58Z</time></trkpt><trkpt lat="45.4228456390083" lon="10.488495594938696"><ele>150.0</ele><time>2026-03-28T08:42:59Z</time></trkpt><trkpt lat="45.42295680626731" lon="10.488601356599341"><ele>150.0</ele><time>2026-03-28T08:43:00Z</time></trkpt><trkpt lat="45.42307613316316" lon="10.488699981655515"><ele>150.0</ele><time>2026-03-28T08:43:01Z</time></trkpt><trkpt lat="45.42320657288088" lon="10.488811671453202"><ele>151.0</ele><time>2026-03-28T08:43:02Z</time></trkpt><trkpt lat="45.42334660887913" lon="10.488921065292788"><ele>152.0</ele><time>2026-03-28T08:43:03Z</time></trkpt><trkpt lat="45.423485972379844" lon="10.48902576664246"><ele>153.0</ele><time>2026-03-28T08:43:04Z</time></trkpt><trkpt lat="45.42360662977175" lon="10.489128164584702"><ele>153.0</ele><time>2026-03-28T08:43:05Z</time></trkpt><trkpt lat="45.42370689255821" lon="10.489224133864026"><ele>153.0</ele><time>2026-03-28T08:43:06Z</time></trkpt><trkpt lat="45.423809701726746" lon="10.489343778162471"><ele>153.0</ele><time>2026-03-28T08:43:07Z</time></trkpt><trkpt lat="45.42390505363337" lon="10.489470722714646"><ele>153.0</ele><time>2026-03-28T08:43:08Z</time></trkpt><trkpt lat="45.424001914202016" lon="10.489610966716219"><ele>152.75</ele><time>2026-03-28T08:43:09Z</time></trkpt><trkpt lat="45.42410472141552" lon="10.489752878686444"><ele>152.5</ele><time>2026-03-28T08:43:10Z</time></trkpt><trkpt lat="45.42420765161012" lon="10.48989143387339"><ele>152.25</ele><time>2026-03-28T08:43:11Z</time></trkpt><trkpt lat="45.42430979087708" lon="10.49004513869809"><ele>152.0</ele><time>2026-03-28T08:43:12Z</time></trkpt><trkpt lat="45.42441997766545" lon="10.490191768958145"><ele>152.0</ele><time>2026-03-28T08:43:13Z</time></trkpt><trkpt lat="45.42454057512258" lon="10.490335883046228"><ele>152.0</ele><time>2026-03-28T08:43:14Z</time></trkpt><trkpt lat="45.42465121746007" lon="10.4904734604352"><ele>152.0</ele><time>2026-03-28T08:43:15Z</time></trkpt><trkpt lat="45.424759917994244" lon="10.490599249950172"><ele>152.0</ele><time>2026-03-28T08:43:16Z</time></trkpt><trkpt lat="45.42484628024259" lon="10.490704194386364"><ele>152.2</ele><time>2026-03-28T08:43:17Z</time></trkpt><trkpt lat="45.42492405035608" lon="10.490804593663478"><ele>152.39999999999998</ele><time>2026-03-28T08:43:18Z</time></trkpt><trkpt lat="45.42496684548299" lon="10.490922098734396"><ele>152.60000000000002</ele><time>2026-03-28T08:43:19Z</time></trkpt><trkpt lat="45.42501335010115" lon="10.491020472553062"><ele>152.8</ele><time>2026-03-28T08:43:20Z</time></trkpt><trkpt lat="45.425020945382855" lon="10.491160303789552"><ele>153.0</ele><time>2026-03-28T08:43:21Z</time></trkpt><trkpt lat="45.42502516832863" lon="10.491276777857331"><ele>153.0</ele><time>2026-03-28T08:43:22Z</time></trkpt><trkpt lat="45.42502232216204" lon="10.491394245984763"><ele>153.0</ele><time>2026-03-28T08:43:23Z</time></trkpt><trkpt lat="45.42502480141962" lon="10.491560364251363"><ele>153.0</ele><time>2026-03-28T08:43:24Z</time></trkpt><trkpt lat="45.42500454177546" lon="10.491717150595909"><ele>153.0</ele><time>2026-03-28T08:43:25Z</time></trkpt><trkpt lat="45.42500125067283" lon="10.491884876532517"><ele>153.0</ele><time>2026-03-28T08:43:26Z</time></trkpt><trkpt lat="45.42501161217923" lon="10.492047526598844"><ele>152.16666666666666</ele><time>2026-03-28T08:43:27Z</time></trkpt><trkpt lat="45.42502002417884" lon="10.492209680925678"><ele>151.33333333333334</ele><time>2026-03-28T08:43:28Z</time></trkpt><trkpt lat="45.42502354433428" lon="10.492340720787055"><ele>150.5</ele><time>2026-03-28T08:43:29Z</time></trkpt><trkpt lat="45.425026323853686" lon="10.492462311505042"><ele>149.66666666666669</ele><time>2026-03-28T08:43:30Z</time></trkpt><trkpt lat="45.4250355441163" lon="10.492576308731318"><ele>148.83333333333334</ele><time>2026-03-28T08:43:31Z</time></trkpt><trkpt lat="45.42506387502009" lon="10.492677983445262"><ele>148.0</ele><time>2026-03-28T08:43:32Z</time></trkpt><trkpt lat="45.42511100778045" lon="10.492775817578494"><ele>148.0</ele><time>2026-03-28T08:43:33Z</time></trkpt><trkpt lat="45.42516913690971" lon="10.492850879064916"><ele>148.0</ele><time>2026-03-28T08:43:34Z</time></trkpt><trkpt lat="45.42523181141793" lon="10.492904780183723"><ele>148.0</ele><time>2026-03-28T08:43:35Z</time></trkpt><trkpt lat="45.425294698312385" lon="10.492950846565952"><ele>148.0</ele><time>2026-03-28T08:43:36Z</time></trkpt><trkpt lat="45.42536871173602" lon="10.492991295396997"><ele>148.0</ele><time>2026-03-28T08:43:37Z</time></trkpt><trkpt lat="45.425459224558715" lon="10.493043594401563"><ele>148.0</ele><time>2026-03-28T08:43:38Z</time></trkpt><trkpt lat="45.42556675642547" lon="10.49311013662315"><ele>147.25</ele><time>2026-03-28T08:43:39Z</time></trkpt><trkpt lat="45.42569000070155" lon="10.493189142182379"><ele>146.5</ele><time>2026-03-28T08:43:40Z</time></trkpt><trkpt lat="45.425826642177086" lon="10.493278382040401"><ele>145.75</ele><time>2026-03-28T08:43:41Z</time></trkpt><trkpt lat="45.42595213871268" lon="10.493359748710715"><ele>145.0</ele><time>2026-03-28T08:43:42Z</time></trkpt><trkpt lat="45.42608899138491" lon="10.49343605447665"><ele>145.0</ele><time>2026-03-28T08:43:43Z</time></trkpt><trkpt lat="45.426230547343664" lon="10.493513077423362"><ele>145.0</ele><time>2026-03-28T08:43:44Z</time></trkpt><trkpt lat="45.42637337471842" lon="10.493596172093467"><ele>145.0</ele><time>2026-03-28T08:43:45Z</time></trkpt><trkpt lat="45.426510561638295" lon="10.493701486225236"><ele>144.25</ele><time>2026-03-28T08:43:46Z</time></trkpt><trkpt lat="45.426620950751584" lon="10.493799389527656"><ele>143.5</ele><time>2026-03-28T08:43:47Z</time></trkpt><trkpt lat="45.42672944871009" lon="10.493907512308727"><ele>142.75</ele><time>2026-03-28T08:43:48Z</time></trkpt><trkpt lat="45.426832289109" lon="10.493995715695343"><ele>142.0</ele><time>2026-03-28T08:43:49Z</time></trkpt><trkpt lat="45.42692138399054" lon="10.494066202915342"><ele>142.0</ele><time>2026-03-28T08:43:50Z</time></trkpt><trkpt lat="45.42699906765261" lon="10.494120754801866"><ele>142.0</ele><time>2026-03-28T08:43:51Z</time></trkpt><trkpt lat="45.42706751230502" lon="10.494157954942974"><ele>142.0</ele><time>2026-03-28T08:43:52Z</time></trkpt><trkpt lat="45.42713343421249" lon="10.494160836585227"><ele>142.0</ele><time>2026-03-28T08:43:53Z</time></trkpt><trkpt lat="45.427221429746425" lon="10.494157131937271"><ele>142.0</ele><time>2026-03-28T08:43:54Z</time></trkpt><trkpt lat="45.4273163134653" lon="10.494137137214773"><ele>142.0</ele><time>2026-03-28T08:43:55Z</time></trkpt><trkpt lat="45.42742144712551" lon="10.494118119644828"><ele>142.6</ele><time>2026-03-28T08:43:56Z</time></trkpt><trkpt lat="45.42753196582915" lon="10.49410157231728"><ele>143.2</ele><time>2026-03-28T08:43:57Z</time></trkpt><trkpt lat="45.427641984211824" lon="10.494098184466717"><ele>143.8</ele><time>2026-03-28T08:43:58Z</time></trkpt><trkpt lat="45.427749109918196" lon="10.494091194038752"><ele>144.4</ele><time>2026-03-28T08:43:59Z</time></trkpt><trkpt lat="45.427855373429914" lon="10.494082597655764"><ele>145.0</ele><time>2026-03-28T08:44:00Z</time></trkpt><trkpt lat="45.42797118446114" lon="10.49407609990466"><ele>145.6</ele><time>2026-03-28T08:44:01Z</time></trkpt><trkpt lat="45.428085562436955" lon="10.494066335519918"><ele>146.2</ele><time>2026-03-28T08:44:02Z</time></trkpt><trkpt lat="45.42819821213695" lon="10.494058203604277"><ele>146.8</ele><time>2026-03-28T08:44:03Z</time></trkpt><trkpt lat="45.42829829853606" lon="10.494078015311471"><ele>147.4</ele><time>2026-03-28T08:44:04Z</time></trkpt><trkpt lat="45.42840384058902" lon="10.494130869080143"><ele>148.0</ele><time>2026-03-28T08:44:05Z</time></trkpt><trkpt lat="45.42850652780705" lon="10.494196308089707"><ele>148.0</ele><time>2026-03-28T08:44:06Z</time></trkpt><trkpt lat="45.42861929654695" lon="10.494270232836737"><ele>148.0</ele><time>2026-03-28T08:44:07Z</time></trkpt><trkpt lat="45.428745297799466" lon="10.494345254613723"><ele>148.0</ele><time>2026-03-28T08:44:08Z</time></trkpt><trkpt lat="45.428892187472755" lon="10.494431699566725"><ele>148.0</ele><time>2026-03-28T08:44:09Z</time></trkpt><trkpt lat="45.4290534087789" lon="10.494517138408648"><ele>147.0</ele><time>2026-03-28T08:44:10Z</time></trkpt><trkpt lat="45.42920731753635" lon="10.494597027023614"><ele>146.0</ele><time>2026-03-28T08:44:11Z</time></trkpt><trkpt lat="45.42933625009422" lon="10.494675177099474"><ele>145.0</ele><time>2026-03-28T08:44:12Z</time></trkpt><trkpt lat="45.429463857594335" lon="10.494768081960665"><ele>144.0</ele><time>2026-03-28T08:44:13Z</time></trkpt><trkpt lat="45.42959150363723" lon="10.494874244615865"><ele>148.0</ele><time>2026-03-28T08:44:14Z</time></trkpt><trkpt lat="45.42972514077" lon="10.495006374204172"><ele>152.0</ele><time>2026-03-28T08:44:15Z</time></trkpt><trkpt lat="45.4298422146028" lon="10.49514309360626"><ele>156.0</ele><time>2026-03-28T08:44:16Z</time></trkpt><trkpt lat="45.4299521440785" lon="10.495278351784144"><ele>156.0</ele><time>2026-03-28T08:44:17Z</time></trkpt><trkpt lat="45.430047236074344" lon="10.495400248186817"><ele>156.0</ele><time>2026-03-28T08:44:18Z</time></trkpt><trkpt lat="45.43013200534669" lon="10.4955122694663"><ele>156.0</ele><time>2026-03-28T08:44:19Z</time></trkpt><trkpt lat="45.43019867215417" lon="10.49563691031428"><ele>156.0</ele><time>2026-03-28T08:44:20Z</time></trkpt><trkpt lat="45.43025517907045" lon="10.495788976169923"><ele>156.5</ele><time>2026-03-28T08:44:21Z</time></trkpt><trkpt lat="45.43030199905576" lon="10.495942673625565"><ele>157.0</ele><time>2026-03-28T08:44:22Z</time></trkpt><trkpt lat="45.430375803344475" lon="10.496076074365943"><ele>157.5</ele><time>2026-03-28T08:44:23Z</time></trkpt><trkpt lat="45.430423831882685" lon="10.496216520928837"><ele>158.0</ele><time>2026-03-28T08:44:24Z</time></trkpt><trkpt lat="45.43049645897547" lon="10.496337223635892"><ele>158.0</ele><time>2026-03-28T08:44:25Z</time></trkpt><trkpt lat="45.43057622620804" lon="10.496460826595738"><ele>158.0</ele><time>2026-03-28T08:44:26Z</time></trkpt><trkpt lat="45.43066180837855" lon="10.496573518100274"><ele>158.0</ele><time>2026-03-28T08:44:27Z</time></trkpt><trkpt lat="45.430759199192124" lon="10.49667540488028"><ele>158.0</ele><time>2026-03-28T08:44:28Z</time></trkpt><trkpt lat="45.43086052224326" lon="10.49676854182044"><ele>158.0</ele><time>2026-03-28T08:44:29Z</time></trkpt><trkpt lat="45.43097043367936" lon="10.496863483221233"><ele>158.0</ele><time>2026-03-28T08:44:30Z</time></trkpt><trkpt lat="45.43108344145045" lon="10.496954471364594"><ele>158.0</ele><time>2026-03-28T08:44:31Z</time></trkpt><trkpt lat="45.43118750730844" lon="10.497050329440583"><ele>158.0</ele><time>2026-03-28T08:44:32Z</time></trkpt><trkpt lat="45.43127587092633" lon="10.497139996265414"><ele>157.5</ele><time>2026-03-28T08:44:33Z</time></trkpt><trkpt lat="45.43134755585193" lon="10.497232306791194"><ele>157.0</ele><time>2026-03-28T08:44:34Z</time></trkpt><trkpt lat="45.43139340401159" lon="10.497372372198518"><ele>156.5</ele><time>2026-03-28T08:44:35Z</time></trkpt><trkpt lat="45.43146838712668" lon="10.497519238281193"><ele>156.0</ele><time>2026-03-28T08:44:36Z</time></trkpt><trkpt lat="45.431529878682646" lon="10.49769925750778"><ele>156.0</ele><time>2026-03-28T08:44:37Z</time></trkpt><trkpt lat="45.43159727130755" lon="10.497893748156113"><ele>156.0</ele><time>2026-03-28T08:44:38Z</time></trkpt><trkpt lat="45.43165998485387" lon="10.498086951301381"><ele>156.0</ele><time>2026-03-28T08:44:39Z</time></trkpt><trkpt lat="45.43170876500517" lon="10.49826713254866"><ele>156.0</ele><time>2026-03-28T08:44:40Z</time></trkpt><trkpt lat="45.43174662393279" lon="10.49845330854122"><ele>154.5</ele><time>2026-03-28T08:44:41Z</time></trkpt><trkpt lat="45.43176317087472" lon="10.498628857090871"><ele>153.0</ele><time>2026-03-28T08:44:42Z</time></trkpt><trkpt lat="45.431735863444075" lon="10.498805539423806"><ele>151.5</ele><time>2026-03-28T08:44:43Z</time></trkpt><trkpt lat="45.431715634238365" lon="10.49899446780232"><ele>150.0</ele><time>2026-03-28T08:44:44Z</time></trkpt><trkpt lat="45.43168532870714" lon="10.499204832914574"><ele>150.0</ele><time>2026-03-28T08:44:45Z</time></trkpt><trkpt lat="45.431654069963926" lon="10.499422266494069"><ele>150.0</ele><time>2026-03-28T08:44:46Z</time></trkpt><trkpt lat="45.43162076165911" lon="10.49963823162906"><ele>150.0</ele><time>2026-03-28T08:44:47Z</time></trkpt><trkpt lat="45.43157990131981" lon="10.499860288469947"><ele>150.0</ele><time>2026-03-28T08:44:48Z</time></trkpt><trkpt lat="45.43156776626765" lon="10.500100506103179"><ele>150.0</ele><time>2026-03-28T08:44:49Z</time></trkpt><trkpt lat="45.43152781719075" lon="10.500320172588571"><ele>150.0</ele><time>2026-03-28T08:44:50Z</time></trkpt><trkpt lat="45.431488945640744" lon="10.500551058309442"><ele>149.33333333333334</ele><time>2026-03-28T08:44:51Z</time></trkpt><trkpt lat="45.43144339540569" lon="10.500797448522476"><ele>148.66666666666669</ele><time>2026-03-28T08:44:52Z</time></trkpt><trkpt lat="45.43137024277042" lon="10.501044220885182"><ele>148.0</ele><time>2026-03-28T08:44:53Z</time></trkpt><trkpt lat="45.43133298267015" lon="10.501266048418163"><ele>147.8</ele><time>2026-03-28T08:44:54Z</time></trkpt><trkpt lat="45.431300606089785" lon="10.501457862439898"><ele>147.60000000000002</ele><time>2026-03-28T08:44:55Z</time></trkpt><trkpt lat="45.431268767026715" lon="10.50163683858347"><ele>147.39999999999998</ele><time>2026-03-28T08:44:56Z</time></trkpt><trkpt lat="45.43124793462408" lon="10.501746141511484"><ele>147.2</ele><time>2026-03-28T08:44:57Z</time></trkpt><trkpt lat="45.431226408863786" lon="10.50184765765409"><ele>147.0</ele><time>2026-03-28T08:44:58Z</time></trkpt><trkpt lat="45.431193124539085" lon="10.501998999622424"><ele>147.0</ele><time>2026-03-28T08:45:00Z</time></trkpt><trkpt lat="45.4310787182478" lon="10.501966960821166"><ele>147.0</ele><time>2026-03-28T08:45:04Z</time></trkpt><trkpt lat="45.43102792019984" lon="10.50190545519338"><ele>147.0</ele><time>2026-03-28T08:45:05Z</time></trkpt><trkpt lat="45.430953738716106" lon="10.50181935853331"><ele>147.0</ele><time>2026-03-28T08:45:06Z</time></trkpt><trkpt lat="45.430859474847054" lon="10.501715132966744"><ele>147.0</ele><time>2026-03-28T08:45:07Z</time></trkpt><trkpt lat="45.43074560495552" lon="10.501599642534577"><ele>147.0</ele><time>2026-03-28T08:45:08Z</time></trkpt><trkpt lat="45.430623661935954" lon="10.501482977943509"><ele>147.0</ele><time>2026-03-28T08:45:09Z</time></trkpt><trkpt lat="45.430492852392554" lon="10.501351326818632"><ele>147.0</ele><time>2026-03-28T08:45:10Z</time></trkpt><trkpt lat="45.43037797228218" lon="10.501233519045918"><ele>147.0</ele><time>2026-03-28T08:45:11Z</time></trkpt><trkpt lat="45.430271680757784" lon="10.501127140104964"><ele>146.6</ele><time>2026-03-28T08:45:12Z</time></trkpt><trkpt lat="45.43017906758928" lon="10.501038704291702"><ele>146.2</ele><time>2026-03-28T08:45:13Z</time></trkpt><trkpt lat="45.43008869254549" lon="10.500976523612845"><ele>145.8</ele><time>2026-03-28T08:45:14Z</time></trkpt><trkpt lat="45.4300233698251" lon="10.500885322908823"><ele>145.4</ele><time>2026-03-28T08:45:15Z</time></trkpt><trkpt lat="45.42996707990251" lon="10.5008293047658"><ele>145.0</ele><time>2026-03-28T08:45:16Z</time></trkpt><trkpt lat="45.42987495964335" lon="10.500738637979227"><ele>145.0</ele><time>2026-03-28T08:45:18Z</time></trkpt><trkpt lat="45.42981419970805" lon="10.500679805343502"><ele>145.0</ele><time>2026-03-28T08:45:20Z</time></trkpt><trkpt lat="45.42966698472673" lon="10.500866796206246"><ele>145.0</ele><time>2026-03-28T08:45:22Z</time></trkpt><trkpt lat="45.429624845832414" lon="10.500957879074326"><ele>145.0</ele><time>2026-03-28T08:45:23Z</time></trkpt><trkpt lat="45.429572631933006" lon="10.501064167293784"><ele>145.0</ele><time>2026-03-28T08:45:24Z</time></trkpt><trkpt lat="45.42950595081543" lon="10.501184653593029"><ele>146.0</ele><time>2026-03-28T08:45:25Z</time></trkpt><trkpt lat="45.429440106242126" lon="10.501285781013417"><ele>147.0</ele><time>2026-03-28T08:45:26Z</time></trkpt><trkpt lat="45.429382448367825" lon="10.501372901634277"><ele>148.0</ele><time>2026-03-28T08:45:27Z</time></trkpt><trkpt lat="45.42932425178193" lon="10.501457629239853"><ele>149.0</ele><time>2026-03-28T08:45:28Z</time></trkpt><trkpt lat="45.42926876541055" lon="10.501537267525235"><ele>150.0</ele><time>2026-03-28T08:45:29Z</time></trkpt><trkpt lat="45.42922482270415" lon="10.501630148370122"><ele>151.0</ele><time>2026-03-28T08:45:30Z</time></trkpt><trkpt lat="45.429163258437455" lon="10.501701830724969"><ele>151.0</ele><time>2026-03-28T08:45:31Z</time></trkpt><trkpt lat="45.429096185184186" lon="10.501813439528927"><ele>151.0</ele><time>2026-03-28T08:45:33Z</time></trkpt><trkpt lat="45.42906151764939" lon="10.501897231292846"><ele>151.0</ele><time>2026-03-28T08:45:34Z</time></trkpt><trkpt lat="45.429037713625384" lon="10.501986972755997"><ele>151.0</ele><time>2026-03-28T08:45:35Z</time></trkpt><trkpt lat="45.42899634675413" lon="10.502081275665851"><ele>151.0</ele><time>2026-03-28T08:45:36Z</time></trkpt><trkpt lat="45.428977210736186" lon="10.502201885216808"><ele>151.0</ele><time>2026-03-28T08:45:37Z</time></trkpt><trkpt lat="45.42893052613431" lon="10.502334252347747"><ele>151.16666666666669</ele><time>2026-03-28T08:45:38Z</time></trkpt><trkpt lat="45.42889385136758" lon="10.50246542886514"><ele>151.33333333333334</ele><time>2026-03-28T08:45:39Z</time></trkpt><trkpt lat="45.428851968613394" lon="10.502587959450342"><ele>151.5</ele><time>2026-03-28T08:45:40Z</time></trkpt><trkpt lat="45.428818125439285" lon="10.502688282971448"><ele>151.66666666666666</ele><time>2026-03-28T08:45:41Z</time></trkpt><trkpt lat="45.428772071623676" lon="10.502774804536383"><ele>151.83333333333331</ele><time>2026-03-28T08:45:42Z</time></trkpt><trkpt lat="45.42873984526363" lon="10.502858067403844"><ele>152.0</ele><time>2026-03-28T08:45:43Z</time></trkpt><trkpt lat="45.42869729154734" lon="10.50294667065811"><ele>151.6</ele><time>2026-03-28T08:45:44Z</time></trkpt><trkpt lat="45.42861378852933" lon="10.50306000688382"><ele>151.2</ele><time>2026-03-28T08:45:46Z</time></trkpt><trkpt lat="45.42854766839231" lon="10.503078036666036"><ele>150.8</ele><time>2026-03-28T08:45:47Z</time></trkpt><trkpt lat="45.42842960416414" lon="10.503162590545529"><ele>150.4</ele><time>2026-03-28T08:45:49Z</time></trkpt><trkpt lat="45.42831392862183" lon="10.503225354948658"><ele>150.0</ele><time>2026-03-28T08:45:51Z</time></trkpt><trkpt lat="45.42825961189067" lon="10.503278163946405"><ele>149.99999999999997</ele><time>2026-03-28T08:45:52Z</time></trkpt><trkpt lat="45.428214906549215" lon="10.503344049435896"><ele>150.0</ele><time>2026-03-28T08:45:53Z</time></trkpt><trkpt lat="45.428175871835975" lon="10.503423405040445"><ele>150.0</ele><time>2026-03-28T08:45:54Z</time></trkpt><trkpt lat="45.4281488210282" lon="10.503504780810236"><ele>150.0</ele><time>2026-03-28T08:45:55Z</time></trkpt><trkpt lat="45.42810658037518" lon="10.503600748016906"><ele>150.0</ele><time>2026-03-28T08:45:56Z</time></trkpt><trkpt lat="45.42807082804371" lon="10.503678563095676"><ele>149.99999999999997</ele><time>2026-03-28T08:45:57Z</time></trkpt><trkpt lat="45.42802327323323" lon="10.503740476131604"><ele>150.0</ele><time>2026-03-28T08:45:58Z</time></trkpt><trkpt lat="45.427918606921374" lon="10.503786983689183"><ele>147.8</ele><time>2026-03-28T08:46:00Z</time></trkpt><trkpt lat="45.4277931715798" lon="10.503820218154479"><ele>145.6</ele><time>2026-03-28T08:46:02Z</time></trkpt><trkpt lat="45.42771532224588" lon="10.503864773172706"><ele>143.4</ele><time>2026-03-28T08:46:03Z</time></trkpt><trkpt lat="45.42763317339186" lon="10.503929738366464"><ele>141.2</ele><time>2026-03-28T08:46:04Z</time></trkpt><trkpt lat="45.427550778354664" lon="10.504010090633445"><ele>139.0</ele><time>2026-03-28T08:46:05Z</time></trkpt><trkpt lat="45.42748872296626" lon="10.504068770909223"><ele>139.0</ele><time>2026-03-28T08:46:06Z</time></trkpt><trkpt lat="45.42742159672496" lon="10.504135148435791"><ele>139.0</ele><time>2026-03-28T08:46:07Z</time></trkpt><trkpt lat="45.42732118439975" lon="10.504152374601789"><ele>139.0</ele><time>2026-03-28T08:46:08Z</time></trkpt><trkpt lat="45.42722039939161" lon="10.504161263855268"><ele>139.0</ele><time>2026-03-28T08:46:09Z</time></trkpt><trkpt lat="45.4271199989561" lon="10.504162071432342"><ele>139.0</ele><time>2026-03-28T08:46:10Z</time></trkpt><trkpt lat="45.42703449905476" lon="10.504143640448664"><ele>139.16666666666669</ele><time>2026-03-28T08:46:11Z</time></trkpt><trkpt lat="45.426956499386534" lon="10.504119826934305"><ele>139.33333333333334</ele><time>2026-03-28T08:46:12Z</time></trkpt><trkpt lat="45.42687356425336" lon="10.504109026517293"><ele>139.5</ele><time>2026-03-28T08:46:13Z</time></trkpt><trkpt lat="45.426797248982666" lon="10.50411228004941"><ele>139.66666666666666</ele><time>2026-03-28T08:46:14Z</time></trkpt><trkpt lat="45.42671511654612" lon="10.504127394262891"><ele>139.83333333333331</ele><time>2026-03-28T08:46:15Z</time></trkpt><trkpt lat="45.42664931005119" lon="10.504112611853818"><ele>140.0</ele><time>2026-03-28T08:46:16Z</time></trkpt><trkpt lat="45.42658766386356" lon="10.504143074315099"><ele>140.0</ele><time>2026-03-28T08:46:17Z</time></trkpt><trkpt lat="45.42652316276689" lon="10.504167342416853"><ele>140.0</ele><time>2026-03-28T08:46:18Z</time></trkpt><trkpt lat="45.426449337549464" lon="10.504213646899313"><ele>140.0</ele><time>2026-03-28T08:46:19Z</time></trkpt><trkpt lat="45.42637084670459" lon="10.504269355736625"><ele>140.0</ele><time>2026-03-28T08:46:20Z</time></trkpt><trkpt lat="45.4262938654068" lon="10.504344210517093"><ele>140.0</ele><time>2026-03-28T08:46:21Z</time></trkpt><trkpt lat="45.42620646076325" lon="10.504408074965491"><ele>140.0</ele><time>2026-03-28T08:46:22Z</time></trkpt><trkpt lat="45.426141044851" lon="10.504494155574378"><ele>139.66666666666666</ele><time>2026-03-28T08:46:23Z</time></trkpt><trkpt lat="45.42606043514224" lon="10.504544094075953"><ele>139.33333333333331</ele><time>2026-03-28T08:46:24Z</time></trkpt><trkpt lat="45.42599463372519" lon="10.50460609319967"><ele>139.0</ele><time>2026-03-28T08:46:25Z</time></trkpt><trkpt lat="45.425926527844624" lon="10.50466739851216"><ele>138.66666666666666</ele><time>2026-03-28T08:46:26Z</time></trkpt><trkpt lat="45.42585729846954" lon="10.504722543497394"><ele>138.33333333333334</ele><time>2026-03-28T08:46:27Z</time></trkpt><trkpt lat="45.42577011094457" lon="10.504817915101475"><ele>138.0</ele><time>2026-03-28T08:46:29Z</time></trkpt><trkpt lat="45.42567690204867" lon="10.504884292150305"><ele>136.20000000000002</ele><time>2026-03-28T08:46:31Z</time></trkpt><trkpt lat="45.425611868821214" lon="10.50497015658561"><ele>134.4</ele><time>2026-03-28T08:46:33Z</time></trkpt><trkpt lat="45.42552248689461" lon="10.505007263602877"><ele>132.60000000000002</ele><time>2026-03-28T08:46:35Z</time></trkpt><trkpt lat="45.425440396018594" lon="10.504995600120093"><ele>130.8</ele><time>2026-03-28T08:46:36Z</time></trkpt><trkpt lat="45.42533674163047" lon="10.505001123332198"><ele>129.0</ele><time>2026-03-28T08:46:37Z</time></trkpt><trkpt lat="45.42521530437485" lon="10.504977554992596"><ele>129.0</ele><time>2026-03-28T08:46:38Z</time></trkpt><trkpt lat="45.42507323248825" lon="10.504952835593238"><ele>129.0</ele><time>2026-03-28T08:46:39Z</time></trkpt><trkpt lat="45.42492919728241" lon="10.504940506109804"><ele>129.0</ele><time>2026-03-28T08:46:40Z</time></trkpt><trkpt lat="45.42480337421534" lon="10.504940277414807"><ele>129.0</ele><time>2026-03-28T08:46:41Z</time></trkpt><trkpt lat="45.424684709329455" lon="10.504944177593071"><ele>129.0</ele><time>2026-03-28T08:46:42Z</time></trkpt><trkpt lat="45.4245706183194" lon="10.5049431444536"><ele>129.0</ele><time>2026-03-28T08:46:43Z</time></trkpt><trkpt lat="45.42446342302142" lon="10.504927764207975"><ele>129.0</ele><time>2026-03-28T08:46:44Z</time></trkpt><trkpt lat="45.42437642076387" lon="10.504901076456445"><ele>129.0</ele><time>2026-03-28T08:46:45Z</time></trkpt><trkpt lat="45.4243045810711" lon="10.504889435800399"><ele>129.0</ele><time>2026-03-28T08:46:46Z</time></trkpt><trkpt lat="45.42421292988282" lon="10.504879091328656"><ele>129.0</ele><time>2026-03-28T08:46:48Z</time></trkpt><trkpt lat="45.424146678619074" lon="10.50486035667506"><ele>129.0</ele><time>2026-03-28T08:46:49Z</time></trkpt><trkpt lat="45.42405500285235" lon="10.50483967000371"><ele>129.0</ele><time>2026-03-28T08:46:50Z</time></trkpt><trkpt lat="45.42394507974195" lon="10.504798888579309"><ele>129.0</ele><time>2026-03-28T08:46:51Z</time></trkpt><trkpt lat="45.42382674024883" lon="10.504740351578002"><ele>129.0</ele><time>2026-03-28T08:46:52Z</time></trkpt><trkpt lat="45.42370446817062" lon="10.504633718780495"><ele>128.33333333333334</ele><time>2026-03-28T08:46:53Z</time></trkpt><trkpt lat="45.42356663142121" lon="10.504515069922387"><ele>127.66666666666667</ele><time>2026-03-28T08:46:54Z</time></trkpt><trkpt lat="45.42343180764508" lon="10.504389038389963"><ele>127.0</ele><time>2026-03-28T08:46:55Z</time></trkpt><trkpt lat="45.423289948289714" lon="10.504254092160632"><ele>127.0</ele><time>2026-03-28T08:46:56Z</time></trkpt><trkpt lat="45.42312463501286" lon="10.504147268150197"><ele>127.0</ele><time>2026-03-28T08:46:57Z</time></trkpt><trkpt lat="45.42295070077923" lon="10.504042327714464"><ele>127.0</ele><time>2026-03-28T08:46:58Z</time></trkpt><trkpt lat="45.42277384190122" lon="10.50392317720217"><ele>127.0</ele><time>2026-03-28T08:46:59Z</time></trkpt><trkpt lat="45.42259468239696" lon="10.503819738672155"><ele>127.0</ele><time>2026-03-28T08:47:00Z</time></trkpt><trkpt lat="45.42241630017295" lon="10.50373013161305"><ele>127.0</ele><time>2026-03-28T08:47:01Z</time></trkpt><trkpt lat="45.42224191060878" lon="10.503661775518484"><ele>126.25</ele><time>2026-03-28T08:47:02Z</time></trkpt><trkpt lat="45.42208551337485" lon="10.503598886344575"><ele>125.5</ele><time>2026-03-28T08:47:03Z</time></trkpt><trkpt lat="45.42195623618714" lon="10.503551491149414"><ele>124.75</ele><time>2026-03-28T08:47:04Z</time></trkpt><trkpt lat="45.42184830625027" lon="10.503510969835252"><ele>124.0</ele><time>2026-03-28T08:47:05Z</time></trkpt><trkpt lat="45.421756534004636" lon="10.503462324394299"><ele>124.0</ele><time>2026-03-28T08:47:06Z</time></trkpt><trkpt lat="45.4216716968425" lon="10.503393107389423"><ele>124.0</ele><time>2026-03-28T08:47:07Z</time></trkpt><trkpt lat="45.421595528295164" lon="10.503296773659223"><ele>124.0</ele><time>2026-03-28T08:47:08Z</time></trkpt><trkpt lat="45.42150285768915" lon="10.503206802380424"><ele>124.0</ele><time>2026-03-28T08:47:09Z</time></trkpt><trkpt lat="45.42143449740034" lon="10.50312401739042"><ele>124.0</ele><time>2026-03-28T08:47:10Z</time></trkpt><trkpt lat="45.421380910192774" lon="10.503071484798502"><ele>124.2</ele><time>2026-03-28T08:47:11Z</time></trkpt><trkpt lat="45.42127224372764" lon="10.503021826054512"><ele>124.4</ele><time>2026-03-28T08:47:13Z</time></trkpt><trkpt lat="45.421204716613275" lon="10.503101559080418"><ele>124.6</ele><time>2026-03-28T08:47:14Z</time></trkpt><trkpt lat="45.42117339246925" lon="10.503262211734173"><ele>124.8</ele><time>2026-03-28T08:47:15Z</time></trkpt><trkpt lat="45.42113739956012" lon="10.503411354420967"><ele>125.0</ele><time>2026-03-28T08:47:16Z</time></trkpt><trkpt lat="45.42110328877874" lon="10.503590161339748"><ele>124.75</ele><time>2026-03-28T08:47:17Z</time></trkpt><trkpt lat="45.42105091790546" lon="10.503773398488509"><ele>124.5</ele><time>2026-03-28T08:47:18Z</time></trkpt><trkpt lat="45.420965565743174" lon="10.503935752026516"><ele>124.25</ele><time>2026-03-28T08:47:19Z</time></trkpt><trkpt lat="45.42088036283714" lon="10.504082568275996"><ele>124.0</ele><time>2026-03-28T08:47:20Z</time></trkpt><trkpt lat="45.42081071813811" lon="10.504214094712328"><ele>124.0</ele><time>2026-03-28T08:47:21Z</time></trkpt><trkpt lat="45.42076694288892" lon="10.504357443175802"><ele>124.0</ele><time>2026-03-28T08:47:22Z</time></trkpt><trkpt lat="45.42073016625688" lon="10.504485758032644"><ele>124.0</ele><time>2026-03-28T08:47:23Z</time></trkpt><trkpt lat="45.420710714038805" lon="10.504638014226598"><ele>124.0</ele><time>2026-03-28T08:47:24Z</time></trkpt><trkpt lat="45.420694846581206" lon="10.504822172548781"><ele>124.0</ele><time>2026-03-28T08:47:25Z</time></trkpt><trkpt lat="45.4206709880676" lon="10.50502084044075"><ele>123.0</ele><time>2026-03-28T08:47:26Z</time></trkpt><trkpt lat="45.42063313464092" lon="10.505250672805808"><ele>122.0</ele><time>2026-03-28T08:47:27Z</time></trkpt><trkpt lat="45.42059588261927" lon="10.505494647895361"><ele>121.0</ele><time>2026-03-28T08:47:28Z</time></trkpt><trkpt lat="45.42057523276022" lon="10.505744412371227"><ele>121.0</ele><time>2026-03-28T08:47:29Z</time></trkpt><trkpt lat="45.42054301230413" lon="10.505992768700871"><ele>121.0</ele><time>2026-03-28T08:47:30Z</time></trkpt><trkpt lat="45.42050439103025" lon="10.506217331267091"><ele>121.0</ele><time>2026-03-28T08:47:31Z</time></trkpt><trkpt lat="45.42047839741156" lon="10.506447989804384"><ele>120.66666666666667</ele><time>2026-03-28T08:47:32Z</time></trkpt><trkpt lat="45.42045657008374" lon="10.506671706103017"><ele>120.33333333333334</ele><time>2026-03-28T08:47:33Z</time></trkpt><trkpt lat="45.4204358003561" lon="10.506887767249065"><ele>120.0</ele><time>2026-03-28T08:47:34Z</time></trkpt><trkpt lat="45.42041863041086" lon="10.50708414594275"><ele>119.8</ele><time>2026-03-28T08:47:35Z</time></trkpt><trkpt lat="45.42040356857198" lon="10.507264792456278"><ele>119.6</ele><time>2026-03-28T08:47:36Z</time></trkpt><trkpt lat="45.42038979113994" lon="10.5074087555767"><ele>119.4</ele><time>2026-03-28T08:47:37Z</time></trkpt><trkpt lat="45.420377706014776" lon="10.507520738554327"><ele>119.2</ele><time>2026-03-28T08:47:38Z</time></trkpt><trkpt lat="45.42036956292158" lon="10.507613075226491"><ele>119.0</ele><time>2026-03-28T08:47:39Z</time></trkpt><trkpt lat="45.42035452967601" lon="10.507733365565043"><ele>119.0</ele><time>2026-03-28T08:47:41Z</time></trkpt><trkpt lat="45.420338236404476" lon="10.507851118081717"><ele>119.0</ele><time>2026-03-28T08:47:43Z</time></trkpt><trkpt lat="45.420391853304174" lon="10.5079649974325"><ele>119.0</ele><time>2026-03-28T08:47:44Z</time></trkpt><trkpt lat="45.420447611791744" lon="10.508103970531648"><ele>119.0</ele><time>2026-03-28T08:47:45Z</time></trkpt><trkpt lat="45.420478666618244" lon="10.508271964261017"><ele>119.0</ele><time>2026-03-28T08:47:46Z</time></trkpt><trkpt lat="45.42052843088749" lon="10.508458993334155"><ele>119.33333333333333</ele><time>2026-03-28T08:47:47Z</time></trkpt><trkpt lat="45.42058611498472" lon="10.508648907534418"><ele>119.66666666666666</ele><time>2026-03-28T08:47:48Z</time></trkpt><trkpt lat="45.42063515576246" lon="10.508860261791611"><ele>120.0</ele><time>2026-03-28T08:47:49Z</time></trkpt><trkpt lat="45.42069546923827" lon="10.509071763000216"><ele>119.5</ele><time>2026-03-28T08:47:50Z</time></trkpt><trkpt lat="45.420753412878135" lon="10.509286356569966"><ele>119.0</ele><time>2026-03-28T08:47:51Z</time></trkpt><trkpt lat="45.42080764485479" lon="10.509479705504452"><ele>118.5</ele><time>2026-03-28T08:47:52Z</time></trkpt><trkpt lat="45.4208684391288" lon="10.509642081972117"><ele>118.0</ele><time>2026-03-28T08:47:53Z</time></trkpt><trkpt lat="45.42095597041473" lon="10.50979459453012"><ele>118.0</ele><time>2026-03-28T08:47:54Z</time></trkpt><trkpt lat="45.42107267192836" lon="10.509937237219013"><ele>118.0</ele><time>2026-03-28T08:47:55Z</time></trkpt><trkpt lat="45.421189818320535" lon="10.510051809945322"><ele>118.0</ele><time>2026-03-28T08:47:56Z</time></trkpt><trkpt lat="45.42128227310153" lon="10.510136791295631"><ele>118.0</ele><time>2026-03-28T08:47:57Z</time></trkpt><trkpt lat="45.42134097789655" lon="10.510213364212875"><ele>118.2</ele><time>2026-03-28T08:47:58Z</time></trkpt><trkpt lat="45.42134437872267" lon="10.51038406839682"><ele>118.4</ele><time>2026-03-28T08:48:00Z</time></trkpt><trkpt lat="45.4212804522704" lon="10.510446072428529"><ele>118.60000000000001</ele><time>2026-03-28T08:48:02Z</time></trkpt><trkpt lat="45.421171433668235" lon="10.510493027214975"><ele>118.80000000000001</ele><time>2026-03-28T08:48:08Z</time></trkpt><trkpt lat="45.42106233030254" lon="10.51050793565742"><ele>119.0</ele><time>2026-03-28T08:48:09Z</time></trkpt><trkpt lat="45.42096550678307" lon="10.510530224301878"><ele>119.75</ele><time>2026-03-28T08:48:10Z</time></trkpt><trkpt lat="45.420858752362555" lon="10.510579744421635"><ele>120.5</ele><time>2026-03-28T08:48:11Z</time></trkpt><trkpt lat="45.42076058760283" lon="10.510679482778562"><ele>121.25</ele><time>2026-03-28T08:48:12Z</time></trkpt><trkpt lat="45.420678518686024" lon="10.51078964454781"><ele>122.0</ele><time>2026-03-28T08:48:13Z</time></trkpt><trkpt lat="45.42061302631288" lon="10.51095226557305"><ele>122.0</ele><time>2026-03-28T08:48:14Z</time></trkpt><trkpt lat="45.420583176482864" lon="10.511124669871714"><ele>122.0</ele><time>2026-03-28T08:48:15Z</time></trkpt><trkpt lat="45.420568636200684" lon="10.511305919765979"><ele>122.0</ele><time>2026-03-28T08:48:16Z</time></trkpt><trkpt lat="45.42058993846969" lon="10.511480715262602"><ele>122.0</ele><time>2026-03-28T08:48:17Z</time></trkpt><trkpt lat="45.42053524817551" lon="10.511625786052127"><ele>121.83333333333333</ele><time>2026-03-28T08:48:18Z</time></trkpt><trkpt lat="45.42048166278927" lon="10.511720166872685"><ele>121.66666666666666</ele><time>2026-03-28T08:48:19Z</time></trkpt><trkpt lat="45.420415052305145" lon="10.51176029678051"><ele>121.5</ele><time>2026-03-28T08:48:20Z</time></trkpt><trkpt lat="45.420343649647215" lon="10.51177352106299"><ele>121.33333333333334</ele><time>2026-03-28T08:48:21Z</time></trkpt><trkpt lat="45.42022263513388" lon="10.511713890744371"><ele>121.16666666666667</ele><time>2026-03-28T08:48:23Z</time></trkpt><trkpt lat="45.42013708334773" lon="10.511666342177653"><ele>121.0</ele><time>2026-03-28T08:48:25Z</time></trkpt><trkpt lat="45.42007252068512" lon="10.511646044796853"><ele>121.0</ele><time>2026-03-28T08:48:27Z</time></trkpt><trkpt lat="45.419987514958706" lon="10.511613756741724"><ele>121.0</ele><time>2026-03-28T08:48:30Z</time></trkpt><trkpt lat="45.420073124518424" lon="10.511681414885283"><ele>121.0</ele><time>2026-03-28T08:48:44Z</time></trkpt><trkpt lat="45.42022360558243" lon="10.511788873688893"><ele>121.0</ele><time>2026-03-28T08:48:45Z</time></trkpt><trkpt lat="45.4203285734647" lon="10.51179525534086"><ele>121.0</ele><time>2026-03-28T08:48:46Z</time></trkpt><trkpt lat="45.42043577637194" lon="10.511786209503603"><ele>121.0</ele><time>2026-03-28T08:48:47Z</time></trkpt><trkpt lat="45.42050681860149" lon="10.511774470364553"><ele>121.0</ele><time>2026-03-28T08:48:48Z</time></trkpt><trkpt lat="45.42058847491735" lon="10.511773812823124"><ele>121.0</ele><time>2026-03-28T08:48:50Z</time></trkpt><trkpt lat="45.420679858119016" lon="10.511798431045843"><ele>121.0</ele><time>2026-03-28T08:48:55Z</time></trkpt><trkpt lat="45.4208029969297" lon="10.511884005237084"><ele>121.0</ele><time>2026-03-28T08:48:57Z</time></trkpt><trkpt lat="45.42086389611456" lon="10.511953885262184"><ele>121.0</ele><time>2026-03-28T08:48:58Z</time></trkpt><trkpt lat="45.420806511292895" lon="10.51220252693721"><ele>121.0</ele><time>2026-03-28T08:49:00Z</time></trkpt><trkpt lat="45.42071566183882" lon="10.512273834742125"><ele>121.0</ele><time>2026-03-28T08:49:02Z</time></trkpt><trkpt lat="45.420642626097084" lon="10.512263165055348"><ele>121.0</ele><time>2026-03-28T08:49:03Z</time></trkpt><trkpt lat="45.42055009377275" lon="10.51224798764688"><ele>121.0</ele><time>2026-03-28T08:49:04Z</time></trkpt><trkpt lat="45.42044828603433" lon="10.51230314982885"><ele>121.0</ele><time>2026-03-28T08:49:05Z</time></trkpt><trkpt lat="45.42032441308384" lon="10.5123647901309"><ele>121.0</ele><time>2026-03-28T08:49:06Z</time></trkpt><trkpt lat="45.42019506325421" lon="10.512424585146537"><ele>121.0</ele><time>2026-03-28T08:49:07Z</time></trkpt><trkpt lat="45.42005287298472" lon="10.512489505369242"><ele>121.0</ele><time>2026-03-28T08:49:08Z</time></trkpt><trkpt lat="45.41990256751984" lon="10.512555767575858"><ele>121.0</ele><time>2026-03-28T08:49:09Z</time></trkpt><trkpt lat="45.41975840244861" lon="10.512614533858493"><ele>121.0</ele><time>2026-03-28T08:49:10Z</time></trkpt><trkpt lat="45.419604212199026" lon="10.512662251392344"><ele>121.33333333333334</ele><time>2026-03-28T08:49:11Z</time></trkpt><trkpt lat="45.41943879416345" lon="10.51269688648008"><ele>121.66666666666666</ele><time>2026-03-28T08:49:12Z</time></trkpt><trkpt lat="45.419265449508806" lon="10.512715906068891"><ele>122.0</ele><time>2026-03-28T08:49:13Z</time></trkpt><trkpt lat="45.41907304625001" lon="10.51274751097297"><ele>122.0</ele><time>2026-03-28T08:49:14Z</time></trkpt><trkpt lat="45.41887456410962" lon="10.512759118913184"><ele>122.0</ele><time>2026-03-28T08:49:15Z</time></trkpt><trkpt lat="45.41867135265956" lon="10.51275408792486"><ele>122.0</ele><time>2026-03-28T08:49:16Z</time></trkpt><trkpt lat="45.41846795730924" lon="10.512766122128225"><ele>120.33333333333333</ele><time>2026-03-28T08:49:17Z</time></trkpt><trkpt lat="45.41826325927671" lon="10.512779453610266"><ele>118.66666666666666</ele><time>2026-03-28T08:49:18Z</time></trkpt><trkpt lat="45.41805525355009" lon="10.512793525860289"><ele>117.0</ele><time>2026-03-28T08:49:19Z</time></trkpt><trkpt lat="45.4178545722411" lon="10.512810350885903"><ele>116.33333333333334</ele><time>2026-03-28T08:49:20Z</time></trkpt><trkpt lat="45.417664876732694" lon="10.512828854567392"><ele>115.66666666666667</ele><time>2026-03-28T08:49:21Z</time></trkpt><trkpt lat="45.41747246495872" lon="10.512843359205359"><ele>115.0</ele><time>2026-03-28T08:49:22Z</time></trkpt><trkpt lat="45.41727599854689" lon="10.512857453704147"><ele>115.33333333333334</ele><time>2026-03-28T08:49:23Z</time></trkpt><trkpt lat="45.417089778195745" lon="10.512870813151322"><ele>115.66666666666666</ele><time>2026-03-28T08:49:24Z</time></trkpt><trkpt lat="45.41688404677312" lon="10.512885572325263"><ele>116.0</ele><time>2026-03-28T08:49:25Z</time></trkpt><trkpt lat="45.41667699516536" lon="10.51290042619304"><ele>116.0</ele><time>2026-03-28T08:49:26Z</time></trkpt><trkpt lat="45.41649405257626" lon="10.51291557559887"><ele>116.0</ele><time>2026-03-28T08:49:27Z</time></trkpt><trkpt lat="45.41632050170545" lon="10.512930638825356"><ele>116.0</ele><time>2026-03-28T08:49:28Z</time></trkpt><trkpt lat="45.416157864491744" lon="10.512943189685835"><ele>116.0</ele><time>2026-03-28T08:49:29Z</time></trkpt><trkpt lat="45.41600369064282" lon="10.512953058305035"><ele>116.0</ele><time>2026-03-28T08:49:30Z</time></trkpt><trkpt lat="45.41585576030324" lon="10.512966119660437"><ele>116.0</ele><time>2026-03-28T08:49:31Z</time></trkpt><trkpt lat="45.415720093266216" lon="10.51297077239972"><ele>116.0</ele><time>2026-03-28T08:49:32Z</time></trkpt><trkpt lat="45.41559023329506" lon="10.5129670232509"><ele>116.19999999999999</ele><time>2026-03-28T08:49:33Z</time></trkpt><trkpt lat="45.415466879423114" lon="10.512949104766774"><ele>116.39999999999999</ele><time>2026-03-28T08:49:34Z</time></trkpt><trkpt lat="45.41535468408882" lon="10.512923773252457"><ele>116.6</ele><time>2026-03-28T08:49:35Z</time></trkpt><trkpt lat="45.415248823567815" lon="10.512899962463226"><ele>116.8</ele><time>2026-03-28T08:49:36Z</time></trkpt><trkpt lat="45.41515798805348" lon="10.512901914156854"><ele>117.0</ele><time>2026-03-28T08:49:37Z</time></trkpt><trkpt lat="45.41509441166542" lon="10.512876755204502"><ele>117.0</ele><time>2026-03-28T08:49:38Z</time></trkpt><trkpt lat="45.41501098976925" lon="10.512894279247439"><ele>116.99999999999999</ele><time>2026-03-28T08:49:40Z</time></trkpt><trkpt lat="45.41497552440522" lon="10.513032463435925"><ele>116.99999999999999</ele><time>2026-03-28T08:49:42Z</time></trkpt><trkpt lat="45.414964505209454" lon="10.513140021597327"><ele>117.0</ele><time>2026-03-28T08:49:43Z</time></trkpt><trkpt lat="45.41495065140082" lon="10.513275128539059"><ele>117.0</ele><time>2026-03-28T08:49:44Z</time></trkpt><trkpt lat="45.41494425704197" lon="10.51340641609152"><ele>117.0</ele><time>2026-03-28T08:49:45Z</time></trkpt><trkpt lat="45.41494061031364" lon="10.513548560334348"><ele>117.0</ele><time>2026-03-28T08:49:46Z</time></trkpt><trkpt lat="45.414926283463736" lon="10.51365063266732"><ele>117.0</ele><time>2026-03-28T08:49:47Z</time></trkpt><trkpt lat="45.41492256154194" lon="10.513744310311331"><ele>117.0</ele><time>2026-03-28T08:49:48Z</time></trkpt><trkpt lat="45.41491895491102" lon="10.513835084137062"><ele>117.0</ele><time>2026-03-28T08:49:49Z</time></trkpt><trkpt lat="45.41486726047264" lon="10.51394708955715"><ele>117.0</ele><time>2026-03-28T08:49:51Z</time></trkpt><trkpt lat="45.41476517871296" lon="10.51397977484305"><ele>116.75</ele><time>2026-03-28T08:49:53Z</time></trkpt><trkpt lat="45.41461792416912" lon="10.513964324599442"><ele>116.5</ele><time>2026-03-28T08:49:55Z</time></trkpt><trkpt lat="45.41448973830327" lon="10.513957998421514"><ele>116.25</ele><time>2026-03-28T08:49:56Z</time></trkpt><trkpt lat="45.41436545153579" lon="10.513958891384267"><ele>116.0</ele><time>2026-03-28T08:49:57Z</time></trkpt><trkpt lat="45.414235363904986" lon="10.513989989161514"><ele>116.0</ele><time>2026-03-28T08:49:58Z</time></trkpt><trkpt lat="45.414120979805084" lon="10.514053357756305"><ele>116.0</ele><time>2026-03-28T08:49:59Z</time></trkpt><trkpt lat="45.414014220343546" lon="10.514142150045627"><ele>116.0</ele><time>2026-03-28T08:50:00Z</time></trkpt><trkpt lat="45.413892554470124" lon="10.51420417050235"><ele>116.0</ele><time>2026-03-28T08:50:01Z</time></trkpt><trkpt lat="45.41377153011114" lon="10.514236174203102"><ele>116.0</ele><time>2026-03-28T08:50:02Z</time></trkpt><trkpt lat="45.41366243773245" lon="10.514269266562192"><ele>116.0</ele><time>2026-03-28T08:50:03Z</time></trkpt><trkpt lat="45.41355875656435" lon="10.514326545241834"><ele>116.0</ele><time>2026-03-28T08:50:04Z</time></trkpt><trkpt lat="45.41348292815456" lon="10.514386602097037"><ele>116.0</ele><time>2026-03-28T08:50:05Z</time></trkpt><trkpt lat="45.41344205681326" lon="10.51448456112664"><ele>116.0</ele><time>2026-03-28T08:50:06Z</time></trkpt><trkpt lat="45.4134039191264" lon="10.514585903893009"><ele>116.0</ele><time>2026-03-28T08:50:07Z</time></trkpt><trkpt lat="45.413365789114906" lon="10.514729491115206"><ele>116.0</ele><time>2026-03-28T08:50:08Z</time></trkpt><trkpt lat="45.41333378994955" lon="10.514916571836707"><ele>116.0</ele><time>2026-03-28T08:50:09Z</time></trkpt><trkpt lat="45.413291040961674" lon="10.51513762222724"><ele>116.0</ele><time>2026-03-28T08:50:10Z</time></trkpt><trkpt lat="45.41324045898709" lon="10.51536312041071"><ele>116.0</ele><time>2026-03-28T08:50:11Z</time></trkpt><trkpt lat="45.413180206839755" lon="10.515583624560007"><ele>116.0</ele><time>2026-03-28T08:50:12Z</time></trkpt><trkpt lat="45.413112535553275" lon="10.515792272545484"><ele>116.0</ele><time>2026-03-28T08:50:13Z</time></trkpt><trkpt lat="45.413031562611" lon="10.516014392806268"><ele>115.66666666666666</ele><time>2026-03-28T08:50:14Z</time></trkpt><trkpt lat="45.41295034495479" lon="10.516233592255086"><ele>115.33333333333334</ele><time>2026-03-28T08:50:15Z</time></trkpt><trkpt lat="45.412864937433014" lon="10.516470323723917"><ele>115.0</ele><time>2026-03-28T08:50:16Z</time></trkpt><trkpt lat="45.41279076990365" lon="10.516683721936259"><ele>114.75</ele><time>2026-03-28T08:50:17Z</time></trkpt><trkpt lat="45.412730029605044" lon="10.516876035920303"><ele>114.5</ele><time>2026-03-28T08:50:18Z</time></trkpt><trkpt lat="45.412673231707" lon="10.517055755637358"><ele>114.25</ele><time>2026-03-28T08:50:19Z</time></trkpt><trkpt lat="45.41261765836056" lon="10.517228504044233"><ele>114.0</ele><time>2026-03-28T08:50:20Z</time></trkpt><trkpt lat="45.41255018524142" lon="10.51740204558572"><ele>114.0</ele><time>2026-03-28T08:50:21Z</time></trkpt><trkpt lat="45.41247270716937" lon="10.517549159586192"><ele>114.0</ele><time>2026-03-28T08:50:22Z</time></trkpt><trkpt lat="45.41236918215453" lon="10.517651688004925"><ele>114.0</ele><time>2026-03-28T08:50:23Z</time></trkpt><trkpt lat="45.41226473730318" lon="10.517801518002523"><ele>114.0</ele><time>2026-03-28T08:50:24Z</time></trkpt><trkpt lat="45.412150156494484" lon="10.5179303467404"><ele>115.25</ele><time>2026-03-28T08:50:25Z</time></trkpt><trkpt lat="45.41204576981891" lon="10.518041627294394"><ele>116.5</ele><time>2026-03-28T08:50:26Z</time></trkpt><trkpt lat="45.41195129159441" lon="10.518161120652337"><ele>117.75</ele><time>2026-03-28T08:50:27Z</time></trkpt><trkpt lat="45.41186758384859" lon="10.518295578853518"><ele>119.0</ele><time>2026-03-28T08:50:28Z</time></trkpt><trkpt lat="45.41178778467728" lon="10.518445746426202"><ele>119.0</ele><time>2026-03-28T08:50:29Z</time></trkpt><trkpt lat="45.41170302182878" lon="10.518623203165625"><ele>119.0</ele><time>2026-03-28T08:50:30Z</time></trkpt><trkpt lat="45.41160989746666" lon="10.51880283817809"><ele>119.0</ele><time>2026-03-28T08:50:31Z</time></trkpt><trkpt lat="45.41151935544038" lon="10.518925022755372"><ele>119.0</ele><time>2026-03-28T08:50:32Z</time></trkpt><trkpt lat="45.411450866831956" lon="10.519035137637758"><ele>118.99999999999999</ele><time>2026-03-28T08:50:33Z</time></trkpt><trkpt lat="45.41139877149925" lon="10.519128213572708"><ele>119.0</ele><time>2026-03-28T08:50:34Z</time></trkpt><trkpt lat="45.411357739490505" lon="10.519214392951373"><ele>119.0</ele><time>2026-03-28T08:50:35Z</time></trkpt><trkpt lat="45.4113273437314" lon="10.519338797626823"><ele>119.0</ele><time>2026-03-28T08:50:37Z</time></trkpt><trkpt lat="45.41137732921004" lon="10.51940927578901"><ele>118.99999999999999</ele><time>2026-03-28T08:50:38Z</time></trkpt><trkpt lat="45.41146157458902" lon="10.519531025627696"><ele>119.0</ele><time>2026-03-28T08:50:40Z</time></trkpt><trkpt lat="45.41151768889818" lon="10.519604309259858"><ele>118.66666666666666</ele><time>2026-03-28T08:50:41Z</time></trkpt><trkpt lat="45.41155925564205" lon="10.51970195915362"><ele>118.33333333333333</ele><time>2026-03-28T08:50:42Z</time></trkpt><trkpt lat="45.41157512422513" lon="10.519810251674857"><ele>118.0</ele><time>2026-03-28T08:50:43Z</time></trkpt><trkpt lat="45.41157722735686" lon="10.519924652207358"><ele>117.66666666666666</ele><time>2026-03-28T08:50:44Z</time></trkpt><trkpt lat="45.41157253909816" lon="10.520061736573806"><ele>117.33333333333333</ele><time>2026-03-28T08:50:45Z</time></trkpt><trkpt lat="45.4115674017967" lon="10.520211568247264"><ele>117.0</ele><time>2026-03-28T08:50:46Z</time></trkpt><trkpt lat="45.411560291951446" lon="10.52038154774963"><ele>116.83333333333333</ele><time>2026-03-28T08:50:47Z</time></trkpt><trkpt lat="45.41155322456158" lon="10.520517017379897"><ele>116.66666666666666</ele><time>2026-03-28T08:50:48Z</time></trkpt><trkpt lat="45.41155270780867" lon="10.52063236892126"><ele>116.5</ele><time>2026-03-28T08:50:49Z</time></trkpt><trkpt lat="45.41155735061829" lon="10.520727844053482"><ele>116.33333333333333</ele><time>2026-03-28T08:50:50Z</time></trkpt><trkpt lat="45.4115738621629" lon="10.520821532588945"><ele>116.16666666666666</ele><time>2026-03-28T08:50:51Z</time></trkpt><trkpt lat="45.41160397958397" lon="10.520901269981469"><ele>116.0</ele><time>2026-03-28T08:50:52Z</time></trkpt><trkpt lat="45.411656070008625" lon="10.520981002414999"><ele>115.99999999999999</ele><time>2026-03-28T08:50:53Z</time></trkpt><trkpt lat="45.41172461356685" lon="10.521050344579681"><ele>116.0</ele><time>2026-03-28T08:50:54Z</time></trkpt><trkpt lat="45.411801555223796" lon="10.521098244990052"><ele>116.0</ele><time>2026-03-28T08:50:55Z</time></trkpt><trkpt lat="45.41189294458598" lon="10.521134176669138"><ele>116.0</ele><time>2026-03-28T08:50:56Z</time></trkpt><trkpt lat="45.4119759403772" lon="10.521178662228996"><ele>115.99999999999999</ele><time>2026-03-28T08:50:57Z</time></trkpt><trkpt lat="45.41204519089636" lon="10.521224494685024"><ele>116.0</ele><time>2026-03-28T08:50:58Z</time></trkpt><trkpt lat="45.41213416335299" lon="10.52133396172175"><ele>116.16666666666666</ele><time>2026-03-28T08:51:00Z</time></trkpt><trkpt lat="45.41216504945182" lon="10.521423870565025"><ele>116.33333333333333</ele><time>2026-03-28T08:51:01Z</time></trkpt><trkpt lat="45.41217946175603" lon="10.521540484625579"><ele>116.5</ele><time>2026-03-28T08:51:02Z</time></trkpt><trkpt lat="45.41217291671596" lon="10.521674247199106"><ele>116.66666666666666</ele><time>2026-03-28T08:51:03Z</time></trkpt><trkpt lat="45.412143688439784" lon="10.521814529124107"><ele>116.83333333333333</ele><time>2026-03-28T08:51:04Z</time></trkpt><trkpt lat="45.41210766839678" lon="10.521940435585295"><ele>117.0</ele><time>2026-03-28T08:51:05Z</time></trkpt><trkpt lat="45.412074088040775" lon="10.522049950540037"><ele>116.6</ele><time>2026-03-28T08:51:06Z</time></trkpt><trkpt lat="45.412013576447414" lon="10.522167943023064"><ele>116.19999999999999</ele><time>2026-03-28T08:51:08Z</time></trkpt><trkpt lat="45.41210645389267" lon="10.522295595008638"><ele>115.8</ele><time>2026-03-28T08:51:10Z</time></trkpt><trkpt lat="45.41216593156696" lon="10.52233721839456"><ele>115.4</ele><time>2026-03-28T08:51:11Z</time></trkpt><trkpt lat="45.41224763325404" lon="10.522375016860005"><ele>115.0</ele><time>2026-03-28T08:51:12Z</time></trkpt><trkpt lat="45.41236484336739" lon="10.522436992974043"><ele>116.66666666666667</ele><time>2026-03-28T08:51:13Z</time></trkpt><trkpt lat="45.412494471710865" lon="10.522505047786572"><ele>118.33333333333334</ele><time>2026-03-28T08:51:14Z</time></trkpt><trkpt lat="45.41263795420964" lon="10.522568172213829"><ele>120.0</ele><time>2026-03-28T08:51:15Z</time></trkpt><trkpt lat="45.412791881779285" lon="10.522648412838935"><ele>120.0</ele><time>2026-03-28T08:51:16Z</time></trkpt><trkpt lat="45.412949271464754" lon="10.52272625894068"><ele>120.0</ele><time>2026-03-28T08:51:17Z</time></trkpt><trkpt lat="45.41310513880363" lon="10.522803529374862"><ele>120.0</ele><time>2026-03-28T08:51:18Z</time></trkpt><trkpt lat="45.413228804374484" lon="10.522867433392848"><ele>119.5</ele><time>2026-03-28T08:51:19Z</time></trkpt><trkpt lat="45.41334842747201" lon="10.522928334987315"><ele>119.0</ele><time>2026-03-28T08:51:20Z</time></trkpt><trkpt lat="45.413456221565795" lon="10.522976878812987"><ele>118.5</ele><time>2026-03-28T08:51:21Z</time></trkpt><trkpt lat="45.413565272862854" lon="10.523014791411523"><ele>118.0</ele><time>2026-03-28T08:51:22Z</time></trkpt><trkpt lat="45.413676821950396" lon="10.523032619195854"><ele>118.0</ele><time>2026-03-28T08:51:23Z</time></trkpt><trkpt lat="45.41379456557774" lon="10.523052535053182"><ele>118.00000000000001</ele><time>2026-03-28T08:51:24Z</time></trkpt><trkpt lat="45.41390006941148" lon="10.523058564380253"><ele>118.00000000000001</ele><time>2026-03-28T08:51:25Z</time></trkpt><trkpt lat="45.413990658670414" lon="10.52306491439378"><ele>118.0</ele><time>2026-03-28T08:51:26Z</time></trkpt><trkpt lat="45.41406450205187" lon="10.523093079491446"><ele>118.0</ele><time>2026-03-28T08:51:27Z</time></trkpt><trkpt lat="45.414127984395655" lon="10.523087350200198"><ele>117.4</ele><time>2026-03-28T08:51:28Z</time></trkpt><trkpt lat="45.414216065554776" lon="10.52315504232876"><ele>116.80000000000001</ele><time>2026-03-28T08:51:30Z</time></trkpt><trkpt lat="45.41423555053101" lon="10.523299354938047"><ele>116.2</ele><time>2026-03-28T08:51:32Z</time></trkpt><trkpt lat="45.41421705430015" lon="10.523399817412056"><ele>115.6</ele><time>2026-03-28T08:51:33Z</time></trkpt><trkpt lat="45.41418396730975" lon="10.523537644079957"><ele>115.0</ele><time>2026-03-28T08:51:34Z</time></trkpt><trkpt lat="45.414139727412724" lon="10.523695493629726"><ele>115.0</ele><time>2026-03-28T08:51:35Z</time></trkpt><trkpt lat="45.41409796995456" lon="10.523857044665355"><ele>115.0</ele><time>2026-03-28T08:51:36Z</time></trkpt><trkpt lat="45.41407070793636" lon="10.523986606359006"><ele>115.0</ele><time>2026-03-28T08:51:37Z</time></trkpt><trkpt lat="45.41405291890576" lon="10.524135424715183"><ele>115.0</ele><time>2026-03-28T08:51:39Z</time></trkpt><trkpt lat="45.41409740846449" lon="10.5242602227411"><ele>115.0</ele><time>2026-03-28T08:51:41Z</time></trkpt><trkpt lat="45.41414990897495" lon="10.524310765816045"><ele>115.0</ele><time>2026-03-28T08:51:42Z</time></trkpt><trkpt lat="45.414217881556105" lon="10.524369252153587"><ele>115.0</ele><time>2026-03-28T08:51:43Z</time></trkpt><trkpt lat="45.41429833684757" lon="10.524425956136774"><ele>115.0</ele><time>2026-03-28T08:51:44Z</time></trkpt><trkpt lat="45.41438178488022" lon="10.524486835398683"><ele>115.0</ele><time>2026-03-28T08:51:45Z</time></trkpt><trkpt lat="45.41447250942251" lon="10.524549734549158"><ele>115.0</ele><time>2026-03-28T08:51:46Z</time></trkpt><trkpt lat="45.414576023753916" lon="10.52463055797806"><ele>115.25</ele><time>2026-03-28T08:51:47Z</time></trkpt><trkpt lat="45.41469278674514" lon="10.524723722016672"><ele>115.5</ele><time>2026-03-28T08:51:48Z</time></trkpt><trkpt lat="45.41482027905863" lon="10.524833960503711"><ele>115.75</ele><time>2026-03-28T08:51:49Z</time></trkpt><trkpt lat="45.41494904504584" lon="10.524948053571762"><ele>116.0</ele><time>2026-03-28T08:51:50Z</time></trkpt><trkpt lat="45.41507577523208" lon="10.525063665511992"><ele>116.0</ele><time>2026-03-28T08:51:51Z</time></trkpt><trkpt lat="45.41520675511742" lon="10.525192233104491"><ele>116.0</ele><time>2026-03-28T08:51:52Z</time></trkpt><trkpt lat="45.41534555288264" lon="10.525328956160454"><ele>116.0</ele><time>2026-03-28T08:51:53Z</time></trkpt><trkpt lat="45.415482967235675" lon="10.525461660436902"><ele>115.66666666666666</ele><time>2026-03-28T08:51:54Z</time></trkpt><trkpt lat="45.41561093607959" lon="10.525578666637472"><ele>115.33333333333334</ele><time>2026-03-28T08:51:55Z</time></trkpt><trkpt lat="45.41573734251753" lon="10.525696254255095"><ele>115.0</ele><time>2026-03-28T08:51:56Z</time></trkpt><trkpt lat="45.41586601196413" lon="10.525813826360455"><ele>115.0</ele><time>2026-03-28T08:51:57Z</time></trkpt><trkpt lat="45.41600465646724" lon="10.52593470493097"><ele>115.0</ele><time>2026-03-28T08:51:58Z</time></trkpt><trkpt lat="45.416144656376915" lon="10.526053091434829"><ele>115.0</ele><time>2026-03-28T08:51:59Z</time></trkpt><trkpt lat="45.41629923811151" lon="10.526178847215613"><ele>114.33333333333334</ele><time>2026-03-28T08:52:00Z</time></trkpt><trkpt lat="45.41644787602033" lon="10.52629657888669"><ele>113.66666666666666</ele><time>2026-03-28T08:52:01Z</time></trkpt><trkpt lat="45.41660140168265" lon="10.526417461342207"><ele>113.0</ele><time>2026-03-28T08:52:02Z</time></trkpt><trkpt lat="45.41675786029963" lon="10.526535577010245"><ele>113.0</ele><time>2026-03-28T08:52:03Z</time></trkpt><trkpt lat="45.41688659255171" lon="10.526630487254305"><ele>113.0</ele><time>2026-03-28T08:52:04Z</time></trkpt><trkpt lat="45.417010472992715" lon="10.526718778265435"><ele>113.0</ele><time>2026-03-28T08:52:05Z</time></trkpt><trkpt lat="45.41712852869569" lon="10.526799416136654"><ele>113.0</ele><time>2026-03-28T08:52:06Z</time></trkpt><trkpt lat="45.41723788449174" lon="10.526871987101387"><ele>113.4</ele><time>2026-03-28T08:52:07Z</time></trkpt><trkpt lat="45.41733844208484" lon="10.526934711907453"><ele>113.80000000000001</ele><time>2026-03-28T08:52:08Z</time></trkpt><trkpt lat="45.41743202541329" lon="10.526983954958203"><ele>114.2</ele><time>2026-03-28T08:52:09Z</time></trkpt><trkpt lat="45.41752697347471" lon="10.527036604199308"><ele>114.6</ele><time>2026-03-28T08:52:10Z</time></trkpt><trkpt lat="45.41761336088674" lon="10.527090501942093"><ele>115.0</ele><time>2026-03-28T08:52:11Z</time></trkpt><trkpt lat="45.41768462158677" lon="10.527133683033492"><ele>115.0</ele><time>2026-03-28T08:52:12Z</time></trkpt><trkpt lat="45.41775049193323" lon="10.527176250436591"><ele>115.0</ele><time>2026-03-28T08:52:13Z</time></trkpt><trkpt lat="45.41781067017841" lon="10.527209449782498"><ele>115.0</ele><time>2026-03-28T08:52:14Z</time></trkpt><trkpt lat="45.41792119472747" lon="10.527277801821782"><ele>115.0</ele><time>2026-03-28T08:52:16Z</time></trkpt><trkpt lat="45.41802990010269" lon="10.52734554068702"><ele>115.0</ele><time>2026-03-28T08:52:18Z</time></trkpt><trkpt lat="45.41814704714122" lon="10.527416361679835"><ele>115.6</ele><time>2026-03-28T08:52:20Z</time></trkpt><trkpt lat="45.41825361638989" lon="10.527486087402307"><ele>116.2</ele><time>2026-03-28T08:52:22Z</time></trkpt><trkpt lat="45.41836437373202" lon="10.52756219245525"><ele>116.80000000000001</ele><time>2026-03-28T08:52:24Z</time></trkpt><trkpt lat="45.418421892056934" lon="10.527599799056855"><ele>117.4</ele><time>2026-03-28T08:52:25Z</time></trkpt><trkpt lat="45.418532547836776" lon="10.527667796886373"><ele>118.0</ele><time>2026-03-28T08:52:27Z</time></trkpt><trkpt lat="45.41864465305746" lon="10.527734281362662"><ele>118.0</ele><time>2026-03-28T08:52:29Z</time></trkpt><trkpt lat="45.418703875169626" lon="10.527770452667843"><ele>118.00000000000001</ele><time>2026-03-28T08:52:30Z</time></trkpt><trkpt lat="45.41881597961363" lon="10.527840577629432"><ele>118.00000000000001</ele><time>2026-03-28T08:52:32Z</time></trkpt><trkpt lat="45.41892760069805" lon="10.527911610806466"><ele>118.0</ele><time>2026-03-28T08:52:34Z</time></trkpt><trkpt lat="45.41903265794629" lon="10.527979890069474"><ele>118.0</ele><time>2026-03-28T08:52:36Z</time></trkpt><trkpt lat="45.41911208086576" lon="10.52804551289261"><ele>118.0</ele><time>2026-03-28T08:52:38Z</time></trkpt><trkpt lat="45.419187925850736" lon="10.528166137222987"><ele>118.0</ele><time>2026-03-28T08:52:40Z</time></trkpt><trkpt lat="45.419266807998135" lon="10.528286691313916"><ele>118.0</ele><time>2026-03-28T08:52:42Z</time></trkpt><trkpt lat="45.41936058716644" lon="10.528386132324364"><ele>118.0</ele><time>2026-03-28T08:52:44Z</time></trkpt><trkpt lat="45.41945137298901" lon="10.528471773863506"><ele>118.00000000000001</ele><time>2026-03-28T08:52:46Z</time></trkpt><trkpt lat="45.41956405070315" lon="10.528538450420106"><ele>118.0</ele><time>2026-03-28T08:52:48Z</time></trkpt><trkpt lat="45.41962441130481" lon="10.528574265321534"><ele>118.0</ele><time>2026-03-28T08:52:49Z</time></trkpt><trkpt lat="45.419734151440196" lon="10.528649553731663"><ele>118.0</ele><time>2026-03-28T08:52:51Z</time></trkpt><trkpt lat="45.419792144318116" lon="10.528689675539209"><ele>118.00000000000001</ele><time>2026-03-28T08:52:52Z</time></trkpt><trkpt lat="45.41984830200889" lon="10.52873965882456"><ele>118.0</ele><time>2026-03-28T08:52:53Z</time></trkpt><trkpt lat="45.419947937633204" lon="10.528814218744092"><ele>118.50000000000001</ele><time>2026-03-28T08:52:55Z</time></trkpt><trkpt lat="45.42004733882478" lon="10.5289212636737"><ele>119.0</ele><time>2026-03-28T08:52:57Z</time></trkpt><trkpt lat="45.42007877070004" lon="10.529000921185306"><ele>119.5</ele><time>2026-03-28T08:52:58Z</time></trkpt><trkpt lat="45.42013059995778" lon="10.52905699108861"><ele>120.0</ele><time>2026-03-28T08:52:59Z</time></trkpt><trkpt lat="45.42017519994347" lon="10.529122810118764"><ele>120.50000000000001</ele><time>2026-03-28T08:53:00Z</time></trkpt><trkpt lat="45.42021978526489" lon="10.529190881067391"><ele>121.0</ele><time>2026-03-28T08:53:01Z</time></trkpt><trkpt lat="45.42026660100607" lon="10.529265504797678"><ele>121.0</ele><time>2026-03-28T08:53:02Z</time></trkpt><trkpt lat="45.420306620750104" lon="10.52933548568799"><ele>121.0</ele><time>2026-03-28T08:53:03Z</time></trkpt><trkpt lat="45.42037221823295" lon="10.529461255117544"><ele>121.0</ele><time>2026-03-28T08:53:05Z</time></trkpt><trkpt lat="45.42045710934826" lon="10.529595784885837"><ele>121.0</ele><time>2026-03-28T08:53:07Z</time></trkpt><trkpt lat="45.42049859975245" lon="10.52967356139358"><ele>121.0</ele><time>2026-03-28T08:53:08Z</time></trkpt><trkpt lat="45.420566979609696" lon="10.529798026301451"><ele>121.19999999999999</ele><time>2026-03-28T08:53:10Z</time></trkpt><trkpt lat="45.420634023843654" lon="10.529910012259302"><ele>121.39999999999999</ele><time>2026-03-28T08:53:12Z</time></trkpt><trkpt lat="45.420700798701446" lon="10.530007118819112"><ele>121.6</ele><time>2026-03-28T08:53:14Z</time></trkpt><trkpt lat="45.4207568408767" lon="10.53008972937442"><ele>121.8</ele><time>2026-03-28T08:53:16Z</time></trkpt><trkpt lat="45.42080805513089" lon="10.530187530828753"><ele>122.0</ele><time>2026-03-28T08:53:18Z</time></trkpt><trkpt lat="45.42088966872116" lon="10.530271289501272"><ele>122.0</ele><time>2026-03-28T08:53:20Z</time></trkpt><trkpt lat="45.42100004911732" lon="10.530323308597024"><ele>121.99999999999999</ele><time>2026-03-28T08:53:22Z</time></trkpt><trkpt lat="45.42106289333935" lon="10.530400532214964"><ele>121.99999999999999</ele><time>2026-03-28T08:53:23Z</time></trkpt><trkpt lat="45.42115700351336" lon="10.530444519020483"><ele>122.0</ele><time>2026-03-28T08:53:24Z</time></trkpt><trkpt lat="45.42126311511212" lon="10.530456005581414"><ele>122.0</ele><time>2026-03-28T08:53:25Z</time></trkpt><trkpt lat="45.42138386841162" lon="10.530443535664968"><ele>123.5</ele><time>2026-03-28T08:53:26Z</time></trkpt><trkpt lat="45.42151047380405" lon="10.5304501134221"><ele>125.0</ele><time>2026-03-28T08:53:27Z</time></trkpt><trkpt lat="45.421630366874005" lon="10.530457229323792"><ele>126.5</ele><time>2026-03-28T08:53:28Z</time></trkpt><trkpt lat="45.42173607086894" lon="10.530495372590794"><ele>128.0</ele><time>2026-03-28T08:53:29Z</time></trkpt><trkpt lat="45.42184063367754" lon="10.530574616506298"><ele>128.0</ele><time>2026-03-28T08:53:30Z</time></trkpt><trkpt lat="45.42191671687718" lon="10.530723047077593"><ele>128.0</ele><time>2026-03-28T08:53:31Z</time></trkpt><trkpt lat="45.42198859200273" lon="10.530866544911909"><ele>128.0</ele><time>2026-03-28T08:53:32Z</time></trkpt><trkpt lat="45.422040128473995" lon="10.531009613248338"><ele>128.0</ele><time>2026-03-28T08:53:33Z</time></trkpt><trkpt lat="45.422065664330546" lon="10.531163874034707"><ele>129.0</ele><time>2026-03-28T08:53:34Z</time></trkpt><trkpt lat="45.422058379518276" lon="10.531313354286446"><ele>130.0</ele><time>2026-03-28T08:53:35Z</time></trkpt><trkpt lat="45.422069675739564" lon="10.531455354097632"><ele>131.0</ele><time>2026-03-28T08:53:36Z</time></trkpt><trkpt lat="45.42206388787173" lon="10.531561411593687"><ele>132.0</ele><time>2026-03-28T08:53:37Z</time></trkpt><trkpt lat="45.42211228488021" lon="10.531679941180462"><ele>133.0</ele><time>2026-03-28T08:53:39Z</time></trkpt><trkpt lat="45.42203431020478" lon="10.531802079415648"><ele>133.0</ele><time>2026-03-28T08:53:40Z</time></trkpt><trkpt lat="45.42199983828439" lon="10.531927045173468"><ele>133.0</ele><time>2026-03-28T08:53:41Z</time></trkpt><trkpt lat="45.42194498467325" lon="10.532081401562236"><ele>133.0</ele><time>2026-03-28T08:53:42Z</time></trkpt><trkpt lat="45.421880444885076" lon="10.532229894131671"><ele>133.0</ele><time>2026-03-28T08:53:43Z</time></trkpt><trkpt lat="45.42181091285285" lon="10.532376160104517"><ele>134.0</ele><time>2026-03-28T08:53:44Z</time></trkpt><trkpt lat="45.421729638534245" lon="10.53251249431587"><ele>135.0</ele><time>2026-03-28T08:53:45Z</time></trkpt><trkpt lat="45.42164095310357" lon="10.53262859989064"><ele>136.0</ele><time>2026-03-28T08:53:46Z</time></trkpt><trkpt lat="45.42153622545116" lon="10.532729766979376"><ele>137.0</ele><time>2026-03-28T08:53:47Z</time></trkpt><trkpt lat="45.42141412936197" lon="10.5328097355918"><ele>137.33333333333331</ele><time>2026-03-28T08:53:48Z</time></trkpt><trkpt lat="45.4212736766981" lon="10.532876606614492"><ele>137.66666666666666</ele><time>2026-03-28T08:53:49Z</time></trkpt><trkpt lat="45.42112134651116" lon="10.532928475545956"><ele>138.0</ele><time>2026-03-28T08:53:50Z</time></trkpt><trkpt lat="45.420971028105704" lon="10.532987733315869"><ele>138.0</ele><time>2026-03-28T08:53:51Z</time></trkpt><trkpt lat="45.42082354470657" lon="10.533055575453915"><ele>138.0</ele><time>2026-03-28T08:53:52Z</time></trkpt><trkpt lat="45.42067346000321" lon="10.533136680201412"><ele>138.0</ele><time>2026-03-28T08:53:53Z</time></trkpt><trkpt lat="45.42051057467497" lon="10.533237168190734"><ele>135.33333333333334</ele><time>2026-03-28T08:53:54Z</time></trkpt><trkpt lat="45.42034336736424" lon="10.533349341970034"><ele>132.66666666666669</ele><time>2026-03-28T08:53:55Z</time></trkpt><trkpt lat="45.42017461511694" lon="10.533462170800215"><ele>130.0</ele><time>2026-03-28T08:53:56Z</time></trkpt><trkpt lat="45.42000069379508" lon="10.533587605195242"><ele>130.66666666666669</ele><time>2026-03-28T08:53:57Z</time></trkpt><trkpt lat="45.419823392135655" lon="10.533731890842441"><ele>131.33333333333334</ele><time>2026-03-28T08:53:58Z</time></trkpt><trkpt lat="45.419653561593215" lon="10.53389039095347"><ele>132.0</ele><time>2026-03-28T08:53:59Z</time></trkpt><trkpt lat="45.41947614432048" lon="10.534058895385765"><ele>132.0</ele><time>2026-03-28T08:54:00Z</time></trkpt><trkpt lat="45.41930375614445" lon="10.534218355977464"><ele>132.0</ele><time>2026-03-28T08:54:01Z</time></trkpt><trkpt lat="45.4191407800186" lon="10.534359318012122"><ele>132.0</ele><time>2026-03-28T08:54:02Z</time></trkpt><trkpt lat="45.41899487321555" lon="10.534490457732963"><ele>131.0</ele><time>2026-03-28T08:54:03Z</time></trkpt><trkpt lat="45.41883946406961" lon="10.534602844718039"><ele>130.0</ele><time>2026-03-28T08:54:04Z</time></trkpt><trkpt lat="45.41867988940512" lon="10.534689291957422"><ele>129.0</ele><time>2026-03-28T08:54:05Z</time></trkpt><trkpt lat="45.41850175388219" lon="10.534755028669093"><ele>129.0</ele><time>2026-03-28T08:54:06Z</time></trkpt><trkpt lat="45.41833885691205" lon="10.534810182733343"><ele>129.0</ele><time>2026-03-28T08:54:07Z</time></trkpt><trkpt lat="45.41818712266556" lon="10.5348639474331"><ele>129.0</ele><time>2026-03-28T08:54:08Z</time></trkpt><trkpt lat="45.418042087237026" lon="10.534924558341299"><ele>128.0</ele><time>2026-03-28T08:54:09Z</time></trkpt><trkpt lat="45.41789572113393" lon="10.534998650693785"><ele>127.0</ele><time>2026-03-28T08:54:10Z</time></trkpt><trkpt lat="45.417748650459046" lon="10.53511011457261"><ele>126.0</ele><time>2026-03-28T08:54:11Z</time></trkpt><trkpt lat="45.41759558860691" lon="10.535258733864348"><ele>126.66666666666666</ele><time>2026-03-28T08:54:12Z</time></trkpt><trkpt lat="45.41745209575799" lon="10.535420259938434"><ele>127.33333333333333</ele><time>2026-03-28T08:54:13Z</time></trkpt><trkpt lat="45.41731986015902" lon="10.535564553418439"><ele>128.0</ele><time>2026-03-28T08:54:14Z</time></trkpt><trkpt lat="45.41718481859264" lon="10.535662758605364"><ele>127.33333333333333</ele><time>2026-03-28T08:54:15Z</time></trkpt><trkpt lat="45.4170365087843" lon="10.53572374057265"><ele>126.66666666666666</ele><time>2026-03-28T08:54:16Z</time></trkpt><trkpt lat="45.41686811345856" lon="10.535731351516976"><ele>126.0</ele><time>2026-03-28T08:54:17Z</time></trkpt><trkpt lat="45.41670804191592" lon="10.535783504740042"><ele>126.0</ele><time>2026-03-28T08:54:18Z</time></trkpt><trkpt lat="45.41654856501923" lon="10.535820152074104"><ele>126.0</ele><time>2026-03-28T08:54:19Z</time></trkpt><trkpt lat="45.41640617057245" lon="10.535853852705444"><ele>126.0</ele><time>2026-03-28T08:54:20Z</time></trkpt><trkpt lat="45.41626678293864" lon="10.53590873093759"><ele>126.33333333333334</ele><time>2026-03-28T08:54:21Z</time></trkpt><trkpt lat="45.41614295497203" lon="10.536001156307128"><ele>126.66666666666667</ele><time>2026-03-28T08:54:22Z</time></trkpt><trkpt lat="45.416020370854646" lon="10.536129526630479"><ele>127.0</ele><time>2026-03-28T08:54:23Z</time></trkpt><trkpt lat="45.415896384455564" lon="10.536268610926633"><ele>127.0</ele><time>2026-03-28T08:54:24Z</time></trkpt><trkpt lat="45.41577084966513" lon="10.536419115274365"><ele>127.0</ele><time>2026-03-28T08:54:25Z</time></trkpt><trkpt lat="45.41564669223451" lon="10.536574956698775"><ele>127.0</ele><time>2026-03-28T08:54:26Z</time></trkpt><trkpt lat="45.41553237692968" lon="10.536744829496602"><ele>126.66666666666667</ele><time>2026-03-28T08:54:27Z</time></trkpt><trkpt lat="45.41542848083569" lon="10.536935810951192"><ele>126.33333333333334</ele><time>2026-03-28T08:54:28Z</time></trkpt><trkpt lat="45.4153413503136" lon="10.53713876338026"><ele>126.0</ele><time>2026-03-28T08:54:29Z</time></trkpt><trkpt lat="45.41526237370851" lon="10.537334738153532"><ele>126.0</ele><time>2026-03-28T08:54:30Z</time></trkpt><trkpt lat="45.41519174298571" lon="10.53751173067506"><ele>126.0</ele><time>2026-03-28T08:54:31Z</time></trkpt><trkpt lat="45.415118342027796" lon="10.537680776682532"><ele>126.0</ele><time>2026-03-28T08:54:32Z</time></trkpt><trkpt lat="45.415037811169576" lon="10.537840988981602"><ele>126.0</ele><time>2026-03-28T08:54:33Z</time></trkpt><trkpt lat="45.41494669191787" lon="10.537994235679701"><ele>125.66666666666666</ele><time>2026-03-28T08:54:34Z</time></trkpt><trkpt lat="45.414825501548265" lon="10.538113239832683"><ele>125.33333333333333</ele><time>2026-03-28T08:54:35Z</time></trkpt><trkpt lat="45.41471413197768" lon="10.538261217227394"><ele>125.0</ele><time>2026-03-28T08:54:36Z</time></trkpt><trkpt lat="45.414572229245" lon="10.538381872089788"><ele>125.0</ele><time>2026-03-28T08:54:37Z</time></trkpt><trkpt lat="45.414428641673325" lon="10.538522129693739"><ele>125.0</ele><time>2026-03-28T08:54:38Z</time></trkpt><trkpt lat="45.4142704518217" lon="10.538673824146372"><ele>125.0</ele><time>2026-03-28T08:54:39Z</time></trkpt><trkpt lat="45.41410063997286" lon="10.53883617388242"><ele>125.0</ele><time>2026-03-28T08:54:40Z</time></trkpt><trkpt lat="45.41392870873995" lon="10.539001980555579"><ele>125.0</ele><time>2026-03-28T08:54:41Z</time></trkpt><trkpt lat="45.413756642233" lon="10.539184905397901"><ele>125.0</ele><time>2026-03-28T08:54:42Z</time></trkpt><trkpt lat="45.41357047084704" lon="10.53934395631142"><ele>125.0</ele><time>2026-03-28T08:54:43Z</time></trkpt><trkpt lat="45.413394389259864" lon="10.53948434960524"><ele>125.0</ele><time>2026-03-28T08:54:44Z</time></trkpt><trkpt lat="45.41322407244729" lon="10.539604570122794"><ele>125.0</ele><time>2026-03-28T08:54:45Z</time></trkpt><trkpt lat="45.41306291208494" lon="10.539720323286227"><ele>125.33333333333333</ele><time>2026-03-28T08:54:46Z</time></trkpt><trkpt lat="45.41291810194751" lon="10.539823848981193"><ele>125.66666666666666</ele><time>2026-03-28T08:54:47Z</time></trkpt><trkpt lat="45.4127928174263" lon="10.539950844286848"><ele>126.0</ele><time>2026-03-28T08:54:48Z</time></trkpt><trkpt lat="45.41268698966904" lon="10.540106789861364"><ele>126.0</ele><time>2026-03-28T08:54:49Z</time></trkpt><trkpt lat="45.41259347686675" lon="10.54029259384496"><ele>126.0</ele><time>2026-03-28T08:54:50Z</time></trkpt><trkpt lat="45.41250855450411" lon="10.540514662040765"><ele>126.0</ele><time>2026-03-28T08:54:51Z</time></trkpt><trkpt lat="45.41242490075546" lon="10.540746756758944"><ele>126.33333333333334</ele><time>2026-03-28T08:54:52Z</time></trkpt><trkpt lat="45.41232705775909" lon="10.540977502645578"><ele>126.66666666666667</ele><time>2026-03-28T08:54:53Z</time></trkpt><trkpt lat="45.41221688133292" lon="10.541217642035308"><ele>127.0</ele><time>2026-03-28T08:54:54Z</time></trkpt><trkpt lat="45.41206882762149" lon="10.541435098364287"><ele>127.0</ele><time>2026-03-28T08:54:55Z</time></trkpt><trkpt lat="45.41193236921953" lon="10.541662613946201"><ele>127.0</ele><time>2026-03-28T08:54:56Z</time></trkpt><trkpt lat="45.41179411426645" lon="10.54190387412839"><ele>127.0</ele><time>2026-03-28T08:54:57Z</time></trkpt><trkpt lat="45.411675922431705" lon="10.54216712472936"><ele>126.66666666666667</ele><time>2026-03-28T08:54:58Z</time></trkpt><trkpt lat="45.41155490757681" lon="10.542424130298498"><ele>126.33333333333334</ele><time>2026-03-28T08:54:59Z</time></trkpt><trkpt lat="45.411427555634525" lon="10.542664030706018"><ele>126.0</ele><time>2026-03-28T08:55:00Z</time></trkpt><trkpt lat="45.41132008893389" lon="10.54289883381319"><ele>124.0</ele><time>2026-03-28T08:55:01Z</time></trkpt><trkpt lat="45.41122016507917" lon="10.543125381905522"><ele>122.0</ele><time>2026-03-28T08:55:02Z</time></trkpt><trkpt lat="45.41115962077846" lon="10.543356804479608"><ele>120.0</ele><time>2026-03-28T08:55:03Z</time></trkpt><trkpt lat="45.4111009276471" lon="10.543581684198182"><ele>120.5</ele><time>2026-03-28T08:55:04Z</time></trkpt><trkpt lat="45.411060094746695" lon="10.543784776599667"><ele>121.0</ele><time>2026-03-28T08:55:05Z</time></trkpt><trkpt lat="45.41098329765193" lon="10.54396353191424"><ele>121.5</ele><time>2026-03-28T08:55:06Z</time></trkpt><trkpt lat="45.41089732885517" lon="10.544128337423418"><ele>122.0</ele><time>2026-03-28T08:55:07Z</time></trkpt><trkpt lat="45.41077637479456" lon="10.54425271073496"><ele>122.0</ele><time>2026-03-28T08:55:08Z</time></trkpt><trkpt lat="45.410654948302366" lon="10.544405207393499"><ele>122.0</ele><time>2026-03-28T08:55:09Z</time></trkpt><trkpt lat="45.41053722986972" lon="10.544574702909456"><ele>122.0</ele><time>2026-03-28T08:55:10Z</time></trkpt><trkpt lat="45.410402198208004" lon="10.54474153281463"><ele>121.66666666666666</ele><time>2026-03-28T08:55:11Z</time></trkpt><trkpt lat="45.41026617119644" lon="10.544910326360172"><ele>121.33333333333334</ele><time>2026-03-28T08:55:12Z</time></trkpt><trkpt lat="45.4101249381477" lon="10.545073937282888"><ele>121.0</ele><time>2026-03-28T08:55:13Z</time></trkpt><trkpt lat="45.409995459583996" lon="10.54522569712099"><ele>121.0</ele><time>2026-03-28T08:55:14Z</time></trkpt><trkpt lat="45.4098675521123" lon="10.545339973566461"><ele>121.0</ele><time>2026-03-28T08:55:15Z</time></trkpt><trkpt lat="45.40974903665646" lon="10.545473766375922"><ele>121.0</ele><time>2026-03-28T08:55:16Z</time></trkpt><trkpt lat="45.40964717090386" lon="10.545610317608606"><ele>121.0</ele><time>2026-03-28T08:55:17Z</time></trkpt><trkpt lat="45.40952390588811" lon="10.545689997052495"><ele>119.25</ele><time>2026-03-28T08:55:18Z</time></trkpt><trkpt lat="45.40939709799315" lon="10.545777122758"><ele>117.5</ele><time>2026-03-28T08:55:19Z</time></trkpt><trkpt lat="45.40925328762499" lon="10.545843271191902"><ele>115.75</ele><time>2026-03-28T08:55:20Z</time></trkpt><trkpt lat="45.40911135930517" lon="10.545878760741738"><ele>114.0</ele><time>2026-03-28T08:55:21Z</time></trkpt><trkpt lat="45.408978728195635" lon="10.54591504306116"><ele>114.0</ele><time>2026-03-28T08:55:22Z</time></trkpt><trkpt lat="45.408836214016105" lon="10.545896308856326"><ele>114.0</ele><time>2026-03-28T08:55:23Z</time></trkpt><trkpt lat="45.40869417689683" lon="10.545828080834948"><ele>114.0</ele><time>2026-03-28T08:55:24Z</time></trkpt><trkpt lat="45.40854813774063" lon="10.545823073345753"><ele>114.0</ele><time>2026-03-28T08:55:25Z</time></trkpt><trkpt lat="45.40839815514707" lon="10.545802047609516"><ele>113.5</ele><time>2026-03-28T08:55:26Z</time></trkpt><trkpt lat="45.40826272451086" lon="10.545788595106696"><ele>113.0</ele><time>2026-03-28T08:55:27Z</time></trkpt><trkpt lat="45.40813506184897" lon="10.545783721824296"><ele>112.5</ele><time>2026-03-28T08:55:28Z</time></trkpt><trkpt lat="45.40801417871641" lon="10.545797079445586"><ele>112.0</ele><time>2026-03-28T08:55:29Z</time></trkpt><trkpt lat="45.40787431301367" lon="10.545840984387052"><ele>112.0</ele><time>2026-03-28T08:55:30Z</time></trkpt><trkpt lat="45.40772816383131" lon="10.54588839137438"><ele>112.0</ele><time>2026-03-28T08:55:31Z</time></trkpt><trkpt lat="45.407583052657195" lon="10.545896754288828"><ele>112.0</ele><time>2026-03-28T08:55:32Z</time></trkpt><trkpt lat="45.40746065542253" lon="10.545923543748613"><ele>112.0</ele><time>2026-03-28T08:55:33Z</time></trkpt><trkpt lat="45.407353285997665" lon="10.545953975617048"><ele>112.0</ele><time>2026-03-28T08:55:34Z</time></trkpt><trkpt lat="45.407256245452814" lon="10.54601034116163"><ele>111.99999999999999</ele><time>2026-03-28T08:55:35Z</time></trkpt><trkpt lat="45.40715063371243" lon="10.546076056989142"><ele>111.99999999999999</ele><time>2026-03-28T08:55:36Z</time></trkpt><trkpt lat="45.407053905598374" lon="10.546159048421346"><ele>112.0</ele><time>2026-03-28T08:55:37Z</time></trkpt><trkpt lat="45.40696567604675" lon="10.546259655270253"><ele>112.0</ele><time>2026-03-28T08:55:38Z</time></trkpt><trkpt lat="45.40688269338876" lon="10.546382835874704"><ele>113.0</ele><time>2026-03-28T08:55:39Z</time></trkpt><trkpt lat="45.40678737408849" lon="10.546511976257337"><ele>114.0</ele><time>2026-03-28T08:55:40Z</time></trkpt><trkpt lat="45.40668126299692" lon="10.54665600270636"><ele>115.0</ele><time>2026-03-28T08:55:41Z</time></trkpt><trkpt lat="45.40657315201238" lon="10.54679689939385"><ele>116.0</ele><time>2026-03-28T08:55:42Z</time></trkpt><trkpt lat="45.406468385457195" lon="10.546932341204789"><ele>116.0</ele><time>2026-03-28T08:55:43Z</time></trkpt><trkpt lat="45.40635597409301" lon="10.547055158501605"><ele>116.0</ele><time>2026-03-28T08:55:44Z</time></trkpt><trkpt lat="45.40622995275612" lon="10.54712646966756"><ele>116.0</ele><time>2026-03-28T08:55:45Z</time></trkpt><trkpt lat="45.40610396266579" lon="10.547202891661163"><ele>116.0</ele><time>2026-03-28T08:55:46Z</time></trkpt><trkpt lat="45.40597553438318" lon="10.547287616157659"><ele>117.5</ele><time>2026-03-28T08:55:47Z</time></trkpt><trkpt lat="45.40583963226985" lon="10.54733265432622"><ele>119.0</ele><time>2026-03-28T08:55:48Z</time></trkpt><trkpt lat="45.40572075478645" lon="10.547388917871821"><ele>120.5</ele><time>2026-03-28T08:55:49Z</time></trkpt><trkpt lat="45.40560596657663" lon="10.547440277826386"><ele>122.0</ele><time>2026-03-28T08:55:50Z</time></trkpt><trkpt lat="45.40550203219793" lon="10.547489159758005"><ele>121.25</ele><time>2026-03-28T08:55:51Z</time></trkpt><trkpt lat="45.40539962456076" lon="10.547542305375783"><ele>120.5</ele><time>2026-03-28T08:55:52Z</time></trkpt><trkpt lat="45.40529080507626" lon="10.54761738124547"><ele>119.75</ele><time>2026-03-28T08:55:53Z</time></trkpt><trkpt lat="45.40517297941987" lon="10.547717532104548"><ele>119.0</ele><time>2026-03-28T08:55:54Z</time></trkpt><trkpt lat="45.40504304596528" lon="10.547831383446583"><ele>118.66666666666666</ele><time>2026-03-28T08:55:55Z</time></trkpt><trkpt lat="45.40491103082857" lon="10.5479469820501"><ele>118.33333333333334</ele><time>2026-03-28T08:55:56Z</time></trkpt><trkpt lat="45.40477678144904" lon="10.548057514096023"><ele>118.0</ele><time>2026-03-28T08:55:57Z</time></trkpt><trkpt lat="45.40463277860184" lon="10.548172187474034"><ele>118.0</ele><time>2026-03-28T08:55:58Z</time></trkpt><trkpt lat="45.40449925393" lon="10.548275392145745"><ele>118.0</ele><time>2026-03-28T08:55:59Z</time></trkpt><trkpt lat="45.40437621632608" lon="10.5483872659693"><ele>118.0</ele><time>2026-03-28T08:56:00Z</time></trkpt><trkpt lat="45.40426545312554" lon="10.548482870886707"><ele>118.0</ele><time>2026-03-28T08:56:01Z</time></trkpt><trkpt lat="45.40416020507305" lon="10.548572843736672"><ele>118.0</ele><time>2026-03-28T08:56:02Z</time></trkpt><trkpt lat="45.40405514446738" lon="10.548673271393616"><ele>118.0</ele><time>2026-03-28T08:56:03Z</time></trkpt><trkpt lat="45.403955960361614" lon="10.54877876484077"><ele>118.0</ele><time>2026-03-28T08:56:04Z</time></trkpt><trkpt lat="45.40385752606439" lon="10.548905081060347"><ele>118.0</ele><time>2026-03-28T08:56:05Z</time></trkpt><trkpt lat="45.40375390360811" lon="10.549055604279891"><ele>117.75</ele><time>2026-03-28T08:56:06Z</time></trkpt><trkpt lat="45.40366124230791" lon="10.54919040671135"><ele>117.5</ele><time>2026-03-28T08:56:07Z</time></trkpt><trkpt lat="45.40354600587832" lon="10.54927704843501"><ele>117.25</ele><time>2026-03-28T08:56:08Z</time></trkpt><trkpt lat="45.40342724947183" lon="10.549356645437589"><ele>117.0</ele><time>2026-03-28T08:56:09Z</time></trkpt><trkpt lat="45.40331078870369" lon="10.549417234373305"><ele>117.0</ele><time>2026-03-28T08:56:10Z</time></trkpt><trkpt lat="45.4031954134827" lon="10.54946272285175"><ele>116.99999999999999</ele><time>2026-03-28T08:56:11Z</time></trkpt><trkpt lat="45.403085323104975" lon="10.549479232975369"><ele>116.99999999999999</ele><time>2026-03-28T08:56:12Z</time></trkpt><trkpt lat="45.40298858362574" lon="10.549471659955325"><ele>117.0</ele><time>2026-03-28T08:56:13Z</time></trkpt><trkpt lat="45.40288221951636" lon="10.549438370537565"><ele>117.0</ele><time>2026-03-28T08:56:14Z</time></trkpt><trkpt lat="45.402778617535255" lon="10.54941585763604"><ele>117.19999999999999</ele><time>2026-03-28T08:56:15Z</time></trkpt><trkpt lat="45.40268226397746" lon="10.54941186960501"><ele>117.39999999999999</ele><time>2026-03-28T08:56:16Z</time></trkpt><trkpt lat="45.40258349903224" lon="10.549450301405516"><ele>117.60000000000001</ele><time>2026-03-28T08:56:17Z</time></trkpt><trkpt lat="45.40249568987893" lon="10.549483965767738"><ele>117.80000000000001</ele><time>2026-03-28T08:56:18Z</time></trkpt><trkpt lat="45.40240763505239" lon="10.549543824293114"><ele>118.0</ele><time>2026-03-28T08:56:19Z</time></trkpt><trkpt lat="45.40231594162552" lon="10.549629415963901"><ele>118.0</ele><time>2026-03-28T08:56:20Z</time></trkpt><trkpt lat="45.40222757232967" lon="10.54974178984292"><ele>118.0</ele><time>2026-03-28T08:56:21Z</time></trkpt><trkpt lat="45.40212881173464" lon="10.54986256454891"><ele>118.0</ele><time>2026-03-28T08:56:22Z</time></trkpt><trkpt lat="45.40203242948515" lon="10.549998011837403"><ele>118.0</ele><time>2026-03-28T08:56:23Z</time></trkpt><trkpt lat="45.401933334831206" lon="10.550138729737219"><ele>117.75</ele><time>2026-03-28T08:56:24Z</time></trkpt><trkpt lat="45.40182648067576" lon="10.550292667943923"><ele>117.5</ele><time>2026-03-28T08:56:25Z</time></trkpt><trkpt lat="45.40172467824852" lon="10.550445866519198"><ele>117.25</ele><time>2026-03-28T08:56:26Z</time></trkpt><trkpt lat="45.40162429647091" lon="10.550581300886467"><ele>117.0</ele><time>2026-03-28T08:56:27Z</time></trkpt><trkpt lat="45.40151516957229" lon="10.550712746768367"><ele>117.0</ele><time>2026-03-28T08:56:28Z</time></trkpt><trkpt lat="45.40141076401407" lon="10.5508367622436"><ele>117.0</ele><time>2026-03-28T08:56:29Z</time></trkpt><trkpt lat="45.40131314465585" lon="10.550946467898262"><ele>117.0</ele><time>2026-03-28T08:56:30Z</time></trkpt><trkpt lat="45.40122092686592" lon="10.55099965525257"><ele>117.0</ele><time>2026-03-28T08:56:31Z</time></trkpt><trkpt lat="45.40111447471929" lon="10.551056166361699"><ele>116.25</ele><time>2026-03-28T08:56:32Z</time></trkpt><trkpt lat="45.40101116571578" lon="10.55104436714923"><ele>115.5</ele><time>2026-03-28T08:56:33Z</time></trkpt><trkpt lat="45.4008902219596" lon="10.551059893006828"><ele>114.75</ele><time>2026-03-28T08:56:34Z</time></trkpt><trkpt lat="45.40076359860338" lon="10.551071821160724"><ele>114.0</ele><time>2026-03-28T08:56:35Z</time></trkpt><trkpt lat="45.40064058135727" lon="10.551074674084871"><ele>114.0</ele><time>2026-03-28T08:56:36Z</time></trkpt><trkpt lat="45.400514925198486" lon="10.551106620432385"><ele>114.0</ele><time>2026-03-28T08:56:37Z</time></trkpt><trkpt lat="45.400396735311354" lon="10.551121947566438"><ele>114.0</ele><time>2026-03-28T08:56:38Z</time></trkpt><trkpt lat="45.400286486486785" lon="10.551167385357779"><ele>114.0</ele><time>2026-03-28T08:56:39Z</time></trkpt><trkpt lat="45.400167910762725" lon="10.551235636844055"><ele>113.25</ele><time>2026-03-28T08:56:40Z</time></trkpt><trkpt lat="45.40005167178276" lon="10.551335128341611"><ele>112.5</ele><time>2026-03-28T08:56:41Z</time></trkpt><trkpt lat="45.39993778626507" lon="10.551416267664171"><ele>111.75</ele><time>2026-03-28T08:56:42Z</time></trkpt><trkpt lat="45.39984128978376" lon="10.551485713040723"><ele>111.0</ele><time>2026-03-28T08:56:43Z</time></trkpt><trkpt lat="45.399745133310056" lon="10.551515589672826"><ele>112.0</ele><time>2026-03-28T08:56:44Z</time></trkpt><trkpt lat="45.39964169357795" lon="10.551527606026836"><ele>113.0</ele><time>2026-03-28T08:56:45Z</time></trkpt><trkpt lat="45.3995386642521" lon="10.551536914711516"><ele>114.0</ele><time>2026-03-28T08:56:46Z</time></trkpt><trkpt lat="45.399412749898055" lon="10.551559313326148"><ele>115.0</ele><time>2026-03-28T08:56:47Z</time></trkpt><trkpt lat="45.39927862700625" lon="10.551547974942483"><ele>115.0</ele><time>2026-03-28T08:56:48Z</time></trkpt><trkpt lat="45.39914715542177" lon="10.551544969205816"><ele>115.0</ele><time>2026-03-28T08:56:49Z</time></trkpt><trkpt lat="45.399033744012044" lon="10.551565142193844"><ele>115.0</ele><time>2026-03-28T08:56:50Z</time></trkpt><trkpt lat="45.39893010229595" lon="10.551561210229686"><ele>115.0</ele><time>2026-03-28T08:56:51Z</time></trkpt><trkpt lat="45.39881728103866" lon="10.551587500535673"><ele>117.0</ele><time>2026-03-28T08:56:52Z</time></trkpt><trkpt lat="45.39870542601732" lon="10.551644640491778"><ele>119.0</ele><time>2026-03-28T08:56:53Z</time></trkpt><trkpt lat="45.39858278866911" lon="10.551720190894255"><ele>121.0</ele><time>2026-03-28T08:56:54Z</time></trkpt><trkpt lat="45.39845239653293" lon="10.551801784217545"><ele>123.0</ele><time>2026-03-28T08:56:55Z</time></trkpt><trkpt lat="45.398336766122064" lon="10.55186756693997"><ele>123.0</ele><time>2026-03-28T08:56:56Z</time></trkpt><trkpt lat="45.39822359563763" lon="10.55187922964527"><ele>123.00000000000001</ele><time>2026-03-28T08:56:57Z</time></trkpt><trkpt lat="45.39811889331717" lon="10.551895106446958"><ele>123.00000000000001</ele><time>2026-03-28T08:56:58Z</time></trkpt><trkpt lat="45.39801973128569" lon="10.551900459327847"><ele>123.0</ele><time>2026-03-28T08:56:59Z</time></trkpt><trkpt lat="45.39789500800857" lon="10.551896550666143"><ele>123.0</ele><time>2026-03-28T08:57:00Z</time></trkpt><trkpt lat="45.39775628144916" lon="10.551867340334116"><ele>122.66666666666666</ele><time>2026-03-28T08:57:01Z</time></trkpt><trkpt lat="45.39761244771143" lon="10.551829188102547"><ele>122.33333333333333</ele><time>2026-03-28T08:57:02Z</time></trkpt><trkpt lat="45.39745471848092" lon="10.551793556606924"><ele>122.0</ele><time>2026-03-28T08:57:03Z</time></trkpt><trkpt lat="45.39729882784308" lon="10.551762276806839"><ele>121.8</ele><time>2026-03-28T08:57:04Z</time></trkpt><trkpt lat="45.39715947187455" lon="10.551741364460517"><ele>121.6</ele><time>2026-03-28T08:57:05Z</time></trkpt><trkpt lat="45.39705448954892" lon="10.551704259698035"><ele>121.39999999999999</ele><time>2026-03-28T08:57:06Z</time></trkpt><trkpt lat="45.39698683553682" lon="10.551697554956402"><ele>121.19999999999999</ele><time>2026-03-28T08:57:07Z</time></trkpt><trkpt lat="45.39690147057467" lon="10.551700224517113"><ele>121.0</ele><time>2026-03-28T08:57:09Z</time></trkpt><trkpt lat="45.39689659294043" lon="10.55190534459707"><ele>123.25</ele><time>2026-03-28T08:57:10Z</time></trkpt><trkpt lat="45.3968776131802" lon="10.55205166230124"><ele>125.5</ele><time>2026-03-28T08:57:11Z</time></trkpt><trkpt lat="45.396869873604615" lon="10.55219885449638"><ele>127.75</ele><time>2026-03-28T08:57:12Z</time></trkpt><trkpt lat="45.39689481145658" lon="10.552361136515106"><ele>130.0</ele><time>2026-03-28T08:57:13Z</time></trkpt><trkpt lat="45.39697293767558" lon="10.552523470128252"><ele>130.0</ele><time>2026-03-28T08:57:14Z</time></trkpt><trkpt lat="45.39703881548512" lon="10.552695176712051"><ele>130.0</ele><time>2026-03-28T08:57:15Z</time></trkpt><trkpt lat="45.39709913987408" lon="10.552879514155062"><ele>130.0</ele><time>2026-03-28T08:57:16Z</time></trkpt><trkpt lat="45.397132133343376" lon="10.553087792053097"><ele>130.0</ele><time>2026-03-28T08:57:17Z</time></trkpt><trkpt lat="45.39717746131452" lon="10.553303234055974"><ele>126.25</ele><time>2026-03-28T08:57:18Z</time></trkpt><trkpt lat="45.39724402108202" lon="10.553495228475573"><ele>122.5</ele><time>2026-03-28T08:57:19Z</time></trkpt><trkpt lat="45.39729905846604" lon="10.553662831508214"><ele>118.75</ele><time>2026-03-28T08:57:20Z</time></trkpt><trkpt lat="45.39736338619164" lon="10.553827108638336"><ele>115.0</ele><time>2026-03-28T08:57:21Z</time></trkpt><trkpt lat="45.39740801604003" lon="10.553991565757794"><ele>114.6</ele><time>2026-03-28T08:57:22Z</time></trkpt><trkpt lat="45.39746438651064" lon="10.554158241119492"><ele>114.2</ele><time>2026-03-28T08:57:23Z</time></trkpt><trkpt lat="45.3975109761631" lon="10.554307774127446"><ele>113.80000000000001</ele><time>2026-03-28T08:57:24Z</time></trkpt><trkpt lat="45.397542922373624" lon="10.554439992809511"><ele>113.4</ele><time>2026-03-28T08:57:25Z</time></trkpt><trkpt lat="45.397566492099706" lon="10.554560457558155"><ele>113.0</ele><time>2026-03-28T08:57:26Z</time></trkpt><trkpt lat="45.39757590888721" lon="10.554677702066824"><ele>112.25</ele><time>2026-03-28T08:57:27Z</time></trkpt><trkpt lat="45.39758665993757" lon="10.554824568124449"><ele>111.5</ele><time>2026-03-28T08:57:28Z</time></trkpt><trkpt lat="45.397557267455696" lon="10.554981805698631"><ele>110.75</ele><time>2026-03-28T08:57:29Z</time></trkpt><trkpt lat="45.397513479825726" lon="10.555162140857988"><ele>110.0</ele><time>2026-03-28T08:57:30Z</time></trkpt><trkpt lat="45.397456036023186" lon="10.555374631210615"><ele>108.33333333333333</ele><time>2026-03-28T08:57:31Z</time></trkpt><trkpt lat="45.39740604959347" lon="10.555610160749149"><ele>106.66666666666666</ele><time>2026-03-28T08:57:32Z</time></trkpt><trkpt lat="45.39732874747549" lon="10.555863510402714"><ele>105.0</ele><time>2026-03-28T08:57:33Z</time></trkpt><trkpt lat="45.39728644754386" lon="10.556133308641373"><ele>105.33333333333334</ele><time>2026-03-28T08:57:34Z</time></trkpt><trkpt lat="45.39726933328979" lon="10.556416414054192"><ele>105.66666666666667</ele><time>2026-03-28T08:57:35Z</time></trkpt><trkpt lat="45.397228038572706" lon="10.556671569589477"><ele>106.0</ele><time>2026-03-28T08:57:36Z</time></trkpt><trkpt lat="45.39722070400962" lon="10.55690566093411"><ele>106.0</ele><time>2026-03-28T08:57:37Z</time></trkpt><trkpt lat="45.39717456459718" lon="10.55710872287503"><ele>106.0</ele><time>2026-03-28T08:57:38Z</time></trkpt><trkpt lat="45.39712039767476" lon="10.557281716900425"><ele>106.0</ele><time>2026-03-28T08:57:39Z</time></trkpt><trkpt lat="45.39706016524694" lon="10.557420602100455"><ele>106.0</ele><time>2026-03-28T08:57:40Z</time></trkpt><trkpt lat="45.396977289129964" lon="10.557530469231635"><ele>105.33333333333334</ele><time>2026-03-28T08:57:41Z</time></trkpt><trkpt lat="45.39690252005558" lon="10.557688893726048"><ele>104.66666666666666</ele><time>2026-03-28T08:57:42Z</time></trkpt><trkpt lat="45.39682496596271" lon="10.557871870371574"><ele>104.0</ele><time>2026-03-28T08:57:43Z</time></trkpt><trkpt lat="45.39675154774955" lon="10.558090539536792"><ele>104.0</ele><time>2026-03-28T08:57:44Z</time></trkpt><trkpt lat="45.39673333671493" lon="10.558349984821469"><ele>104.0</ele><time>2026-03-28T08:57:45Z</time></trkpt><trkpt lat="45.39672305994865" lon="10.558622019482863"><ele>104.0</ele><time>2026-03-28T08:57:46Z</time></trkpt><trkpt lat="45.39673668985051" lon="10.558917936086306"><ele>104.0</ele><time>2026-03-28T08:57:47Z</time></trkpt><trkpt lat="45.39675912300499" lon="10.55922664777419"><ele>104.0</ele><time>2026-03-28T08:57:48Z</time></trkpt><trkpt lat="45.39678653118694" lon="10.559542985632497"><ele>104.0</ele><time>2026-03-28T08:57:49Z</time></trkpt><trkpt lat="45.39681077547646" lon="10.559854961234986"><ele>104.0</ele><time>2026-03-28T08:57:50Z</time></trkpt><trkpt lat="45.396828197411544" lon="10.560143876390596"><ele>104.0</ele><time>2026-03-28T08:57:51Z</time></trkpt><trkpt lat="45.39684270401172" lon="10.56040348818166"><ele>104.0</ele><time>2026-03-28T08:57:52Z</time></trkpt><trkpt lat="45.396846851096534" lon="10.560646316666732"><ele>104.0</ele><time>2026-03-28T08:57:53Z</time></trkpt><trkpt lat="45.396843732084996" lon="10.560882835625112"><ele>104.0</ele><time>2026-03-28T08:57:54Z</time></trkpt><trkpt lat="45.39683058349289" lon="10.56111570071546"><ele>104.0</ele><time>2026-03-28T08:57:55Z</time></trkpt><trkpt lat="45.3967938905107" lon="10.561360897190369"><ele>104.0</ele><time>2026-03-28T08:57:56Z</time></trkpt><trkpt lat="45.39673909460674" lon="10.561612986349779"><ele>104.0</ele><time>2026-03-28T08:57:57Z</time></trkpt><trkpt lat="45.39665734385796" lon="10.561861188489717"><ele>104.0</ele><time>2026-03-28T08:57:58Z</time></trkpt><trkpt lat="45.39660597066738" lon="10.56214313826773"><ele>103.0</ele><time>2026-03-28T08:57:59Z</time></trkpt><trkpt lat="45.396537641513525" lon="10.562399888412301"><ele>102.0</ele><time>2026-03-28T08:58:00Z</time></trkpt><trkpt lat="45.39645198634115" lon="10.562617175312639"><ele>101.0</ele><time>2026-03-28T08:58:01Z</time></trkpt><trkpt lat="45.39638700930126" lon="10.562810881426607"><ele>101.0</ele><time>2026-03-28T08:58:02Z</time></trkpt><trkpt lat="45.39632359704053" lon="10.562991105066041"><ele>101.0</ele><time>2026-03-28T08:58:03Z</time></trkpt><trkpt lat="45.396276834750594" lon="10.563162828222877"><ele>101.0</ele><time>2026-03-28T08:58:04Z</time></trkpt><trkpt lat="45.39622118945071" lon="10.56330035238772"><ele>101.0</ele><time>2026-03-28T08:58:05Z</time></trkpt><trkpt lat="45.396180417656126" lon="10.563418056839689"><ele>101.0</ele><time>2026-03-28T08:58:06Z</time></trkpt><trkpt lat="45.39613830307762" lon="10.563499678954805"><ele>101.0</ele><time>2026-03-28T08:58:07Z</time></trkpt><trkpt lat="45.396075126050256" lon="10.563629723911049"><ele>101.0</ele><time>2026-03-28T08:58:09Z</time></trkpt><trkpt lat="45.396165821783335" lon="10.563781236985731"><ele>101.0</ele><time>2026-03-28T08:58:10Z</time></trkpt><trkpt lat="45.396249797426975" lon="10.563891351169273"><ele>101.0</ele><time>2026-03-28T08:58:11Z</time></trkpt><trkpt lat="45.39635425565143" lon="10.564017352791033"><ele>101.66666666666666</ele><time>2026-03-28T08:58:12Z</time></trkpt><trkpt lat="45.39646921311854" lon="10.564170727031504"><ele>102.33333333333334</ele><time>2026-03-28T08:58:13Z</time></trkpt><trkpt lat="45.39659157606118" lon="10.564339480669203"><ele>103.0</ele><time>2026-03-28T08:58:14Z</time></trkpt><trkpt lat="45.39671461195921" lon="10.564516683413625"><ele>102.66666666666667</ele><time>2026-03-28T08:58:15Z</time></trkpt><trkpt lat="45.39684388134929" lon="10.564696734966072"><ele>102.33333333333334</ele><time>2026-03-28T08:58:16Z</time></trkpt><trkpt lat="45.39698256317032" lon="10.564882707635697"><ele>102.0</ele><time>2026-03-28T08:58:17Z</time></trkpt><trkpt lat="45.39709905553326" lon="10.565042967991038"><ele>102.0</ele><time>2026-03-28T08:58:18Z</time></trkpt><trkpt lat="45.39719814822412" lon="10.565179613019525"><ele>102.0</ele><time>2026-03-28T08:58:19Z</time></trkpt><trkpt lat="45.397284102114476" lon="10.565306808367849"><ele>102.0</ele><time>2026-03-28T08:58:20Z</time></trkpt><trkpt lat="45.39735516634762" lon="10.565428015333657"><ele>102.0</ele><time>2026-03-28T08:58:21Z</time></trkpt><trkpt lat="45.397417271878574" lon="10.565560949782245"><ele>102.0</ele><time>2026-03-28T08:58:22Z</time></trkpt><trkpt lat="45.39745942020771" lon="10.56573179727958"><ele>102.0</ele><time>2026-03-28T08:58:23Z</time></trkpt><trkpt lat="45.397495047661955" lon="10.565927672378212"><ele>102.0</ele><time>2026-03-28T08:58:24Z</time></trkpt><trkpt lat="45.39756537063994" lon="10.566122199041292"><ele>102.0</ele><time>2026-03-28T08:58:25Z</time></trkpt><trkpt lat="45.39767891619116" lon="10.566312827906593"><ele>102.0</ele><time>2026-03-28T08:58:26Z</time></trkpt><trkpt lat="45.39781133924489" lon="10.566505020651803"><ele>102.0</ele><time>2026-03-28T08:58:27Z</time></trkpt><trkpt lat="45.39794882317772" lon="10.566696578115227"><ele>102.0</ele><time>2026-03-28T08:58:28Z</time></trkpt><trkpt lat="45.39809311426999" lon="10.566895988865246"><ele>103.0</ele><time>2026-03-28T08:58:29Z</time></trkpt><trkpt lat="45.39824599128539" lon="10.567094096046796"><ele>104.0</ele><time>2026-03-28T08:58:30Z</time></trkpt><trkpt lat="45.398409755498825" lon="10.567293053603485"><ele>105.0</ele><time>2026-03-28T08:58:31Z</time></trkpt><trkpt lat="45.398575889199314" lon="10.567488953511848"><ele>105.0</ele><time>2026-03-28T08:58:32Z</time></trkpt><trkpt lat="45.39874312985692" lon="10.567678362868604"><ele>105.0</ele><time>2026-03-28T08:58:33Z</time></trkpt><trkpt lat="45.398904576135635" lon="10.56785567105077"><ele>105.0</ele><time>2026-03-28T08:58:34Z</time></trkpt><trkpt lat="45.39903593952766" lon="10.56802622869587"><ele>106.33333333333334</ele><time>2026-03-28T08:58:35Z</time></trkpt><trkpt lat="45.399150827587434" lon="10.568192080441596"><ele>107.66666666666667</ele><time>2026-03-28T08:58:36Z</time></trkpt><trkpt lat="45.39926140551153" lon="10.568333555701106"><ele>109.0</ele><time>2026-03-28T08:58:37Z</time></trkpt><trkpt lat="45.39936681322487" lon="10.568467671989481"><ele>109.00000000000001</ele><time>2026-03-28T08:58:38Z</time></trkpt><trkpt lat="45.399451275674515" lon="10.568586623077465"><ele>109.0</ele><time>2026-03-28T08:58:39Z</time></trkpt><trkpt lat="45.39951806720276" lon="10.568677330039568"><ele>109.0</ele><time>2026-03-28T08:58:40Z</time></trkpt><trkpt lat="45.39956398414638" lon="10.56874032584081"><ele>109.0</ele><time>2026-03-28T08:58:41Z</time></trkpt><trkpt lat="45.399602345359156" lon="10.568816361862824"><ele>109.00000000000001</ele><time>2026-03-28T08:58:43Z</time></trkpt><trkpt lat="45.399629699298345" lon="10.568904836488763"><ele>109.0</ele><time>2026-03-28T08:58:49Z</time></trkpt><trkpt lat="45.39948894546336" lon="10.569016194854125"><ele>110.25</ele><time>2026-03-28T08:58:50Z</time></trkpt><trkpt lat="45.39941293788401" lon="10.569125108377722"><ele>111.5</ele><time>2026-03-28T08:58:51Z</time></trkpt><trkpt lat="45.399330348110894" lon="10.569236335307325"><ele>112.75</ele><time>2026-03-28T08:58:52Z</time></trkpt><trkpt lat="45.39923592508206" lon="10.569375185144878"><ele>114.0</ele><time>2026-03-28T08:58:53Z</time></trkpt><trkpt lat="45.39913464587529" lon="10.569522150888176"><ele>115.0</ele><time>2026-03-28T08:58:54Z</time></trkpt><trkpt lat="45.399028446301614" lon="10.569673937303383"><ele>116.0</ele><time>2026-03-28T08:58:55Z</time></trkpt><trkpt lat="45.39890946416604" lon="10.569841994283884"><ele>117.0</ele><time>2026-03-28T08:58:56Z</time></trkpt><trkpt lat="45.39878893629453" lon="10.570007085966543"><ele>117.66666666666666</ele><time>2026-03-28T08:58:57Z</time></trkpt><trkpt lat="45.39866033832523" lon="10.570187398283837"><ele>118.33333333333333</ele><time>2026-03-28T08:58:58Z</time></trkpt><trkpt lat="45.39852746664569" lon="10.570365443364091"><ele>119.0</ele><time>2026-03-28T08:58:59Z</time></trkpt><trkpt lat="45.39839414198421" lon="10.570532208167364"><ele>119.0</ele><time>2026-03-28T08:59:00Z</time></trkpt><trkpt lat="45.39825220191429" lon="10.57068036684025"><ele>119.0</ele><time>2026-03-28T08:59:01Z</time></trkpt><trkpt lat="45.398108427722846" lon="10.570829926424771"><ele>119.0</ele><time>2026-03-28T08:59:02Z</time></trkpt><trkpt lat="45.39796726461816" lon="10.570976478586294"><ele>118.66666666666666</ele><time>2026-03-28T08:59:03Z</time></trkpt><trkpt lat="45.39782581193808" lon="10.571145445578077"><ele>118.33333333333334</ele><time>2026-03-28T08:59:04Z</time></trkpt><trkpt lat="45.397669257883635" lon="10.571304547308541"><ele>118.0</ele><time>2026-03-28T08:59:05Z</time></trkpt><trkpt lat="45.39751669764653" lon="10.57148316584242"><ele>118.0</ele><time>2026-03-28T08:59:06Z</time></trkpt><trkpt lat="45.397358169105004" lon="10.571671938727475"><ele>118.0</ele><time>2026-03-28T08:59:07Z</time></trkpt><trkpt lat="45.39719521544206" lon="10.571866713295027"><ele>118.0</ele><time>2026-03-28T08:59:08Z</time></trkpt><trkpt lat="45.39703043587233" lon="10.572063349044315"><ele>117.66666666666667</ele><time>2026-03-28T08:59:09Z</time></trkpt><trkpt lat="45.39686321162428" lon="10.5722612504939"><ele>117.33333333333334</ele><time>2026-03-28T08:59:10Z</time></trkpt><trkpt lat="45.39670246163684" lon="10.572452838321539"><ele>117.0</ele><time>2026-03-28T08:59:11Z</time></trkpt><trkpt lat="45.39656312190125" lon="10.57264860883654"><ele>117.0</ele><time>2026-03-28T08:59:12Z</time></trkpt><trkpt lat="45.396410327126304" lon="10.572770305204376"><ele>117.0</ele><time>2026-03-28T08:59:13Z</time></trkpt><trkpt lat="45.39625525727978" lon="10.572888125115266"><ele>117.0</ele><time>2026-03-28T08:59:14Z</time></trkpt><trkpt lat="45.39608921820053" lon="10.572986567194977"><ele>117.66666666666666</ele><time>2026-03-28T08:59:15Z</time></trkpt><trkpt lat="45.39590457971191" lon="10.57308554641383"><ele>118.33333333333333</ele><time>2026-03-28T08:59:16Z</time></trkpt><trkpt lat="45.39572029180067" lon="10.573186682020644"><ele>119.0</ele><time>2026-03-28T08:59:17Z</time></trkpt><trkpt lat="45.39554228145526" lon="10.573341432704245"><ele>119.0</ele><time>2026-03-28T08:59:18Z</time></trkpt><trkpt lat="45.395358607058604" lon="10.573516345452926"><ele>119.0</ele><time>2026-03-28T08:59:19Z</time></trkpt><trkpt lat="45.395180118609" lon="10.57372038177268"><ele>119.0</ele><time>2026-03-28T08:59:20Z</time></trkpt><trkpt lat="45.39500120022013" lon="10.573925753171672"><ele>119.0</ele><time>2026-03-28T08:59:21Z</time></trkpt><trkpt lat="45.39481496151823" lon="10.574100387162876"><ele>119.0</ele><time>2026-03-28T08:59:22Z</time></trkpt><trkpt lat="45.39463942060594" lon="10.57429019070746"><ele>119.0</ele><time>2026-03-28T08:59:23Z</time></trkpt><trkpt lat="45.394463619982176" lon="10.574497582404772"><ele>119.0</ele><time>2026-03-28T08:59:24Z</time></trkpt><trkpt lat="45.394299738822944" lon="10.5746924564244"><ele>119.0</ele><time>2026-03-28T08:59:25Z</time></trkpt><trkpt lat="45.39415558939212" lon="10.574889374674996"><ele>119.0</ele><time>2026-03-28T08:59:26Z</time></trkpt><trkpt lat="45.39402133268771" lon="10.575066448151963"><ele>119.0</ele><time>2026-03-28T08:59:27Z</time></trkpt><trkpt lat="45.3938826731913" lon="10.575246182529765"><ele>118.66666666666666</ele><time>2026-03-28T08:59:28Z</time></trkpt><trkpt lat="45.39372698007272" lon="10.575415243944835"><ele>118.33333333333334</ele><time>2026-03-28T08:59:29Z</time></trkpt><trkpt lat="45.39358964662318" lon="10.57561492330639"><ele>118.0</ele><time>2026-03-28T08:59:30Z</time></trkpt><trkpt lat="45.393455829790604" lon="10.575844788609416"><ele>118.0</ele><time>2026-03-28T08:59:31Z</time></trkpt><trkpt lat="45.39333550003532" lon="10.576095347627556"><ele>118.0</ele><time>2026-03-28T08:59:32Z</time></trkpt><trkpt lat="45.39321101339162" lon="10.576355615319263"><ele>118.0</ele><time>2026-03-28T08:59:33Z</time></trkpt><trkpt lat="45.39308721022967" lon="10.576612296533177"><ele>118.0</ele><time>2026-03-28T08:59:34Z</time></trkpt><trkpt lat="45.39296216002306" lon="10.576869463795209"><ele>118.0</ele><time>2026-03-28T08:59:35Z</time></trkpt><trkpt lat="45.39285308927105" lon="10.577090559707232"><ele>118.0</ele><time>2026-03-28T08:59:36Z</time></trkpt><trkpt lat="45.39274915359596" lon="10.577291223757209"><ele>118.0</ele><time>2026-03-28T08:59:37Z</time></trkpt><trkpt lat="45.39264229288019" lon="10.577483723532897"><ele>118.0</ele><time>2026-03-28T08:59:38Z</time></trkpt><trkpt lat="45.3925219207413" lon="10.577683237813693"><ele>118.0</ele><time>2026-03-28T08:59:39Z</time></trkpt><trkpt lat="45.39239164819811" lon="10.577889260484243"><ele>117.66666666666667</ele><time>2026-03-28T08:59:40Z</time></trkpt><trkpt lat="45.39224983949791" lon="10.578105445016105"><ele>117.33333333333334</ele><time>2026-03-28T08:59:41Z</time></trkpt><trkpt lat="45.39210716653161" lon="10.578312319986436"><ele>117.0</ele><time>2026-03-28T08:59:42Z</time></trkpt><trkpt lat="45.3919793914101" lon="10.578532972911674"><ele>117.0</ele><time>2026-03-28T08:59:43Z</time></trkpt><trkpt lat="45.39183464370677" lon="10.57871142808775"><ele>117.0</ele><time>2026-03-28T08:59:44Z</time></trkpt><trkpt lat="45.39170697194337" lon="10.57888287209385"><ele>117.0</ele><time>2026-03-28T08:59:45Z</time></trkpt><trkpt lat="45.391585136749164" lon="10.579027163174171"><ele>117.0</ele><time>2026-03-28T08:59:46Z</time></trkpt><trkpt lat="45.391474415269904" lon="10.579173401517263"><ele>117.0</ele><time>2026-03-28T08:59:47Z</time></trkpt><trkpt lat="45.39135573903491" lon="10.579288551083087"><ele>117.0</ele><time>2026-03-28T08:59:48Z</time></trkpt><trkpt lat="45.39124725272575" lon="10.579402013053636"><ele>117.0</ele><time>2026-03-28T08:59:49Z</time></trkpt><trkpt lat="45.39115749250487" lon="10.579513343945978"><ele>118.0</ele><time>2026-03-28T08:59:50Z</time></trkpt><trkpt lat="45.39108746904773" lon="10.579644894200872"><ele>118.99999999999999</ele><time>2026-03-28T08:59:51Z</time></trkpt><trkpt lat="45.39103887068414" lon="10.579771544066373"><ele>119.99999999999999</ele><time>2026-03-28T08:59:52Z</time></trkpt><trkpt lat="45.391003781341496" lon="10.579896244216293"><ele>121.0</ele><time>2026-03-28T08:59:53Z</time></trkpt><trkpt lat="45.39096928964078" lon="10.580013582741309"><ele>122.0</ele><time>2026-03-28T08:59:54Z</time></trkpt><trkpt lat="45.39094161135375" lon="10.580107582046212"><ele>121.99999999999999</ele><time>2026-03-28T08:59:55Z</time></trkpt><trkpt lat="45.390918194027016" lon="10.580195600515477"><ele>122.0</ele><time>2026-03-28T08:59:56Z</time></trkpt><trkpt lat="45.39086230688374" lon="10.580333940967407"><ele>122.0</ele><time>2026-03-28T08:59:58Z</time></trkpt><trkpt lat="45.390827575306375" lon="10.580424303597347"><ele>122.0</ele><time>2026-03-28T09:00:00Z</time></trkpt><trkpt lat="45.39089054312777" lon="10.580305635079696"><ele>121.99999999999999</ele><time>2026-03-28T09:00:07Z</time></trkpt><trkpt lat="45.39096034008656" lon="10.580232133330906"><ele>122.0</ele><time>2026-03-28T09:00:10Z</time></trkpt><trkpt lat="45.391084327387084" lon="10.580307107414066"><ele>122.0</ele><time>2026-03-28T09:00:12Z</time></trkpt><trkpt lat="45.391145356122834" lon="10.580402279558918"><ele>121.99999999999999</ele><time>2026-03-28T09:00:14Z</time></trkpt><trkpt lat="45.39107991267411" lon="10.580555631150434"><ele>121.99999999999999</ele><time>2026-03-28T09:00:16Z</time></trkpt><trkpt lat="45.391047164073875" lon="10.580692571072616"><ele>122.0</ele><time>2026-03-28T09:00:17Z</time></trkpt><trkpt lat="45.390997118998236" lon="10.580825005407275"><ele>122.0</ele><time>2026-03-28T09:00:18Z</time></trkpt><trkpt lat="45.390941902806404" lon="10.580985873399229"><ele>122.0</ele><time>2026-03-28T09:00:19Z</time></trkpt><trkpt lat="45.39088371064717" lon="10.581152851277222"><ele>122.0</ele><time>2026-03-28T09:00:20Z</time></trkpt><trkpt lat="45.39081786654948" lon="10.581314684162539"><ele>122.0</ele><time>2026-03-28T09:00:21Z</time></trkpt><trkpt lat="45.39073865939606" lon="10.58145716439887"><ele>122.0</ele><time>2026-03-28T09:00:22Z</time></trkpt><trkpt lat="45.390643880414856" lon="10.581571477905811"><ele>121.0</ele><time>2026-03-28T09:00:23Z</time></trkpt><trkpt lat="45.390576967635255" lon="10.58177148876891"><ele>120.0</ele><time>2026-03-28T09:00:24Z</time></trkpt><trkpt lat="45.39051421291013" lon="10.581978133211841"><ele>119.0</ele><time>2026-03-28T09:00:25Z</time></trkpt><trkpt lat="45.390446543730846" lon="10.58213716485336"><ele>118.0</ele><time>2026-03-28T09:00:26Z</time></trkpt><trkpt lat="45.390403797950725" lon="10.582304439310558"><ele>118.0</ele><time>2026-03-28T09:00:27Z</time></trkpt><trkpt lat="45.3903432640259" lon="10.582442356601993"><ele>118.0</ele><time>2026-03-28T09:00:28Z</time></trkpt><trkpt lat="45.39028319784066" lon="10.582585897716202"><ele>118.0</ele><time>2026-03-28T09:00:29Z</time></trkpt><trkpt lat="45.39020936550008" lon="10.582710397299131"><ele>118.0</ele><time>2026-03-28T09:00:30Z</time></trkpt><trkpt lat="45.39014883331286" lon="10.582836054405773"><ele>118.33333333333334</ele><time>2026-03-28T09:00:31Z</time></trkpt><trkpt lat="45.390100151229284" lon="10.582963678641846"><ele>118.66666666666667</ele><time>2026-03-28T09:00:32Z</time></trkpt><trkpt lat="45.39005032690412" lon="10.583076288549075"><ele>119.0</ele><time>2026-03-28T09:00:33Z</time></trkpt><trkpt lat="45.389997594026596" lon="10.583169740746408"><ele>119.33333333333334</ele><time>2026-03-28T09:00:34Z</time></trkpt><trkpt lat="45.38995075157691" lon="10.583263437095475"><ele>119.66666666666667</ele><time>2026-03-28T09:00:35Z</time></trkpt><trkpt lat="45.38991013574214" lon="10.583348780287197"><ele>120.0</ele><time>2026-03-28T09:00:36Z</time></trkpt><trkpt lat="45.38986141772185" lon="10.58341100464512"><ele>120.0</ele><time>2026-03-28T09:00:37Z</time></trkpt><trkpt lat="45.389821827655595" lon="10.583485614331082"><ele>120.0</ele><time>2026-03-28T09:00:38Z</time></trkpt><trkpt lat="45.3898798832937" lon="10.583639084752537"><ele>120.0</ele><time>2026-03-28T09:00:39Z</time></trkpt><trkpt lat="45.389902554222964" lon="10.583813128632524"><ele>120.0</ele><time>2026-03-28T09:00:41Z</time></trkpt><trkpt lat="45.389975222052755" lon="10.583862918840651"><ele>120.0</ele><time>2026-03-28T09:00:42Z</time></trkpt><trkpt lat="45.390038911936664" lon="10.583915115790296"><ele>119.8</ele><time>2026-03-28T09:00:43Z</time></trkpt><trkpt lat="45.39012052680409" lon="10.58394546831456"><ele>119.6</ele><time>2026-03-28T09:00:44Z</time></trkpt><trkpt lat="45.39021539741124" lon="10.583955442847017"><ele>119.4</ele><time>2026-03-28T09:00:45Z</time></trkpt><trkpt lat="45.3903367570341" lon="10.58395681815307"><ele>119.2</ele><time>2026-03-28T09:00:46Z</time></trkpt><trkpt lat="45.390466834367736" lon="10.583952287422385"><ele>119.0</ele><time>2026-03-28T09:00:47Z</time></trkpt><trkpt lat="45.3905925443467" lon="10.583932227532916"><ele>119.0</ele><time>2026-03-28T09:00:48Z</time></trkpt><trkpt lat="45.390710430354005" lon="10.58392155274304"><ele>119.0</ele><time>2026-03-28T09:00:49Z</time></trkpt><trkpt lat="45.39082002362474" lon="10.583934689110647"><ele>119.0</ele><time>2026-03-28T09:00:50Z</time></trkpt><trkpt lat="45.39092559467887" lon="10.583935970565754"><ele>119.0</ele><time>2026-03-28T09:00:51Z</time></trkpt><trkpt lat="45.3910190072942" lon="10.583932970338392"><ele>119.0</ele><time>2026-03-28T09:00:52Z</time></trkpt><trkpt lat="45.39109931254985" lon="10.583973577112845"><ele>119.0</ele><time>2026-03-28T09:00:53Z</time></trkpt><trkpt lat="45.39116824377654" lon="10.58404773685126"><ele>119.0</ele><time>2026-03-28T09:00:54Z</time></trkpt><trkpt lat="45.391248070852285" lon="10.584104068654781"><ele>119.0</ele><time>2026-03-28T09:00:55Z</time></trkpt><trkpt lat="45.39132975271993" lon="10.584190304601707"><ele>119.0</ele><time>2026-03-28T09:00:56Z</time></trkpt><trkpt lat="45.391401303081636" lon="10.584287604361913"><ele>119.0</ele><time>2026-03-28T09:00:57Z</time></trkpt><trkpt lat="45.39148398767074" lon="10.58435850118667"><ele>118.33333333333333</ele><time>2026-03-28T09:00:58Z</time></trkpt><trkpt lat="45.391553313906236" lon="10.584459820205533"><ele>117.66666666666666</ele><time>2026-03-28T09:00:59Z</time></trkpt><trkpt lat="45.39162118608955" lon="10.584548466728998"><ele>117.0</ele><time>2026-03-28T09:01:00Z</time></trkpt><trkpt lat="45.39167344181401" lon="10.584635476607913"><ele>116.33333333333334</ele><time>2026-03-28T09:01:01Z</time></trkpt><trkpt lat="45.39171620112199" lon="10.584712907145656"><ele>115.66666666666667</ele><time>2026-03-28T09:01:02Z</time></trkpt><trkpt lat="45.39175208745843" lon="10.584816737276324"><ele>115.0</ele><time>2026-03-28T09:01:03Z</time></trkpt><trkpt lat="45.39175623178706" lon="10.58492186689667"><ele>115.0</ele><time>2026-03-28T09:01:04Z</time></trkpt><trkpt lat="45.391745167645865" lon="10.585053555053657"><ele>115.0</ele><time>2026-03-28T09:01:05Z</time></trkpt><trkpt lat="45.39172432808158" lon="10.585209017385186"><ele>115.0</ele><time>2026-03-28T09:01:06Z</time></trkpt><trkpt lat="45.39171270644195" lon="10.585393225730515"><ele>115.0</ele><time>2026-03-28T09:01:07Z</time></trkpt><trkpt lat="45.39168779549665" lon="10.58559481620339"><ele>115.0</ele><time>2026-03-28T09:01:08Z</time></trkpt><trkpt lat="45.391668143021036" lon="10.585789963837913"><ele>115.0</ele><time>2026-03-28T09:01:09Z</time></trkpt><trkpt lat="45.391634304061206" lon="10.585947928844508"><ele>115.0</ele><time>2026-03-28T09:01:10Z</time></trkpt><trkpt lat="45.39160727320381" lon="10.586087374284666"><ele>115.0</ele><time>2026-03-28T09:01:11Z</time></trkpt><trkpt lat="45.39157040833969" lon="10.586225647330247"><ele>114.75</ele><time>2026-03-28T09:01:12Z</time></trkpt><trkpt lat="45.39152147966426" lon="10.586380455107783"><ele>114.5</ele><time>2026-03-28T09:01:13Z</time></trkpt><trkpt lat="45.391457600919026" lon="10.58652218626132"><ele>114.25</ele><time>2026-03-28T09:01:14Z</time></trkpt><trkpt lat="45.3914040986544" lon="10.586673955790598"><ele>114.0</ele><time>2026-03-28T09:01:15Z</time></trkpt><trkpt lat="45.39134085412642" lon="10.586808025351255"><ele>114.2</ele><time>2026-03-28T09:01:16Z</time></trkpt><trkpt lat="45.391291224440685" lon="10.58693326579373"><ele>114.4</ele><time>2026-03-28T09:01:17Z</time></trkpt><trkpt lat="45.391268164591004" lon="10.587076392410008"><ele>114.6</ele><time>2026-03-28T09:01:18Z</time></trkpt><trkpt lat="45.39126530505017" lon="10.587209213773201"><ele>114.8</ele><time>2026-03-28T09:01:19Z</time></trkpt><trkpt lat="45.391281815994674" lon="10.587347961436368"><ele>115.0</ele><time>2026-03-28T09:01:20Z</time></trkpt><trkpt lat="45.3913169631744" lon="10.587469269637161"><ele>115.0</ele><time>2026-03-28T09:01:21Z</time></trkpt><trkpt lat="45.39139074835222" lon="10.5875452307806"><ele>115.0</ele><time>2026-03-28T09:01:22Z</time></trkpt><trkpt lat="45.391453399007965" lon="10.58762885097254"><ele>115.0</ele><time>2026-03-28T09:01:23Z</time></trkpt><trkpt lat="45.391534197673955" lon="10.587717014506593"><ele>115.0</ele><time>2026-03-28T09:01:24Z</time></trkpt><trkpt lat="45.391619050108496" lon="10.587835429426883"><ele>115.0</ele><time>2026-03-28T09:01:25Z</time></trkpt><trkpt lat="45.39172117739383" lon="10.587941222946231"><ele>115.75</ele><time>2026-03-28T09:01:26Z</time></trkpt><trkpt lat="45.391793960355116" lon="10.588088830989488"><ele>116.5</ele><time>2026-03-28T09:01:27Z</time></trkpt><trkpt lat="45.3918502628426" lon="10.588238675263968"><ele>117.25</ele><time>2026-03-28T09:01:28Z</time></trkpt><trkpt lat="45.39189103145569" lon="10.588393823568168"><ele>118.0</ele><time>2026-03-28T09:01:29Z</time></trkpt><trkpt lat="45.39193182348384" lon="10.588567251762894"><ele>118.0</ele><time>2026-03-28T09:01:30Z</time></trkpt><trkpt lat="45.39196634384373" lon="10.588757117355232"><ele>118.0</ele><time>2026-03-28T09:01:31Z</time></trkpt><trkpt lat="45.39199086654656" lon="10.588967520708946"><ele>118.0</ele><time>2026-03-28T09:01:32Z</time></trkpt><trkpt lat="45.3920133061212" lon="10.589182615184704"><ele>118.0</ele><time>2026-03-28T09:01:33Z</time></trkpt><trkpt lat="45.392027889237426" lon="10.589389418084385"><ele>117.75</ele><time>2026-03-28T09:01:34Z</time></trkpt><trkpt lat="45.39202972320284" lon="10.589601912243939"><ele>117.5</ele><time>2026-03-28T09:01:35Z</time></trkpt><trkpt lat="45.3920236371254" lon="10.589790203874175"><ele>117.25</ele><time>2026-03-28T09:01:36Z</time></trkpt><trkpt lat="45.39201799389004" lon="10.589960418446983"><ele>117.0</ele><time>2026-03-28T09:01:37Z</time></trkpt><trkpt lat="45.3920154943335" lon="10.590130970781471"><ele>117.0</ele><time>2026-03-28T09:01:38Z</time></trkpt><trkpt lat="45.39204327802877" lon="10.590304948058535"><ele>117.0</ele><time>2026-03-28T09:01:39Z</time></trkpt><trkpt lat="45.39204436732265" lon="10.590470216360712"><ele>117.0</ele><time>2026-03-28T09:01:40Z</time></trkpt><trkpt lat="45.392048790401645" lon="10.590627934733558"><ele>117.0</ele><time>2026-03-28T09:01:41Z</time></trkpt><trkpt lat="45.39205923305861" lon="10.590765760702114"><ele>116.8</ele><time>2026-03-28T09:01:42Z</time></trkpt><trkpt lat="45.392085572187206" lon="10.590898752519934"><ele>116.6</ele><time>2026-03-28T09:01:43Z</time></trkpt><trkpt lat="45.39213440030915" lon="10.591038345019408"><ele>116.39999999999999</ele><time>2026-03-28T09:01:44Z</time></trkpt><trkpt lat="45.3921918971496" lon="10.591149195750207"><ele>116.19999999999999</ele><time>2026-03-28T09:01:45Z</time></trkpt><trkpt lat="45.39227123707646" lon="10.5912696364991"><ele>116.0</ele><time>2026-03-28T09:01:46Z</time></trkpt><trkpt lat="45.39234164104279" lon="10.591418203928011"><ele>117.25</ele><time>2026-03-28T09:01:47Z</time></trkpt><trkpt lat="45.39241815413275" lon="10.591547651260624"><ele>118.5</ele><time>2026-03-28T09:01:48Z</time></trkpt><trkpt lat="45.392480286592196" lon="10.591686072290376"><ele>119.75</ele><time>2026-03-28T09:01:49Z</time></trkpt><trkpt lat="45.39253328438803" lon="10.591828067787212"><ele>121.0</ele><time>2026-03-28T09:01:50Z</time></trkpt><trkpt lat="45.39258339888872" lon="10.59197132678719"><ele>120.83333333333334</ele><time>2026-03-28T09:01:51Z</time></trkpt><trkpt lat="45.39259872727081" lon="10.592115932822331"><ele>120.66666666666667</ele><time>2026-03-28T09:01:52Z</time></trkpt><trkpt lat="45.39260658957932" lon="10.592259121494807"><ele>120.5</ele><time>2026-03-28T09:01:53Z</time></trkpt><trkpt lat="45.39260153913974" lon="10.592370197535264"><ele>120.33333333333334</ele><time>2026-03-28T09:01:54Z</time></trkpt><trkpt lat="45.392575367154095" lon="10.592484190156545"><ele>120.16666666666667</ele><time>2026-03-28T09:01:55Z</time></trkpt><trkpt lat="45.39254584848699" lon="10.592585975930287"><ele>120.0</ele><time>2026-03-28T09:01:56Z</time></trkpt><trkpt lat="45.39252166407623" lon="10.592698862304884"><ele>120.0</ele><time>2026-03-28T09:01:57Z</time></trkpt><trkpt lat="45.392520818811626" lon="10.592797044389854"><ele>120.0</ele><time>2026-03-28T09:01:58Z</time></trkpt><trkpt lat="45.392533510489315" lon="10.59288624858961"><ele>120.0</ele><time>2026-03-28T09:01:59Z</time></trkpt><trkpt lat="45.39256672979028" lon="10.592969918019762"><ele>120.0</ele><time>2026-03-28T09:02:00Z</time></trkpt><trkpt lat="45.39262600375142" lon="10.593051546762508"><ele>120.0</ele><time>2026-03-28T09:02:01Z</time></trkpt><trkpt lat="45.39270848382104" lon="10.593118503057527"><ele>120.0</ele><time>2026-03-28T09:02:02Z</time></trkpt><trkpt lat="45.392813655933395" lon="10.593159427326581"><ele>119.75</ele><time>2026-03-28T09:02:03Z</time></trkpt><trkpt lat="45.392941569969345" lon="10.593198961177947"><ele>119.5</ele><time>2026-03-28T09:02:04Z</time></trkpt><trkpt lat="45.39307509941024" lon="10.593231820899089"><ele>119.25</ele><time>2026-03-28T09:02:05Z</time></trkpt><trkpt lat="45.393181105929635" lon="10.593302028603777"><ele>119.0</ele><time>2026-03-28T09:02:06Z</time></trkpt><trkpt lat="45.39327088121943" lon="10.593375220649449"><ele>118.4</ele><time>2026-03-28T09:02:07Z</time></trkpt><trkpt lat="45.393359661723565" lon="10.593453927690714"><ele>117.80000000000001</ele><time>2026-03-28T09:02:08Z</time></trkpt><trkpt lat="45.39345892063625" lon="10.593534946850614"><ele>117.19999999999999</ele><time>2026-03-28T09:02:09Z</time></trkpt><trkpt lat="45.393558896157394" lon="10.593618338913116"><ele>116.6</ele><time>2026-03-28T09:02:10Z</time></trkpt><trkpt lat="45.3936655167372" lon="10.593676101778275"><ele>116.0</ele><time>2026-03-28T09:02:11Z</time></trkpt><trkpt lat="45.3937576821646" lon="10.593751921163056"><ele>116.0</ele><time>2026-03-28T09:02:12Z</time></trkpt><trkpt lat="45.39383347225933" lon="10.593810355461114"><ele>116.0</ele><time>2026-03-28T09:02:13Z</time></trkpt><trkpt lat="45.39388330046009" lon="10.593895361911713"><ele>116.0</ele><time>2026-03-28T09:02:14Z</time></trkpt><trkpt lat="45.393918500240915" lon="10.59406430307632"><ele>116.0</ele><time>2026-03-28T09:02:16Z</time></trkpt><trkpt lat="45.393937176395575" lon="10.594181320601656"><ele>116.0</ele><time>2026-03-28T09:02:17Z</time></trkpt><trkpt lat="45.39392788550771" lon="10.594318536611357"><ele>115.5</ele><time>2026-03-28T09:02:18Z</time></trkpt><trkpt lat="45.39391764797773" lon="10.59449185141565"><ele>115.0</ele><time>2026-03-28T09:02:19Z</time></trkpt><trkpt lat="45.39390128926168" lon="10.59468682131537"><ele>114.5</ele><time>2026-03-28T09:02:20Z</time></trkpt><trkpt lat="45.393884884553295" lon="10.594861076718784"><ele>114.0</ele><time>2026-03-28T09:02:21Z</time></trkpt><trkpt lat="45.3938702615865" lon="10.595012289647979"><ele>113.83333333333333</ele><time>2026-03-28T09:02:22Z</time></trkpt><trkpt lat="45.39385613393211" lon="10.595166298163024"><ele>113.66666666666666</ele><time>2026-03-28T09:02:23Z</time></trkpt><trkpt lat="45.39386113559734" lon="10.595307564659711"><ele>113.5</ele><time>2026-03-28T09:02:24Z</time></trkpt><trkpt lat="45.39384727817062" lon="10.59540745842308"><ele>113.33333333333333</ele><time>2026-03-28T09:02:25Z</time></trkpt><trkpt lat="45.39383954042707" lon="10.59550468177465"><ele>113.16666666666666</ele><time>2026-03-28T09:02:26Z</time></trkpt><trkpt lat="45.39384123157021" lon="10.595620419303438"><ele>113.0</ele><time>2026-03-28T09:02:27Z</time></trkpt><trkpt lat="45.393859728994116" lon="10.59571761788976"><ele>113.49999999999999</ele><time>2026-03-28T09:02:28Z</time></trkpt><trkpt lat="45.39389302219776" lon="10.595794975744354"><ele>114.0</ele><time>2026-03-28T09:02:29Z</time></trkpt><trkpt lat="45.393968308785915" lon="10.59587046188545"><ele>114.5</ele><time>2026-03-28T09:02:31Z</time></trkpt><trkpt lat="45.39407646933759" lon="10.595922549911968"><ele>115.0</ele><time>2026-03-28T09:02:33Z</time></trkpt><trkpt lat="45.39414896170761" lon="10.59595599551644"><ele>115.49999999999999</ele><time>2026-03-28T09:02:34Z</time></trkpt><trkpt lat="45.394242483520074" lon="10.595982557136335"><ele>116.0</ele><time>2026-03-28T09:02:35Z</time></trkpt><trkpt lat="45.39433843121745" lon="10.596034649340682"><ele>116.0</ele><time>2026-03-28T09:02:36Z</time></trkpt><trkpt lat="45.394437396226984" lon="10.59607090454772"><ele>116.0</ele><time>2026-03-28T09:02:37Z</time></trkpt><trkpt lat="45.394541628356016" lon="10.596119518305029"><ele>116.0</ele><time>2026-03-28T09:02:38Z</time></trkpt><trkpt lat="45.39465430911076" lon="10.596158355280943"><ele>116.0</ele><time>2026-03-28T09:02:39Z</time></trkpt><trkpt lat="45.394775624048656" lon="10.59619659217491"><ele>115.0</ele><time>2026-03-28T09:02:40Z</time></trkpt><trkpt lat="45.39490528957705" lon="10.596231083815232"><ele>114.0</ele><time>2026-03-28T09:02:41Z</time></trkpt><trkpt lat="45.39503472399553" lon="10.596271993253033"><ele>113.0</ele><time>2026-03-28T09:02:42Z</time></trkpt><trkpt lat="45.395149035153246" lon="10.596307307176467"><ele>112.0</ele><time>2026-03-28T09:02:43Z</time></trkpt><trkpt lat="45.39525128521821" lon="10.59635920672062"><ele>112.0</ele><time>2026-03-28T09:02:44Z</time></trkpt><trkpt lat="45.39533105375033" lon="10.596459570134051"><ele>111.99999999999999</ele><time>2026-03-28T09:02:45Z</time></trkpt><trkpt lat="45.39539607897905" lon="10.596555560846955"><ele>111.99999999999999</ele><time>2026-03-28T09:02:46Z</time></trkpt><trkpt lat="45.39546324790262" lon="10.596679140062523"><ele>112.0</ele><time>2026-03-28T09:02:47Z</time></trkpt><trkpt lat="45.395538708293365" lon="10.596796570532463"><ele>112.0</ele><time>2026-03-28T09:02:48Z</time></trkpt><trkpt lat="45.39560065004644" lon="10.596913285497722"><ele>111.33333333333334</ele><time>2026-03-28T09:02:49Z</time></trkpt><trkpt lat="45.39564402623661" lon="10.596981432992765"><ele>110.66666666666667</ele><time>2026-03-28T09:02:50Z</time></trkpt><trkpt lat="45.39570532811005" lon="10.597031733489802"><ele>110.0</ele><time>2026-03-28T09:02:51Z</time></trkpt><trkpt lat="45.39576685530934" lon="10.597071975527221"><ele>109.33333333333334</ele><time>2026-03-28T09:02:52Z</time></trkpt><trkpt lat="45.39584123725734" lon="10.597102268242606"><ele>108.66666666666667</ele><time>2026-03-28T09:02:53Z</time></trkpt><trkpt lat="45.395927276636776" lon="10.59713351414349"><ele>108.0</ele><time>2026-03-28T09:02:54Z</time></trkpt><trkpt lat="45.39604198949286" lon="10.597153938527446"><ele>108.0</ele><time>2026-03-28T09:02:55Z</time></trkpt><trkpt lat="45.39614112182985" lon="10.59717759899882"><ele>108.00000000000001</ele><time>2026-03-28T09:02:56Z</time></trkpt><trkpt lat="45.39623951059418" lon="10.59721591428881"><ele>108.00000000000001</ele><time>2026-03-28T09:02:57Z</time></trkpt><trkpt lat="45.39635302706359" lon="10.597253862564958"><ele>108.0</ele><time>2026-03-28T09:02:58Z</time></trkpt><trkpt lat="45.396460935957116" lon="10.59728463027518"><ele>108.0</ele><time>2026-03-28T09:02:59Z</time></trkpt><trkpt lat="45.396579434338825" lon="10.597266471643922"><ele>107.16666666666667</ele><time>2026-03-28T09:03:00Z</time></trkpt><trkpt lat="45.396677887365726" lon="10.59720607088913"><ele>106.33333333333334</ele><time>2026-03-28T09:03:01Z</time></trkpt><trkpt lat="45.39677249168618" lon="10.597170075154617"><ele>105.5</ele><time>2026-03-28T09:03:02Z</time></trkpt><trkpt lat="45.39684687294483" lon="10.597130248065428"><ele>104.66666666666667</ele><time>2026-03-28T09:03:03Z</time></trkpt><trkpt lat="45.39691956633554" lon="10.59710821222468"><ele>103.83333333333334</ele><time>2026-03-28T09:03:04Z</time></trkpt><trkpt lat="45.39698893136491" lon="10.59709934102808"><ele>103.0</ele><time>2026-03-28T09:03:05Z</time></trkpt><trkpt lat="45.39705461748199" lon="10.597076051606033"><ele>103.0</ele><time>2026-03-28T09:03:06Z</time></trkpt><trkpt lat="45.39716690159356" lon="10.597099388309971"><ele>103.0</ele><time>2026-03-28T09:03:08Z</time></trkpt><trkpt lat="45.3972396417347" lon="10.597110675361595"><ele>103.0</ele><time>2026-03-28T09:03:10Z</time></trkpt><trkpt lat="45.39730742689155" lon="10.597110759533788"><ele>103.0</ele><time>2026-03-28T09:03:14Z</time></trkpt><trkpt lat="45.397267333031806" lon="10.597251994354687"><ele>103.0</ele><time>2026-03-28T09:03:15Z</time></trkpt><trkpt lat="45.39727642558256" lon="10.597378312739199"><ele>103.00000000000001</ele><time>2026-03-28T09:03:17Z</time></trkpt><trkpt lat="45.397267560999914" lon="10.597469186578516"><ele>103.0</ele><time>2026-03-28T09:03:18Z</time></trkpt><trkpt lat="45.3972412827172" lon="10.597572647263183"><ele>103.0</ele><time>2026-03-28T09:03:19Z</time></trkpt><trkpt lat="45.39722230388952" lon="10.59769597692839"><ele>103.0</ele><time>2026-03-28T09:03:20Z</time></trkpt><trkpt lat="45.39720135525372" lon="10.597817239387082"><ele>103.00000000000001</ele><time>2026-03-28T09:03:21Z</time></trkpt><trkpt lat="45.397194825148105" lon="10.597952628476632"><ele>103.0</ele><time>2026-03-28T09:03:22Z</time></trkpt><trkpt lat="45.39716533020523" lon="10.598088294240599"><ele>103.00000000000001</ele><time>2026-03-28T09:03:23Z</time></trkpt><trkpt lat="45.39714011076757" lon="10.598207530709805"><ele>103.0</ele><time>2026-03-28T09:03:24Z</time></trkpt><trkpt lat="45.39711012812339" lon="10.59831603382172"><ele>103.0</ele><time>2026-03-28T09:03:25Z</time></trkpt><trkpt lat="45.39707381306601" lon="10.598430104461077"><ele>103.0</ele><time>2026-03-28T09:03:26Z</time></trkpt><trkpt lat="45.397033889279776" lon="10.598547449626555"><ele>103.00000000000001</ele><time>2026-03-28T09:03:27Z</time></trkpt><trkpt lat="45.39699783221092" lon="10.598665468400077"><ele>103.0</ele><time>2026-03-28T09:03:28Z</time></trkpt><trkpt lat="45.39696479534161" lon="10.598797134165716"><ele>103.00000000000001</ele><time>2026-03-28T09:03:29Z</time></trkpt><trkpt lat="45.396939319710164" lon="10.598924762141985"><ele>103.0</ele><time>2026-03-28T09:03:30Z</time></trkpt><trkpt lat="45.39691589425426" lon="10.59903188131483"><ele>103.0</ele><time>2026-03-28T09:03:31Z</time></trkpt><trkpt lat="45.396897989515445" lon="10.599138119174334"><ele>103.0</ele><time>2026-03-28T09:03:32Z</time></trkpt><trkpt lat="45.39687522609114" lon="10.599309827098622"><ele>103.00000000000001</ele><time>2026-03-28T09:03:34Z</time></trkpt><trkpt lat="45.396881254533945" lon="10.599400997910573"><ele>103.0</ele><time>2026-03-28T09:03:35Z</time></trkpt><trkpt lat="45.39688125453157" lon="10.599514295947559"><ele>103.0</ele><time>2026-03-28T09:03:36Z</time></trkpt><trkpt lat="45.39691620811733" lon="10.599615504565419"><ele>103.0</ele><time>2026-03-28T09:03:37Z</time></trkpt><trkpt lat="45.39694660878716" lon="10.599708256307162"><ele>103.0</ele><time>2026-03-28T09:03:38Z</time></trkpt><trkpt lat="45.396700277201944" lon="10.599893544262894"><ele>103.0</ele><time>2026-03-28T09:03:39Z</time></trkpt><trkpt lat="45.39663054492583" lon="10.600013467843977"><ele>103.0</ele><time>2026-03-28T09:03:40Z</time></trkpt><trkpt lat="45.39658028017249" lon="10.600113667201173"><ele>103.0</ele><time>2026-03-28T09:03:41Z</time></trkpt><trkpt lat="45.39654457243178" lon="10.60022402149027"><ele>103.0</ele><time>2026-03-28T09:03:42Z</time></trkpt><trkpt lat="45.39650877068342" lon="10.60036707465051"><ele>103.0</ele><time>2026-03-28T09:03:43Z</time></trkpt><trkpt lat="45.396470140363895" lon="10.600497742558813"><ele>103.0</ele><time>2026-03-28T09:03:44Z</time></trkpt><trkpt lat="45.39643267859104" lon="10.60060630071353"><ele>102.60000000000001</ele><time>2026-03-28T09:03:45Z</time></trkpt><trkpt lat="45.39639321526009" lon="10.60073279423768"><ele>102.2</ele><time>2026-03-28T09:03:46Z</time></trkpt><trkpt lat="45.396354472443086" lon="10.600866762509352"><ele>101.8</ele><time>2026-03-28T09:03:47Z</time></trkpt><trkpt lat="45.39631154344743" lon="10.600996962287484"><ele>101.4</ele><time>2026-03-28T09:03:48Z</time></trkpt><trkpt lat="45.396268462325445" lon="10.60112651494007"><ele>101.0</ele><time>2026-03-28T09:03:49Z</time></trkpt><trkpt lat="45.39623051422762" lon="10.601258399323763"><ele>101.0</ele><time>2026-03-28T09:03:50Z</time></trkpt><trkpt lat="45.39619236037621" lon="10.601393568069794"><ele>101.0</ele><time>2026-03-28T09:03:51Z</time></trkpt><trkpt lat="45.396153081591024" lon="10.601534905858031"><ele>101.0</ele><time>2026-03-28T09:03:52Z</time></trkpt><trkpt lat="45.39612217552323" lon="10.601659694037396"><ele>101.0</ele><time>2026-03-28T09:03:53Z</time></trkpt><trkpt lat="45.39608905989023" lon="10.601796992385264"><ele>101.0</ele><time>2026-03-28T09:03:54Z</time></trkpt><trkpt lat="45.39605166689512" lon="10.601934474699181"><ele>101.19999999999999</ele><time>2026-03-28T09:03:55Z</time></trkpt><trkpt lat="45.39601100552792" lon="10.602077454493847"><ele>101.39999999999999</ele><time>2026-03-28T09:03:56Z</time></trkpt><trkpt lat="45.39596861896263" lon="10.602216827417761"><ele>101.6</ele><time>2026-03-28T09:03:57Z</time></trkpt><trkpt lat="45.39591845688393" lon="10.602356500189408"><ele>101.8</ele><time>2026-03-28T09:03:58Z</time></trkpt><trkpt lat="45.395874698711744" lon="10.60249047119624"><ele>102.0</ele><time>2026-03-28T09:03:59Z</time></trkpt><trkpt lat="45.39583055662752" lon="10.60262461696668"><ele>102.0</ele><time>2026-03-28T09:04:00Z</time></trkpt><trkpt lat="45.39578403867857" lon="10.602759083359693"><ele>102.0</ele><time>2026-03-28T09:04:01Z</time></trkpt><trkpt lat="45.39574096551319" lon="10.602913759324034"><ele>102.0</ele><time>2026-03-28T09:04:02Z</time></trkpt><trkpt lat="45.39569656990743" lon="10.603065902093396"><ele>102.0</ele><time>2026-03-28T09:04:03Z</time></trkpt><trkpt lat="45.39564868562957" lon="10.603217511472256"><ele>101.6</ele><time>2026-03-28T09:04:04Z</time></trkpt><trkpt lat="45.39560053745603" lon="10.603358422977314"><ele>101.19999999999999</ele><time>2026-03-28T09:04:05Z</time></trkpt><trkpt lat="45.39555026017966" lon="10.603503818678861"><ele>100.8</ele><time>2026-03-28T09:04:06Z</time></trkpt><trkpt lat="45.39550688652447" lon="10.603642642296293"><ele>100.4</ele><time>2026-03-28T09:04:07Z</time></trkpt><trkpt lat="45.39546571798095" lon="10.603760447027625"><ele>100.0</ele><time>2026-03-28T09:04:08Z</time></trkpt><trkpt lat="45.395428217764504" lon="10.6038659106109"><ele>100.0</ele><time>2026-03-28T09:04:09Z</time></trkpt><trkpt lat="45.395384466603296" lon="10.60398706809698"><ele>100.0</ele><time>2026-03-28T09:04:10Z</time></trkpt><trkpt lat="45.39534237009819" lon="10.604113147967164"><ele>100.0</ele><time>2026-03-28T09:04:11Z</time></trkpt><trkpt lat="45.39530569167713" lon="10.60424097514369"><ele>100.0</ele><time>2026-03-28T09:04:12Z</time></trkpt><trkpt lat="45.39526582366409" lon="10.604362889045323"><ele>100.0</ele><time>2026-03-28T09:04:13Z</time></trkpt><trkpt lat="45.395221658541466" lon="10.604494645287762"><ele>100.0</ele><time>2026-03-28T09:04:14Z</time></trkpt><trkpt lat="45.395183295702914" lon="10.604631322847705"><ele>100.0</ele><time>2026-03-28T09:04:15Z</time></trkpt><trkpt lat="45.39515472827677" lon="10.604763812243629"><ele>100.0</ele><time>2026-03-28T09:04:16Z</time></trkpt><trkpt lat="45.39513220846626" lon="10.60489224950873"><ele>100.0</ele><time>2026-03-28T09:04:17Z</time></trkpt><trkpt lat="45.395106010472425" lon="10.605027797321783"><ele>100.0</ele><time>2026-03-28T09:04:18Z</time></trkpt><trkpt lat="45.39507854109671" lon="10.605161652921518"><ele>100.0</ele><time>2026-03-28T09:04:19Z</time></trkpt><trkpt lat="45.39505189819519" lon="10.605313508471182"><ele>100.0</ele><time>2026-03-28T09:04:20Z</time></trkpt><trkpt lat="45.39502861765023" lon="10.605447082865275"><ele>100.0</ele><time>2026-03-28T09:04:21Z</time></trkpt><trkpt lat="45.395007513079136" lon="10.605568944545256"><ele>100.0</ele><time>2026-03-28T09:04:22Z</time></trkpt><trkpt lat="45.394987423726036" lon="10.605684554100804"><ele>100.0</ele><time>2026-03-28T09:04:23Z</time></trkpt><trkpt lat="45.39496636778664" lon="10.605803389859153"><ele>100.4</ele><time>2026-03-28T09:04:24Z</time></trkpt><trkpt lat="45.39493919359484" lon="10.605942989538388"><ele>100.8</ele><time>2026-03-28T09:04:25Z</time></trkpt><trkpt lat="45.394906723622974" lon="10.606100292708033"><ele>101.19999999999999</ele><time>2026-03-28T09:04:26Z</time></trkpt><trkpt lat="45.39487458818045" lon="10.606264305666572"><ele>101.6</ele><time>2026-03-28T09:04:27Z</time></trkpt><trkpt lat="45.39485007273548" lon="10.606401869022749"><ele>102.0</ele><time>2026-03-28T09:04:28Z</time></trkpt><trkpt lat="45.39483200306079" lon="10.606521818287966"><ele>102.0</ele><time>2026-03-28T09:04:29Z</time></trkpt><trkpt lat="45.39480706691083" lon="10.606666878381654"><ele>102.0</ele><time>2026-03-28T09:04:30Z</time></trkpt><trkpt lat="45.394788028690705" lon="10.606818680433255"><ele>102.0</ele><time>2026-03-28T09:04:31Z</time></trkpt><trkpt lat="45.394779703293295" lon="10.606956951647591"><ele>102.0</ele><time>2026-03-28T09:04:32Z</time></trkpt><trkpt lat="45.394787463903675" lon="10.607110787880288"><ele>102.0</ele><time>2026-03-28T09:04:33Z</time></trkpt><trkpt lat="45.394782930015694" lon="10.607259024918593"><ele>102.5</ele><time>2026-03-28T09:04:34Z</time></trkpt><trkpt lat="45.394779568303164" lon="10.607418055840439"><ele>103.0</ele><time>2026-03-28T09:04:35Z</time></trkpt><trkpt lat="45.39477535788727" lon="10.60760061302241"><ele>103.5</ele><time>2026-03-28T09:04:36Z</time></trkpt><trkpt lat="45.39477390409877" lon="10.607795558380964"><ele>104.0</ele><time>2026-03-28T09:04:37Z</time></trkpt><trkpt lat="45.394749904918186" lon="10.60800609802662"><ele>104.0</ele><time>2026-03-28T09:04:38Z</time></trkpt><trkpt lat="45.39474265130811" lon="10.60821259444806"><ele>104.0</ele><time>2026-03-28T09:04:39Z</time></trkpt><trkpt lat="45.39471050940421" lon="10.608593484961753"><ele>104.0</ele><time>2026-03-28T09:04:41Z</time></trkpt><trkpt lat="45.394680632687376" lon="10.60878856475353"><ele>102.0</ele><time>2026-03-28T09:04:42Z</time></trkpt><trkpt lat="45.39464847857297" lon="10.608976000696805"><ele>100.0</ele><time>2026-03-28T09:04:43Z</time></trkpt><trkpt lat="45.394607757358926" lon="10.609142249060277"><ele>98.0</ele><time>2026-03-28T09:04:44Z</time></trkpt><trkpt lat="45.394555948832064" lon="10.60930413335995"><ele>96.0</ele><time>2026-03-28T09:04:45Z</time></trkpt><trkpt lat="45.39449515081905" lon="10.609462582556414"><ele>96.5</ele><time>2026-03-28T09:04:46Z</time></trkpt><trkpt lat="45.39442328131023" lon="10.609630574361722"><ele>97.0</ele><time>2026-03-28T09:04:47Z</time></trkpt><trkpt lat="45.39436221828746" lon="10.609777079992664"><ele>97.5</ele><time>2026-03-28T09:04:48Z</time></trkpt><trkpt lat="45.394310297490634" lon="10.609932844983014"><ele>98.0</ele><time>2026-03-28T09:04:49Z</time></trkpt><trkpt lat="45.39428469211498" lon="10.610087653260573"><ele>98.0</ele><time>2026-03-28T09:04:50Z</time></trkpt><trkpt lat="45.39425656343506" lon="10.610228079349184"><ele>98.0</ele><time>2026-03-28T09:04:51Z</time></trkpt><trkpt lat="45.394242245595265" lon="10.610395823991952"><ele>98.0</ele><time>2026-03-28T09:04:52Z</time></trkpt><trkpt lat="45.39424171245298" lon="10.610567940510576"><ele>98.0</ele><time>2026-03-28T09:04:53Z</time></trkpt><trkpt lat="45.39424421907245" lon="10.610722594802883"><ele>98.4</ele><time>2026-03-28T09:04:54Z</time></trkpt><trkpt lat="45.39423609554879" lon="10.610858140833917"><ele>98.80000000000001</ele><time>2026-03-28T09:04:55Z</time></trkpt><trkpt lat="45.394242653112435" lon="10.610975469009148"><ele>99.2</ele><time>2026-03-28T09:04:56Z</time></trkpt><trkpt lat="45.39426744807914" lon="10.611080640083204"><ele>99.6</ele><time>2026-03-28T09:04:57Z</time></trkpt><trkpt lat="45.394272644403074" lon="10.611219277260195"><ele>100.0</ele><time>2026-03-28T09:04:59Z</time></trkpt><trkpt lat="45.3943998693624" lon="10.611244322334354"><ele>100.0</ele><time>2026-03-28T09:05:02Z</time></trkpt><trkpt lat="45.39449766061426" lon="10.611195826760367"><ele>100.0</ele><time>2026-03-28T09:05:04Z</time></trkpt><trkpt lat="45.394601481004514" lon="10.611139956981326"><ele>100.0</ele><time>2026-03-28T09:05:06Z</time></trkpt><trkpt lat="45.39466619142826" lon="10.611101391499258"><ele>100.0</ele><time>2026-03-28T09:05:07Z</time></trkpt><trkpt lat="45.39474357620904" lon="10.611030332071028"><ele>100.0</ele><time>2026-03-28T09:05:08Z</time></trkpt><trkpt lat="45.39483594740869" lon="10.610978245356941"><ele>102.0</ele><time>2026-03-28T09:05:09Z</time></trkpt><trkpt lat="45.39494164660673" lon="10.610937228459074"><ele>104.0</ele><time>2026-03-28T09:05:10Z</time></trkpt><trkpt lat="45.39505053489143" lon="10.6108731144066"><ele>106.0</ele><time>2026-03-28T09:05:11Z</time></trkpt><trkpt lat="45.395138326614" lon="10.610802246852845"><ele>108.0</ele><time>2026-03-28T09:05:12Z</time></trkpt><trkpt lat="45.39522169143839" lon="10.610751934576786"><ele>110.0</ele><time>2026-03-28T09:05:13Z</time></trkpt><trkpt lat="45.39530291649599" lon="10.610752330291593"><ele>109.99999999999999</ele><time>2026-03-28T09:05:14Z</time></trkpt><trkpt lat="45.395390500674345" lon="10.610724056135446"><ele>110.0</ele><time>2026-03-28T09:05:15Z</time></trkpt><trkpt lat="45.39547612095167" lon="10.610694920242366"><ele>110.0</ele><time>2026-03-28T09:05:16Z</time></trkpt><trkpt lat="45.39556778760364" lon="10.610644970952244"><ele>110.0</ele><time>2026-03-28T09:05:17Z</time></trkpt><trkpt lat="45.39564781890886" lon="10.610611606044166"><ele>109.99999999999999</ele><time>2026-03-28T09:05:18Z</time></trkpt><trkpt lat="45.39572415726806" lon="10.610585553191262"><ele>110.0</ele><time>2026-03-28T09:05:19Z</time></trkpt><trkpt lat="45.395805496040566" lon="10.61056035308235"><ele>110.83333333333333</ele><time>2026-03-28T09:05:20Z</time></trkpt><trkpt lat="45.39586508372007" lon="10.610513910802286"><ele>111.66666666666666</ele><time>2026-03-28T09:05:21Z</time></trkpt><trkpt lat="45.395913709413406" lon="10.610442975653134"><ele>112.5</ele><time>2026-03-28T09:05:22Z</time></trkpt><trkpt lat="45.3959576232558" lon="10.610353070307971"><ele>113.33333333333334</ele><time>2026-03-28T09:05:23Z</time></trkpt><trkpt lat="45.39600373430589" lon="10.610269285704632"><ele>114.16666666666667</ele><time>2026-03-28T09:05:24Z</time></trkpt><trkpt lat="45.39607487744361" lon="10.61012714591366"><ele>115.0</ele><time>2026-03-28T09:05:26Z</time></trkpt><trkpt lat="45.39611356806797" lon="10.610043788763399"><ele>115.16666666666667</ele><time>2026-03-28T09:05:27Z</time></trkpt><trkpt lat="45.39617153169778" lon="10.60993238550871"><ele>115.33333333333334</ele><time>2026-03-28T09:05:28Z</time></trkpt><trkpt lat="45.39623482855892" lon="10.60985320425287"><ele>115.5</ele><time>2026-03-28T09:05:29Z</time></trkpt><trkpt lat="45.396260598856465" lon="10.609761038581912"><ele>115.66666666666666</ele><time>2026-03-28T09:05:30Z</time></trkpt><trkpt lat="45.39630377346795" lon="10.609686123530793"><ele>115.83333333333333</ele><time>2026-03-28T09:05:31Z</time></trkpt><trkpt lat="45.3963298022573" lon="10.609568303036898"><ele>116.0</ele><time>2026-03-28T09:05:32Z</time></trkpt><trkpt lat="45.3963690518272" lon="10.609482364500824"><ele>116.8</ele><time>2026-03-28T09:05:33Z</time></trkpt><trkpt lat="45.39640202093961" lon="10.609381352128102"><ele>117.6</ele><time>2026-03-28T09:05:34Z</time></trkpt><trkpt lat="45.396419836273026" lon="10.609280153545708"><ele>118.4</ele><time>2026-03-28T09:05:35Z</time></trkpt><trkpt lat="45.39648321039388" lon="10.609138050080452"><ele>119.2</ele><time>2026-03-28T09:05:37Z</time></trkpt><trkpt lat="45.39656974396609" lon="10.609050629064608"><ele>120.0</ele><time>2026-03-28T09:05:39Z</time></trkpt><trkpt lat="45.396708885408934" lon="10.609083078594864"><ele>120.0</ele><time>2026-03-28T09:05:41Z</time></trkpt><trkpt lat="45.39681519914049" lon="10.609094760466295"><ele>120.0</ele><time>2026-03-28T09:05:42Z</time></trkpt><trkpt lat="45.396933190290646" lon="10.609084784377181"><ele>120.0</ele><time>2026-03-28T09:05:43Z</time></trkpt><trkpt lat="45.39706725105859" lon="10.60909882105659"><ele>120.0</ele><time>2026-03-28T09:05:44Z</time></trkpt><trkpt lat="45.39722145566972" lon="10.609107057552999"><ele>120.5</ele><time>2026-03-28T09:05:45Z</time></trkpt><trkpt lat="45.39737573244388" lon="10.60909948649558"><ele>121.0</ele><time>2026-03-28T09:05:46Z</time></trkpt><trkpt lat="45.39753206027279" lon="10.609091370136161"><ele>121.5</ele><time>2026-03-28T09:05:47Z</time></trkpt><trkpt lat="45.39766348571523" lon="10.609072110212049"><ele>122.0</ele><time>2026-03-28T09:05:48Z</time></trkpt><trkpt lat="45.39779103410331" lon="10.609037649006636"><ele>122.0</ele><time>2026-03-28T09:05:49Z</time></trkpt><trkpt lat="45.39790462138298" lon="10.609002335619905"><ele>121.99999999999999</ele><time>2026-03-28T09:05:50Z</time></trkpt><trkpt lat="45.398006691410785" lon="10.608972589014195"><ele>121.99999999999999</ele><time>2026-03-28T09:05:51Z</time></trkpt><trkpt lat="45.39810448728222" lon="10.6089616189193"><ele>122.0</ele><time>2026-03-28T09:05:52Z</time></trkpt><trkpt lat="45.39818466234599" lon="10.608942453090501"><ele>122.0</ele><time>2026-03-28T09:05:53Z</time></trkpt><trkpt lat="45.39825287639058" lon="10.608928637336799"><ele>122.0</ele><time>2026-03-28T09:05:54Z</time></trkpt><trkpt lat="45.39834726602913" lon="10.608895747944745"><ele>122.0</ele><time>2026-03-28T09:05:56Z</time></trkpt><trkpt lat="45.39836231245792" lon="10.609107433165033"><ele>122.0</ele><time>2026-03-28T09:05:59Z</time></trkpt><trkpt lat="45.398335111409445" lon="10.609247848442369"><ele>122.0</ele><time>2026-03-28T09:06:00Z</time></trkpt><trkpt lat="45.39830838671547" lon="10.609406034835125"><ele>122.75</ele><time>2026-03-28T09:06:01Z</time></trkpt><trkpt lat="45.39828193129615" lon="10.609587420743923"><ele>123.5</ele><time>2026-03-28T09:06:02Z</time></trkpt><trkpt lat="45.39826870343969" lon="10.609789395394827"><ele>124.25</ele><time>2026-03-28T09:06:03Z</time></trkpt><trkpt lat="45.39823754472068" lon="10.610008888570945"><ele>125.0</ele><time>2026-03-28T09:06:04Z</time></trkpt><trkpt lat="45.39820817406983" lon="10.610244946442487"><ele>125.0</ele><time>2026-03-28T09:06:05Z</time></trkpt><trkpt lat="45.39817603219857" lon="10.610485709927783"><ele>125.0</ele><time>2026-03-28T09:06:06Z</time></trkpt><trkpt lat="45.39813854685073" lon="10.610737419315509"><ele>125.0</ele><time>2026-03-28T09:06:07Z</time></trkpt><trkpt lat="45.39809204052733" lon="10.610962876029555"><ele>125.66666666666666</ele><time>2026-03-28T09:06:08Z</time></trkpt><trkpt lat="45.398038027263766" lon="10.611165736502457"><ele>126.33333333333334</ele><time>2026-03-28T09:06:09Z</time></trkpt><trkpt lat="45.39797657728488" lon="10.611363286095967"><ele>127.0</ele><time>2026-03-28T09:06:10Z</time></trkpt><trkpt lat="45.39790296840862" lon="10.611570873611196"><ele>124.0</ele><time>2026-03-28T09:06:11Z</time></trkpt><trkpt lat="45.39782834815803" lon="10.611777310440079"><ele>121.0</ele><time>2026-03-28T09:06:12Z</time></trkpt><trkpt lat="45.39775780664482" lon="10.611977561728933"><ele>118.0</ele><time>2026-03-28T09:06:13Z</time></trkpt><trkpt lat="45.39769354143701" lon="10.612164684152201"><ele>118.0</ele><time>2026-03-28T09:06:14Z</time></trkpt><trkpt lat="45.39763319094878" lon="10.61235410046151"><ele>118.0</ele><time>2026-03-28T09:06:15Z</time></trkpt><trkpt lat="45.39757776919358" lon="10.612563841220686"><ele>118.0</ele><time>2026-03-28T09:06:16Z</time></trkpt><trkpt lat="45.39754270721824" lon="10.612791650071472"><ele>118.0</ele><time>2026-03-28T09:06:17Z</time></trkpt><trkpt lat="45.397529189210296" lon="10.613029036376362"><ele>118.0</ele><time>2026-03-28T09:06:18Z</time></trkpt><trkpt lat="45.39754267256147" lon="10.61327186835037"><ele>118.0</ele><time>2026-03-28T09:06:19Z</time></trkpt><trkpt lat="45.39755967592214" lon="10.613503171352376"><ele>118.0</ele><time>2026-03-28T09:06:20Z</time></trkpt><trkpt lat="45.397569095449754" lon="10.613744997123776"><ele>118.0</ele><time>2026-03-28T09:06:21Z</time></trkpt><trkpt lat="45.39757653783297" lon="10.613977138107854"><ele>118.0</ele><time>2026-03-28T09:06:22Z</time></trkpt><trkpt lat="45.397585349721304" lon="10.614228586776582"><ele>118.0</ele><time>2026-03-28T09:06:23Z</time></trkpt><trkpt lat="45.39759039203765" lon="10.614485349559143"><ele>118.0</ele><time>2026-03-28T09:06:24Z</time></trkpt><trkpt lat="45.397596865284136" lon="10.61474255926372"><ele>118.0</ele><time>2026-03-28T09:06:25Z</time></trkpt><trkpt lat="45.39759653185984" lon="10.614991622173758"><ele>118.0</ele><time>2026-03-28T09:06:26Z</time></trkpt><trkpt lat="45.39758972691528" lon="10.61524023017365"><ele>118.0</ele><time>2026-03-28T09:06:27Z</time></trkpt><trkpt lat="45.397582832652894" lon="10.615506727520234"><ele>118.0</ele><time>2026-03-28T09:06:28Z</time></trkpt><trkpt lat="45.397574661429964" lon="10.615765918946622"><ele>118.0</ele><time>2026-03-28T09:06:29Z</time></trkpt><trkpt lat="45.39756190344122" lon="10.616010617957341"><ele>118.0</ele><time>2026-03-28T09:06:30Z</time></trkpt><trkpt lat="45.39754468637774" lon="10.616287553606519"><ele>118.0</ele><time>2026-03-28T09:06:31Z</time></trkpt><trkpt lat="45.39752728858161" lon="10.616565701629067"><ele>117.33333333333334</ele><time>2026-03-28T09:06:32Z</time></trkpt><trkpt lat="45.3975083608569" lon="10.616812873433895"><ele>116.66666666666666</ele><time>2026-03-28T09:06:33Z</time></trkpt><trkpt lat="45.397502419811424" lon="10.617103644524416"><ele>116.0</ele><time>2026-03-28T09:06:34Z</time></trkpt><trkpt lat="45.39749086683099" lon="10.617369805256574"><ele>115.33333333333333</ele><time>2026-03-28T09:06:35Z</time></trkpt><trkpt lat="45.397477374627094" lon="10.617610929304666"><ele>114.66666666666666</ele><time>2026-03-28T09:06:36Z</time></trkpt><trkpt lat="45.39746524135499" lon="10.617858837718758"><ele>114.0</ele><time>2026-03-28T09:06:37Z</time></trkpt><trkpt lat="45.397450937034215" lon="10.618089986686194"><ele>113.0</ele><time>2026-03-28T09:06:38Z</time></trkpt><trkpt lat="45.39743962305306" lon="10.618315508182144"><ele>112.0</ele><time>2026-03-28T09:06:39Z</time></trkpt><trkpt lat="45.397433394411735" lon="10.61853395738735"><ele>111.0</ele><time>2026-03-28T09:06:40Z</time></trkpt><trkpt lat="45.3974177950894" lon="10.61874959435614"><ele>108.66666666666666</ele><time>2026-03-28T09:06:41Z</time></trkpt><trkpt lat="45.39739074602228" lon="10.618966830894333"><ele>106.33333333333333</ele><time>2026-03-28T09:06:42Z</time></trkpt><trkpt lat="45.39733927269898" lon="10.619178488466373"><ele>104.0</ele><time>2026-03-28T09:06:43Z</time></trkpt><trkpt lat="45.397281688466656" lon="10.619398153160093"><ele>102.66666666666666</ele><time>2026-03-28T09:06:44Z</time></trkpt><trkpt lat="45.397224693881896" lon="10.619619686465425"><ele>101.33333333333334</ele><time>2026-03-28T09:06:45Z</time></trkpt><trkpt lat="45.39711929933031" lon="10.619799927158853"><ele>100.0</ele><time>2026-03-28T09:06:46Z</time></trkpt><trkpt lat="45.39701066499025" lon="10.61998274066727"><ele>100.0</ele><time>2026-03-28T09:06:47Z</time></trkpt><trkpt lat="45.39689280876225" lon="10.620139103468055"><ele>100.0</ele><time>2026-03-28T09:06:48Z</time></trkpt><trkpt lat="45.39677052472772" lon="10.620283566112123"><ele>100.0</ele><time>2026-03-28T09:06:49Z</time></trkpt><trkpt lat="45.39665199920368" lon="10.620446057607968"><ele>99.0</ele><time>2026-03-28T09:06:50Z</time></trkpt><trkpt lat="45.39651371630573" lon="10.620600547502647"><ele>98.0</ele><time>2026-03-28T09:06:51Z</time></trkpt><trkpt lat="45.396381150989065" lon="10.620754620307906"><ele>97.0</ele><time>2026-03-28T09:06:52Z</time></trkpt><trkpt lat="45.39625361403275" lon="10.620900796499203"><ele>96.19999999999999</ele><time>2026-03-28T09:06:53Z</time></trkpt><trkpt lat="45.396142057982864" lon="10.621028318255403"><ele>95.4</ele><time>2026-03-28T09:06:54Z</time></trkpt><trkpt lat="45.396049823975986" lon="10.62113235662204"><ele>94.6</ele><time>2026-03-28T09:06:55Z</time></trkpt><trkpt lat="45.3959694306867" lon="10.62122468637516"><ele>93.80000000000001</ele><time>2026-03-28T09:06:56Z</time></trkpt><trkpt lat="45.39590497177108" lon="10.621299429067234"><ele>93.0</ele><time>2026-03-28T09:06:57Z</time></trkpt><trkpt lat="45.39582746498121" lon="10.621362615438924"><ele>93.0</ele><time>2026-03-28T09:06:59Z</time></trkpt><trkpt lat="45.39576526196901" lon="10.621344939401975"><ele>93.0</ele><time>2026-03-28T09:07:06Z</time></trkpt><trkpt lat="45.395741073220606" lon="10.621174859845299"><ele>93.0</ele><time>2026-03-28T09:07:08Z</time></trkpt><trkpt lat="45.39573213917462" lon="10.621036858783565"><ele>93.0</ele><time>2026-03-28T09:07:09Z</time></trkpt><trkpt lat="45.39573535064109" lon="10.620895681238895"><ele>93.0</ele><time>2026-03-28T09:07:10Z</time></trkpt><trkpt lat="45.39572937339536" lon="10.620706660608965"><ele>93.0</ele><time>2026-03-28T09:07:11Z</time></trkpt><trkpt lat="45.395719272550615" lon="10.620506696260417"><ele>93.0</ele><time>2026-03-28T09:07:12Z</time></trkpt><trkpt lat="45.39569928412529" lon="10.620298321476335"><ele>93.0</ele><time>2026-03-28T09:07:13Z</time></trkpt><trkpt lat="45.395664311083294" lon="10.620104393190754"><ele>93.0</ele><time>2026-03-28T09:07:14Z</time></trkpt><trkpt lat="45.39561425459028" lon="10.619916553159554"><ele>93.0</ele><time>2026-03-28T09:07:15Z</time></trkpt><trkpt lat="45.39555117732837" lon="10.61972506054417"><ele>93.0</ele><time>2026-03-28T09:07:16Z</time></trkpt><trkpt lat="45.39548558989736" lon="10.619534374074881"><ele>93.0</ele><time>2026-03-28T09:07:17Z</time></trkpt><trkpt lat="45.39541483504448" lon="10.619353595201451"><ele>93.0</ele><time>2026-03-28T09:07:18Z</time></trkpt><trkpt lat="45.395344600686336" lon="10.619160384169845"><ele>93.33333333333333</ele><time>2026-03-28T09:07:19Z</time></trkpt><trkpt lat="45.39527607061876" lon="10.61895902902427"><ele>93.66666666666666</ele><time>2026-03-28T09:07:20Z</time></trkpt><trkpt lat="45.3952077326284" lon="10.618758739124148"><ele>94.0</ele><time>2026-03-28T09:07:21Z</time></trkpt><trkpt lat="45.39513732173425" lon="10.618556399805664"><ele>95.0</ele><time>2026-03-28T09:07:22Z</time></trkpt><trkpt lat="45.39505972251848" lon="10.618339777615443"><ele>96.0</ele><time>2026-03-28T09:07:23Z</time></trkpt><trkpt lat="45.394984716069864" lon="10.618126921024164"><ele>97.0</ele><time>2026-03-28T09:07:24Z</time></trkpt><trkpt lat="45.39490397853708" lon="10.617907405820963"><ele>96.0</ele><time>2026-03-28T09:07:25Z</time></trkpt><trkpt lat="45.39482047823257" lon="10.617694012868034"><ele>95.0</ele><time>2026-03-28T09:07:26Z</time></trkpt><trkpt lat="45.39472842914563" lon="10.617478656410228"><ele>94.0</ele><time>2026-03-28T09:07:27Z</time></trkpt><trkpt lat="45.39463507576927" lon="10.617274695594443"><ele>94.0</ele><time>2026-03-28T09:07:28Z</time></trkpt><trkpt lat="45.39453462313214" lon="10.617077186966005"><ele>94.0</ele><time>2026-03-28T09:07:29Z</time></trkpt><trkpt lat="45.39443570726982" lon="10.616883171760026"><ele>94.0</ele><time>2026-03-28T09:07:30Z</time></trkpt><trkpt lat="45.394342794568274" lon="10.616696228311124"><ele>96.0</ele><time>2026-03-28T09:07:31Z</time></trkpt><trkpt lat="45.394241269471635" lon="10.616496368004322"><ele>98.0</ele><time>2026-03-28T09:07:32Z</time></trkpt><trkpt lat="45.39414548635904" lon="10.616290061924133"><ele>100.0</ele><time>2026-03-28T09:07:33Z</time></trkpt><trkpt lat="45.394046784405504" lon="10.616082383351133"><ele>100.5</ele><time>2026-03-28T09:07:34Z</time></trkpt><trkpt lat="45.393949395799126" lon="10.615869458971726"><ele>101.0</ele><time>2026-03-28T09:07:35Z</time></trkpt><trkpt lat="45.393949395799126" lon="10.615869458971726"><ele>101.5</ele><time>2026-03-28T09:07:35Z</time></trkpt><trkpt lat="45.393949395799126" lon="10.615869458971726"><ele>102.0</ele><time>2026-03-28T09:07:35Z</time></trkpt><trkpt lat="45.393629335480675" lon="10.614998076669345"><ele>101.0</ele><time>2026-03-28T09:07:39Z</time></trkpt><trkpt lat="45.393555739538556" lon="10.614819903647769"><ele>100.0</ele><time>2026-03-28T09:07:40Z</time></trkpt><trkpt lat="45.393481349281444" lon="10.614624559748265"><ele>99.0</ele><time>2026-03-28T09:07:41Z</time></trkpt><trkpt lat="45.393404418527254" lon="10.614420448564047"><ele>99.0</ele><time>2026-03-28T09:07:42Z</time></trkpt><trkpt lat="45.39332653094427" lon="10.614209956054342"><ele>99.0</ele><time>2026-03-28T09:07:43Z</time></trkpt><trkpt lat="45.3932434427993" lon="10.613982446464412"><ele>99.0</ele><time>2026-03-28T09:07:44Z</time></trkpt><trkpt lat="45.393159879271956" lon="10.613762919934974"><ele>99.0</ele><time>2026-03-28T09:07:45Z</time></trkpt><trkpt lat="45.39307177147209" lon="10.613553150686936"><ele>99.0</ele><time>2026-03-28T09:07:46Z</time></trkpt><trkpt lat="45.39298214903282" lon="10.613356078380237"><ele>99.0</ele><time>2026-03-28T09:07:47Z</time></trkpt><trkpt lat="45.39288288580864" lon="10.613171519017236"><ele>97.0</ele><time>2026-03-28T09:07:48Z</time></trkpt><trkpt lat="45.39278323474369" lon="10.61301284163962"><ele>95.0</ele><time>2026-03-28T09:07:49Z</time></trkpt><trkpt lat="45.39268107329378" lon="10.612855705118303"><ele>93.0</ele><time>2026-03-28T09:07:50Z</time></trkpt><trkpt lat="45.39257656558025" lon="10.61269925010103"><ele>93.0</ele><time>2026-03-28T09:07:51Z</time></trkpt><trkpt lat="45.39247220550669" lon="10.612548323556942"><ele>93.0</ele><time>2026-03-28T09:07:52Z</time></trkpt><trkpt lat="45.39238105978472" lon="10.612414260695992"><ele>93.0</ele><time>2026-03-28T09:07:53Z</time></trkpt><trkpt lat="45.39230022698302" lon="10.612291901323086"><ele>93.0</ele><time>2026-03-28T09:07:54Z</time></trkpt><trkpt lat="45.39222994932119" lon="10.612187836446976"><ele>93.0</ele><time>2026-03-28T09:07:55Z</time></trkpt><trkpt lat="45.39217587935863" lon="10.6120772598438"><ele>93.0</ele><time>2026-03-28T09:07:56Z</time></trkpt><trkpt lat="45.39212609185165" lon="10.612000132114872"><ele>93.0</ele><time>2026-03-28T09:07:57Z</time></trkpt><trkpt lat="45.39195468597567" lon="10.612069343064693"><ele>93.0</ele><time>2026-03-28T09:07:58Z</time></trkpt><trkpt lat="45.39183715946108" lon="10.612099609851573"><ele>93.5</ele><time>2026-03-28T09:07:59Z</time></trkpt><trkpt lat="45.391710182937956" lon="10.61213231031461"><ele>94.0</ele><time>2026-03-28T09:08:00Z</time></trkpt><trkpt lat="45.39157129798552" lon="10.612192204570288"><ele>94.5</ele><time>2026-03-28T09:08:01Z</time></trkpt><trkpt lat="45.39140807213115" lon="10.61220766119793"><ele>95.0</ele><time>2026-03-28T09:08:02Z</time></trkpt><trkpt lat="45.39124604395398" lon="10.61226406584811"><ele>95.66666666666667</ele><time>2026-03-28T09:08:03Z</time></trkpt><trkpt lat="45.3910938527814" lon="10.612278641147789"><ele>96.33333333333334</ele><time>2026-03-28T09:08:04Z</time></trkpt><trkpt lat="45.390945860608774" lon="10.612236880794159"><ele>97.0</ele><time>2026-03-28T09:08:05Z</time></trkpt><trkpt lat="45.390787370710825" lon="10.612180134616137"><ele>97.0</ele><time>2026-03-28T09:08:06Z</time></trkpt><trkpt lat="45.39063550141974" lon="10.612094619756117"><ele>97.0</ele><time>2026-03-28T09:08:07Z</time></trkpt><trkpt lat="45.39046932161296" lon="10.612023882012815"><ele>97.0</ele><time>2026-03-28T09:08:08Z</time></trkpt><trkpt lat="45.390302197594366" lon="10.611920125729423"><ele>97.33333333333334</ele><time>2026-03-28T09:08:09Z</time></trkpt><trkpt lat="45.39013617641744" lon="10.611823644605161"><ele>97.66666666666666</ele><time>2026-03-28T09:08:10Z</time></trkpt><trkpt lat="45.38996784219243" lon="10.611731141685246"><ele>98.0</ele><time>2026-03-28T09:08:11Z</time></trkpt><trkpt lat="45.38979840142054" lon="10.611641584418388"><ele>98.33333333333333</ele><time>2026-03-28T09:08:12Z</time></trkpt><trkpt lat="45.38963102275178" lon="10.611554153286708"><ele>98.66666666666666</ele><time>2026-03-28T09:08:13Z</time></trkpt><trkpt lat="45.389462362765364" lon="10.611467302543245"><ele>99.0</ele><time>2026-03-28T09:08:14Z</time></trkpt><trkpt lat="45.38929617455004" lon="10.6113937762554"><ele>99.0</ele><time>2026-03-28T09:08:15Z</time></trkpt><trkpt lat="45.389133042948096" lon="10.611335840909193"><ele>99.0</ele><time>2026-03-28T09:08:16Z</time></trkpt><trkpt lat="45.388950652179346" lon="10.611295094390783"><ele>99.0</ele><time>2026-03-28T09:08:17Z</time></trkpt><trkpt lat="45.38876236988565" lon="10.611269899798026"><ele>99.0</ele><time>2026-03-28T09:08:18Z</time></trkpt><trkpt lat="45.38857385112865" lon="10.611250836141119"><ele>99.0</ele><time>2026-03-28T09:08:19Z</time></trkpt><trkpt lat="45.38836795131855" lon="10.611225424771025"><ele>99.0</ele><time>2026-03-28T09:08:20Z</time></trkpt><trkpt lat="45.38816418716348" lon="10.611198945468999"><ele>99.0</ele><time>2026-03-28T09:08:21Z</time></trkpt><trkpt lat="45.387967589739425" lon="10.611172579407462"><ele>99.0</ele><time>2026-03-28T09:08:22Z</time></trkpt><trkpt lat="45.38777843006464" lon="10.611148770498888"><ele>99.0</ele><time>2026-03-28T09:08:23Z</time></trkpt><trkpt lat="45.38759152870059" lon="10.611125281632088"><ele>99.0</ele><time>2026-03-28T09:08:24Z</time></trkpt><trkpt lat="45.38741347954229" lon="10.611100393911697"><ele>99.0</ele><time>2026-03-28T09:08:25Z</time></trkpt><trkpt lat="45.38722747972976" lon="10.611080463095378"><ele>99.0</ele><time>2026-03-28T09:08:26Z</time></trkpt><trkpt lat="45.387063362202355" lon="10.611059645002955"><ele>99.25</ele><time>2026-03-28T09:08:27Z</time></trkpt><trkpt lat="45.38690700229041" lon="10.611038195027781"><ele>99.5</ele><time>2026-03-28T09:08:28Z</time></trkpt><trkpt lat="45.386761387324796" lon="10.61101726670874"><ele>99.75</ele><time>2026-03-28T09:08:29Z</time></trkpt><trkpt lat="45.386624046680176" lon="10.610998664631992"><ele>100.0</ele><time>2026-03-28T09:08:30Z</time></trkpt><trkpt lat="45.386500657003644" lon="10.610980229798342"><ele>100.0</ele><time>2026-03-28T09:08:31Z</time></trkpt><trkpt lat="45.38638423201212" lon="10.610965662665818"><ele>100.0</ele><time>2026-03-28T09:08:32Z</time></trkpt><trkpt lat="45.38628405882326" lon="10.610953688222681"><ele>100.0</ele><time>2026-03-28T09:08:33Z</time></trkpt><trkpt lat="45.3861922409946" lon="10.6109427031437"><ele>100.0</ele><time>2026-03-28T09:08:34Z</time></trkpt><trkpt lat="45.38609959315031" lon="10.610931810038409"><ele>100.0</ele><time>2026-03-28T09:08:35Z</time></trkpt><trkpt lat="45.386011302185956" lon="10.610921944981344"><ele>100.25</ele><time>2026-03-28T09:08:36Z</time></trkpt><trkpt lat="45.38591376880576" lon="10.610942825163239"><ele>100.5</ele><time>2026-03-28T09:08:37Z</time></trkpt><trkpt lat="45.3858082692277" lon="10.610993978952028"><ele>100.75</ele><time>2026-03-28T09:08:38Z</time></trkpt><trkpt lat="45.385687493248724" lon="10.611088502630041"><ele>101.0</ele><time>2026-03-28T09:08:39Z</time></trkpt><trkpt lat="45.38556527695491" lon="10.611214500762383"><ele>101.66666666666666</ele><time>2026-03-28T09:08:40Z</time></trkpt><trkpt lat="45.385415189626606" lon="10.611347999217704"><ele>102.33333333333334</ele><time>2026-03-28T09:08:41Z</time></trkpt><trkpt lat="45.38526703025713" lon="10.611504366679355"><ele>103.0</ele><time>2026-03-28T09:08:42Z</time></trkpt><trkpt lat="45.38510432360246" lon="10.611665574265292"><ele>103.0</ele><time>2026-03-28T09:08:43Z</time></trkpt><trkpt lat="45.384916099274086" lon="10.611796611949428"><ele>103.0</ele><time>2026-03-28T09:08:44Z</time></trkpt><trkpt lat="45.38472487799044" lon="10.611900006674919"><ele>103.0</ele><time>2026-03-28T09:08:45Z</time></trkpt><trkpt lat="45.38451958552234" lon="10.612001091294438"><ele>103.66666666666667</ele><time>2026-03-28T09:08:46Z</time></trkpt><trkpt lat="45.38431520877825" lon="10.612106734757992"><ele>104.33333333333334</ele><time>2026-03-28T09:08:47Z</time></trkpt><trkpt lat="45.384125057126276" lon="10.612205025178454"><ele>105.0</ele><time>2026-03-28T09:08:48Z</time></trkpt><trkpt lat="45.38394356524943" lon="10.612298839313972"><ele>104.33333333333334</ele><time>2026-03-28T09:08:49Z</time></trkpt><trkpt lat="45.38377197169582" lon="10.612386700653243"><ele>103.66666666666667</ele><time>2026-03-28T09:08:50Z</time></trkpt><trkpt lat="45.3836009517867" lon="10.612506451807823"><ele>103.0</ele><time>2026-03-28T09:08:51Z</time></trkpt><trkpt lat="45.38342997410954" lon="10.612616060494654"><ele>103.0</ele><time>2026-03-28T09:08:52Z</time></trkpt><trkpt lat="45.38327510734551" lon="10.612751707786114"><ele>103.0</ele><time>2026-03-28T09:08:53Z</time></trkpt><trkpt lat="45.383112948028476" lon="10.612908591480771"><ele>103.0</ele><time>2026-03-28T09:08:54Z</time></trkpt><trkpt lat="45.38294746694553" lon="10.613055430145177"><ele>103.0</ele><time>2026-03-28T09:08:55Z</time></trkpt><trkpt lat="45.38281662197818" lon="10.613210642224493"><ele>103.0</ele><time>2026-03-28T09:08:56Z</time></trkpt><trkpt lat="45.382708082543274" lon="10.613392015818546"><ele>103.0</ele><time>2026-03-28T09:08:57Z</time></trkpt><trkpt lat="45.38258898540941" lon="10.613517124170366"><ele>102.75</ele><time>2026-03-28T09:08:58Z</time></trkpt><trkpt lat="45.38247907987563" lon="10.613657906095328"><ele>102.5</ele><time>2026-03-28T09:08:59Z</time></trkpt><trkpt lat="45.382387688999444" lon="10.6137824123459"><ele>102.25</ele><time>2026-03-28T09:09:00Z</time></trkpt><trkpt lat="45.382296247477676" lon="10.613906987777797"><ele>102.0</ele><time>2026-03-28T09:09:01Z</time></trkpt><trkpt lat="45.38222518307862" lon="10.614034279084395"><ele>102.16666666666667</ele><time>2026-03-28T09:09:02Z</time></trkpt><trkpt lat="45.38214709811304" lon="10.614130544433218"><ele>102.33333333333334</ele><time>2026-03-28T09:09:03Z</time></trkpt><trkpt lat="45.38208711168835" lon="10.61422177472878"><ele>102.5</ele><time>2026-03-28T09:09:04Z</time></trkpt><trkpt lat="45.38202988572792" lon="10.614293493964054"><ele>102.66666666666667</ele><time>2026-03-28T09:09:05Z</time></trkpt><trkpt lat="45.38198233332808" lon="10.614365171623229"><ele>102.83333333333334</ele><time>2026-03-28T09:09:06Z</time></trkpt><trkpt lat="45.381925911054" lon="10.614411225904288"><ele>103.0</ele><time>2026-03-28T09:09:07Z</time></trkpt><trkpt lat="45.381867474954795" lon="10.614490069234913"><ele>103.0</ele><time>2026-03-28T09:09:09Z</time></trkpt><trkpt lat="45.38183353692926" lon="10.614596044309568"><ele>103.0</ele><time>2026-03-28T09:09:11Z</time></trkpt><trkpt lat="45.38197918520783" lon="10.61494928405984"><ele>103.0</ele><time>2026-03-28T09:09:12Z</time></trkpt><trkpt lat="45.3819739995986" lon="10.615093511237617"><ele>103.0</ele><time>2026-03-28T09:09:13Z</time></trkpt><trkpt lat="45.381967545848504" lon="10.615292259336586"><ele>103.0</ele><time>2026-03-28T09:09:14Z</time></trkpt><trkpt lat="45.381957726209386" lon="10.615513325378215"><ele>103.0</ele><time>2026-03-28T09:09:15Z</time></trkpt><trkpt lat="45.38195315342083" lon="10.615749489491142"><ele>103.0</ele><time>2026-03-28T09:09:16Z</time></trkpt><trkpt lat="45.381947893975656" lon="10.615987181551143"><ele>103.0</ele><time>2026-03-28T09:09:17Z</time></trkpt><trkpt lat="45.38194368717936" lon="10.6162254398225"><ele>103.0</ele><time>2026-03-28T09:09:18Z</time></trkpt><trkpt lat="45.38194317187696" lon="10.616435055177293"><ele>103.0</ele><time>2026-03-28T09:09:19Z</time></trkpt><trkpt lat="45.381937693368215" lon="10.616628079141954"><ele>103.0</ele><time>2026-03-28T09:09:20Z</time></trkpt><trkpt lat="45.38193328791158" lon="10.616827383642894"><ele>103.0</ele><time>2026-03-28T09:09:21Z</time></trkpt><trkpt lat="45.381927542141575" lon="10.61701952051218"><ele>103.0</ele><time>2026-03-28T09:09:22Z</time></trkpt><trkpt lat="45.381926377308794" lon="10.617203430024228"><ele>102.80000000000001</ele><time>2026-03-28T09:09:23Z</time></trkpt><trkpt lat="45.38192389012336" lon="10.61737514196058"><ele>102.6</ele><time>2026-03-28T09:09:24Z</time></trkpt><trkpt lat="45.38190981685535" lon="10.617536340441994"><ele>102.4</ele><time>2026-03-28T09:09:25Z</time></trkpt><trkpt lat="45.381915643055336" lon="10.617687244641326"><ele>102.19999999999999</ele><time>2026-03-28T09:09:26Z</time></trkpt><trkpt lat="45.38192667995636" lon="10.617839063039295"><ele>102.0</ele><time>2026-03-28T09:09:27Z</time></trkpt><trkpt lat="45.381950099534706" lon="10.617978105108534"><ele>102.0</ele><time>2026-03-28T09:09:28Z</time></trkpt><trkpt lat="45.381980370092094" lon="10.618119448458808"><ele>102.0</ele><time>2026-03-28T09:09:29Z</time></trkpt><trkpt lat="45.38200225413775" lon="10.618258533188556"><ele>102.0</ele><time>2026-03-28T09:09:30Z</time></trkpt><trkpt lat="45.382011234853586" lon="10.618411298680904"><ele>102.0</ele><time>2026-03-28T09:09:31Z</time></trkpt><trkpt lat="45.38201639895908" lon="10.618557769581022"><ele>102.0</ele><time>2026-03-28T09:09:32Z</time></trkpt><trkpt lat="45.38202503440116" lon="10.618689146974543"><ele>102.6</ele><time>2026-03-28T09:09:33Z</time></trkpt><trkpt lat="45.38205431122019" lon="10.61880309626163"><ele>103.19999999999999</ele><time>2026-03-28T09:09:34Z</time></trkpt><trkpt lat="45.38209112138692" lon="10.61894686477475"><ele>103.8</ele><time>2026-03-28T09:09:35Z</time></trkpt><trkpt lat="45.38211119877341" lon="10.619080332834807"><ele>104.4</ele><time>2026-03-28T09:09:36Z</time></trkpt><trkpt lat="45.38213132312108" lon="10.619223611171812"><ele>105.0</ele><time>2026-03-28T09:09:37Z</time></trkpt><trkpt lat="45.38213211734805" lon="10.619330322832623"><ele>105.0</ele><time>2026-03-28T09:09:38Z</time></trkpt><trkpt lat="45.38211289040643" lon="10.619450638269681"><ele>105.0</ele><time>2026-03-28T09:09:39Z</time></trkpt><trkpt lat="45.38208016355459" lon="10.61959406143425"><ele>105.0</ele><time>2026-03-28T09:09:40Z</time></trkpt><trkpt lat="45.38204074762414" lon="10.619729432356808"><ele>105.0</ele><time>2026-03-28T09:09:41Z</time></trkpt><trkpt lat="45.382002098156214" lon="10.619858221505735"><ele>105.0</ele><time>2026-03-28T09:09:42Z</time></trkpt><trkpt lat="45.381964964011225" lon="10.619981360699683"><ele>104.83333333333333</ele><time>2026-03-28T09:09:43Z</time></trkpt><trkpt lat="45.381929196425126" lon="10.620095983656794"><ele>104.66666666666666</ele><time>2026-03-28T09:09:44Z</time></trkpt><trkpt lat="45.381893730069365" lon="10.620217947625452"><ele>104.5</ele><time>2026-03-28T09:09:45Z</time></trkpt><trkpt lat="45.381851428092205" lon="10.620334944650812"><ele>104.33333333333333</ele><time>2026-03-28T09:09:46Z</time></trkpt><trkpt lat="45.381812607119706" lon="10.620444790817185"><ele>104.16666666666666</ele><time>2026-03-28T09:09:47Z</time></trkpt><trkpt lat="45.38178025784753" lon="10.620547776669417"><ele>104.0</ele><time>2026-03-28T09:09:48Z</time></trkpt><trkpt lat="45.38176106071663" lon="10.620641692908919"><ele>103.4</ele><time>2026-03-28T09:09:49Z</time></trkpt><trkpt lat="45.38175470653122" lon="10.620757426036008"><ele>102.80000000000001</ele><time>2026-03-28T09:09:50Z</time></trkpt><trkpt lat="45.38175463043133" lon="10.620891183675385"><ele>102.19999999999999</ele><time>2026-03-28T09:09:51Z</time></trkpt><trkpt lat="45.381748474001526" lon="10.621063335508333"><ele>101.6</ele><time>2026-03-28T09:09:52Z</time></trkpt><trkpt lat="45.38174473704865" lon="10.621215454617657"><ele>101.0</ele><time>2026-03-28T09:09:53Z</time></trkpt><trkpt lat="45.38174528799217" lon="10.621387216287008"><ele>100.8</ele><time>2026-03-28T09:09:54Z</time></trkpt><trkpt lat="45.38174944070446" lon="10.621543788180954"><ele>100.6</ele><time>2026-03-28T09:09:55Z</time></trkpt><trkpt lat="45.3817512194161" lon="10.621701260968251"><ele>100.4</ele><time>2026-03-28T09:09:56Z</time></trkpt><trkpt lat="45.381744998615424" lon="10.621861168351405"><ele>100.2</ele><time>2026-03-28T09:09:57Z</time></trkpt><trkpt lat="45.38173426593136" lon="10.622014716581491"><ele>100.0</ele><time>2026-03-28T09:09:58Z</time></trkpt><trkpt lat="45.381726661100075" lon="10.622167781604256"><ele>100.0</ele><time>2026-03-28T09:09:59Z</time></trkpt><trkpt lat="45.38171458940553" lon="10.622326585148764"><ele>100.0</ele><time>2026-03-28T09:10:00Z</time></trkpt><trkpt lat="45.38170637306349" lon="10.622468672205592"><ele>100.0</ele><time>2026-03-28T09:10:01Z</time></trkpt><trkpt lat="45.38169979957914" lon="10.622631826515532"><ele>100.0</ele><time>2026-03-28T09:10:02Z</time></trkpt><trkpt lat="45.38167902646902" lon="10.622808189432456"><ele>100.0</ele><time>2026-03-28T09:10:03Z</time></trkpt><trkpt lat="45.38165567071496" lon="10.622983139192316"><ele>100.0</ele><time>2026-03-28T09:10:04Z</time></trkpt><trkpt lat="45.3816407597283" lon="10.623128926033063"><ele>100.0</ele><time>2026-03-28T09:10:05Z</time></trkpt><trkpt lat="45.38163869106442" lon="10.62324668918947"><ele>100.0</ele><time>2026-03-28T09:10:06Z</time></trkpt><trkpt lat="45.381685373463625" lon="10.623355993847715"><ele>100.0</ele><time>2026-03-28T09:10:07Z</time></trkpt><trkpt lat="45.38169408462584" lon="10.62348735639243"><ele>100.0</ele><time>2026-03-28T09:10:08Z</time></trkpt><trkpt lat="45.38169586790207" lon="10.623634136112173"><ele>100.0</ele><time>2026-03-28T09:10:09Z</time></trkpt><trkpt lat="45.38166620684048" lon="10.623806324435307"><ele>100.0</ele><time>2026-03-28T09:10:10Z</time></trkpt><trkpt lat="45.38166560650388" lon="10.623994432350143"><ele>100.0</ele><time>2026-03-28T09:10:11Z</time></trkpt><trkpt lat="45.38164140091029" lon="10.624195749171156"><ele>100.25</ele><time>2026-03-28T09:10:12Z</time></trkpt><trkpt lat="45.38162034759138" lon="10.624401159160177"><ele>100.5</ele><time>2026-03-28T09:10:13Z</time></trkpt><trkpt lat="45.381619935825086" lon="10.624606549474"><ele>100.75</ele><time>2026-03-28T09:10:14Z</time></trkpt><trkpt lat="45.38161424010179" lon="10.624806320564927"><ele>101.0</ele><time>2026-03-28T09:10:15Z</time></trkpt><trkpt lat="45.381607195039734" lon="10.625014016287283"><ele>100.75</ele><time>2026-03-28T09:10:16Z</time></trkpt><trkpt lat="45.381589023578975" lon="10.62521506685557"><ele>100.5</ele><time>2026-03-28T09:10:17Z</time></trkpt><trkpt lat="45.38156440853075" lon="10.625423844730253"><ele>100.25</ele><time>2026-03-28T09:10:18Z</time></trkpt><trkpt lat="45.38153551610885" lon="10.625619183881831"><ele>100.0</ele><time>2026-03-28T09:10:19Z</time></trkpt><trkpt lat="45.38150776499946" lon="10.625817583361004"><ele>100.0</ele><time>2026-03-28T09:10:20Z</time></trkpt><trkpt lat="45.38148111867462" lon="10.62601398287235"><ele>100.0</ele><time>2026-03-28T09:10:21Z</time></trkpt><trkpt lat="45.381457815184184" lon="10.626206401704133"><ele>100.0</ele><time>2026-03-28T09:10:22Z</time></trkpt><trkpt lat="45.38142674017348" lon="10.626409274808392"><ele>100.0</ele><time>2026-03-28T09:10:23Z</time></trkpt><trkpt lat="45.38140202087641" lon="10.62658156861533"><ele>100.25</ele><time>2026-03-28T09:10:24Z</time></trkpt><trkpt lat="45.38137939114246" lon="10.626745585785981"><ele>100.5</ele><time>2026-03-28T09:10:25Z</time></trkpt><trkpt lat="45.381355248248724" lon="10.626909221282213"><ele>100.75</ele><time>2026-03-28T09:10:26Z</time></trkpt><trkpt lat="45.381330455267666" lon="10.62707615453422"><ele>101.0</ele><time>2026-03-28T09:10:27Z</time></trkpt><trkpt lat="45.38130695173934" lon="10.627239522272914"><ele>100.83333333333333</ele><time>2026-03-28T09:10:28Z</time></trkpt><trkpt lat="45.38128875097058" lon="10.62738075355776"><ele>100.66666666666666</ele><time>2026-03-28T09:10:29Z</time></trkpt><trkpt lat="45.38127186915589" lon="10.627496330463181"><ele>100.5</ele><time>2026-03-28T09:10:30Z</time></trkpt><trkpt lat="45.381262971327374" lon="10.627605824453047"><ele>100.33333333333334</ele><time>2026-03-28T09:10:31Z</time></trkpt><trkpt lat="45.3812138651897" lon="10.62768625011895"><ele>100.16666666666667</ele><time>2026-03-28T09:10:32Z</time></trkpt><trkpt lat="45.381179212860495" lon="10.6277733221535"><ele>100.0</ele><time>2026-03-28T09:10:33Z</time></trkpt><trkpt lat="45.38110435180545" lon="10.627836538256558"><ele>100.0</ele><time>2026-03-28T09:10:35Z</time></trkpt><trkpt lat="45.38097241546905" lon="10.627908023690308"><ele>100.0</ele><time>2026-03-28T09:10:37Z</time></trkpt><trkpt lat="45.38087835905108" lon="10.627940782241938"><ele>100.0</ele><time>2026-03-28T09:10:38Z</time></trkpt><trkpt lat="45.38076567751325" lon="10.627976299140444"><ele>100.0</ele><time>2026-03-28T09:10:39Z</time></trkpt><trkpt lat="45.38065177030604" lon="10.62802135383631"><ele>100.0</ele><time>2026-03-28T09:10:40Z</time></trkpt><trkpt lat="45.38053424326959" lon="10.628085357193422"><ele>100.0</ele><time>2026-03-28T09:10:41Z</time></trkpt><trkpt lat="45.380411194959756" lon="10.628168324667215"><ele>100.0</ele><time>2026-03-28T09:10:42Z</time></trkpt><trkpt lat="45.38031221670529" lon="10.628254562222814"><ele>100.0</ele><time>2026-03-28T09:10:43Z</time></trkpt><trkpt lat="45.380216353188025" lon="10.628324847170113"><ele>101.6</ele><time>2026-03-28T09:10:44Z</time></trkpt><trkpt lat="45.380122864695586" lon="10.628382192361705"><ele>103.2</ele><time>2026-03-28T09:10:45Z</time></trkpt><trkpt lat="45.38003739748932" lon="10.628449307758578"><ele>104.80000000000001</ele><time>2026-03-28T09:10:46Z</time></trkpt><trkpt lat="45.37995069212141" lon="10.62850436069913"><ele>106.4</ele><time>2026-03-28T09:10:47Z</time></trkpt><trkpt lat="45.37986753297598" lon="10.628544457458625"><ele>108.0</ele><time>2026-03-28T09:10:48Z</time></trkpt><trkpt lat="45.379789861852686" lon="10.62852319806638"><ele>108.0</ele><time>2026-03-28T09:10:49Z</time></trkpt><trkpt lat="45.37968859326082" lon="10.628492444976262"><ele>108.00000000000001</ele><time>2026-03-28T09:10:50Z</time></trkpt><trkpt lat="45.37958268030529" lon="10.628454692625144"><ele>108.00000000000001</ele><time>2026-03-28T09:10:51Z</time></trkpt><trkpt lat="45.37947118676298" lon="10.628419810276988"><ele>108.0</ele><time>2026-03-28T09:10:52Z</time></trkpt><trkpt lat="45.37937345221381" lon="10.628368170381709"><ele>108.0</ele><time>2026-03-28T09:10:53Z</time></trkpt><trkpt lat="45.37929970798667" lon="10.628319703088247"><ele>108.4</ele><time>2026-03-28T09:10:54Z</time></trkpt><trkpt lat="45.3792060317891" lon="10.628334049399832"><ele>108.80000000000001</ele><time>2026-03-28T09:10:55Z</time></trkpt><trkpt lat="45.37912642091409" lon="10.628351280457188"><ele>109.2</ele><time>2026-03-28T09:10:56Z</time></trkpt><trkpt lat="45.37901652102653" lon="10.628382093231943"><ele>109.6</ele><time>2026-03-28T09:10:57Z</time></trkpt><trkpt lat="45.37888657193398" lon="10.628432030343088"><ele>110.0</ele><time>2026-03-28T09:10:58Z</time></trkpt><trkpt lat="45.37877469654534" lon="10.62850597123753"><ele>108.75</ele><time>2026-03-28T09:10:59Z</time></trkpt><trkpt lat="45.378671798348634" lon="10.628553767875045"><ele>107.5</ele><time>2026-03-28T09:11:00Z</time></trkpt><trkpt lat="45.378577333385195" lon="10.628614254114579"><ele>106.25</ele><time>2026-03-28T09:11:01Z</time></trkpt><trkpt lat="45.37844975093124" lon="10.628673961682932"><ele>105.0</ele><time>2026-03-28T09:11:02Z</time></trkpt><trkpt lat="45.37831458985675" lon="10.628788085815003"><ele>105.0</ele><time>2026-03-28T09:11:03Z</time></trkpt><trkpt lat="45.378185680067716" lon="10.628933461819502"><ele>105.0</ele><time>2026-03-28T09:11:04Z</time></trkpt><trkpt lat="45.37804011107368" lon="10.629073324759322"><ele>105.0</ele><time>2026-03-28T09:11:05Z</time></trkpt><trkpt lat="45.37790958501127" lon="10.629201274764625"><ele>105.25</ele><time>2026-03-28T09:11:06Z</time></trkpt><trkpt lat="45.377798930686545" lon="10.629322603791417"><ele>105.5</ele><time>2026-03-28T09:11:07Z</time></trkpt><trkpt lat="45.37770434873689" lon="10.62944654420376"><ele>105.75</ele><time>2026-03-28T09:11:08Z</time></trkpt><trkpt lat="45.37762442165902" lon="10.629581026748701"><ele>106.0</ele><time>2026-03-28T09:11:09Z</time></trkpt><trkpt lat="45.377546560397406" lon="10.629707889103651"><ele>106.0</ele><time>2026-03-28T09:11:10Z</time></trkpt><trkpt lat="45.37747961877808" lon="10.629817883782604"><ele>106.0</ele><time>2026-03-28T09:11:11Z</time></trkpt><trkpt lat="45.377414570507106" lon="10.629929617462787"><ele>106.0</ele><time>2026-03-28T09:11:12Z</time></trkpt><trkpt lat="45.37734925975263" lon="10.630034113163719"><ele>106.0</ele><time>2026-03-28T09:11:13Z</time></trkpt><trkpt lat="45.377282187072716" lon="10.63012920872891"><ele>106.0</ele><time>2026-03-28T09:11:14Z</time></trkpt><trkpt lat="45.377203255138845" lon="10.630190220437772"><ele>107.19999999999999</ele><time>2026-03-28T09:11:15Z</time></trkpt><trkpt lat="45.37713531372047" lon="10.630234124844417"><ele>108.39999999999999</ele><time>2026-03-28T09:11:16Z</time></trkpt><trkpt lat="45.37705806325922" lon="10.630246392893126"><ele>109.6</ele><time>2026-03-28T09:11:17Z</time></trkpt><trkpt lat="45.37695649884326" lon="10.630265288242821"><ele>110.8</ele><time>2026-03-28T09:11:18Z</time></trkpt><trkpt lat="45.37684903325451" lon="10.630296475603405"><ele>112.0</ele><time>2026-03-28T09:11:19Z</time></trkpt><trkpt lat="45.376756335116" lon="10.630344528211426"><ele>112.0</ele><time>2026-03-28T09:11:20Z</time></trkpt><trkpt lat="45.37667350030615" lon="10.630361665712284"><ele>111.99999999999999</ele><time>2026-03-28T09:11:21Z</time></trkpt><trkpt lat="45.37660487323331" lon="10.630450164277624"><ele>111.99999999999999</ele><time>2026-03-28T09:11:22Z</time></trkpt><trkpt lat="45.376539455127926" lon="10.63054303005162"><ele>112.0</ele><time>2026-03-28T09:11:23Z</time></trkpt><trkpt lat="45.37647111185841" lon="10.630669691566242"><ele>112.0</ele><time>2026-03-28T09:11:24Z</time></trkpt><trkpt lat="45.37641119562407" lon="10.630836223291018"><ele>117.33333333333334</ele><time>2026-03-28T09:11:25Z</time></trkpt><trkpt lat="45.37633912973557" lon="10.631021105666017"><ele>122.66666666666666</ele><time>2026-03-28T09:11:26Z</time></trkpt><trkpt lat="45.37627765967512" lon="10.631228726299437"><ele>128.0</ele><time>2026-03-28T09:11:27Z</time></trkpt><trkpt lat="45.37621596882764" lon="10.631439415465412"><ele>128.0</ele><time>2026-03-28T09:11:28Z</time></trkpt><trkpt lat="45.37616606055377" lon="10.631666931620149"><ele>128.0</ele><time>2026-03-28T09:11:29Z</time></trkpt><trkpt lat="45.37609890190159" lon="10.631899158773244"><ele>128.0</ele><time>2026-03-28T09:11:30Z</time></trkpt><trkpt lat="45.3760400447015" lon="10.632138247941066"><ele>125.33333333333333</ele><time>2026-03-28T09:11:31Z</time></trkpt><trkpt lat="45.375992000369926" lon="10.632376946660743"><ele>122.66666666666666</ele><time>2026-03-28T09:11:32Z</time></trkpt><trkpt lat="45.37596487436183" lon="10.632588057738008"><ele>120.0</ele><time>2026-03-28T09:11:33Z</time></trkpt><trkpt lat="45.37594497427598" lon="10.632789468009975"><ele>118.2</ele><time>2026-03-28T09:11:34Z</time></trkpt><trkpt lat="45.375926345813944" lon="10.632962665230217"><ele>116.4</ele><time>2026-03-28T09:11:35Z</time></trkpt><trkpt lat="45.375908785448544" lon="10.633116411594168"><ele>114.6</ele><time>2026-03-28T09:11:36Z</time></trkpt><trkpt lat="45.375907822832644" lon="10.633248590192727"><ele>112.8</ele><time>2026-03-28T09:11:37Z</time></trkpt><trkpt lat="45.3758799834674" lon="10.633378085897736"><ele>111.0</ele><time>2026-03-28T09:11:38Z</time></trkpt><trkpt lat="45.37588053856094" lon="10.633481987509567"><ele>111.0</ele><time>2026-03-28T09:11:39Z</time></trkpt><trkpt lat="45.375856941370905" lon="10.633589701757634"><ele>111.0</ele><time>2026-03-28T09:11:40Z</time></trkpt><trkpt lat="45.37584352432175" lon="10.633750642679908"><ele>111.0</ele><time>2026-03-28T09:11:42Z</time></trkpt><trkpt lat="45.37586254552891" lon="10.633838708326447"><ele>111.0</ele><time>2026-03-28T09:11:43Z</time></trkpt><trkpt lat="45.375907869448376" lon="10.633923459299522"><ele>111.0</ele><time>2026-03-28T09:11:44Z</time></trkpt><trkpt lat="45.3759646181041" lon="10.634014286253995"><ele>111.0</ele><time>2026-03-28T09:11:45Z</time></trkpt><trkpt lat="45.376025543913784" lon="10.634117433696503"><ele>110.4</ele><time>2026-03-28T09:11:46Z</time></trkpt><trkpt lat="45.37609850533769" lon="10.634223143607123"><ele>109.8</ele><time>2026-03-28T09:11:47Z</time></trkpt><trkpt lat="45.37619182924169" lon="10.634320628363168"><ele>109.20000000000002</ele><time>2026-03-28T09:11:48Z</time></trkpt><trkpt lat="45.376283343567046" lon="10.63440861878999"><ele>108.60000000000001</ele><time>2026-03-28T09:11:49Z</time></trkpt><trkpt lat="45.37635124082374" lon="10.634498671971977"><ele>108.0</ele><time>2026-03-28T09:11:50Z</time></trkpt><trkpt lat="45.37639071380596" lon="10.634581087004301"><ele>107.60000000000001</ele><time>2026-03-28T09:11:51Z</time></trkpt><trkpt lat="45.37642771203663" lon="10.634697282466671"><ele>107.20000000000002</ele><time>2026-03-28T09:11:52Z</time></trkpt><trkpt lat="45.37645495180196" lon="10.63484154094733"><ele>106.8</ele><time>2026-03-28T09:11:53Z</time></trkpt><trkpt lat="45.376494457296936" lon="10.634964273297395"><ele>106.4</ele><time>2026-03-28T09:11:54Z</time></trkpt><trkpt lat="45.37653139437982" lon="10.635106074365039"><ele>106.0</ele><time>2026-03-28T09:11:55Z</time></trkpt><trkpt lat="45.376574736804095" lon="10.63521152584357"><ele>107.33333333333334</ele><time>2026-03-28T09:11:56Z</time></trkpt><trkpt lat="45.37656819401839" lon="10.635305464408043"><ele>108.66666666666667</ele><time>2026-03-28T09:11:57Z</time></trkpt><trkpt lat="45.376527961460624" lon="10.635468353831666"><ele>110.0</ele><time>2026-03-28T09:11:59Z</time></trkpt><trkpt lat="45.37649727178033" lon="10.635554357658563"><ele>111.33333333333334</ele><time>2026-03-28T09:12:00Z</time></trkpt><trkpt lat="45.37646212839676" lon="10.63566364902292"><ele>112.66666666666667</ele><time>2026-03-28T09:12:01Z</time></trkpt><trkpt lat="45.37642946231268" lon="10.635765236283973"><ele>114.0</ele><time>2026-03-28T09:12:02Z</time></trkpt><trkpt lat="45.37639799640702" lon="10.63588468412822"><ele>114.5</ele><time>2026-03-28T09:12:04Z</time></trkpt><trkpt lat="45.37630965079998" lon="10.635758435913981"><ele>115.0</ele><time>2026-03-28T09:12:06Z</time></trkpt><trkpt lat="45.376227139003056" lon="10.635694774099813"><ele>115.5</ele><time>2026-03-28T09:12:07Z</time></trkpt><trkpt lat="45.37611952068599" lon="10.635618373094555"><ele>116.0</ele><time>2026-03-28T09:12:08Z</time></trkpt><trkpt lat="45.376004426119685" lon="10.635518667768888"><ele>116.0</ele><time>2026-03-28T09:12:09Z</time></trkpt><trkpt lat="45.37589456588856" lon="10.635436442668448"><ele>116.0</ele><time>2026-03-28T09:12:10Z</time></trkpt><trkpt lat="45.375787867832884" lon="10.635377107893733"><ele>116.0</ele><time>2026-03-28T09:12:11Z</time></trkpt><trkpt lat="45.375681465203215" lon="10.635335773148283"><ele>116.0</ele><time>2026-03-28T09:12:12Z</time></trkpt><trkpt lat="45.37557901709172" lon="10.635323930287566"><ele>115.19999999999999</ele><time>2026-03-28T09:12:13Z</time></trkpt><trkpt lat="45.375487114988125" lon="10.63534594534336"><ele>114.39999999999999</ele><time>2026-03-28T09:12:14Z</time></trkpt><trkpt lat="45.37538052018494" lon="10.635364079926964"><ele>113.6</ele><time>2026-03-28T09:12:15Z</time></trkpt><trkpt lat="45.37528108417958" lon="10.635471216167527"><ele>112.8</ele><time>2026-03-28T09:12:16Z</time></trkpt><trkpt lat="45.375210350277236" lon="10.635574045033213"><ele>112.0</ele><time>2026-03-28T09:12:17Z</time></trkpt><trkpt lat="45.37514592806594" lon="10.635665045940472"><ele>112.0</ele><time>2026-03-28T09:12:18Z</time></trkpt><trkpt lat="45.37508164689939" lon="10.63572354913695"><ele>112.0</ele><time>2026-03-28T09:12:19Z</time></trkpt><trkpt lat="45.37498292507043" lon="10.635878373984427"><ele>112.0</ele><time>2026-03-28T09:12:21Z</time></trkpt><trkpt lat="45.37488562990124" lon="10.635968699930341"><ele>112.0</ele><time>2026-03-28T09:12:22Z</time></trkpt><trkpt lat="45.37480837296137" lon="10.636098265974365"><ele>112.39999999999999</ele><time>2026-03-28T09:12:23Z</time></trkpt><trkpt lat="45.37471971780967" lon="10.636188475302323"><ele>112.79999999999998</ele><time>2026-03-28T09:12:24Z</time></trkpt><trkpt lat="45.37463591256556" lon="10.636262358894609"><ele>113.2</ele><time>2026-03-28T09:12:25Z</time></trkpt><trkpt lat="45.37456987094287" lon="10.636324348986422"><ele>113.6</ele><time>2026-03-28T09:12:26Z</time></trkpt><trkpt lat="45.37450741816863" lon="10.636385594162391"><ele>114.0</ele><time>2026-03-28T09:12:27Z</time></trkpt><trkpt lat="45.374407684708146" lon="10.63646996101666"><ele>113.0</ele><time>2026-03-28T09:12:29Z</time></trkpt><trkpt lat="45.37444839596532" lon="10.636726695576327"><ele>112.0</ele><time>2026-03-28T09:12:31Z</time></trkpt><trkpt lat="45.374497822490646" lon="10.636846586857944"><ele>111.0</ele><time>2026-03-28T09:12:32Z</time></trkpt><trkpt lat="45.37455294586399" lon="10.63697984399548"><ele>110.0</ele><time>2026-03-28T09:12:33Z</time></trkpt><trkpt lat="45.37458912920446" lon="10.637128354492784"><ele>110.0</ele><time>2026-03-28T09:12:34Z</time></trkpt><trkpt lat="45.37460896578396" lon="10.637300485882216"><ele>110.0</ele><time>2026-03-28T09:12:35Z</time></trkpt><trkpt lat="45.37459003776076" lon="10.637482593732548"><ele>110.0</ele><time>2026-03-28T09:12:36Z</time></trkpt><trkpt lat="45.374597892590906" lon="10.637667976271644"><ele>110.0</ele><time>2026-03-28T09:12:37Z</time></trkpt><trkpt lat="45.37459931481724" lon="10.63781716299164"><ele>110.5</ele><time>2026-03-28T09:12:38Z</time></trkpt><trkpt lat="45.374621274850156" lon="10.637965505356782"><ele>111.0</ele><time>2026-03-28T09:12:39Z</time></trkpt><trkpt lat="45.374651945788436" lon="10.638131954289827"><ele>111.5</ele><time>2026-03-28T09:12:40Z</time></trkpt><trkpt lat="45.37469198522904" lon="10.638303882002715"><ele>112.0</ele><time>2026-03-28T09:12:41Z</time></trkpt><trkpt lat="45.37473168602332" lon="10.638467684482803"><ele>113.0</ele><time>2026-03-28T09:12:42Z</time></trkpt><trkpt lat="45.37474531717775" lon="10.638616590574266"><ele>113.99999999999999</ele><time>2026-03-28T09:12:43Z</time></trkpt><trkpt lat="45.3747641804589" lon="10.638751630733585"><ele>114.99999999999999</ele><time>2026-03-28T09:12:44Z</time></trkpt><trkpt lat="45.37479161532097" lon="10.63888562357398"><ele>116.0</ele><time>2026-03-28T09:12:45Z</time></trkpt><trkpt lat="45.37480848561836" lon="10.639035569868108"><ele>117.0</ele><time>2026-03-28T09:12:46Z</time></trkpt><trkpt lat="45.37479421328481" lon="10.639192972029848"><ele>117.25</ele><time>2026-03-28T09:12:47Z</time></trkpt><trkpt lat="45.37480612392651" lon="10.639345605985024"><ele>117.5</ele><time>2026-03-28T09:12:48Z</time></trkpt><trkpt lat="45.37481934134388" lon="10.639507535659277"><ele>117.75</ele><time>2026-03-28T09:12:49Z</time></trkpt><trkpt lat="45.37485527955015" lon="10.639676859122522"><ele>118.0</ele><time>2026-03-28T09:12:50Z</time></trkpt><trkpt lat="45.3749009283046" lon="10.639842988781481"><ele>118.0</ele><time>2026-03-28T09:12:51Z</time></trkpt><trkpt lat="45.37496718571442" lon="10.640013151549887"><ele>118.0</ele><time>2026-03-28T09:12:52Z</time></trkpt><trkpt lat="45.375050205169764" lon="10.64017568177198"><ele>118.0</ele><time>2026-03-28T09:12:53Z</time></trkpt><trkpt lat="45.375134142846306" lon="10.640318229337835"><ele>118.0</ele><time>2026-03-28T09:12:54Z</time></trkpt><trkpt lat="45.375208588576335" lon="10.640456636632274"><ele>116.75</ele><time>2026-03-28T09:12:55Z</time></trkpt><trkpt lat="45.37526627719611" lon="10.64057475857892"><ele>115.5</ele><time>2026-03-28T09:12:56Z</time></trkpt><trkpt lat="45.37536242031859" lon="10.640791272645107"><ele>114.25</ele><time>2026-03-28T09:12:58Z</time></trkpt><trkpt lat="45.3753890930872" lon="10.640880182135072"><ele>113.0</ele><time>2026-03-28T09:12:59Z</time></trkpt><trkpt lat="45.37522286754182" lon="10.641038801610664"><ele>113.0</ele><time>2026-03-28T09:13:00Z</time></trkpt><trkpt lat="45.37515823163768" lon="10.641125526828658"><ele>113.0</ele><time>2026-03-28T09:13:01Z</time></trkpt><trkpt lat="45.37508725363045" lon="10.641200770243797"><ele>113.0</ele><time>2026-03-28T09:13:02Z</time></trkpt><trkpt lat="45.374944055803205" lon="10.641158907930421"><ele>113.0</ele><time>2026-03-28T09:13:03Z</time></trkpt><trkpt lat="45.37480742703752" lon="10.641200425937694"><ele>111.66666666666666</ele><time>2026-03-28T09:13:04Z</time></trkpt><trkpt lat="45.3746480983116" lon="10.641202289715352"><ele>110.33333333333334</ele><time>2026-03-28T09:13:05Z</time></trkpt><trkpt lat="45.37447998618703" lon="10.641195995332431"><ele>109.0</ele><time>2026-03-28T09:13:06Z</time></trkpt><trkpt lat="45.37431058357338" lon="10.641187806018385"><ele>109.0</ele><time>2026-03-28T09:13:07Z</time></trkpt><trkpt lat="45.374126480021324" lon="10.641190648803114"><ele>109.0</ele><time>2026-03-28T09:13:08Z</time></trkpt><trkpt lat="45.37394725421748" lon="10.641208875527681"><ele>109.0</ele><time>2026-03-28T09:13:09Z</time></trkpt><trkpt lat="45.373768385573456" lon="10.641269320542492"><ele>108.0</ele><time>2026-03-28T09:13:10Z</time></trkpt><trkpt lat="45.37358850086909" lon="10.641392384733118"><ele>107.0</ele><time>2026-03-28T09:13:11Z</time></trkpt><trkpt lat="45.37341138373224" lon="10.641559478272853"><ele>106.0</ele><time>2026-03-28T09:13:12Z</time></trkpt><trkpt lat="45.373242475545275" lon="10.641745095340697"><ele>106.0</ele><time>2026-03-28T09:13:13Z</time></trkpt><trkpt lat="45.373060480907036" lon="10.641894888731162"><ele>106.0</ele><time>2026-03-28T09:13:14Z</time></trkpt><trkpt lat="45.37289925909089" lon="10.642042154057203"><ele>106.0</ele><time>2026-03-28T09:13:15Z</time></trkpt><trkpt lat="45.372754340329024" lon="10.64218185792438"><ele>106.0</ele><time>2026-03-28T09:13:16Z</time></trkpt><trkpt lat="45.37257708412428" lon="10.642231534531218"><ele>106.0</ele><time>2026-03-28T09:13:17Z</time></trkpt><trkpt lat="45.37240484300683" lon="10.64227398811019"><ele>106.0</ele><time>2026-03-28T09:13:18Z</time></trkpt><trkpt lat="45.372222978814555" lon="10.642310160169433"><ele>107.0</ele><time>2026-03-28T09:13:19Z</time></trkpt><trkpt lat="45.372024491517166" lon="10.642347231080151"><ele>108.0</ele><time>2026-03-28T09:13:20Z</time></trkpt><trkpt lat="45.371842227584224" lon="10.642398933803198"><ele>109.0</ele><time>2026-03-28T09:13:21Z</time></trkpt><trkpt lat="45.371668374644784" lon="10.642428658570111"><ele>109.0</ele><time>2026-03-28T09:13:22Z</time></trkpt><trkpt lat="45.37150736422286" lon="10.642457860369694"><ele>109.0</ele><time>2026-03-28T09:13:23Z</time></trkpt><trkpt lat="45.37135742348244" lon="10.64249384239739"><ele>109.0</ele><time>2026-03-28T09:13:24Z</time></trkpt><trkpt lat="45.37121364063509" lon="10.642543377523754"><ele>108.66666666666667</ele><time>2026-03-28T09:13:25Z</time></trkpt><trkpt lat="45.37106897215951" lon="10.642638939086156"><ele>108.33333333333334</ele><time>2026-03-28T09:13:26Z</time></trkpt><trkpt lat="45.37093841746171" lon="10.642797910095927"><ele>108.0</ele><time>2026-03-28T09:13:27Z</time></trkpt><trkpt lat="45.37081381451636" lon="10.642994251497543"><ele>108.0</ele><time>2026-03-28T09:13:28Z</time></trkpt><trkpt lat="45.37069819762819" lon="10.64319615410246"><ele>108.0</ele><time>2026-03-28T09:13:29Z</time></trkpt><trkpt lat="45.37056897042015" lon="10.643346669379525"><ele>108.0</ele><time>2026-03-28T09:13:30Z</time></trkpt><trkpt lat="45.37042639971375" lon="10.643468375725927"><ele>108.33333333333334</ele><time>2026-03-28T09:13:31Z</time></trkpt><trkpt lat="45.370278815516805" lon="10.643555436144553"><ele>108.66666666666667</ele><time>2026-03-28T09:13:32Z</time></trkpt><trkpt lat="45.37010768570826" lon="10.643620983406933"><ele>109.0</ele><time>2026-03-28T09:13:33Z</time></trkpt><trkpt lat="45.36992318586678" lon="10.643680484015167"><ele>109.66666666666667</ele><time>2026-03-28T09:13:34Z</time></trkpt><trkpt lat="45.369730144826214" lon="10.6437695314082"><ele>110.33333333333334</ele><time>2026-03-28T09:13:35Z</time></trkpt><trkpt lat="45.369537897734375" lon="10.64384660041336"><ele>111.0</ele><time>2026-03-28T09:13:36Z</time></trkpt><trkpt lat="45.36934612515904" lon="10.643937591016673"><ele>111.0</ele><time>2026-03-28T09:13:37Z</time></trkpt><trkpt lat="45.36916840026093" lon="10.644037946807524"><ele>111.0</ele><time>2026-03-28T09:13:38Z</time></trkpt><trkpt lat="45.36900428356406" lon="10.644133012204447"><ele>111.0</ele><time>2026-03-28T09:13:39Z</time></trkpt><trkpt lat="45.36885349675713" lon="10.644215616057316"><ele>110.66666666666666</ele><time>2026-03-28T09:13:40Z</time></trkpt><trkpt lat="45.36869964226241" lon="10.644231095888937"><ele>110.33333333333333</ele><time>2026-03-28T09:13:41Z</time></trkpt><trkpt lat="45.36854047711982" lon="10.6442590103889"><ele>110.0</ele><time>2026-03-28T09:13:42Z</time></trkpt><trkpt lat="45.368375616675515" lon="10.644263845958623"><ele>110.0</ele><time>2026-03-28T09:13:43Z</time></trkpt><trkpt lat="45.36820625613489" lon="10.644294832656461"><ele>110.0</ele><time>2026-03-28T09:13:44Z</time></trkpt><trkpt lat="45.36804112924763" lon="10.644306860328102"><ele>110.0</ele><time>2026-03-28T09:13:45Z</time></trkpt><trkpt lat="45.36789250197143" lon="10.64427963715975"><ele>110.0</ele><time>2026-03-28T09:13:46Z</time></trkpt><trkpt lat="45.36774156310759" lon="10.644232997067714"><ele>110.0</ele><time>2026-03-28T09:13:47Z</time></trkpt><trkpt lat="45.36758827750774" lon="10.644205096233584"><ele>110.0</ele><time>2026-03-28T09:13:48Z</time></trkpt><trkpt lat="45.367440045673" lon="10.644096684049778"><ele>110.0</ele><time>2026-03-28T09:13:49Z</time></trkpt><trkpt lat="45.367294989323796" lon="10.643979786460775"><ele>110.0</ele><time>2026-03-28T09:13:50Z</time></trkpt><trkpt lat="45.36715070068915" lon="10.6438262608402"><ele>110.0</ele><time>2026-03-28T09:13:51Z</time></trkpt><trkpt lat="45.36699643310661" lon="10.643681580774023"><ele>109.0</ele><time>2026-03-28T09:13:52Z</time></trkpt><trkpt lat="45.366853172739766" lon="10.643519536857504"><ele>108.0</ele><time>2026-03-28T09:13:53Z</time></trkpt><trkpt lat="45.3667214537478" lon="10.643388534892821"><ele>107.0</ele><time>2026-03-28T09:13:54Z</time></trkpt><trkpt lat="45.366588123918994" lon="10.643279191991477"><ele>107.0</ele><time>2026-03-28T09:13:55Z</time></trkpt><trkpt lat="45.36643793975603" lon="10.643196304879693"><ele>107.0</ele><time>2026-03-28T09:13:56Z</time></trkpt><trkpt lat="45.36629358165829" lon="10.643150392892675"><ele>107.0</ele><time>2026-03-28T09:13:57Z</time></trkpt><trkpt lat="45.36615688215199" lon="10.643144463104065"><ele>107.0</ele><time>2026-03-28T09:13:58Z</time></trkpt><trkpt lat="45.366021749717795" lon="10.643181115354325"><ele>106.66666666666666</ele><time>2026-03-28T09:13:59Z</time></trkpt><trkpt lat="45.36588823318579" lon="10.643268267020565"><ele>106.33333333333334</ele><time>2026-03-28T09:14:00Z</time></trkpt><trkpt lat="45.36576014010367" lon="10.643400961014313"><ele>106.0</ele><time>2026-03-28T09:14:01Z</time></trkpt><trkpt lat="45.36561166081829" lon="10.643520578957121"><ele>106.33333333333334</ele><time>2026-03-28T09:14:02Z</time></trkpt><trkpt lat="45.36547644481607" lon="10.643668670200562"><ele>106.66666666666666</ele><time>2026-03-28T09:14:03Z</time></trkpt><trkpt lat="45.36532606004732" lon="10.643756070480126"><ele>107.0</ele><time>2026-03-28T09:14:04Z</time></trkpt><trkpt lat="45.36518556767288" lon="10.643833037002796"><ele>107.0</ele><time>2026-03-28T09:14:05Z</time></trkpt><trkpt lat="45.36503263155408" lon="10.643887934064528"><ele>107.0</ele><time>2026-03-28T09:14:06Z</time></trkpt><trkpt lat="45.36486808224838" lon="10.64390297275884"><ele>107.0</ele><time>2026-03-28T09:14:07Z</time></trkpt><trkpt lat="45.364694093707044" lon="10.64387349705552"><ele>107.33333333333333</ele><time>2026-03-28T09:14:08Z</time></trkpt><trkpt lat="45.36451979272634" lon="10.64382041921876"><ele>107.66666666666666</ele><time>2026-03-28T09:14:09Z</time></trkpt><trkpt lat="45.36434940562084" lon="10.643758225877658"><ele>108.0</ele><time>2026-03-28T09:14:10Z</time></trkpt><trkpt lat="45.36419605382157" lon="10.643695989826938"><ele>108.0</ele><time>2026-03-28T09:14:11Z</time></trkpt><trkpt lat="45.36405477674772" lon="10.643659770015512"><ele>108.0</ele><time>2026-03-28T09:14:12Z</time></trkpt><trkpt lat="45.36393084098432" lon="10.643635524240587"><ele>108.0</ele><time>2026-03-28T09:14:13Z</time></trkpt><trkpt lat="45.36380168905061" lon="10.643676147240168"><ele>108.0</ele><time>2026-03-28T09:14:14Z</time></trkpt><trkpt lat="45.36366494289887" lon="10.643767350538749"><ele>109.66666666666666</ele><time>2026-03-28T09:14:15Z</time></trkpt><trkpt lat="45.363520838434965" lon="10.643871546423167"><ele>111.33333333333333</ele><time>2026-03-28T09:14:16Z</time></trkpt><trkpt lat="45.36336259456269" lon="10.643956719319235"><ele>113.0</ele><time>2026-03-28T09:14:17Z</time></trkpt><trkpt lat="45.36320142565825" lon="10.644063242354566"><ele>114.33333333333333</ele><time>2026-03-28T09:14:18Z</time></trkpt><trkpt lat="45.36302884307908" lon="10.644176082504432"><ele>115.66666666666666</ele><time>2026-03-28T09:14:19Z</time></trkpt><trkpt lat="45.362865490720985" lon="10.644308085719597"><ele>117.0</ele><time>2026-03-28T09:14:20Z</time></trkpt><trkpt lat="45.36269040727931" lon="10.644383053618446"><ele>117.0</ele><time>2026-03-28T09:14:21Z</time></trkpt><trkpt lat="45.36249505438575" lon="10.644417505322247"><ele>117.0</ele><time>2026-03-28T09:14:22Z</time></trkpt><trkpt lat="45.362291942217546" lon="10.644404098409815"><ele>117.0</ele><time>2026-03-28T09:14:23Z</time></trkpt><trkpt lat="45.36210396125012" lon="10.64439481102141"><ele>118.66666666666666</ele><time>2026-03-28T09:14:24Z</time></trkpt><trkpt lat="45.36194072007473" lon="10.644421411849862"><ele>120.33333333333333</ele><time>2026-03-28T09:14:25Z</time></trkpt><trkpt lat="45.361797652616026" lon="10.644495103041676"><ele>122.0</ele><time>2026-03-28T09:14:26Z</time></trkpt><trkpt lat="45.36167696021507" lon="10.644617179164571"><ele>124.0</ele><time>2026-03-28T09:14:27Z</time></trkpt><trkpt lat="45.36155138502603" lon="10.644773206100783"><ele>126.0</ele><time>2026-03-28T09:14:28Z</time></trkpt><trkpt lat="45.36141835850007" lon="10.644919882130857"><ele>128.0</ele><time>2026-03-28T09:14:29Z</time></trkpt><trkpt lat="45.3612884453039" lon="10.645008226425208"><ele>128.0</ele><time>2026-03-28T09:14:30Z</time></trkpt><trkpt lat="45.36115252749884" lon="10.645011124757884"><ele>128.0</ele><time>2026-03-28T09:14:31Z</time></trkpt><trkpt lat="45.361033434308005" lon="10.645012086710171"><ele>128.0</ele><time>2026-03-28T09:14:32Z</time></trkpt><trkpt lat="45.360914581013844" lon="10.644971113822029"><ele>128.0</ele><time>2026-03-28T09:14:33Z</time></trkpt><trkpt lat="45.360773293286776" lon="10.644903856850737"><ele>128.0</ele><time>2026-03-28T09:14:34Z</time></trkpt><trkpt lat="45.36060329824978" lon="10.64483934086225"><ele>128.0</ele><time>2026-03-28T09:14:35Z</time></trkpt><trkpt lat="45.360427940111144" lon="10.644750146003913"><ele>128.0</ele><time>2026-03-28T09:14:36Z</time></trkpt><trkpt lat="45.36023172965408" lon="10.6446728019418"><ele>127.0</ele><time>2026-03-28T09:14:37Z</time></trkpt><trkpt lat="45.360021044930136" lon="10.644618520482151"><ele>126.0</ele><time>2026-03-28T09:14:38Z</time></trkpt><trkpt lat="45.35980215558783" lon="10.644547222820401"><ele>125.0</ele><time>2026-03-28T09:14:39Z</time></trkpt><trkpt lat="45.359581881556835" lon="10.64448858014124"><ele>124.66666666666666</ele><time>2026-03-28T09:14:40Z</time></trkpt><trkpt lat="45.35937680111717" lon="10.644433683041138"><ele>124.33333333333334</ele><time>2026-03-28T09:14:41Z</time></trkpt><trkpt lat="45.35918618947818" lon="10.644382659022964"><ele>124.0</ele><time>2026-03-28T09:14:42Z</time></trkpt><trkpt lat="45.35901189486482" lon="10.644336002859294"><ele>123.66666666666667</ele><time>2026-03-28T09:14:43Z</time></trkpt><trkpt lat="45.35884022231954" lon="10.644290930520954"><ele>123.33333333333334</ele><time>2026-03-28T09:14:44Z</time></trkpt><trkpt lat="45.35868534873161" lon="10.644251782858435"><ele>123.0</ele><time>2026-03-28T09:14:45Z</time></trkpt><trkpt lat="45.35854307849917" lon="10.64422183575219"><ele>123.0</ele><time>2026-03-28T09:14:46Z</time></trkpt><trkpt lat="45.35841063887466" lon="10.64420354436924"><ele>123.0</ele><time>2026-03-28T09:14:47Z</time></trkpt><trkpt lat="45.35828828912594" lon="10.644186886615941"><ele>123.0</ele><time>2026-03-28T09:14:48Z</time></trkpt><trkpt lat="45.35817467567107" lon="10.644187227355365"><ele>123.0</ele><time>2026-03-28T09:14:49Z</time></trkpt><trkpt lat="45.35807559680579" lon="10.644155716646237"><ele>122.4</ele><time>2026-03-28T09:14:50Z</time></trkpt><trkpt lat="45.35800026810814" lon="10.644120216284907"><ele>121.80000000000001</ele><time>2026-03-28T09:14:51Z</time></trkpt><trkpt lat="45.35793626801285" lon="10.64408163038718"><ele>121.2</ele><time>2026-03-28T09:14:52Z</time></trkpt><trkpt lat="45.357857168290955" lon="10.644045912945385"><ele>120.6</ele><time>2026-03-28T09:14:54Z</time></trkpt><trkpt lat="45.35776597443547" lon="10.644070494086971"><ele>120.0</ele><time>2026-03-28T09:14:58Z</time></trkpt><trkpt lat="45.357612082229885" lon="10.644162436945665"><ele>120.0</ele><time>2026-03-28T09:15:00Z</time></trkpt><trkpt lat="45.35750842239271" lon="10.64420517630099"><ele>120.0</ele><time>2026-03-28T09:15:01Z</time></trkpt><trkpt lat="45.35739860489857" lon="10.644261705503897"><ele>120.0</ele><time>2026-03-28T09:15:02Z</time></trkpt><trkpt lat="45.357244735439146" lon="10.644164031094094"><ele>120.0</ele><time>2026-03-28T09:15:03Z</time></trkpt><trkpt lat="45.357095526950815" lon="10.644153283146332"><ele>119.66666666666666</ele><time>2026-03-28T09:15:04Z</time></trkpt><trkpt lat="45.35692954340192" lon="10.644145499628088"><ele>119.33333333333333</ele><time>2026-03-28T09:15:05Z</time></trkpt><trkpt lat="45.35676476351673" lon="10.644145688684088"><ele>119.0</ele><time>2026-03-28T09:15:06Z</time></trkpt><trkpt lat="45.356591004270804" lon="10.64413738408729"><ele>119.0</ele><time>2026-03-28T09:15:07Z</time></trkpt><trkpt lat="45.35641103674179" lon="10.64411826408778"><ele>119.0</ele><time>2026-03-28T09:15:08Z</time></trkpt><trkpt lat="45.35623510172906" lon="10.644068370679967"><ele>119.0</ele><time>2026-03-28T09:15:09Z</time></trkpt><trkpt lat="45.35605888178842" lon="10.643985349907252"><ele>119.33333333333333</ele><time>2026-03-28T09:15:10Z</time></trkpt><trkpt lat="45.355881115636805" lon="10.643890249891614"><ele>119.66666666666666</ele><time>2026-03-28T09:15:11Z</time></trkpt><trkpt lat="45.35571410688971" lon="10.643797009067837"><ele>120.0</ele><time>2026-03-28T09:15:12Z</time></trkpt><trkpt lat="45.35555764748439" lon="10.6437077881398"><ele>119.5</ele><time>2026-03-28T09:15:13Z</time></trkpt><trkpt lat="45.35541748734891" lon="10.643626246758437"><ele>119.0</ele><time>2026-03-28T09:15:14Z</time></trkpt><trkpt lat="45.35528282266526" lon="10.643546158583435"><ele>118.5</ele><time>2026-03-28T09:15:15Z</time></trkpt><trkpt lat="45.355162418626556" lon="10.643464246563823"><ele>118.0</ele><time>2026-03-28T09:15:16Z</time></trkpt><trkpt lat="45.35502876577451" lon="10.64342039458976"><ele>118.0</ele><time>2026-03-28T09:15:17Z</time></trkpt><trkpt lat="45.35488035944006" lon="10.643413290753168"><ele>118.0</ele><time>2026-03-28T09:15:18Z</time></trkpt><trkpt lat="45.354730083290896" lon="10.643497806429906"><ele>118.0</ele><time>2026-03-28T09:15:19Z</time></trkpt><trkpt lat="45.35457032429644" lon="10.643615564570966"><ele>115.66666666666667</ele><time>2026-03-28T09:15:20Z</time></trkpt><trkpt lat="45.35439278831868" lon="10.643727224852208"><ele>113.33333333333334</ele><time>2026-03-28T09:15:21Z</time></trkpt><trkpt lat="45.35421193945189" lon="10.643855002939866"><ele>111.0</ele><time>2026-03-28T09:15:22Z</time></trkpt><trkpt lat="45.35402705330571" lon="10.643982445826204"><ele>110.66666666666666</ele><time>2026-03-28T09:15:23Z</time></trkpt><trkpt lat="45.353836379675855" lon="10.644111994409304"><ele>110.33333333333333</ele><time>2026-03-28T09:15:24Z</time></trkpt><trkpt lat="45.3536390179882" lon="10.64425221926564"><ele>110.0</ele><time>2026-03-28T09:15:25Z</time></trkpt><trkpt lat="45.35344697296694" lon="10.64439902778345"><ele>110.0</ele><time>2026-03-28T09:15:26Z</time></trkpt><trkpt lat="45.35325786395787" lon="10.64455210410065"><ele>110.0</ele><time>2026-03-28T09:15:27Z</time></trkpt><trkpt lat="45.35309950912167" lon="10.644718131285996"><ele>110.0</ele><time>2026-03-28T09:15:28Z</time></trkpt><trkpt lat="45.35294628771917" lon="10.644825128844197"><ele>110.0</ele><time>2026-03-28T09:15:29Z</time></trkpt><trkpt lat="45.35281749594947" lon="10.644942882641361"><ele>110.0</ele><time>2026-03-28T09:15:30Z</time></trkpt><trkpt lat="45.35270122490104" lon="10.645049739610664"><ele>110.0</ele><time>2026-03-28T09:15:31Z</time></trkpt><trkpt lat="45.35259407430155" lon="10.645149604501029"><ele>110.0</ele><time>2026-03-28T09:15:32Z</time></trkpt><trkpt lat="45.35249372276757" lon="10.645243132632599"><ele>109.75</ele><time>2026-03-28T09:15:33Z</time></trkpt><trkpt lat="45.352398083161056" lon="10.645332269223372"><ele>109.5</ele><time>2026-03-28T09:15:34Z</time></trkpt><trkpt lat="45.352314388222645" lon="10.645430221195921"><ele>109.25</ele><time>2026-03-28T09:15:35Z</time></trkpt><trkpt lat="45.3522107313701" lon="10.645512815930001"><ele>109.0</ele><time>2026-03-28T09:15:36Z</time></trkpt><trkpt lat="45.35211529582096" lon="10.645596538268576"><ele>109.00000000000001</ele><time>2026-03-28T09:15:37Z</time></trkpt><trkpt lat="45.352029783210995" lon="10.64567518503248"><ele>109.0</ele><time>2026-03-28T09:15:38Z</time></trkpt><trkpt lat="45.351946971167955" lon="10.645740402396147"><ele>109.0</ele><time>2026-03-28T09:15:39Z</time></trkpt><trkpt lat="45.35185977813254" lon="10.645784468782068"><ele>109.0</ele><time>2026-03-28T09:15:40Z</time></trkpt><trkpt lat="45.35179402675025" lon="10.645856111814435"><ele>109.00000000000001</ele><time>2026-03-28T09:15:41Z</time></trkpt><trkpt lat="45.3517244771915" lon="10.645891900920157"><ele>109.0</ele><time>2026-03-28T09:15:42Z</time></trkpt><trkpt lat="45.35165859521243" lon="10.645882823906765"><ele>109.0</ele><time>2026-03-28T09:15:43Z</time></trkpt><trkpt lat="45.35161688499417" lon="10.645718326639736"><ele>109.0</ele><time>2026-03-28T09:15:45Z</time></trkpt><trkpt lat="45.35164022644759" lon="10.645608214240548"><ele>109.0</ele><time>2026-03-28T09:15:46Z</time></trkpt><trkpt lat="45.351664634312655" lon="10.645468068614782"><ele>109.0</ele><time>2026-03-28T09:15:47Z</time></trkpt><trkpt lat="45.351698415183854" lon="10.645304072975687"><ele>109.0</ele><time>2026-03-28T09:15:48Z</time></trkpt><trkpt lat="45.351770442764014" lon="10.645124695319007"><ele>109.2</ele><time>2026-03-28T09:15:49Z</time></trkpt><trkpt lat="45.35184670870906" lon="10.644975280288069"><ele>109.4</ele><time>2026-03-28T09:15:50Z</time></trkpt><trkpt lat="45.35191891082313" lon="10.644866164562941"><ele>109.6</ele><time>2026-03-28T09:15:51Z</time></trkpt><trkpt lat="45.35198360282172" lon="10.644770112155879"><ele>109.8</ele><time>2026-03-28T09:15:52Z</time></trkpt><trkpt lat="45.352029761997194" lon="10.644691456702567"><ele>110.0</ele><time>2026-03-28T09:15:53Z</time></trkpt><trkpt lat="45.3520762290434" lon="10.644628313253119"><ele>110.0</ele><time>2026-03-28T09:15:54Z</time></trkpt><trkpt lat="45.35213977398759" lon="10.644521395482515"><ele>110.0</ele><time>2026-03-28T09:15:56Z</time></trkpt><trkpt lat="45.35219280216801" lon="10.644435457816133"><ele>110.0</ele><time>2026-03-28T09:15:58Z</time></trkpt><trkpt lat="45.35223953289639" lon="10.644348774825032"><ele>110.0</ele><time>2026-03-28T09:16:01Z</time></trkpt><trkpt lat="45.352132549193676" lon="10.644215660746097"><ele>110.0</ele><time>2026-03-28T09:16:07Z</time></trkpt><trkpt lat="45.35205872770995" lon="10.644182345063076"><ele>110.2</ele><time>2026-03-28T09:16:08Z</time></trkpt><trkpt lat="45.35197014223147" lon="10.644139985486566"><ele>110.4</ele><time>2026-03-28T09:16:09Z</time></trkpt><trkpt lat="45.351889174024585" lon="10.644086987138119"><ele>110.6</ele><time>2026-03-28T09:16:10Z</time></trkpt><trkpt lat="45.35181348360239" lon="10.64403338924324"><ele>110.8</ele><time>2026-03-28T09:16:11Z</time></trkpt><trkpt lat="45.351732158099146" lon="10.643973411941186"><ele>111.0</ele><time>2026-03-28T09:16:12Z</time></trkpt><trkpt lat="45.35164044763429" lon="10.643892157817366"><ele>111.0</ele><time>2026-03-28T09:16:13Z</time></trkpt><trkpt lat="45.351541405300836" lon="10.64380661408627"><ele>111.0</ele><time>2026-03-28T09:16:14Z</time></trkpt><trkpt lat="45.35144286223094" lon="10.643707954836897"><ele>111.0</ele><time>2026-03-28T09:16:15Z</time></trkpt><trkpt lat="45.351342584389336" lon="10.64363313168002"><ele>111.0</ele><time>2026-03-28T09:16:16Z</time></trkpt><trkpt lat="45.351239220381004" lon="10.643569983943044"><ele>110.25</ele><time>2026-03-28T09:16:17Z</time></trkpt><trkpt lat="45.351122489469624" lon="10.643509740162774"><ele>109.5</ele><time>2026-03-28T09:16:18Z</time></trkpt><trkpt lat="45.35100529353978" lon="10.643447091808412"><ele>108.75</ele><time>2026-03-28T09:16:19Z</time></trkpt><trkpt lat="45.350872578762115" lon="10.643382359755087"><ele>108.0</ele><time>2026-03-28T09:16:20Z</time></trkpt><trkpt lat="45.35079091617317" lon="10.643317143798075"><ele>108.0</ele><time>2026-03-28T09:16:21Z</time></trkpt><trkpt lat="45.350694123735074" lon="10.6432567389608"><ele>108.00000000000001</ele><time>2026-03-28T09:16:22Z</time></trkpt><trkpt lat="45.350603575668515" lon="10.643204731837216"><ele>108.00000000000001</ele><time>2026-03-28T09:16:23Z</time></trkpt><trkpt lat="45.35050098544603" lon="10.643151223628557"><ele>108.0</ele><time>2026-03-28T09:16:24Z</time></trkpt><trkpt lat="45.350398773682" lon="10.643106047151852"><ele>108.0</ele><time>2026-03-28T09:16:25Z</time></trkpt><trkpt lat="45.35031220178262" lon="10.643067270913965"><ele>107.80000000000001</ele><time>2026-03-28T09:16:26Z</time></trkpt><trkpt lat="45.35023004749428" lon="10.643031491533396"><ele>107.60000000000001</ele><time>2026-03-28T09:16:27Z</time></trkpt><trkpt lat="45.35014789025624" lon="10.642990536547394"><ele>107.39999999999999</ele><time>2026-03-28T09:16:28Z</time></trkpt><trkpt lat="45.35004366107844" lon="10.642941251376033"><ele>107.19999999999999</ele><time>2026-03-28T09:16:29Z</time></trkpt><trkpt lat="45.34995328873134" lon="10.642896701905787"><ele>107.0</ele><time>2026-03-28T09:16:30Z</time></trkpt><trkpt lat="45.3498847908049" lon="10.642863269546874"><ele>106.99999999999999</ele><time>2026-03-28T09:16:31Z</time></trkpt><trkpt lat="45.34981559487529" lon="10.64283445010477"><ele>107.0</ele><time>2026-03-28T09:16:32Z</time></trkpt><trkpt lat="45.34974647655411" lon="10.642799943572173"><ele>107.0</ele><time>2026-03-28T09:16:33Z</time></trkpt><trkpt lat="45.34966831618278" lon="10.642770412184518"><ele>107.0</ele><time>2026-03-28T09:16:34Z</time></trkpt><trkpt lat="45.34958965605189" lon="10.64275109279973"><ele>106.99999999999999</ele><time>2026-03-28T09:16:35Z</time></trkpt><trkpt lat="45.34950339129259" lon="10.642728484694175"><ele>107.0</ele><time>2026-03-28T09:16:36Z</time></trkpt><trkpt lat="45.34940423482113" lon="10.642693086825062"><ele>106.66666666666666</ele><time>2026-03-28T09:16:37Z</time></trkpt><trkpt lat="45.34932681321371" lon="10.642673128623805"><ele>106.33333333333333</ele><time>2026-03-28T09:16:38Z</time></trkpt><trkpt lat="45.349244515861194" lon="10.642650385253319"><ele>106.0</ele><time>2026-03-28T09:16:39Z</time></trkpt><trkpt lat="45.34916184173304" lon="10.64262815646311"><ele>105.66666666666666</ele><time>2026-03-28T09:16:40Z</time></trkpt><trkpt lat="45.349079521473335" lon="10.64260629080128"><ele>105.33333333333333</ele><time>2026-03-28T09:16:41Z</time></trkpt><trkpt lat="45.34898336906631" lon="10.64257728769933"><ele>105.0</ele><time>2026-03-28T09:16:42Z</time></trkpt><trkpt lat="45.34890643951249" lon="10.642553945094223"><ele>105.8</ele><time>2026-03-28T09:16:43Z</time></trkpt><trkpt lat="45.3488394094228" lon="10.642532918740596"><ele>106.6</ele><time>2026-03-28T09:16:44Z</time></trkpt><trkpt lat="45.34873018108476" lon="10.642481704994191"><ele>107.4</ele><time>2026-03-28T09:16:46Z</time></trkpt><trkpt lat="45.34867772036166" lon="10.642336936131677"><ele>108.2</ele><time>2026-03-28T09:16:48Z</time></trkpt><trkpt lat="45.348686218461424" lon="10.642226357591712"><ele>109.0</ele><time>2026-03-28T09:16:49Z</time></trkpt><trkpt lat="45.348701580898094" lon="10.642110488235401"><ele>109.0</ele><time>2026-03-28T09:16:50Z</time></trkpt><trkpt lat="45.34871746990707" lon="10.64199854243275"><ele>109.0</ele><time>2026-03-28T09:16:51Z</time></trkpt><trkpt lat="45.34871511297399" lon="10.641841924917635"><ele>109.0</ele><time>2026-03-28T09:16:53Z</time></trkpt><trkpt lat="45.3486628796532" lon="10.641731064541535"><ele>109.0</ele><time>2026-03-28T09:16:55Z</time></trkpt><trkpt lat="45.3485362162588" lon="10.641746985938186"><ele>109.0</ele><time>2026-03-28T09:16:57Z</time></trkpt><trkpt lat="45.34844759080224" lon="10.64177639624338"><ele>109.00000000000001</ele><time>2026-03-28T09:16:58Z</time></trkpt><trkpt lat="45.34834916020923" lon="10.641804923967031"><ele>109.0</ele><time>2026-03-28T09:16:59Z</time></trkpt><trkpt lat="45.34825477393228" lon="10.641826131883183"><ele>109.0</ele><time>2026-03-28T09:17:00Z</time></trkpt><trkpt lat="45.348171884756646" lon="10.641841097154703"><ele>109.0</ele><time>2026-03-28T09:17:01Z</time></trkpt><trkpt lat="45.34809841784179" lon="10.641851077686477"><ele>109.00000000000001</ele><time>2026-03-28T09:17:02Z</time></trkpt><trkpt lat="45.34802490782916" lon="10.64186954689854"><ele>109.0</ele><time>2026-03-28T09:17:03Z</time></trkpt><trkpt lat="45.34792541764827" lon="10.64189095411641"><ele>109.0</ele><time>2026-03-28T09:17:04Z</time></trkpt><trkpt lat="45.34781660927471" lon="10.641912625300272"><ele>109.0</ele><time>2026-03-28T09:17:05Z</time></trkpt><trkpt lat="45.34770638995534" lon="10.641933122812985"><ele>109.0</ele><time>2026-03-28T09:17:06Z</time></trkpt><trkpt lat="45.34761943554973" lon="10.641956835718407"><ele>109.0</ele><time>2026-03-28T09:17:07Z</time></trkpt><trkpt lat="45.3475406041168" lon="10.641974933220489"><ele>109.0</ele><time>2026-03-28T09:17:08Z</time></trkpt><trkpt lat="45.347454311462826" lon="10.641986287892788"><ele>108.66666666666667</ele><time>2026-03-28T09:17:09Z</time></trkpt><trkpt lat="45.34739016744531" lon="10.641992105182373"><ele>108.33333333333334</ele><time>2026-03-28T09:17:10Z</time></trkpt><trkpt lat="45.34731658164987" lon="10.642007987435447"><ele>108.0</ele><time>2026-03-28T09:17:11Z</time></trkpt><trkpt lat="45.34724126771675" lon="10.642025341904791"><ele>107.66666666666666</ele><time>2026-03-28T09:17:12Z</time></trkpt><trkpt lat="45.34717250126014" lon="10.642042004427966"><ele>107.33333333333333</ele><time>2026-03-28T09:17:13Z</time></trkpt><trkpt lat="45.34706007221749" lon="10.642066122323625"><ele>107.0</ele><time>2026-03-28T09:17:15Z</time></trkpt><trkpt lat="45.346968406707504" lon="10.642085043543648"><ele>106.39999999999999</ele><time>2026-03-28T09:17:17Z</time></trkpt><trkpt lat="45.34685707163849" lon="10.642108897603508"><ele>105.79999999999998</ele><time>2026-03-28T09:17:19Z</time></trkpt><trkpt lat="45.34674491571608" lon="10.642135089855245"><ele>105.2</ele><time>2026-03-28T09:17:21Z</time></trkpt><trkpt lat="45.346658910486845" lon="10.6421141634252"><ele>104.6</ele><time>2026-03-28T09:17:23Z</time></trkpt><trkpt lat="45.34662572941129" lon="10.642021180545347"><ele>104.0</ele><time>2026-03-28T09:17:25Z</time></trkpt><trkpt lat="45.34659510406099" lon="10.641889867444077"><ele>105.2</ele><time>2026-03-28T09:17:27Z</time></trkpt><trkpt lat="45.346564520765924" lon="10.64179910550982"><ele>106.4</ele><time>2026-03-28T09:17:28Z</time></trkpt><trkpt lat="45.3465052920548" lon="10.641615250971212"><ele>107.6</ele><time>2026-03-28T09:17:30Z</time></trkpt><trkpt lat="45.346464851322345" lon="10.641493282645184"><ele>108.8</ele><time>2026-03-28T09:17:31Z</time></trkpt><trkpt lat="45.34642992019704" lon="10.641389974527959"><ele>110.0</ele><time>2026-03-28T09:17:32Z</time></trkpt><trkpt lat="45.346393437692115" lon="10.641285150230228"><ele>110.16666666666666</ele><time>2026-03-28T09:17:33Z</time></trkpt><trkpt lat="45.34636445628994" lon="10.641202602056474"><ele>110.33333333333333</ele><time>2026-03-28T09:17:34Z</time></trkpt><trkpt lat="45.34633510614954" lon="10.641115304134207"><ele>110.5</ele><time>2026-03-28T09:17:35Z</time></trkpt><trkpt lat="45.34631798999212" lon="10.640945589336978"><ele>110.66666666666666</ele><time>2026-03-28T09:17:37Z</time></trkpt><trkpt lat="45.34634365349071" lon="10.640828829783795"><ele>110.83333333333333</ele><time>2026-03-28T09:17:38Z</time></trkpt><trkpt lat="45.34637207331369" lon="10.640702514642609"><ele>111.0</ele><time>2026-03-28T09:17:39Z</time></trkpt><trkpt lat="45.346398601325724" lon="10.640555230863514"><ele>111.0</ele><time>2026-03-28T09:17:40Z</time></trkpt><trkpt lat="45.34641565317727" lon="10.64040416671974"><ele>111.0</ele><time>2026-03-28T09:17:41Z</time></trkpt><trkpt lat="45.346423984328844" lon="10.640276276101595"><ele>111.0</ele><time>2026-03-28T09:17:42Z</time></trkpt><trkpt lat="45.346392403126984" lon="10.640077805938011"><ele>111.0</ele><time>2026-03-28T09:17:44Z</time></trkpt><trkpt lat="45.34636540695239" lon="10.639953128046592"><ele>111.0</ele><time>2026-03-28T09:17:45Z</time></trkpt><trkpt lat="45.34633295558588" lon="10.639842375172623"><ele>113.19999999999999</ele><time>2026-03-28T09:17:46Z</time></trkpt><trkpt lat="45.34629597160116" lon="10.639696236944898"><ele>115.39999999999999</ele><time>2026-03-28T09:17:47Z</time></trkpt><trkpt lat="45.346277477849824" lon="10.639555948771566"><ele>117.6</ele><time>2026-03-28T09:17:48Z</time></trkpt><trkpt lat="45.34626322845409" lon="10.639417746134681"><ele>119.8</ele><time>2026-03-28T09:17:49Z</time></trkpt><trkpt lat="45.34624836602797" lon="10.639288658127994"><ele>122.0</ele><time>2026-03-28T09:17:50Z</time></trkpt><trkpt lat="45.34622967457194" lon="10.639164955223828"><ele>121.99999999999999</ele><time>2026-03-28T09:17:51Z</time></trkpt><trkpt lat="45.346215239398326" lon="10.639033414430596"><ele>122.0</ele><time>2026-03-28T09:17:52Z</time></trkpt><trkpt lat="45.346209393959384" lon="10.638928378428163"><ele>122.0</ele><time>2026-03-28T09:17:53Z</time></trkpt><trkpt lat="45.346201584411986" lon="10.638809599014454"><ele>122.0</ele><time>2026-03-28T09:17:54Z</time></trkpt><trkpt lat="45.34618197509197" lon="10.638700236277748"><ele>121.99999999999999</ele><time>2026-03-28T09:17:55Z</time></trkpt><trkpt lat="45.3461499359344" lon="10.638615382662127"><ele>122.0</ele><time>2026-03-28T09:17:56Z</time></trkpt><trkpt lat="45.34609695396281" lon="10.63850988384435"><ele>121.99999999999999</ele><time>2026-03-28T09:17:57Z</time></trkpt><trkpt lat="45.34603531915255" lon="10.6383851939786"><ele>122.0</ele><time>2026-03-28T09:17:58Z</time></trkpt><trkpt lat="45.345987642140756" lon="10.638267854269898"><ele>122.0</ele><time>2026-03-28T09:17:59Z</time></trkpt><trkpt lat="45.34594540189864" lon="10.638156396521042"><ele>122.0</ele><time>2026-03-28T09:18:00Z</time></trkpt><trkpt lat="45.34591001644253" lon="10.638062030803912"><ele>121.99999999999999</ele><time>2026-03-28T09:18:01Z</time></trkpt><trkpt lat="45.34588077922745" lon="10.637970542513077"><ele>122.0</ele><time>2026-03-28T09:18:02Z</time></trkpt><trkpt lat="45.34585037800142" lon="10.637853085693704"><ele>122.0</ele><time>2026-03-28T09:18:03Z</time></trkpt><trkpt lat="45.34582323409752" lon="10.637768878675894"><ele>121.99999999999999</ele><time>2026-03-28T09:18:04Z</time></trkpt><trkpt lat="45.34574230263178" lon="10.637643168987662"><ele>121.99999999999999</ele><time>2026-03-28T09:18:06Z</time></trkpt><trkpt lat="45.345677024290914" lon="10.637581855277416"><ele>122.0</ele><time>2026-03-28T09:18:07Z</time></trkpt><trkpt lat="45.345600191301834" lon="10.637477479904813"><ele>122.0</ele><time>2026-03-28T09:18:08Z</time></trkpt><trkpt lat="45.345489497585476" lon="10.637381603549526"><ele>122.0</ele><time>2026-03-28T09:18:09Z</time></trkpt><trkpt lat="45.34536880509415" lon="10.637304153868575"><ele>122.0</ele><time>2026-03-28T09:18:10Z</time></trkpt><trkpt lat="45.34524261196519" lon="10.63723083973438"><ele>122.0</ele><time>2026-03-28T09:18:11Z</time></trkpt><trkpt lat="45.34512571132658" lon="10.637142183949532"><ele>122.0</ele><time>2026-03-28T09:18:12Z</time></trkpt><trkpt lat="45.34503062827286" lon="10.63704705652835"><ele>122.25</ele><time>2026-03-28T09:18:13Z</time></trkpt><trkpt lat="45.344939227002435" lon="10.636929135853105"><ele>122.5</ele><time>2026-03-28T09:18:14Z</time></trkpt><trkpt lat="45.344844824011695" lon="10.636798716776248"><ele>122.75</ele><time>2026-03-28T09:18:15Z</time></trkpt><trkpt lat="45.344766418766994" lon="10.636664616483365"><ele>123.0</ele><time>2026-03-28T09:18:16Z</time></trkpt><trkpt lat="45.34470763517995" lon="10.636526142120944"><ele>124.0</ele><time>2026-03-28T09:18:17Z</time></trkpt><trkpt lat="45.34466317745199" lon="10.636366427796789"><ele>125.0</ele><time>2026-03-28T09:18:18Z</time></trkpt><trkpt lat="45.34461507265951" lon="10.636190856077683"><ele>126.0</ele><time>2026-03-28T09:18:19Z</time></trkpt><trkpt lat="45.34455808295983" lon="10.636049136997734"><ele>127.0</ele><time>2026-03-28T09:18:20Z</time></trkpt><trkpt lat="45.344501382756526" lon="10.635912615114702"><ele>127.0</ele><time>2026-03-28T09:18:21Z</time></trkpt><trkpt lat="45.34442920388999" lon="10.635790262303873"><ele>127.0</ele><time>2026-03-28T09:18:22Z</time></trkpt><trkpt lat="45.34434441966211" lon="10.635673704956494"><ele>127.0</ele><time>2026-03-28T09:18:23Z</time></trkpt><trkpt lat="45.344241604227314" lon="10.635550832488136"><ele>127.0</ele><time>2026-03-28T09:18:24Z</time></trkpt><trkpt lat="45.34413576534911" lon="10.635420276922746"><ele>127.0</ele><time>2026-03-28T09:18:25Z</time></trkpt><trkpt lat="45.34402502065238" lon="10.635287959436841"><ele>127.0</ele><time>2026-03-28T09:18:26Z</time></trkpt><trkpt lat="45.3439209667729" lon="10.635156490745286"><ele>127.0</ele><time>2026-03-28T09:18:27Z</time></trkpt><trkpt lat="45.34383699412432" lon="10.635029352488376"><ele>127.0</ele><time>2026-03-28T09:18:28Z</time></trkpt><trkpt lat="45.34376462782854" lon="10.634899804132157"><ele>125.0</ele><time>2026-03-28T09:18:29Z</time></trkpt><trkpt lat="45.34373820065805" lon="10.634746111741187"><ele>123.0</ele><time>2026-03-28T09:18:30Z</time></trkpt><trkpt lat="45.34370638887842" lon="10.634594389136508"><ele>121.0</ele><time>2026-03-28T09:18:31Z</time></trkpt><trkpt lat="45.343684890935585" lon="10.634415446405365"><ele>119.0</ele><time>2026-03-28T09:18:32Z</time></trkpt><trkpt lat="45.34365124865067" lon="10.634223000528516"><ele>119.0</ele><time>2026-03-28T09:18:33Z</time></trkpt><trkpt lat="45.34363995393895" lon="10.634047905016804"><ele>119.0</ele><time>2026-03-28T09:18:34Z</time></trkpt><trkpt lat="45.34362907905327" lon="10.633887336090297"><ele>119.0</ele><time>2026-03-28T09:18:35Z</time></trkpt><trkpt lat="45.34363483634804" lon="10.633744570379298"><ele>119.0</ele><time>2026-03-28T09:18:36Z</time></trkpt><trkpt lat="45.343669637116385" lon="10.63359930943825"><ele>119.0</ele><time>2026-03-28T09:18:37Z</time></trkpt><trkpt lat="45.3437307538623" lon="10.633454094059877"><ele>122.0</ele><time>2026-03-28T09:18:38Z</time></trkpt><trkpt lat="45.34381781263602" lon="10.633321222863596"><ele>125.0</ele><time>2026-03-28T09:18:39Z</time></trkpt><trkpt lat="45.34388641701931" lon="10.633194596474867"><ele>128.0</ele><time>2026-03-28T09:18:40Z</time></trkpt><trkpt lat="45.34393886984322" lon="10.63287843416022"><ele>128.25</ele><time>2026-03-28T09:18:42Z</time></trkpt><trkpt lat="45.34393330914311" lon="10.63267179051351"><ele>128.5</ele><time>2026-03-28T09:18:43Z</time></trkpt><trkpt lat="45.343927485228555" lon="10.632456210539475"><ele>128.75</ele><time>2026-03-28T09:18:44Z</time></trkpt><trkpt lat="45.343942270790244" lon="10.632249657199676"><ele>129.0</ele><time>2026-03-28T09:18:45Z</time></trkpt><trkpt lat="45.343971681596436" lon="10.632048471222454"><ele>129.8</ele><time>2026-03-28T09:18:46Z</time></trkpt><trkpt lat="45.343990211101186" lon="10.631871985912628"><ele>130.60000000000002</ele><time>2026-03-28T09:18:47Z</time></trkpt><trkpt lat="45.34400981377281" lon="10.631714799795638"><ele>131.4</ele><time>2026-03-28T09:18:48Z</time></trkpt><trkpt lat="45.34402476624664" lon="10.631574517555816"><ele>132.20000000000002</ele><time>2026-03-28T09:18:49Z</time></trkpt><trkpt lat="45.344042744168746" lon="10.631437937282062"><ele>133.0</ele><time>2026-03-28T09:18:50Z</time></trkpt><trkpt lat="45.34404495931562" lon="10.631324127003394"><ele>133.0</ele><time>2026-03-28T09:18:51Z</time></trkpt><trkpt lat="45.34404741528955" lon="10.63121362678045"><ele>133.0</ele><time>2026-03-28T09:18:52Z</time></trkpt><trkpt lat="45.344064916491796" lon="10.631089588401863"><ele>133.0</ele><time>2026-03-28T09:18:53Z</time></trkpt><trkpt lat="45.344094454766896" lon="10.630962024639135"><ele>133.0</ele><time>2026-03-28T09:18:54Z</time></trkpt><trkpt lat="45.34413433391223" lon="10.630819697670795"><ele>133.0</ele><time>2026-03-28T09:18:55Z</time></trkpt><trkpt lat="45.34418009133881" lon="10.630674572201391"><ele>133.16666666666669</ele><time>2026-03-28T09:18:56Z</time></trkpt><trkpt lat="45.34423324939179" lon="10.6305477393399"><ele>133.33333333333334</ele><time>2026-03-28T09:18:57Z</time></trkpt><trkpt lat="45.34428752250504" lon="10.630441046879824"><ele>133.5</ele><time>2026-03-28T09:18:58Z</time></trkpt><trkpt lat="45.344340494727895" lon="10.630345302615078"><ele>133.66666666666666</ele><time>2026-03-28T09:18:59Z</time></trkpt><trkpt lat="45.34438048062648" lon="10.630259007306424"><ele>133.83333333333331</ele><time>2026-03-28T09:19:00Z</time></trkpt><trkpt lat="45.34441706711408" lon="10.630183641889397"><ele>134.0</ele><time>2026-03-28T09:19:01Z</time></trkpt><trkpt lat="45.34445741398891" lon="10.63005449994805"><ele>134.0</ele><time>2026-03-28T09:19:03Z</time></trkpt><trkpt lat="45.344504557452886" lon="10.629972024151632"><ele>134.0</ele><time>2026-03-28T09:19:06Z</time></trkpt><trkpt lat="45.344368341182154" lon="10.629802105876356"><ele>134.0</ele><time>2026-03-28T09:19:08Z</time></trkpt><trkpt lat="45.344248226295086" lon="10.62976043632514"><ele>134.0</ele><time>2026-03-28T09:19:10Z</time></trkpt><trkpt lat="45.34417854652303" lon="10.629756185307334"><ele>134.0</ele><time>2026-03-28T09:19:11Z</time></trkpt><trkpt lat="45.34405627109842" lon="10.629765285707347"><ele>134.0</ele><time>2026-03-28T09:19:13Z</time></trkpt><trkpt lat="45.34394140149466" lon="10.629918057208076"><ele>134.0</ele><time>2026-03-28T09:19:15Z</time></trkpt><trkpt lat="45.343867229330826" lon="10.630020844110968"><ele>134.0</ele><time>2026-03-28T09:19:16Z</time></trkpt><trkpt lat="45.343760577530546" lon="10.630110651405525"><ele>134.0</ele><time>2026-03-28T09:19:17Z</time></trkpt><trkpt lat="45.343652057370996" lon="10.630213843106004"><ele>133.75</ele><time>2026-03-28T09:19:18Z</time></trkpt><trkpt lat="45.34353914438193" lon="10.63033514816538"><ele>133.5</ele><time>2026-03-28T09:19:19Z</time></trkpt><trkpt lat="45.34342229242693" lon="10.630439504476652"><ele>133.25</ele><time>2026-03-28T09:19:20Z</time></trkpt><trkpt lat="45.34331096075765" lon="10.63052900869416"><ele>133.0</ele><time>2026-03-28T09:19:21Z</time></trkpt><trkpt lat="45.34320238842722" lon="10.630628003838208"><ele>133.0</ele><time>2026-03-28T09:19:22Z</time></trkpt><trkpt lat="45.34309568138613" lon="10.63072727709926"><ele>133.0</ele><time>2026-03-28T09:19:23Z</time></trkpt><trkpt lat="45.34298857050445" lon="10.630822733616245"><ele>133.0</ele><time>2026-03-28T09:19:24Z</time></trkpt><trkpt lat="45.34287828162939" lon="10.630923556748986"><ele>133.0</ele><time>2026-03-28T09:19:25Z</time></trkpt><trkpt lat="45.34276188621372" lon="10.631023984434249"><ele>132.75</ele><time>2026-03-28T09:19:26Z</time></trkpt><trkpt lat="45.34264013905853" lon="10.631128214734384"><ele>132.5</ele><time>2026-03-28T09:19:27Z</time></trkpt><trkpt lat="45.342533813719214" lon="10.631218396378063"><ele>132.25</ele><time>2026-03-28T09:19:28Z</time></trkpt><trkpt lat="45.342433452257296" lon="10.631301791401464"><ele>132.0</ele><time>2026-03-28T09:19:29Z</time></trkpt><trkpt lat="45.34233890648485" lon="10.631379558632071"><ele>132.0</ele><time>2026-03-28T09:19:30Z</time></trkpt><trkpt lat="45.342248565636815" lon="10.631465207880046"><ele>132.0</ele><time>2026-03-28T09:19:31Z</time></trkpt><trkpt lat="45.3421618458272" lon="10.631570515051363"><ele>132.0</ele><time>2026-03-28T09:19:32Z</time></trkpt><trkpt lat="45.34208567020829" lon="10.631711344814798"><ele>132.0</ele><time>2026-03-28T09:19:33Z</time></trkpt><trkpt lat="45.34202658330574" lon="10.63188078129763"><ele>130.5</ele><time>2026-03-28T09:19:34Z</time></trkpt><trkpt lat="45.341962112329384" lon="10.632061862019626"><ele>129.0</ele><time>2026-03-28T09:19:35Z</time></trkpt><trkpt lat="45.34189759553616" lon="10.632223875983863"><ele>127.5</ele><time>2026-03-28T09:19:36Z</time></trkpt><trkpt lat="45.34182988819908" lon="10.632386165720954"><ele>126.0</ele><time>2026-03-28T09:19:37Z</time></trkpt><trkpt lat="45.341760905197155" lon="10.632535892869903"><ele>126.0</ele><time>2026-03-28T09:19:38Z</time></trkpt><trkpt lat="45.341668911955765" lon="10.632657155970163"><ele>126.0</ele><time>2026-03-28T09:19:39Z</time></trkpt><trkpt lat="45.34157952763028" lon="10.632790505662385"><ele>126.0</ele><time>2026-03-28T09:19:40Z</time></trkpt><trkpt lat="45.34149741280794" lon="10.632939493085205"><ele>126.0</ele><time>2026-03-28T09:19:41Z</time></trkpt><trkpt lat="45.341403509103806" lon="10.633067170660901"><ele>125.6</ele><time>2026-03-28T09:19:42Z</time></trkpt><trkpt lat="45.34130461528349" lon="10.633157169972852"><ele>125.19999999999999</ele><time>2026-03-28T09:19:43Z</time></trkpt><trkpt lat="45.341214417159954" lon="10.633224080654958"><ele>124.80000000000001</ele><time>2026-03-28T09:19:44Z</time></trkpt><trkpt lat="45.34113631268126" lon="10.633266948563184"><ele>124.4</ele><time>2026-03-28T09:19:45Z</time></trkpt><trkpt lat="45.341069124432245" lon="10.633309263655107"><ele>124.0</ele><time>2026-03-28T09:19:46Z</time></trkpt><trkpt lat="45.34097841663643" lon="10.633400465710327"><ele>124.00000000000001</ele><time>2026-03-28T09:19:48Z</time></trkpt><trkpt lat="45.340867087458754" lon="10.633467716132678"><ele>124.0</ele><time>2026-03-28T09:19:50Z</time></trkpt><trkpt lat="45.340805630502125" lon="10.633495597326084"><ele>124.0</ele><time>2026-03-28T09:19:51Z</time></trkpt><trkpt lat="45.34074305010996" lon="10.633523122801988"><ele>124.0</ele><time>2026-03-28T09:19:52Z</time></trkpt><trkpt lat="45.34065490898579" lon="10.633524278936749"><ele>124.00000000000001</ele><time>2026-03-28T09:19:53Z</time></trkpt><trkpt lat="45.340588384911314" lon="10.63356607822084"><ele>124.0</ele><time>2026-03-28T09:19:54Z</time></trkpt><trkpt lat="45.340518340843666" lon="10.633605673637643"><ele>123.83333333333334</ele><time>2026-03-28T09:19:55Z</time></trkpt><trkpt lat="45.34044536044286" lon="10.633693810526687"><ele>123.66666666666667</ele><time>2026-03-28T09:19:56Z</time></trkpt><trkpt lat="45.34037824479804" lon="10.633722378752585"><ele>123.5</ele><time>2026-03-28T09:19:57Z</time></trkpt><trkpt lat="45.340306060292775" lon="10.633755097529324"><ele>123.33333333333334</ele><time>2026-03-28T09:19:58Z</time></trkpt><trkpt lat="45.340225724693866" lon="10.633782557723055"><ele>123.16666666666667</ele><time>2026-03-28T09:19:59Z</time></trkpt><trkpt lat="45.340136751483165" lon="10.633764014130664"><ele>123.0</ele><time>2026-03-28T09:20:00Z</time></trkpt><trkpt lat="45.34004912274916" lon="10.633794525941816"><ele>123.0</ele><time>2026-03-28T09:20:01Z</time></trkpt><trkpt lat="45.3399636133853" lon="10.633832146903396"><ele>123.0</ele><time>2026-03-28T09:20:02Z</time></trkpt><trkpt lat="45.33988277769891" lon="10.633872005951053"><ele>123.0</ele><time>2026-03-28T09:20:03Z</time></trkpt><trkpt lat="45.339815269107" lon="10.633940209536117"><ele>123.0</ele><time>2026-03-28T09:20:04Z</time></trkpt><trkpt lat="45.33974817048564" lon="10.634012763233851"><ele>123.0</ele><time>2026-03-28T09:20:05Z</time></trkpt><trkpt lat="45.33967072218557" lon="10.63407875786324"><ele>123.0</ele><time>2026-03-28T09:20:06Z</time></trkpt><trkpt lat="45.339563490759026" lon="10.63404257069902"><ele>122.33333333333333</ele><time>2026-03-28T09:20:07Z</time></trkpt><trkpt lat="45.339493599780994" lon="10.634070672648512"><ele>121.66666666666666</ele><time>2026-03-28T09:20:08Z</time></trkpt><trkpt lat="45.33941625391346" lon="10.634101292525086"><ele>121.0</ele><time>2026-03-28T09:20:09Z</time></trkpt><trkpt lat="45.339347158739436" lon="10.634135005372167"><ele>120.33333333333333</ele><time>2026-03-28T09:20:10Z</time></trkpt><trkpt lat="45.33923530467518" lon="10.634194647435068"><ele>119.66666666666666</ele><time>2026-03-28T09:20:12Z</time></trkpt><trkpt lat="45.3391377145483" lon="10.634213931348386"><ele>119.0</ele><time>2026-03-28T09:20:14Z</time></trkpt><trkpt lat="45.33906597954605" lon="10.634147898467603"><ele>119.0</ele><time>2026-03-28T09:20:16Z</time></trkpt><trkpt lat="45.33901897132129" lon="10.634028699422814"><ele>119.0</ele><time>2026-03-28T09:20:18Z</time></trkpt><trkpt lat="45.33894943449324" lon="10.633960388291763"><ele>119.0</ele><time>2026-03-28T09:20:20Z</time></trkpt><trkpt lat="45.33883536453097" lon="10.63400745035204"><ele>119.0</ele><time>2026-03-28T09:20:22Z</time></trkpt><trkpt lat="45.33877254572481" lon="10.634088021245235"><ele>119.0</ele><time>2026-03-28T09:20:23Z</time></trkpt><trkpt lat="45.338695102937656" lon="10.634155551730304"><ele>119.2</ele><time>2026-03-28T09:20:24Z</time></trkpt><trkpt lat="45.33861190735843" lon="10.634219170036598"><ele>119.4</ele><time>2026-03-28T09:20:25Z</time></trkpt><trkpt lat="45.3385322221214" lon="10.634288357311288"><ele>119.6</ele><time>2026-03-28T09:20:26Z</time></trkpt><trkpt lat="45.33843512626527" lon="10.634366483915514"><ele>119.8</ele><time>2026-03-28T09:20:27Z</time></trkpt><trkpt lat="45.33835273991369" lon="10.634429797449549"><ele>120.0</ele><time>2026-03-28T09:20:28Z</time></trkpt><trkpt lat="45.338279027870065" lon="10.634495820655072"><ele>120.0</ele><time>2026-03-28T09:20:29Z</time></trkpt><trkpt lat="45.33820243256927" lon="10.634570199869662"><ele>120.0</ele><time>2026-03-28T09:20:30Z</time></trkpt><trkpt lat="45.33812844168763" lon="10.634642899287826"><ele>120.0</ele><time>2026-03-28T09:20:31Z</time></trkpt><trkpt lat="45.33806165386171" lon="10.634701665413395"><ele>120.0</ele><time>2026-03-28T09:20:32Z</time></trkpt><trkpt lat="45.337986464943725" lon="10.634774428645139"><ele>120.0</ele><time>2026-03-28T09:20:33Z</time></trkpt><trkpt lat="45.33790557722251" lon="10.634863975439274"><ele>118.66666666666667</ele><time>2026-03-28T09:20:34Z</time></trkpt><trkpt lat="45.33781070753274" lon="10.634947826660543"><ele>117.33333333333334</ele><time>2026-03-28T09:20:35Z</time></trkpt><trkpt lat="45.337732647995864" lon="10.635020818411627"><ele>116.0</ele><time>2026-03-28T09:20:36Z</time></trkpt><trkpt lat="45.33766774530801" lon="10.635094810828484"><ele>114.66666666666667</ele><time>2026-03-28T09:20:37Z</time></trkpt><trkpt lat="45.33761230814396" lon="10.635148246545787"><ele>113.33333333333334</ele><time>2026-03-28T09:20:38Z</time></trkpt><trkpt lat="45.33755849865145" lon="10.635204503694466"><ele>112.0</ele><time>2026-03-28T09:20:39Z</time></trkpt><trkpt lat="45.337501450289594" lon="10.635285613783434"><ele>112.0</ele><time>2026-03-28T09:20:41Z</time></trkpt><trkpt lat="45.33742179607955" lon="10.635339568112352"><ele>111.99999999999999</ele><time>2026-03-28T09:20:43Z</time></trkpt><trkpt lat="45.33732263276312" lon="10.63525242319543"><ele>111.99999999999999</ele><time>2026-03-28T09:20:45Z</time></trkpt><trkpt lat="45.33725347146399" lon="10.635145769076223"><ele>112.0</ele><time>2026-03-28T09:20:47Z</time></trkpt><trkpt lat="45.337205080449955" lon="10.635082019161612"><ele>112.0</ele><time>2026-03-28T09:20:48Z</time></trkpt><trkpt lat="45.337141638635295" lon="10.635018630723692"><ele>110.83333333333334</ele><time>2026-03-28T09:20:49Z</time></trkpt><trkpt lat="45.33706727472325" lon="10.634958642317606"><ele>109.66666666666667</ele><time>2026-03-28T09:20:50Z</time></trkpt><trkpt lat="45.33700548783906" lon="10.634920191329806"><ele>108.5</ele><time>2026-03-28T09:20:51Z</time></trkpt><trkpt lat="45.33694207234219" lon="10.634875263532885"><ele>107.33333333333334</ele><time>2026-03-28T09:20:52Z</time></trkpt><trkpt lat="45.336874026551826" lon="10.634830348323739"><ele>106.16666666666667</ele><time>2026-03-28T09:20:53Z</time></trkpt><trkpt lat="45.33679826568879" lon="10.634770371801553"><ele>105.0</ele><time>2026-03-28T09:20:54Z</time></trkpt><trkpt lat="45.336736685097364" lon="10.634706080789702"><ele>105.0</ele><time>2026-03-28T09:20:55Z</time></trkpt><trkpt lat="45.33668468170841" lon="10.63462900825713"><ele>105.0</ele><time>2026-03-28T09:20:56Z</time></trkpt><trkpt lat="45.33661836425606" lon="10.634494883528074"><ele>105.0</ele><time>2026-03-28T09:20:58Z</time></trkpt><trkpt lat="45.33658140974198" lon="10.634397520864916"><ele>105.0</ele><time>2026-03-28T09:21:00Z</time></trkpt><trkpt lat="45.33650302467722" lon="10.634346235665877"><ele>105.0</ele><time>2026-03-28T09:21:02Z</time></trkpt><trkpt lat="45.33638320749684" lon="10.634384581544026"><ele>104.66666666666667</ele><time>2026-03-28T09:21:04Z</time></trkpt><trkpt lat="45.336306125712916" lon="10.63442096059751"><ele>104.33333333333334</ele><time>2026-03-28T09:21:05Z</time></trkpt><trkpt lat="45.336231281897504" lon="10.63444793968287"><ele>104.0</ele><time>2026-03-28T09:21:06Z</time></trkpt><trkpt lat="45.33614436419469" lon="10.63448026037593"><ele>103.66666666666667</ele><time>2026-03-28T09:21:07Z</time></trkpt><trkpt lat="45.33605893972956" lon="10.634522333647515"><ele>103.33333333333334</ele><time>2026-03-28T09:21:08Z</time></trkpt><trkpt lat="45.33599437433865" lon="10.634581084821038"><ele>103.0</ele><time>2026-03-28T09:21:09Z</time></trkpt><trkpt lat="45.33592901192064" lon="10.63465492448561"><ele>102.83333333333334</ele><time>2026-03-28T09:21:10Z</time></trkpt><trkpt lat="45.33588987362654" lon="10.634740024446028"><ele>102.66666666666667</ele><time>2026-03-28T09:21:11Z</time></trkpt><trkpt lat="45.33585711132216" lon="10.634834890438913"><ele>102.5</ele><time>2026-03-28T09:21:12Z</time></trkpt><trkpt lat="45.33581165690955" lon="10.634936091220471"><ele>102.33333333333334</ele><time>2026-03-28T09:21:13Z</time></trkpt><trkpt lat="45.335744218603445" lon="10.635042484092505"><ele>102.16666666666667</ele><time>2026-03-28T09:21:14Z</time></trkpt><trkpt lat="45.33567756195224" lon="10.635156392033934"><ele>102.0</ele><time>2026-03-28T09:21:15Z</time></trkpt><trkpt lat="45.335635730522576" lon="10.635258987102246"><ele>101.39999999999999</ele><time>2026-03-28T09:21:16Z</time></trkpt><trkpt lat="45.33557754479352" lon="10.635386965184567"><ele>100.8</ele><time>2026-03-28T09:21:17Z</time></trkpt><trkpt lat="45.33552885330273" lon="10.63551496972107"><ele>100.2</ele><time>2026-03-28T09:21:18Z</time></trkpt><trkpt lat="45.335480358539414" lon="10.635643046429662"><ele>99.6</ele><time>2026-03-28T09:21:19Z</time></trkpt><trkpt lat="45.33543039932591" lon="10.63576907830934"><ele>99.0</ele><time>2026-03-28T09:21:20Z</time></trkpt><trkpt lat="45.3353843366219" lon="10.635862594119187"><ele>98.66666666666667</ele><time>2026-03-28T09:21:21Z</time></trkpt><trkpt lat="45.335325338508255" lon="10.635950862422124"><ele>98.33333333333334</ele><time>2026-03-28T09:21:22Z</time></trkpt><trkpt lat="45.335262240347724" lon="10.636031972305428"><ele>98.0</ele><time>2026-03-28T09:21:23Z</time></trkpt><trkpt lat="45.335191476587255" lon="10.636096687400768"><ele>97.66666666666667</ele><time>2026-03-28T09:21:24Z</time></trkpt><trkpt lat="45.335107195916926" lon="10.636165867677974"><ele>97.33333333333334</ele><time>2026-03-28T09:21:25Z</time></trkpt><trkpt lat="45.33502791047624" lon="10.6362412682714"><ele>97.0</ele><time>2026-03-28T09:21:26Z</time></trkpt><trkpt lat="45.33493927606111" lon="10.636329139492679"><ele>97.00000000000001</ele><time>2026-03-28T09:21:27Z</time></trkpt><trkpt lat="45.33485507814669" lon="10.636404632933171"><ele>97.0</ele><time>2026-03-28T09:21:28Z</time></trkpt><trkpt lat="45.33477907957491" lon="10.6364727422074"><ele>97.0</ele><time>2026-03-28T09:21:29Z</time></trkpt><trkpt lat="45.33470736869431" lon="10.63654329720639"><ele>97.0</ele><time>2026-03-28T09:21:30Z</time></trkpt><trkpt lat="45.334646245342824" lon="10.636613721790638"><ele>97.00000000000001</ele><time>2026-03-28T09:21:31Z</time></trkpt><trkpt lat="45.334588668670456" lon="10.63669411874947"><ele>97.0</ele><time>2026-03-28T09:21:32Z</time></trkpt><trkpt lat="45.334539347310454" lon="10.63676641716488"><ele>97.00000000000001</ele><time>2026-03-28T09:21:33Z</time></trkpt><trkpt lat="45.334497946027454" lon="10.636847361141655"><ele>97.0</ele><time>2026-03-28T09:21:34Z</time></trkpt><trkpt lat="45.334463088736705" lon="10.636943909134416"><ele>97.0</ele><time>2026-03-28T09:21:35Z</time></trkpt><trkpt lat="45.3344151816967" lon="10.637030885102172"><ele>97.0</ele><time>2026-03-28T09:21:36Z</time></trkpt><trkpt lat="45.334368320135084" lon="10.637105719074459"><ele>97.00000000000001</ele><time>2026-03-28T09:21:37Z</time></trkpt><trkpt lat="45.33428571339553" lon="10.637238656303584"><ele>97.0</ele><time>2026-03-28T09:21:39Z</time></trkpt><trkpt lat="45.33424484959294" lon="10.637310662385058"><ele>97.16666666666667</ele><time>2026-03-28T09:21:40Z</time></trkpt><trkpt lat="45.334198782360566" lon="10.63737439898592"><ele>97.33333333333334</ele><time>2026-03-28T09:21:41Z</time></trkpt><trkpt lat="45.334144241067605" lon="10.637431128733303"><ele>97.5</ele><time>2026-03-28T09:21:42Z</time></trkpt><trkpt lat="45.334070067802095" lon="10.637474007914118"><ele>97.66666666666666</ele><time>2026-03-28T09:21:43Z</time></trkpt><trkpt lat="45.3339838701309" lon="10.637525956133496"><ele>97.83333333333333</ele><time>2026-03-28T09:21:44Z</time></trkpt><trkpt lat="45.33389539309778" lon="10.637579486292468"><ele>98.0</ele><time>2026-03-28T09:21:45Z</time></trkpt><trkpt lat="45.33379552665788" lon="10.637633616158748"><ele>98.0</ele><time>2026-03-28T09:21:46Z</time></trkpt><trkpt lat="45.3336838990844" lon="10.637685986077631"><ele>98.0</ele><time>2026-03-28T09:21:47Z</time></trkpt><trkpt lat="45.333586007774805" lon="10.637734967462176"><ele>98.0</ele><time>2026-03-28T09:21:48Z</time></trkpt><trkpt lat="45.33348699968348" lon="10.63777321681171"><ele>98.0</ele><time>2026-03-28T09:21:49Z</time></trkpt><trkpt lat="45.33338627881209" lon="10.637820234180714"><ele>98.0</ele><time>2026-03-28T09:21:50Z</time></trkpt><trkpt lat="45.333284896608774" lon="10.637869199391147"><ele>97.80000000000001</ele><time>2026-03-28T09:21:51Z</time></trkpt><trkpt lat="45.33319864793122" lon="10.637927562810345"><ele>97.6</ele><time>2026-03-28T09:21:52Z</time></trkpt><trkpt lat="45.3331202240239" lon="10.638011568039726"><ele>97.4</ele><time>2026-03-28T09:21:53Z</time></trkpt><trkpt lat="45.33304126449107" lon="10.638098999585045"><ele>97.19999999999999</ele><time>2026-03-28T09:21:54Z</time></trkpt><trkpt lat="45.33296020176618" lon="10.638207701804241"><ele>97.0</ele><time>2026-03-28T09:21:55Z</time></trkpt><trkpt lat="45.33288270064877" lon="10.638304843888555"><ele>97.0</ele><time>2026-03-28T09:21:56Z</time></trkpt><trkpt lat="45.33280357799943" lon="10.638393838558647"><ele>97.0</ele><time>2026-03-28T09:21:57Z</time></trkpt><trkpt lat="45.33269601237448" lon="10.63841442177684"><ele>97.0</ele><time>2026-03-28T09:21:58Z</time></trkpt><trkpt lat="45.3326317914049" lon="10.638514861442683"><ele>97.0</ele><time>2026-03-28T09:21:59Z</time></trkpt><trkpt lat="45.33255048674568" lon="10.638607141612386"><ele>97.0</ele><time>2026-03-28T09:22:00Z</time></trkpt><trkpt lat="45.332467834650394" lon="10.63868005953778"><ele>95.16666666666667</ele><time>2026-03-28T09:22:01Z</time></trkpt><trkpt lat="45.33238585388745" lon="10.638741925748112"><ele>93.33333333333334</ele><time>2026-03-28T09:22:02Z</time></trkpt><trkpt lat="45.332309782904034" lon="10.63879193092273"><ele>91.5</ele><time>2026-03-28T09:22:03Z</time></trkpt><trkpt lat="45.33223049698264" lon="10.63883560151325"><ele>89.66666666666667</ele><time>2026-03-28T09:22:04Z</time></trkpt><trkpt lat="45.332152094312576" lon="10.638879482239153"><ele>87.83333333333334</ele><time>2026-03-28T09:22:05Z</time></trkpt><trkpt lat="45.332076730852386" lon="10.638933725926977"><ele>86.0</ele><time>2026-03-28T09:22:06Z</time></trkpt><trkpt lat="45.33200239164072" lon="10.639015308378903"><ele>85.66666666666667</ele><time>2026-03-28T09:22:07Z</time></trkpt><trkpt lat="45.33197798885926" lon="10.639138712790356"><ele>85.33333333333334</ele><time>2026-03-28T09:22:08Z</time></trkpt><trkpt lat="45.3319251907338" lon="10.639230522517998"><ele>85.0</ele><time>2026-03-28T09:22:09Z</time></trkpt><trkpt lat="45.33186663869025" lon="10.639314135452288"><ele>84.66666666666667</ele><time>2026-03-28T09:22:10Z</time></trkpt><trkpt lat="45.33178051390449" lon="10.639371298907937"><ele>84.33333333333333</ele><time>2026-03-28T09:22:11Z</time></trkpt><trkpt lat="45.331718987548584" lon="10.63944408207193"><ele>84.0</ele><time>2026-03-28T09:22:12Z</time></trkpt><trkpt lat="45.3316613099464" lon="10.639490448786667"><ele>84.0</ele><time>2026-03-28T09:22:13Z</time></trkpt><trkpt lat="45.331616311915916" lon="10.639565161113305"><ele>84.0</ele><time>2026-03-28T09:22:14Z</time></trkpt><trkpt lat="45.33159264795307" lon="10.639664248789368"><ele>84.0</ele><time>2026-03-28T09:22:15Z</time></trkpt><trkpt lat="45.33158354311925" lon="10.639754784266664"><ele>84.0</ele><time>2026-03-28T09:22:16Z</time></trkpt><trkpt lat="45.33155965812111" lon="10.639867163330665"><ele>84.0</ele><time>2026-03-28T09:22:18Z</time></trkpt><trkpt lat="45.3315305184376" lon="10.639948127245036"><ele>84.0</ele><time>2026-03-28T09:22:20Z</time></trkpt><trkpt lat="45.331454839978576" lon="10.639857687662854"><ele>84.6</ele><time>2026-03-28T09:22:21Z</time></trkpt><trkpt lat="45.331382941745616" lon="10.63985379424823"><ele>85.2</ele><time>2026-03-28T09:22:22Z</time></trkpt><trkpt lat="45.33129155174542" lon="10.639848845331139"><ele>85.8</ele><time>2026-03-28T09:22:23Z</time></trkpt><trkpt lat="45.33117089593091" lon="10.639842311581807"><ele>86.39999999999999</ele><time>2026-03-28T09:22:24Z</time></trkpt><trkpt lat="45.33103584455471" lon="10.639840979088198"><ele>87.0</ele><time>2026-03-28T09:22:25Z</time></trkpt><trkpt lat="45.330894588683165" lon="10.639837642057588"><ele>87.0</ele><time>2026-03-28T09:22:26Z</time></trkpt><trkpt lat="45.3307445275509" lon="10.639830742592718"><ele>87.0</ele><time>2026-03-28T09:22:27Z</time></trkpt><trkpt lat="45.33060788062784" lon="10.639816956324994"><ele>87.0</ele><time>2026-03-28T09:22:28Z</time></trkpt><trkpt lat="45.33048125127802" lon="10.6397761763392"><ele>87.0</ele><time>2026-03-28T09:22:29Z</time></trkpt><trkpt lat="45.33034620959344" lon="10.639725665895376"><ele>87.0</ele><time>2026-03-28T09:22:30Z</time></trkpt><trkpt lat="45.330222088724284" lon="10.639681873781097"><ele>87.0</ele><time>2026-03-28T09:22:31Z</time></trkpt><trkpt lat="45.33011061154854" lon="10.639643396806623"><ele>87.0</ele><time>2026-03-28T09:22:32Z</time></trkpt><trkpt lat="45.330007965332435" lon="10.639608977614875"><ele>87.0</ele><time>2026-03-28T09:22:33Z</time></trkpt><trkpt lat="45.32991740032892" lon="10.639605873082145"><ele>87.0</ele><time>2026-03-28T09:22:34Z</time></trkpt><trkpt lat="45.329827375998214" lon="10.639589732488858"><ele>87.0</ele><time>2026-03-28T09:22:35Z</time></trkpt><trkpt lat="45.32974616026598" lon="10.639610176915152"><ele>87.0</ele><time>2026-03-28T09:22:36Z</time></trkpt><trkpt lat="45.32967393470306" lon="10.63965797764225"><ele>87.0</ele><time>2026-03-28T09:22:37Z</time></trkpt><trkpt lat="45.32962157089559" lon="10.639723869271805"><ele>87.0</ele><time>2026-03-28T09:22:38Z</time></trkpt><trkpt lat="45.32957902575846" lon="10.639791690768082"><ele>87.0</ele><time>2026-03-28T09:22:39Z</time></trkpt><trkpt lat="45.32949400419738" lon="10.639874970760333"><ele>87.0</ele><time>2026-03-28T09:22:41Z</time></trkpt><trkpt lat="45.329426109832696" lon="10.639949652110538"><ele>86.25</ele><time>2026-03-28T09:22:43Z</time></trkpt><trkpt lat="45.32935197427991" lon="10.640020661613177"><ele>85.5</ele><time>2026-03-28T09:22:46Z</time></trkpt><trkpt lat="45.32942466677211" lon="10.640258069154722"><ele>84.75</ele><time>2026-03-28T09:22:47Z</time></trkpt><trkpt lat="45.32945977047347" lon="10.640402813945675"><ele>84.0</ele><time>2026-03-28T09:22:48Z</time></trkpt><trkpt lat="45.32948812481532" lon="10.640536098747544"><ele>84.0</ele><time>2026-03-28T09:22:49Z</time></trkpt><trkpt lat="45.32951405993782" lon="10.640695297683413"><ele>84.0</ele><time>2026-03-28T09:22:50Z</time></trkpt><trkpt lat="45.32955399242657" lon="10.64087721768092"><ele>84.0</ele><time>2026-03-28T09:22:51Z</time></trkpt><trkpt lat="45.32959349809194" lon="10.641040316102398"><ele>84.0</ele><time>2026-03-28T09:22:52Z</time></trkpt><trkpt lat="45.329609275755466" lon="10.641194674122719"><ele>83.75</ele><time>2026-03-28T09:22:53Z</time></trkpt><trkpt lat="45.32959815084372" lon="10.64134899104329"><ele>83.5</ele><time>2026-03-28T09:22:54Z</time></trkpt><trkpt lat="45.32950914192233" lon="10.64147938230102"><ele>83.25</ele><time>2026-03-28T09:22:55Z</time></trkpt><trkpt lat="45.329425805248306" lon="10.64163694136638"><ele>83.0</ele><time>2026-03-28T09:22:56Z</time></trkpt><trkpt lat="45.32934097833853" lon="10.641820739810667"><ele>82.66666666666667</ele><time>2026-03-28T09:22:57Z</time></trkpt><trkpt lat="45.329247368494656" lon="10.641993141644987"><ele>82.33333333333333</ele><time>2026-03-28T09:22:58Z</time></trkpt><trkpt lat="45.32918529745612" lon="10.642179911352827"><ele>82.0</ele><time>2026-03-28T09:22:59Z</time></trkpt><trkpt lat="45.329145740140994" lon="10.642390570660563"><ele>82.0</ele><time>2026-03-28T09:23:00Z</time></trkpt><trkpt lat="45.32911918135536" lon="10.642617422843966"><ele>82.0</ele><time>2026-03-28T09:23:01Z</time></trkpt><trkpt lat="45.329102515974846" lon="10.64283043106778"><ele>82.0</ele><time>2026-03-28T09:23:02Z</time></trkpt><trkpt lat="45.32908609276383" lon="10.643039191298426"><ele>82.33333333333333</ele><time>2026-03-28T09:23:03Z</time></trkpt><trkpt lat="45.32906735318034" lon="10.643261028527558"><ele>82.66666666666667</ele><time>2026-03-28T09:23:04Z</time></trkpt><trkpt lat="45.32905736677631" lon="10.64350110163308"><ele>83.0</ele><time>2026-03-28T09:23:05Z</time></trkpt><trkpt lat="45.329052710692885" lon="10.64375287046008"><ele>83.0</ele><time>2026-03-28T09:23:06Z</time></trkpt><trkpt lat="45.3290426276456" lon="10.644013489021214"><ele>83.0</ele><time>2026-03-28T09:23:07Z</time></trkpt><trkpt lat="45.32903247545135" lon="10.64425643845829"><ele>83.0</ele><time>2026-03-28T09:23:08Z</time></trkpt><trkpt lat="45.329023092436124" lon="10.644488253187683"><ele>83.5</ele><time>2026-03-28T09:23:09Z</time></trkpt><trkpt lat="45.32901223582925" lon="10.644705838002974"><ele>84.0</ele><time>2026-03-28T09:23:10Z</time></trkpt><trkpt lat="45.32900093795694" lon="10.644899131833569"><ele>84.5</ele><time>2026-03-28T09:23:11Z</time></trkpt><trkpt lat="45.328992314844285" lon="10.64508373738624"><ele>85.0</ele><time>2026-03-28T09:23:12Z</time></trkpt><trkpt lat="45.32898549947255" lon="10.645256460466356"><ele>85.4</ele><time>2026-03-28T09:23:13Z</time></trkpt><trkpt lat="45.328980935887664" lon="10.645412880031271"><ele>85.8</ele><time>2026-03-28T09:23:14Z</time></trkpt><trkpt lat="45.32897698113561" lon="10.645551888965398"><ele>86.19999999999999</ele><time>2026-03-28T09:23:15Z</time></trkpt><trkpt lat="45.32896760820536" lon="10.645673640976627"><ele>86.6</ele><time>2026-03-28T09:23:16Z</time></trkpt><trkpt lat="45.328954365963995" lon="10.645767304138225"><ele>87.0</ele><time>2026-03-28T09:23:17Z</time></trkpt><trkpt lat="45.32893098455884" lon="10.645932213365848"><ele>87.0</ele><time>2026-03-28T09:23:19Z</time></trkpt><trkpt lat="45.328908365240125" lon="10.646039213968024"><ele>87.0</ele><time>2026-03-28T09:23:21Z</time></trkpt><trkpt lat="45.32887275668716" lon="10.646133948395988"><ele>87.0</ele><time>2026-03-28T09:23:24Z</time></trkpt><trkpt lat="45.32882580400479" lon="10.646257346804225"><ele>87.0</ele><time>2026-03-28T09:23:31Z</time></trkpt><trkpt lat="45.32878437804389" lon="10.646378395383476"><ele>87.0</ele><time>2026-03-28T09:23:32Z</time></trkpt><trkpt lat="45.32873319315654" lon="10.646533150764546"><ele>87.5</ele><time>2026-03-28T09:23:33Z</time></trkpt><trkpt lat="45.32868232808279" lon="10.646684888823039"><ele>88.0</ele><time>2026-03-28T09:23:34Z</time></trkpt><trkpt lat="45.32862394658578" lon="10.646864396484759"><ele>88.5</ele><time>2026-03-28T09:23:35Z</time></trkpt><trkpt lat="45.32855890487689" lon="10.647040830600355"><ele>89.0</ele><time>2026-03-28T09:23:36Z</time></trkpt><trkpt lat="45.32845130459614" lon="10.64717569716602"><ele>89.0</ele><time>2026-03-28T09:23:37Z</time></trkpt><trkpt lat="45.32833209339584" lon="10.64731074502601"><ele>89.0</ele><time>2026-03-28T09:23:38Z</time></trkpt><trkpt lat="45.328212590081606" lon="10.647485534496257"><ele>89.0</ele><time>2026-03-28T09:23:39Z</time></trkpt><trkpt lat="45.32808427151449" lon="10.647644500012106"><ele>94.0</ele><time>2026-03-28T09:23:40Z</time></trkpt><trkpt lat="45.32795820607635" lon="10.647844019648042"><ele>99.0</ele><time>2026-03-28T09:23:41Z</time></trkpt><trkpt lat="45.32783887157853" lon="10.648074690489565"><ele>104.0</ele><time>2026-03-28T09:23:42Z</time></trkpt><trkpt lat="45.327725529402585" lon="10.648317755116453"><ele>104.0</ele><time>2026-03-28T09:23:43Z</time></trkpt><trkpt lat="45.327606781091134" lon="10.648570261207283"><ele>104.0</ele><time>2026-03-28T09:23:44Z</time></trkpt><trkpt lat="45.32748715928565" lon="10.648832759585583"><ele>104.0</ele><time>2026-03-28T09:23:45Z</time></trkpt><trkpt lat="45.327371374617634" lon="10.649097598579429"><ele>102.66666666666666</ele><time>2026-03-28T09:23:46Z</time></trkpt><trkpt lat="45.32726131265034" lon="10.649358617063049"><ele>101.33333333333334</ele><time>2026-03-28T09:23:47Z</time></trkpt><trkpt lat="45.3271551717624" lon="10.649611636143206"><ele>100.0</ele><time>2026-03-28T09:23:48Z</time></trkpt><trkpt lat="45.32705883356857" lon="10.64984624239776"><ele>101.33333333333334</ele><time>2026-03-28T09:23:49Z</time></trkpt><trkpt lat="45.32696830674811" lon="10.650062705898073"><ele>102.66666666666666</ele><time>2026-03-28T09:23:50Z</time></trkpt><trkpt lat="45.32688357368984" lon="10.650258855697512"><ele>104.0</ele><time>2026-03-28T09:23:51Z</time></trkpt><trkpt lat="45.32680511922612" lon="10.650451347427026"><ele>104.0</ele><time>2026-03-28T09:23:52Z</time></trkpt><trkpt lat="45.326724545531114" lon="10.650634806212743"><ele>104.0</ele><time>2026-03-28T09:23:53Z</time></trkpt><trkpt lat="45.32663961731773" lon="10.650814538377034"><ele>104.0</ele><time>2026-03-28T09:23:54Z</time></trkpt><trkpt lat="45.326546304856365" lon="10.650978336564227"><ele>103.33333333333333</ele><time>2026-03-28T09:23:55Z</time></trkpt><trkpt lat="45.32643824438893" lon="10.651128720971068"><ele>102.66666666666666</ele><time>2026-03-28T09:23:56Z</time></trkpt><trkpt lat="45.3263191137536" lon="10.651258096287767"><ele>102.0</ele><time>2026-03-28T09:23:57Z</time></trkpt><trkpt lat="45.32618269710058" lon="10.651384324825989"><ele>107.33333333333334</ele><time>2026-03-28T09:23:58Z</time></trkpt><trkpt lat="45.32605496588449" lon="10.6515265324101"><ele>112.66666666666667</ele><time>2026-03-28T09:23:59Z</time></trkpt><trkpt lat="45.32592860860385" lon="10.65167439153038"><ele>118.0</ele><time>2026-03-28T09:24:00Z</time></trkpt><trkpt lat="45.32580579306573" lon="10.651835027244964"><ele>119.75</ele><time>2026-03-28T09:24:01Z</time></trkpt><trkpt lat="45.32569875207814" lon="10.65197807418402"><ele>121.5</ele><time>2026-03-28T09:24:02Z</time></trkpt><trkpt lat="45.32560312797356" lon="10.652094036261317"><ele>123.25</ele><time>2026-03-28T09:24:03Z</time></trkpt><trkpt lat="45.325510742565584" lon="10.652211868350474"><ele>125.0</ele><time>2026-03-28T09:24:04Z</time></trkpt><trkpt lat="45.32542445233753" lon="10.652336414589655"><ele>125.0</ele><time>2026-03-28T09:24:05Z</time></trkpt><trkpt lat="45.32534088257232" lon="10.652489901534313"><ele>125.0</ele><time>2026-03-28T09:24:06Z</time></trkpt><trkpt lat="45.32527221903262" lon="10.652653078867061"><ele>125.0</ele><time>2026-03-28T09:24:07Z</time></trkpt><trkpt lat="45.3252240610585" lon="10.652813365475366"><ele>125.0</ele><time>2026-03-28T09:24:08Z</time></trkpt><trkpt lat="45.32517736278241" lon="10.652955382778293"><ele>124.4</ele><time>2026-03-28T09:24:09Z</time></trkpt><trkpt lat="45.32512298901499" lon="10.653085026999193"><ele>123.8</ele><time>2026-03-28T09:24:10Z</time></trkpt><trkpt lat="45.325061895381964" lon="10.653221552923892"><ele>123.19999999999999</ele><time>2026-03-28T09:24:11Z</time></trkpt><trkpt lat="45.324996702444025" lon="10.653350521259101"><ele>122.6</ele><time>2026-03-28T09:24:12Z</time></trkpt><trkpt lat="45.32491050323208" lon="10.653453845493738"><ele>122.0</ele><time>2026-03-28T09:24:13Z</time></trkpt><trkpt lat="45.324839521352466" lon="10.653571137970765"><ele>122.16666666666666</ele><time>2026-03-28T09:24:14Z</time></trkpt><trkpt lat="45.32477226764291" lon="10.653645005262366"><ele>122.33333333333333</ele><time>2026-03-28T09:24:15Z</time></trkpt><trkpt lat="45.32471672291746" lon="10.653719107024504"><ele>122.5</ele><time>2026-03-28T09:24:16Z</time></trkpt><trkpt lat="45.32466579179948" lon="10.653789880218266"><ele>122.66666666666666</ele><time>2026-03-28T09:24:17Z</time></trkpt><trkpt lat="45.32459638588214" lon="10.653879829816697"><ele>122.83333333333333</ele><time>2026-03-28T09:24:19Z</time></trkpt><trkpt lat="45.32454657762193" lon="10.65394711257096"><ele>123.0</ele><time>2026-03-28T09:24:22Z</time></trkpt><trkpt lat="45.32468672626216" lon="10.65402951556727"><ele>123.0</ele><time>2026-03-28T09:24:24Z</time></trkpt><trkpt lat="45.32479780573326" lon="10.654018541959836"><ele>123.0</ele><time>2026-03-28T09:24:25Z</time></trkpt><trkpt lat="45.32490050967383" lon="10.654053767988223"><ele>123.0</ele><time>2026-03-28T09:24:26Z</time></trkpt><trkpt lat="45.32498811494314" lon="10.654158766386255"><ele>123.0</ele><time>2026-03-28T09:24:27Z</time></trkpt><trkpt lat="45.325091414685815" lon="10.654288548707314"><ele>123.0</ele><time>2026-03-28T09:24:28Z</time></trkpt><trkpt lat="45.325198289200735" lon="10.654411729451228"><ele>123.0</ele><time>2026-03-28T09:24:29Z</time></trkpt><trkpt lat="45.32529008942012" lon="10.654523291019489"><ele>123.0</ele><time>2026-03-28T09:24:30Z</time></trkpt><trkpt lat="45.325360979002596" lon="10.654671742476301"><ele>123.0</ele><time>2026-03-28T09:24:31Z</time></trkpt><trkpt lat="45.3254007872198" lon="10.654853789532524"><ele>123.25</ele><time>2026-03-28T09:24:32Z</time></trkpt><trkpt lat="45.3254057034078" lon="10.655036489595613"><ele>123.5</ele><time>2026-03-28T09:24:33Z</time></trkpt><trkpt lat="45.32537899280769" lon="10.655211759554957"><ele>123.75</ele><time>2026-03-28T09:24:34Z</time></trkpt><trkpt lat="45.32532203330145" lon="10.655404217312425"><ele>124.0</ele><time>2026-03-28T09:24:35Z</time></trkpt><trkpt lat="45.32525975452133" lon="10.655617002483183"><ele>122.66666666666667</ele><time>2026-03-28T09:24:36Z</time></trkpt><trkpt lat="45.32520459805558" lon="10.655846260250948"><ele>121.33333333333334</ele><time>2026-03-28T09:24:37Z</time></trkpt><trkpt lat="45.32515167743769" lon="10.656082271929918"><ele>120.0</ele><time>2026-03-28T09:24:38Z</time></trkpt><trkpt lat="45.32510566917114" lon="10.656295327341908"><ele>117.25</ele><time>2026-03-28T09:24:39Z</time></trkpt><trkpt lat="45.325061578179785" lon="10.656491568486556"><ele>114.5</ele><time>2026-03-28T09:24:40Z</time></trkpt><trkpt lat="45.325026034784976" lon="10.656674007018776"><ele>111.75</ele><time>2026-03-28T09:24:41Z</time></trkpt><trkpt lat="45.32502129108554" lon="10.656863845871"><ele>109.0</ele><time>2026-03-28T09:24:42Z</time></trkpt><trkpt lat="45.32506166775696" lon="10.657067727418397"><ele>107.66666666666667</ele><time>2026-03-28T09:24:43Z</time></trkpt><trkpt lat="45.32511789779247" lon="10.65729337524584"><ele>106.33333333333334</ele><time>2026-03-28T09:24:44Z</time></trkpt><trkpt lat="45.3251702351098" lon="10.657514105027328"><ele>105.0</ele><time>2026-03-28T09:24:45Z</time></trkpt><trkpt lat="45.32520544569046" lon="10.65770611293661"><ele>105.2</ele><time>2026-03-28T09:24:46Z</time></trkpt><trkpt lat="45.32523665504981" lon="10.65787888714349"><ele>105.4</ele><time>2026-03-28T09:24:47Z</time></trkpt><trkpt lat="45.32526553158708" lon="10.658034153079557"><ele>105.6</ele><time>2026-03-28T09:24:48Z</time></trkpt><trkpt lat="45.32528741775496" lon="10.658170613868426"><ele>105.8</ele><time>2026-03-28T09:24:49Z</time></trkpt><trkpt lat="45.32529766735372" lon="10.658274698847565"><ele>106.0</ele><time>2026-03-28T09:24:50Z</time></trkpt><trkpt lat="45.32530761698877" lon="10.658372103769285"><ele>106.0</ele><time>2026-03-28T09:24:51Z</time></trkpt><trkpt lat="45.32532906779571" lon="10.658478632374177"><ele>106.0</ele><time>2026-03-28T09:24:53Z</time></trkpt><trkpt lat="45.32536208671714" lon="10.658557230049578"><ele>106.0</ele><time>2026-03-28T09:24:56Z</time></trkpt><trkpt lat="45.32550229207141" lon="10.658508597511425"><ele>106.0</ele><time>2026-03-28T09:24:57Z</time></trkpt><trkpt lat="45.325608312299146" lon="10.658462402465725"><ele>106.0</ele><time>2026-03-28T09:24:58Z</time></trkpt><trkpt lat="45.32570538706699" lon="10.658432588333355"><ele>105.25</ele><time>2026-03-28T09:24:59Z</time></trkpt><trkpt lat="45.32581506986568" lon="10.658400047828462"><ele>104.5</ele><time>2026-03-28T09:25:00Z</time></trkpt><trkpt lat="45.32593604840679" lon="10.65836329858071"><ele>103.75</ele><time>2026-03-28T09:25:01Z</time></trkpt><trkpt lat="45.32605314250544" lon="10.658332458406042"><ele>103.0</ele><time>2026-03-28T09:25:02Z</time></trkpt><trkpt lat="45.3261494180917" lon="10.658312183867425"><ele>103.00000000000001</ele><time>2026-03-28T09:25:03Z</time></trkpt><trkpt lat="45.32622335847232" lon="10.658287053549241"><ele>103.0</ele><time>2026-03-28T09:25:04Z</time></trkpt><trkpt lat="45.32630464540352" lon="10.65826078318224"><ele>103.0</ele><time>2026-03-28T09:25:05Z</time></trkpt><trkpt lat="45.32638814377842" lon="10.658236139125522"><ele>103.0</ele><time>2026-03-28T09:25:06Z</time></trkpt><trkpt lat="45.326475228240675" lon="10.6582070428036"><ele>103.00000000000001</ele><time>2026-03-28T09:25:07Z</time></trkpt><trkpt lat="45.32654981272652" lon="10.658185945344668"><ele>103.0</ele><time>2026-03-28T09:25:08Z</time></trkpt><trkpt lat="45.32667523658068" lon="10.658219444562947"><ele>102.5</ele><time>2026-03-28T09:25:10Z</time></trkpt><trkpt lat="45.326747049758204" lon="10.65826165809259"><ele>102.0</ele><time>2026-03-28T09:25:11Z</time></trkpt><trkpt lat="45.32681503063298" lon="10.658310384546724"><ele>101.5</ele><time>2026-03-28T09:25:12Z</time></trkpt><trkpt lat="45.326789729266366" lon="10.658576425671026"><ele>101.0</ele><time>2026-03-28T09:25:13Z</time></trkpt><trkpt lat="45.32678950070605" lon="10.65875062187036"><ele>100.0</ele><time>2026-03-28T09:25:14Z</time></trkpt><trkpt lat="45.32678763461658" lon="10.658938686931647"><ele>99.0</ele><time>2026-03-28T09:25:15Z</time></trkpt><trkpt lat="45.32677125829888" lon="10.659109198884364"><ele>98.0</ele><time>2026-03-28T09:25:16Z</time></trkpt><trkpt lat="45.32674009019208" lon="10.65926552532547"><ele>97.0</ele><time>2026-03-28T09:25:17Z</time></trkpt><trkpt lat="45.32671526478454" lon="10.659408146470716"><ele>96.66666666666667</ele><time>2026-03-28T09:25:18Z</time></trkpt><trkpt lat="45.326696696041196" lon="10.65954323967783"><ele>96.33333333333334</ele><time>2026-03-28T09:25:19Z</time></trkpt><trkpt lat="45.32667377249788" lon="10.659663643854655"><ele>96.0</ele><time>2026-03-28T09:25:20Z</time></trkpt><trkpt lat="45.3266327577905" lon="10.659754448738225"><ele>95.66666666666667</ele><time>2026-03-28T09:25:21Z</time></trkpt><trkpt lat="45.326591550889454" lon="10.659838180061762"><ele>95.33333333333334</ele><time>2026-03-28T09:25:22Z</time></trkpt><trkpt lat="45.32660107336091" lon="10.659930957703544"><ele>95.0</ele><time>2026-03-28T09:25:23Z</time></trkpt><trkpt lat="45.326645104083894" lon="10.66003594240701"><ele>95.0</ele><time>2026-03-28T09:25:24Z</time></trkpt><trkpt lat="45.32669418584914" lon="10.660180024399898"><ele>95.0</ele><time>2026-03-28T09:25:25Z</time></trkpt><trkpt lat="45.326717123571235" lon="10.660358812727255"><ele>95.0</ele><time>2026-03-28T09:25:26Z</time></trkpt><trkpt lat="45.32674232788881" lon="10.66056924201354"><ele>95.0</ele><time>2026-03-28T09:25:27Z</time></trkpt><trkpt lat="45.32677301444188" lon="10.66078405656466"><ele>94.25</ele><time>2026-03-28T09:25:28Z</time></trkpt><trkpt lat="45.326802429586785" lon="10.660979474274392"><ele>93.5</ele><time>2026-03-28T09:25:29Z</time></trkpt><trkpt lat="45.32682955244276" lon="10.661157545915712"><ele>92.75</ele><time>2026-03-28T09:25:30Z</time></trkpt><trkpt lat="45.32684284513379" lon="10.661330823585786"><ele>92.0</ele><time>2026-03-28T09:25:31Z</time></trkpt><trkpt lat="45.32684657099389" lon="10.661506473072123"><ele>91.25</ele><time>2026-03-28T09:25:32Z</time></trkpt><trkpt lat="45.32684000225431" lon="10.661690220987358"><ele>90.5</ele><time>2026-03-28T09:25:33Z</time></trkpt><trkpt lat="45.32683519952223" lon="10.661874722479443"><ele>89.75</ele><time>2026-03-28T09:25:34Z</time></trkpt><trkpt lat="45.32682259220366" lon="10.662042173959067"><ele>89.0</ele><time>2026-03-28T09:25:35Z</time></trkpt><trkpt lat="45.32680347074284" lon="10.662194432715182"><ele>89.0</ele><time>2026-03-28T09:25:36Z</time></trkpt><trkpt lat="45.32678765310932" lon="10.662324917064156"><ele>89.0</ele><time>2026-03-28T09:25:37Z</time></trkpt><trkpt lat="45.326773642213176" lon="10.662429460017528"><ele>89.0</ele><time>2026-03-28T09:25:38Z</time></trkpt><trkpt lat="45.326750626779045" lon="10.662517802237625"><ele>89.0</ele><time>2026-03-28T09:25:39Z</time></trkpt><trkpt lat="45.32671645639351" lon="10.66259733733808"><ele>89.0</ele><time>2026-03-28T09:25:40Z</time></trkpt><trkpt lat="45.32667436624026" lon="10.662678684285448"><ele>89.0</ele><time>2026-03-28T09:25:41Z</time></trkpt><trkpt lat="45.32670246978931" lon="10.66279637692386"><ele>88.75</ele><time>2026-03-28T09:25:42Z</time></trkpt><trkpt lat="45.32681437818189" lon="10.662847216968315"><ele>88.5</ele><time>2026-03-28T09:25:43Z</time></trkpt><trkpt lat="45.32689988775923" lon="10.662909880073062"><ele>88.25</ele><time>2026-03-28T09:25:44Z</time></trkpt><trkpt lat="45.32700297267114" lon="10.663003396850678"><ele>88.0</ele><time>2026-03-28T09:25:45Z</time></trkpt><trkpt lat="45.32712865108956" lon="10.663117849326786"><ele>88.33333333333333</ele><time>2026-03-28T09:25:46Z</time></trkpt><trkpt lat="45.32727336920328" lon="10.663237255769266"><ele>88.66666666666667</ele><time>2026-03-28T09:25:47Z</time></trkpt><trkpt lat="45.327412727010945" lon="10.663349056572505"><ele>89.0</ele><time>2026-03-28T09:25:48Z</time></trkpt><trkpt lat="45.32756497220376" lon="10.663471923082216"><ele>89.0</ele><time>2026-03-28T09:25:49Z</time></trkpt><trkpt lat="45.32773232269089" lon="10.66360712275808"><ele>89.0</ele><time>2026-03-28T09:25:50Z</time></trkpt><trkpt lat="45.327902693723836" lon="10.663747625787881"><ele>89.0</ele><time>2026-03-28T09:25:51Z</time></trkpt><trkpt lat="45.32807268119393" lon="10.663886771006014"><ele>88.0</ele><time>2026-03-28T09:25:52Z</time></trkpt><trkpt lat="45.32825329928288" lon="10.66401749565099"><ele>87.0</ele><time>2026-03-28T09:25:53Z</time></trkpt><trkpt lat="45.328441358986346" lon="10.66413414712883"><ele>86.0</ele><time>2026-03-28T09:25:54Z</time></trkpt><trkpt lat="45.328622451211544" lon="10.664228730834555"><ele>86.0</ele><time>2026-03-28T09:25:55Z</time></trkpt><trkpt lat="45.32880027453051" lon="10.664316751829146"><ele>86.0</ele><time>2026-03-28T09:25:56Z</time></trkpt><trkpt lat="45.3289721953459" lon="10.664399035543358"><ele>86.0</ele><time>2026-03-28T09:25:57Z</time></trkpt><trkpt lat="45.32914326396735" lon="10.664492497440609"><ele>87.33333333333334</ele><time>2026-03-28T09:25:58Z</time></trkpt><trkpt lat="45.32928774053812" lon="10.664596942719625"><ele>88.66666666666667</ele><time>2026-03-28T09:25:59Z</time></trkpt><trkpt lat="45.329420187608434" lon="10.664731197369177"><ele>90.0</ele><time>2026-03-28T09:26:00Z</time></trkpt><trkpt lat="45.329530645665926" lon="10.664894974384632"><ele>90.0</ele><time>2026-03-28T09:26:01Z</time></trkpt><trkpt lat="45.32963486274784" lon="10.66507886159473"><ele>90.0</ele><time>2026-03-28T09:26:02Z</time></trkpt><trkpt lat="45.32973799504311" lon="10.665270479810363"><ele>90.0</ele><time>2026-03-28T09:26:03Z</time></trkpt><trkpt lat="45.32984689381773" lon="10.665458826740645"><ele>90.33333333333333</ele><time>2026-03-28T09:26:04Z</time></trkpt><trkpt lat="45.32995278120353" lon="10.665642854784927"><ele>90.66666666666666</ele><time>2026-03-28T09:26:05Z</time></trkpt><trkpt lat="45.330063740302975" lon="10.66583958816053"><ele>91.0</ele><time>2026-03-28T09:26:06Z</time></trkpt><trkpt lat="45.330162017369766" lon="10.666044604904943"><ele>90.33333333333333</ele><time>2026-03-28T09:26:07Z</time></trkpt><trkpt lat="45.330248870625795" lon="10.666261808713065"><ele>89.66666666666667</ele><time>2026-03-28T09:26:08Z</time></trkpt><trkpt lat="45.33033288101308" lon="10.666488841798826"><ele>89.0</ele><time>2026-03-28T09:26:09Z</time></trkpt><trkpt lat="45.33041696725313" lon="10.666723162869893"><ele>89.66666666666667</ele><time>2026-03-28T09:26:10Z</time></trkpt><trkpt lat="45.33050662397795" lon="10.666976066634971"><ele>90.33333333333333</ele><time>2026-03-28T09:26:11Z</time></trkpt><trkpt lat="45.330595402764935" lon="10.667232038507517"><ele>91.0</ele><time>2026-03-28T09:26:12Z</time></trkpt><trkpt lat="45.33068239430435" lon="10.667485892296025"><ele>91.0</ele><time>2026-03-28T09:26:13Z</time></trkpt><trkpt lat="45.330760590169504" lon="10.667723925613604"><ele>91.0</ele><time>2026-03-28T09:26:14Z</time></trkpt><trkpt lat="45.33082760781175" lon="10.66792782447241"><ele>91.0</ele><time>2026-03-28T09:26:15Z</time></trkpt><trkpt lat="45.33089772919478" lon="10.6681335507357"><ele>91.25</ele><time>2026-03-28T09:26:16Z</time></trkpt><trkpt lat="45.33096407051865" lon="10.66832107846431"><ele>91.5</ele><time>2026-03-28T09:26:17Z</time></trkpt><trkpt lat="45.331032819114164" lon="10.668497985287523"><ele>91.75</ele><time>2026-03-28T09:26:18Z</time></trkpt><trkpt lat="45.33110400693679" lon="10.66866072168615"><ele>92.0</ele><time>2026-03-28T09:26:19Z</time></trkpt><trkpt lat="45.33118633395213" lon="10.668820314104359"><ele>92.33333333333334</ele><time>2026-03-28T09:26:20Z</time></trkpt><trkpt lat="45.33128461666787" lon="10.668979572932463"><ele>92.66666666666667</ele><time>2026-03-28T09:26:21Z</time></trkpt><trkpt lat="45.33139766696077" lon="10.66913446610386"><ele>93.0</ele><time>2026-03-28T09:26:22Z</time></trkpt><trkpt lat="45.33153520527619" lon="10.669278692563653"><ele>92.0</ele><time>2026-03-28T09:26:23Z</time></trkpt><trkpt lat="45.33168261649269" lon="10.669393917855654"><ele>91.0</ele><time>2026-03-28T09:26:24Z</time></trkpt><trkpt lat="45.331847214044856" lon="10.669497441875233"><ele>90.0</ele><time>2026-03-28T09:26:25Z</time></trkpt><trkpt lat="45.33201404997424" lon="10.66959594609191"><ele>89.66666666666667</ele><time>2026-03-28T09:26:26Z</time></trkpt><trkpt lat="45.33217561468599" lon="10.669683897340727"><ele>89.33333333333334</ele><time>2026-03-28T09:26:27Z</time></trkpt><trkpt lat="45.332336364243886" lon="10.669768606291196"><ele>89.0</ele><time>2026-03-28T09:26:28Z</time></trkpt><trkpt lat="45.332485662619185" lon="10.669841528511645"><ele>88.33333333333334</ele><time>2026-03-28T09:26:29Z</time></trkpt><trkpt lat="45.33264125926486" lon="10.669914897860032"><ele>87.66666666666667</ele><time>2026-03-28T09:26:30Z</time></trkpt><trkpt lat="45.33279624681443" lon="10.669986358707996"><ele>87.0</ele><time>2026-03-28T09:26:31Z</time></trkpt><trkpt lat="45.33295651864194" lon="10.670065183334914"><ele>87.0</ele><time>2026-03-28T09:26:32Z</time></trkpt><trkpt lat="45.333100511110445" lon="10.670143882941568"><ele>87.0</ele><time>2026-03-28T09:26:33Z</time></trkpt><trkpt lat="45.333233921684915" lon="10.670223287399835"><ele>87.0</ele><time>2026-03-28T09:26:34Z</time></trkpt><trkpt lat="45.333358786511006" lon="10.670312495100756"><ele>87.0</ele><time>2026-03-28T09:26:35Z</time></trkpt><trkpt lat="45.33347150187234" lon="10.670412478627423"><ele>86.6</ele><time>2026-03-28T09:26:36Z</time></trkpt><trkpt lat="45.33357508921094" lon="10.670510666147017"><ele>86.19999999999999</ele><time>2026-03-28T09:26:37Z</time></trkpt><trkpt lat="45.3336706094429" lon="10.67059986791355"><ele>85.8</ele><time>2026-03-28T09:26:38Z</time></trkpt><trkpt lat="45.333753406754326" lon="10.67068203427355"><ele>85.4</ele><time>2026-03-28T09:26:39Z</time></trkpt><trkpt lat="45.333820033174426" lon="10.670758064157367"><ele>85.0</ele><time>2026-03-28T09:26:40Z</time></trkpt><trkpt lat="45.333874897647604" lon="10.670822849979032"><ele>84.6</ele><time>2026-03-28T09:26:41Z</time></trkpt><trkpt lat="45.33395254489543" lon="10.670914661111338"><ele>84.2</ele><time>2026-03-28T09:26:43Z</time></trkpt><trkpt lat="45.33389414155158" lon="10.671123119790634"><ele>83.80000000000001</ele><time>2026-03-28T09:26:47Z</time></trkpt><trkpt lat="45.33384894523314" lon="10.671210493818153"><ele>83.4</ele><time>2026-03-28T09:26:48Z</time></trkpt><trkpt lat="45.33380112897943" lon="10.671318483783706"><ele>83.0</ele><time>2026-03-28T09:26:49Z</time></trkpt><trkpt lat="45.33375375472706" lon="10.671432504488612"><ele>83.0</ele><time>2026-03-28T09:26:50Z</time></trkpt><trkpt lat="45.33370575494344" lon="10.671539090409997"><ele>83.0</ele><time>2026-03-28T09:26:51Z</time></trkpt><trkpt lat="45.33366030646107" lon="10.671633467308059"><ele>83.0</ele><time>2026-03-28T09:26:52Z</time></trkpt><trkpt lat="45.33360913766121" lon="10.671729096849585"><ele>83.0</ele><time>2026-03-28T09:26:53Z</time></trkpt><trkpt lat="45.33355102251712" lon="10.671840704551911"><ele>83.0</ele><time>2026-03-28T09:26:54Z</time></trkpt><trkpt lat="45.333498375692265" lon="10.671942201091882"><ele>83.0</ele><time>2026-03-28T09:26:55Z</time></trkpt><trkpt lat="45.33343810060988" lon="10.672046556286288"><ele>82.57142857142857</ele><time>2026-03-28T09:26:56Z</time></trkpt><trkpt lat="45.33338089493995" lon="10.672140234438332"><ele>82.14285714285715</ele><time>2026-03-28T09:26:57Z</time></trkpt><trkpt lat="45.33333274362077" lon="10.67221988154937"><ele>81.71428571428572</ele><time>2026-03-28T09:26:58Z</time></trkpt><trkpt lat="45.333294346527296" lon="10.672297816682027"><ele>81.28571428571428</ele><time>2026-03-28T09:26:59Z</time></trkpt><trkpt lat="45.33326040761771" lon="10.67238788034955"><ele>80.85714285714286</ele><time>2026-03-28T09:27:00Z</time></trkpt><trkpt lat="45.33323888125285" lon="10.67248023075023"><ele>80.42857142857143</ele><time>2026-03-28T09:27:01Z</time></trkpt><trkpt lat="45.333231470312136" lon="10.672581108743799"><ele>80.0</ele><time>2026-03-28T09:27:02Z</time></trkpt><trkpt lat="45.33323710916778" lon="10.67268142030301"><ele>80.0</ele><time>2026-03-28T09:27:03Z</time></trkpt><trkpt lat="45.33325064845522" lon="10.672850328757233"><ele>80.0</ele><time>2026-03-28T09:27:05Z</time></trkpt><trkpt lat="45.33325235010108" lon="10.672997920121649"><ele>80.0</ele><time>2026-03-28T09:27:07Z</time></trkpt><trkpt lat="45.3332471182713" lon="10.673114430678597"><ele>80.0</ele><time>2026-03-28T09:27:09Z</time></trkpt><trkpt lat="45.333320614129015" lon="10.673244257853243"><ele>80.0</ele><time>2026-03-28T09:27:11Z</time></trkpt><trkpt lat="45.33336791182706" lon="10.673355391846046"><ele>80.0</ele><time>2026-03-28T09:27:12Z</time></trkpt><trkpt lat="45.33341097993362" lon="10.67349173105725"><ele>80.0</ele><time>2026-03-28T09:27:13Z</time></trkpt><trkpt lat="45.33344975368652" lon="10.673614601782086"><ele>80.0</ele><time>2026-03-28T09:27:14Z</time></trkpt><trkpt lat="45.33348156810248" lon="10.673731157846792"><ele>80.0</ele><time>2026-03-28T09:27:15Z</time></trkpt><trkpt lat="45.333524616180235" lon="10.673893963110308"><ele>80.0</ele><time>2026-03-28T09:27:17Z</time></trkpt><trkpt lat="45.33354043903314" lon="10.674031538016337"><ele>80.33333333333334</ele><time>2026-03-28T09:27:19Z</time></trkpt><trkpt lat="45.33350205322282" lon="10.674123816197474"><ele>80.66666666666667</ele><time>2026-03-28T09:27:20Z</time></trkpt><trkpt lat="45.333416944733024" lon="10.674227784257017"><ele>81.0</ele><time>2026-03-28T09:27:21Z</time></trkpt><trkpt lat="45.33338955982329" lon="10.674369413579"><ele>81.33333333333333</ele><time>2026-03-28T09:27:22Z</time></trkpt><trkpt lat="45.33336405050095" lon="10.674481022650944"><ele>81.66666666666666</ele><time>2026-03-28T09:27:23Z</time></trkpt><trkpt lat="45.33335740009899" lon="10.674588394456029"><ele>82.0</ele><time>2026-03-28T09:27:24Z</time></trkpt><trkpt lat="45.333359177986864" lon="10.674713149771442"><ele>82.0</ele><time>2026-03-28T09:27:25Z</time></trkpt><trkpt lat="45.33341532578768" lon="10.674847766589146"><ele>82.0</ele><time>2026-03-28T09:27:26Z</time></trkpt><trkpt lat="45.333470388662555" lon="10.674992489981044"><ele>82.0</ele><time>2026-03-28T09:27:27Z</time></trkpt><trkpt lat="45.33352981121981" lon="10.675139928637583"><ele>82.0</ele><time>2026-03-28T09:27:28Z</time></trkpt><trkpt lat="45.33357731918863" lon="10.675250441883056"><ele>82.0</ele><time>2026-03-28T09:27:29Z</time></trkpt><trkpt lat="45.333615197795865" lon="10.675344193286817"><ele>82.0</ele><time>2026-03-28T09:27:30Z</time></trkpt><trkpt lat="45.33366241655455" lon="10.675420648469544"><ele>82.0</ele><time>2026-03-28T09:27:31Z</time></trkpt><trkpt lat="45.333715611417375" lon="10.67549460229354"><ele>82.0</ele><time>2026-03-28T09:27:32Z</time></trkpt><trkpt lat="45.333777048881096" lon="10.675537649607596"><ele>82.0</ele><time>2026-03-28T09:27:33Z</time></trkpt><trkpt lat="45.33384012761457" lon="10.675555448314183"><ele>82.0</ele><time>2026-03-28T09:27:34Z</time></trkpt><trkpt lat="45.33391069682803" lon="10.675669235055578"><ele>82.0</ele><time>2026-03-28T09:27:36Z</time></trkpt><trkpt lat="45.333881293069304" lon="10.675776410044412"><ele>82.0</ele><time>2026-03-28T09:27:37Z</time></trkpt><trkpt lat="45.33388283586075" lon="10.675915186660793"><ele>82.0</ele><time>2026-03-28T09:27:38Z</time></trkpt><trkpt lat="45.333873256255565" lon="10.676082644288403"><ele>82.0</ele><time>2026-03-28T09:27:39Z</time></trkpt><trkpt lat="45.333878023508085" lon="10.676248526019002"><ele>82.0</ele><time>2026-03-28T09:27:40Z</time></trkpt><trkpt lat="45.3338624597567" lon="10.676386209754254"><ele>82.0</ele><time>2026-03-28T09:27:41Z</time></trkpt><trkpt lat="45.33385863123546" lon="10.67651017391625"><ele>81.6</ele><time>2026-03-28T09:27:42Z</time></trkpt><trkpt lat="45.33385444165132" lon="10.676645828977303"><ele>81.19999999999999</ele><time>2026-03-28T09:27:43Z</time></trkpt><trkpt lat="45.33394607472964" lon="10.676777635862152"><ele>80.8</ele><time>2026-03-28T09:27:44Z</time></trkpt><trkpt lat="45.33396033356226" lon="10.676892226074498"><ele>80.4</ele><time>2026-03-28T09:27:45Z</time></trkpt><trkpt lat="45.333976792585666" lon="10.677021070747374"><ele>80.0</ele><time>2026-03-28T09:27:46Z</time></trkpt><trkpt lat="45.33399968372015" lon="10.677152465545202"><ele>81.33333333333334</ele><time>2026-03-28T09:27:47Z</time></trkpt><trkpt lat="45.33401904150084" lon="10.677273765718597"><ele>82.66666666666667</ele><time>2026-03-28T09:27:48Z</time></trkpt><trkpt lat="45.33404334114562" lon="10.67739203879045"><ele>84.0</ele><time>2026-03-28T09:27:49Z</time></trkpt><trkpt lat="45.33407505730494" lon="10.677494530366586"><ele>85.33333333333333</ele><time>2026-03-28T09:27:50Z</time></trkpt><trkpt lat="45.334109671410665" lon="10.677605782190358"><ele>86.66666666666666</ele><time>2026-03-28T09:27:51Z</time></trkpt><trkpt lat="45.334154987125714" lon="10.677727189975583"><ele>88.0</ele><time>2026-03-28T09:27:52Z</time></trkpt><trkpt lat="45.33419421943253" lon="10.677829226894701"><ele>88.28571428571429</ele><time>2026-03-28T09:27:53Z</time></trkpt><trkpt lat="45.33423498822684" lon="10.677942402268581"><ele>88.57142857142857</ele><time>2026-03-28T09:27:54Z</time></trkpt><trkpt lat="45.334263642038636" lon="10.67805454275485"><ele>88.85714285714286</ele><time>2026-03-28T09:27:55Z</time></trkpt><trkpt lat="45.33428481321061" lon="10.678149251595642"><ele>89.14285714285714</ele><time>2026-03-28T09:27:56Z</time></trkpt><trkpt lat="45.334312052873926" lon="10.678239480896615"><ele>89.42857142857143</ele><time>2026-03-28T09:27:57Z</time></trkpt><trkpt lat="45.33434697564418" lon="10.678326467074122"><ele>89.71428571428571</ele><time>2026-03-28T09:27:58Z</time></trkpt><trkpt lat="45.33438031638865" lon="10.67840346375985"><ele>90.0</ele><time>2026-03-28T09:27:59Z</time></trkpt><trkpt lat="45.334453693144326" lon="10.67853271950497"><ele>89.6</ele><time>2026-03-28T09:28:01Z</time></trkpt><trkpt lat="45.33455552227354" lon="10.678628861269143"><ele>89.2</ele><time>2026-03-28T09:28:03Z</time></trkpt><trkpt lat="45.334658410173695" lon="10.678691745654834"><ele>88.80000000000001</ele><time>2026-03-28T09:28:05Z</time></trkpt><trkpt lat="45.3347657325004" lon="10.678680315437196"><ele>88.4</ele><time>2026-03-28T09:28:07Z</time></trkpt><trkpt lat="45.33485559032393" lon="10.678614281744132"><ele>88.0</ele><time>2026-03-28T09:28:09Z</time></trkpt><trkpt lat="45.33495619433968" lon="10.678548035665475"><ele>89.25</ele><time>2026-03-28T09:28:11Z</time></trkpt><trkpt lat="45.33504770872282" lon="10.678445115044678"><ele>90.5</ele><time>2026-03-28T09:28:13Z</time></trkpt><trkpt lat="45.33516619420111" lon="10.678366529236184"><ele>91.75</ele><time>2026-03-28T09:28:15Z</time></trkpt><trkpt lat="45.33528631357358" lon="10.67833715483531"><ele>93.0</ele><time>2026-03-28T09:28:17Z</time></trkpt><trkpt lat="45.3354034922342" lon="10.678424904787018"><ele>93.0</ele><time>2026-03-28T09:28:19Z</time></trkpt><trkpt lat="45.33546016395721" lon="10.67849873896562"><ele>93.0</ele><time>2026-03-28T09:28:20Z</time></trkpt><trkpt lat="45.335512562962954" lon="10.678579384774679"><ele>93.0</ele><time>2026-03-28T09:28:21Z</time></trkpt><trkpt lat="45.335586517804174" lon="10.678734493993575"><ele>93.0</ele><time>2026-03-28T09:28:23Z</time></trkpt><trkpt lat="45.335656171665235" lon="10.678848758127929"><ele>93.0</ele><time>2026-03-28T09:28:24Z</time></trkpt><trkpt lat="45.33572698025742" lon="10.678960574747867"><ele>91.66666666666667</ele><time>2026-03-28T09:28:25Z</time></trkpt><trkpt lat="45.33578682680383" lon="10.679057024281772"><ele>90.33333333333333</ele><time>2026-03-28T09:28:26Z</time></trkpt><trkpt lat="45.33584490766112" lon="10.679157435474545"><ele>89.0</ele><time>2026-03-28T09:28:27Z</time></trkpt><trkpt lat="45.33589156612267" lon="10.679239088220578"><ele>87.66666666666666</ele><time>2026-03-28T09:28:28Z</time></trkpt><trkpt lat="45.33594727619491" lon="10.679332726027308"><ele>86.33333333333333</ele><time>2026-03-28T09:28:29Z</time></trkpt><trkpt lat="45.33601426065807" lon="10.679443400597972"><ele>85.0</ele><time>2026-03-28T09:28:30Z</time></trkpt><trkpt lat="45.33609316212076" lon="10.67956023480801"><ele>85.0</ele><time>2026-03-28T09:28:31Z</time></trkpt><trkpt lat="45.33616340920046" lon="10.67967480682224"><ele>85.0</ele><time>2026-03-28T09:28:32Z</time></trkpt><trkpt lat="45.33623068070405" lon="10.679776934913624"><ele>85.0</ele><time>2026-03-28T09:28:33Z</time></trkpt><trkpt lat="45.33630011642159" lon="10.679881631806339"><ele>85.0</ele><time>2026-03-28T09:28:34Z</time></trkpt><trkpt lat="45.336364153804354" lon="10.67997838856494"><ele>85.0</ele><time>2026-03-28T09:28:35Z</time></trkpt><trkpt lat="45.33642208164661" lon="10.68006455248387"><ele>85.0</ele><time>2026-03-28T09:28:36Z</time></trkpt><trkpt lat="45.336469024728615" lon="10.680148487997265"><ele>85.0</ele><time>2026-03-28T09:28:37Z</time></trkpt><trkpt lat="45.33652839934818" lon="10.680239981437262"><ele>85.0</ele><time>2026-03-28T09:28:39Z</time></trkpt><trkpt lat="45.33659727287845" lon="10.680342208673768"><ele>85.0</ele><time>2026-03-28T09:28:41Z</time></trkpt><trkpt lat="45.33664435436311" lon="10.680411493064547"><ele>85.0</ele><time>2026-03-28T09:28:42Z</time></trkpt><trkpt lat="45.336708839716344" lon="10.680509034047834"><ele>85.0</ele><time>2026-03-28T09:28:44Z</time></trkpt><trkpt lat="45.33679442993186" lon="10.680472463104428"><ele>85.0</ele><time>2026-03-28T09:28:46Z</time></trkpt><trkpt lat="45.33684616386489" lon="10.68038894906416"><ele>85.0</ele><time>2026-03-28T09:28:47Z</time></trkpt><trkpt lat="45.337001362716975" lon="10.68015359450462"><ele>85.0</ele><time>2026-03-28T09:28:49Z</time></trkpt><trkpt lat="45.33709527914272" lon="10.680023037417493"><ele>85.0</ele><time>2026-03-28T09:28:50Z</time></trkpt><trkpt lat="45.337212733050265" lon="10.679897335203698"><ele>85.75</ele><time>2026-03-28T09:28:51Z</time></trkpt><trkpt lat="45.33731318939834" lon="10.679741369409152"><ele>86.5</ele><time>2026-03-28T09:28:52Z</time></trkpt><trkpt lat="45.3374166603798" lon="10.679598529146284"><ele>87.25</ele><time>2026-03-28T09:28:53Z</time></trkpt><trkpt lat="45.33751622083193" lon="10.679472011012116"><ele>88.0</ele><time>2026-03-28T09:28:54Z</time></trkpt><trkpt lat="45.33761138790783" lon="10.679358211893035"><ele>88.0</ele><time>2026-03-28T09:28:55Z</time></trkpt><trkpt lat="45.33771498250982" lon="10.679240782102012"><ele>88.0</ele><time>2026-03-28T09:28:56Z</time></trkpt><trkpt lat="45.33783075618519" lon="10.679127493216072"><ele>88.0</ele><time>2026-03-28T09:28:57Z</time></trkpt><trkpt lat="45.33794548623887" lon="10.679025969270151"><ele>88.0</ele><time>2026-03-28T09:28:58Z</time></trkpt><trkpt lat="45.33804763771935" lon="10.678935131376484"><ele>88.0</ele><time>2026-03-28T09:28:59Z</time></trkpt><trkpt lat="45.33813692329845" lon="10.678852393741106"><ele>88.0</ele><time>2026-03-28T09:29:00Z</time></trkpt><trkpt lat="45.33821767488483" lon="10.678773351714941"><ele>88.0</ele><time>2026-03-28T09:29:01Z</time></trkpt><trkpt lat="45.338294223590005" lon="10.678701443536944"><ele>88.0</ele><time>2026-03-28T09:29:02Z</time></trkpt><trkpt lat="45.33836062899374" lon="10.678632680646475"><ele>88.0</ele><time>2026-03-28T09:29:03Z</time></trkpt><trkpt lat="45.33841579152664" lon="10.678575178239484"><ele>88.0</ele><time>2026-03-28T09:29:04Z</time></trkpt><trkpt lat="45.338501449147536" lon="10.67850331439388"><ele>88.0</ele><time>2026-03-28T09:29:06Z</time></trkpt><trkpt lat="45.33862434179405" lon="10.678768281238487"><ele>88.0</ele><time>2026-03-28T09:29:10Z</time></trkpt><trkpt lat="45.33867131092652" lon="10.678915917571098"><ele>88.0</ele><time>2026-03-28T09:29:11Z</time></trkpt><trkpt lat="45.33872469347588" lon="10.67903867972565"><ele>88.0</ele><time>2026-03-28T09:29:12Z</time></trkpt><trkpt lat="45.33878564449566" lon="10.679159081574154"><ele>88.0</ele><time>2026-03-28T09:29:13Z</time></trkpt><trkpt lat="45.338839460289236" lon="10.679271316381111"><ele>88.0</ele><time>2026-03-28T09:29:14Z</time></trkpt><trkpt lat="45.33889155867652" lon="10.679385417363955"><ele>88.0</ele><time>2026-03-28T09:29:15Z</time></trkpt><trkpt lat="45.33894170288319" lon="10.67948894740105"><ele>88.0</ele><time>2026-03-28T09:29:16Z</time></trkpt><trkpt lat="45.33899901156179" lon="10.679612285347556"><ele>88.0</ele><time>2026-03-28T09:29:17Z</time></trkpt><trkpt lat="45.33904497214705" lon="10.679719830688995"><ele>88.4</ele><time>2026-03-28T09:29:18Z</time></trkpt><trkpt lat="45.33908587915375" lon="10.679833953775027"><ele>88.80000000000001</ele><time>2026-03-28T09:29:19Z</time></trkpt><trkpt lat="45.33912328807453" lon="10.679938016700955"><ele>89.2</ele><time>2026-03-28T09:29:20Z</time></trkpt><trkpt lat="45.33917041389705" lon="10.680059241020016"><ele>89.6</ele><time>2026-03-28T09:29:21Z</time></trkpt><trkpt lat="45.339231705896076" lon="10.680199006203177"><ele>90.0</ele><time>2026-03-28T09:29:22Z</time></trkpt><trkpt lat="45.33927756041117" lon="10.680324601314808"><ele>90.0</ele><time>2026-03-28T09:29:23Z</time></trkpt><trkpt lat="45.339323545943095" lon="10.680450904897764"><ele>90.0</ele><time>2026-03-28T09:29:24Z</time></trkpt><trkpt lat="45.339371985230585" lon="10.680576559898542"><ele>90.0</ele><time>2026-03-28T09:29:25Z</time></trkpt><trkpt lat="45.33942998700338" lon="10.68071443168074"><ele>90.0</ele><time>2026-03-28T09:29:26Z</time></trkpt><trkpt lat="45.33948092728953" lon="10.680838003253987"><ele>90.0</ele><time>2026-03-28T09:29:27Z</time></trkpt><trkpt lat="45.33953381879894" lon="10.680961403321863"><ele>90.2</ele><time>2026-03-28T09:29:28Z</time></trkpt><trkpt lat="45.339594338408155" lon="10.681099931669376"><ele>90.4</ele><time>2026-03-28T09:29:29Z</time></trkpt><trkpt lat="45.33965343529968" lon="10.681238822069878"><ele>90.6</ele><time>2026-03-28T09:29:30Z</time></trkpt><trkpt lat="45.33970877799181" lon="10.681366775895707"><ele>90.8</ele><time>2026-03-28T09:29:31Z</time></trkpt><trkpt lat="45.33977008086639" lon="10.681499324248502"><ele>91.0</ele><time>2026-03-28T09:29:32Z</time></trkpt><trkpt lat="45.33982130702537" lon="10.681622317871332"><ele>91.0</ele><time>2026-03-28T09:29:33Z</time></trkpt><trkpt lat="45.33986785506403" lon="10.681740589916222"><ele>91.0</ele><time>2026-03-28T09:29:34Z</time></trkpt><trkpt lat="45.33990668314958" lon="10.681841620562855"><ele>91.0</ele><time>2026-03-28T09:29:35Z</time></trkpt><trkpt lat="45.33994072513139" lon="10.681946055994482"><ele>91.0</ele><time>2026-03-28T09:29:36Z</time></trkpt><trkpt lat="45.33996336197632" lon="10.682046600170226"><ele>91.0</ele><time>2026-03-28T09:29:37Z</time></trkpt><trkpt lat="45.33997637439164" lon="10.682174935006387"><ele>91.0</ele><time>2026-03-28T09:29:38Z</time></trkpt><trkpt lat="45.33996258266749" lon="10.682315439182956"><ele>91.0</ele><time>2026-03-28T09:29:39Z</time></trkpt><trkpt lat="45.33995237922301" lon="10.682454891268046"><ele>91.0</ele><time>2026-03-28T09:29:40Z</time></trkpt><trkpt lat="45.339954358229406" lon="10.682572371390872"><ele>91.0</ele><time>2026-03-28T09:29:41Z</time></trkpt><trkpt lat="45.33997480771701" lon="10.682711115008184"><ele>91.0</ele><time>2026-03-28T09:29:42Z</time></trkpt><trkpt lat="45.339995308685694" lon="10.682809099130232"><ele>91.0</ele><time>2026-03-28T09:29:43Z</time></trkpt><trkpt lat="45.340035495912275" lon="10.682945718405014"><ele>91.19999999999999</ele><time>2026-03-28T09:29:44Z</time></trkpt><trkpt lat="45.34008213321722" lon="10.683070062129495"><ele>91.39999999999999</ele><time>2026-03-28T09:29:45Z</time></trkpt><trkpt lat="45.34013278985561" lon="10.683196398240165"><ele>91.6</ele><time>2026-03-28T09:29:46Z</time></trkpt><trkpt lat="45.340179501701506" lon="10.683336773113247"><ele>91.8</ele><time>2026-03-28T09:29:47Z</time></trkpt><trkpt lat="45.340220224260236" lon="10.683469816297345"><ele>92.0</ele><time>2026-03-28T09:29:48Z</time></trkpt><trkpt lat="45.34027049100282" lon="10.683614858042084"><ele>91.6</ele><time>2026-03-28T09:29:49Z</time></trkpt><trkpt lat="45.3403074675323" lon="10.683737615850355"><ele>91.19999999999999</ele><time>2026-03-28T09:29:50Z</time></trkpt><trkpt lat="45.34034489222822" lon="10.683858523635088"><ele>90.8</ele><time>2026-03-28T09:29:51Z</time></trkpt><trkpt lat="45.34038404371737" lon="10.683986338492675"><ele>90.4</ele><time>2026-03-28T09:29:52Z</time></trkpt><trkpt lat="45.34041838620067" lon="10.684107975284263"><ele>90.0</ele><time>2026-03-28T09:29:53Z</time></trkpt><trkpt lat="45.3404545447097" lon="10.684227646732547"><ele>90.0</ele><time>2026-03-28T09:29:54Z</time></trkpt><trkpt lat="45.340485695248695" lon="10.684348244771265"><ele>90.0</ele><time>2026-03-28T09:29:55Z</time></trkpt><trkpt lat="45.34051209232142" lon="10.684485164990868"><ele>90.0</ele><time>2026-03-28T09:29:56Z</time></trkpt><trkpt lat="45.340529658506185" lon="10.684617523128273"><ele>90.0</ele><time>2026-03-28T09:29:57Z</time></trkpt><trkpt lat="45.340542678871884" lon="10.684757328265881"><ele>90.0</ele><time>2026-03-28T09:29:58Z</time></trkpt><trkpt lat="45.34056335311912" lon="10.684912543393645"><ele>90.2</ele><time>2026-03-28T09:29:59Z</time></trkpt><trkpt lat="45.34058389130844" lon="10.685056547441006"><ele>90.4</ele><time>2026-03-28T09:30:00Z</time></trkpt><trkpt lat="45.340612536683665" lon="10.685207686889957"><ele>90.6</ele><time>2026-03-28T09:30:01Z</time></trkpt><trkpt lat="45.340636406867596" lon="10.685353717879773"><ele>90.8</ele><time>2026-03-28T09:30:02Z</time></trkpt><trkpt lat="45.340667522242256" lon="10.685499252804743"><ele>91.0</ele><time>2026-03-28T09:30:03Z</time></trkpt><trkpt lat="45.34068920154407" lon="10.685640805068605"><ele>91.0</ele><time>2026-03-28T09:30:04Z</time></trkpt><trkpt lat="45.340719279774284" lon="10.685792603014914"><ele>91.0</ele><time>2026-03-28T09:30:05Z</time></trkpt><trkpt lat="45.34074497747748" lon="10.685921212754371"><ele>91.0</ele><time>2026-03-28T09:30:06Z</time></trkpt><trkpt lat="45.340775690243646" lon="10.686051172447149"><ele>91.0</ele><time>2026-03-28T09:30:07Z</time></trkpt><trkpt lat="45.340803556971565" lon="10.686181054075641"><ele>91.0</ele><time>2026-03-28T09:30:08Z</time></trkpt><trkpt lat="45.34082919712977" lon="10.686325801315247"><ele>91.0</ele><time>2026-03-28T09:30:09Z</time></trkpt><trkpt lat="45.34087042244667" lon="10.686476941140917"><ele>91.0</ele><time>2026-03-28T09:30:10Z</time></trkpt><trkpt lat="45.34090630757038" lon="10.686628293925903"><ele>91.0</ele><time>2026-03-28T09:30:11Z</time></trkpt><trkpt lat="45.34093230469077" lon="10.686779683904101"><ele>91.0</ele><time>2026-03-28T09:30:12Z</time></trkpt><trkpt lat="45.34094813414308" lon="10.686936165737492"><ele>91.0</ele><time>2026-03-28T09:30:13Z</time></trkpt><trkpt lat="45.340950711051036" lon="10.687055916688799"><ele>91.0</ele><time>2026-03-28T09:30:14Z</time></trkpt><trkpt lat="45.34093416991637" lon="10.687190897686014"><ele>91.0</ele><time>2026-03-28T09:30:15Z</time></trkpt><trkpt lat="45.34093985555756" lon="10.68733002791391"><ele>91.0</ele><time>2026-03-28T09:30:16Z</time></trkpt><trkpt lat="45.34097064678695" lon="10.687451679229211"><ele>91.0</ele><time>2026-03-28T09:30:17Z</time></trkpt><trkpt lat="45.34099971464895" lon="10.687599824155448"><ele>91.0</ele><time>2026-03-28T09:30:18Z</time></trkpt><trkpt lat="45.341029445502016" lon="10.687745448225382"><ele>91.0</ele><time>2026-03-28T09:30:19Z</time></trkpt><trkpt lat="45.34105719836439" lon="10.687881549620606"><ele>91.0</ele><time>2026-03-28T09:30:20Z</time></trkpt><trkpt lat="45.34108494176368" lon="10.688032194525553"><ele>91.0</ele><time>2026-03-28T09:30:21Z</time></trkpt><trkpt lat="45.34111188526084" lon="10.688176299335623"><ele>91.0</ele><time>2026-03-28T09:30:22Z</time></trkpt><trkpt lat="45.341139188749246" lon="10.688313043712945"><ele>91.0</ele><time>2026-03-28T09:30:23Z</time></trkpt><trkpt lat="45.34116299108568" lon="10.688458448939716"><ele>91.25</ele><time>2026-03-28T09:30:24Z</time></trkpt><trkpt lat="45.3411960121351" lon="10.688598652521923"><ele>91.5</ele><time>2026-03-28T09:30:25Z</time></trkpt><trkpt lat="45.34123303900333" lon="10.688753411487605"><ele>91.75</ele><time>2026-03-28T09:30:26Z</time></trkpt><trkpt lat="45.341275129604334" lon="10.68891125334087"><ele>92.0</ele><time>2026-03-28T09:30:27Z</time></trkpt><trkpt lat="45.341312215139965" lon="10.689063737413091"><ele>92.0</ele><time>2026-03-28T09:30:28Z</time></trkpt><trkpt lat="45.34135399827225" lon="10.689220310078603"><ele>92.0</ele><time>2026-03-28T09:30:29Z</time></trkpt><trkpt lat="45.34139464058268" lon="10.689377056639854"><ele>92.0</ele><time>2026-03-28T09:30:30Z</time></trkpt><trkpt lat="45.34143194751626" lon="10.689516550286928"><ele>92.0</ele><time>2026-03-28T09:30:31Z</time></trkpt><trkpt lat="45.341471890928574" lon="10.689652344835743"><ele>92.0</ele><time>2026-03-28T09:30:32Z</time></trkpt><trkpt lat="45.34150702213603" lon="10.68977425263998"><ele>92.0</ele><time>2026-03-28T09:30:33Z</time></trkpt><trkpt lat="45.341551586250304" lon="10.689897801749146"><ele>92.0</ele><time>2026-03-28T09:30:34Z</time></trkpt><trkpt lat="45.34160800555826" lon="10.6900245751923"><ele>92.0</ele><time>2026-03-28T09:30:35Z</time></trkpt><trkpt lat="45.34166192731052" lon="10.690167228800618"><ele>92.0</ele><time>2026-03-28T09:30:36Z</time></trkpt><trkpt lat="45.34170293152463" lon="10.690324531197831"><ele>92.0</ele><time>2026-03-28T09:30:37Z</time></trkpt><trkpt lat="45.341766634485" lon="10.690487951964894"><ele>92.0</ele><time>2026-03-28T09:30:38Z</time></trkpt><trkpt lat="45.34182657693826" lon="10.690662924978634"><ele>92.0</ele><time>2026-03-28T09:30:39Z</time></trkpt><trkpt lat="45.3418964369483" lon="10.69085265058092"><ele>92.0</ele><time>2026-03-28T09:30:40Z</time></trkpt><trkpt lat="45.34195448845049" lon="10.691031292766585"><ele>92.0</ele><time>2026-03-28T09:30:41Z</time></trkpt><trkpt lat="45.341961243950195" lon="10.691218989655981"><ele>92.25</ele><time>2026-03-28T09:30:42Z</time></trkpt><trkpt lat="45.34196848365538" lon="10.691410504257657"><ele>92.5</ele><time>2026-03-28T09:30:43Z</time></trkpt><trkpt lat="45.34197067216231" lon="10.691602080526355"><ele>92.75</ele><time>2026-03-28T09:30:44Z</time></trkpt><trkpt lat="45.34197134988313" lon="10.691796059361636"><ele>93.0</ele><time>2026-03-28T09:30:45Z</time></trkpt><trkpt lat="45.34198193014759" lon="10.691971222450459"><ele>93.25</ele><time>2026-03-28T09:30:46Z</time></trkpt><trkpt lat="45.341987972748605" lon="10.692156665664612"><ele>93.5</ele><time>2026-03-28T09:30:47Z</time></trkpt><trkpt lat="45.34200042285569" lon="10.692316047168484"><ele>93.75</ele><time>2026-03-28T09:30:48Z</time></trkpt><trkpt lat="45.342017293848954" lon="10.692477999268382"><ele>94.0</ele><time>2026-03-28T09:30:49Z</time></trkpt><trkpt lat="45.342036851861124" lon="10.692643421448038"><ele>94.25</ele><time>2026-03-28T09:30:50Z</time></trkpt><trkpt lat="45.34206850087613" lon="10.692807555656177"><ele>94.5</ele><time>2026-03-28T09:30:51Z</time></trkpt><trkpt lat="45.34211109841983" lon="10.692954779895013"><ele>94.75</ele><time>2026-03-28T09:30:52Z</time></trkpt><trkpt lat="45.34215495148424" lon="10.693111825956384"><ele>95.0</ele><time>2026-03-28T09:30:53Z</time></trkpt><trkpt lat="45.342202287749465" lon="10.693282733588614"><ele>96.5</ele><time>2026-03-28T09:30:54Z</time></trkpt><trkpt lat="45.34226898335477" lon="10.693455164708203"><ele>98.0</ele><time>2026-03-28T09:30:55Z</time></trkpt><trkpt lat="45.34230369550067" lon="10.693630971249174"><ele>99.5</ele><time>2026-03-28T09:30:56Z</time></trkpt><trkpt lat="45.34234361440253" lon="10.693791254273199"><ele>101.0</ele><time>2026-03-28T09:30:57Z</time></trkpt><trkpt lat="45.34239076380091" lon="10.693940493478962"><ele>101.0</ele><time>2026-03-28T09:30:58Z</time></trkpt><trkpt lat="45.342454534869454" lon="10.694079818157824"><ele>101.0</ele><time>2026-03-28T09:30:59Z</time></trkpt><trkpt lat="45.34249294864542" lon="10.694218763719942"><ele>101.0</ele><time>2026-03-28T09:31:00Z</time></trkpt><trkpt lat="45.34253382220626" lon="10.694353359258908"><ele>101.0</ele><time>2026-03-28T09:31:01Z</time></trkpt><trkpt lat="45.342573952001125" lon="10.694501651600433"><ele>101.0</ele><time>2026-03-28T09:31:02Z</time></trkpt><trkpt lat="45.342604582466315" lon="10.694671306047217"><ele>100.75</ele><time>2026-03-28T09:31:03Z</time></trkpt><trkpt lat="45.34263321084125" lon="10.694865780901564"><ele>100.5</ele><time>2026-03-28T09:31:04Z</time></trkpt><trkpt lat="45.34267148195402" lon="10.695077575946653"><ele>100.25</ele><time>2026-03-28T09:31:05Z</time></trkpt><trkpt lat="45.342708861350026" lon="10.69527867710159"><ele>100.0</ele><time>2026-03-28T09:31:06Z</time></trkpt><trkpt lat="45.3427368105292" lon="10.69547061327347"><ele>99.75</ele><time>2026-03-28T09:31:07Z</time></trkpt><trkpt lat="45.34276599458612" lon="10.695659699203272"><ele>99.5</ele><time>2026-03-28T09:31:08Z</time></trkpt><trkpt lat="45.34278870028371" lon="10.695839200454191"><ele>99.25</ele><time>2026-03-28T09:31:09Z</time></trkpt><trkpt lat="45.34280539851241" lon="10.696003781650132"><ele>99.0</ele><time>2026-03-28T09:31:10Z</time></trkpt><trkpt lat="45.34281864915942" lon="10.69614845088199"><ele>98.80000000000001</ele><time>2026-03-28T09:31:11Z</time></trkpt><trkpt lat="45.34283313433937" lon="10.696280994846214"><ele>98.60000000000001</ele><time>2026-03-28T09:31:12Z</time></trkpt><trkpt lat="45.34285404892333" lon="10.696409015522978"><ele>98.4</ele><time>2026-03-28T09:31:13Z</time></trkpt><trkpt lat="45.34288188672854" lon="10.696550994739763"><ele>98.2</ele><time>2026-03-28T09:31:14Z</time></trkpt><trkpt lat="45.342915222164" lon="10.696709110263722"><ele>98.0</ele><time>2026-03-28T09:31:15Z</time></trkpt><trkpt lat="45.342966182195894" lon="10.696889457962499"><ele>98.0</ele><time>2026-03-28T09:31:16Z</time></trkpt><trkpt lat="45.34303177343531" lon="10.697084351477042"><ele>98.0</ele><time>2026-03-28T09:31:17Z</time></trkpt><trkpt lat="45.343099535979974" lon="10.697275151605238"><ele>98.0</ele><time>2026-03-28T09:31:18Z</time></trkpt><trkpt lat="45.34316516768307" lon="10.697458998108873"><ele>98.0</ele><time>2026-03-28T09:31:19Z</time></trkpt><trkpt lat="45.34323319613545" lon="10.697657728532961"><ele>98.25</ele><time>2026-03-28T09:31:20Z</time></trkpt><trkpt lat="45.34329426567568" lon="10.697851056719342"><ele>98.5</ele><time>2026-03-28T09:31:21Z</time></trkpt><trkpt lat="45.34335133263199" lon="10.698024033417427"><ele>98.75</ele><time>2026-03-28T09:31:22Z</time></trkpt><trkpt lat="45.34339739688999" lon="10.698171364569745"><ele>99.0</ele><time>2026-03-28T09:31:23Z</time></trkpt><trkpt lat="45.34345433012792" lon="10.698316564222656"><ele>99.0</ele><time>2026-03-28T09:31:24Z</time></trkpt><trkpt lat="45.343535423062676" lon="10.698481303775278"><ele>99.0</ele><time>2026-03-28T09:31:25Z</time></trkpt><trkpt lat="45.343634602771274" lon="10.698648616460456"><ele>99.0</ele><time>2026-03-28T09:31:26Z</time></trkpt><trkpt lat="45.34373606820473" lon="10.698804403950602"><ele>99.0</ele><time>2026-03-28T09:31:27Z</time></trkpt><trkpt lat="45.343828619726395" lon="10.698954394682444"><ele>99.0</ele><time>2026-03-28T09:31:28Z</time></trkpt><trkpt lat="45.343916067610564" lon="10.699125828793537"><ele>99.0</ele><time>2026-03-28T09:31:29Z</time></trkpt><trkpt lat="45.34399071641388" lon="10.699293750203239"><ele>99.0</ele><time>2026-03-28T09:31:30Z</time></trkpt><trkpt lat="45.34406925603412" lon="10.699478991195635"><ele>99.0</ele><time>2026-03-28T09:31:31Z</time></trkpt><trkpt lat="45.34414601241565" lon="10.69967664385547"><ele>98.25</ele><time>2026-03-28T09:31:32Z</time></trkpt><trkpt lat="45.34422027176482" lon="10.69987199976014"><ele>97.5</ele><time>2026-03-28T09:31:33Z</time></trkpt><trkpt lat="45.3442914716378" lon="10.700054597036981"><ele>96.75</ele><time>2026-03-28T09:31:34Z</time></trkpt><trkpt lat="45.344363600138266" lon="10.700228625724376"><ele>96.0</ele><time>2026-03-28T09:31:35Z</time></trkpt><trkpt lat="45.34442796545916" lon="10.700395069066646"><ele>96.0</ele><time>2026-03-28T09:31:36Z</time></trkpt><trkpt lat="45.344490559578496" lon="10.700555800110644"><ele>96.0</ele><time>2026-03-28T09:31:37Z</time></trkpt><trkpt lat="45.34454901332842" lon="10.70070458773882"><ele>96.0</ele><time>2026-03-28T09:31:38Z</time></trkpt><trkpt lat="45.34460589025661" lon="10.70085154643114"><ele>96.0</ele><time>2026-03-28T09:31:39Z</time></trkpt><trkpt lat="45.34465823177629" lon="10.700983004543943"><ele>96.0</ele><time>2026-03-28T09:31:40Z</time></trkpt><trkpt lat="45.34470624638458" lon="10.701093537416275"><ele>96.0</ele><time>2026-03-28T09:31:41Z</time></trkpt><trkpt lat="45.34474455284363" lon="10.70118277342192"><ele>96.0</ele><time>2026-03-28T09:31:42Z</time></trkpt><trkpt lat="45.34479376771881" lon="10.70131460685115"><ele>96.0</ele><time>2026-03-28T09:31:44Z</time></trkpt><trkpt lat="45.344823921258495" lon="10.701405168784001"><ele>96.0</ele><time>2026-03-28T09:31:46Z</time></trkpt><trkpt lat="45.344887269597294" lon="10.701468388873495"><ele>96.0</ele><time>2026-03-28T09:31:49Z</time></trkpt><trkpt lat="45.344977388022265" lon="10.701328312827128"><ele>96.0</ele><time>2026-03-28T09:31:51Z</time></trkpt><trkpt lat="45.34503113693233" lon="10.70119396255914"><ele>96.0</ele><time>2026-03-28T09:31:52Z</time></trkpt><trkpt lat="45.34509445721486" lon="10.701059831879993"><ele>96.0</ele><time>2026-03-28T09:31:53Z</time></trkpt><trkpt lat="45.345160327871" lon="10.700905384364008"><ele>96.0</ele><time>2026-03-28T09:31:54Z</time></trkpt><trkpt lat="45.3452291653197" lon="10.700737326895226"><ele>96.25</ele><time>2026-03-28T09:31:55Z</time></trkpt><trkpt lat="45.345302957114725" lon="10.700569046873794"><ele>96.5</ele><time>2026-03-28T09:31:56Z</time></trkpt><trkpt lat="45.345379935963" lon="10.700385918985644"><ele>96.75</ele><time>2026-03-28T09:31:57Z</time></trkpt><trkpt lat="45.34545712517169" lon="10.700215611145065"><ele>97.0</ele><time>2026-03-28T09:31:58Z</time></trkpt><trkpt lat="45.34552818726412" lon="10.700082217403214"><ele>100.0</ele><time>2026-03-28T09:31:59Z</time></trkpt><trkpt lat="45.34560513058356" lon="10.699953438411713"><ele>103.0</ele><time>2026-03-28T09:32:00Z</time></trkpt><trkpt lat="45.34568609113785" lon="10.699831894480154"><ele>106.0</ele><time>2026-03-28T09:32:01Z</time></trkpt><trkpt lat="45.345765269015935" lon="10.699707013405906"><ele>109.0</ele><time>2026-03-28T09:32:02Z</time></trkpt><trkpt lat="45.34584948866471" lon="10.699567680388798"><ele>109.5</ele><time>2026-03-28T09:32:03Z</time></trkpt><trkpt lat="45.34593997363958" lon="10.699415269680413"><ele>110.0</ele><time>2026-03-28T09:32:04Z</time></trkpt><trkpt lat="45.34602597827774" lon="10.699262914675506"><ele>110.5</ele><time>2026-03-28T09:32:05Z</time></trkpt><trkpt lat="45.34610082847159" lon="10.69910643352643"><ele>111.0</ele><time>2026-03-28T09:32:06Z</time></trkpt><trkpt lat="45.34616993357865" lon="10.698921444605253"><ele>111.0</ele><time>2026-03-28T09:32:07Z</time></trkpt><trkpt lat="45.34623223362836" lon="10.698737199317456"><ele>111.0</ele><time>2026-03-28T09:32:08Z</time></trkpt><trkpt lat="45.34627615473746" lon="10.698555965025967"><ele>111.0</ele><time>2026-03-28T09:32:09Z</time></trkpt><trkpt lat="45.34631721558371" lon="10.698373364473136"><ele>111.0</ele><time>2026-03-28T09:32:10Z</time></trkpt><trkpt lat="45.346373499608795" lon="10.698198333705404"><ele>108.66666666666666</ele><time>2026-03-28T09:32:11Z</time></trkpt><trkpt lat="45.34644160398222" lon="10.698018475376651"><ele>106.33333333333333</ele><time>2026-03-28T09:32:12Z</time></trkpt><trkpt lat="45.346519867073184" lon="10.697831414410446"><ele>104.0</ele><time>2026-03-28T09:32:13Z</time></trkpt><trkpt lat="45.34661281399393" lon="10.697653042308707"><ele>103.25</ele><time>2026-03-28T09:32:14Z</time></trkpt><trkpt lat="45.34670699589006" lon="10.697487423108402"><ele>102.5</ele><time>2026-03-28T09:32:15Z</time></trkpt><trkpt lat="45.346802462562046" lon="10.697326388007331"><ele>101.75</ele><time>2026-03-28T09:32:16Z</time></trkpt><trkpt lat="45.346890692660054" lon="10.697176278668646"><ele>101.0</ele><time>2026-03-28T09:32:17Z</time></trkpt><trkpt lat="45.34698465003758" lon="10.697027006554961"><ele>100.66666666666666</ele><time>2026-03-28T09:32:18Z</time></trkpt><trkpt lat="45.347095005065185" lon="10.696883906611951"><ele>100.33333333333334</ele><time>2026-03-28T09:32:19Z</time></trkpt><trkpt lat="45.347218888902134" lon="10.69676450745462"><ele>100.0</ele><time>2026-03-28T09:32:20Z</time></trkpt><trkpt lat="45.34737075734671" lon="10.696685317877648"><ele>99.75</ele><time>2026-03-28T09:32:21Z</time></trkpt><trkpt lat="45.347514690902166" lon="10.696589521658906"><ele>99.5</ele><time>2026-03-28T09:32:22Z</time></trkpt><trkpt lat="45.347653315230936" lon="10.696527656342983"><ele>99.25</ele><time>2026-03-28T09:32:23Z</time></trkpt><trkpt lat="45.34777637343134" lon="10.69644969685121"><ele>99.0</ele><time>2026-03-28T09:32:24Z</time></trkpt><trkpt lat="45.34787502550069" lon="10.696367259505712"><ele>99.0</ele><time>2026-03-28T09:32:25Z</time></trkpt><trkpt lat="45.34796615929651" lon="10.696286212701295"><ele>99.0</ele><time>2026-03-28T09:32:26Z</time></trkpt><trkpt lat="45.34804919652612" lon="10.696217412649665"><ele>99.0</ele><time>2026-03-28T09:32:27Z</time></trkpt><trkpt lat="45.34813882515442" lon="10.69616925778849"><ele>99.0</ele><time>2026-03-28T09:32:28Z</time></trkpt><trkpt lat="45.34824380886925" lon="10.696136678245296"><ele>99.0</ele><time>2026-03-28T09:32:29Z</time></trkpt><trkpt lat="45.348355956269266" lon="10.6961367713846"><ele>98.5</ele><time>2026-03-28T09:32:30Z</time></trkpt><trkpt lat="45.34848799167639" lon="10.69615120140788"><ele>98.0</ele><time>2026-03-28T09:32:31Z</time></trkpt><trkpt lat="45.348631942156565" lon="10.696161399519474"><ele>97.5</ele><time>2026-03-28T09:32:32Z</time></trkpt><trkpt lat="45.348776440465386" lon="10.696165663253907"><ele>97.0</ele><time>2026-03-28T09:32:33Z</time></trkpt><trkpt lat="45.348921534452366" lon="10.6961656696046"><ele>96.19999999999999</ele><time>2026-03-28T09:32:34Z</time></trkpt><trkpt lat="45.349047117733164" lon="10.696157094858947"><ele>95.4</ele><time>2026-03-28T09:32:35Z</time></trkpt><trkpt lat="45.3491621359606" lon="10.69615312454355"><ele>94.6</ele><time>2026-03-28T09:32:36Z</time></trkpt><trkpt lat="45.34926249190686" lon="10.69617335860534"><ele>93.80000000000001</ele><time>2026-03-28T09:32:37Z</time></trkpt><trkpt lat="45.3493514417936" lon="10.696209597718425"><ele>93.0</ele><time>2026-03-28T09:32:38Z</time></trkpt><trkpt lat="45.3494257462507" lon="10.696292082827476"><ele>93.0</ele><time>2026-03-28T09:32:39Z</time></trkpt><trkpt lat="45.349468705838646" lon="10.696413424543112"><ele>93.0</ele><time>2026-03-28T09:32:40Z</time></trkpt><trkpt lat="45.349489129679796" lon="10.696578981726564"><ele>93.0</ele><time>2026-03-28T09:32:41Z</time></trkpt><trkpt lat="45.34948358150296" lon="10.69675807222641"><ele>93.0</ele><time>2026-03-28T09:32:42Z</time></trkpt><trkpt lat="45.34947317206439" lon="10.696956298115241"><ele>93.66666666666667</ele><time>2026-03-28T09:32:43Z</time></trkpt><trkpt lat="45.34947608351583" lon="10.697180112631626"><ele>94.33333333333334</ele><time>2026-03-28T09:32:44Z</time></trkpt><trkpt lat="45.349486115760314" lon="10.697407085045624"><ele>95.0</ele><time>2026-03-28T09:32:45Z</time></trkpt><trkpt lat="45.34950607196394" lon="10.6976355366979"><ele>95.33333333333334</ele><time>2026-03-28T09:32:46Z</time></trkpt><trkpt lat="45.349532202634244" lon="10.697856843040798"><ele>95.66666666666667</ele><time>2026-03-28T09:32:47Z</time></trkpt><trkpt lat="45.349553015162414" lon="10.698076137493898"><ele>96.0</ele><time>2026-03-28T09:32:48Z</time></trkpt><trkpt lat="45.34956957426037" lon="10.698280337218593"><ele>96.0</ele><time>2026-03-28T09:32:49Z</time></trkpt><trkpt lat="45.34958296821105" lon="10.698485982189142"><ele>96.0</ele><time>2026-03-28T09:32:50Z</time></trkpt><trkpt lat="45.34959296371351" lon="10.698700459016816"><ele>96.0</ele><time>2026-03-28T09:32:51Z</time></trkpt><trkpt lat="45.34959793624378" lon="10.698912360866814"><ele>96.0</ele><time>2026-03-28T09:32:52Z</time></trkpt><trkpt lat="45.34960438952785" lon="10.699139295268735"><ele>96.25</ele><time>2026-03-28T09:32:53Z</time></trkpt><trkpt lat="45.34961120242617" lon="10.699337571785408"><ele>96.5</ele><time>2026-03-28T09:32:54Z</time></trkpt><trkpt lat="45.349618307800796" lon="10.699537492747098"><ele>96.75</ele><time>2026-03-28T09:32:55Z</time></trkpt><trkpt lat="45.349611708631535" lon="10.699740692848914"><ele>97.0</ele><time>2026-03-28T09:32:56Z</time></trkpt><trkpt lat="45.34960361757219" lon="10.69995172095462"><ele>97.0</ele><time>2026-03-28T09:32:57Z</time></trkpt><trkpt lat="45.34957657551831" lon="10.70016738976076"><ele>97.0</ele><time>2026-03-28T09:32:58Z</time></trkpt><trkpt lat="45.34954695738911" lon="10.70038227369266"><ele>97.0</ele><time>2026-03-28T09:32:59Z</time></trkpt><trkpt lat="45.34952478181693" lon="10.700618760190352"><ele>96.0</ele><time>2026-03-28T09:33:00Z</time></trkpt><trkpt lat="45.349505206456286" lon="10.700856575914138"><ele>95.0</ele><time>2026-03-28T09:33:01Z</time></trkpt><trkpt lat="45.34948247122401" lon="10.701072427815886"><ele>94.0</ele><time>2026-03-28T09:33:02Z</time></trkpt><trkpt lat="45.34945972847645" lon="10.701269357262529"><ele>93.75</ele><time>2026-03-28T09:33:03Z</time></trkpt><trkpt lat="45.3494392339365" lon="10.701455883339937"><ele>93.5</ele><time>2026-03-28T09:33:04Z</time></trkpt><trkpt lat="45.34943316267864" lon="10.701646215079013"><ele>93.25</ele><time>2026-03-28T09:33:05Z</time></trkpt><trkpt lat="45.34944029845072" lon="10.701864801088071"><ele>93.0</ele><time>2026-03-28T09:33:06Z</time></trkpt><trkpt lat="45.34946494035025" lon="10.70210439046573"><ele>92.33333333333333</ele><time>2026-03-28T09:33:07Z</time></trkpt><trkpt lat="45.349484654850215" lon="10.702355191139143"><ele>91.66666666666666</ele><time>2026-03-28T09:33:08Z</time></trkpt><trkpt lat="45.34949529639742" lon="10.702622210981101"><ele>91.0</ele><time>2026-03-28T09:33:09Z</time></trkpt><trkpt lat="45.349512684776215" lon="10.702904974697804"><ele>89.66666666666666</ele><time>2026-03-28T09:33:10Z</time></trkpt><trkpt lat="45.349531843434015" lon="10.703188802941586"><ele>88.33333333333333</ele><time>2026-03-28T09:33:11Z</time></trkpt><trkpt lat="45.3495475655162" lon="10.703446312025761"><ele>87.0</ele><time>2026-03-28T09:33:12Z</time></trkpt><trkpt lat="45.349563367454714" lon="10.70369285427382"><ele>86.0</ele><time>2026-03-28T09:33:13Z</time></trkpt><trkpt lat="45.34957039124485" lon="10.703946322565676"><ele>85.0</ele><time>2026-03-28T09:33:14Z</time></trkpt><trkpt lat="45.34953832309231" lon="10.70419153689606"><ele>84.0</ele><time>2026-03-28T09:33:15Z</time></trkpt><trkpt lat="45.34950070864592" lon="10.704418327806264"><ele>84.0</ele><time>2026-03-28T09:33:16Z</time></trkpt><trkpt lat="45.34946664000931" lon="10.70462470704287"><ele>84.0</ele><time>2026-03-28T09:33:17Z</time></trkpt><trkpt lat="45.349458338455094" lon="10.704835698158801"><ele>84.0</ele><time>2026-03-28T09:33:18Z</time></trkpt><trkpt lat="45.34946059027285" lon="10.70505127276415"><ele>84.0</ele><time>2026-03-28T09:33:19Z</time></trkpt><trkpt lat="45.34948998629472" lon="10.705254018230859"><ele>84.5</ele><time>2026-03-28T09:33:20Z</time></trkpt><trkpt lat="45.34953779511539" lon="10.705430501552605"><ele>85.0</ele><time>2026-03-28T09:33:21Z</time></trkpt><trkpt lat="45.34960799445608" lon="10.705603755795192"><ele>85.5</ele><time>2026-03-28T09:33:22Z</time></trkpt><trkpt lat="45.3497064429092" lon="10.705778192342628"><ele>86.0</ele><time>2026-03-28T09:33:23Z</time></trkpt><trkpt lat="45.349803048351944" lon="10.705950207080026"><ele>79.33333333333334</ele><time>2026-03-28T09:33:24Z</time></trkpt><trkpt lat="45.34990261812496" lon="10.706133436775431"><ele>72.66666666666667</ele><time>2026-03-28T09:33:25Z</time></trkpt><trkpt lat="45.35000377462776" lon="10.706329782217773"><ele>66.0</ele><time>2026-03-28T09:33:26Z</time></trkpt><trkpt lat="45.35010718162735" lon="10.706526426710548"><ele>66.0</ele><time>2026-03-28T09:33:27Z</time></trkpt><trkpt lat="45.35021240719132" lon="10.706731454398598"><ele>66.0</ele><time>2026-03-28T09:33:28Z</time></trkpt><trkpt lat="45.350303992589524" lon="10.70693465229209"><ele>66.0</ele><time>2026-03-28T09:33:29Z</time></trkpt><trkpt lat="45.35038627855945" lon="10.707145018441237"><ele>66.0</ele><time>2026-03-28T09:33:30Z</time></trkpt><trkpt lat="45.35046728808147" lon="10.707359213942375"><ele>66.0</ele><time>2026-03-28T09:33:31Z</time></trkpt><trkpt lat="45.35055099656976" lon="10.70757086495471"><ele>66.0</ele><time>2026-03-28T09:33:32Z</time></trkpt><trkpt lat="45.35063075767608" lon="10.707773308208186"><ele>67.66666666666667</ele><time>2026-03-28T09:33:33Z</time></trkpt><trkpt lat="45.35071467764023" lon="10.707972672256435"><ele>69.33333333333334</ele><time>2026-03-28T09:33:34Z</time></trkpt><trkpt lat="45.35079534358517" lon="10.708153667042408"><ele>71.0</ele><time>2026-03-28T09:33:35Z</time></trkpt><trkpt lat="45.350878743058686" lon="10.70834447601715"><ele>70.33333333333334</ele><time>2026-03-28T09:33:36Z</time></trkpt><trkpt lat="45.351010401391626" lon="10.708696539918636"><ele>69.66666666666667</ele><time>2026-03-28T09:33:38Z</time></trkpt><trkpt lat="45.35107040881231" lon="10.708875438027144"><ele>69.0</ele><time>2026-03-28T09:33:39Z</time></trkpt><trkpt lat="45.351129304974" lon="10.709068750864084"><ele>69.0</ele><time>2026-03-28T09:33:40Z</time></trkpt><trkpt lat="45.35119574956961" lon="10.709272788383867"><ele>69.0</ele><time>2026-03-28T09:33:41Z</time></trkpt><trkpt lat="45.351252895601135" lon="10.709454756376585"><ele>69.0</ele><time>2026-03-28T09:33:42Z</time></trkpt><trkpt lat="45.35130223351757" lon="10.709632574269282"><ele>69.0</ele><time>2026-03-28T09:33:43Z</time></trkpt><trkpt lat="45.351354259712096" lon="10.709821533082831"><ele>68.0</ele><time>2026-03-28T09:33:44Z</time></trkpt><trkpt lat="45.35141222254964" lon="10.710014599351855"><ele>67.0</ele><time>2026-03-28T09:33:45Z</time></trkpt><trkpt lat="45.351478977994624" lon="10.710217258772111"><ele>66.0</ele><time>2026-03-28T09:33:46Z</time></trkpt><trkpt lat="45.3515596856952" lon="10.710420718924032"><ele>66.0</ele><time>2026-03-28T09:33:47Z</time></trkpt><trkpt lat="45.351646255367875" lon="10.710615536829112"><ele>66.0</ele><time>2026-03-28T09:33:48Z</time></trkpt><trkpt lat="45.351745357818885" lon="10.710832111672072"><ele>66.0</ele><time>2026-03-28T09:33:49Z</time></trkpt><trkpt lat="45.35184943633256" lon="10.71103069967782"><ele>65.0</ele><time>2026-03-28T09:33:50Z</time></trkpt><trkpt lat="45.351962874074474" lon="10.71122348295425"><ele>64.0</ele><time>2026-03-28T09:33:51Z</time></trkpt><trkpt lat="45.35207162310281" lon="10.71140312697156"><ele>63.0</ele><time>2026-03-28T09:33:52Z</time></trkpt><trkpt lat="45.35218305173249" lon="10.711584915254251"><ele>64.0</ele><time>2026-03-28T09:33:53Z</time></trkpt><trkpt lat="45.35228865617188" lon="10.71174490387476"><ele>65.0</ele><time>2026-03-28T09:33:54Z</time></trkpt><trkpt lat="45.35237967984348" lon="10.711883570797351"><ele>66.0</ele><time>2026-03-28T09:33:55Z</time></trkpt><trkpt lat="45.35245691128764" lon="10.71200536571862"><ele>67.0</ele><time>2026-03-28T09:33:56Z</time></trkpt><trkpt lat="45.35251538840251" lon="10.712108673607698"><ele>67.0</ele><time>2026-03-28T09:33:57Z</time></trkpt><trkpt lat="45.3525667602995" lon="10.712208625405559"><ele>67.0</ele><time>2026-03-28T09:33:58Z</time></trkpt><trkpt lat="45.352613680224714" lon="10.712346809107816"><ele>67.0</ele><time>2026-03-28T09:33:59Z</time></trkpt><trkpt lat="45.35269765670279" lon="10.712492764502775"><ele>67.0</ele><time>2026-03-28T09:34:00Z</time></trkpt><trkpt lat="45.35278637407155" lon="10.712662561014108"><ele>65.33333333333333</ele><time>2026-03-28T09:34:01Z</time></trkpt><trkpt lat="45.35290677618465" lon="10.712861104275534"><ele>63.66666666666667</ele><time>2026-03-28T09:34:02Z</time></trkpt><trkpt lat="45.35302724889264" lon="10.713082102674806"><ele>62.0</ele><time>2026-03-28T09:34:03Z</time></trkpt><trkpt lat="45.35312527472627" lon="10.713269359191004"><ele>63.5</ele><time>2026-03-28T09:34:04Z</time></trkpt><trkpt lat="45.353214783359725" lon="10.713425272236526"><ele>65.0</ele><time>2026-03-28T09:34:05Z</time></trkpt><trkpt lat="45.35330058220281" lon="10.71356802491995"><ele>66.5</ele><time>2026-03-28T09:34:06Z</time></trkpt><trkpt lat="45.35338114995024" lon="10.713713991289955"><ele>68.0</ele><time>2026-03-28T09:34:07Z</time></trkpt><trkpt lat="45.353461185054826" lon="10.713854037524648"><ele>68.0</ele><time>2026-03-28T09:34:08Z</time></trkpt><trkpt lat="45.35354297024642" lon="10.713993978602087"><ele>68.0</ele><time>2026-03-28T09:34:09Z</time></trkpt><trkpt lat="45.35361053592082" lon="10.714140430841216"><ele>68.0</ele><time>2026-03-28T09:34:10Z</time></trkpt><trkpt lat="45.35366233774876" lon="10.714307766189815"><ele>68.0</ele><time>2026-03-28T09:34:11Z</time></trkpt><trkpt lat="45.35370337394906" lon="10.714496666832089"><ele>67.5</ele><time>2026-03-28T09:34:12Z</time></trkpt><trkpt lat="45.35372348786982" lon="10.714687117737869"><ele>67.0</ele><time>2026-03-28T09:34:13Z</time></trkpt><trkpt lat="45.35374272367109" lon="10.714883128496838"><ele>66.5</ele><time>2026-03-28T09:34:14Z</time></trkpt><trkpt lat="45.353768373881906" lon="10.715080223312578"><ele>66.0</ele><time>2026-03-28T09:34:15Z</time></trkpt><trkpt lat="45.3537736643286" lon="10.715289561798745"><ele>65.25</ele><time>2026-03-28T09:34:16Z</time></trkpt><trkpt lat="45.353800541724176" lon="10.715497811955858"><ele>64.5</ele><time>2026-03-28T09:34:17Z</time></trkpt><trkpt lat="45.35380042638447" lon="10.715704652718419"><ele>63.75</ele><time>2026-03-28T09:34:18Z</time></trkpt><trkpt lat="45.35377089164709" lon="10.715896091601742"><ele>63.0</ele><time>2026-03-28T09:34:19Z</time></trkpt><trkpt lat="45.35377347645271" lon="10.716099291757077"><ele>62.75</ele><time>2026-03-28T09:34:20Z</time></trkpt><trkpt lat="45.35374375719621" lon="10.716301517251242"><ele>62.5</ele><time>2026-03-28T09:34:21Z</time></trkpt><trkpt lat="45.35375311854798" lon="10.716508441563528"><ele>62.25</ele><time>2026-03-28T09:34:22Z</time></trkpt><trkpt lat="45.35375677248687" lon="10.716712780398788"><ele>62.0</ele><time>2026-03-28T09:34:23Z</time></trkpt><trkpt lat="45.35378334347223" lon="10.71691750177726"><ele>61.5</ele><time>2026-03-28T09:34:24Z</time></trkpt><trkpt lat="45.35382114709265" lon="10.717101695928676"><ele>61.0</ele><time>2026-03-28T09:34:25Z</time></trkpt><trkpt lat="45.35386607459381" lon="10.717268744932792"><ele>60.5</ele><time>2026-03-28T09:34:26Z</time></trkpt><trkpt lat="45.3539216702242" lon="10.71744686310732"><ele>60.0</ele><time>2026-03-28T09:34:27Z</time></trkpt><trkpt lat="45.35398373013342" lon="10.717632956090199"><ele>61.0</ele><time>2026-03-28T09:34:28Z</time></trkpt><trkpt lat="45.35407064015552" lon="10.717812668354807"><ele>62.0</ele><time>2026-03-28T09:34:29Z</time></trkpt><trkpt lat="45.3541769118593" lon="10.717990221957454"><ele>63.0</ele><time>2026-03-28T09:34:30Z</time></trkpt><trkpt lat="45.3542957025882" lon="10.718187458103017"><ele>63.0</ele><time>2026-03-28T09:34:31Z</time></trkpt><trkpt lat="45.354418351834134" lon="10.718412548946915"><ele>63.0</ele><time>2026-03-28T09:34:32Z</time></trkpt><trkpt lat="45.35454267819149" lon="10.718654038601333"><ele>63.0</ele><time>2026-03-28T09:34:33Z</time></trkpt><trkpt lat="45.35467376782042" lon="10.718911747252141"><ele>63.33333333333333</ele><time>2026-03-28T09:34:34Z</time></trkpt><trkpt lat="45.35479541991709" lon="10.719147217943327"><ele>63.666666666666664</ele><time>2026-03-28T09:34:35Z</time></trkpt><trkpt lat="45.35491329799809" lon="10.719366172401045"><ele>64.0</ele><time>2026-03-28T09:34:36Z</time></trkpt><trkpt lat="45.35502152957019" lon="10.71956729834128"><ele>64.0</ele><time>2026-03-28T09:34:37Z</time></trkpt><trkpt lat="45.35512516968503" lon="10.71976032774698"><ele>64.0</ele><time>2026-03-28T09:34:38Z</time></trkpt><trkpt lat="45.35522799325923" lon="10.719949861655063"><ele>64.0</ele><time>2026-03-28T09:34:39Z</time></trkpt><trkpt lat="45.355330204401014" lon="10.72014647260157"><ele>63.0</ele><time>2026-03-28T09:34:40Z</time></trkpt><trkpt lat="45.35542623551675" lon="10.720327493221628"><ele>62.0</ele><time>2026-03-28T09:34:41Z</time></trkpt><trkpt lat="45.3555269993535" lon="10.720518171343725"><ele>61.0</ele><time>2026-03-28T09:34:42Z</time></trkpt><trkpt lat="45.35562151616371" lon="10.720695916092614"><ele>61.75</ele><time>2026-03-28T09:34:43Z</time></trkpt><trkpt lat="45.35570854153756" lon="10.72085975898158"><ele>62.5</ele><time>2026-03-28T09:34:44Z</time></trkpt><trkpt lat="45.35578528117935" lon="10.720993142024762"><ele>63.25</ele><time>2026-03-28T09:34:45Z</time></trkpt><trkpt lat="45.35586156166812" lon="10.72111628862464"><ele>64.0</ele><time>2026-03-28T09:34:46Z</time></trkpt><trkpt lat="45.355953557348364" lon="10.721192532968434"><ele>64.0</ele><time>2026-03-28T09:34:47Z</time></trkpt><trkpt lat="45.35601356691728" lon="10.721287537359682"><ele>64.0</ele><time>2026-03-28T09:34:48Z</time></trkpt><trkpt lat="45.35606443025386" lon="10.721346496678354"><ele>64.0</ele><time>2026-03-28T09:34:49Z</time></trkpt><trkpt lat="45.356140542762176" lon="10.721429559002619"><ele>64.0</ele><time>2026-03-28T09:34:51Z</time></trkpt><trkpt lat="45.356083333409494" lon="10.72163854841347"><ele>64.0</ele><time>2026-03-28T09:34:53Z</time></trkpt><trkpt lat="45.356022430701096" lon="10.721767398751705"><ele>62.75</ele><time>2026-03-28T09:34:54Z</time></trkpt><trkpt lat="45.35596789715438" lon="10.721947084974737"><ele>61.5</ele><time>2026-03-28T09:34:55Z</time></trkpt><trkpt lat="45.35589894229325" lon="10.722124092094427"><ele>60.25</ele><time>2026-03-28T09:34:56Z</time></trkpt><trkpt lat="45.35582870516036" lon="10.722319319054808"><ele>59.0</ele><time>2026-03-28T09:34:57Z</time></trkpt><trkpt lat="45.355756099735636" lon="10.722534042359202"><ele>59.333333333333336</ele><time>2026-03-28T09:34:58Z</time></trkpt><trkpt lat="45.3556787341928" lon="10.722753166313383"><ele>59.66666666666667</ele><time>2026-03-28T09:34:59Z</time></trkpt><trkpt lat="45.35559707249982" lon="10.722982398078226"><ele>60.0</ele><time>2026-03-28T09:35:00Z</time></trkpt><trkpt lat="45.355508571810546" lon="10.723228739431876"><ele>60.0</ele><time>2026-03-28T09:35:01Z</time></trkpt><trkpt lat="45.35542271244262" lon="10.723466011585792"><ele>60.0</ele><time>2026-03-28T09:35:02Z</time></trkpt><trkpt lat="45.35534012227872" lon="10.7236942966464"><ele>60.0</ele><time>2026-03-28T09:35:03Z</time></trkpt><trkpt lat="45.35526943144737" lon="10.723899943923955"><ele>60.0</ele><time>2026-03-28T09:35:04Z</time></trkpt><trkpt lat="45.35519618112902" lon="10.724107485866863"><ele>60.0</ele><time>2026-03-28T09:35:05Z</time></trkpt><trkpt lat="45.35512952349415" lon="10.724298825522355"><ele>60.0</ele><time>2026-03-28T09:35:06Z</time></trkpt><trkpt lat="45.355065023721345" lon="10.72447353592728"><ele>60.0</ele><time>2026-03-28T09:35:07Z</time></trkpt><trkpt lat="45.355007552717396" lon="10.724628471642113"><ele>60.0</ele><time>2026-03-28T09:35:08Z</time></trkpt><trkpt lat="45.35495948388856" lon="10.724770966366227"><ele>60.0</ele><time>2026-03-28T09:35:09Z</time></trkpt><trkpt lat="45.35491253503509" lon="10.72490488809273"><ele>60.0</ele><time>2026-03-28T09:35:10Z</time></trkpt><trkpt lat="45.354868534565995" lon="10.72503109136497"><ele>60.0</ele><time>2026-03-28T09:35:11Z</time></trkpt><trkpt lat="45.35483219735686" lon="10.725126503132099"><ele>60.0</ele><time>2026-03-28T09:35:12Z</time></trkpt><trkpt lat="45.354798998542634" lon="10.725222163712212"><ele>60.0</ele><time>2026-03-28T09:35:15Z</time></trkpt><trkpt lat="45.35476772519536" lon="10.725320463705884"><ele>60.0</ele><time>2026-03-28T09:35:18Z</time></trkpt><trkpt lat="45.35472199279124" lon="10.72545776516232"><ele>60.0</ele><time>2026-03-28T09:35:20Z</time></trkpt><trkpt lat="45.3546796118413" lon="10.725534223129548"><ele>60.0</ele><time>2026-03-28T09:35:21Z</time></trkpt><trkpt lat="45.35465362393176" lon="10.725641957270144"><ele>60.0</ele><time>2026-03-28T09:35:22Z</time></trkpt><trkpt lat="45.35461000905461" lon="10.725749920343679"><ele>59.75</ele><time>2026-03-28T09:35:23Z</time></trkpt><trkpt lat="45.35455996248502" lon="10.725867958619922"><ele>59.5</ele><time>2026-03-28T09:35:24Z</time></trkpt><trkpt lat="45.35451305101089" lon="10.726013062076522"><ele>59.25</ele><time>2026-03-28T09:35:25Z</time></trkpt><trkpt lat="45.35445432905662" lon="10.726180663760731"><ele>59.0</ele><time>2026-03-28T09:35:26Z</time></trkpt><trkpt lat="45.35439584370787" lon="10.726335537890765"><ele>59.0</ele><time>2026-03-28T09:35:27Z</time></trkpt><trkpt lat="45.354345459998655" lon="10.726481260647395"><ele>59.0</ele><time>2026-03-28T09:35:28Z</time></trkpt><trkpt lat="45.35429418305631" lon="10.726630054427522"><ele>59.0</ele><time>2026-03-28T09:35:29Z</time></trkpt><trkpt lat="45.35424182868328" lon="10.726781462187825"><ele>59.0</ele><time>2026-03-28T09:35:30Z</time></trkpt><trkpt lat="45.35418854365872" lon="10.726933034165514"><ele>59.25</ele><time>2026-03-28T09:35:31Z</time></trkpt><trkpt lat="45.35413432380615" lon="10.727083830651488"><ele>59.5</ele><time>2026-03-28T09:35:32Z</time></trkpt><trkpt lat="45.35407310550513" lon="10.727247982507677"><ele>59.75</ele><time>2026-03-28T09:35:33Z</time></trkpt><trkpt lat="45.35402235331858" lon="10.727393205122821"><ele>60.0</ele><time>2026-03-28T09:35:34Z</time></trkpt><trkpt lat="45.35397809973241" lon="10.727523947378286"><ele>60.0</ele><time>2026-03-28T09:35:35Z</time></trkpt><trkpt lat="45.35393502468607" lon="10.727641683197838"><ele>60.0</ele><time>2026-03-28T09:35:36Z</time></trkpt><trkpt lat="45.35389787660958" lon="10.72774799928207"><ele>60.0</ele><time>2026-03-28T09:35:37Z</time></trkpt><trkpt lat="45.35385851850403" lon="10.727855832730954"><ele>60.0</ele><time>2026-03-28T09:35:38Z</time></trkpt><trkpt lat="45.35379869186149" lon="10.728024919812022"><ele>60.0</ele><time>2026-03-28T09:35:40Z</time></trkpt><trkpt lat="45.35375577926195" lon="10.728138516722215"><ele>63.2</ele><time>2026-03-28T09:35:42Z</time></trkpt><trkpt lat="45.35372561814608" lon="10.72821868176965"><ele>66.4</ele><time>2026-03-28T09:35:44Z</time></trkpt><trkpt lat="45.35365917228467" lon="10.728306241839386"><ele>69.6</ele><time>2026-03-28T09:35:48Z</time></trkpt><trkpt lat="45.35363282755813" lon="10.728453728329303"><ele>72.8</ele><time>2026-03-28T09:35:50Z</time></trkpt><trkpt lat="45.35375566951441" lon="10.728602846206314"><ele>76.0</ele><time>2026-03-28T09:35:52Z</time></trkpt><trkpt lat="45.3538450209302" lon="10.728660544467257"><ele>77.5</ele><time>2026-03-28T09:35:53Z</time></trkpt><trkpt lat="45.353958740364114" lon="10.728722737827622"><ele>79.0</ele><time>2026-03-28T09:35:54Z</time></trkpt><trkpt lat="45.354084216799016" lon="10.728786803016689"><ele>80.5</ele><time>2026-03-28T09:35:55Z</time></trkpt><trkpt lat="45.35421559787395" lon="10.728845227756825"><ele>82.0</ele><time>2026-03-28T09:35:56Z</time></trkpt><trkpt lat="45.35435499962752" lon="10.728906344795776"><ele>82.0</ele><time>2026-03-28T09:35:57Z</time></trkpt><trkpt lat="45.354492097732034" lon="10.728977656405823"><ele>82.0</ele><time>2026-03-28T09:35:58Z</time></trkpt><trkpt lat="45.35462743169006" lon="10.729055745294612"><ele>82.0</ele><time>2026-03-28T09:35:59Z</time></trkpt><trkpt lat="45.35476925093597" lon="10.729114340149346"><ele>82.0</ele><time>2026-03-28T09:36:00Z</time></trkpt><trkpt lat="45.35492448777096" lon="10.729166367321087"><ele>81.33333333333333</ele><time>2026-03-28T09:36:01Z</time></trkpt><trkpt lat="45.35509149545754" lon="10.729215777627639"><ele>80.66666666666667</ele><time>2026-03-28T09:36:02Z</time></trkpt><trkpt lat="45.35524826095157" lon="10.729265492912623"><ele>80.0</ele><time>2026-03-28T09:36:03Z</time></trkpt><trkpt lat="45.35539790360738" lon="10.729302611044966"><ele>79.75</ele><time>2026-03-28T09:36:04Z</time></trkpt><trkpt lat="45.355545762102636" lon="10.72932335210653"><ele>79.5</ele><time>2026-03-28T09:36:05Z</time></trkpt><trkpt lat="45.355689238468024" lon="10.729357517055965"><ele>79.25</ele><time>2026-03-28T09:36:06Z</time></trkpt><trkpt lat="45.35583166935757" lon="10.729387285627906"><ele>79.0</ele><time>2026-03-28T09:36:07Z</time></trkpt><trkpt lat="45.35597688674931" lon="10.729409244685845"><ele>79.0</ele><time>2026-03-28T09:36:08Z</time></trkpt><trkpt lat="45.35609902940454" lon="10.729410842926955"><ele>79.0</ele><time>2026-03-28T09:36:09Z</time></trkpt><trkpt lat="45.35620924774681" lon="10.729391881736422"><ele>79.0</ele><time>2026-03-28T09:36:10Z</time></trkpt><trkpt lat="45.35631116809497" lon="10.729355039973385"><ele>79.0</ele><time>2026-03-28T09:36:11Z</time></trkpt><trkpt lat="45.35639205444939" lon="10.729337837453443"><ele>79.0</ele><time>2026-03-28T09:36:12Z</time></trkpt><trkpt lat="45.356465467144105" lon="10.729313266317794"><ele>79.80000000000001</ele><time>2026-03-28T09:36:13Z</time></trkpt><trkpt lat="45.35653258052781" lon="10.729296832609128"><ele>80.60000000000001</ele><time>2026-03-28T09:36:14Z</time></trkpt><trkpt lat="45.35662977439694" lon="10.729318189500859"><ele>81.4</ele><time>2026-03-28T09:36:16Z</time></trkpt><trkpt lat="45.35659650116385" lon="10.729493703743026"><ele>82.2</ele><time>2026-03-28T09:36:19Z</time></trkpt><trkpt lat="45.35645579644556" lon="10.729495340627555"><ele>83.0</ele><time>2026-03-28T09:36:20Z</time></trkpt><trkpt lat="45.35635707684884" lon="10.729562563297112"><ele>86.5</ele><time>2026-03-28T09:36:21Z</time></trkpt><trkpt lat="45.35622418776231" lon="10.729622318106044"><ele>90.0</ele><time>2026-03-28T09:36:22Z</time></trkpt><trkpt lat="45.356089421818986" lon="10.729700706789071"><ele>93.5</ele><time>2026-03-28T09:36:23Z</time></trkpt><trkpt lat="45.35594690743398" lon="10.729794041588546"><ele>97.0</ele><time>2026-03-28T09:36:24Z</time></trkpt><trkpt lat="45.35581896333108" lon="10.729889668648227"><ele>97.0</ele><time>2026-03-28T09:36:25Z</time></trkpt><trkpt lat="45.35573568002815" lon="10.729980369266368"><ele>97.0</ele><time>2026-03-28T09:36:26Z</time></trkpt><trkpt lat="45.35567749915174" lon="10.730089922302623"><ele>97.0</ele><time>2026-03-28T09:36:27Z</time></trkpt><trkpt lat="45.355657826668065" lon="10.730213646325375"><ele>97.0</ele><time>2026-03-28T09:36:28Z</time></trkpt><trkpt lat="45.35567300283625" lon="10.730364249826502"><ele>97.0</ele><time>2026-03-28T09:36:29Z</time></trkpt><trkpt lat="45.35571246364581" lon="10.730527588828393"><ele>98.25</ele><time>2026-03-28T09:36:30Z</time></trkpt><trkpt lat="45.35575619555257" lon="10.73071595916949"><ele>99.5</ele><time>2026-03-28T09:36:31Z</time></trkpt><trkpt lat="45.35580021363585" lon="10.730902726226212"><ele>100.75</ele><time>2026-03-28T09:36:32Z</time></trkpt><trkpt lat="45.35582525305021" lon="10.731052475589866"><ele>102.0</ele><time>2026-03-28T09:36:33Z</time></trkpt><trkpt lat="45.355848684220504" lon="10.73118692754195"><ele>102.0</ele><time>2026-03-28T09:36:34Z</time></trkpt><trkpt lat="45.355868716487635" lon="10.731287878573637"><ele>102.0</ele><time>2026-03-28T09:36:35Z</time></trkpt><trkpt lat="45.355895175366996" lon="10.731386537983969"><ele>102.0</ele><time>2026-03-28T09:36:36Z</time></trkpt><trkpt lat="45.35590430699528" lon="10.731476693205313"><ele>102.0</ele><time>2026-03-28T09:36:37Z</time></trkpt><trkpt lat="45.3559085880066" lon="10.73157713111901"><ele>102.0</ele><time>2026-03-28T09:36:38Z</time></trkpt><trkpt lat="45.35589782514913" lon="10.731683225463867"><ele>102.0</ele><time>2026-03-28T09:36:39Z</time></trkpt><trkpt lat="45.355854122594735" lon="10.731809385095096"><ele>100.83333333333333</ele><time>2026-03-28T09:36:41Z</time></trkpt><trkpt lat="45.35582452555411" lon="10.731897692602487"><ele>99.66666666666667</ele><time>2026-03-28T09:36:43Z</time></trkpt><trkpt lat="45.355789341502685" lon="10.731989951385954"><ele>98.5</ele><time>2026-03-28T09:36:46Z</time></trkpt><trkpt lat="45.35574428497055" lon="10.732088512662294"><ele>97.33333333333334</ele><time>2026-03-28T09:36:53Z</time></trkpt><trkpt lat="45.35570944938793" lon="10.732166014970092"><ele>96.16666666666667</ele><time>2026-03-28T09:36:55Z</time></trkpt><trkpt lat="45.35566719408716" lon="10.732275133495174"><ele>95.0</ele><time>2026-03-28T09:36:58Z</time></trkpt><trkpt lat="45.35562074760844" lon="10.73236516239257"><ele>95.0</ele><time>2026-03-28T09:37:01Z</time></trkpt><trkpt lat="45.355544722094905" lon="10.73250384311194"><ele>95.0</ele><time>2026-03-28T09:37:03Z</time></trkpt><trkpt lat="45.355510906695585" lon="10.732601125076293"><ele>95.0</ele><time>2026-03-28T09:37:04Z</time></trkpt><trkpt lat="45.3554391618984" lon="10.732717497158252"><ele>95.0</ele><time>2026-03-28T09:37:06Z</time></trkpt><trkpt lat="45.35536413779788" lon="10.732860273851283"><ele>95.0</ele><time>2026-03-28T09:37:08Z</time></trkpt><trkpt lat="45.35532594270756" lon="10.732946624236027"><ele>94.83333333333334</ele><time>2026-03-28T09:37:09Z</time></trkpt><trkpt lat="45.35529461519175" lon="10.733030803126"><ele>94.66666666666667</ele><time>2026-03-28T09:37:10Z</time></trkpt><trkpt lat="45.3552656387441" lon="10.733120366220929"><ele>94.5</ele><time>2026-03-28T09:37:11Z</time></trkpt><trkpt lat="45.35523392157595" lon="10.733202253177089"><ele>94.33333333333333</ele><time>2026-03-28T09:37:12Z</time></trkpt><trkpt lat="45.35517401372676" lon="10.733334232276409"><ele>94.16666666666666</ele><time>2026-03-28T09:37:14Z</time></trkpt><trkpt lat="45.35513244050951" lon="10.733440293391713"><ele>94.0</ele><time>2026-03-28T09:37:16Z</time></trkpt><trkpt lat="45.35510656427741" lon="10.733560226612273"><ele>93.85714285714286</ele><time>2026-03-28T09:37:18Z</time></trkpt><trkpt lat="45.35506638116238" lon="10.73366295697305"><ele>93.71428571428571</ele><time>2026-03-28T09:37:21Z</time></trkpt><trkpt lat="45.355033230211795" lon="10.733757470474039"><ele>93.57142857142858</ele><time>2026-03-28T09:37:24Z</time></trkpt><trkpt lat="45.35500333972893" lon="10.73383700771614"><ele>93.42857142857143</ele><time>2026-03-28T09:37:27Z</time></trkpt><trkpt lat="45.354961449480065" lon="10.733937378151314"><ele>93.28571428571429</ele><time>2026-03-28T09:37:30Z</time></trkpt><trkpt lat="45.354927378637235" lon="10.73401654417171"><ele>93.14285714285715</ele><time>2026-03-28T09:37:34Z</time></trkpt><trkpt lat="45.3548882255162" lon="10.734103476532669"><ele>93.0</ele><time>2026-03-28T09:37:37Z</time></trkpt><trkpt lat="45.35483746731583" lon="10.73419743231179"><ele>93.0</ele><time>2026-03-28T09:37:40Z</time></trkpt><trkpt lat="45.35497467837932" lon="10.734382087392985"><ele>93.0</ele><time>2026-03-28T09:37:45Z</time></trkpt><trkpt lat="45.35506109080545" lon="10.734372511623823"><ele>93.0</ele><time>2026-03-28T09:37:46Z</time></trkpt><trkpt lat="45.355134194040126" lon="10.73438570240262"><ele>93.0</ele><time>2026-03-28T09:37:47Z</time></trkpt><trkpt lat="45.35522133211886" lon="10.734406108210885"><ele>93.0</ele><time>2026-03-28T09:37:48Z</time></trkpt><trkpt lat="45.35530261490043" lon="10.734433320177473"><ele>93.16666666666667</ele><time>2026-03-28T09:37:49Z</time></trkpt><trkpt lat="45.35538323817765" lon="10.734467150271188"><ele>93.33333333333333</ele><time>2026-03-28T09:37:50Z</time></trkpt><trkpt lat="45.355462946253496" lon="10.734500208346962"><ele>93.5</ele><time>2026-03-28T09:37:51Z</time></trkpt><trkpt lat="45.355533094227546" lon="10.734537967968429"><ele>93.66666666666666</ele><time>2026-03-28T09:37:52Z</time></trkpt><trkpt lat="45.3556047841321" lon="10.734575074513122"><ele>93.83333333333333</ele><time>2026-03-28T09:37:53Z</time></trkpt><trkpt lat="45.35567821391461" lon="10.734624548165302"><ele>94.0</ele><time>2026-03-28T09:37:54Z</time></trkpt><trkpt lat="45.355766853208564" lon="10.734659711865593"><ele>94.0</ele><time>2026-03-28T09:37:55Z</time></trkpt><trkpt lat="45.3558401375129" lon="10.734704198409897"><ele>94.0</ele><time>2026-03-28T09:37:56Z</time></trkpt><trkpt lat="45.35591892803526" lon="10.734744679411353"><ele>94.0</ele><time>2026-03-28T09:37:57Z</time></trkpt><trkpt lat="45.355989946054585" lon="10.734804263826307"><ele>94.0</ele><time>2026-03-28T09:37:58Z</time></trkpt><trkpt lat="45.356056168967974" lon="10.734843552403584"><ele>94.0</ele><time>2026-03-28T09:37:59Z</time></trkpt><trkpt lat="45.35613256568247" lon="10.734866041550513"><ele>94.0</ele><time>2026-03-28T09:38:00Z</time></trkpt><trkpt lat="45.35623456202391" lon="10.7349078540496"><ele>94.0</ele><time>2026-03-28T09:38:02Z</time></trkpt><trkpt lat="45.35634702570232" lon="10.734952042407413"><ele>94.0</ele><time>2026-03-28T09:38:04Z</time></trkpt><trkpt lat="45.35641241436223" lon="10.734975171409895"><ele>94.0</ele><time>2026-03-28T09:38:05Z</time></trkpt><trkpt lat="45.35648439922748" lon="10.734977820482307"><ele>94.0</ele><time>2026-03-28T09:38:06Z</time></trkpt><trkpt lat="45.35654787658364" lon="10.734992133225544"><ele>94.0</ele><time>2026-03-28T09:38:07Z</time></trkpt><trkpt lat="45.35661875214974" lon="10.73500936628938"><ele>94.0</ele><time>2026-03-28T09:38:08Z</time></trkpt><trkpt lat="45.356687387305634" lon="10.735022922883928"><ele>93.83333333333333</ele><time>2026-03-28T09:38:09Z</time></trkpt><trkpt lat="45.356757948268225" lon="10.735034028638509"><ele>93.66666666666666</ele><time>2026-03-28T09:38:10Z</time></trkpt><trkpt lat="45.35685833121719" lon="10.735058742999694"><ele>93.5</ele><time>2026-03-28T09:38:12Z</time></trkpt><trkpt lat="45.35693436814059" lon="10.735064690275934"><ele>93.33333333333333</ele><time>2026-03-28T09:38:14Z</time></trkpt><trkpt lat="45.357017006893386" lon="10.735059358195711"><ele>93.16666666666667</ele><time>2026-03-28T09:38:16Z</time></trkpt><trkpt lat="45.35711732924317" lon="10.735043834904943"><ele>93.0</ele><time>2026-03-28T09:38:18Z</time></trkpt><trkpt lat="45.35718168003877" lon="10.735034832813648"><ele>93.0</ele><time>2026-03-28T09:38:20Z</time></trkpt><trkpt lat="45.35725727298315" lon="10.735019254812762"><ele>93.0</ele><time>2026-03-28T09:38:21Z</time></trkpt><trkpt lat="45.35735269747965" lon="10.7349976888712"><ele>93.0</ele><time>2026-03-28T09:38:22Z</time></trkpt><trkpt lat="45.35746339960172" lon="10.73498068071833"><ele>93.0</ele><time>2026-03-28T09:38:23Z</time></trkpt><trkpt lat="45.35755250970167" lon="10.734954750256625"><ele>93.0</ele><time>2026-03-28T09:38:24Z</time></trkpt><trkpt lat="45.35763442085528" lon="10.734943232770215"><ele>93.0</ele><time>2026-03-28T09:38:25Z</time></trkpt><trkpt lat="45.35770712888627" lon="10.734925624870458"><ele>93.0</ele><time>2026-03-28T09:38:26Z</time></trkpt><trkpt lat="45.35779461487508" lon="10.734908686278162"><ele>93.0</ele><time>2026-03-28T09:38:27Z</time></trkpt><trkpt lat="45.35786789566138" lon="10.734903916789913"><ele>93.0</ele><time>2026-03-28T09:38:28Z</time></trkpt><trkpt lat="45.35794107723249" lon="10.734899580860375"><ele>93.0</ele><time>2026-03-28T09:38:29Z</time></trkpt><trkpt lat="45.358010822591325" lon="10.734898342284978"><ele>93.0</ele><time>2026-03-28T09:38:30Z</time></trkpt><trkpt lat="45.35809000883929" lon="10.734894938793119"><ele>93.60000000000001</ele><time>2026-03-28T09:38:31Z</time></trkpt><trkpt lat="45.35817377690129" lon="10.734891007406246"><ele>94.2</ele><time>2026-03-28T09:38:32Z</time></trkpt><trkpt lat="45.35826128153462" lon="10.734888258978467"><ele>94.8</ele><time>2026-03-28T09:38:33Z</time></trkpt><trkpt lat="45.358357117371895" lon="10.734885631969592"><ele>95.4</ele><time>2026-03-28T09:38:34Z</time></trkpt><trkpt lat="45.35846699032347" lon="10.734891528281167"><ele>96.0</ele><time>2026-03-28T09:38:35Z</time></trkpt><trkpt lat="45.35854479483863" lon="10.734910051983395"><ele>96.0</ele><time>2026-03-28T09:38:36Z</time></trkpt><trkpt lat="45.35863758045018" lon="10.73492492087049"><ele>96.0</ele><time>2026-03-28T09:38:37Z</time></trkpt><trkpt lat="45.35873086170716" lon="10.734932098963402"><ele>96.0</ele><time>2026-03-28T09:38:38Z</time></trkpt><trkpt lat="45.358820947822565" lon="10.734938364462597"><ele>96.0</ele><time>2026-03-28T09:38:39Z</time></trkpt><trkpt lat="45.35893569717706" lon="10.734952217300714"><ele>96.0</ele><time>2026-03-28T09:38:40Z</time></trkpt><trkpt lat="45.35906755858623" lon="10.734973299857835"><ele>96.19999999999999</ele><time>2026-03-28T09:38:41Z</time></trkpt><trkpt lat="45.35919685814229" lon="10.735000551740125"><ele>96.39999999999999</ele><time>2026-03-28T09:38:42Z</time></trkpt><trkpt lat="45.35931127050234" lon="10.735019945897687"><ele>96.6</ele><time>2026-03-28T09:38:43Z</time></trkpt><trkpt lat="45.35940228414686" lon="10.735038043206618"><ele>96.8</ele><time>2026-03-28T09:38:44Z</time></trkpt><trkpt lat="45.35948636001892" lon="10.735050319583479"><ele>97.0</ele><time>2026-03-28T09:38:45Z</time></trkpt><trkpt lat="45.35956907261733" lon="10.735061651785328"><ele>97.00000000000001</ele><time>2026-03-28T09:38:46Z</time></trkpt><trkpt lat="45.359633383027116" lon="10.735074003793132"><ele>97.0</ele><time>2026-03-28T09:38:47Z</time></trkpt><trkpt lat="45.359723212372856" lon="10.735090118474819"><ele>97.0</ele><time>2026-03-28T09:38:49Z</time></trkpt><trkpt lat="45.359791944236356" lon="10.735093320884028"><ele>97.0</ele><time>2026-03-28T09:38:51Z</time></trkpt><trkpt lat="45.35986316495084" lon="10.735105461610525"><ele>97.00000000000001</ele><time>2026-03-28T09:38:54Z</time></trkpt><trkpt lat="45.35993823644678" lon="10.735200333076364"><ele>97.0</ele><time>2026-03-28T09:38:59Z</time></trkpt><trkpt lat="45.359920300614505" lon="10.73531656870757"><ele>96.39999999999999</ele><time>2026-03-28T09:39:00Z</time></trkpt><trkpt lat="45.359899268167766" lon="10.735457215650934"><ele>95.8</ele><time>2026-03-28T09:39:01Z</time></trkpt><trkpt lat="45.35988848079476" lon="10.73560603900184"><ele>95.2</ele><time>2026-03-28T09:39:02Z</time></trkpt><trkpt lat="45.359876901161016" lon="10.735766003163578"><ele>94.6</ele><time>2026-03-28T09:39:03Z</time></trkpt><trkpt lat="45.35986595082315" lon="10.735919927057395"><ele>94.0</ele><time>2026-03-28T09:39:04Z</time></trkpt><trkpt lat="45.359855237793155" lon="10.736054492958436"><ele>94.0</ele><time>2026-03-28T09:39:05Z</time></trkpt><trkpt lat="45.359846997094046" lon="10.736193484289847"><ele>94.0</ele><time>2026-03-28T09:39:06Z</time></trkpt><trkpt lat="45.359836601230825" lon="10.736342894038927"><ele>94.0</ele><time>2026-03-28T09:39:07Z</time></trkpt><trkpt lat="45.35982258094269" lon="10.73650696601562"><ele>94.0</ele><time>2026-03-28T09:39:08Z</time></trkpt><trkpt lat="45.359807624241924" lon="10.736692822073335"><ele>94.0</ele><time>2026-03-28T09:39:09Z</time></trkpt><trkpt lat="45.3597999753586" lon="10.736859251285429"><ele>94.0</ele><time>2026-03-28T09:39:10Z</time></trkpt><trkpt lat="45.35979140886866" lon="10.737018873240597"><ele>94.0</ele><time>2026-03-28T09:39:11Z</time></trkpt><trkpt lat="45.35977887676506" lon="10.737159239164441"><ele>94.0</ele><time>2026-03-28T09:39:12Z</time></trkpt><trkpt lat="45.35976481946414" lon="10.73728470907161"><ele>94.0</ele><time>2026-03-28T09:39:13Z</time></trkpt><trkpt lat="45.359757092935915" lon="10.73739265938594"><ele>94.0</ele><time>2026-03-28T09:39:14Z</time></trkpt><trkpt lat="45.35975075225732" lon="10.73749672852826"><ele>94.0</ele><time>2026-03-28T09:39:15Z</time></trkpt><trkpt lat="45.35974311308806" lon="10.737594684678356"><ele>94.0</ele><time>2026-03-28T09:39:16Z</time></trkpt><trkpt lat="45.35973287836506" lon="10.737689065839493"><ele>94.0</ele><time>2026-03-28T09:39:17Z</time></trkpt><trkpt lat="45.3597255494781" lon="10.737783582520716"><ele>94.0</ele><time>2026-03-28T09:39:18Z</time></trkpt><trkpt lat="45.35971521807231" lon="10.737872955835881"><ele>94.0</ele><time>2026-03-28T09:39:19Z</time></trkpt><trkpt lat="45.359700671010586" lon="10.737966690540476"><ele>94.0</ele><time>2026-03-28T09:39:20Z</time></trkpt><trkpt lat="45.359684110712855" lon="10.738062910757314"><ele>93.80000000000001</ele><time>2026-03-28T09:39:21Z</time></trkpt><trkpt lat="45.35969436939064" lon="10.738179941854483"><ele>93.60000000000001</ele><time>2026-03-28T09:39:22Z</time></trkpt><trkpt lat="45.359696791847966" lon="10.738309579698491"><ele>93.4</ele><time>2026-03-28T09:39:23Z</time></trkpt><trkpt lat="45.35974258285038" lon="10.738457813698187"><ele>93.2</ele><time>2026-03-28T09:39:24Z</time></trkpt><trkpt lat="45.359787423320256" lon="10.738631483494334"><ele>93.0</ele><time>2026-03-28T09:39:25Z</time></trkpt><trkpt lat="45.35981796068834" lon="10.738779148396585"><ele>93.0</ele><time>2026-03-28T09:39:26Z</time></trkpt><trkpt lat="45.35983388857998" lon="10.738875493344791"><ele>93.0</ele><time>2026-03-28T09:39:27Z</time></trkpt><trkpt lat="45.35985967250638" lon="10.73900731307274"><ele>93.0</ele><time>2026-03-28T09:39:29Z</time></trkpt><trkpt lat="45.35983713201659" lon="10.739093363227633"><ele>93.0</ele><time>2026-03-28T09:39:30Z</time></trkpt><trkpt lat="45.359895025508116" lon="10.739227181841763"><ele>93.0</ele><time>2026-03-28T09:39:32Z</time></trkpt><trkpt lat="45.36004597807045" lon="10.73926349664174"><ele>93.0</ele><time>2026-03-28T09:39:34Z</time></trkpt><trkpt lat="45.36012226190917" lon="10.739301477266954"><ele>93.0</ele><time>2026-03-28T09:39:35Z</time></trkpt><trkpt lat="45.36021930621772" lon="10.739364732925779"><ele>93.0</ele><time>2026-03-28T09:39:36Z</time></trkpt><trkpt lat="45.36034622027117" lon="10.739449121390775"><ele>93.0</ele><time>2026-03-28T09:39:37Z</time></trkpt><trkpt lat="45.36048108057843" lon="10.7395432656942"><ele>93.75</ele><time>2026-03-28T09:39:38Z</time></trkpt><trkpt lat="45.36061710548268" lon="10.739648051584838"><ele>94.5</ele><time>2026-03-28T09:39:39Z</time></trkpt><trkpt lat="45.3607444929371" lon="10.739724849643215"><ele>95.25</ele><time>2026-03-28T09:39:40Z</time></trkpt><trkpt lat="45.360858219155645" lon="10.739746691867053"><ele>96.0</ele><time>2026-03-28T09:39:41Z</time></trkpt><trkpt lat="45.36093751805714" lon="10.739919486555397"><ele>96.0</ele><time>2026-03-28T09:39:42Z</time></trkpt><trkpt lat="45.3610068483292" lon="10.740093179213195"><ele>96.0</ele><time>2026-03-28T09:39:43Z</time></trkpt><trkpt lat="45.36107673467754" lon="10.74028832191688"><ele>96.0</ele><time>2026-03-28T09:39:44Z</time></trkpt><trkpt lat="45.36115795096152" lon="10.740506640533706"><ele>96.0</ele><time>2026-03-28T09:39:45Z</time></trkpt><trkpt lat="45.361249318197174" lon="10.740731362951903"><ele>96.0</ele><time>2026-03-28T09:39:46Z</time></trkpt><trkpt lat="45.36135060760168" lon="10.740984378573096"><ele>96.0</ele><time>2026-03-28T09:39:47Z</time></trkpt><trkpt lat="45.36144298315257" lon="10.741238182757815"><ele>94.66666666666667</ele><time>2026-03-28T09:39:48Z</time></trkpt><trkpt lat="45.36153885317832" lon="10.741516140321458"><ele>93.33333333333334</ele><time>2026-03-28T09:39:49Z</time></trkpt><trkpt lat="45.361627106762086" lon="10.741806697178525"><ele>92.0</ele><time>2026-03-28T09:39:50Z</time></trkpt><trkpt lat="45.36171179459868" lon="10.742116967440882"><ele>92.0</ele><time>2026-03-28T09:39:51Z</time></trkpt><trkpt lat="45.36178907319212" lon="10.742417793335049"><ele>92.0</ele><time>2026-03-28T09:39:52Z</time></trkpt><trkpt lat="45.361862667048946" lon="10.74268915471955"><ele>92.0</ele><time>2026-03-28T09:39:53Z</time></trkpt><trkpt lat="45.361930789823205" lon="10.742934405936749"><ele>92.0</ele><time>2026-03-28T09:39:54Z</time></trkpt><trkpt lat="45.36200019112975" lon="10.74318247606708"><ele>92.0</ele><time>2026-03-28T09:39:55Z</time></trkpt><trkpt lat="45.36207296853417" lon="10.743422918428195"><ele>92.0</ele><time>2026-03-28T09:39:56Z</time></trkpt><trkpt lat="45.36214363012525" lon="10.743652603414555"><ele>92.33333333333334</ele><time>2026-03-28T09:39:57Z</time></trkpt><trkpt lat="45.36221718736958" lon="10.74388267784537"><ele>92.66666666666667</ele><time>2026-03-28T09:39:58Z</time></trkpt><trkpt lat="45.36230021931013" lon="10.74413575278218"><ele>93.0</ele><time>2026-03-28T09:39:59Z</time></trkpt><trkpt lat="45.362380171494976" lon="10.744377237880544"><ele>93.0</ele><time>2026-03-28T09:40:00Z</time></trkpt><trkpt lat="45.362456120453665" lon="10.744603051120773"><ele>93.0</ele><time>2026-03-28T09:40:01Z</time></trkpt><trkpt lat="45.362524313540895" lon="10.744820598688925"><ele>93.0</ele><time>2026-03-28T09:40:02Z</time></trkpt><trkpt lat="45.362591978664376" lon="10.745051452870387"><ele>93.0</ele><time>2026-03-28T09:40:03Z</time></trkpt><trkpt lat="45.36265747692928" lon="10.745274760160354"><ele>93.0</ele><time>2026-03-28T09:40:04Z</time></trkpt><trkpt lat="45.36273004289646" lon="10.745511159016038"><ele>93.0</ele><time>2026-03-28T09:40:05Z</time></trkpt><trkpt lat="45.36281651214659" lon="10.74577775935661"><ele>92.66666666666667</ele><time>2026-03-28T09:40:06Z</time></trkpt><trkpt lat="45.362903022373686" lon="10.746060666202165"><ele>92.33333333333334</ele><time>2026-03-28T09:40:07Z</time></trkpt><trkpt lat="45.36299371045615" lon="10.746355009669255"><ele>92.0</ele><time>2026-03-28T09:40:08Z</time></trkpt><trkpt lat="45.36309462658957" lon="10.7466424707685"><ele>92.0</ele><time>2026-03-28T09:40:09Z</time></trkpt><trkpt lat="45.36320683160967" lon="10.746915450545085"><ele>92.0</ele><time>2026-03-28T09:40:10Z</time></trkpt><trkpt lat="45.36333756501792" lon="10.74717479763352"><ele>92.0</ele><time>2026-03-28T09:40:11Z</time></trkpt><trkpt lat="45.36347974479889" lon="10.747427105249944"><ele>92.0</ele><time>2026-03-28T09:40:12Z</time></trkpt><trkpt lat="45.36363049662267" lon="10.74767368373525"><ele>92.0</ele><time>2026-03-28T09:40:13Z</time></trkpt><trkpt lat="45.36376881917397" lon="10.747913970473256"><ele>92.0</ele><time>2026-03-28T09:40:14Z</time></trkpt><trkpt lat="45.36389150973518" lon="10.748170609811982"><ele>92.33333333333334</ele><time>2026-03-28T09:40:15Z</time></trkpt><trkpt lat="45.3640027940869" lon="10.748440818861267"><ele>92.66666666666667</ele><time>2026-03-28T09:40:16Z</time></trkpt><trkpt lat="45.36411708949782" lon="10.748722176597033"><ele>93.0</ele><time>2026-03-28T09:40:17Z</time></trkpt><trkpt lat="45.36423481926522" lon="10.749010253015028"><ele>93.0</ele><time>2026-03-28T09:40:18Z</time></trkpt><trkpt lat="45.36435665436748" lon="10.74930469504884"><ele>93.0</ele><time>2026-03-28T09:40:19Z</time></trkpt><trkpt lat="45.36447943050022" lon="10.74960721056231"><ele>93.0</ele><time>2026-03-28T09:40:20Z</time></trkpt><trkpt lat="45.36459631927626" lon="10.749895311304781"><ele>93.0</ele><time>2026-03-28T09:40:21Z</time></trkpt><trkpt lat="45.36471139394839" lon="10.750171554217136"><ele>94.0</ele><time>2026-03-28T09:40:22Z</time></trkpt><trkpt lat="45.36482933812452" lon="10.750432476322487"><ele>95.0</ele><time>2026-03-28T09:40:23Z</time></trkpt><trkpt lat="45.364943120559495" lon="10.75067588515398"><ele>96.0</ele><time>2026-03-28T09:40:24Z</time></trkpt><trkpt lat="45.36506534872929" lon="10.750926994057528"><ele>95.33333333333333</ele><time>2026-03-28T09:40:25Z</time></trkpt><trkpt lat="45.36518826414217" lon="10.751183656037352"><ele>94.66666666666666</ele><time>2026-03-28T09:40:26Z</time></trkpt><trkpt lat="45.36531492692103" lon="10.751436871147249"><ele>94.0</ele><time>2026-03-28T09:40:27Z</time></trkpt><trkpt lat="45.36545080859333" lon="10.751683247944145"><ele>94.0</ele><time>2026-03-28T09:40:28Z</time></trkpt><trkpt lat="45.3655872559687" lon="10.751930375227163"><ele>94.0</ele><time>2026-03-28T09:40:29Z</time></trkpt><trkpt lat="45.365720297081744" lon="10.752192102897048"><ele>94.0</ele><time>2026-03-28T09:40:30Z</time></trkpt><trkpt lat="45.36584396782383" lon="10.75246052170957"><ele>94.0</ele><time>2026-03-28T09:40:31Z</time></trkpt><trkpt lat="45.36596443408531" lon="10.752733920495466"><ele>94.0</ele><time>2026-03-28T09:40:32Z</time></trkpt><trkpt lat="45.366080432205216" lon="10.753012428816215"><ele>94.0</ele><time>2026-03-28T09:40:33Z</time></trkpt><trkpt lat="45.36619249303499" lon="10.753285067956709"><ele>94.0</ele><time>2026-03-28T09:40:34Z</time></trkpt><trkpt lat="45.36630377871959" lon="10.753567392414357"><ele>94.0</ele><time>2026-03-28T09:40:35Z</time></trkpt><trkpt lat="45.36640665035487" lon="10.753861081888902"><ele>93.5</ele><time>2026-03-28T09:40:36Z</time></trkpt><trkpt lat="45.3665004169718" lon="10.75415557398561"><ele>93.0</ele><time>2026-03-28T09:40:37Z</time></trkpt><trkpt lat="45.36660659368771" lon="10.754450240962376"><ele>94.0</ele><time>2026-03-28T09:40:38Z</time></trkpt><trkpt lat="45.36672063134245" lon="10.754731580799964"><ele>95.0</ele><time>2026-03-28T09:40:39Z</time></trkpt><trkpt lat="45.36684061325092" lon="10.754996384063967"><ele>94.66666666666667</ele><time>2026-03-28T09:40:40Z</time></trkpt><trkpt lat="45.36695323001473" lon="10.755229880459312"><ele>94.33333333333333</ele><time>2026-03-28T09:40:41Z</time></trkpt><trkpt lat="45.367060637248215" lon="10.75544978540107"><ele>94.0</ele><time>2026-03-28T09:40:42Z</time></trkpt><trkpt lat="45.367160414546426" lon="10.755656157642603"><ele>93.66666666666666</ele><time>2026-03-28T09:40:43Z</time></trkpt><trkpt lat="45.36724835058237" lon="10.75584521286887"><ele>93.33333333333333</ele><time>2026-03-28T09:40:44Z</time></trkpt><trkpt lat="45.36734277824715" lon="10.756038682721266"><ele>93.0</ele><time>2026-03-28T09:40:45Z</time></trkpt><trkpt lat="45.367432821407064" lon="10.756228100637852"><ele>93.5</ele><time>2026-03-28T09:40:46Z</time></trkpt><trkpt lat="45.367519155801254" lon="10.756409303345448"><ele>94.0</ele><time>2026-03-28T09:40:47Z</time></trkpt><trkpt lat="45.36760601205985" lon="10.756574698796957"><ele>94.5</ele><time>2026-03-28T09:40:48Z</time></trkpt><trkpt lat="45.367684456632304" lon="10.756720401662093"><ele>95.0</ele><time>2026-03-28T09:40:49Z</time></trkpt><trkpt lat="45.36775806660085" lon="10.756861951534802"><ele>95.25</ele><time>2026-03-28T09:40:50Z</time></trkpt><trkpt lat="45.36780763627965" lon="10.757013060375463"><ele>95.5</ele><time>2026-03-28T09:40:51Z</time></trkpt><trkpt lat="45.36783697980513" lon="10.757189320853755"><ele>95.75</ele><time>2026-03-28T09:40:52Z</time></trkpt><trkpt lat="45.36784724687348" lon="10.757373972725201"><ele>96.0</ele><time>2026-03-28T09:40:53Z</time></trkpt><trkpt lat="45.36786343647638" lon="10.757567834378811"><ele>96.33333333333334</ele><time>2026-03-28T09:40:54Z</time></trkpt><trkpt lat="45.367887676019066" lon="10.75776819892559"><ele>96.66666666666667</ele><time>2026-03-28T09:40:55Z</time></trkpt><trkpt lat="45.36791584703018" lon="10.757975349600379"><ele>97.0</ele><time>2026-03-28T09:40:56Z</time></trkpt><trkpt lat="45.36794797714227" lon="10.758201488952345"><ele>97.0</ele><time>2026-03-28T09:40:57Z</time></trkpt><trkpt lat="45.36799750145989" lon="10.758450903961947"><ele>97.0</ele><time>2026-03-28T09:40:58Z</time></trkpt><trkpt lat="45.36805514746487" lon="10.758718667429886"><ele>97.0</ele><time>2026-03-28T09:40:59Z</time></trkpt><trkpt lat="45.36808446239049" lon="10.758983938239846"><ele>97.0</ele><time>2026-03-28T09:41:00Z</time></trkpt><trkpt lat="45.368122806749675" lon="10.759239948696917"><ele>97.0</ele><time>2026-03-28T09:41:01Z</time></trkpt><trkpt lat="45.36816713020748" lon="10.759509380361981"><ele>97.0</ele><time>2026-03-28T09:41:02Z</time></trkpt><trkpt lat="45.368203634773614" lon="10.759766002991116"><ele>97.0</ele><time>2026-03-28T09:41:03Z</time></trkpt><trkpt lat="45.36823668970156" lon="10.760014013030526"><ele>97.0</ele><time>2026-03-28T09:41:04Z</time></trkpt><trkpt lat="45.368280932516335" lon="10.760269666453107"><ele>97.0</ele><time>2026-03-28T09:41:05Z</time></trkpt><trkpt lat="45.368327895123336" lon="10.76050446654658"><ele>97.0</ele><time>2026-03-28T09:41:06Z</time></trkpt><trkpt lat="45.36837743195105" lon="10.760717365749445"><ele>97.0</ele><time>2026-03-28T09:41:07Z</time></trkpt><trkpt lat="45.36843299202271" lon="10.760912898483019"><ele>97.0</ele><time>2026-03-28T09:41:08Z</time></trkpt><trkpt lat="45.36848912458215" lon="10.761093466226157"><ele>97.0</ele><time>2026-03-28T09:41:09Z</time></trkpt><trkpt lat="45.368537622706825" lon="10.761249552032734"><ele>97.0</ele><time>2026-03-28T09:41:10Z</time></trkpt><trkpt lat="45.36858738706579" lon="10.761407745144638"><ele>97.0</ele><time>2026-03-28T09:41:11Z</time></trkpt><trkpt lat="45.36864395633065" lon="10.761577970874924"><ele>97.0</ele><time>2026-03-28T09:41:12Z</time></trkpt><trkpt lat="45.368704500012726" lon="10.76175441545538"><ele>97.0</ele><time>2026-03-28T09:41:13Z</time></trkpt><trkpt lat="45.36876035254313" lon="10.761941646992424"><ele>97.0</ele><time>2026-03-28T09:41:14Z</time></trkpt><trkpt lat="45.368822961766185" lon="10.762142990809531"><ele>97.0</ele><time>2026-03-28T09:41:15Z</time></trkpt><trkpt lat="45.368896159248266" lon="10.762353084779816"><ele>97.0</ele><time>2026-03-28T09:41:16Z</time></trkpt><trkpt lat="45.36897776958839" lon="10.76259311442388"><ele>96.66666666666667</ele><time>2026-03-28T09:41:17Z</time></trkpt><trkpt lat="45.36904782270054" lon="10.762856959579569"><ele>96.33333333333334</ele><time>2026-03-28T09:41:18Z</time></trkpt><trkpt lat="45.36911437464839" lon="10.763109985284164"><ele>96.0</ele><time>2026-03-28T09:41:19Z</time></trkpt><trkpt lat="45.369179817194386" lon="10.763350192349302"><ele>96.33333333333334</ele><time>2026-03-28T09:41:20Z</time></trkpt><trkpt lat="45.36923261773141" lon="10.76359064152321"><ele>96.66666666666667</ele><time>2026-03-28T09:41:21Z</time></trkpt><trkpt lat="45.3692617222623" lon="10.76380838422748"><ele>97.0</ele><time>2026-03-28T09:41:22Z</time></trkpt><trkpt lat="45.369261454262414" lon="10.764023642122124"><ele>97.0</ele><time>2026-03-28T09:41:23Z</time></trkpt><trkpt lat="45.36923698170967" lon="10.76423594069727"><ele>97.0</ele><time>2026-03-28T09:41:24Z</time></trkpt><trkpt lat="45.36921054855404" lon="10.764464677042946"><ele>97.0</ele><time>2026-03-28T09:41:25Z</time></trkpt><trkpt lat="45.36919848637744" lon="10.764690270124488"><ele>97.0</ele><time>2026-03-28T09:41:26Z</time></trkpt><trkpt lat="45.369205551084825" lon="10.764880896725908"><ele>97.0</ele><time>2026-03-28T09:41:27Z</time></trkpt><trkpt lat="45.3692147915013" lon="10.765038684505626"><ele>97.0</ele><time>2026-03-28T09:41:28Z</time></trkpt><trkpt lat="45.36921341488633" lon="10.765156511605314"><ele>97.0</ele><time>2026-03-28T09:41:29Z</time></trkpt><trkpt lat="45.36919042054766" lon="10.765277683689717"><ele>97.0</ele><time>2026-03-28T09:41:30Z</time></trkpt><trkpt lat="45.36915085239489" lon="10.765412151651416"><ele>97.0</ele><time>2026-03-28T09:41:31Z</time></trkpt><trkpt lat="45.36910173955519" lon="10.765560745700302"><ele>97.0</ele><time>2026-03-28T09:41:32Z</time></trkpt><trkpt lat="45.36903978284704" lon="10.765719247179243"><ele>97.0</ele><time>2026-03-28T09:41:33Z</time></trkpt><trkpt lat="45.36896824865527" lon="10.765895032127425"><ele>97.0</ele><time>2026-03-28T09:41:34Z</time></trkpt><trkpt lat="45.368891827766305" lon="10.766080776180072"><ele>95.66666666666667</ele><time>2026-03-28T09:41:35Z</time></trkpt><trkpt lat="45.3688195111197" lon="10.766278775452228"><ele>94.33333333333334</ele><time>2026-03-28T09:41:36Z</time></trkpt><trkpt lat="45.368749058959544" lon="10.766496167179593"><ele>93.0</ele><time>2026-03-28T09:41:37Z</time></trkpt><trkpt lat="45.368680110515676" lon="10.766718288773344"><ele>93.0</ele><time>2026-03-28T09:41:38Z</time></trkpt><trkpt lat="45.36862410242342" lon="10.76692409848199"><ele>93.0</ele><time>2026-03-28T09:41:39Z</time></trkpt><trkpt lat="45.36857765328202" lon="10.767123503890105"><ele>93.0</ele><time>2026-03-28T09:41:40Z</time></trkpt><trkpt lat="45.36852916716405" lon="10.76732708310172"><ele>93.0</ele><time>2026-03-28T09:41:41Z</time></trkpt><trkpt lat="45.368482330454256" lon="10.767521835395387"><ele>93.0</ele><time>2026-03-28T09:41:42Z</time></trkpt><trkpt lat="45.36844722157582" lon="10.767699417679294"><ele>93.0</ele><time>2026-03-28T09:41:43Z</time></trkpt><trkpt lat="45.36839679339621" lon="10.76787848114476"><ele>93.0</ele><time>2026-03-28T09:41:44Z</time></trkpt><trkpt lat="45.36838203437314" lon="10.768075590309953"><ele>93.0</ele><time>2026-03-28T09:41:45Z</time></trkpt><trkpt lat="45.368361260504884" lon="10.768261881025559"><ele>93.0</ele><time>2026-03-28T09:41:46Z</time></trkpt><trkpt lat="45.368345233944275" lon="10.768443527040022"><ele>93.0</ele><time>2026-03-28T09:41:47Z</time></trkpt><trkpt lat="45.36833028890094" lon="10.768635110736902"><ele>93.0</ele><time>2026-03-28T09:41:48Z</time></trkpt><trkpt lat="45.36830906192088" lon="10.768836211794701"><ele>93.25</ele><time>2026-03-28T09:41:49Z</time></trkpt><trkpt lat="45.36829371504521" lon="10.769037515432881"><ele>93.5</ele><time>2026-03-28T09:41:50Z</time></trkpt><trkpt lat="45.36826966347712" lon="10.769242441604854"><ele>93.75</ele><time>2026-03-28T09:41:51Z</time></trkpt><trkpt lat="45.36825903907173" lon="10.769448144726697"><ele>94.0</ele><time>2026-03-28T09:41:52Z</time></trkpt><trkpt lat="45.36824549516908" lon="10.769661927418307"><ele>94.25</ele><time>2026-03-28T09:41:53Z</time></trkpt><trkpt lat="45.36827142562651" lon="10.769885347940848"><ele>94.5</ele><time>2026-03-28T09:41:54Z</time></trkpt><trkpt lat="45.36828085945475" lon="10.770091788913634"><ele>94.75</ele><time>2026-03-28T09:41:55Z</time></trkpt><trkpt lat="45.368283474650504" lon="10.770288514657834"><ele>95.0</ele><time>2026-03-28T09:41:56Z</time></trkpt><trkpt lat="45.36825395418346" lon="10.770489885645826"><ele>95.0</ele><time>2026-03-28T09:41:57Z</time></trkpt><trkpt lat="45.368227633599496" lon="10.770699045377553"><ele>95.0</ele><time>2026-03-28T09:41:58Z</time></trkpt><trkpt lat="45.36819632418813" lon="10.770908324671788"><ele>95.0</ele><time>2026-03-28T09:41:59Z</time></trkpt><trkpt lat="45.36816498405632" lon="10.771112529286196"><ele>95.0</ele><time>2026-03-28T09:42:00Z</time></trkpt><trkpt lat="45.36813599183985" lon="10.77128352944499"><ele>95.5</ele><time>2026-03-28T09:42:01Z</time></trkpt><trkpt lat="45.36809680287833" lon="10.77145174030345"><ele>96.0</ele><time>2026-03-28T09:42:02Z</time></trkpt><trkpt lat="45.36803830733511" lon="10.771629471435407"><ele>96.5</ele><time>2026-03-28T09:42:03Z</time></trkpt><trkpt lat="45.367973089352475" lon="10.77182410962214"><ele>97.0</ele><time>2026-03-28T09:42:04Z</time></trkpt><trkpt lat="45.36793178193507" lon="10.77203205086152"><ele>95.33333333333334</ele><time>2026-03-28T09:42:05Z</time></trkpt><trkpt lat="45.3678829136571" lon="10.772247172501975"><ele>93.66666666666667</ele><time>2026-03-28T09:42:06Z</time></trkpt><trkpt lat="45.36784216996678" lon="10.772464658742065"><ele>92.0</ele><time>2026-03-28T09:42:07Z</time></trkpt><trkpt lat="45.36780623944963" lon="10.772662811008415"><ele>91.75</ele><time>2026-03-28T09:42:08Z</time></trkpt><trkpt lat="45.36777929682298" lon="10.77287877875723"><ele>91.5</ele><time>2026-03-28T09:42:09Z</time></trkpt><trkpt lat="45.36775803368049" lon="10.773091318359532"><ele>91.25</ele><time>2026-03-28T09:42:10Z</time></trkpt><trkpt lat="45.36773584219384" lon="10.773279529456802"><ele>91.0</ele><time>2026-03-28T09:42:11Z</time></trkpt><trkpt lat="45.367714924267126" lon="10.77346833120139"><ele>91.75</ele><time>2026-03-28T09:42:12Z</time></trkpt><trkpt lat="45.36768456522329" lon="10.773661976189086"><ele>92.5</ele><time>2026-03-28T09:42:13Z</time></trkpt><trkpt lat="45.3676660075419" lon="10.773856473053803"><ele>93.25</ele><time>2026-03-28T09:42:14Z</time></trkpt><trkpt lat="45.36764161942268" lon="10.774058043018293"><ele>94.0</ele><time>2026-03-28T09:42:15Z</time></trkpt><trkpt lat="45.367620161926425" lon="10.774273303293107"><ele>94.0</ele><time>2026-03-28T09:42:16Z</time></trkpt><trkpt lat="45.36759518407681" lon="10.774486344497328"><ele>94.0</ele><time>2026-03-28T09:42:17Z</time></trkpt><trkpt lat="45.36757229844191" lon="10.774710388813128"><ele>94.0</ele><time>2026-03-28T09:42:18Z</time></trkpt><trkpt lat="45.36755317531511" lon="10.77493065935604"><ele>94.0</ele><time>2026-03-28T09:42:19Z</time></trkpt><trkpt lat="45.36753430160149" lon="10.775163463148164"><ele>94.0</ele><time>2026-03-28T09:42:20Z</time></trkpt><trkpt lat="45.367512221638165" lon="10.775393972207974"><ele>94.0</ele><time>2026-03-28T09:42:21Z</time></trkpt><trkpt lat="45.367488012112744" lon="10.77562299393135"><ele>94.0</ele><time>2026-03-28T09:42:22Z</time></trkpt><trkpt lat="45.36746158428862" lon="10.775831299496364"><ele>94.0</ele><time>2026-03-28T09:42:23Z</time></trkpt><trkpt lat="45.36745441762399" lon="10.776053360913583"><ele>94.0</ele><time>2026-03-28T09:42:24Z</time></trkpt><trkpt lat="45.3674225065741" lon="10.776234524005723"><ele>94.0</ele><time>2026-03-28T09:42:25Z</time></trkpt><trkpt lat="45.367407237431294" lon="10.776410633509458"><ele>94.25</ele><time>2026-03-28T09:42:26Z</time></trkpt><trkpt lat="45.36741156825789" lon="10.776575164574842"><ele>94.5</ele><time>2026-03-28T09:42:27Z</time></trkpt><trkpt lat="45.36739466679221" lon="10.776761480662008"><ele>94.75</ele><time>2026-03-28T09:42:28Z</time></trkpt><trkpt lat="45.367394540733976" lon="10.776954549378173"><ele>95.0</ele><time>2026-03-28T09:42:29Z</time></trkpt><trkpt lat="45.36739931570577" lon="10.777151843967031"><ele>94.5</ele><time>2026-03-28T09:42:30Z</time></trkpt><trkpt lat="45.36741206610911" lon="10.77734862692865"><ele>94.0</ele><time>2026-03-28T09:42:31Z</time></trkpt><trkpt lat="45.36742898649166" lon="10.777525488630898"><ele>93.5</ele><time>2026-03-28T09:42:32Z</time></trkpt><trkpt lat="45.36745042013861" lon="10.777694501436164"><ele>93.0</ele><time>2026-03-28T09:42:33Z</time></trkpt><trkpt lat="45.36747535033384" lon="10.777864529697116"><ele>92.4</ele><time>2026-03-28T09:42:34Z</time></trkpt><trkpt lat="45.36750156969363" lon="10.778029303668127"><ele>91.80000000000001</ele><time>2026-03-28T09:42:35Z</time></trkpt><trkpt lat="45.3675164469554" lon="10.778188686918515"><ele>91.2</ele><time>2026-03-28T09:42:36Z</time></trkpt><trkpt lat="45.36751124793218" lon="10.778338817783933"><ele>90.6</ele><time>2026-03-28T09:42:37Z</time></trkpt><trkpt lat="45.36746598855798" lon="10.778484596927218"><ele>90.0</ele><time>2026-03-28T09:42:38Z</time></trkpt><trkpt lat="45.367426039688695" lon="10.778659181940268"><ele>89.5</ele><time>2026-03-28T09:42:39Z</time></trkpt><trkpt lat="45.36738259923723" lon="10.77884456738248"><ele>89.0</ele><time>2026-03-28T09:42:40Z</time></trkpt><trkpt lat="45.3673505584146" lon="10.779036058319734"><ele>88.5</ele><time>2026-03-28T09:42:41Z</time></trkpt><trkpt lat="45.36730872070452" lon="10.779186959108387"><ele>88.0</ele><time>2026-03-28T09:42:42Z</time></trkpt><trkpt lat="45.3672783345989" lon="10.779311426062373"><ele>87.83333333333333</ele><time>2026-03-28T09:42:43Z</time></trkpt><trkpt lat="45.367252014382075" lon="10.779414492451467"><ele>87.66666666666666</ele><time>2026-03-28T09:42:44Z</time></trkpt><trkpt lat="45.36723637401823" lon="10.779569724771262"><ele>87.5</ele><time>2026-03-28T09:42:46Z</time></trkpt><trkpt lat="45.36730114451307" lon="10.779654978768004"><ele>87.33333333333333</ele><time>2026-03-28T09:42:48Z</time></trkpt><trkpt lat="45.36736272478964" lon="10.779684556521774"><ele>87.16666666666667</ele><time>2026-03-28T09:42:49Z</time></trkpt><trkpt lat="45.36743838199215" lon="10.779707890516827"><ele>87.0</ele><time>2026-03-28T09:42:50Z</time></trkpt><trkpt lat="45.367534136152955" lon="10.779725152084879"><ele>87.0</ele><time>2026-03-28T09:42:51Z</time></trkpt><trkpt lat="45.3676422684634" lon="10.779752074165208"><ele>87.0</ele><time>2026-03-28T09:42:52Z</time></trkpt><trkpt lat="45.367750856046975" lon="10.779792670984737"><ele>87.0</ele><time>2026-03-28T09:42:53Z</time></trkpt><trkpt lat="45.36787232761586" lon="10.77984390766517"><ele>87.0</ele><time>2026-03-28T09:42:54Z</time></trkpt><trkpt lat="45.367990588767334" lon="10.779893101560074"><ele>88.0</ele><time>2026-03-28T09:42:55Z</time></trkpt><trkpt lat="45.36811199061032" lon="10.779938029642514"><ele>89.0</ele><time>2026-03-28T09:42:56Z</time></trkpt><trkpt lat="45.36823766342644" lon="10.779986896384248"><ele>90.0</ele><time>2026-03-28T09:42:57Z</time></trkpt><trkpt lat="45.368374798134276" lon="10.780037055650041"><ele>91.0</ele><time>2026-03-28T09:42:58Z</time></trkpt><trkpt lat="45.368505359199126" lon="10.780087224798468"><ele>91.0</ele><time>2026-03-28T09:42:59Z</time></trkpt><trkpt lat="45.36864168786833" lon="10.780132423112612"><ele>91.0</ele><time>2026-03-28T09:43:00Z</time></trkpt><trkpt lat="45.36878019792067" lon="10.780184662465985"><ele>91.0</ele><time>2026-03-28T09:43:01Z</time></trkpt><trkpt lat="45.36891227547875" lon="10.780226691824165"><ele>91.0</ele><time>2026-03-28T09:43:02Z</time></trkpt><trkpt lat="45.3690427648711" lon="10.780277538994223"><ele>91.25</ele><time>2026-03-28T09:43:03Z</time></trkpt><trkpt lat="45.36916832907313" lon="10.78032414594333"><ele>91.5</ele><time>2026-03-28T09:43:04Z</time></trkpt><trkpt lat="45.36929504895554" lon="10.780382873783234"><ele>91.75</ele><time>2026-03-28T09:43:05Z</time></trkpt><trkpt lat="45.36941949582316" lon="10.780443370112497"><ele>92.0</ele><time>2026-03-28T09:43:06Z</time></trkpt><trkpt lat="45.3695419276211" lon="10.780498016908616"><ele>92.0</ele><time>2026-03-28T09:43:07Z</time></trkpt><trkpt lat="45.36966564176509" lon="10.780555178526978"><ele>92.0</ele><time>2026-03-28T09:43:08Z</time></trkpt><trkpt lat="45.36977404344091" lon="10.78061453698694"><ele>92.0</ele><time>2026-03-28T09:43:09Z</time></trkpt><trkpt lat="45.36988054711069" lon="10.780685074964586"><ele>92.0</ele><time>2026-03-28T09:43:10Z</time></trkpt><trkpt lat="45.36998190287797" lon="10.780767155691917"><ele>92.0</ele><time>2026-03-28T09:43:11Z</time></trkpt><trkpt lat="45.37006662485579" lon="10.780860739732212"><ele>92.0</ele><time>2026-03-28T09:43:12Z</time></trkpt><trkpt lat="45.370137057909815" lon="10.780975821164445"><ele>92.0</ele><time>2026-03-28T09:43:13Z</time></trkpt><trkpt lat="45.37019843096945" lon="10.781094570735904"><ele>92.0</ele><time>2026-03-28T09:43:14Z</time></trkpt><trkpt lat="45.37025040018207" lon="10.781203244275366"><ele>92.0</ele><time>2026-03-28T09:43:15Z</time></trkpt><trkpt lat="45.37031660354171" lon="10.781275590843508"><ele>92.0</ele><time>2026-03-28T09:43:16Z</time></trkpt><trkpt lat="45.37040846529712" lon="10.78131867223412"><ele>92.0</ele><time>2026-03-28T09:43:17Z</time></trkpt><trkpt lat="45.370502761524655" lon="10.78134805873188"><ele>92.0</ele><time>2026-03-28T09:43:18Z</time></trkpt><trkpt lat="45.370669912221445" lon="10.781386012058357"><ele>92.0</ele><time>2026-03-28T09:43:20Z</time></trkpt><trkpt lat="45.370754436759675" lon="10.781419361654402"><ele>91.6</ele><time>2026-03-28T09:43:21Z</time></trkpt><trkpt lat="45.37084157767405" lon="10.781454054683559"><ele>91.19999999999999</ele><time>2026-03-28T09:43:22Z</time></trkpt><trkpt lat="45.370943904534016" lon="10.78151489182302"><ele>90.8</ele><time>2026-03-28T09:43:23Z</time></trkpt><trkpt lat="45.37103239685798" lon="10.781576438436689"><ele>90.4</ele><time>2026-03-28T09:43:24Z</time></trkpt><trkpt lat="45.37112920274609" lon="10.781669017040038"><ele>90.0</ele><time>2026-03-28T09:43:25Z</time></trkpt><trkpt lat="45.37120369378961" lon="10.781792070201375"><ele>89.25</ele><time>2026-03-28T09:43:26Z</time></trkpt><trkpt lat="45.37129721502966" lon="10.781874802132377"><ele>88.5</ele><time>2026-03-28T09:43:27Z</time></trkpt><trkpt lat="45.37137502690515" lon="10.781993025109944"><ele>87.75</ele><time>2026-03-28T09:43:28Z</time></trkpt><trkpt lat="45.37148173495088" lon="10.782099924293087"><ele>87.0</ele><time>2026-03-28T09:43:29Z</time></trkpt><trkpt lat="45.37159804791777" lon="10.782185151346209"><ele>87.0</ele><time>2026-03-28T09:43:30Z</time></trkpt><trkpt lat="45.37170977551005" lon="10.78224741506455"><ele>87.0</ele><time>2026-03-28T09:43:31Z</time></trkpt><trkpt lat="45.37179458072684" lon="10.782310727549467"><ele>87.0</ele><time>2026-03-28T09:43:32Z</time></trkpt><trkpt lat="45.37187490703199" lon="10.782382261102898"><ele>87.0</ele><time>2026-03-28T09:43:33Z</time></trkpt><trkpt lat="45.37195225800842" lon="10.78247005163728"><ele>87.0</ele><time>2026-03-28T09:43:34Z</time></trkpt><trkpt lat="45.372044916923386" lon="10.782557129786168"><ele>87.0</ele><time>2026-03-28T09:43:35Z</time></trkpt><trkpt lat="45.37214268807802" lon="10.782635986892139"><ele>87.0</ele><time>2026-03-28T09:43:36Z</time></trkpt><trkpt lat="45.372222562588966" lon="10.782748604718403"><ele>87.0</ele><time>2026-03-28T09:43:37Z</time></trkpt><trkpt lat="45.372308092149574" lon="10.782863508087306"><ele>87.0</ele><time>2026-03-28T09:43:38Z</time></trkpt><trkpt lat="45.372403335781804" lon="10.782977444628683"><ele>85.25</ele><time>2026-03-28T09:43:39Z</time></trkpt><trkpt lat="45.37250703343128" lon="10.783112785209303"><ele>83.5</ele><time>2026-03-28T09:43:40Z</time></trkpt><trkpt lat="45.372614761350555" lon="10.783245377133824"><ele>81.75</ele><time>2026-03-28T09:43:41Z</time></trkpt><trkpt lat="45.37273111501483" lon="10.78337668783349"><ele>80.0</ele><time>2026-03-28T09:43:42Z</time></trkpt><trkpt lat="45.37284690075922" lon="10.783486906748758"><ele>77.75</ele><time>2026-03-28T09:43:43Z</time></trkpt><trkpt lat="45.37296294397468" lon="10.78357249141723"><ele>75.5</ele><time>2026-03-28T09:43:44Z</time></trkpt><trkpt lat="45.37307261382664" lon="10.78363930560719"><ele>73.25</ele><time>2026-03-28T09:43:45Z</time></trkpt><trkpt lat="45.37318436749861" lon="10.783703183064052"><ele>71.0</ele><time>2026-03-28T09:43:46Z</time></trkpt><trkpt lat="45.37331990301082" lon="10.783740571476624"><ele>70.66666666666667</ele><time>2026-03-28T09:43:47Z</time></trkpt><trkpt lat="45.373483588511235" lon="10.783746907022909"><ele>70.33333333333333</ele><time>2026-03-28T09:43:48Z</time></trkpt><trkpt lat="45.373662992783096" lon="10.783751200840696"><ele>70.0</ele><time>2026-03-28T09:43:49Z</time></trkpt><trkpt lat="45.373829820481404" lon="10.78376324242333"><ele>70.0</ele><time>2026-03-28T09:43:50Z</time></trkpt><trkpt lat="45.373972355315985" lon="10.78377686897562"><ele>70.0</ele><time>2026-03-28T09:43:51Z</time></trkpt><trkpt lat="45.374101607465406" lon="10.78379655990195"><ele>70.0</ele><time>2026-03-28T09:43:52Z</time></trkpt><trkpt lat="45.374216908617534" lon="10.783812382138185"><ele>70.0</ele><time>2026-03-28T09:43:53Z</time></trkpt><trkpt lat="45.3743026420963" lon="10.78382308648198"><ele>70.0</ele><time>2026-03-28T09:43:54Z</time></trkpt><trkpt lat="45.37436799360391" lon="10.783837085906189"><ele>70.0</ele><time>2026-03-28T09:43:55Z</time></trkpt><trkpt lat="45.37445101918394" lon="10.78385164925721"><ele>70.0</ele><time>2026-03-28T09:43:57Z</time></trkpt><trkpt lat="45.37455671913418" lon="10.783865489477867"><ele>70.0</ele><time>2026-03-28T09:44:00Z</time></trkpt><trkpt lat="45.374629941897645" lon="10.78365432080793"><ele>70.0</ele><time>2026-03-28T09:44:01Z</time></trkpt><trkpt lat="45.37470557742724" lon="10.783522704581971"><ele>70.25</ele><time>2026-03-28T09:44:02Z</time></trkpt><trkpt lat="45.374799913236146" lon="10.783379977361768"><ele>70.5</ele><time>2026-03-28T09:44:03Z</time></trkpt><trkpt lat="45.374907531912484" lon="10.783246554638264"><ele>70.75</ele><time>2026-03-28T09:44:04Z</time></trkpt><trkpt lat="45.37504785605008" lon="10.78313281117855"><ele>71.0</ele><time>2026-03-28T09:44:05Z</time></trkpt><trkpt lat="45.37520777841183" lon="10.783057831935805"><ele>71.0</ele><time>2026-03-28T09:44:06Z</time></trkpt><trkpt lat="45.375385548779164" lon="10.783020890219728"><ele>71.0</ele><time>2026-03-28T09:44:07Z</time></trkpt><trkpt lat="45.37557269607039" lon="10.782973058397452"><ele>71.0</ele><time>2026-03-28T09:44:08Z</time></trkpt><trkpt lat="45.37573772330603" lon="10.782918056617602"><ele>70.5</ele><time>2026-03-28T09:44:09Z</time></trkpt><trkpt lat="45.37587477086478" lon="10.78285499461022"><ele>70.0</ele><time>2026-03-28T09:44:10Z</time></trkpt><trkpt lat="45.37600596837696" lon="10.782757376955255"><ele>69.5</ele><time>2026-03-28T09:44:11Z</time></trkpt><trkpt lat="45.376130306489785" lon="10.782627216979241"><ele>69.0</ele><time>2026-03-28T09:44:12Z</time></trkpt><trkpt lat="45.37624880760405" lon="10.782459900574306"><ele>69.33333333333333</ele><time>2026-03-28T09:44:13Z</time></trkpt><trkpt lat="45.37635653818186" lon="10.782255562467865"><ele>69.66666666666666</ele><time>2026-03-28T09:44:14Z</time></trkpt><trkpt lat="45.37646694883781" lon="10.782029167089565"><ele>70.0</ele><time>2026-03-28T09:44:15Z</time></trkpt><trkpt lat="45.37657457369099" lon="10.781792796890656"><ele>71.33333333333333</ele><time>2026-03-28T09:44:16Z</time></trkpt><trkpt lat="45.37667168924936" lon="10.781552686097163"><ele>72.66666666666667</ele><time>2026-03-28T09:44:17Z</time></trkpt><trkpt lat="45.37675439028471" lon="10.781324005597"><ele>74.0</ele><time>2026-03-28T09:44:18Z</time></trkpt><trkpt lat="45.37682649915393" lon="10.781081229889383"><ele>74.66666666666667</ele><time>2026-03-28T09:44:19Z</time></trkpt><trkpt lat="45.376887845978565" lon="10.780837580959506"><ele>75.33333333333333</ele><time>2026-03-28T09:44:20Z</time></trkpt><trkpt lat="45.37693771402761" lon="10.780581612012696"><ele>76.0</ele><time>2026-03-28T09:44:21Z</time></trkpt><trkpt lat="45.376975433757224" lon="10.780311282572974"><ele>78.66666666666666</ele><time>2026-03-28T09:44:22Z</time></trkpt><trkpt lat="45.377032162857176" lon="10.780050759594785"><ele>81.33333333333333</ele><time>2026-03-28T09:44:23Z</time></trkpt><trkpt lat="45.37706033260043" lon="10.779791059146481"><ele>84.0</ele><time>2026-03-28T09:44:24Z</time></trkpt><trkpt lat="45.377111047814914" lon="10.779528138920314"><ele>81.66666666666667</ele><time>2026-03-28T09:44:25Z</time></trkpt><trkpt lat="45.37718757956782" lon="10.779275613371732"><ele>79.33333333333334</ele><time>2026-03-28T09:44:26Z</time></trkpt><trkpt lat="45.37726524861712" lon="10.779002809249821"><ele>77.0</ele><time>2026-03-28T09:44:27Z</time></trkpt><trkpt lat="45.377335960917065" lon="10.7787190636111"><ele>77.66666666666667</ele><time>2026-03-28T09:44:28Z</time></trkpt><trkpt lat="45.37742792539917" lon="10.778446738263963"><ele>78.33333333333333</ele><time>2026-03-28T09:44:29Z</time></trkpt><trkpt lat="45.37751175600979" lon="10.778184518342206"><ele>79.0</ele><time>2026-03-28T09:44:30Z</time></trkpt><trkpt lat="45.37760350899157" lon="10.777942614411904"><ele>79.0</ele><time>2026-03-28T09:44:31Z</time></trkpt><trkpt lat="45.37770319719568" lon="10.777730942506125"><ele>79.0</ele><time>2026-03-28T09:44:32Z</time></trkpt><trkpt lat="45.37778584327072" lon="10.777561747945578"><ele>79.0</ele><time>2026-03-28T09:44:33Z</time></trkpt><trkpt lat="45.37784807922377" lon="10.777433469763068"><ele>79.0</ele><time>2026-03-28T09:44:34Z</time></trkpt><trkpt lat="45.37789882227449" lon="10.777330889908404"><ele>78.2</ele><time>2026-03-28T09:44:35Z</time></trkpt><trkpt lat="45.37795267041109" lon="10.777244820537758"><ele>77.4</ele><time>2026-03-28T09:44:36Z</time></trkpt><trkpt lat="45.37803047101505" lon="10.77717942357598"><ele>76.6</ele><time>2026-03-28T09:44:37Z</time></trkpt><trkpt lat="45.37813239416343" lon="10.777145510510394"><ele>75.8</ele><time>2026-03-28T09:44:38Z</time></trkpt><trkpt lat="45.37823784218911" lon="10.777169664343901"><ele>75.0</ele><time>2026-03-28T09:44:39Z</time></trkpt><trkpt lat="45.37835061090582" lon="10.777247859997992"><ele>75.0</ele><time>2026-03-28T09:44:40Z</time></trkpt><trkpt lat="45.378472032428306" lon="10.777350813160199"><ele>75.0</ele><time>2026-03-28T09:44:41Z</time></trkpt><trkpt lat="45.37858951078435" lon="10.777425762472213"><ele>75.0</ele><time>2026-03-28T09:44:42Z</time></trkpt><trkpt lat="45.37870381092485" lon="10.777446003437658"><ele>75.0</ele><time>2026-03-28T09:44:43Z</time></trkpt><trkpt lat="45.37883245877578" lon="10.777411542873915"><ele>74.33333333333333</ele><time>2026-03-28T09:44:44Z</time></trkpt><trkpt lat="45.378976809872576" lon="10.777321394250405"><ele>73.66666666666666</ele><time>2026-03-28T09:44:45Z</time></trkpt><trkpt lat="45.37912684504488" lon="10.77721502360161"><ele>73.0</ele><time>2026-03-28T09:44:46Z</time></trkpt><trkpt lat="45.37929404487401" lon="10.777104297448396"><ele>73.0</ele><time>2026-03-28T09:44:47Z</time></trkpt><trkpt lat="45.37947531647623" lon="10.776985635468254"><ele>73.0</ele><time>2026-03-28T09:44:48Z</time></trkpt><trkpt lat="45.37964866210904" lon="10.776865686572608"><ele>73.0</ele><time>2026-03-28T09:44:49Z</time></trkpt><trkpt lat="45.37981880063963" lon="10.776730494737523"><ele>74.33333333333333</ele><time>2026-03-28T09:44:50Z</time></trkpt><trkpt lat="45.37997555376498" lon="10.77658151428108"><ele>75.66666666666667</ele><time>2026-03-28T09:44:51Z</time></trkpt><trkpt lat="45.380122177425115" lon="10.776452137598753"><ele>77.0</ele><time>2026-03-28T09:44:52Z</time></trkpt><trkpt lat="45.38030431536364" lon="10.776364872028582"><ele>77.0</ele><time>2026-03-28T09:44:53Z</time></trkpt><trkpt lat="45.38047227428191" lon="10.776277730599437"><ele>77.0</ele><time>2026-03-28T09:44:54Z</time></trkpt><trkpt lat="45.380662106522536" lon="10.776187054548096"><ele>77.0</ele><time>2026-03-28T09:44:55Z</time></trkpt><trkpt lat="45.380825446781905" lon="10.776089221229027"><ele>76.66666666666667</ele><time>2026-03-28T09:44:56Z</time></trkpt><trkpt lat="45.38099799462942" lon="10.776023514875739"><ele>76.33333333333333</ele><time>2026-03-28T09:44:57Z</time></trkpt><trkpt lat="45.38115479330915" lon="10.775948839600279"><ele>76.0</ele><time>2026-03-28T09:44:58Z</time></trkpt><trkpt lat="45.381306946579365" lon="10.775859816817771"><ele>76.75</ele><time>2026-03-28T09:44:59Z</time></trkpt><trkpt lat="45.38143890146774" lon="10.775770155226398"><ele>77.5</ele><time>2026-03-28T09:45:00Z</time></trkpt><trkpt lat="45.381570880627244" lon="10.77568282848472"><ele>78.25</ele><time>2026-03-28T09:45:01Z</time></trkpt><trkpt lat="45.38168381384" lon="10.775611381243644"><ele>79.0</ele><time>2026-03-28T09:45:02Z</time></trkpt><trkpt lat="45.38178482966715" lon="10.775525679233532"><ele>79.0</ele><time>2026-03-28T09:45:03Z</time></trkpt><trkpt lat="45.3818862100991" lon="10.775453245652768"><ele>79.0</ele><time>2026-03-28T09:45:04Z</time></trkpt><trkpt lat="45.381949219271675" lon="10.7753157333101"><ele>79.0</ele><time>2026-03-28T09:45:05Z</time></trkpt><trkpt lat="45.381947802704865" lon="10.775129642589329"><ele>79.0</ele><time>2026-03-28T09:45:06Z</time></trkpt><trkpt lat="45.381887405201205" lon="10.774949776746924"><ele>80.5</ele><time>2026-03-28T09:45:07Z</time></trkpt><trkpt lat="45.3818262537414" lon="10.774772847727817"><ele>82.0</ele><time>2026-03-28T09:45:08Z</time></trkpt><trkpt lat="45.381756605873655" lon="10.774584271628122"><ele>83.5</ele><time>2026-03-28T09:45:09Z</time></trkpt><trkpt lat="45.38169220617985" lon="10.774386530901362"><ele>85.0</ele><time>2026-03-28T09:45:10Z</time></trkpt><trkpt lat="45.381678197507" lon="10.774195939274646"><ele>87.5</ele><time>2026-03-28T09:45:11Z</time></trkpt><trkpt lat="45.381684093952195" lon="10.774005896280064"><ele>90.0</ele><time>2026-03-28T09:45:12Z</time></trkpt><trkpt lat="45.38167739356067" lon="10.773787067869785"><ele>92.5</ele><time>2026-03-28T09:45:13Z</time></trkpt><trkpt lat="45.3816798559838" lon="10.773563305815742"><ele>95.0</ele><time>2026-03-28T09:45:14Z</time></trkpt><trkpt lat="45.38166847517876" lon="10.77336683269257"><ele>96.0</ele><time>2026-03-28T09:45:15Z</time></trkpt><trkpt lat="45.38165905736623" lon="10.773196468559684"><ele>97.0</ele><time>2026-03-28T09:45:16Z</time></trkpt><trkpt lat="45.38167034871726" lon="10.773019726776129"><ele>98.0</ele><time>2026-03-28T09:45:17Z</time></trkpt><trkpt lat="45.381709239824254" lon="10.77283112116563"><ele>99.0</ele><time>2026-03-28T09:45:18Z</time></trkpt><trkpt lat="45.381767788546334" lon="10.772627159842198"><ele>99.25</ele><time>2026-03-28T09:45:19Z</time></trkpt><trkpt lat="45.38183560460916" lon="10.772423554268476"><ele>99.5</ele><time>2026-03-28T09:45:20Z</time></trkpt><trkpt lat="45.38190090916181" lon="10.77222944876058"><ele>99.75</ele><time>2026-03-28T09:45:21Z</time></trkpt><trkpt lat="45.38195203346863" lon="10.772061201887496"><ele>100.0</ele><time>2026-03-28T09:45:22Z</time></trkpt><trkpt lat="45.38199654399629" lon="10.771900624150497"><ele>100.5</ele><time>2026-03-28T09:45:23Z</time></trkpt><trkpt lat="45.38204575310121" lon="10.77171860873215"><ele>101.0</ele><time>2026-03-28T09:45:24Z</time></trkpt><trkpt lat="45.38212115396171" lon="10.771544690582367"><ele>101.5</ele><time>2026-03-28T09:45:25Z</time></trkpt><trkpt lat="45.38217774672054" lon="10.771370761359965"><ele>102.0</ele><time>2026-03-28T09:45:26Z</time></trkpt><trkpt lat="45.382262733277024" lon="10.771227168090764"><ele>103.75</ele><time>2026-03-28T09:45:27Z</time></trkpt><trkpt lat="45.38236660528618" lon="10.771101604204725"><ele>105.5</ele><time>2026-03-28T09:45:28Z</time></trkpt><trkpt lat="45.382464421308775" lon="10.770971969827135"><ele>107.25</ele><time>2026-03-28T09:45:29Z</time></trkpt><trkpt lat="45.382545475889614" lon="10.77085090509409"><ele>109.0</ele><time>2026-03-28T09:45:30Z</time></trkpt><trkpt lat="45.38261577158137" lon="10.770741792738622"><ele>109.2</ele><time>2026-03-28T09:45:31Z</time></trkpt><trkpt lat="45.38266357713805" lon="10.770640341981853"><ele>109.4</ele><time>2026-03-28T09:45:32Z</time></trkpt><trkpt lat="45.38269430461535" lon="10.770551304129048"><ele>109.6</ele><time>2026-03-28T09:45:33Z</time></trkpt><trkpt lat="45.38275780803348" lon="10.770468544721725"><ele>109.8</ele><time>2026-03-28T09:45:35Z</time></trkpt><trkpt lat="45.38284880603614" lon="10.770634755915971"><ele>110.0</ele><time>2026-03-28T09:45:37Z</time></trkpt><trkpt lat="45.382909306805026" lon="10.770728954890892"><ele>110.0</ele><time>2026-03-28T09:45:38Z</time></trkpt><trkpt lat="45.38295615066961" lon="10.77084275447691"><ele>110.0</ele><time>2026-03-28T09:45:39Z</time></trkpt><trkpt lat="45.38302497497033" lon="10.77097830647757"><ele>110.0</ele><time>2026-03-28T09:45:40Z</time></trkpt><trkpt lat="45.383110798890044" lon="10.771142487020244"><ele>110.0</ele><time>2026-03-28T09:45:41Z</time></trkpt><trkpt lat="45.38320354000286" lon="10.771306987356345"><ele>111.0</ele><time>2026-03-28T09:45:42Z</time></trkpt><trkpt lat="45.383306263672004" lon="10.77149513944879"><ele>112.0</ele><time>2026-03-28T09:45:43Z</time></trkpt><trkpt lat="45.38343571833061" lon="10.771660023954471"><ele>113.0</ele><time>2026-03-28T09:45:44Z</time></trkpt><trkpt lat="45.383592330605865" lon="10.771842030692987"><ele>112.0</ele><time>2026-03-28T09:45:45Z</time></trkpt><trkpt lat="45.38374042102061" lon="10.772006850653325"><ele>111.0</ele><time>2026-03-28T09:45:46Z</time></trkpt><trkpt lat="45.383876916022594" lon="10.772148159772279"><ele>110.0</ele><time>2026-03-28T09:45:47Z</time></trkpt><trkpt lat="45.38400392577054" lon="10.772283116143399"><ele>110.25</ele><time>2026-03-28T09:45:48Z</time></trkpt><trkpt lat="45.384117748693754" lon="10.772397316869117"><ele>110.5</ele><time>2026-03-28T09:45:49Z</time></trkpt><trkpt lat="45.384223554059844" lon="10.772508427054552"><ele>110.75</ele><time>2026-03-28T09:45:50Z</time></trkpt><trkpt lat="45.384311141751695" lon="10.77261146685559"><ele>111.0</ele><time>2026-03-28T09:45:51Z</time></trkpt><trkpt lat="45.384382742079026" lon="10.77269736706789"><ele>111.0</ele><time>2026-03-28T09:45:52Z</time></trkpt><trkpt lat="45.38445323575259" lon="10.772767101833418"><ele>111.0</ele><time>2026-03-28T09:45:53Z</time></trkpt><trkpt lat="45.384512753556976" lon="10.772840838433952"><ele>111.0</ele><time>2026-03-28T09:45:54Z</time></trkpt><trkpt lat="45.384587003700126" lon="10.772915868099554"><ele>111.0</ele><time>2026-03-28T09:45:55Z</time></trkpt><trkpt lat="45.3846602168351" lon="10.773005449999141"><ele>111.0</ele><time>2026-03-28T09:45:56Z</time></trkpt><trkpt lat="45.38473814217136" lon="10.773090884808468"><ele>112.0</ele><time>2026-03-28T09:45:57Z</time></trkpt><trkpt lat="45.384845945848326" lon="10.773087912959422"><ele>113.0</ele><time>2026-03-28T09:45:58Z</time></trkpt><trkpt lat="45.38493095943866" lon="10.773129200946482"><ele>114.0</ele><time>2026-03-28T09:45:59Z</time></trkpt><trkpt lat="45.38501644452304" lon="10.77315345890898"><ele>115.0</ele><time>2026-03-28T09:46:00Z</time></trkpt><trkpt lat="45.385083441985856" lon="10.773154726039177"><ele>116.0</ele><time>2026-03-28T09:46:01Z</time></trkpt><trkpt lat="45.38514777069617" lon="10.773158377687489"><ele>117.0</ele><time>2026-03-28T09:46:02Z</time></trkpt><trkpt lat="45.385234026544204" lon="10.773175801367136"><ele>117.0</ele><time>2026-03-28T09:46:03Z</time></trkpt><trkpt lat="45.385336553454486" lon="10.773202582568556"><ele>117.0</ele><time>2026-03-28T09:46:04Z</time></trkpt><trkpt lat="45.385422145768615" lon="10.773236418239385"><ele>117.0</ele><time>2026-03-28T09:46:05Z</time></trkpt><trkpt lat="45.38549571604025" lon="10.773267895714856"><ele>117.0</ele><time>2026-03-28T09:46:06Z</time></trkpt><trkpt lat="45.385552893098144" lon="10.773318508686572"><ele>117.0</ele><time>2026-03-28T09:46:07Z</time></trkpt><trkpt lat="45.38561239291936" lon="10.773392867261554"><ele>117.0</ele><time>2026-03-28T09:46:08Z</time></trkpt><trkpt lat="45.385686390152514" lon="10.773489146325183"><ele>117.39999999999999</ele><time>2026-03-28T09:46:09Z</time></trkpt><trkpt lat="45.38575034240349" lon="10.77356431656997"><ele>117.79999999999998</ele><time>2026-03-28T09:46:10Z</time></trkpt><trkpt lat="45.38582324710501" lon="10.773647527393408"><ele>118.2</ele><time>2026-03-28T09:46:11Z</time></trkpt><trkpt lat="45.38589397160899" lon="10.773718328336344"><ele>118.6</ele><time>2026-03-28T09:46:12Z</time></trkpt><trkpt lat="45.38598985790315" lon="10.773780047564278"><ele>119.0</ele><time>2026-03-28T09:46:13Z</time></trkpt><trkpt lat="45.386095265540575" lon="10.773847058915589"><ele>119.0</ele><time>2026-03-28T09:46:14Z</time></trkpt><trkpt lat="45.38620819683522" lon="10.773939899534948"><ele>119.0</ele><time>2026-03-28T09:46:15Z</time></trkpt><trkpt lat="45.386297648013816" lon="10.774042094367257"><ele>119.0</ele><time>2026-03-28T09:46:16Z</time></trkpt><trkpt lat="45.38638045663577" lon="10.774154778429084"><ele>119.0</ele><time>2026-03-28T09:46:17Z</time></trkpt><trkpt lat="45.386464081409216" lon="10.774265106817646"><ele>119.4</ele><time>2026-03-28T09:46:18Z</time></trkpt><trkpt lat="45.38655435546319" lon="10.774369213272584"><ele>119.80000000000001</ele><time>2026-03-28T09:46:19Z</time></trkpt><trkpt lat="45.38663308317891" lon="10.774461089695276"><ele>120.19999999999999</ele><time>2026-03-28T09:46:20Z</time></trkpt><trkpt lat="45.38671066496637" lon="10.774531891689554"><ele>120.6</ele><time>2026-03-28T09:46:21Z</time></trkpt><trkpt lat="45.38678842186721" lon="10.774600460083862"><ele>121.0</ele><time>2026-03-28T09:46:22Z</time></trkpt><trkpt lat="45.38685014671313" lon="10.77466353033492"><ele>121.0</ele><time>2026-03-28T09:46:23Z</time></trkpt><trkpt lat="45.38690697185164" lon="10.774733636178018"><ele>121.0</ele><time>2026-03-28T09:46:24Z</time></trkpt><trkpt lat="45.386959274688905" lon="10.774823315771725"><ele>121.0</ele><time>2026-03-28T09:46:25Z</time></trkpt><trkpt lat="45.387017022606265" lon="10.774925188839658"><ele>121.0</ele><time>2026-03-28T09:46:26Z</time></trkpt><trkpt lat="45.38709386415407" lon="10.775051136484443"><ele>121.0</ele><time>2026-03-28T09:46:27Z</time></trkpt><trkpt lat="45.38716905442342" lon="10.775158364464412"><ele>121.19999999999999</ele><time>2026-03-28T09:46:28Z</time></trkpt><trkpt lat="45.387232877703845" lon="10.775240931874634"><ele>121.39999999999999</ele><time>2026-03-28T09:46:29Z</time></trkpt><trkpt lat="45.38730394314897" lon="10.775327548311894"><ele>121.6</ele><time>2026-03-28T09:46:30Z</time></trkpt><trkpt lat="45.38736599609947" lon="10.775421101951036"><ele>121.8</ele><time>2026-03-28T09:46:31Z</time></trkpt><trkpt lat="45.38743783098007" lon="10.775500075110207"><ele>122.0</ele><time>2026-03-28T09:46:32Z</time></trkpt><trkpt lat="45.38751212804535" lon="10.775570624451634"><ele>121.99999999999999</ele><time>2026-03-28T09:46:33Z</time></trkpt><trkpt lat="45.38759516128322" lon="10.775641801548481"><ele>122.0</ele><time>2026-03-28T09:46:34Z</time></trkpt><trkpt lat="45.38768818193991" lon="10.77569927959144"><ele>122.0</ele><time>2026-03-28T09:46:35Z</time></trkpt><trkpt lat="45.38776503577511" lon="10.77573413443585"><ele>122.0</ele><time>2026-03-28T09:46:36Z</time></trkpt><trkpt lat="45.38783800530469" lon="10.775789402568954"><ele>121.99999999999999</ele><time>2026-03-28T09:46:37Z</time></trkpt><trkpt lat="45.38790120430137" lon="10.775864578015183"><ele>122.0</ele><time>2026-03-28T09:46:38Z</time></trkpt><trkpt lat="45.387971886004166" lon="10.77596032495405"><ele>121.6</ele><time>2026-03-28T09:46:39Z</time></trkpt><trkpt lat="45.38803425484632" lon="10.776057295825135"><ele>121.19999999999999</ele><time>2026-03-28T09:46:40Z</time></trkpt><trkpt lat="45.388094739544634" lon="10.776154678244351"><ele>120.8</ele><time>2026-03-28T09:46:41Z</time></trkpt><trkpt lat="45.38815624250417" lon="10.776254410574094"><ele>120.4</ele><time>2026-03-28T09:46:42Z</time></trkpt><trkpt lat="45.38820608544375" lon="10.77635462073982"><ele>120.0</ele><time>2026-03-28T09:46:43Z</time></trkpt><trkpt lat="45.3882723690385" lon="10.776444001669628"><ele>120.0</ele><time>2026-03-28T09:46:44Z</time></trkpt><trkpt lat="45.38832703099469" lon="10.77654493036474"><ele>120.0</ele><time>2026-03-28T09:46:45Z</time></trkpt><trkpt lat="45.38838362062135" lon="10.776672392322688"><ele>120.0</ele><time>2026-03-28T09:46:46Z</time></trkpt><trkpt lat="45.388443534266344" lon="10.776790552512807"><ele>120.0</ele><time>2026-03-28T09:46:47Z</time></trkpt><trkpt lat="45.38849423253081" lon="10.77690902773801"><ele>120.0</ele><time>2026-03-28T09:46:48Z</time></trkpt><trkpt lat="45.388544384663305" lon="10.777023454305878"><ele>117.2</ele><time>2026-03-28T09:46:49Z</time></trkpt><trkpt lat="45.38859353665055" lon="10.777128439700935"><ele>114.4</ele><time>2026-03-28T09:46:50Z</time></trkpt><trkpt lat="45.388639226361235" lon="10.777239936359118"><ele>111.6</ele><time>2026-03-28T09:46:51Z</time></trkpt><trkpt lat="45.38867801369344" lon="10.777350489333895"><ele>108.8</ele><time>2026-03-28T09:46:52Z</time></trkpt><trkpt lat="45.38871858551593" lon="10.77747595146265"><ele>106.0</ele><time>2026-03-28T09:46:53Z</time></trkpt><trkpt lat="45.38874934873126" lon="10.777595801760429"><ele>107.0</ele><time>2026-03-28T09:46:54Z</time></trkpt><trkpt lat="45.388772785583285" lon="10.777698166135867"><ele>108.0</ele><time>2026-03-28T09:46:55Z</time></trkpt><trkpt lat="45.38881284572025" lon="10.777862439454953"><ele>109.0</ele><time>2026-03-28T09:46:57Z</time></trkpt><trkpt lat="45.388851023050044" lon="10.778017296239321"><ele>110.0</ele><time>2026-03-28T09:46:59Z</time></trkpt><trkpt lat="45.38894917546009" lon="10.778111552963251"><ele>111.0</ele><time>2026-03-28T09:47:01Z</time></trkpt><trkpt lat="45.38903799714872" lon="10.778151532238088"><ele>111.0</ele><time>2026-03-28T09:47:02Z</time></trkpt><trkpt lat="45.389142464921896" lon="10.778211168708717"><ele>111.0</ele><time>2026-03-28T09:47:03Z</time></trkpt><trkpt lat="45.38925144875487" lon="10.778275649274878"><ele>111.0</ele><time>2026-03-28T09:47:04Z</time></trkpt><trkpt lat="45.389340467433875" lon="10.77833431632146"><ele>111.0</ele><time>2026-03-28T09:47:05Z</time></trkpt><trkpt lat="45.389434223110854" lon="10.778384148208318"><ele>111.0</ele><time>2026-03-28T09:47:06Z</time></trkpt><trkpt lat="45.38953506555953" lon="10.778445346510102"><ele>111.0</ele><time>2026-03-28T09:47:07Z</time></trkpt><trkpt lat="45.38963025301449" lon="10.778515930106636"><ele>111.0</ele><time>2026-03-28T09:47:08Z</time></trkpt><trkpt lat="45.389719630835394" lon="10.77858044555159"><ele>111.0</ele><time>2026-03-28T09:47:09Z</time></trkpt><trkpt lat="45.38980882170107" lon="10.778636744380163"><ele>111.0</ele><time>2026-03-28T09:47:10Z</time></trkpt><trkpt lat="45.389879660976426" lon="10.77868228200271"><ele>111.0</ele><time>2026-03-28T09:47:11Z</time></trkpt><trkpt lat="45.389971433949654" lon="10.778744275681236"><ele>110.6</ele><time>2026-03-28T09:47:12Z</time></trkpt><trkpt lat="45.39006147388453" lon="10.778809981797913"><ele>110.19999999999999</ele><time>2026-03-28T09:47:13Z</time></trkpt><trkpt lat="45.39013554681812" lon="10.77886509495604"><ele>109.80000000000001</ele><time>2026-03-28T09:47:14Z</time></trkpt><trkpt lat="45.390212423974695" lon="10.77891982384914"><ele>109.4</ele><time>2026-03-28T09:47:15Z</time></trkpt><trkpt lat="45.39032456593339" lon="10.778975811178865"><ele>109.0</ele><time>2026-03-28T09:47:17Z</time></trkpt><trkpt lat="45.39041138545266" lon="10.778892351051201"><ele>109.00000000000001</ele><time>2026-03-28T09:47:19Z</time></trkpt><trkpt lat="45.39042106157184" lon="10.778796729364048"><ele>109.0</ele><time>2026-03-28T09:47:20Z</time></trkpt><trkpt lat="45.39042230617764" lon="10.778681516019049"><ele>109.0</ele><time>2026-03-28T09:47:21Z</time></trkpt><trkpt lat="45.39044642122494" lon="10.778556331783287"><ele>109.0</ele><time>2026-03-28T09:47:22Z</time></trkpt><trkpt lat="45.390477755714976" lon="10.778442641536163"><ele>109.00000000000001</ele><time>2026-03-28T09:47:23Z</time></trkpt><trkpt lat="45.390539453283004" lon="10.778335975096683"><ele>109.0</ele><time>2026-03-28T09:47:24Z</time></trkpt><trkpt lat="45.390563725793356" lon="10.778211157066696"><ele>110.00000000000001</ele><time>2026-03-28T09:47:25Z</time></trkpt><trkpt lat="45.39058836743025" lon="10.77809665732197"><ele>111.0</ele><time>2026-03-28T09:47:26Z</time></trkpt><trkpt lat="45.39062294037457" lon="10.778001362088249"><ele>112.0</ele><time>2026-03-28T09:47:27Z</time></trkpt><trkpt lat="45.39068497543991" lon="10.777932095150312"><ele>113.0</ele><time>2026-03-28T09:47:28Z</time></trkpt><trkpt lat="45.39077024065234" lon="10.777868333447062"><ele>114.00000000000001</ele><time>2026-03-28T09:47:29Z</time></trkpt><trkpt lat="45.39084328563593" lon="10.777779294136623"><ele>115.0</ele><time>2026-03-28T09:47:30Z</time></trkpt><trkpt lat="45.39090280339878" lon="10.777705510898116"><ele>115.50000000000001</ele><time>2026-03-28T09:47:31Z</time></trkpt><trkpt lat="45.39093694168452" lon="10.777620034217925"><ele>116.0</ele><time>2026-03-28T09:47:32Z</time></trkpt><trkpt lat="45.39097338895239" lon="10.777532987984134"><ele>116.5</ele><time>2026-03-28T09:47:33Z</time></trkpt><trkpt lat="45.39100207789357" lon="10.777431074685998"><ele>117.0</ele><time>2026-03-28T09:47:34Z</time></trkpt><trkpt lat="45.39101484323328" lon="10.77733807725218"><ele>117.50000000000001</ele><time>2026-03-28T09:47:35Z</time></trkpt><trkpt lat="45.39101448468061" lon="10.777232562982391"><ele>118.0</ele><time>2026-03-28T09:47:36Z</time></trkpt><trkpt lat="45.390990296309425" lon="10.777100744297414"><ele>118.0</ele><time>2026-03-28T09:47:37Z</time></trkpt><trkpt lat="45.39097327231179" lon="10.77698684022618"><ele>118.00000000000001</ele><time>2026-03-28T09:47:38Z</time></trkpt><trkpt lat="45.39096244377391" lon="10.776892320321393"><ele>118.00000000000001</ele><time>2026-03-28T09:47:39Z</time></trkpt><trkpt lat="45.39092460433096" lon="10.77672792751606"><ele>118.0</ele><time>2026-03-28T09:47:41Z</time></trkpt><trkpt lat="45.390854322776846" lon="10.776590296451241"><ele>118.0</ele><time>2026-03-28T09:47:43Z</time></trkpt><trkpt lat="45.39079033382309" lon="10.776448453175556"><ele>117.2</ele><time>2026-03-28T09:47:45Z</time></trkpt><trkpt lat="45.39071166700122" lon="10.776317751266195"><ele>116.4</ele><time>2026-03-28T09:47:47Z</time></trkpt><trkpt lat="45.39066493010123" lon="10.776248099530445"><ele>115.60000000000001</ele><time>2026-03-28T09:47:48Z</time></trkpt><trkpt lat="45.390594392070376" lon="10.776118833497899"><ele>114.80000000000001</ele><time>2026-03-28T09:47:50Z</time></trkpt><trkpt lat="45.39058457768905" lon="10.776027110383563"><ele>114.0</ele><time>2026-03-28T09:47:51Z</time></trkpt><trkpt lat="45.39060211267254" lon="10.775831227941381"><ele>112.5</ele><time>2026-03-28T09:47:53Z</time></trkpt><trkpt lat="45.390621754747926" lon="10.775689629877354"><ele>111.0</ele><time>2026-03-28T09:47:54Z</time></trkpt><trkpt lat="45.39062898632839" lon="10.775557839337194"><ele>109.5</ele><time>2026-03-28T09:47:55Z</time></trkpt><trkpt lat="45.390628073424494" lon="10.775433508399267"><ele>108.0</ele><time>2026-03-28T09:47:56Z</time></trkpt><trkpt lat="45.39061622567635" lon="10.775321805303482"><ele>106.5</ele><time>2026-03-28T09:47:57Z</time></trkpt><trkpt lat="45.39062491628154" lon="10.775205589753337"><ele>105.0</ele><time>2026-03-28T09:47:58Z</time></trkpt><trkpt lat="45.390609545299036" lon="10.775059321766387"><ele>104.8</ele><time>2026-03-28T09:47:59Z</time></trkpt><trkpt lat="45.39059529768938" lon="10.774901482660097"><ele>104.6</ele><time>2026-03-28T09:48:00Z</time></trkpt><trkpt lat="45.39058668531353" lon="10.774755639170637"><ele>104.4</ele><time>2026-03-28T09:48:01Z</time></trkpt><trkpt lat="45.39056788127593" lon="10.77461497067519"><ele>104.2</ele><time>2026-03-28T09:48:02Z</time></trkpt><trkpt lat="45.39055099112515" lon="10.774490083850177"><ele>104.0</ele><time>2026-03-28T09:48:03Z</time></trkpt><trkpt lat="45.390515643369724" lon="10.774385021264882"><ele>104.66666666666666</ele><time>2026-03-28T09:48:04Z</time></trkpt><trkpt lat="45.39050163543912" lon="10.774269337871496"><ele>105.33333333333333</ele><time>2026-03-28T09:48:05Z</time></trkpt><trkpt lat="45.39045852728853" lon="10.774155968121782"><ele>106.0</ele><time>2026-03-28T09:48:06Z</time></trkpt><trkpt lat="45.390425949900695" lon="10.774037815532132"><ele>106.66666666666666</ele><time>2026-03-28T09:48:07Z</time></trkpt><trkpt lat="45.390403156950406" lon="10.773947417037226"><ele>107.33333333333333</ele><time>2026-03-28T09:48:08Z</time></trkpt><trkpt lat="45.39037874315977" lon="10.773850900016665"><ele>108.0</ele><time>2026-03-28T09:48:09Z</time></trkpt><trkpt lat="45.390374832385604" lon="10.77375940899278"><ele>108.0</ele><time>2026-03-28T09:48:10Z</time></trkpt><trkpt lat="45.39041117437235" lon="10.773607613881875"><ele>108.00000000000001</ele><time>2026-03-28T09:48:12Z</time></trkpt><trkpt lat="45.390474093682016" lon="10.773552690487344"><ele>108.00000000000001</ele><time>2026-03-28T09:48:13Z</time></trkpt><trkpt lat="45.39054543732827" lon="10.773526150810007"><ele>108.0</ele><time>2026-03-28T09:48:14Z</time></trkpt><trkpt lat="45.39064421996453" lon="10.773484668329157"><ele>108.0</ele><time>2026-03-28T09:48:15Z</time></trkpt><trkpt lat="45.3907485683302" lon="10.773450312307604"><ele>106.33333333333333</ele><time>2026-03-28T09:48:16Z</time></trkpt><trkpt lat="45.390841383031756" lon="10.773403926453263"><ele>104.66666666666666</ele><time>2026-03-28T09:48:17Z</time></trkpt><trkpt lat="45.39091443628357" lon="10.773355565313196"><ele>103.0</ele><time>2026-03-28T09:48:18Z</time></trkpt><trkpt lat="45.390987652534925" lon="10.773314126409804"><ele>101.33333333333333</ele><time>2026-03-28T09:48:19Z</time></trkpt><trkpt lat="45.391049473604625" lon="10.773242650245333"><ele>99.66666666666666</ele><time>2026-03-28T09:48:20Z</time></trkpt><trkpt lat="45.391119815495685" lon="10.773181051966043"><ele>98.0</ele><time>2026-03-28T09:48:21Z</time></trkpt><trkpt lat="45.391187926549776" lon="10.773124306994259"><ele>97.99999999999999</ele><time>2026-03-28T09:48:22Z</time></trkpt><trkpt lat="45.39125157067346" lon="10.773075837361628"><ele>98.0</ele><time>2026-03-28T09:48:23Z</time></trkpt><trkpt lat="45.39132961472781" lon="10.772990259475314"><ele>98.0</ele><time>2026-03-28T09:48:24Z</time></trkpt><trkpt lat="45.391405919229875" lon="10.772881476131877"><ele>98.0</ele><time>2026-03-28T09:48:25Z</time></trkpt><trkpt lat="45.39146603943333" lon="10.772789926937044"><ele>97.99999999999999</ele><time>2026-03-28T09:48:26Z</time></trkpt><trkpt lat="45.3915319040069" lon="10.772723911863748"><ele>98.0</ele><time>2026-03-28T09:48:27Z</time></trkpt><trkpt lat="45.391627968223126" lon="10.77263252964994"><ele>95.80000000000001</ele><time>2026-03-28T09:48:28Z</time></trkpt><trkpt lat="45.3917226287765" lon="10.772534900313012"><ele>93.6</ele><time>2026-03-28T09:48:29Z</time></trkpt><trkpt lat="45.39180908814073" lon="10.772460710064276"><ele>91.4</ele><time>2026-03-28T09:48:30Z</time></trkpt><trkpt lat="45.391880626797814" lon="10.772381120499915"><ele>89.19999999999999</ele><time>2026-03-28T09:48:31Z</time></trkpt><trkpt lat="45.391955054248825" lon="10.772318450779018"><ele>87.0</ele><time>2026-03-28T09:48:32Z</time></trkpt><trkpt lat="45.39201992469029" lon="10.772264482974533"><ele>87.0</ele><time>2026-03-28T09:48:33Z</time></trkpt><trkpt lat="45.392051977810645" lon="10.772105189816841"><ele>87.0</ele><time>2026-03-28T09:48:34Z</time></trkpt><trkpt lat="45.39212612624779" lon="10.77201701246505"><ele>87.0</ele><time>2026-03-28T09:48:35Z</time></trkpt><trkpt lat="45.392184261649085" lon="10.77193100171143"><ele>87.0</ele><time>2026-03-28T09:48:36Z</time></trkpt><trkpt lat="45.39224464695679" lon="10.77186596708659"><ele>87.0</ele><time>2026-03-28T09:48:37Z</time></trkpt><trkpt lat="45.39230246191207" lon="10.77178789160448"><ele>86.83333333333333</ele><time>2026-03-28T09:48:38Z</time></trkpt><trkpt lat="45.39237923221018" lon="10.771744304338768"><ele>86.66666666666667</ele><time>2026-03-28T09:48:39Z</time></trkpt><trkpt lat="45.39244161918668" lon="10.771687785588245"><ele>86.5</ele><time>2026-03-28T09:48:40Z</time></trkpt><trkpt lat="45.39250989890369" lon="10.771616831120154"><ele>86.33333333333334</ele><time>2026-03-28T09:48:41Z</time></trkpt><trkpt lat="45.392564139942735" lon="10.771529431848744"><ele>86.16666666666667</ele><time>2026-03-28T09:48:42Z</time></trkpt><trkpt lat="45.39259639203828" lon="10.771424934056158"><ele>86.0</ele><time>2026-03-28T09:48:43Z</time></trkpt><trkpt lat="45.3925992368582" lon="10.771311769058265"><ele>86.0</ele><time>2026-03-28T09:48:44Z</time></trkpt><trkpt lat="45.39260297651429" lon="10.771189215190395"><ele>86.0</ele><time>2026-03-28T09:48:45Z</time></trkpt><trkpt lat="45.39255942214798" lon="10.771052832634647"><ele>86.0</ele><time>2026-03-28T09:48:46Z</time></trkpt><trkpt lat="45.39254516557117" lon="10.77089349264922"><ele>86.0</ele><time>2026-03-28T09:48:47Z</time></trkpt><trkpt lat="45.392522615300024" lon="10.770763390591645"><ele>86.0</ele><time>2026-03-28T09:48:48Z</time></trkpt><trkpt lat="45.39250007872537" lon="10.770646646286076"><ele>85.83333333333334</ele><time>2026-03-28T09:48:49Z</time></trkpt><trkpt lat="45.3924811989983" lon="10.770538969973313"><ele>85.66666666666667</ele><time>2026-03-28T09:48:50Z</time></trkpt><trkpt lat="45.39245772575197" lon="10.770382743880694"><ele>85.5</ele><time>2026-03-28T09:48:52Z</time></trkpt><trkpt lat="45.39248922201485" lon="10.770303384263048"><ele>85.33333333333333</ele><time>2026-03-28T09:48:53Z</time></trkpt><trkpt lat="45.39254279661909" lon="10.770253570950786"><ele>85.16666666666666</ele><time>2026-03-28T09:48:54Z</time></trkpt><trkpt lat="45.392623650573825" lon="10.770271953097325"><ele>85.0</ele><time>2026-03-28T09:48:55Z</time></trkpt><trkpt lat="45.39271662605652" lon="10.770309442768365"><ele>85.0</ele><time>2026-03-28T09:48:56Z</time></trkpt><trkpt lat="45.39284003417733" lon="10.770315023710177"><ele>85.0</ele><time>2026-03-28T09:48:57Z</time></trkpt><trkpt lat="45.392974765421975" lon="10.770300797267959"><ele>85.0</ele><time>2026-03-28T09:48:58Z</time></trkpt><trkpt lat="45.3930874722149" lon="10.770280381109101"><ele>85.0</ele><time>2026-03-28T09:48:59Z</time></trkpt><trkpt lat="45.39319183288412" lon="10.770280645290235"><ele>85.4</ele><time>2026-03-28T09:49:00Z</time></trkpt><trkpt lat="45.39328128468498" lon="10.770304808180354"><ele>85.8</ele><time>2026-03-28T09:49:01Z</time></trkpt><trkpt lat="45.39336759384825" lon="10.770303639490457"><ele>86.19999999999999</ele><time>2026-03-28T09:49:02Z</time></trkpt><trkpt lat="45.393456177963145" lon="10.770314211353039"><ele>86.6</ele><time>2026-03-28T09:49:03Z</time></trkpt><trkpt lat="45.39355851002839" lon="10.77031921967452"><ele>87.0</ele><time>2026-03-28T09:49:04Z</time></trkpt><trkpt lat="45.39366462482508" lon="10.77034717999247"><ele>87.0</ele><time>2026-03-28T09:49:05Z</time></trkpt><trkpt lat="45.39377061072952" lon="10.77038021600744"><ele>87.0</ele><time>2026-03-28T09:49:06Z</time></trkpt><trkpt lat="45.393882802144155" lon="10.770417365592046"><ele>87.0</ele><time>2026-03-28T09:49:07Z</time></trkpt><trkpt lat="45.39399714456559" lon="10.770487612791635"><ele>87.0</ele><time>2026-03-28T09:49:08Z</time></trkpt><trkpt lat="45.394101008270916" lon="10.770548167204606"><ele>89.0</ele><time>2026-03-28T09:49:09Z</time></trkpt><trkpt lat="45.394203263838506" lon="10.770614066540361"><ele>91.0</ele><time>2026-03-28T09:49:10Z</time></trkpt><trkpt lat="45.39431253261737" lon="10.770684800706933"><ele>93.0</ele><time>2026-03-28T09:49:11Z</time></trkpt><trkpt lat="45.39441695715836" lon="10.770789466783404"><ele>95.0</ele><time>2026-03-28T09:49:12Z</time></trkpt><trkpt lat="45.39451956615748" lon="10.770910615413635"><ele>96.25</ele><time>2026-03-28T09:49:13Z</time></trkpt><trkpt lat="45.39461997277087" lon="10.771032243306161"><ele>97.5</ele><time>2026-03-28T09:49:14Z</time></trkpt><trkpt lat="45.39471899776228" lon="10.771160677623866"><ele>98.75</ele><time>2026-03-28T09:49:15Z</time></trkpt><trkpt lat="45.39481339308247" lon="10.771295254901565"><ele>100.0</ele><time>2026-03-28T09:49:16Z</time></trkpt><trkpt lat="45.39490454189479" lon="10.771435664066386"><ele>100.0</ele><time>2026-03-28T09:49:17Z</time></trkpt><trkpt lat="45.39497798838593" lon="10.771550121216288"><ele>100.0</ele><time>2026-03-28T09:49:18Z</time></trkpt><trkpt lat="45.395051538774794" lon="10.771633628511132"><ele>100.0</ele><time>2026-03-28T09:49:19Z</time></trkpt><trkpt lat="45.395106686860856" lon="10.771745599207204"><ele>100.0</ele><time>2026-03-28T09:49:20Z</time></trkpt><trkpt lat="45.39518319704175" lon="10.771862970296528"><ele>100.0</ele><time>2026-03-28T09:49:21Z</time></trkpt><trkpt lat="45.395250793017006" lon="10.771985905423424"><ele>98.25</ele><time>2026-03-28T09:49:22Z</time></trkpt><trkpt lat="45.395312890405044" lon="10.772117780507395"><ele>96.5</ele><time>2026-03-28T09:49:23Z</time></trkpt><trkpt lat="45.39538523064612" lon="10.772244432716542"><ele>94.75</ele><time>2026-03-28T09:49:24Z</time></trkpt><trkpt lat="45.395439252954866" lon="10.772395192071047"><ele>93.0</ele><time>2026-03-28T09:49:25Z</time></trkpt><trkpt lat="45.39549297726653" lon="10.772524325483507"><ele>96.75</ele><time>2026-03-28T09:49:26Z</time></trkpt><trkpt lat="45.39554375120562" lon="10.772657616747916"><ele>100.5</ele><time>2026-03-28T09:49:27Z</time></trkpt><trkpt lat="45.3956063386492" lon="10.772808979922669"><ele>104.25</ele><time>2026-03-28T09:49:28Z</time></trkpt><trkpt lat="45.39566373906133" lon="10.772973742970681"><ele>108.0</ele><time>2026-03-28T09:49:29Z</time></trkpt><trkpt lat="45.39570029189602" lon="10.773144206967947"><ele>108.0</ele><time>2026-03-28T09:49:30Z</time></trkpt><trkpt lat="45.395744044921464" lon="10.773294102743384"><ele>108.0</ele><time>2026-03-28T09:49:31Z</time></trkpt><trkpt lat="45.39578279250716" lon="10.773465056693345"><ele>108.0</ele><time>2026-03-28T09:49:32Z</time></trkpt><trkpt lat="45.39581281110581" lon="10.77362708701461"><ele>108.0</ele><time>2026-03-28T09:49:33Z</time></trkpt><trkpt lat="45.39584122640698" lon="10.773779739638272"><ele>107.4</ele><time>2026-03-28T09:49:34Z</time></trkpt><trkpt lat="45.39586523147971" lon="10.77390869959922"><ele>106.80000000000001</ele><time>2026-03-28T09:49:35Z</time></trkpt><trkpt lat="45.39589353511823" lon="10.774018583329182"><ele>106.2</ele><time>2026-03-28T09:49:36Z</time></trkpt><trkpt lat="45.39591795145099" lon="10.774124035889777"><ele>105.6</ele><time>2026-03-28T09:49:37Z</time></trkpt><trkpt lat="45.39600604067127" lon="10.774249215198003"><ele>105.0</ele><time>2026-03-28T09:49:39Z</time></trkpt><trkpt lat="45.39607043174001" lon="10.77432536582834"><ele>105.0</ele><time>2026-03-28T09:49:40Z</time></trkpt><trkpt lat="45.39616770025684" lon="10.774341372764018"><ele>105.0</ele><time>2026-03-28T09:49:41Z</time></trkpt><trkpt lat="45.39626229898186" lon="10.774376659349167"><ele>105.0</ele><time>2026-03-28T09:49:42Z</time></trkpt><trkpt lat="45.396379070441185" lon="10.77440233016004"><ele>105.0</ele><time>2026-03-28T09:49:43Z</time></trkpt><trkpt lat="45.39649573356013" lon="10.774428540473657"><ele>105.0</ele><time>2026-03-28T09:49:44Z</time></trkpt><trkpt lat="45.39660013154097" lon="10.774432002712283"><ele>106.0</ele><time>2026-03-28T09:49:45Z</time></trkpt><trkpt lat="45.39667899091046" lon="10.774459123739566"><ele>107.0</ele><time>2026-03-28T09:49:46Z</time></trkpt><trkpt lat="45.39674385633293" lon="10.774464794772376"><ele>108.0</ele><time>2026-03-28T09:49:47Z</time></trkpt><trkpt lat="45.39685804980717" lon="10.774472673901071"><ele>109.0</ele><time>2026-03-28T09:49:49Z</time></trkpt><trkpt lat="45.396936360212784" lon="10.774470407429828"><ele>110.0</ele><time>2026-03-28T09:49:51Z</time></trkpt><trkpt lat="45.396913241018105" lon="10.774624609698334"><ele>111.0</ele><time>2026-03-28T09:49:53Z</time></trkpt><trkpt lat="45.396892652627606" lon="10.774719184937387"><ele>111.0</ele><time>2026-03-28T09:49:54Z</time></trkpt><trkpt lat="45.39687441894403" lon="10.77486255513902"><ele>111.0</ele><time>2026-03-28T09:49:55Z</time></trkpt><trkpt lat="45.39684142322484" lon="10.775031926906024"><ele>111.0</ele><time>2026-03-28T09:49:56Z</time></trkpt><trkpt lat="45.39682015572098" lon="10.775194684626225"><ele>111.0</ele><time>2026-03-28T09:49:57Z</time></trkpt><trkpt lat="45.39679056515656" lon="10.775343432771257"><ele>111.4</ele><time>2026-03-28T09:49:58Z</time></trkpt><trkpt lat="45.39677408723333" lon="10.775486486978703"><ele>111.8</ele><time>2026-03-28T09:49:59Z</time></trkpt><trkpt lat="45.39675864513464" lon="10.775634094012796"><ele>112.20000000000002</ele><time>2026-03-28T09:50:00Z</time></trkpt><trkpt lat="45.396750605345254" lon="10.775769614199818"><ele>112.60000000000001</ele><time>2026-03-28T09:50:01Z</time></trkpt><trkpt lat="45.39672395032304" lon="10.775884035964962"><ele>113.0</ele><time>2026-03-28T09:50:02Z</time></trkpt><trkpt lat="45.39671202096138" lon="10.775983793099162"><ele>113.0</ele><time>2026-03-28T09:50:03Z</time></trkpt><trkpt lat="45.39669144284828" lon="10.776126580798902"><ele>113.0</ele><time>2026-03-28T09:50:05Z</time></trkpt><trkpt lat="45.39678627015788" lon="10.776363647842013"><ele>113.0</ele><time>2026-03-28T09:50:08Z</time></trkpt><trkpt lat="45.39688225924674" lon="10.776395298732455"><ele>113.0</ele><time>2026-03-28T09:50:09Z</time></trkpt><trkpt lat="45.39697999221997" lon="10.77641213217891"><ele>112.99999999999999</ele><time>2026-03-28T09:50:10Z</time></trkpt><trkpt lat="45.397058521952644" lon="10.776423325624355"><ele>113.0</ele><time>2026-03-28T09:50:11Z</time></trkpt><trkpt lat="45.3971355152109" lon="10.776434300045162"><ele>113.0</ele><time>2026-03-28T09:50:12Z</time></trkpt><trkpt lat="45.39722053616496" lon="10.776432525625008"><ele>113.0</ele><time>2026-03-28T09:50:13Z</time></trkpt><trkpt lat="45.39729188734049" lon="10.776432525622951"><ele>112.99999999999999</ele><time>2026-03-28T09:50:14Z</time></trkpt><trkpt lat="45.397410618578064" lon="10.776432525619251"><ele>113.0</ele><time>2026-03-28T09:50:16Z</time></trkpt><trkpt lat="45.397479222691366" lon="10.77641882547937"><ele>113.83333333333333</ele><time>2026-03-28T09:50:17Z</time></trkpt><trkpt lat="45.397546602732795" lon="10.776417465515495"><ele>114.66666666666666</ele><time>2026-03-28T09:50:18Z</time></trkpt><trkpt lat="45.39762435063118" lon="10.776411418496307"><ele>115.5</ele><time>2026-03-28T09:50:19Z</time></trkpt><trkpt lat="45.39770175689463" lon="10.776405734997194"><ele>116.33333333333334</ele><time>2026-03-28T09:50:20Z</time></trkpt><trkpt lat="45.39781826252725" lon="10.776389340622966"><ele>117.16666666666667</ele><time>2026-03-28T09:50:22Z</time></trkpt><trkpt lat="45.39792467307424" lon="10.776404835966527"><ele>118.0</ele><time>2026-03-28T09:50:24Z</time></trkpt><trkpt lat="45.39799673627098" lon="10.776515121749178"><ele>118.50000000000001</ele><time>2026-03-28T09:50:26Z</time></trkpt><trkpt lat="45.39800461448043" lon="10.776613349182574"><ele>119.0</ele><time>2026-03-28T09:50:27Z</time></trkpt><trkpt lat="45.39800347706231" lon="10.776722954820174"><ele>119.5</ele><time>2026-03-28T09:50:28Z</time></trkpt><trkpt lat="45.39801373902076" lon="10.776820790929659"><ele>120.0</ele><time>2026-03-28T09:50:29Z</time></trkpt><trkpt lat="45.39809524475366" lon="10.776919389643668"><ele>120.50000000000001</ele><time>2026-03-28T09:50:31Z</time></trkpt><trkpt lat="45.398160866559124" lon="10.776918042175575"><ele>121.0</ele><time>2026-03-28T09:50:32Z</time></trkpt><trkpt lat="45.39824724655739" lon="10.77691871097907"><ele>121.33333333333334</ele><time>2026-03-28T09:50:33Z</time></trkpt><trkpt lat="45.398337442917885" lon="10.776934587251208"><ele>121.66666666666667</ele><time>2026-03-28T09:50:34Z</time></trkpt><trkpt lat="45.39841986080893" lon="10.776961356512249"><ele>122.0</ele><time>2026-03-28T09:50:35Z</time></trkpt><trkpt lat="45.39849324099518" lon="10.776989945947212"><ele>122.33333333333334</ele><time>2026-03-28T09:50:36Z</time></trkpt><trkpt lat="45.398572438370884" lon="10.777015066068538"><ele>122.66666666666667</ele><time>2026-03-28T09:50:37Z</time></trkpt><trkpt lat="45.39864638817646" lon="10.777067022009595"><ele>123.0</ele><time>2026-03-28T09:50:38Z</time></trkpt><trkpt lat="45.39869369279417" lon="10.777138394653964"><ele>123.0</ele><time>2026-03-28T09:50:39Z</time></trkpt><trkpt lat="45.39873062339751" lon="10.777232792799962"><ele>123.00000000000001</ele><time>2026-03-28T09:50:40Z</time></trkpt><trkpt lat="45.398755479991586" lon="10.777357551159266"><ele>123.00000000000001</ele><time>2026-03-28T09:50:41Z</time></trkpt><trkpt lat="45.39879057331987" lon="10.777495767068652"><ele>123.0</ele><time>2026-03-28T09:50:42Z</time></trkpt><trkpt lat="45.398856869680216" lon="10.777602078272285"><ele>123.0</ele><time>2026-03-28T09:50:43Z</time></trkpt><trkpt lat="45.39893757509495" lon="10.777690528250657"><ele>123.0</ele><time>2026-03-28T09:50:44Z</time></trkpt><trkpt lat="45.399016642829416" lon="10.777763600882658"><ele>123.0</ele><time>2026-03-28T09:50:45Z</time></trkpt><trkpt lat="45.3990800438778" lon="10.777824987579113"><ele>123.0</ele><time>2026-03-28T09:50:46Z</time></trkpt><trkpt lat="45.39912132147176" lon="10.777898485844725"><ele>123.0</ele><time>2026-03-28T09:50:47Z</time></trkpt><trkpt lat="45.39913959163829" lon="10.778061066108524"><ele>123.0</ele><time>2026-03-28T09:50:49Z</time></trkpt><trkpt lat="45.39914002365751" lon="10.778186642736973"><ele>123.0</ele><time>2026-03-28T09:50:50Z</time></trkpt><trkpt lat="45.39914624361054" lon="10.778344179144021"><ele>123.0</ele><time>2026-03-28T09:50:51Z</time></trkpt><trkpt lat="45.39916911490035" lon="10.778517857073972"><ele>123.00000000000001</ele><time>2026-03-28T09:50:52Z</time></trkpt><trkpt lat="45.39918958361039" lon="10.77867178059772"><ele>123.00000000000001</ele><time>2026-03-28T09:50:53Z</time></trkpt><trkpt lat="45.399211212542426" lon="10.778815734876261"><ele>123.0</ele><time>2026-03-28T09:50:54Z</time></trkpt><trkpt lat="45.39923033871896" lon="10.77896333202882"><ele>123.0</ele><time>2026-03-28T09:50:55Z</time></trkpt><trkpt lat="45.399250411469055" lon="10.779117038156071"><ele>122.83333333333333</ele><time>2026-03-28T09:50:56Z</time></trkpt><trkpt lat="45.39926423371312" lon="10.779241407337134"><ele>122.66666666666666</ele><time>2026-03-28T09:50:57Z</time></trkpt><trkpt lat="45.39927580916616" lon="10.779360008172349"><ele>122.5</ele><time>2026-03-28T09:50:58Z</time></trkpt><trkpt lat="45.399287370174164" lon="10.77946768659711"><ele>122.33333333333333</ele><time>2026-03-28T09:50:59Z</time></trkpt><trkpt lat="45.399289603502375" lon="10.779561503967294"><ele>122.16666666666666</ele><time>2026-03-28T09:51:00Z</time></trkpt><trkpt lat="45.399290967419404" lon="10.779719006668088"><ele>122.0</ele><time>2026-03-28T09:51:02Z</time></trkpt><trkpt lat="45.399298367352166" lon="10.779848693491578"><ele>121.83333333333333</ele><time>2026-03-28T09:51:04Z</time></trkpt><trkpt lat="45.3993542817926" lon="10.779927438951955"><ele>121.66666666666666</ele><time>2026-03-28T09:51:06Z</time></trkpt><trkpt lat="45.399453810745605" lon="10.77991555814722"><ele>121.5</ele><time>2026-03-28T09:51:08Z</time></trkpt><trkpt lat="45.3995202490799" lon="10.779882311503986"><ele>121.33333333333334</ele><time>2026-03-28T09:51:09Z</time></trkpt><trkpt lat="45.39960187795127" lon="10.779857392530703"><ele>121.16666666666667</ele><time>2026-03-28T09:51:10Z</time></trkpt><trkpt lat="45.399707003572885" lon="10.779865921481301"><ele>121.0</ele><time>2026-03-28T09:51:11Z</time></trkpt><trkpt lat="45.399837881345924" lon="10.779867835130277"><ele>121.0</ele><time>2026-03-28T09:51:12Z</time></trkpt><trkpt lat="45.39997399412424" lon="10.779859563360764"><ele>121.0</ele><time>2026-03-28T09:51:13Z</time></trkpt><trkpt lat="45.40011814536361" lon="10.779850662784693"><ele>121.0</ele><time>2026-03-28T09:51:14Z</time></trkpt><trkpt lat="45.40025401271886" lon="10.779851623093034"><ele>121.0</ele><time>2026-03-28T09:51:15Z</time></trkpt><trkpt lat="45.40036122004936" lon="10.779846917044543"><ele>121.0</ele><time>2026-03-28T09:51:16Z</time></trkpt><trkpt lat="45.400450123753224" lon="10.779855564841933"><ele>121.0</ele><time>2026-03-28T09:51:17Z</time></trkpt><trkpt lat="45.400526354648946" lon="10.779884116481933"><ele>121.0</ele><time>2026-03-28T09:51:18Z</time></trkpt><trkpt lat="45.40059104708761" lon="10.779942365863036"><ele>121.0</ele><time>2026-03-28T09:51:19Z</time></trkpt><trkpt lat="45.40066700160924" lon="10.780021756304146"><ele>121.0</ele><time>2026-03-28T09:51:20Z</time></trkpt><trkpt lat="45.40076349663219" lon="10.780106825831815"><ele>121.0</ele><time>2026-03-28T09:51:21Z</time></trkpt><trkpt lat="45.40086992979594" lon="10.780184991439945"><ele>121.0</ele><time>2026-03-28T09:51:22Z</time></trkpt><trkpt lat="45.40097942101569" lon="10.780278809510884"><ele>121.0</ele><time>2026-03-28T09:51:23Z</time></trkpt><trkpt lat="45.40107466758482" lon="10.780351972893907"><ele>121.0</ele><time>2026-03-28T09:51:24Z</time></trkpt><trkpt lat="45.40115702827153" lon="10.780405197561517"><ele>121.0</ele><time>2026-03-28T09:51:25Z</time></trkpt><trkpt lat="45.40123593035185" lon="10.780462282675511"><ele>121.0</ele><time>2026-03-28T09:51:26Z</time></trkpt><trkpt lat="45.40131957423824" lon="10.780511284375253"><ele>121.0</ele><time>2026-03-28T09:51:27Z</time></trkpt><trkpt lat="45.40140096436411" lon="10.780547437095201"><ele>121.0</ele><time>2026-03-28T09:51:28Z</time></trkpt><trkpt lat="45.401478153038944" lon="10.780583567878157"><ele>121.0</ele><time>2026-03-28T09:51:29Z</time></trkpt><trkpt lat="45.401549547837625" lon="10.780615843822964"><ele>121.0</ele><time>2026-03-28T09:51:30Z</time></trkpt><trkpt lat="45.4016201523173" lon="10.780758034786276"><ele>121.0</ele><time>2026-03-28T09:51:32Z</time></trkpt><trkpt lat="45.40162401253416" lon="10.78089830208306"><ele>121.0</ele><time>2026-03-28T09:51:33Z</time></trkpt><trkpt lat="45.401674187174756" lon="10.781026625498004"><ele>121.0</ele><time>2026-03-28T09:51:34Z</time></trkpt><trkpt lat="45.40173288506066" lon="10.781171269019087"><ele>121.0</ele><time>2026-03-28T09:51:35Z</time></trkpt><trkpt lat="45.40180297739794" lon="10.781303070770967"><ele>121.0</ele><time>2026-03-28T09:51:36Z</time></trkpt><trkpt lat="45.40188665364233" lon="10.781425417297896"><ele>121.0</ele><time>2026-03-28T09:51:37Z</time></trkpt><trkpt lat="45.401978042124504" lon="10.781539835359279"><ele>121.0</ele><time>2026-03-28T09:51:38Z</time></trkpt><trkpt lat="45.402076156098374" lon="10.781637307381358"><ele>121.0</ele><time>2026-03-28T09:51:39Z</time></trkpt><trkpt lat="45.40217918441844" lon="10.781714945259763"><ele>121.0</ele><time>2026-03-28T09:51:40Z</time></trkpt><trkpt lat="45.40229096834876" lon="10.78178827705624"><ele>120.75</ele><time>2026-03-28T09:51:41Z</time></trkpt><trkpt lat="45.40239074750928" lon="10.78188059481394"><ele>120.5</ele><time>2026-03-28T09:51:42Z</time></trkpt><trkpt lat="45.402487316879174" lon="10.782014238269523"><ele>120.25</ele><time>2026-03-28T09:51:43Z</time></trkpt><trkpt lat="45.402580584311224" lon="10.78216959813473"><ele>120.0</ele><time>2026-03-28T09:51:44Z</time></trkpt><trkpt lat="45.40265862949469" lon="10.782314816281923"><ele>120.0</ele><time>2026-03-28T09:51:45Z</time></trkpt><trkpt lat="45.40274392363595" lon="10.782431490203725"><ele>120.0</ele><time>2026-03-28T09:51:46Z</time></trkpt><trkpt lat="45.40279310449863" lon="10.782566736495179"><ele>120.0</ele><time>2026-03-28T09:51:47Z</time></trkpt><trkpt lat="45.40285678133078" lon="10.782663787893435"><ele>120.0</ele><time>2026-03-28T09:51:48Z</time></trkpt><trkpt lat="45.40291675362655" lon="10.782756268015937"><ele>120.0</ele><time>2026-03-28T09:51:49Z</time></trkpt><trkpt lat="45.402976966982955" lon="10.78283602613463"><ele>119.8</ele><time>2026-03-28T09:51:50Z</time></trkpt><trkpt lat="45.403044214164055" lon="10.782906687777038"><ele>119.6</ele><time>2026-03-28T09:51:51Z</time></trkpt><trkpt lat="45.4031071194655" lon="10.782963761422142"><ele>119.4</ele><time>2026-03-28T09:51:52Z</time></trkpt><trkpt lat="45.40320095701555" lon="10.78306170255166"><ele>119.2</ele><time>2026-03-28T09:51:54Z</time></trkpt><trkpt lat="45.403224626026784" lon="10.783222663367495"><ele>119.0</ele><time>2026-03-28T09:51:56Z</time></trkpt><trkpt lat="45.40326756722067" lon="10.78329749520078"><ele>119.0</ele><time>2026-03-28T09:51:57Z</time></trkpt><trkpt lat="45.40334061787043" lon="10.783372602785475"><ele>119.0</ele><time>2026-03-28T09:51:58Z</time></trkpt><trkpt lat="45.40339329366959" lon="10.783479825802706"><ele>119.0</ele><time>2026-03-28T09:51:59Z</time></trkpt><trkpt lat="45.403446016663764" lon="10.783528884818205"><ele>119.0</ele><time>2026-03-28T09:52:00Z</time></trkpt><trkpt lat="45.40350357603597" lon="10.7836532789145"><ele>119.0</ele><time>2026-03-28T09:52:01Z</time></trkpt><trkpt lat="45.40358565259027" lon="10.78376247532268"><ele>119.25</ele><time>2026-03-28T09:52:02Z</time></trkpt><trkpt lat="45.40366757067199" lon="10.783893609631258"><ele>119.5</ele><time>2026-03-28T09:52:03Z</time></trkpt><trkpt lat="45.403759616024836" lon="10.784031493947738"><ele>119.75</ele><time>2026-03-28T09:52:04Z</time></trkpt><trkpt lat="45.40384142411657" lon="10.784165028360688"><ele>120.0</ele><time>2026-03-28T09:52:05Z</time></trkpt><trkpt lat="45.40390231329157" lon="10.784289230796494"><ele>120.6</ele><time>2026-03-28T09:52:06Z</time></trkpt><trkpt lat="45.403975057404814" lon="10.784390154179402"><ele>121.2</ele><time>2026-03-28T09:52:07Z</time></trkpt><trkpt lat="45.40402151206761" lon="10.784512128518504"><ele>121.80000000000001</ele><time>2026-03-28T09:52:08Z</time></trkpt><trkpt lat="45.404059271885636" lon="10.784663121813995"><ele>122.4</ele><time>2026-03-28T09:52:09Z</time></trkpt><trkpt lat="45.404080808155115" lon="10.784818677991048"><ele>123.0</ele><time>2026-03-28T09:52:10Z</time></trkpt><trkpt lat="45.4040685228618" lon="10.784992988456871"><ele>123.0</ele><time>2026-03-28T09:52:11Z</time></trkpt><trkpt lat="45.40409122373666" lon="10.78516168247371"><ele>123.0</ele><time>2026-03-28T09:52:12Z</time></trkpt><trkpt lat="45.40409534891136" lon="10.785345572782239"><ele>123.0</ele><time>2026-03-28T09:52:13Z</time></trkpt><trkpt lat="45.40411140969386" lon="10.785533262146643"><ele>123.0</ele><time>2026-03-28T09:52:14Z</time></trkpt><trkpt lat="45.40412327215472" lon="10.785688262462529"><ele>123.2</ele><time>2026-03-28T09:52:15Z</time></trkpt><trkpt lat="45.40414418805141" lon="10.785830007111274"><ele>123.4</ele><time>2026-03-28T09:52:16Z</time></trkpt><trkpt lat="45.404187860943374" lon="10.78596998703328"><ele>123.60000000000001</ele><time>2026-03-28T09:52:17Z</time></trkpt><trkpt lat="45.40423166157573" lon="10.78612736987996"><ele>123.80000000000001</ele><time>2026-03-28T09:52:18Z</time></trkpt><trkpt lat="45.404265499389425" lon="10.786259565291138"><ele>124.0</ele><time>2026-03-28T09:52:19Z</time></trkpt><trkpt lat="45.404287661319934" lon="10.786388075808212"><ele>124.00000000000001</ele><time>2026-03-28T09:52:20Z</time></trkpt><trkpt lat="45.404280654613075" lon="10.786519408628255"><ele>124.0</ele><time>2026-03-28T09:52:21Z</time></trkpt><trkpt lat="45.40424645401078" lon="10.786622336549074"><ele>124.0</ele><time>2026-03-28T09:52:22Z</time></trkpt><trkpt lat="45.40424720671128" lon="10.786727092880177"><ele>124.0</ele><time>2026-03-28T09:52:23Z</time></trkpt><trkpt lat="45.40422755549221" lon="10.78682438647665"><ele>124.00000000000001</ele><time>2026-03-28T09:52:24Z</time></trkpt><trkpt lat="45.40422780924324" lon="10.786951753868443"><ele>124.0</ele><time>2026-03-28T09:52:25Z</time></trkpt><trkpt lat="45.40423562784881" lon="10.787106146765385"><ele>123.0</ele><time>2026-03-28T09:52:26Z</time></trkpt><trkpt lat="45.404257954012365" lon="10.787231067382056"><ele>122.0</ele><time>2026-03-28T09:52:27Z</time></trkpt><trkpt lat="45.40427732491235" lon="10.787374068278556"><ele>121.0</ele><time>2026-03-28T09:52:28Z</time></trkpt><trkpt lat="45.40429727883521" lon="10.787511299436854"><ele>120.0</ele><time>2026-03-28T09:52:29Z</time></trkpt><trkpt lat="45.40433419041382" lon="10.787644280354161"><ele>119.0</ele><time>2026-03-28T09:52:30Z</time></trkpt><trkpt lat="45.40437428723943" lon="10.787756934311789"><ele>118.33333333333333</ele><time>2026-03-28T09:52:31Z</time></trkpt><trkpt lat="45.404417520866375" lon="10.787852540607908"><ele>117.66666666666666</ele><time>2026-03-28T09:52:32Z</time></trkpt><trkpt lat="45.404468463714636" lon="10.78794709099739"><ele>117.0</ele><time>2026-03-28T09:52:33Z</time></trkpt><trkpt lat="45.40451460737685" lon="10.78803923151619"><ele>116.33333333333334</ele><time>2026-03-28T09:52:34Z</time></trkpt><trkpt lat="45.40458103439911" lon="10.788125243460707"><ele>115.66666666666667</ele><time>2026-03-28T09:52:35Z</time></trkpt><trkpt lat="45.40464724949613" lon="10.788199717325138"><ele>115.0</ele><time>2026-03-28T09:52:36Z</time></trkpt><trkpt lat="45.40471188801365" lon="10.788292354223769"><ele>115.0</ele><time>2026-03-28T09:52:37Z</time></trkpt><trkpt lat="45.40476893414922" lon="10.7883657087252"><ele>115.0</ele><time>2026-03-28T09:52:38Z</time></trkpt><trkpt lat="45.40481469228883" lon="10.788460215062239"><ele>115.0</ele><time>2026-03-28T09:52:39Z</time></trkpt><trkpt lat="45.40485310333365" lon="10.78854734594974"><ele>115.0</ele><time>2026-03-28T09:52:40Z</time></trkpt><trkpt lat="45.404863994978115" lon="10.78872050031435"><ele>115.0</ele><time>2026-03-28T09:52:41Z</time></trkpt><trkpt lat="45.40486354119273" lon="10.78890643211847"><ele>114.0</ele><time>2026-03-28T09:52:42Z</time></trkpt><trkpt lat="45.40487406651715" lon="10.78909201216675"><ele>113.0</ele><time>2026-03-28T09:52:43Z</time></trkpt><trkpt lat="45.40487665389605" lon="10.789280667986642"><ele>112.0</ele><time>2026-03-28T09:52:44Z</time></trkpt><trkpt lat="45.4048888606259" lon="10.789473116176438"><ele>111.0</ele><time>2026-03-28T09:52:45Z</time></trkpt><trkpt lat="45.404878654578894" lon="10.789645231645581"><ele>111.0</ele><time>2026-03-28T09:52:46Z</time></trkpt><trkpt lat="45.404894961739906" lon="10.789809906900166"><ele>111.0</ele><time>2026-03-28T09:52:47Z</time></trkpt><trkpt lat="45.404887214692046" lon="10.789978522901272"><ele>111.0</ele><time>2026-03-28T09:52:48Z</time></trkpt><trkpt lat="45.404881641178044" lon="10.79015789117444"><ele>111.0</ele><time>2026-03-28T09:52:49Z</time></trkpt><trkpt lat="45.40487992972656" lon="10.790346007944281"><ele>110.75</ele><time>2026-03-28T09:52:50Z</time></trkpt><trkpt lat="45.40488329053331" lon="10.790532537300612"><ele>110.5</ele><time>2026-03-28T09:52:51Z</time></trkpt><trkpt lat="45.40488530855828" lon="10.790711596043899"><ele>110.25</ele><time>2026-03-28T09:52:52Z</time></trkpt><trkpt lat="45.40488828275269" lon="10.790869688147051"><ele>110.0</ele><time>2026-03-28T09:52:53Z</time></trkpt><trkpt lat="45.40488937175936" lon="10.791001077837034"><ele>110.4</ele><time>2026-03-28T09:52:54Z</time></trkpt><trkpt lat="45.40488997136052" lon="10.791120064060086"><ele>110.8</ele><time>2026-03-28T09:52:55Z</time></trkpt><trkpt lat="45.40489053094235" lon="10.791217686548078"><ele>111.19999999999999</ele><time>2026-03-28T09:52:56Z</time></trkpt><trkpt lat="45.40489752115015" lon="10.791383795503961"><ele>111.6</ele><time>2026-03-28T09:52:58Z</time></trkpt><trkpt lat="45.404900676107914" lon="10.791490737181514"><ele>112.0</ele><time>2026-03-28T09:53:00Z</time></trkpt><trkpt lat="45.4050366919728" lon="10.791517952939664"><ele>112.0</ele><time>2026-03-28T09:53:02Z</time></trkpt><trkpt lat="45.405111707123496" lon="10.791532619124158"><ele>111.99999999999999</ele><time>2026-03-28T09:53:03Z</time></trkpt><trkpt lat="45.405210221653434" lon="10.791514591414558"><ele>111.99999999999999</ele><time>2026-03-28T09:53:04Z</time></trkpt><trkpt lat="45.405334926945216" lon="10.791498784896378"><ele>112.0</ele><time>2026-03-28T09:53:05Z</time></trkpt><trkpt lat="45.405472239875266" lon="10.791493175450201"><ele>112.0</ele><time>2026-03-28T09:53:06Z</time></trkpt><trkpt lat="45.405623644838585" lon="10.79148581422394"><ele>112.33333333333334</ele><time>2026-03-28T09:53:07Z</time></trkpt><trkpt lat="45.405784152212235" lon="10.791469971794031"><ele>112.66666666666666</ele><time>2026-03-28T09:53:08Z</time></trkpt><trkpt lat="45.40595828619497" lon="10.791449001904182"><ele>113.0</ele><time>2026-03-28T09:53:09Z</time></trkpt><trkpt lat="45.40611921598699" lon="10.791431667554706"><ele>113.0</ele><time>2026-03-28T09:53:10Z</time></trkpt><trkpt lat="45.406275197913835" lon="10.791417389577258"><ele>113.0</ele><time>2026-03-28T09:53:11Z</time></trkpt><trkpt lat="45.4064328785975" lon="10.79140324008027"><ele>113.0</ele><time>2026-03-28T09:53:12Z</time></trkpt><trkpt lat="45.406595510451375" lon="10.79139479595305"><ele>112.66666666666666</ele><time>2026-03-28T09:53:13Z</time></trkpt><trkpt lat="45.406757381721036" lon="10.791386531773272"><ele>112.33333333333334</ele><time>2026-03-28T09:53:14Z</time></trkpt><trkpt lat="45.40692403562654" lon="10.791376341381005"><ele>112.0</ele><time>2026-03-28T09:53:15Z</time></trkpt><trkpt lat="45.4070948362661" lon="10.791360891770637"><ele>112.0</ele><time>2026-03-28T09:53:16Z</time></trkpt><trkpt lat="45.40726936709601" lon="10.791349109091948"><ele>112.0</ele><time>2026-03-28T09:53:17Z</time></trkpt><trkpt lat="45.40744746564276" lon="10.791339270073472"><ele>112.0</ele><time>2026-03-28T09:53:18Z</time></trkpt><trkpt lat="45.40761823437171" lon="10.791333184709652"><ele>112.0</ele><time>2026-03-28T09:53:19Z</time></trkpt><trkpt lat="45.4077824131579" lon="10.791323619341862"><ele>112.0</ele><time>2026-03-28T09:53:20Z</time></trkpt><trkpt lat="45.40806969755074" lon="10.791309251645716"><ele>112.25</ele><time>2026-03-28T09:53:22Z</time></trkpt><trkpt lat="45.40822384832065" lon="10.79129845526969"><ele>112.5</ele><time>2026-03-28T09:53:23Z</time></trkpt><trkpt lat="45.408377772205355" lon="10.791289535641992"><ele>112.75</ele><time>2026-03-28T09:53:24Z</time></trkpt><trkpt lat="45.40851800946773" lon="10.791276800313312"><ele>113.0</ele><time>2026-03-28T09:53:25Z</time></trkpt><trkpt lat="45.40864589636294" lon="10.791266076513516"><ele>113.0</ele><time>2026-03-28T09:53:26Z</time></trkpt><trkpt lat="45.40876340548082" lon="10.791256890065236"><ele>113.00000000000001</ele><time>2026-03-28T09:53:27Z</time></trkpt><trkpt lat="45.40887176542986" lon="10.791269712426983"><ele>113.00000000000001</ele><time>2026-03-28T09:53:28Z</time></trkpt><trkpt lat="45.40896749725459" lon="10.791265388163316"><ele>113.0</ele><time>2026-03-28T09:53:29Z</time></trkpt><trkpt lat="45.40904900340764" lon="10.791261706480249"><ele>113.0</ele><time>2026-03-28T09:53:30Z</time></trkpt><trkpt lat="45.40911455411701" lon="10.79125874551609"><ele>113.0</ele><time>2026-03-28T09:53:31Z</time></trkpt><trkpt lat="45.40921836091878" lon="10.791236946622817"><ele>113.0</ele><time>2026-03-28T09:53:33Z</time></trkpt><trkpt lat="45.409284218001275" lon="10.79125108169794"><ele>113.0</ele><time>2026-03-28T09:53:36Z</time></trkpt><trkpt lat="45.409319214874955" lon="10.790964481775587"><ele>113.0</ele><time>2026-03-28T09:53:38Z</time></trkpt><trkpt lat="45.409310618405264" lon="10.790804298799365"><ele>113.16666666666666</ele><time>2026-03-28T09:53:39Z</time></trkpt><trkpt lat="45.40930260309251" lon="10.79065494565759"><ele>113.33333333333333</ele><time>2026-03-28T09:53:40Z</time></trkpt><trkpt lat="45.409300087241434" lon="10.790525450854915"><ele>113.5</ele><time>2026-03-28T09:53:41Z</time></trkpt><trkpt lat="45.40929704856611" lon="10.790419630298539"><ele>113.66666666666666</ele><time>2026-03-28T09:53:42Z</time></trkpt><trkpt lat="45.409306163759496" lon="10.790288420737081"><ele>113.83333333333333</ele><time>2026-03-28T09:53:44Z</time></trkpt><trkpt lat="45.4093350756812" lon="10.790189522675744"><ele>114.0</ele><time>2026-03-28T09:53:46Z</time></trkpt><trkpt lat="45.40957050500769" lon="10.79009189885755"><ele>114.4</ele><time>2026-03-28T09:53:47Z</time></trkpt><trkpt lat="45.40966680412466" lon="10.789995905222167"><ele>114.80000000000001</ele><time>2026-03-28T09:53:48Z</time></trkpt><trkpt lat="45.40974493815285" lon="10.789917267583283"><ele>115.19999999999999</ele><time>2026-03-28T09:53:49Z</time></trkpt><trkpt lat="45.40981543745764" lon="10.789833648687798"><ele>115.6</ele><time>2026-03-28T09:53:50Z</time></trkpt><trkpt lat="45.40991510096533" lon="10.789737307297871"><ele>116.0</ele><time>2026-03-28T09:53:51Z</time></trkpt><trkpt lat="45.41002906101038" lon="10.78963121849705"><ele>116.0</ele><time>2026-03-28T09:53:52Z</time></trkpt><trkpt lat="45.41015766007195" lon="10.78951172761818"><ele>116.0</ele><time>2026-03-28T09:53:53Z</time></trkpt><trkpt lat="45.41030084114112" lon="10.789380590201434"><ele>116.0</ele><time>2026-03-28T09:53:54Z</time></trkpt><trkpt lat="45.410445186739125" lon="10.789246006168124"><ele>116.33333333333333</ele><time>2026-03-28T09:53:55Z</time></trkpt><trkpt lat="45.41058736758434" lon="10.789103022348122"><ele>116.66666666666666</ele><time>2026-03-28T09:53:56Z</time></trkpt><trkpt lat="45.41073312187895" lon="10.788967818478127"><ele>117.0</ele><time>2026-03-28T09:53:57Z</time></trkpt><trkpt lat="45.41086009579282" lon="10.788861595808923"><ele>117.0</ele><time>2026-03-28T09:53:58Z</time></trkpt><trkpt lat="45.41097329227795" lon="10.78876224519795"><ele>117.0</ele><time>2026-03-28T09:53:59Z</time></trkpt><trkpt lat="45.41108178526366" lon="10.788662670385975"><ele>117.0</ele><time>2026-03-28T09:54:00Z</time></trkpt><trkpt lat="45.41119475758881" lon="10.788549957967291"><ele>117.0</ele><time>2026-03-28T09:54:01Z</time></trkpt><trkpt lat="45.41130169006912" lon="10.788415781223337"><ele>117.25</ele><time>2026-03-28T09:54:02Z</time></trkpt><trkpt lat="45.411399084174505" lon="10.788285487284838"><ele>117.5</ele><time>2026-03-28T09:54:03Z</time></trkpt><trkpt lat="45.41149869220811" lon="10.788159644616307"><ele>117.75</ele><time>2026-03-28T09:54:04Z</time></trkpt><trkpt lat="45.411600901634706" lon="10.788041409245356"><ele>118.0</ele><time>2026-03-28T09:54:05Z</time></trkpt><trkpt lat="45.41171337123928" lon="10.787930953265523"><ele>118.0</ele><time>2026-03-28T09:54:06Z</time></trkpt><trkpt lat="45.411813928379274" lon="10.787839606334265"><ele>118.00000000000001</ele><time>2026-03-28T09:54:07Z</time></trkpt><trkpt lat="45.41190009707432" lon="10.787773215726451"><ele>118.00000000000001</ele><time>2026-03-28T09:54:08Z</time></trkpt><trkpt lat="45.4119769641447" lon="10.78771101124937"><ele>118.0</ele><time>2026-03-28T09:54:09Z</time></trkpt><trkpt lat="45.41204839295692" lon="10.787635607439547"><ele>118.0</ele><time>2026-03-28T09:54:10Z</time></trkpt><trkpt lat="45.41210984577688" lon="10.78754139287121"><ele>118.0</ele><time>2026-03-28T09:54:11Z</time></trkpt><trkpt lat="45.41215718122651" lon="10.787418972256091"><ele>118.00000000000001</ele><time>2026-03-28T09:54:12Z</time></trkpt><trkpt lat="45.41218794934155" lon="10.787255690968118"><ele>118.00000000000001</ele><time>2026-03-28T09:54:13Z</time></trkpt><trkpt lat="45.41220426891653" lon="10.787092812749039"><ele>118.0</ele><time>2026-03-28T09:54:14Z</time></trkpt><trkpt lat="45.412219680220176" lon="10.786939378784448"><ele>118.0</ele><time>2026-03-28T09:54:15Z</time></trkpt><trkpt lat="45.41225688094963" lon="10.786797658030457"><ele>117.5</ele><time>2026-03-28T09:54:16Z</time></trkpt><trkpt lat="45.41232424079221" lon="10.786673384595355"><ele>117.0</ele><time>2026-03-28T09:54:17Z</time></trkpt><trkpt lat="45.41241717950442" lon="10.786553137983596"><ele>116.5</ele><time>2026-03-28T09:54:18Z</time></trkpt><trkpt lat="45.41252179280844" lon="10.78641975721528"><ele>116.0</ele><time>2026-03-28T09:54:19Z</time></trkpt><trkpt lat="45.412636693089055" lon="10.78627342407689"><ele>116.0</ele><time>2026-03-28T09:54:20Z</time></trkpt><trkpt lat="45.41275951844962" lon="10.786114979082116"><ele>116.0</ele><time>2026-03-28T09:54:21Z</time></trkpt><trkpt lat="45.4128834429223" lon="10.78594639437326"><ele>116.0</ele><time>2026-03-28T09:54:22Z</time></trkpt><trkpt lat="45.41300342960236" lon="10.785788746271844"><ele>117.0</ele><time>2026-03-28T09:54:23Z</time></trkpt><trkpt lat="45.413111108323406" lon="10.785638038012149"><ele>118.0</ele><time>2026-03-28T09:54:24Z</time></trkpt><trkpt lat="45.413208711397225" lon="10.785475693350438"><ele>119.0</ele><time>2026-03-28T09:54:25Z</time></trkpt><trkpt lat="45.413306252881355" lon="10.785291982563102"><ele>120.0</ele><time>2026-03-28T09:54:26Z</time></trkpt><trkpt lat="45.413408260263395" lon="10.785115871883697"><ele>121.0</ele><time>2026-03-28T09:54:27Z</time></trkpt><trkpt lat="45.41350887374725" lon="10.784948136331687"><ele>122.0</ele><time>2026-03-28T09:54:28Z</time></trkpt><trkpt lat="45.41360111385198" lon="10.784794590938578"><ele>122.0</ele><time>2026-03-28T09:54:29Z</time></trkpt><trkpt lat="45.413678003494034" lon="10.784654983590402"><ele>121.99999999999999</ele><time>2026-03-28T09:54:30Z</time></trkpt><trkpt lat="45.41374691111724" lon="10.784533921137442"><ele>121.99999999999999</ele><time>2026-03-28T09:54:31Z</time></trkpt><trkpt lat="45.41380736762976" lon="10.784432906290325"><ele>122.0</ele><time>2026-03-28T09:54:32Z</time></trkpt><trkpt lat="45.41386222168381" lon="10.784342553087631"><ele>122.0</ele><time>2026-03-28T09:54:33Z</time></trkpt><trkpt lat="45.4139041984475" lon="10.784260702851187"><ele>122.0</ele><time>2026-03-28T09:54:34Z</time></trkpt><trkpt lat="45.41398825966314" lon="10.78416262549414"><ele>121.99999999999999</ele><time>2026-03-28T09:54:36Z</time></trkpt><trkpt lat="45.41409996394023" lon="10.784195496220581"><ele>121.99999999999999</ele><time>2026-03-28T09:54:38Z</time></trkpt><trkpt lat="45.41417326064393" lon="10.784239693510763"><ele>122.0</ele><time>2026-03-28T09:54:39Z</time></trkpt><trkpt lat="45.4142495517272" lon="10.784302894378802"><ele>122.0</ele><time>2026-03-28T09:54:40Z</time></trkpt><trkpt lat="45.41433049768991" lon="10.78436373222004"><ele>121.99999999999999</ele><time>2026-03-28T09:54:41Z</time></trkpt><trkpt lat="45.414398426253605" lon="10.784413189981079"><ele>122.0</ele><time>2026-03-28T09:54:42Z</time></trkpt><trkpt lat="45.41446090580888" lon="10.784452279789665"><ele>122.0</ele><time>2026-03-28T09:54:43Z</time></trkpt><trkpt lat="45.41453360605528" lon="10.784502959599005"><ele>122.0</ele><time>2026-03-28T09:54:45Z</time></trkpt><trkpt lat="45.41459199245759" lon="10.78454257589252"><ele>121.99999999999999</ele><time>2026-03-28T09:54:48Z</time></trkpt><trkpt lat="45.41468716233253" lon="10.784600627097294"><ele>122.0</ele><time>2026-03-28T09:54:50Z</time></trkpt><trkpt lat="45.41477456607008" lon="10.784655388510416"><ele>122.0</ele><time>2026-03-28T09:54:51Z</time></trkpt><trkpt lat="45.414870894546056" lon="10.78472543475489"><ele>122.0</ele><time>2026-03-28T09:54:52Z</time></trkpt><trkpt lat="45.414983026965665" lon="10.784805686080185"><ele>122.0</ele><time>2026-03-28T09:54:53Z</time></trkpt><trkpt lat="45.415105583252455" lon="10.784896943364073"><ele>122.0</ele><time>2026-03-28T09:54:54Z</time></trkpt><trkpt lat="45.41524748377008" lon="10.78498778101625"><ele>122.0</ele><time>2026-03-28T09:54:55Z</time></trkpt><trkpt lat="45.41540077255412" lon="10.785092256320317"><ele>122.0</ele><time>2026-03-28T09:54:56Z</time></trkpt><trkpt lat="45.41555659455227" lon="10.785197435346262"><ele>122.0</ele><time>2026-03-28T09:54:57Z</time></trkpt><trkpt lat="45.41571699656984" lon="10.785305261817767"><ele>121.66666666666666</ele><time>2026-03-28T09:54:58Z</time></trkpt><trkpt lat="45.41588695220526" lon="10.78540852168011"><ele>121.33333333333334</ele><time>2026-03-28T09:54:59Z</time></trkpt><trkpt lat="45.41605820270183" lon="10.785517565887492"><ele>121.0</ele><time>2026-03-28T09:55:00Z</time></trkpt><trkpt lat="45.41623623444591" lon="10.785624230189011"><ele>122.33333333333334</ele><time>2026-03-28T09:55:01Z</time></trkpt><trkpt lat="45.41641113623977" lon="10.785734301685098"><ele>123.66666666666666</ele><time>2026-03-28T09:55:02Z</time></trkpt><trkpt lat="45.41656291140662" lon="10.785840615531077"><ele>125.0</ele><time>2026-03-28T09:55:03Z</time></trkpt><trkpt lat="45.416708392327635" lon="10.785936214597747"><ele>123.66666666666666</ele><time>2026-03-28T09:55:04Z</time></trkpt><trkpt lat="45.416850357934216" lon="10.78603425008334"><ele>122.33333333333334</ele><time>2026-03-28T09:55:05Z</time></trkpt><trkpt lat="45.41697810114857" lon="10.786122016316408"><ele>121.0</ele><time>2026-03-28T09:55:06Z</time></trkpt><trkpt lat="45.41712187594006" lon="10.786215540820521"><ele>123.0</ele><time>2026-03-28T09:55:07Z</time></trkpt><trkpt lat="45.4172628995709" lon="10.78631332954808"><ele>125.0</ele><time>2026-03-28T09:55:08Z</time></trkpt><trkpt lat="45.41755238995858" lon="10.78649999574776"><ele>125.0</ele><time>2026-03-28T09:55:10Z</time></trkpt><trkpt lat="45.41769855433695" lon="10.78659148516976"><ele>125.0</ele><time>2026-03-28T09:55:11Z</time></trkpt><trkpt lat="45.41784600689721" lon="10.786686880133585"><ele>125.0</ele><time>2026-03-28T09:55:12Z</time></trkpt><trkpt lat="45.41799347090142" lon="10.786786184803844"><ele>125.0</ele><time>2026-03-28T09:55:13Z</time></trkpt><trkpt lat="45.41813206638093" lon="10.786882003308463"><ele>125.0</ele><time>2026-03-28T09:55:14Z</time></trkpt><trkpt lat="45.41825422404806" lon="10.786965756905435"><ele>125.0</ele><time>2026-03-28T09:55:15Z</time></trkpt><trkpt lat="45.41837192723055" lon="10.78705162485492"><ele>125.0</ele><time>2026-03-28T09:55:16Z</time></trkpt><trkpt lat="45.41847610417992" lon="10.787135127248463"><ele>125.0</ele><time>2026-03-28T09:55:17Z</time></trkpt><trkpt lat="45.41857141112856" lon="10.78720710239433"><ele>125.0</ele><time>2026-03-28T09:55:18Z</time></trkpt><trkpt lat="45.41866688655515" lon="10.787263857320081"><ele>125.0</ele><time>2026-03-28T09:55:19Z</time></trkpt><trkpt lat="45.418754945702" lon="10.78731003786954"><ele>125.0</ele><time>2026-03-28T09:55:20Z</time></trkpt><trkpt lat="45.4188383103975" lon="10.787347509851845"><ele>125.0</ele><time>2026-03-28T09:55:21Z</time></trkpt><trkpt lat="45.41891855626501" lon="10.787381644370466"><ele>124.66666666666666</ele><time>2026-03-28T09:55:22Z</time></trkpt><trkpt lat="45.41898978584943" lon="10.787405403335608"><ele>124.33333333333333</ele><time>2026-03-28T09:55:23Z</time></trkpt><trkpt lat="45.419047462277454" lon="10.787450233140198"><ele>124.0</ele><time>2026-03-28T09:55:24Z</time></trkpt><trkpt lat="45.41911568566084" lon="10.787462592201022"><ele>123.66666666666666</ele><time>2026-03-28T09:55:25Z</time></trkpt><trkpt lat="45.41918235502275" lon="10.787434765735664"><ele>123.33333333333333</ele><time>2026-03-28T09:55:26Z</time></trkpt><trkpt lat="45.419241640244074" lon="10.787350199598718"><ele>123.0</ele><time>2026-03-28T09:55:27Z</time></trkpt><trkpt lat="45.41924215563856" lon="10.78721175705704"><ele>123.0</ele><time>2026-03-28T09:55:28Z</time></trkpt><trkpt lat="45.419261036324585" lon="10.787098681948398"><ele>123.0</ele><time>2026-03-28T09:55:29Z</time></trkpt><trkpt lat="45.4193043650224" lon="10.787002922643019"><ele>123.0</ele><time>2026-03-28T09:55:30Z</time></trkpt><trkpt lat="45.41937128305269" lon="10.786927775563935"><ele>123.0</ele><time>2026-03-28T09:55:32Z</time></trkpt><trkpt lat="45.419437951029856" lon="10.78695895397881"><ele>123.0</ele><time>2026-03-28T09:55:33Z</time></trkpt><trkpt lat="45.419500241884464" lon="10.787030987469452"><ele>123.0</ele><time>2026-03-28T09:55:34Z</time></trkpt><trkpt lat="45.41960900588232" lon="10.787076849059034"><ele>123.5</ele><time>2026-03-28T09:55:35Z</time></trkpt><trkpt lat="45.41972781719914" lon="10.78715051788175"><ele>124.0</ele><time>2026-03-28T09:55:36Z</time></trkpt><trkpt lat="45.41985077347282" lon="10.787229744680117"><ele>124.5</ele><time>2026-03-28T09:55:37Z</time></trkpt><trkpt lat="45.41996550134778" lon="10.787306225245146"><ele>125.0</ele><time>2026-03-28T09:55:38Z</time></trkpt><trkpt lat="45.420073945371485" lon="10.787400440547467"><ele>125.0</ele><time>2026-03-28T09:55:39Z</time></trkpt><trkpt lat="45.420183487619816" lon="10.787533572866057"><ele>125.0</ele><time>2026-03-28T09:55:40Z</time></trkpt><trkpt lat="45.42028753581992" lon="10.787700003332848"><ele>125.0</ele><time>2026-03-28T09:55:41Z</time></trkpt><trkpt lat="45.420397737095584" lon="10.787875921506092"><ele>126.0</ele><time>2026-03-28T09:55:42Z</time></trkpt><trkpt lat="45.42050165439256" lon="10.788024050015293"><ele>127.0</ele><time>2026-03-28T09:55:43Z</time></trkpt><trkpt lat="45.420608880620456" lon="10.788148810178956"><ele>128.0</ele><time>2026-03-28T09:55:44Z</time></trkpt><trkpt lat="45.420715507894975" lon="10.788256625012519"><ele>129.0</ele><time>2026-03-28T09:55:45Z</time></trkpt><trkpt lat="45.42081257420614" lon="10.78835209784658"><ele>129.0</ele><time>2026-03-28T09:55:46Z</time></trkpt><trkpt lat="45.42089704113486" lon="10.788440626220295"><ele>129.0</ele><time>2026-03-28T09:55:47Z</time></trkpt><trkpt lat="45.42097276469431" lon="10.788525598224961"><ele>129.0</ele><time>2026-03-28T09:55:48Z</time></trkpt><trkpt lat="45.4210462902641" lon="10.788599316955274"><ele>129.0</ele><time>2026-03-28T09:55:49Z</time></trkpt><trkpt lat="45.421101844170316" lon="10.788673555837066"><ele>129.0</ele><time>2026-03-28T09:55:50Z</time></trkpt><trkpt lat="45.421164347322076" lon="10.78874979287138"><ele>129.0</ele><time>2026-03-28T09:55:51Z</time></trkpt><trkpt lat="45.42122996992632" lon="10.788823660438043"><ele>129.0</ele><time>2026-03-28T09:55:52Z</time></trkpt><trkpt lat="45.42131808966455" lon="10.788918821967341"><ele>129.0</ele><time>2026-03-28T09:55:53Z</time></trkpt><trkpt lat="45.421410113353595" lon="10.789019848526895"><ele>129.0</ele><time>2026-03-28T09:55:54Z</time></trkpt><trkpt lat="45.42149808755826" lon="10.789147425070153"><ele>129.0</ele><time>2026-03-28T09:55:55Z</time></trkpt><trkpt lat="45.42158095072777" lon="10.789289965269917"><ele>129.4</ele><time>2026-03-28T09:55:56Z</time></trkpt><trkpt lat="45.42165561016819" lon="10.789424130927651"><ele>129.8</ele><time>2026-03-28T09:55:57Z</time></trkpt><trkpt lat="45.42171283716364" lon="10.789553389612935"><ele>130.2</ele><time>2026-03-28T09:55:58Z</time></trkpt><trkpt lat="45.42176138772057" lon="10.789691955977293"><ele>130.6</ele><time>2026-03-28T09:55:59Z</time></trkpt><trkpt lat="45.421803795494334" lon="10.789821501756544"><ele>131.0</ele><time>2026-03-28T09:56:00Z</time></trkpt><trkpt lat="45.42184916200096" lon="10.789949544624523"><ele>131.0</ele><time>2026-03-28T09:56:01Z</time></trkpt><trkpt lat="45.421891589266494" lon="10.790079316781496"><ele>131.0</ele><time>2026-03-28T09:56:02Z</time></trkpt><trkpt lat="45.42192976036978" lon="10.79019850174644"><ele>131.0</ele><time>2026-03-28T09:56:03Z</time></trkpt><trkpt lat="45.42197220851079" lon="10.790317059518912"><ele>131.0</ele><time>2026-03-28T09:56:04Z</time></trkpt><trkpt lat="45.422012583547854" lon="10.790412117050112"><ele>131.0</ele><time>2026-03-28T09:56:05Z</time></trkpt><trkpt lat="45.42205750129201" lon="10.790490083064805"><ele>131.0</ele><time>2026-03-28T09:56:06Z</time></trkpt><trkpt lat="45.42216688289664" lon="10.790547715276219"><ele>131.0</ele><time>2026-03-28T09:56:08Z</time></trkpt><trkpt lat="45.42223259923924" lon="10.790503354675113"><ele>131.0</ele><time>2026-03-28T09:56:09Z</time></trkpt><trkpt lat="45.4223136824331" lon="10.790425834429415"><ele>131.0</ele><time>2026-03-28T09:56:10Z</time></trkpt><trkpt lat="45.422409679954455" lon="10.79037680267574"><ele>131.0</ele><time>2026-03-28T09:56:11Z</time></trkpt><trkpt lat="45.422527745103395" lon="10.790360808243344"><ele>131.0</ele><time>2026-03-28T09:56:12Z</time></trkpt><trkpt lat="45.4226641440626" lon="10.790346145056427"><ele>131.0</ele><time>2026-03-28T09:56:13Z</time></trkpt><trkpt lat="45.422790472705685" lon="10.790331201433014"><ele>131.0</ele><time>2026-03-28T09:56:14Z</time></trkpt><trkpt lat="45.422913933206054" lon="10.790296634665548"><ele>131.0</ele><time>2026-03-28T09:56:15Z</time></trkpt><trkpt lat="45.423031725666874" lon="10.790265358099928"><ele>131.0</ele><time>2026-03-28T09:56:16Z</time></trkpt><trkpt lat="45.423146798565355" lon="10.790235742024635"><ele>130.8</ele><time>2026-03-28T09:56:17Z</time></trkpt><trkpt lat="45.42325237457502" lon="10.790208266060445"><ele>130.6</ele><time>2026-03-28T09:56:18Z</time></trkpt><trkpt lat="45.42335640006975" lon="10.790183194488518"><ele>130.4</ele><time>2026-03-28T09:56:19Z</time></trkpt><trkpt lat="45.42345846661092" lon="10.790160499428879"><ele>130.2</ele><time>2026-03-28T09:56:20Z</time></trkpt><trkpt lat="45.42355598497229" lon="10.790139770900279"><ele>130.0</ele><time>2026-03-28T09:56:21Z</time></trkpt><trkpt lat="45.423645512456766" lon="10.790117777408403"><ele>130.0</ele><time>2026-03-28T09:56:22Z</time></trkpt><trkpt lat="45.423716486358344" lon="10.790079166087333"><ele>130.0</ele><time>2026-03-28T09:56:23Z</time></trkpt><trkpt lat="45.4237982548767" lon="10.790033149885558"><ele>130.0</ele><time>2026-03-28T09:56:24Z</time></trkpt><trkpt lat="45.42386623669511" lon="10.78998429185446"><ele>130.0</ele><time>2026-03-28T09:56:25Z</time></trkpt><trkpt lat="45.42394950992" lon="10.789943462736453"><ele>130.0</ele><time>2026-03-28T09:56:27Z</time></trkpt><trkpt lat="45.42403340490744" lon="10.789949361453504"><ele>130.0</ele><time>2026-03-28T09:56:32Z</time></trkpt><trkpt lat="45.424025492722365" lon="10.790176722632435"><ele>130.25</ele><time>2026-03-28T09:56:33Z</time></trkpt><trkpt lat="45.424047813448354" lon="10.790329869145326"><ele>130.5</ele><time>2026-03-28T09:56:34Z</time></trkpt><trkpt lat="45.42404949313788" lon="10.790501472490227"><ele>130.75</ele><time>2026-03-28T09:56:35Z</time></trkpt><trkpt lat="45.4240620614749" lon="10.790698495644005"><ele>131.0</ele><time>2026-03-28T09:56:36Z</time></trkpt><trkpt lat="45.4240817116468" lon="10.79090761181884"><ele>131.0</ele><time>2026-03-28T09:56:37Z</time></trkpt><trkpt lat="45.424100955795836" lon="10.791146182228433"><ele>131.0</ele><time>2026-03-28T09:56:38Z</time></trkpt><trkpt lat="45.42410459419322" lon="10.791376039585323"><ele>131.0</ele><time>2026-03-28T09:56:39Z</time></trkpt><trkpt lat="45.42410095535866" lon="10.791574829494987"><ele>131.0</ele><time>2026-03-28T09:56:40Z</time></trkpt><trkpt lat="45.424099339515195" lon="10.791740313721633"><ele>131.0</ele><time>2026-03-28T09:56:41Z</time></trkpt><trkpt lat="45.4240977825022" lon="10.791881575796937"><ele>131.0</ele><time>2026-03-28T09:56:42Z</time></trkpt><trkpt lat="45.42409725035375" lon="10.791997392973952"><ele>131.0</ele><time>2026-03-28T09:56:43Z</time></trkpt><trkpt lat="45.42410230737265" lon="10.792093649721282"><ele>131.0</ele><time>2026-03-28T09:56:44Z</time></trkpt><trkpt lat="45.42416621694234" lon="10.792203271834518"><ele>130.5</ele><time>2026-03-28T09:56:46Z</time></trkpt><trkpt lat="45.424250491408415" lon="10.792216792423462"><ele>130.0</ele><time>2026-03-28T09:56:47Z</time></trkpt><trkpt lat="45.42435955964856" lon="10.792229794843808"><ele>129.5</ele><time>2026-03-28T09:56:48Z</time></trkpt><trkpt lat="45.42449304808075" lon="10.79227117654019"><ele>129.0</ele><time>2026-03-28T09:56:49Z</time></trkpt><trkpt lat="45.424647086944994" lon="10.792319416744364"><ele>128.2</ele><time>2026-03-28T09:56:50Z</time></trkpt><trkpt lat="45.424786410149146" lon="10.792357129997498"><ele>127.4</ele><time>2026-03-28T09:56:51Z</time></trkpt><trkpt lat="45.424900306811296" lon="10.792399247838972"><ele>126.6</ele><time>2026-03-28T09:56:52Z</time></trkpt><trkpt lat="45.42498518591301" lon="10.79243452589976"><ele>125.8</ele><time>2026-03-28T09:56:53Z</time></trkpt><trkpt lat="45.42504676603884" lon="10.792455180660852"><ele>125.0</ele><time>2026-03-28T09:56:54Z</time></trkpt><trkpt lat="45.42512379744911" lon="10.792480082593379"><ele>125.0</ele><time>2026-03-28T09:56:56Z</time></trkpt><trkpt lat="45.42522744190728" lon="10.792519435008387"><ele>125.0</ele><time>2026-03-28T09:57:18Z</time></trkpt><trkpt lat="45.425309738696704" lon="10.792533881177489"><ele>125.0</ele><time>2026-03-28T09:57:19Z</time></trkpt><trkpt lat="45.42540135674674" lon="10.792523221312294"><ele>125.0</ele><time>2026-03-28T09:57:20Z</time></trkpt><trkpt lat="45.425512832439466" lon="10.79248516933981"><ele>125.0</ele><time>2026-03-28T09:57:21Z</time></trkpt><trkpt lat="45.42563196330238" lon="10.792434942917588"><ele>125.25</ele><time>2026-03-28T09:57:22Z</time></trkpt><trkpt lat="45.425745239480534" lon="10.792395820701039"><ele>125.5</ele><time>2026-03-28T09:57:23Z</time></trkpt><trkpt lat="45.425871443466264" lon="10.792355658835568"><ele>125.75</ele><time>2026-03-28T09:57:24Z</time></trkpt><trkpt lat="45.42598841338823" lon="10.792310722669347"><ele>126.0</ele><time>2026-03-28T09:57:25Z</time></trkpt><trkpt lat="45.42608830232705" lon="10.792274801824894"><ele>126.0</ele><time>2026-03-28T09:57:26Z</time></trkpt><trkpt lat="45.42619334942196" lon="10.79224934035266"><ele>126.0</ele><time>2026-03-28T09:57:27Z</time></trkpt><trkpt lat="45.42630385540963" lon="10.792210252524795"><ele>126.0</ele><time>2026-03-28T09:57:28Z</time></trkpt><trkpt lat="45.42641646055073" lon="10.79216798151819"><ele>126.0</ele><time>2026-03-28T09:57:29Z</time></trkpt><trkpt lat="45.42652962690079" lon="10.792136781984286"><ele>125.5</ele><time>2026-03-28T09:57:30Z</time></trkpt><trkpt lat="45.42665716089836" lon="10.792102148459573"><ele>125.0</ele><time>2026-03-28T09:57:31Z</time></trkpt><trkpt lat="45.42680403957567" lon="10.792052798623022"><ele>124.5</ele><time>2026-03-28T09:57:32Z</time></trkpt><trkpt lat="45.42694843541563" lon="10.79200188124227"><ele>124.0</ele><time>2026-03-28T09:57:33Z</time></trkpt><trkpt lat="45.42707802337427" lon="10.791959772031511"><ele>124.0</ele><time>2026-03-28T09:57:34Z</time></trkpt><trkpt lat="45.42720241625984" lon="10.791917364152637"><ele>124.0</ele><time>2026-03-28T09:57:35Z</time></trkpt><trkpt lat="45.42732864498735" lon="10.791874816264915"><ele>124.0</ele><time>2026-03-28T09:57:36Z</time></trkpt><trkpt lat="45.42746799977959" lon="10.791833691951755"><ele>124.0</ele><time>2026-03-28T09:57:37Z</time></trkpt><trkpt lat="45.42761160129356" lon="10.791792715591376"><ele>124.0</ele><time>2026-03-28T09:57:38Z</time></trkpt><trkpt lat="45.427754669195735" lon="10.791748153458895"><ele>124.0</ele><time>2026-03-28T09:57:39Z</time></trkpt><trkpt lat="45.42788110689897" lon="10.791708284182558"><ele>124.0</ele><time>2026-03-28T09:57:40Z</time></trkpt><trkpt lat="45.427996104562304" lon="10.791666077320947"><ele>124.0</ele><time>2026-03-28T09:57:41Z</time></trkpt><trkpt lat="45.42812901757715" lon="10.79161502217718"><ele>124.33333333333334</ele><time>2026-03-28T09:57:42Z</time></trkpt><trkpt lat="45.42828285881326" lon="10.791580535134585"><ele>124.66666666666666</ele><time>2026-03-28T09:57:43Z</time></trkpt><trkpt lat="45.42843568886069" lon="10.791511665474"><ele>125.0</ele><time>2026-03-28T09:57:44Z</time></trkpt><trkpt lat="45.428594920508644" lon="10.79146977253466"><ele>125.0</ele><time>2026-03-28T09:57:45Z</time></trkpt><trkpt lat="45.428739988350365" lon="10.791424926873395"><ele>125.0</ele><time>2026-03-28T09:57:46Z</time></trkpt><trkpt lat="45.428876491789055" lon="10.791377269628557"><ele>125.0</ele><time>2026-03-28T09:57:47Z</time></trkpt><trkpt lat="45.42901029186355" lon="10.79133339199483"><ele>125.0</ele><time>2026-03-28T09:57:48Z</time></trkpt><trkpt lat="45.42912799024298" lon="10.79129515728228"><ele>125.0</ele><time>2026-03-28T09:57:49Z</time></trkpt><trkpt lat="45.4292417868668" lon="10.791256099307132"><ele>125.0</ele><time>2026-03-28T09:57:50Z</time></trkpt><trkpt lat="45.42935106832335" lon="10.791217314946804"><ele>125.0</ele><time>2026-03-28T09:57:51Z</time></trkpt><trkpt lat="45.429465878580665" lon="10.791183587125488"><ele>125.0</ele><time>2026-03-28T09:57:52Z</time></trkpt><trkpt lat="45.42958317431176" lon="10.791153313679045"><ele>125.2</ele><time>2026-03-28T09:57:53Z</time></trkpt><trkpt lat="45.42967234298074" lon="10.791126524027923"><ele>125.4</ele><time>2026-03-28T09:57:54Z</time></trkpt><trkpt lat="45.429769693512426" lon="10.791102116392596"><ele>125.6</ele><time>2026-03-28T09:57:56Z</time></trkpt><trkpt lat="45.42983265826908" lon="10.791093000451072"><ele>125.8</ele><time>2026-03-28T09:57:58Z</time></trkpt><trkpt lat="45.429901059018285" lon="10.791243940047439"><ele>126.0</ele><time>2026-03-28T09:57:59Z</time></trkpt><trkpt lat="45.4299567135976" lon="10.791365281708964"><ele>126.0</ele><time>2026-03-28T09:58:00Z</time></trkpt><trkpt lat="45.43001624940487" lon="10.791488184338334"><ele>126.0</ele><time>2026-03-28T09:58:01Z</time></trkpt><trkpt lat="45.430085655593615" lon="10.79158384560156"><ele>126.0</ele><time>2026-03-28T09:58:02Z</time></trkpt><trkpt lat="45.43012848305118" lon="10.79166273513786"><ele>126.0</ele><time>2026-03-28T09:58:03Z</time></trkpt><trkpt lat="45.43026977782129" lon="10.791591776749513"><ele>126.0</ele><time>2026-03-28T09:58:04Z</time></trkpt><trkpt lat="45.43039665561398" lon="10.791583560256246"><ele>126.33333333333334</ele><time>2026-03-28T09:58:05Z</time></trkpt><trkpt lat="45.43053101238257" lon="10.79153644062161"><ele>126.66666666666667</ele><time>2026-03-28T09:58:06Z</time></trkpt><trkpt lat="45.43068136828763" lon="10.791502944715992"><ele>127.0</ele><time>2026-03-28T09:58:07Z</time></trkpt><trkpt lat="45.43084576206764" lon="10.791483485267856"><ele>127.0</ele><time>2026-03-28T09:58:08Z</time></trkpt><trkpt lat="45.43100816593047" lon="10.791460350655074"><ele>127.0</ele><time>2026-03-28T09:58:09Z</time></trkpt><trkpt lat="45.43118679448162" lon="10.791441084241717"><ele>127.0</ele><time>2026-03-28T09:58:10Z</time></trkpt><trkpt lat="45.43136952958908" lon="10.791427294752431"><ele>126.33333333333334</ele><time>2026-03-28T09:58:11Z</time></trkpt><trkpt lat="45.43152864977045" lon="10.791450098540105"><ele>125.66666666666666</ele><time>2026-03-28T09:58:12Z</time></trkpt><trkpt lat="45.43168902355525" lon="10.791518694959718"><ele>125.0</ele><time>2026-03-28T09:58:13Z</time></trkpt><trkpt lat="45.4318548948818" lon="10.791624656921236"><ele>125.0</ele><time>2026-03-28T09:58:14Z</time></trkpt><trkpt lat="45.432027342482556" lon="10.791747328825858"><ele>125.0</ele><time>2026-03-28T09:58:15Z</time></trkpt><trkpt lat="45.43220764083231" lon="10.791877453088542"><ele>125.0</ele><time>2026-03-28T09:58:16Z</time></trkpt><trkpt lat="45.43238372525322" lon="10.792014106625146"><ele>125.66666666666666</ele><time>2026-03-28T09:58:17Z</time></trkpt><trkpt lat="45.43255441262303" lon="10.792133106782929"><ele>126.33333333333334</ele><time>2026-03-28T09:58:18Z</time></trkpt><trkpt lat="45.43272373543659" lon="10.792227108635636"><ele>127.0</ele><time>2026-03-28T09:58:19Z</time></trkpt><trkpt lat="45.43290085713924" lon="10.792310355025494"><ele>128.33333333333334</ele><time>2026-03-28T09:58:20Z</time></trkpt><trkpt lat="45.433099413007184" lon="10.792359543910388"><ele>129.66666666666666</ele><time>2026-03-28T09:58:21Z</time></trkpt><trkpt lat="45.43331231528836" lon="10.792375922535124"><ele>131.0</ele><time>2026-03-28T09:58:22Z</time></trkpt><trkpt lat="45.43353180912917" lon="10.792378440388791"><ele>131.0</ele><time>2026-03-28T09:58:23Z</time></trkpt><trkpt lat="45.433757366581126" lon="10.792389805714324"><ele>131.0</ele><time>2026-03-28T09:58:24Z</time></trkpt><trkpt lat="45.433983894098176" lon="10.79239705777059"><ele>131.0</ele><time>2026-03-28T09:58:25Z</time></trkpt><trkpt lat="45.434208929882985" lon="10.792392514002577"><ele>131.0</ele><time>2026-03-28T09:58:26Z</time></trkpt><trkpt lat="45.434429183725435" lon="10.79237627707704"><ele>131.0</ele><time>2026-03-28T09:58:27Z</time></trkpt><trkpt lat="45.43465206448115" lon="10.792349737576016"><ele>131.0</ele><time>2026-03-28T09:58:28Z</time></trkpt><trkpt lat="45.43487140294924" lon="10.792309655068209"><ele>131.0</ele><time>2026-03-28T09:58:29Z</time></trkpt><trkpt lat="45.43508654104818" lon="10.792276196533532"><ele>131.0</ele><time>2026-03-28T09:58:30Z</time></trkpt><trkpt lat="45.43530493850423" lon="10.792239021548212"><ele>132.0</ele><time>2026-03-28T09:58:31Z</time></trkpt><trkpt lat="45.43551860121529" lon="10.792208196742111"><ele>133.0</ele><time>2026-03-28T09:58:32Z</time></trkpt><trkpt lat="45.43572676773194" lon="10.792178619454486"><ele>134.0</ele><time>2026-03-28T09:58:33Z</time></trkpt><trkpt lat="45.435934514002895" lon="10.79215077657491"><ele>134.0</ele><time>2026-03-28T09:58:34Z</time></trkpt><trkpt lat="45.43611685897681" lon="10.792123075489483"><ele>134.0</ele><time>2026-03-28T09:58:35Z</time></trkpt><trkpt lat="45.43628506051939" lon="10.79209643834837"><ele>134.0</ele><time>2026-03-28T09:58:36Z</time></trkpt><trkpt lat="45.43642665976837" lon="10.792076471498707"><ele>133.8</ele><time>2026-03-28T09:58:37Z</time></trkpt><trkpt lat="45.436551709208636" lon="10.792059398070379"><ele>133.60000000000002</ele><time>2026-03-28T09:58:38Z</time></trkpt><trkpt lat="45.43665749696706" lon="10.79204632233587"><ele>133.4</ele><time>2026-03-28T09:58:39Z</time></trkpt><trkpt lat="45.43674248237748" lon="10.79203638271959"><ele>133.20000000000002</ele><time>2026-03-28T09:58:40Z</time></trkpt><trkpt lat="45.43680669188399" lon="10.792025075623375"><ele>133.0</ele><time>2026-03-28T09:58:41Z</time></trkpt><trkpt lat="45.436887975284684" lon="10.792019940061683"><ele>133.25</ele><time>2026-03-28T09:58:43Z</time></trkpt><trkpt lat="45.436887093565105" lon="10.791734317970876"><ele>133.5</ele><time>2026-03-28T09:58:45Z</time></trkpt><trkpt lat="45.436916836546025" lon="10.79162112134535"><ele>133.75</ele><time>2026-03-28T09:58:46Z</time></trkpt><trkpt lat="45.436970568374875" lon="10.791513569334294"><ele>134.0</ele><time>2026-03-28T09:58:47Z</time></trkpt><trkpt lat="45.437002596266275" lon="10.791413132411554"><ele>134.0</ele><time>2026-03-28T09:58:48Z</time></trkpt><trkpt lat="45.43701562134116" lon="10.791315838239097"><ele>134.0</ele><time>2026-03-28T09:58:49Z</time></trkpt><trkpt lat="45.43700477964448" lon="10.791213221442662"><ele>134.0</ele><time>2026-03-28T09:58:50Z</time></trkpt><trkpt lat="45.43696511851295" lon="10.791121617275845"><ele>134.0</ele><time>2026-03-28T09:58:51Z</time></trkpt><trkpt lat="45.43690754180516" lon="10.791000341846123"><ele>134.0</ele><time>2026-03-28T09:58:52Z</time></trkpt><trkpt lat="45.43683952432946" lon="10.790866204349767"><ele>134.0</ele><time>2026-03-28T09:58:53Z</time></trkpt><trkpt lat="45.43676399573987" lon="10.790731773185607"><ele>134.0</ele><time>2026-03-28T09:58:54Z</time></trkpt><trkpt lat="45.436687990781635" lon="10.790625705281457"><ele>134.0</ele><time>2026-03-28T09:58:55Z</time></trkpt><trkpt lat="45.43663007322288" lon="10.790557413137774"><ele>134.0</ele><time>2026-03-28T09:58:56Z</time></trkpt><trkpt lat="45.43658943549178" lon="10.79046903740431"><ele>134.0</ele><time>2026-03-28T09:58:58Z</time></trkpt><trkpt lat="45.43661382182626" lon="10.790365168715182"><ele>134.0</ele><time>2026-03-28T09:59:00Z</time></trkpt><trkpt lat="45.43670613659094" lon="10.790265352715435"><ele>134.0</ele><time>2026-03-28T09:59:02Z</time></trkpt><trkpt lat="45.43676667236239" lon="10.790185088172676"><ele>133.5</ele><time>2026-03-28T09:59:03Z</time></trkpt><trkpt lat="45.436846193458095" lon="10.790074463389532"><ele>133.0</ele><time>2026-03-28T09:59:04Z</time></trkpt><trkpt lat="45.43690437917457" lon="10.789977072409586"><ele>132.5</ele><time>2026-03-28T09:59:05Z</time></trkpt><trkpt lat="45.43696245781514" lon="10.789887283618066"><ele>132.0</ele><time>2026-03-28T09:59:06Z</time></trkpt><trkpt lat="45.43701264503192" lon="10.789805999561922"><ele>131.5</ele><time>2026-03-28T09:59:07Z</time></trkpt><trkpt lat="45.43706969560661" lon="10.78972071537094"><ele>131.0</ele><time>2026-03-28T09:59:08Z</time></trkpt><trkpt lat="45.43712390281186" lon="10.789642286639802"><ele>130.6</ele><time>2026-03-28T09:59:09Z</time></trkpt><trkpt lat="45.437199594058214" lon="10.78952421470719"><ele>130.2</ele><time>2026-03-28T09:59:11Z</time></trkpt><trkpt lat="45.43723955944329" lon="10.78938867917657"><ele>129.8</ele><time>2026-03-28T09:59:13Z</time></trkpt><trkpt lat="45.43720888505087" lon="10.789254009600755"><ele>129.4</ele><time>2026-03-28T09:59:15Z</time></trkpt><trkpt lat="45.43710840101296" lon="10.789228608457272"><ele>129.0</ele><time>2026-03-28T09:59:17Z</time></trkpt><trkpt lat="45.43702892920511" lon="10.789201946054643"><ele>129.0</ele><time>2026-03-28T09:59:18Z</time></trkpt><trkpt lat="45.436951913326645" lon="10.789160504968716"><ele>129.0</ele><time>2026-03-28T09:59:19Z</time></trkpt><trkpt lat="45.43688137459335" lon="10.789046684426626"><ele>129.0</ele><time>2026-03-28T09:59:21Z</time></trkpt><trkpt lat="45.436931586390486" lon="10.788885859681114"><ele>129.0</ele><time>2026-03-28T09:59:23Z</time></trkpt><trkpt lat="45.43697944533067" lon="10.788810916118004"><ele>129.0</ele><time>2026-03-28T09:59:24Z</time></trkpt><trkpt lat="45.437035838798046" lon="10.788762217127745"><ele>129.0</ele><time>2026-03-28T09:59:25Z</time></trkpt><trkpt lat="45.437056585078224" lon="10.78859587608139"><ele>128.6</ele><time>2026-03-28T09:59:27Z</time></trkpt><trkpt lat="45.43704260265886" lon="10.788491196359807"><ele>128.2</ele><time>2026-03-28T09:59:28Z</time></trkpt><trkpt lat="45.437031617925335" lon="10.788338939553244"><ele>127.79999999999998</ele><time>2026-03-28T09:59:29Z</time></trkpt><trkpt lat="45.43701577790448" lon="10.78817232702452"><ele>127.39999999999999</ele><time>2026-03-28T09:59:30Z</time></trkpt><trkpt lat="45.43699337064783" lon="10.78802174272951"><ele>127.0</ele><time>2026-03-28T09:59:31Z</time></trkpt><trkpt lat="45.43697074922437" lon="10.787914294150097"><ele>127.00000000000001</ele><time>2026-03-28T09:59:32Z</time></trkpt><trkpt lat="45.43695466676544" lon="10.787808399037106"><ele>127.0</ele><time>2026-03-28T09:59:33Z</time></trkpt><trkpt lat="45.43693561296022" lon="10.7876864400116"><ele>127.0</ele><time>2026-03-28T09:59:34Z</time></trkpt><trkpt lat="45.43693229273899" lon="10.787555014149477"><ele>127.0</ele><time>2026-03-28T09:59:35Z</time></trkpt><trkpt lat="45.436942007686554" lon="10.78741014957539"><ele>127.00000000000001</ele><time>2026-03-28T09:59:36Z</time></trkpt><trkpt lat="45.43696285616455" lon="10.787284319235845"><ele>127.0</ele><time>2026-03-28T09:59:37Z</time></trkpt><trkpt lat="45.43700072812339" lon="10.787158224413592"><ele>127.0</ele><time>2026-03-28T09:59:38Z</time></trkpt><trkpt lat="45.43704472051545" lon="10.787041619368216"><ele>126.99999999999999</ele><time>2026-03-28T09:59:39Z</time></trkpt><trkpt lat="45.43708047624883" lon="10.78691320500914"><ele>126.99999999999999</ele><time>2026-03-28T09:59:40Z</time></trkpt><trkpt lat="45.437118421705215" lon="10.78678515583713"><ele>127.0</ele><time>2026-03-28T09:59:41Z</time></trkpt><trkpt lat="45.43715272065849" lon="10.786681339252018"><ele>127.0</ele><time>2026-03-28T09:59:42Z</time></trkpt><trkpt lat="45.43718851365055" lon="10.786562932582846"><ele>127.0</ele><time>2026-03-28T09:59:43Z</time></trkpt><trkpt lat="45.43722485315142" lon="10.786417352913272"><ele>126.99999999999999</ele><time>2026-03-28T09:59:44Z</time></trkpt><trkpt lat="45.43724000749367" lon="10.786282831746423"><ele>126.99999999999999</ele><time>2026-03-28T09:59:45Z</time></trkpt><trkpt lat="45.437260277889216" lon="10.786181955911989"><ele>127.0</ele><time>2026-03-28T09:59:46Z</time></trkpt><trkpt lat="45.43729889909873" lon="10.786083617702477"><ele>127.0</ele><time>2026-03-28T09:59:47Z</time></trkpt><trkpt lat="45.43733365578579" lon="10.785951718184759"><ele>128.5</ele><time>2026-03-28T09:59:48Z</time></trkpt><trkpt lat="45.43737327032125" lon="10.785808500969022"><ele>130.0</ele><time>2026-03-28T09:59:49Z</time></trkpt><trkpt lat="45.43741457415977" lon="10.785654485893222"><ele>131.5</ele><time>2026-03-28T09:59:50Z</time></trkpt><trkpt lat="45.43743808145716" lon="10.78549059248339"><ele>133.0</ele><time>2026-03-28T09:59:51Z</time></trkpt><trkpt lat="45.43747656466016" lon="10.785326925095257"><ele>133.0</ele><time>2026-03-28T09:59:52Z</time></trkpt><trkpt lat="45.437509236052804" lon="10.785188861690436"><ele>133.0</ele><time>2026-03-28T09:59:53Z</time></trkpt><trkpt lat="45.43754076557497" lon="10.78505293963587"><ele>133.0</ele><time>2026-03-28T09:59:54Z</time></trkpt><trkpt lat="45.437557398569105" lon="10.78492299691736"><ele>133.0</ele><time>2026-03-28T09:59:55Z</time></trkpt><trkpt lat="45.437575636093726" lon="10.7847832473781"><ele>133.0</ele><time>2026-03-28T09:59:56Z</time></trkpt><trkpt lat="45.43760742937775" lon="10.784644260189507"><ele>133.4</ele><time>2026-03-28T09:59:57Z</time></trkpt><trkpt lat="45.43762312656988" lon="10.784515026637553"><ele>133.8</ele><time>2026-03-28T09:59:58Z</time></trkpt><trkpt lat="45.4376384683246" lon="10.784376470559225"><ele>134.2</ele><time>2026-03-28T09:59:59Z</time></trkpt><trkpt lat="45.43765210584513" lon="10.78422606873413"><ele>134.6</ele><time>2026-03-28T10:00:00Z</time></trkpt><trkpt lat="45.4376568593695" lon="10.78407143472787"><ele>135.0</ele><time>2026-03-28T10:00:01Z</time></trkpt><trkpt lat="45.437659772187054" lon="10.783931494306593"><ele>135.0</ele><time>2026-03-28T10:00:02Z</time></trkpt><trkpt lat="45.43765280751157" lon="10.783811652428403"><ele>135.0</ele><time>2026-03-28T10:00:03Z</time></trkpt><trkpt lat="45.43766342606982" lon="10.783710686320756"><ele>135.0</ele><time>2026-03-28T10:00:04Z</time></trkpt><trkpt lat="45.437667774405575" lon="10.783527635698544"><ele>135.0</ele><time>2026-03-28T10:00:06Z</time></trkpt><trkpt lat="45.43769463484413" lon="10.783396166492079"><ele>135.0</ele><time>2026-03-28T10:00:07Z</time></trkpt><trkpt lat="45.43771490885232" lon="10.783219402987866"><ele>133.75</ele><time>2026-03-28T10:00:08Z</time></trkpt><trkpt lat="45.43773966973306" lon="10.783004462607408"><ele>132.5</ele><time>2026-03-28T10:00:09Z</time></trkpt><trkpt lat="45.43776323457847" lon="10.782798338883016"><ele>131.25</ele><time>2026-03-28T10:00:10Z</time></trkpt><trkpt lat="45.43777899594188" lon="10.782645352595717"><ele>130.0</ele><time>2026-03-28T10:00:11Z</time></trkpt><trkpt lat="45.437783693289624" lon="10.782520508477127"><ele>128.8</ele><time>2026-03-28T10:00:12Z</time></trkpt><trkpt lat="45.43778229655468" lon="10.782359062445563"><ele>127.6</ele><time>2026-03-28T10:00:14Z</time></trkpt><trkpt lat="45.43783467919655" lon="10.782294528253317"><ele>126.4</ele><time>2026-03-28T10:00:15Z</time></trkpt><trkpt lat="45.437903637284315" lon="10.782263858794499"><ele>125.2</ele><time>2026-03-28T10:00:16Z</time></trkpt><trkpt lat="45.43798994034855" lon="10.78231171167863"><ele>124.0</ele><time>2026-03-28T10:00:17Z</time></trkpt><trkpt lat="45.43810337008523" lon="10.782306833818922"><ele>123.5</ele><time>2026-03-28T10:00:18Z</time></trkpt><trkpt lat="45.438225584129654" lon="10.782324876934991"><ele>123.0</ele><time>2026-03-28T10:00:19Z</time></trkpt><trkpt lat="45.43835389908033" lon="10.782329512076615"><ele>122.5</ele><time>2026-03-28T10:00:20Z</time></trkpt><trkpt lat="45.43849011747544" lon="10.782354113895282"><ele>122.0</ele><time>2026-03-28T10:00:21Z</time></trkpt><trkpt lat="45.43863644471215" lon="10.782382741252375"><ele>122.0</ele><time>2026-03-28T10:00:22Z</time></trkpt><trkpt lat="45.438785271812854" lon="10.782397919903058"><ele>122.0</ele><time>2026-03-28T10:00:23Z</time></trkpt><trkpt lat="45.438927014056" lon="10.782409910515227"><ele>122.0</ele><time>2026-03-28T10:00:24Z</time></trkpt><trkpt lat="45.43906281082318" lon="10.782422642185278"><ele>122.0</ele><time>2026-03-28T10:00:25Z</time></trkpt><trkpt lat="45.43918346650075" lon="10.78243348367377"><ele>122.19999999999999</ele><time>2026-03-28T10:00:26Z</time></trkpt><trkpt lat="45.439292855752115" lon="10.782446938750864"><ele>122.39999999999999</ele><time>2026-03-28T10:00:27Z</time></trkpt><trkpt lat="45.43939325329919" lon="10.782456801752225"><ele>122.60000000000001</ele><time>2026-03-28T10:00:28Z</time></trkpt><trkpt lat="45.43948520389271" lon="10.78246530771208"><ele>122.80000000000001</ele><time>2026-03-28T10:00:29Z</time></trkpt><trkpt lat="45.439569457537324" lon="10.782474589619806"><ele>123.0</ele><time>2026-03-28T10:00:30Z</time></trkpt><trkpt lat="45.43963491054493" lon="10.782481591007581"><ele>123.2</ele><time>2026-03-28T10:00:31Z</time></trkpt><trkpt lat="45.439721730308754" lon="10.782498446877895"><ele>123.4</ele><time>2026-03-28T10:00:33Z</time></trkpt><trkpt lat="45.43978953666076" lon="10.78249155036986"><ele>123.60000000000001</ele><time>2026-03-28T10:00:37Z</time></trkpt><trkpt lat="45.43984436811463" lon="10.782352508886603"><ele>123.80000000000001</ele><time>2026-03-28T10:00:39Z</time></trkpt><trkpt lat="45.439850011901804" lon="10.782229844044677"><ele>124.0</ele><time>2026-03-28T10:00:40Z</time></trkpt><trkpt lat="45.43984554763392" lon="10.7820849918366"><ele>124.0</ele><time>2026-03-28T10:00:41Z</time></trkpt><trkpt lat="45.43985833757982" lon="10.781926686990863"><ele>124.0</ele><time>2026-03-28T10:00:42Z</time></trkpt><trkpt lat="45.43986604647699" lon="10.781737384082954"><ele>124.0</ele><time>2026-03-28T10:00:43Z</time></trkpt><trkpt lat="45.43989442328919" lon="10.781572557433918"><ele>124.0</ele><time>2026-03-28T10:00:44Z</time></trkpt><trkpt lat="45.43990531848982" lon="10.78142581537162"><ele>123.66666666666667</ele><time>2026-03-28T10:00:45Z</time></trkpt><trkpt lat="45.43989976894372" lon="10.781292689284829"><ele>123.33333333333334</ele><time>2026-03-28T10:00:46Z</time></trkpt><trkpt lat="45.439924032891945" lon="10.781166819398946"><ele>123.0</ele><time>2026-03-28T10:00:47Z</time></trkpt><trkpt lat="45.43993317771684" lon="10.781038684029511"><ele>122.66666666666666</ele><time>2026-03-28T10:00:48Z</time></trkpt><trkpt lat="45.43993473931159" lon="10.780919642576105"><ele>122.33333333333333</ele><time>2026-03-28T10:00:49Z</time></trkpt><trkpt lat="45.43997924651058" lon="10.780833996880627"><ele>122.0</ele><time>2026-03-28T10:00:50Z</time></trkpt><trkpt lat="45.44002878307416" lon="10.780770888926627"><ele>121.8</ele><time>2026-03-28T10:00:52Z</time></trkpt><trkpt lat="45.44018784110519" lon="10.780805491063145"><ele>121.6</ele><time>2026-03-28T10:00:53Z</time></trkpt><trkpt lat="45.440274664479254" lon="10.78083291082155"><ele>121.39999999999999</ele><time>2026-03-28T10:00:54Z</time></trkpt><trkpt lat="45.44034774275623" lon="10.780866003491628"><ele>121.19999999999999</ele><time>2026-03-28T10:00:55Z</time></trkpt><trkpt lat="45.44042569808287" lon="10.780904515989949"><ele>121.0</ele><time>2026-03-28T10:00:56Z</time></trkpt><trkpt lat="45.440513279598434" lon="10.780942142560395"><ele>121.0</ele><time>2026-03-28T10:00:57Z</time></trkpt><trkpt lat="45.440595735854686" lon="10.780988848439646"><ele>121.0</ele><time>2026-03-28T10:00:58Z</time></trkpt><trkpt lat="45.4406705905675" lon="10.78104563354385"><ele>121.0</ele><time>2026-03-28T10:00:59Z</time></trkpt><trkpt lat="45.44075805247902" lon="10.7811106612697"><ele>121.0</ele><time>2026-03-28T10:01:00Z</time></trkpt><trkpt lat="45.44083323836547" lon="10.781179779989158"><ele>121.0</ele><time>2026-03-28T10:01:01Z</time></trkpt><trkpt lat="45.4409175080893" lon="10.781253883817117"><ele>120.8</ele><time>2026-03-28T10:01:02Z</time></trkpt><trkpt lat="45.44100123789514" lon="10.781330782608292"><ele>120.6</ele><time>2026-03-28T10:01:03Z</time></trkpt><trkpt lat="45.441091668834645" lon="10.781406905905158"><ele>120.4</ele><time>2026-03-28T10:01:04Z</time></trkpt><trkpt lat="45.441186972770595" lon="10.781480121887672"><ele>120.2</ele><time>2026-03-28T10:01:05Z</time></trkpt><trkpt lat="45.441281776455014" lon="10.781553302851211"><ele>120.0</ele><time>2026-03-28T10:01:06Z</time></trkpt><trkpt lat="45.44136859964826" lon="10.781621510517873"><ele>120.0</ele><time>2026-03-28T10:01:07Z</time></trkpt><trkpt lat="45.44145845497058" lon="10.781692613027264"><ele>120.0</ele><time>2026-03-28T10:01:08Z</time></trkpt><trkpt lat="45.44154503066272" lon="10.781755878888559"><ele>120.0</ele><time>2026-03-28T10:01:09Z</time></trkpt><trkpt lat="45.44163667082406" lon="10.781821506306063"><ele>120.0</ele><time>2026-03-28T10:01:10Z</time></trkpt><trkpt lat="45.44171691054011" lon="10.781877361183417"><ele>120.0</ele><time>2026-03-28T10:01:11Z</time></trkpt><trkpt lat="45.44180197683714" lon="10.781926912130904"><ele>119.8</ele><time>2026-03-28T10:01:12Z</time></trkpt><trkpt lat="45.44189538894837" lon="10.781969922508296"><ele>119.6</ele><time>2026-03-28T10:01:13Z</time></trkpt><trkpt lat="45.44197388927789" lon="10.781998483312654"><ele>119.4</ele><time>2026-03-28T10:01:14Z</time></trkpt><trkpt lat="45.442055804813144" lon="10.782019504786915"><ele>119.2</ele><time>2026-03-28T10:01:15Z</time></trkpt><trkpt lat="45.44214459717138" lon="10.782037164221741"><ele>119.0</ele><time>2026-03-28T10:01:16Z</time></trkpt><trkpt lat="45.44224553275063" lon="10.782058643305175"><ele>118.80000000000001</ele><time>2026-03-28T10:01:17Z</time></trkpt><trkpt lat="45.44233558192079" lon="10.782081694844706"><ele>118.60000000000001</ele><time>2026-03-28T10:01:18Z</time></trkpt><trkpt lat="45.442433094778934" lon="10.782116366468678"><ele>118.4</ele><time>2026-03-28T10:01:19Z</time></trkpt><trkpt lat="45.44253584303953" lon="10.782156086885236"><ele>118.2</ele><time>2026-03-28T10:01:20Z</time></trkpt><trkpt lat="45.442655596799185" lon="10.782195112826969"><ele>118.0</ele><time>2026-03-28T10:01:21Z</time></trkpt><trkpt lat="45.442785058151706" lon="10.782240937098596"><ele>118.0</ele><time>2026-03-28T10:01:22Z</time></trkpt><trkpt lat="45.442926958422895" lon="10.782282010418763"><ele>118.0</ele><time>2026-03-28T10:01:23Z</time></trkpt><trkpt lat="45.44307685822208" lon="10.782310722109774"><ele>118.0</ele><time>2026-03-28T10:01:24Z</time></trkpt><trkpt lat="45.44323793590299" lon="10.782337612109284"><ele>118.33333333333334</ele><time>2026-03-28T10:01:25Z</time></trkpt><trkpt lat="45.44340175912552" lon="10.782369521451802"><ele>118.66666666666666</ele><time>2026-03-28T10:01:26Z</time></trkpt><trkpt lat="45.443570965637036" lon="10.782398937533317"><ele>119.0</ele><time>2026-03-28T10:01:27Z</time></trkpt><trkpt lat="45.4437447600294" lon="10.782424211161397"><ele>119.66666666666666</ele><time>2026-03-28T10:01:28Z</time></trkpt><trkpt lat="45.443896412405174" lon="10.782453029096432"><ele>120.33333333333334</ele><time>2026-03-28T10:01:29Z</time></trkpt><trkpt lat="45.444041990927616" lon="10.782485990256438"><ele>121.0</ele><time>2026-03-28T10:01:30Z</time></trkpt><trkpt lat="45.44419473282674" lon="10.78251450923358"><ele>121.0</ele><time>2026-03-28T10:01:31Z</time></trkpt><trkpt lat="45.44435260595613" lon="10.782547129980971"><ele>121.0</ele><time>2026-03-28T10:01:32Z</time></trkpt><trkpt lat="45.44451439231925" lon="10.782581648852137"><ele>121.0</ele><time>2026-03-28T10:01:33Z</time></trkpt><trkpt lat="45.44466565490816" lon="10.782610792723954"><ele>121.0</ele><time>2026-03-28T10:01:34Z</time></trkpt><trkpt lat="45.444817853382226" lon="10.782639813351862"><ele>121.0</ele><time>2026-03-28T10:01:35Z</time></trkpt><trkpt lat="45.444962357819456" lon="10.782670510181845"><ele>121.0</ele><time>2026-03-28T10:01:36Z</time></trkpt><trkpt lat="45.445093759714595" lon="10.782696049710585"><ele>121.0</ele><time>2026-03-28T10:01:37Z</time></trkpt><trkpt lat="45.44521939722393" lon="10.782714224644474"><ele>121.0</ele><time>2026-03-28T10:01:38Z</time></trkpt><trkpt lat="45.44534092779619" lon="10.782711699308415"><ele>121.0</ele><time>2026-03-28T10:01:39Z</time></trkpt><trkpt lat="45.44546904577287" lon="10.782676988913375"><ele>121.0</ele><time>2026-03-28T10:01:40Z</time></trkpt><trkpt lat="45.44560544072042" lon="10.782604275950305"><ele>121.0</ele><time>2026-03-28T10:01:41Z</time></trkpt><trkpt lat="45.44575488116475" lon="10.782517031236793"><ele>120.33333333333334</ele><time>2026-03-28T10:01:42Z</time></trkpt><trkpt lat="45.44592162352824" lon="10.782422103842064"><ele>119.66666666666666</ele><time>2026-03-28T10:01:43Z</time></trkpt><trkpt lat="45.44608157039891" lon="10.782331361923953"><ele>119.0</ele><time>2026-03-28T10:01:44Z</time></trkpt><trkpt lat="45.44623174132184" lon="10.782256801341616"><ele>118.75</ele><time>2026-03-28T10:01:45Z</time></trkpt><trkpt lat="45.44637092252737" lon="10.782200399724235"><ele>118.5</ele><time>2026-03-28T10:01:46Z</time></trkpt><trkpt lat="45.4465027071646" lon="10.782142720498882"><ele>118.25</ele><time>2026-03-28T10:01:47Z</time></trkpt><trkpt lat="45.44662669274778" lon="10.782080595033705"><ele>118.0</ele><time>2026-03-28T10:01:48Z</time></trkpt><trkpt lat="45.44674528341559" lon="10.781999617854241"><ele>118.0</ele><time>2026-03-28T10:01:49Z</time></trkpt><trkpt lat="45.446864326386745" lon="10.781876028709538"><ele>118.0</ele><time>2026-03-28T10:01:50Z</time></trkpt><trkpt lat="45.44698472388057" lon="10.78170254412513"><ele>118.0</ele><time>2026-03-28T10:01:51Z</time></trkpt><trkpt lat="45.44710796348694" lon="10.781502068002919"><ele>116.33333333333334</ele><time>2026-03-28T10:01:52Z</time></trkpt><trkpt lat="45.447235044047545" lon="10.781301504391465"><ele>114.66666666666666</ele><time>2026-03-28T10:01:53Z</time></trkpt><trkpt lat="45.447371239130376" lon="10.781118286264082"><ele>113.0</ele><time>2026-03-28T10:01:54Z</time></trkpt><trkpt lat="45.447514943617904" lon="10.780985196991184"><ele>113.0</ele><time>2026-03-28T10:01:55Z</time></trkpt><trkpt lat="45.44767250655441" lon="10.78088579396144"><ele>113.0</ele><time>2026-03-28T10:01:56Z</time></trkpt><trkpt lat="45.447840750594445" lon="10.780812430152483"><ele>113.0</ele><time>2026-03-28T10:01:57Z</time></trkpt><trkpt lat="45.448001574052135" lon="10.780752442769465"><ele>113.75</ele><time>2026-03-28T10:01:58Z</time></trkpt><trkpt lat="45.44814417452512" lon="10.780697891830906"><ele>114.5</ele><time>2026-03-28T10:01:59Z</time></trkpt><trkpt lat="45.44827540171002" lon="10.780641710436484"><ele>115.25</ele><time>2026-03-28T10:02:00Z</time></trkpt><trkpt lat="45.44839666185784" lon="10.780585102724869"><ele>116.0</ele><time>2026-03-28T10:02:01Z</time></trkpt><trkpt lat="45.44850637149081" lon="10.78052513100044"><ele>116.0</ele><time>2026-03-28T10:02:02Z</time></trkpt><trkpt lat="45.44860239799372" lon="10.780463541350668"><ele>116.0</ele><time>2026-03-28T10:02:03Z</time></trkpt><trkpt lat="45.44868176721851" lon="10.780400303519412"><ele>116.0</ele><time>2026-03-28T10:02:04Z</time></trkpt><trkpt lat="45.44874968091252" lon="10.780323434877443"><ele>116.0</ele><time>2026-03-28T10:02:05Z</time></trkpt><trkpt lat="45.4488108632775" lon="10.780232564043672"><ele>116.0</ele><time>2026-03-28T10:02:06Z</time></trkpt><trkpt lat="45.448862455854766" lon="10.78014476657905"><ele>116.4</ele><time>2026-03-28T10:02:07Z</time></trkpt><trkpt lat="45.448912065584786" lon="10.780072098041252"><ele>116.8</ele><time>2026-03-28T10:02:08Z</time></trkpt><trkpt lat="45.44895651752078" lon="10.780000996779332"><ele>117.20000000000002</ele><time>2026-03-28T10:02:09Z</time></trkpt><trkpt lat="45.44904225009491" lon="10.779883248398843"><ele>117.60000000000001</ele><time>2026-03-28T10:02:11Z</time></trkpt><trkpt lat="45.44909164578222" lon="10.779800695654233"><ele>118.0</ele><time>2026-03-28T10:02:13Z</time></trkpt><trkpt lat="45.44898682519758" lon="10.779627960106401"><ele>118.0</ele><time>2026-03-28T10:02:14Z</time></trkpt><trkpt lat="45.448914002352296" lon="10.779551575726243"><ele>118.0</ele><time>2026-03-28T10:02:15Z</time></trkpt><trkpt lat="45.44881527873279" lon="10.779448023077105"><ele>118.0</ele><time>2026-03-28T10:02:16Z</time></trkpt><trkpt lat="45.44870978012077" lon="10.779332761391421"><ele>118.0</ele><time>2026-03-28T10:02:17Z</time></trkpt><trkpt lat="45.448603195336624" lon="10.779203436894136"><ele>117.66666666666667</ele><time>2026-03-28T10:02:18Z</time></trkpt><trkpt lat="45.44849145711017" lon="10.77906285515364"><ele>117.33333333333334</ele><time>2026-03-28T10:02:19Z</time></trkpt><trkpt lat="45.44837282999933" lon="10.778911067635986"><ele>117.0</ele><time>2026-03-28T10:02:20Z</time></trkpt><trkpt lat="45.44825565303091" lon="10.778759897518311"><ele>117.0</ele><time>2026-03-28T10:02:21Z</time></trkpt><trkpt lat="45.44814359319465" lon="10.778613716158848"><ele>117.0</ele><time>2026-03-28T10:02:22Z</time></trkpt><trkpt lat="45.44803461450894" lon="10.778471555370201"><ele>117.0</ele><time>2026-03-28T10:02:23Z</time></trkpt><trkpt lat="45.44792503749287" lon="10.778328981258825"><ele>117.0</ele><time>2026-03-28T10:02:24Z</time></trkpt><trkpt lat="45.447811919989036" lon="10.778186077595302"><ele>116.0</ele><time>2026-03-28T10:02:25Z</time></trkpt><trkpt lat="45.44769665322294" lon="10.778040458647478"><ele>115.0</ele><time>2026-03-28T10:02:26Z</time></trkpt><trkpt lat="45.44759145775796" lon="10.77790639456458"><ele>114.0</ele><time>2026-03-28T10:02:27Z</time></trkpt><trkpt lat="45.4474690813703" lon="10.777744552061728"><ele>114.66666666666666</ele><time>2026-03-28T10:02:28Z</time></trkpt><trkpt lat="45.447352588702294" lon="10.777590490668599"><ele>115.33333333333333</ele><time>2026-03-28T10:02:29Z</time></trkpt><trkpt lat="45.44722472249607" lon="10.777421250410212"><ele>116.0</ele><time>2026-03-28T10:02:30Z</time></trkpt><trkpt lat="45.44710082105117" lon="10.777257239957843"><ele>116.0</ele><time>2026-03-28T10:02:31Z</time></trkpt><trkpt lat="45.4469683402787" lon="10.777082721408268"><ele>116.0</ele><time>2026-03-28T10:02:32Z</time></trkpt><trkpt lat="45.446843401068456" lon="10.776919997161555"><ele>116.0</ele><time>2026-03-28T10:02:33Z</time></trkpt><trkpt lat="45.44672316970264" lon="10.776761567417156"><ele>116.0</ele><time>2026-03-28T10:02:34Z</time></trkpt><trkpt lat="45.44660736944842" lon="10.776593466036774"><ele>116.0</ele><time>2026-03-28T10:02:35Z</time></trkpt><trkpt lat="45.44650126418534" lon="10.776420916266234"><ele>116.0</ele><time>2026-03-28T10:02:36Z</time></trkpt><trkpt lat="45.44640298721401" lon="10.776242323793937"><ele>116.0</ele><time>2026-03-28T10:02:37Z</time></trkpt><trkpt lat="45.44630822664126" lon="10.776059647872826"><ele>116.0</ele><time>2026-03-28T10:02:38Z</time></trkpt><trkpt lat="45.44623765326863" lon="10.77588666723249"><ele>116.0</ele><time>2026-03-28T10:02:39Z</time></trkpt><trkpt lat="45.4461805046982" lon="10.77570816884655"><ele>116.0</ele><time>2026-03-28T10:02:40Z</time></trkpt><trkpt lat="45.446134089813334" lon="10.775517718251715"><ele>115.33333333333333</ele><time>2026-03-28T10:02:41Z</time></trkpt><trkpt lat="45.44608026052409" lon="10.775318486811798"><ele>114.66666666666666</ele><time>2026-03-28T10:02:42Z</time></trkpt><trkpt lat="45.44601586291182" lon="10.7751178547029"><ele>114.0</ele><time>2026-03-28T10:02:43Z</time></trkpt><trkpt lat="45.4459464333138" lon="10.774913841380865"><ele>114.0</ele><time>2026-03-28T10:02:44Z</time></trkpt><trkpt lat="45.44588138598214" lon="10.774710590713564"><ele>114.0</ele><time>2026-03-28T10:02:45Z</time></trkpt><trkpt lat="45.4458256680405" lon="10.774507757387413"><ele>114.0</ele><time>2026-03-28T10:02:46Z</time></trkpt><trkpt lat="45.445779590182966" lon="10.77429557800237"><ele>113.75</ele><time>2026-03-28T10:02:47Z</time></trkpt><trkpt lat="45.44573772414593" lon="10.774096526524007"><ele>113.5</ele><time>2026-03-28T10:02:48Z</time></trkpt><trkpt lat="45.445700136905415" lon="10.773912024008892"><ele>113.25</ele><time>2026-03-28T10:02:49Z</time></trkpt><trkpt lat="45.44566103142507" lon="10.773728312512127"><ele>113.0</ele><time>2026-03-28T10:02:50Z</time></trkpt><trkpt lat="45.445613899015235" lon="10.77355285945814"><ele>112.75</ele><time>2026-03-28T10:02:51Z</time></trkpt><trkpt lat="45.44554425765219" lon="10.773366103968765"><ele>112.5</ele><time>2026-03-28T10:02:52Z</time></trkpt><trkpt lat="45.445485763767174" lon="10.773193438065448"><ele>112.25</ele><time>2026-03-28T10:02:53Z</time></trkpt><trkpt lat="45.445428744900155" lon="10.773018903999183"><ele>112.0</ele><time>2026-03-28T10:02:54Z</time></trkpt><trkpt lat="45.445361765360154" lon="10.772842230740833"><ele>111.75</ele><time>2026-03-28T10:02:55Z</time></trkpt><trkpt lat="45.44528110706896" lon="10.77266376215156"><ele>111.5</ele><time>2026-03-28T10:02:56Z</time></trkpt><trkpt lat="45.44518816659176" lon="10.772498310674491"><ele>111.25</ele><time>2026-03-28T10:02:57Z</time></trkpt><trkpt lat="45.445105654230346" lon="10.772359287016162"><ele>111.0</ele><time>2026-03-28T10:02:58Z</time></trkpt><trkpt lat="45.44504471062025" lon="10.772233666194134"><ele>111.0</ele><time>2026-03-28T10:02:59Z</time></trkpt><trkpt lat="45.44500031327812" lon="10.772096585446182"><ele>111.0</ele><time>2026-03-28T10:03:00Z</time></trkpt><trkpt lat="45.445005521113316" lon="10.771963519046253"><ele>111.0</ele><time>2026-03-28T10:03:01Z</time></trkpt><trkpt lat="45.44499606757103" lon="10.7717814259766"><ele>111.0</ele><time>2026-03-28T10:03:02Z</time></trkpt><trkpt lat="45.44498543585464" lon="10.771568520216912"><ele>111.25</ele><time>2026-03-28T10:03:03Z</time></trkpt><trkpt lat="45.444971747388564" lon="10.771350297958357"><ele>111.5</ele><time>2026-03-28T10:03:04Z</time></trkpt><trkpt lat="45.444958875865794" lon="10.771145100005434"><ele>111.75</ele><time>2026-03-28T10:03:05Z</time></trkpt><trkpt lat="45.44494612955061" lon="10.770941897262256"><ele>112.0</ele><time>2026-03-28T10:03:06Z</time></trkpt><trkpt lat="45.44492932379982" lon="10.770745514186878"><ele>113.5</ele><time>2026-03-28T10:03:07Z</time></trkpt><trkpt lat="45.444910315263336" lon="10.77056680313073"><ele>115.0</ele><time>2026-03-28T10:03:08Z</time></trkpt><trkpt lat="45.44489137800765" lon="10.770393736475453"><ele>116.5</ele><time>2026-03-28T10:03:09Z</time></trkpt><trkpt lat="45.444870228520976" lon="10.770226903600712"><ele>118.0</ele><time>2026-03-28T10:03:10Z</time></trkpt><trkpt lat="45.444837711385084" lon="10.77005849313326"><ele>118.80000000000001</ele><time>2026-03-28T10:03:11Z</time></trkpt><trkpt lat="45.444773081051295" lon="10.769910749866822"><ele>119.60000000000001</ele><time>2026-03-28T10:03:12Z</time></trkpt><trkpt lat="45.44471159482528" lon="10.76978236792089"><ele>120.39999999999999</ele><time>2026-03-28T10:03:13Z</time></trkpt><trkpt lat="45.44466643458883" lon="10.769655549499792"><ele>121.19999999999999</ele><time>2026-03-28T10:03:14Z</time></trkpt><trkpt lat="45.444614716699164" lon="10.76954176997268"><ele>122.0</ele><time>2026-03-28T10:03:15Z</time></trkpt><trkpt lat="45.44456687002648" lon="10.769421165011442"><ele>121.83333333333333</ele><time>2026-03-28T10:03:16Z</time></trkpt><trkpt lat="45.444520077586525" lon="10.769301717267407"><ele>121.66666666666666</ele><time>2026-03-28T10:03:17Z</time></trkpt><trkpt lat="45.44448097019681" lon="10.769205148647913"><ele>121.5</ele><time>2026-03-28T10:03:18Z</time></trkpt><trkpt lat="45.44443370861419" lon="10.769105567270477"><ele>121.33333333333334</ele><time>2026-03-28T10:03:19Z</time></trkpt><trkpt lat="45.44437738340916" lon="10.76900100983416"><ele>121.16666666666667</ele><time>2026-03-28T10:03:20Z</time></trkpt><trkpt lat="45.4443381453288" lon="10.768884389463214"><ele>121.0</ele><time>2026-03-28T10:03:21Z</time></trkpt><trkpt lat="45.444286210304966" lon="10.768796891087543"><ele>121.00000000000001</ele><time>2026-03-28T10:03:22Z</time></trkpt><trkpt lat="45.44421140974813" lon="10.768722679591745"><ele>121.0</ele><time>2026-03-28T10:03:23Z</time></trkpt><trkpt lat="45.4441380290938" lon="10.768636162736728"><ele>121.0</ele><time>2026-03-28T10:03:24Z</time></trkpt><trkpt lat="45.44407339775592" lon="10.768555590067654"><ele>121.0</ele><time>2026-03-28T10:03:25Z</time></trkpt><trkpt lat="45.4440084535678" lon="10.768489512628992"><ele>121.00000000000001</ele><time>2026-03-28T10:03:26Z</time></trkpt><trkpt lat="45.44394279549599" lon="10.768440661966851"><ele>121.0</ele><time>2026-03-28T10:03:27Z</time></trkpt><trkpt lat="45.443860998928265" lon="10.768335231713392"><ele>119.75</ele><time>2026-03-28T10:03:29Z</time></trkpt><trkpt lat="45.44384095972947" lon="10.768241224993046"><ele>118.5</ele><time>2026-03-28T10:03:37Z</time></trkpt><trkpt lat="45.444043287203506" lon="10.768147951938321"><ele>117.25</ele><time>2026-03-28T10:03:39Z</time></trkpt><trkpt lat="45.44414556716733" lon="10.76814989699806"><ele>116.0</ele><time>2026-03-28T10:03:40Z</time></trkpt><trkpt lat="45.44426888389342" lon="10.768144993614747"><ele>116.0</ele><time>2026-03-28T10:03:41Z</time></trkpt><trkpt lat="45.44440533424756" lon="10.768128522003858"><ele>116.0</ele><time>2026-03-28T10:03:42Z</time></trkpt><trkpt lat="45.44455242843914" lon="10.768110293877017"><ele>116.0</ele><time>2026-03-28T10:03:43Z</time></trkpt><trkpt lat="45.44472010549948" lon="10.768095398474514"><ele>116.0</ele><time>2026-03-28T10:03:44Z</time></trkpt><trkpt lat="45.44487630981524" lon="10.76807933656838"><ele>116.0</ele><time>2026-03-28T10:03:45Z</time></trkpt><trkpt lat="45.445044510057116" lon="10.768064844945705"><ele>116.0</ele><time>2026-03-28T10:03:46Z</time></trkpt><trkpt lat="45.44520256806018" lon="10.768044960955702"><ele>116.0</ele><time>2026-03-28T10:03:47Z</time></trkpt><trkpt lat="45.44536402922058" lon="10.768028886508235"><ele>116.0</ele><time>2026-03-28T10:03:48Z</time></trkpt><trkpt lat="45.445523743544655" lon="10.768015717417967"><ele>116.0</ele><time>2026-03-28T10:03:49Z</time></trkpt><trkpt lat="45.445677339101024" lon="10.768008524703523"><ele>115.33333333333333</ele><time>2026-03-28T10:03:50Z</time></trkpt><trkpt lat="45.44583179758928" lon="10.768008054319312"><ele>114.66666666666666</ele><time>2026-03-28T10:03:51Z</time></trkpt><trkpt lat="45.445983498933245" lon="10.768022920300035"><ele>114.0</ele><time>2026-03-28T10:03:52Z</time></trkpt><trkpt lat="45.44614406652182" lon="10.768057606611865"><ele>113.33333333333334</ele><time>2026-03-28T10:03:53Z</time></trkpt><trkpt lat="45.44631227125673" lon="10.768105717342552"><ele>112.66666666666667</ele><time>2026-03-28T10:03:54Z</time></trkpt><trkpt lat="45.446486228048954" lon="10.768173507698908"><ele>112.0</ele><time>2026-03-28T10:03:55Z</time></trkpt><trkpt lat="45.44666263605368" lon="10.768252633119756"><ele>112.0</ele><time>2026-03-28T10:03:56Z</time></trkpt><trkpt lat="45.44682220563148" lon="10.768337316210522"><ele>112.0</ele><time>2026-03-28T10:03:57Z</time></trkpt><trkpt lat="45.446978857105385" lon="10.768428603869179"><ele>112.0</ele><time>2026-03-28T10:03:58Z</time></trkpt><trkpt lat="45.44714701088534" lon="10.768527201691331"><ele>113.0</ele><time>2026-03-28T10:03:59Z</time></trkpt><trkpt lat="45.44732732288208" lon="10.768640882551596"><ele>114.0</ele><time>2026-03-28T10:04:00Z</time></trkpt><trkpt lat="45.4474996752612" lon="10.768756953520384"><ele>115.0</ele><time>2026-03-28T10:04:01Z</time></trkpt><trkpt lat="45.44765154970609" lon="10.768859536417736"><ele>115.0</ele><time>2026-03-28T10:04:02Z</time></trkpt><trkpt lat="45.447775095420305" lon="10.768944167668895"><ele>115.0</ele><time>2026-03-28T10:04:03Z</time></trkpt><trkpt lat="45.44789333342649" lon="10.76902355543763"><ele>115.0</ele><time>2026-03-28T10:04:04Z</time></trkpt><trkpt lat="45.44800924292977" lon="10.769106760984315"><ele>115.0</ele><time>2026-03-28T10:04:05Z</time></trkpt><trkpt lat="45.44812804334039" lon="10.769191530620521"><ele>114.75</ele><time>2026-03-28T10:04:06Z</time></trkpt><trkpt lat="45.44824890993263" lon="10.769287389199823"><ele>114.5</ele><time>2026-03-28T10:04:07Z</time></trkpt><trkpt lat="45.448375935297975" lon="10.769404812754141"><ele>114.25</ele><time>2026-03-28T10:04:08Z</time></trkpt><trkpt lat="45.448505196632446" lon="10.76953595265723"><ele>114.0</ele><time>2026-03-28T10:04:09Z</time></trkpt><trkpt lat="45.44865373048783" lon="10.769689800950587"><ele>113.75</ele><time>2026-03-28T10:04:10Z</time></trkpt><trkpt lat="45.44878887057843" lon="10.769853922198825"><ele>113.5</ele><time>2026-03-28T10:04:11Z</time></trkpt><trkpt lat="45.44887682287174" lon="10.769975736292054"><ele>113.25</ele><time>2026-03-28T10:04:12Z</time></trkpt><trkpt lat="45.448941217189564" lon="10.770064991028304"><ele>113.0</ele><time>2026-03-28T10:04:13Z</time></trkpt><trkpt lat="45.448988685595054" lon="10.770137872353724"><ele>113.33333333333333</ele><time>2026-03-28T10:04:14Z</time></trkpt><trkpt lat="45.449055925946105" lon="10.7702298791002"><ele>113.66666666666666</ele><time>2026-03-28T10:04:16Z</time></trkpt><trkpt lat="45.449139133786886" lon="10.770176979671751"><ele>114.0</ele><time>2026-03-28T10:04:19Z</time></trkpt><trkpt lat="45.44917130885579" lon="10.770083784686761"><ele>114.33333333333334</ele><time>2026-03-28T10:04:21Z</time></trkpt><trkpt lat="45.44920601065923" lon="10.769947406953326"><ele>114.66666666666667</ele><time>2026-03-28T10:04:23Z</time></trkpt><trkpt lat="45.449219868097266" lon="10.769848828472911"><ele>115.0</ele><time>2026-03-28T10:04:24Z</time></trkpt><trkpt lat="45.44923604012717" lon="10.769759071112814"><ele>115.2</ele><time>2026-03-28T10:04:25Z</time></trkpt><trkpt lat="45.44925768987851" lon="10.769656191265572"><ele>115.4</ele><time>2026-03-28T10:04:27Z</time></trkpt><trkpt lat="45.44919137801222" lon="10.76984745288738"><ele>115.6</ele><time>2026-03-28T10:04:53Z</time></trkpt><trkpt lat="45.44916595099613" lon="10.769993943306902"><ele>115.8</ele><time>2026-03-28T10:04:54Z</time></trkpt><trkpt lat="45.449145033432245" lon="10.770092717821074"><ele>116.0</ele><time>2026-03-28T10:04:55Z</time></trkpt><trkpt lat="45.44911144794723" lon="10.770185959680923"><ele>115.8</ele><time>2026-03-28T10:04:57Z</time></trkpt><trkpt lat="45.44911350193182" lon="10.770289016519309"><ele>115.6</ele><time>2026-03-28T10:04:59Z</time></trkpt><trkpt lat="45.44921277011342" lon="10.770400423954596"><ele>115.4</ele><time>2026-03-28T10:05:01Z</time></trkpt><trkpt lat="45.449292627184875" lon="10.770411083242118"><ele>115.2</ele><time>2026-03-28T10:05:02Z</time></trkpt><trkpt lat="45.44939710156625" lon="10.770397862782241"><ele>115.0</ele><time>2026-03-28T10:05:03Z</time></trkpt><trkpt lat="45.44951649627809" lon="10.770396006961507"><ele>115.0</ele><time>2026-03-28T10:05:04Z</time></trkpt><trkpt lat="45.44965871398216" lon="10.770412520071664"><ele>115.0</ele><time>2026-03-28T10:05:05Z</time></trkpt><trkpt lat="45.44980934702716" lon="10.770435697295557"><ele>115.0</ele><time>2026-03-28T10:05:06Z</time></trkpt><trkpt lat="45.44997739090342" lon="10.770465583946217"><ele>115.0</ele><time>2026-03-28T10:05:07Z</time></trkpt><trkpt lat="45.45014336976793" lon="10.770492743797998"><ele>115.0</ele><time>2026-03-28T10:05:08Z</time></trkpt><trkpt lat="45.45033190865614" lon="10.77051870867165"><ele>115.0</ele><time>2026-03-28T10:05:09Z</time></trkpt><trkpt lat="45.45050978146014" lon="10.770540821150894"><ele>115.33333333333334</ele><time>2026-03-28T10:05:10Z</time></trkpt><trkpt lat="45.45068049563102" lon="10.770560098489941"><ele>115.66666666666666</ele><time>2026-03-28T10:05:11Z</time></trkpt><trkpt lat="45.45083947527388" lon="10.770582674519588"><ele>116.0</ele><time>2026-03-28T10:05:12Z</time></trkpt><trkpt lat="45.451000078225334" lon="10.770610317357715"><ele>116.0</ele><time>2026-03-28T10:05:13Z</time></trkpt><trkpt lat="45.45114660742235" lon="10.770639319578864"><ele>116.0</ele><time>2026-03-28T10:05:14Z</time></trkpt><trkpt lat="45.45130731091298" lon="10.770662350572774"><ele>116.0</ele><time>2026-03-28T10:05:15Z</time></trkpt><trkpt lat="45.45146249722002" lon="10.770689259622825"><ele>116.33333333333333</ele><time>2026-03-28T10:05:16Z</time></trkpt><trkpt lat="45.451624991195956" lon="10.770719885450378"><ele>116.66666666666666</ele><time>2026-03-28T10:05:17Z</time></trkpt><trkpt lat="45.451792278698676" lon="10.770743437051305"><ele>117.0</ele><time>2026-03-28T10:05:18Z</time></trkpt><trkpt lat="45.45197028796439" lon="10.770772810032442"><ele>117.66666666666666</ele><time>2026-03-28T10:05:19Z</time></trkpt><trkpt lat="45.45214625087886" lon="10.770806141564869"><ele>118.33333333333333</ele><time>2026-03-28T10:05:20Z</time></trkpt><trkpt lat="45.45230570245795" lon="10.770832449861645"><ele>119.0</ele><time>2026-03-28T10:05:21Z</time></trkpt><trkpt lat="45.45247060802674" lon="10.77085553592952"><ele>119.0</ele><time>2026-03-28T10:05:22Z</time></trkpt><trkpt lat="45.452634077437686" lon="10.770903419808393"><ele>119.0</ele><time>2026-03-28T10:05:23Z</time></trkpt><trkpt lat="45.452789394187846" lon="10.770928814326703"><ele>119.0</ele><time>2026-03-28T10:05:24Z</time></trkpt><trkpt lat="45.45293462222902" lon="10.770953556633518"><ele>118.66666666666666</ele><time>2026-03-28T10:05:25Z</time></trkpt><trkpt lat="45.453104844636094" lon="10.77096321490229"><ele>118.33333333333334</ele><time>2026-03-28T10:05:26Z</time></trkpt><trkpt lat="45.45326324978687" lon="10.771014116031969"><ele>118.0</ele><time>2026-03-28T10:05:27Z</time></trkpt><trkpt lat="45.453430183407946" lon="10.771044694082809"><ele>118.0</ele><time>2026-03-28T10:05:28Z</time></trkpt><trkpt lat="45.45359230563127" lon="10.771071522407436"><ele>118.0</ele><time>2026-03-28T10:05:29Z</time></trkpt><trkpt lat="45.4537606989278" lon="10.771095898290703"><ele>118.0</ele><time>2026-03-28T10:05:30Z</time></trkpt><trkpt lat="45.45392371732214" lon="10.77112012521307"><ele>117.66666666666667</ele><time>2026-03-28T10:05:31Z</time></trkpt><trkpt lat="45.45408932629513" lon="10.771126982165885"><ele>117.33333333333334</ele><time>2026-03-28T10:05:32Z</time></trkpt><trkpt lat="45.45423699277096" lon="10.771162029491173"><ele>117.0</ele><time>2026-03-28T10:05:33Z</time></trkpt><trkpt lat="45.45439049932543" lon="10.7711895983364"><ele>117.0</ele><time>2026-03-28T10:05:34Z</time></trkpt><trkpt lat="45.454531356712884" lon="10.771211266668407"><ele>117.0</ele><time>2026-03-28T10:05:35Z</time></trkpt><trkpt lat="45.45465872630753" lon="10.771227579957436"><ele>117.0</ele><time>2026-03-28T10:05:36Z</time></trkpt><trkpt lat="45.45476893503916" lon="10.771256603634832"><ele>117.0</ele><time>2026-03-28T10:05:37Z</time></trkpt><trkpt lat="45.454862654350315" lon="10.771258643360447"><ele>117.16666666666667</ele><time>2026-03-28T10:05:38Z</time></trkpt><trkpt lat="45.454926540623326" lon="10.771266724553122"><ele>117.33333333333334</ele><time>2026-03-28T10:05:39Z</time></trkpt><trkpt lat="45.45499771418004" lon="10.771252240140779"><ele>117.5</ele><time>2026-03-28T10:05:41Z</time></trkpt><trkpt lat="45.45509391074426" lon="10.771194013829634"><ele>117.66666666666667</ele><time>2026-03-28T10:05:44Z</time></trkpt><trkpt lat="45.45513657750249" lon="10.771106785516897"><ele>117.83333333333334</ele><time>2026-03-28T10:05:45Z</time></trkpt><trkpt lat="45.45517873135318" lon="10.77103104625222"><ele>118.0</ele><time>2026-03-28T10:05:46Z</time></trkpt><trkpt lat="45.455240098684534" lon="10.770939243771537"><ele>118.0</ele><time>2026-03-28T10:05:48Z</time></trkpt><trkpt lat="45.45529698206366" lon="10.770875493933152"><ele>118.0</ele><time>2026-03-28T10:05:51Z</time></trkpt><trkpt lat="45.45523682797234" lon="10.770933349478053"><ele>118.0</ele><time>2026-03-28T10:05:55Z</time></trkpt><trkpt lat="45.45514976599304" lon="10.77095287048373"><ele>118.0</ele><time>2026-03-28T10:05:57Z</time></trkpt><trkpt lat="45.45511141753585" lon="10.771030279424592"><ele>118.0</ele><time>2026-03-28T10:05:59Z</time></trkpt><trkpt lat="45.455078875328105" lon="10.771117090683278"><ele>118.0</ele><time>2026-03-28T10:06:00Z</time></trkpt><trkpt lat="45.45505202419642" lon="10.771207754301738"><ele>118.0</ele><time>2026-03-28T10:06:01Z</time></trkpt><trkpt lat="45.45501748827702" lon="10.771340826315933"><ele>118.33333333333334</ele><time>2026-03-28T10:06:05Z</time></trkpt><trkpt lat="45.455013387912544" lon="10.77143117649244"><ele>118.66666666666667</ele><time>2026-03-28T10:06:06Z</time></trkpt><trkpt lat="45.45501110725974" lon="10.771534440387743"><ele>119.0</ele><time>2026-03-28T10:06:07Z</time></trkpt><trkpt lat="45.45504665074749" lon="10.7716636366396"><ele>119.33333333333334</ele><time>2026-03-28T10:06:09Z</time></trkpt><trkpt lat="45.45510496350883" lon="10.771708222276368"><ele>119.66666666666667</ele><time>2026-03-28T10:06:10Z</time></trkpt><trkpt lat="45.455180590999404" lon="10.771727970780804"><ele>120.0</ele><time>2026-03-28T10:06:11Z</time></trkpt><trkpt lat="45.455278000419774" lon="10.771752875960017"><ele>120.0</ele><time>2026-03-28T10:06:12Z</time></trkpt><trkpt lat="45.45538880283696" lon="10.771770581598947"><ele>120.0</ele><time>2026-03-28T10:06:13Z</time></trkpt><trkpt lat="45.45549476197894" lon="10.771789193771772"><ele>120.0</ele><time>2026-03-28T10:06:14Z</time></trkpt><trkpt lat="45.45556671883274" lon="10.77180771711823"><ele>120.0</ele><time>2026-03-28T10:06:15Z</time></trkpt><trkpt lat="45.455686057437504" lon="10.771834803794743"><ele>120.0</ele><time>2026-03-28T10:06:17Z</time></trkpt><trkpt lat="45.45579233698026" lon="10.771863193469516"><ele>120.2</ele><time>2026-03-28T10:06:19Z</time></trkpt><trkpt lat="45.45591127485972" lon="10.771887349175628"><ele>120.4</ele><time>2026-03-28T10:06:21Z</time></trkpt><trkpt lat="45.4559829140512" lon="10.771900322157236"><ele>120.6</ele><time>2026-03-28T10:06:22Z</time></trkpt><trkpt lat="45.45606670908249" lon="10.771923789138297"><ele>120.8</ele><time>2026-03-28T10:06:23Z</time></trkpt><trkpt lat="45.45616135776602" lon="10.771942702571758"><ele>121.0</ele><time>2026-03-28T10:06:24Z</time></trkpt><trkpt lat="45.456274262013224" lon="10.771962896541014"><ele>121.0</ele><time>2026-03-28T10:06:25Z</time></trkpt><trkpt lat="45.456387747524246" lon="10.77200136378681"><ele>121.0</ele><time>2026-03-28T10:06:26Z</time></trkpt><trkpt lat="45.45649930486259" lon="10.77204466802436"><ele>121.0</ele><time>2026-03-28T10:06:27Z</time></trkpt><trkpt lat="45.456615992097205" lon="10.772066226718794"><ele>121.0</ele><time>2026-03-28T10:06:28Z</time></trkpt><trkpt lat="45.45675146778456" lon="10.772077679283468"><ele>121.0</ele><time>2026-03-28T10:06:29Z</time></trkpt><trkpt lat="45.456897478036716" lon="10.772084100043541"><ele>121.0</ele><time>2026-03-28T10:06:30Z</time></trkpt><trkpt lat="45.45704430165316" lon="10.772089162255723"><ele>121.0</ele><time>2026-03-28T10:06:31Z</time></trkpt><trkpt lat="45.457175304515765" lon="10.772089261918802"><ele>121.0</ele><time>2026-03-28T10:06:32Z</time></trkpt><trkpt lat="45.45730469173054" lon="10.772086789898962"><ele>121.0</ele><time>2026-03-28T10:06:33Z</time></trkpt><trkpt lat="45.45743239055211" lon="10.77207957136919"><ele>121.0</ele><time>2026-03-28T10:06:34Z</time></trkpt><trkpt lat="45.457534329942185" lon="10.772083034632587"><ele>121.0</ele><time>2026-03-28T10:06:35Z</time></trkpt><trkpt lat="45.45762073971511" lon="10.772078650431595"><ele>121.0</ele><time>2026-03-28T10:06:36Z</time></trkpt><trkpt lat="45.457722534884525" lon="10.772073556384406"><ele>121.0</ele><time>2026-03-28T10:06:37Z</time></trkpt><trkpt lat="45.45782894115153" lon="10.772093588634922"><ele>121.0</ele><time>2026-03-28T10:06:38Z</time></trkpt><trkpt lat="45.45793864905207" lon="10.772060786578947"><ele>121.0</ele><time>2026-03-28T10:06:39Z</time></trkpt><trkpt lat="45.4580617620591" lon="10.77206073779309"><ele>121.0</ele><time>2026-03-28T10:06:40Z</time></trkpt><trkpt lat="45.45818904796073" lon="10.772068933048393"><ele>121.0</ele><time>2026-03-28T10:06:41Z</time></trkpt><trkpt lat="45.45832497434207" lon="10.772072690176985"><ele>121.0</ele><time>2026-03-28T10:06:42Z</time></trkpt><trkpt lat="45.45846355459967" lon="10.77206228506933"><ele>121.0</ele><time>2026-03-28T10:06:43Z</time></trkpt><trkpt lat="45.45861109227627" lon="10.772035656863313"><ele>121.0</ele><time>2026-03-28T10:06:44Z</time></trkpt><trkpt lat="45.45875538453452" lon="10.772013763473351"><ele>121.0</ele><time>2026-03-28T10:06:45Z</time></trkpt><trkpt lat="45.45889301669297" lon="10.771991986507574"><ele>121.0</ele><time>2026-03-28T10:06:46Z</time></trkpt><trkpt lat="45.459010043931684" lon="10.771973312027928"><ele>121.0</ele><time>2026-03-28T10:06:47Z</time></trkpt><trkpt lat="45.45911492365515" lon="10.771959455016887"><ele>121.0</ele><time>2026-03-28T10:06:48Z</time></trkpt><trkpt lat="45.459217230942606" lon="10.771932165056132"><ele>121.0</ele><time>2026-03-28T10:06:49Z</time></trkpt><trkpt lat="45.45931280973244" lon="10.77191366795515"><ele>121.0</ele><time>2026-03-28T10:06:50Z</time></trkpt><trkpt lat="45.45942298019399" lon="10.771901866839912"><ele>121.0</ele><time>2026-03-28T10:06:51Z</time></trkpt><trkpt lat="45.459547547476895" lon="10.771903220960635"><ele>121.0</ele><time>2026-03-28T10:06:52Z</time></trkpt><trkpt lat="45.459673916286114" lon="10.771918545552339"><ele>121.0</ele><time>2026-03-28T10:06:53Z</time></trkpt><trkpt lat="45.4597845675642" lon="10.77192580590099"><ele>121.0</ele><time>2026-03-28T10:06:54Z</time></trkpt><trkpt lat="45.459894579291884" lon="10.771934275445284"><ele>121.25</ele><time>2026-03-28T10:06:55Z</time></trkpt><trkpt lat="45.460018810717294" lon="10.771937035042123"><ele>121.5</ele><time>2026-03-28T10:06:56Z</time></trkpt><trkpt lat="45.4601419554195" lon="10.771938900183008"><ele>121.75</ele><time>2026-03-28T10:06:57Z</time></trkpt><trkpt lat="45.460271094211166" lon="10.771948311437455"><ele>122.0</ele><time>2026-03-28T10:06:58Z</time></trkpt><trkpt lat="45.46039946452438" lon="10.771947471594604"><ele>122.19999999999999</ele><time>2026-03-28T10:06:59Z</time></trkpt><trkpt lat="45.460514507479594" lon="10.77195240988126"><ele>122.39999999999999</ele><time>2026-03-28T10:07:00Z</time></trkpt><trkpt lat="45.46061988308364" lon="10.771956477677215"><ele>122.60000000000001</ele><time>2026-03-28T10:07:01Z</time></trkpt><trkpt lat="45.46071840692512" lon="10.77195910205386"><ele>122.80000000000001</ele><time>2026-03-28T10:07:02Z</time></trkpt><trkpt lat="45.46081074030383" lon="10.771963511405323"><ele>123.0</ele><time>2026-03-28T10:07:03Z</time></trkpt><trkpt lat="45.46089816198672" lon="10.771973822998195"><ele>123.0</ele><time>2026-03-28T10:07:04Z</time></trkpt><trkpt lat="45.46097604913676" lon="10.771990869533115"><ele>123.0</ele><time>2026-03-28T10:07:05Z</time></trkpt><trkpt lat="45.46104878609053" lon="10.771989249236238"><ele>123.0</ele><time>2026-03-28T10:07:06Z</time></trkpt><trkpt lat="45.461144022041914" lon="10.771989039108727"><ele>123.0</ele><time>2026-03-28T10:07:08Z</time></trkpt><trkpt lat="45.46121485095805" lon="10.77204335041469"><ele>123.0</ele><time>2026-03-28T10:07:14Z</time></trkpt><trkpt lat="45.46122396051527" lon="10.77217018493487"><ele>123.0</ele><time>2026-03-28T10:07:16Z</time></trkpt><trkpt lat="45.46121210322826" lon="10.772266866130744"><ele>123.0</ele><time>2026-03-28T10:07:17Z</time></trkpt><trkpt lat="45.46122401155592" lon="10.772376212757132"><ele>123.0</ele><time>2026-03-28T10:07:18Z</time></trkpt><trkpt lat="45.46123001457594" lon="10.772471242916927"><ele>123.0</ele><time>2026-03-28T10:07:19Z</time></trkpt><trkpt lat="45.461250609687795" lon="10.772579764349848"><ele>123.0</ele><time>2026-03-28T10:07:21Z</time></trkpt><trkpt lat="45.46137341523265" lon="10.772594826038066"><ele>123.0</ele><time>2026-03-28T10:07:22Z</time></trkpt><trkpt lat="45.46146903267165" lon="10.772585409980397"><ele>123.0</ele><time>2026-03-28T10:07:23Z</time></trkpt><trkpt lat="45.46157418180354" lon="10.772582743321559"><ele>123.5</ele><time>2026-03-28T10:07:24Z</time></trkpt><trkpt lat="45.46169165761323" lon="10.7725853097603"><ele>124.0</ele><time>2026-03-28T10:07:25Z</time></trkpt><trkpt lat="45.46183029518827" lon="10.772582798030513"><ele>124.5</ele><time>2026-03-28T10:07:26Z</time></trkpt><trkpt lat="45.46197913189246" lon="10.77256874516456"><ele>125.0</ele><time>2026-03-28T10:07:27Z</time></trkpt><trkpt lat="45.46214273167989" lon="10.772542965039396"><ele>125.5</ele><time>2026-03-28T10:07:28Z</time></trkpt><trkpt lat="45.462296465154516" lon="10.772500242699879"><ele>126.0</ele><time>2026-03-28T10:07:29Z</time></trkpt><trkpt lat="45.46244213234685" lon="10.772455950602588"><ele>126.5</ele><time>2026-03-28T10:07:30Z</time></trkpt><trkpt lat="45.462580170665014" lon="10.772414647910487"><ele>127.0</ele><time>2026-03-28T10:07:31Z</time></trkpt><trkpt lat="45.46271575977009" lon="10.772381378492094"><ele>127.0</ele><time>2026-03-28T10:07:32Z</time></trkpt><trkpt lat="45.462829376702906" lon="10.772356828723908"><ele>127.0</ele><time>2026-03-28T10:07:33Z</time></trkpt><trkpt lat="45.462939726044986" lon="10.772350150048899"><ele>127.0</ele><time>2026-03-28T10:07:34Z</time></trkpt><trkpt lat="45.463050872535625" lon="10.772365114963184"><ele>127.0</ele><time>2026-03-28T10:07:35Z</time></trkpt><trkpt lat="45.46317457076149" lon="10.772400576545557"><ele>128.0</ele><time>2026-03-28T10:07:36Z</time></trkpt><trkpt lat="45.46330584106959" lon="10.772437932233268"><ele>129.0</ele><time>2026-03-28T10:07:37Z</time></trkpt><trkpt lat="45.4634462216249" lon="10.77246139268427"><ele>130.0</ele><time>2026-03-28T10:07:38Z</time></trkpt><trkpt lat="45.46356987543157" lon="10.772483226909692"><ele>131.0</ele><time>2026-03-28T10:07:39Z</time></trkpt><trkpt lat="45.4636995948087" lon="10.772534354625018"><ele>131.75</ele><time>2026-03-28T10:07:40Z</time></trkpt><trkpt lat="45.46382397037647" lon="10.77261452496107"><ele>132.5</ele><time>2026-03-28T10:07:41Z</time></trkpt><trkpt lat="45.46394441486276" lon="10.772698025169142"><ele>133.25</ele><time>2026-03-28T10:07:42Z</time></trkpt><trkpt lat="45.464049296883" lon="10.772778099256199"><ele>134.0</ele><time>2026-03-28T10:07:43Z</time></trkpt><trkpt lat="45.46413655015395" lon="10.772859774065328"><ele>134.6</ele><time>2026-03-28T10:07:44Z</time></trkpt><trkpt lat="45.46420194418607" lon="10.772941341813356"><ele>135.2</ele><time>2026-03-28T10:07:45Z</time></trkpt><trkpt lat="45.46424657769494" lon="10.773017962816855"><ele>135.79999999999998</ele><time>2026-03-28T10:07:46Z</time></trkpt><trkpt lat="45.46428771059003" lon="10.773168183715518"><ele>136.4</ele><time>2026-03-28T10:07:48Z</time></trkpt><trkpt lat="45.4642188863049" lon="10.773338331958026"><ele>137.0</ele><time>2026-03-28T10:07:50Z</time></trkpt><trkpt lat="45.46417728412834" lon="10.77345800563846"><ele>138.0</ele><time>2026-03-28T10:07:51Z</time></trkpt><trkpt lat="45.46411193696866" lon="10.77358239417676"><ele>139.0</ele><time>2026-03-28T10:07:52Z</time></trkpt><trkpt lat="45.46404569418488" lon="10.773735075274896"><ele>140.0</ele><time>2026-03-28T10:07:53Z</time></trkpt><trkpt lat="45.46396136802304" lon="10.77391723021704"><ele>141.0</ele><time>2026-03-28T10:07:54Z</time></trkpt><trkpt lat="45.463887458948534" lon="10.774074117748942"><ele>141.0</ele><time>2026-03-28T10:07:55Z</time></trkpt><trkpt lat="45.463828392337575" lon="10.774212656864288"><ele>141.0</ele><time>2026-03-28T10:07:56Z</time></trkpt><trkpt lat="45.46379784044481" lon="10.774306450973366"><ele>141.0</ele><time>2026-03-28T10:07:57Z</time></trkpt><trkpt lat="45.46379010489419" lon="10.774408057020246"><ele>141.0</ele><time>2026-03-28T10:07:59Z</time></trkpt><trkpt lat="45.46384577225729" lon="10.774524953080485"><ele>141.0</ele><time>2026-03-28T10:08:01Z</time></trkpt><trkpt lat="45.46389974177412" lon="10.77457773429624"><ele>141.0</ele><time>2026-03-28T10:08:02Z</time></trkpt><trkpt lat="45.46397748654903" lon="10.774638743382207"><ele>141.2</ele><time>2026-03-28T10:08:03Z</time></trkpt><trkpt lat="45.4640635527859" lon="10.77472450822774"><ele>141.39999999999998</ele><time>2026-03-28T10:08:04Z</time></trkpt><trkpt lat="45.46414674598349" lon="10.774818664971988"><ele>141.6</ele><time>2026-03-28T10:08:05Z</time></trkpt><trkpt lat="45.46423467968526" lon="10.774920854473159"><ele>141.79999999999998</ele><time>2026-03-28T10:08:06Z</time></trkpt><trkpt lat="45.46431474160789" lon="10.775010315365073"><ele>142.0</ele><time>2026-03-28T10:08:07Z</time></trkpt><trkpt lat="45.46439445324688" lon="10.77510223235528"><ele>142.0</ele><time>2026-03-28T10:08:08Z</time></trkpt><trkpt lat="45.46446399111243" lon="10.775185478183406"><ele>142.0</ele><time>2026-03-28T10:08:09Z</time></trkpt><trkpt lat="45.464533524719556" lon="10.775262645494024"><ele>142.0</ele><time>2026-03-28T10:08:10Z</time></trkpt><trkpt lat="45.46460739590418" lon="10.775332389407934"><ele>142.0</ele><time>2026-03-28T10:08:11Z</time></trkpt><trkpt lat="45.46468605257059" lon="10.775407192445295"><ele>142.0</ele><time>2026-03-28T10:08:12Z</time></trkpt><trkpt lat="45.4647693783727" lon="10.775496708120553"><ele>143.4</ele><time>2026-03-28T10:08:13Z</time></trkpt><trkpt lat="45.46485425044706" lon="10.775572656642055"><ele>144.79999999999998</ele><time>2026-03-28T10:08:14Z</time></trkpt><trkpt lat="45.46495374439796" lon="10.775638959637732"><ele>146.2</ele><time>2026-03-28T10:08:15Z</time></trkpt><trkpt lat="45.4650529714093" lon="10.775698841819048"><ele>147.6</ele><time>2026-03-28T10:08:16Z</time></trkpt><trkpt lat="45.465146039597926" lon="10.775768205473787"><ele>149.0</ele><time>2026-03-28T10:08:17Z</time></trkpt><trkpt lat="45.46521934057424" lon="10.775846899511357"><ele>149.0</ele><time>2026-03-28T10:08:18Z</time></trkpt><trkpt lat="45.46528871912416" lon="10.775912674702884"><ele>149.0</ele><time>2026-03-28T10:08:19Z</time></trkpt><trkpt lat="45.46535088626957" lon="10.775974310783074"><ele>149.0</ele><time>2026-03-28T10:08:20Z</time></trkpt><trkpt lat="45.465420016658825" lon="10.776027861707526"><ele>149.0</ele><time>2026-03-28T10:08:21Z</time></trkpt><trkpt lat="45.46550291076584" lon="10.776085947725424"><ele>149.0</ele><time>2026-03-28T10:08:22Z</time></trkpt><trkpt lat="45.465595154977606" lon="10.776150101651917"><ele>149.0</ele><time>2026-03-28T10:08:23Z</time></trkpt><trkpt lat="45.465673829622375" lon="10.776199072088215"><ele>149.4</ele><time>2026-03-28T10:08:24Z</time></trkpt><trkpt lat="45.465761513919844" lon="10.776252541692172"><ele>149.8</ele><time>2026-03-28T10:08:25Z</time></trkpt><trkpt lat="45.46584893982169" lon="10.776296895088244"><ele>150.2</ele><time>2026-03-28T10:08:26Z</time></trkpt><trkpt lat="45.46594927638459" lon="10.77632719294743"><ele>150.6</ele><time>2026-03-28T10:08:27Z</time></trkpt><trkpt lat="45.46604195075821" lon="10.776343113419157"><ele>151.0</ele><time>2026-03-28T10:08:28Z</time></trkpt><trkpt lat="45.466146122198026" lon="10.776370532018491"><ele>151.0</ele><time>2026-03-28T10:08:29Z</time></trkpt><trkpt lat="45.46623837470635" lon="10.776429974418882"><ele>151.0</ele><time>2026-03-28T10:08:30Z</time></trkpt><trkpt lat="45.466329276280035" lon="10.776477659008902"><ele>151.0</ele><time>2026-03-28T10:08:31Z</time></trkpt><trkpt lat="45.46641134024055" lon="10.776526023235046"><ele>151.0</ele><time>2026-03-28T10:08:32Z</time></trkpt><trkpt lat="45.46649891307311" lon="10.776573160021398"><ele>151.0</ele><time>2026-03-28T10:08:33Z</time></trkpt><trkpt lat="45.466585939217865" lon="10.776622464109957"><ele>151.2</ele><time>2026-03-28T10:08:34Z</time></trkpt><trkpt lat="45.46667285059399" lon="10.776668560559953"><ele>151.39999999999998</ele><time>2026-03-28T10:08:35Z</time></trkpt><trkpt lat="45.46676612167792" lon="10.776716268193532"><ele>151.6</ele><time>2026-03-28T10:08:36Z</time></trkpt><trkpt lat="45.46686608231713" lon="10.776773787810843"><ele>151.79999999999998</ele><time>2026-03-28T10:08:37Z</time></trkpt><trkpt lat="45.46695873500692" lon="10.776825576124082"><ele>152.0</ele><time>2026-03-28T10:08:38Z</time></trkpt><trkpt lat="45.46705375576081" lon="10.776874893475776"><ele>153.5</ele><time>2026-03-28T10:08:39Z</time></trkpt><trkpt lat="45.46715167165732" lon="10.776921850195976"><ele>155.0</ele><time>2026-03-28T10:08:40Z</time></trkpt><trkpt lat="45.46735103150536" lon="10.77702374223366"><ele>156.5</ele><time>2026-03-28T10:08:42Z</time></trkpt><trkpt lat="45.467454740698784" lon="10.77707722432068"><ele>158.0</ele><time>2026-03-28T10:08:43Z</time></trkpt><trkpt lat="45.46755724650524" lon="10.777136932815433"><ele>158.0</ele><time>2026-03-28T10:08:44Z</time></trkpt><trkpt lat="45.46764247523327" lon="10.777175149307908"><ele>158.0</ele><time>2026-03-28T10:08:45Z</time></trkpt><trkpt lat="45.46771605318781" lon="10.777222314922227"><ele>158.0</ele><time>2026-03-28T10:08:46Z</time></trkpt><trkpt lat="45.46779355249157" lon="10.777284439249359"><ele>158.0</ele><time>2026-03-28T10:08:47Z</time></trkpt><trkpt lat="45.46787061986511" lon="10.777353238425446"><ele>158.0</ele><time>2026-03-28T10:08:48Z</time></trkpt><trkpt lat="45.467970552035226" lon="10.777418758104288"><ele>157.5</ele><time>2026-03-28T10:08:49Z</time></trkpt><trkpt lat="45.46808885922269" lon="10.777466165123124"><ele>157.0</ele><time>2026-03-28T10:08:50Z</time></trkpt><trkpt lat="45.46820648413882" lon="10.777528523762994"><ele>156.5</ele><time>2026-03-28T10:08:51Z</time></trkpt><trkpt lat="45.468313047147134" lon="10.777580591311475"><ele>156.0</ele><time>2026-03-28T10:08:52Z</time></trkpt><trkpt lat="45.468418703621076" lon="10.77764123408119"><ele>155.6</ele><time>2026-03-28T10:08:53Z</time></trkpt><trkpt lat="45.46851962231848" lon="10.77770299376687"><ele>155.2</ele><time>2026-03-28T10:08:54Z</time></trkpt><trkpt lat="45.46862062680381" lon="10.777758470768273"><ele>154.8</ele><time>2026-03-28T10:08:55Z</time></trkpt><trkpt lat="45.46872070890693" lon="10.777814724695336"><ele>154.4</ele><time>2026-03-28T10:08:56Z</time></trkpt><trkpt lat="45.46881782091454" lon="10.777871133233457"><ele>154.0</ele><time>2026-03-28T10:08:57Z</time></trkpt><trkpt lat="45.468901955336655" lon="10.77792293244806"><ele>154.0</ele><time>2026-03-28T10:08:58Z</time></trkpt><trkpt lat="45.468973606178224" lon="10.777968350608596"><ele>154.0</ele><time>2026-03-28T10:08:59Z</time></trkpt><trkpt lat="45.46905637234669" lon="10.778006976279404"><ele>154.0</ele><time>2026-03-28T10:09:00Z</time></trkpt><trkpt lat="45.46912103414783" lon="10.778046527798429"><ele>154.0</ele><time>2026-03-28T10:09:01Z</time></trkpt><trkpt lat="45.469207599114156" lon="10.778133603294108"><ele>154.0</ele><time>2026-03-28T10:09:03Z</time></trkpt><trkpt lat="45.469126937154925" lon="10.778263602354544"><ele>154.0</ele><time>2026-03-28T10:09:05Z</time></trkpt><trkpt lat="45.46910321225901" lon="10.77841425226972"><ele>154.0</ele><time>2026-03-28T10:09:07Z</time></trkpt><trkpt lat="45.469051074497315" lon="10.778517610495744"><ele>154.0</ele><time>2026-03-28T10:09:08Z</time></trkpt><trkpt lat="45.468966501454844" lon="10.77864674939452"><ele>154.0</ele><time>2026-03-28T10:09:09Z</time></trkpt><trkpt lat="45.46886828075121" lon="10.778780256283536"><ele>153.5</ele><time>2026-03-28T10:09:10Z</time></trkpt><trkpt lat="45.46876424527635" lon="10.778919012537148"><ele>153.0</ele><time>2026-03-28T10:09:11Z</time></trkpt><trkpt lat="45.46866663726005" lon="10.779068624284365"><ele>152.5</ele><time>2026-03-28T10:09:12Z</time></trkpt><trkpt lat="45.468580440399414" lon="10.779196326349087"><ele>152.0</ele><time>2026-03-28T10:09:13Z</time></trkpt><trkpt lat="45.46849292917181" lon="10.779313763101777"><ele>152.0</ele><time>2026-03-28T10:09:14Z</time></trkpt><trkpt lat="45.46840000348196" lon="10.779441005978283"><ele>152.0</ele><time>2026-03-28T10:09:15Z</time></trkpt><trkpt lat="45.46830506651942" lon="10.779573058935819"><ele>152.0</ele><time>2026-03-28T10:09:16Z</time></trkpt><trkpt lat="45.468199210438314" lon="10.779672084414159"><ele>152.0</ele><time>2026-03-28T10:09:17Z</time></trkpt><trkpt lat="45.46810431628018" lon="10.779754361565729"><ele>152.0</ele><time>2026-03-28T10:09:18Z</time></trkpt><trkpt lat="45.468013109009696" lon="10.77981571142547"><ele>152.0</ele><time>2026-03-28T10:09:19Z</time></trkpt><trkpt lat="45.46789928865437" lon="10.779889329094436"><ele>152.0</ele><time>2026-03-28T10:09:20Z</time></trkpt><trkpt lat="45.46780025377386" lon="10.779960489677677"><ele>152.0</ele><time>2026-03-28T10:09:21Z</time></trkpt><trkpt lat="45.46771138668539" lon="10.780078833078516"><ele>153.5</ele><time>2026-03-28T10:09:22Z</time></trkpt><trkpt lat="45.4676132550596" lon="10.780209208881711"><ele>155.0</ele><time>2026-03-28T10:09:23Z</time></trkpt><trkpt lat="45.467511489955946" lon="10.780373261295358"><ele>156.5</ele><time>2026-03-28T10:09:24Z</time></trkpt><trkpt lat="45.46742128011595" lon="10.78054087801743"><ele>158.0</ele><time>2026-03-28T10:09:25Z</time></trkpt><trkpt lat="45.46733236652652" lon="10.780713773847488"><ele>158.0</ele><time>2026-03-28T10:09:26Z</time></trkpt><trkpt lat="45.46724677508682" lon="10.780901507715464"><ele>158.0</ele><time>2026-03-28T10:09:27Z</time></trkpt><trkpt lat="45.46716052809717" lon="10.781070172272022"><ele>158.0</ele><time>2026-03-28T10:09:28Z</time></trkpt><trkpt lat="45.467090227128764" lon="10.781190787181249"><ele>158.0</ele><time>2026-03-28T10:09:29Z</time></trkpt><trkpt lat="45.46702696511733" lon="10.781313481723174"><ele>157.0</ele><time>2026-03-28T10:09:30Z</time></trkpt><trkpt lat="45.46695928960961" lon="10.781475210578975"><ele>156.0</ele><time>2026-03-28T10:09:31Z</time></trkpt><trkpt lat="45.46690316239228" lon="10.78164008153365"><ele>155.0</ele><time>2026-03-28T10:09:32Z</time></trkpt><trkpt lat="45.466846491553895" lon="10.781813259100007"><ele>154.0</ele><time>2026-03-28T10:09:33Z</time></trkpt><trkpt lat="45.466805584312745" lon="10.782002868410824"><ele>154.0</ele><time>2026-03-28T10:09:34Z</time></trkpt><trkpt lat="45.466785191964554" lon="10.782204822614615"><ele>154.0</ele><time>2026-03-28T10:09:35Z</time></trkpt><trkpt lat="45.46676832357063" lon="10.782392767953963"><ele>154.0</ele><time>2026-03-28T10:09:36Z</time></trkpt><trkpt lat="45.466751677811324" lon="10.782569029073715"><ele>154.0</ele><time>2026-03-28T10:09:37Z</time></trkpt><trkpt lat="45.46672429725119" lon="10.782737924300466"><ele>153.75</ele><time>2026-03-28T10:09:38Z</time></trkpt><trkpt lat="45.466693408088375" lon="10.782914173054854"><ele>153.5</ele><time>2026-03-28T10:09:39Z</time></trkpt><trkpt lat="45.46666669160438" lon="10.783088802806322"><ele>153.25</ele><time>2026-03-28T10:09:40Z</time></trkpt><trkpt lat="45.466630467379" lon="10.783255032626748"><ele>153.0</ele><time>2026-03-28T10:09:41Z</time></trkpt><trkpt lat="45.466587551585384" lon="10.783424626675306"><ele>152.75</ele><time>2026-03-28T10:09:42Z</time></trkpt><trkpt lat="45.466549698819954" lon="10.783584497026853"><ele>152.5</ele><time>2026-03-28T10:09:43Z</time></trkpt><trkpt lat="45.4665280310542" lon="10.78375424656514"><ele>152.25</ele><time>2026-03-28T10:09:44Z</time></trkpt><trkpt lat="45.466519568592595" lon="10.783921590315927"><ele>152.0</ele><time>2026-03-28T10:09:45Z</time></trkpt><trkpt lat="45.466522216766926" lon="10.784074027640958"><ele>152.0</ele><time>2026-03-28T10:09:46Z</time></trkpt><trkpt lat="45.46652865954251" lon="10.784211807695932"><ele>152.0</ele><time>2026-03-28T10:09:47Z</time></trkpt><trkpt lat="45.466531459719675" lon="10.784324576086258"><ele>152.0</ele><time>2026-03-28T10:09:48Z</time></trkpt><trkpt lat="45.4665249562326" lon="10.7844189577148"><ele>152.0</ele><time>2026-03-28T10:09:49Z</time></trkpt><trkpt lat="45.46649506714115" lon="10.784541015240565"><ele>152.0</ele><time>2026-03-28T10:09:51Z</time></trkpt><trkpt lat="45.46658605666138" lon="10.784633732750105"><ele>152.0</ele><time>2026-03-28T10:09:54Z</time></trkpt><trkpt lat="45.466646528107155" lon="10.784603389303284"><ele>152.5</ele><time>2026-03-28T10:09:55Z</time></trkpt><trkpt lat="45.46672004720465" lon="10.78456832319887"><ele>153.0</ele><time>2026-03-28T10:09:56Z</time></trkpt><trkpt lat="45.46680076168655" lon="10.784564105043398"><ele>153.5</ele><time>2026-03-28T10:09:57Z</time></trkpt><trkpt lat="45.466886262251776" lon="10.784589172021377"><ele>154.0</ele><time>2026-03-28T10:09:58Z</time></trkpt><trkpt lat="45.466960203029295" lon="10.784638498964865"><ele>154.5</ele><time>2026-03-28T10:09:59Z</time></trkpt><trkpt lat="45.46702834860328" lon="10.784695228540683"><ele>155.0</ele><time>2026-03-28T10:10:00Z</time></trkpt><trkpt lat="45.467095821377136" lon="10.784726454849539"><ele>155.0</ele><time>2026-03-28T10:10:01Z</time></trkpt><trkpt lat="45.467160518528914" lon="10.784709685160802"><ele>155.0</ele><time>2026-03-28T10:10:02Z</time></trkpt><trkpt lat="45.46723040757292" lon="10.78465897357555"><ele>155.0</ele><time>2026-03-28T10:10:03Z</time></trkpt><trkpt lat="45.467293593272785" lon="10.784579891685365"><ele>155.0</ele><time>2026-03-28T10:10:04Z</time></trkpt><trkpt lat="45.467374036158795" lon="10.784488519180114"><ele>155.0</ele><time>2026-03-28T10:10:05Z</time></trkpt><trkpt lat="45.46745586534013" lon="10.784436017259436"><ele>155.0</ele><time>2026-03-28T10:10:06Z</time></trkpt><trkpt lat="45.467540854232745" lon="10.784404749422988"><ele>155.0</ele><time>2026-03-28T10:10:07Z</time></trkpt><trkpt lat="45.46763294590377" lon="10.784388958608908"><ele>155.0</ele><time>2026-03-28T10:10:08Z</time></trkpt><trkpt lat="45.46772478572398" lon="10.784392077609649"><ele>155.0</ele><time>2026-03-28T10:10:09Z</time></trkpt><trkpt lat="45.467818548290396" lon="10.78440008406733"><ele>155.0</ele><time>2026-03-28T10:10:10Z</time></trkpt><trkpt lat="45.46790331996276" lon="10.784400926327445"><ele>155.0</ele><time>2026-03-28T10:10:11Z</time></trkpt><trkpt lat="45.468001453740094" lon="10.784390928716562"><ele>154.6</ele><time>2026-03-28T10:10:12Z</time></trkpt><trkpt lat="45.46810253902793" lon="10.784379374811902"><ele>154.2</ele><time>2026-03-28T10:10:13Z</time></trkpt><trkpt lat="45.468209615214285" lon="10.784355623984794"><ele>153.8</ele><time>2026-03-28T10:10:14Z</time></trkpt><trkpt lat="45.46829842766367" lon="10.784316626339317"><ele>153.4</ele><time>2026-03-28T10:10:15Z</time></trkpt><trkpt lat="45.46837875400888" lon="10.784280486910497"><ele>153.0</ele><time>2026-03-28T10:10:16Z</time></trkpt><trkpt lat="45.46845743153587" lon="10.784220065721993"><ele>153.0</ele><time>2026-03-28T10:10:17Z</time></trkpt><trkpt lat="45.46852185963964" lon="10.784146970164516"><ele>153.0</ele><time>2026-03-28T10:10:18Z</time></trkpt><trkpt lat="45.4686056280913" lon="10.78409826717231"><ele>153.0</ele><time>2026-03-28T10:10:19Z</time></trkpt><trkpt lat="45.46868229427489" lon="10.784035665746877"><ele>153.0</ele><time>2026-03-28T10:10:20Z</time></trkpt><trkpt lat="45.46880127625967" lon="10.783998981863748"><ele>153.0</ele><time>2026-03-28T10:10:21Z</time></trkpt><trkpt lat="45.46891690352799" lon="10.783970994034062"><ele>152.0</ele><time>2026-03-28T10:10:22Z</time></trkpt><trkpt lat="45.46904480606165" lon="10.783936359779595"><ele>151.0</ele><time>2026-03-28T10:10:23Z</time></trkpt><trkpt lat="45.46916964472435" lon="10.783884660869603"><ele>150.0</ele><time>2026-03-28T10:10:24Z</time></trkpt><trkpt lat="45.46928679491234" lon="10.783832916959188"><ele>149.0</ele><time>2026-03-28T10:10:25Z</time></trkpt><trkpt lat="45.469409386534664" lon="10.783794651729385"><ele>149.0</ele><time>2026-03-28T10:10:26Z</time></trkpt><trkpt lat="45.469537713890375" lon="10.78377348441573"><ele>149.0</ele><time>2026-03-28T10:10:27Z</time></trkpt><trkpt lat="45.46966429495268" lon="10.78376567561927"><ele>149.0</ele><time>2026-03-28T10:10:28Z</time></trkpt><trkpt lat="45.46977482560281" lon="10.783769305926658"><ele>149.0</ele><time>2026-03-28T10:10:29Z</time></trkpt><trkpt lat="45.46988669825343" lon="10.783775209709203"><ele>148.25</ele><time>2026-03-28T10:10:30Z</time></trkpt><trkpt lat="45.46999871919603" lon="10.783795354738427"><ele>147.5</ele><time>2026-03-28T10:10:31Z</time></trkpt><trkpt lat="45.47012898096641" lon="10.783817757262756"><ele>146.75</ele><time>2026-03-28T10:10:32Z</time></trkpt><trkpt lat="45.4702680607048" lon="10.783848358035163"><ele>146.0</ele><time>2026-03-28T10:10:33Z</time></trkpt><trkpt lat="45.47039691025146" lon="10.78387413268164"><ele>145.25</ele><time>2026-03-28T10:10:34Z</time></trkpt><trkpt lat="45.47051449814104" lon="10.78389426549011"><ele>144.5</ele><time>2026-03-28T10:10:35Z</time></trkpt><trkpt lat="45.47063144794781" lon="10.783898899102027"><ele>143.75</ele><time>2026-03-28T10:10:36Z</time></trkpt><trkpt lat="45.47075900025197" lon="10.783886932938175"><ele>143.0</ele><time>2026-03-28T10:10:37Z</time></trkpt><trkpt lat="45.470893074732274" lon="10.783863016209258"><ele>143.0</ele><time>2026-03-28T10:10:38Z</time></trkpt><trkpt lat="45.47101770059312" lon="10.783826817455271"><ele>143.0</ele><time>2026-03-28T10:10:39Z</time></trkpt><trkpt lat="45.471133555301" lon="10.783783633164107"><ele>143.0</ele><time>2026-03-28T10:10:40Z</time></trkpt><trkpt lat="45.47127404720164" lon="10.783737806826872"><ele>143.0</ele><time>2026-03-28T10:10:41Z</time></trkpt><trkpt lat="45.47140751530208" lon="10.783703510398892"><ele>142.25</ele><time>2026-03-28T10:10:42Z</time></trkpt><trkpt lat="45.4715400992307" lon="10.783669714284809"><ele>141.5</ele><time>2026-03-28T10:10:43Z</time></trkpt><trkpt lat="45.47165971786116" lon="10.78363824911062"><ele>140.75</ele><time>2026-03-28T10:10:44Z</time></trkpt><trkpt lat="45.47177245714488" lon="10.783603858631302"><ele>140.0</ele><time>2026-03-28T10:10:45Z</time></trkpt><trkpt lat="45.4718877434356" lon="10.783578017607825"><ele>140.0</ele><time>2026-03-28T10:10:46Z</time></trkpt><trkpt lat="45.47199530453066" lon="10.78355514789209"><ele>140.0</ele><time>2026-03-28T10:10:47Z</time></trkpt><trkpt lat="45.47209522310759" lon="10.783529023893854"><ele>140.0</ele><time>2026-03-28T10:10:48Z</time></trkpt><trkpt lat="45.472202980780025" lon="10.783498044469821"><ele>140.0</ele><time>2026-03-28T10:10:49Z</time></trkpt><trkpt lat="45.472305290998044" lon="10.783474984967649"><ele>140.0</ele><time>2026-03-28T10:10:50Z</time></trkpt><trkpt lat="45.472409834987566" lon="10.783445912207746"><ele>139.75</ele><time>2026-03-28T10:10:51Z</time></trkpt><trkpt lat="45.47252842831373" lon="10.783438467624649"><ele>139.5</ele><time>2026-03-28T10:10:52Z</time></trkpt><trkpt lat="45.472655837079415" lon="10.783394825583152"><ele>139.25</ele><time>2026-03-28T10:10:53Z</time></trkpt><trkpt lat="45.47278375412606" lon="10.783383790205823"><ele>139.0</ele><time>2026-03-28T10:10:54Z</time></trkpt><trkpt lat="45.47289430381306" lon="10.783378617352104"><ele>139.0</ele><time>2026-03-28T10:10:55Z</time></trkpt><trkpt lat="45.47300226208386" lon="10.78336879616968"><ele>139.0</ele><time>2026-03-28T10:10:56Z</time></trkpt><trkpt lat="45.47309354477314" lon="10.783366205123228"><ele>139.0</ele><time>2026-03-28T10:10:57Z</time></trkpt><trkpt lat="45.47317127449964" lon="10.783368681640944"><ele>139.0</ele><time>2026-03-28T10:10:58Z</time></trkpt><trkpt lat="45.47323545535267" lon="10.783376795036117"><ele>139.0</ele><time>2026-03-28T10:10:59Z</time></trkpt><trkpt lat="45.47334502878538" lon="10.783372701981657"><ele>139.0</ele><time>2026-03-28T10:11:01Z</time></trkpt><trkpt lat="45.473460699125766" lon="10.783379604508328"><ele>139.0</ele><time>2026-03-28T10:11:03Z</time></trkpt><trkpt lat="45.473554432285106" lon="10.783443506626215"><ele>139.0</ele><time>2026-03-28T10:11:04Z</time></trkpt><trkpt lat="45.4736757051833" lon="10.78345810845588"><ele>139.0</ele><time>2026-03-28T10:11:05Z</time></trkpt><trkpt lat="45.4737961835792" lon="10.783443680126846"><ele>139.5</ele><time>2026-03-28T10:11:06Z</time></trkpt><trkpt lat="45.47389015455285" lon="10.783398273066268"><ele>140.0</ele><time>2026-03-28T10:11:07Z</time></trkpt><trkpt lat="45.473959371459486" lon="10.783349858642822"><ele>140.5</ele><time>2026-03-28T10:11:08Z</time></trkpt><trkpt lat="45.474016328392956" lon="10.78330145479447"><ele>141.0</ele><time>2026-03-28T10:11:09Z</time></trkpt><trkpt lat="45.47407987672111" lon="10.78328639268622"><ele>141.5</ele><time>2026-03-28T10:11:10Z</time></trkpt><trkpt lat="45.47418620189645" lon="10.783243342026529"><ele>142.0</ele><time>2026-03-28T10:11:12Z</time></trkpt><trkpt lat="45.47427064571779" lon="10.78321512194016"><ele>142.0</ele><time>2026-03-28T10:11:14Z</time></trkpt><trkpt lat="45.474380152712605" lon="10.783180589632476"><ele>142.0</ele><time>2026-03-28T10:11:16Z</time></trkpt><trkpt lat="45.474471425689096" lon="10.783147806666795"><ele>142.0</ele><time>2026-03-28T10:11:17Z</time></trkpt><trkpt lat="45.474552030322414" lon="10.78310923673412"><ele>142.0</ele><time>2026-03-28T10:11:18Z</time></trkpt><trkpt lat="45.474643324191895" lon="10.783069251171336"><ele>142.0</ele><time>2026-03-28T10:11:19Z</time></trkpt><trkpt lat="45.47473069203674" lon="10.783030397720177"><ele>141.6</ele><time>2026-03-28T10:11:20Z</time></trkpt><trkpt lat="45.474822022055484" lon="10.782985500959592"><ele>141.2</ele><time>2026-03-28T10:11:21Z</time></trkpt><trkpt lat="45.4749064326931" lon="10.782926285899793"><ele>140.8</ele><time>2026-03-28T10:11:22Z</time></trkpt><trkpt lat="45.474993510333505" lon="10.782849332447078"><ele>140.4</ele><time>2026-03-28T10:11:23Z</time></trkpt><trkpt lat="45.47507753409367" lon="10.78277020635424"><ele>140.0</ele><time>2026-03-28T10:11:24Z</time></trkpt><trkpt lat="45.47514672188999" lon="10.782709789220942"><ele>140.2</ele><time>2026-03-28T10:11:25Z</time></trkpt><trkpt lat="45.47521540832926" lon="10.782673348212503"><ele>140.4</ele><time>2026-03-28T10:11:26Z</time></trkpt><trkpt lat="45.475286669518084" lon="10.782590113441687"><ele>140.6</ele><time>2026-03-28T10:11:27Z</time></trkpt><trkpt lat="45.4753664224682" lon="10.782516974175099"><ele>140.8</ele><time>2026-03-28T10:11:28Z</time></trkpt><trkpt lat="45.475453550019935" lon="10.782434043449719"><ele>141.0</ele><time>2026-03-28T10:11:29Z</time></trkpt><trkpt lat="45.47554040348384" lon="10.782354165589974"><ele>140.4</ele><time>2026-03-28T10:11:30Z</time></trkpt><trkpt lat="45.4756104579202" lon="10.782283496181735"><ele>139.8</ele><time>2026-03-28T10:11:31Z</time></trkpt><trkpt lat="45.47568860792421" lon="10.782202646390182"><ele>139.20000000000002</ele><time>2026-03-28T10:11:32Z</time></trkpt><trkpt lat="45.47578481289506" lon="10.782122466406776"><ele>138.6</ele><time>2026-03-28T10:11:33Z</time></trkpt><trkpt lat="45.47586369875068" lon="10.782024783585035"><ele>138.0</ele><time>2026-03-28T10:11:34Z</time></trkpt><trkpt lat="45.47593984949925" lon="10.781920595526042"><ele>137.6</ele><time>2026-03-28T10:11:35Z</time></trkpt><trkpt lat="45.47600461035667" lon="10.78180272581807"><ele>137.20000000000002</ele><time>2026-03-28T10:11:36Z</time></trkpt><trkpt lat="45.47606258957853" lon="10.781679204464654"><ele>136.8</ele><time>2026-03-28T10:11:37Z</time></trkpt><trkpt lat="45.476127332570854" lon="10.781570062002551"><ele>136.4</ele><time>2026-03-28T10:11:38Z</time></trkpt><trkpt lat="45.47619894749811" lon="10.781503175926453"><ele>136.0</ele><time>2026-03-28T10:11:39Z</time></trkpt><trkpt lat="45.47627268419443" lon="10.781417838823424"><ele>135.6</ele><time>2026-03-28T10:11:40Z</time></trkpt><trkpt lat="45.47636828691844" lon="10.781355501574179"><ele>135.2</ele><time>2026-03-28T10:11:41Z</time></trkpt><trkpt lat="45.47646637043225" lon="10.781256919766355"><ele>134.8</ele><time>2026-03-28T10:11:42Z</time></trkpt><trkpt lat="45.47656790400209" lon="10.781200022650742"><ele>134.4</ele><time>2026-03-28T10:11:43Z</time></trkpt><trkpt lat="45.47663483446905" lon="10.781132790933917"><ele>134.0</ele><time>2026-03-28T10:11:44Z</time></trkpt><trkpt lat="45.47670187796537" lon="10.781090546306773"><ele>134.0</ele><time>2026-03-28T10:11:45Z</time></trkpt><trkpt lat="45.476792904153" lon="10.781045847765315"><ele>134.0</ele><time>2026-03-28T10:11:47Z</time></trkpt><trkpt lat="45.476864598777084" lon="10.78101943718567"><ele>134.0</ele><time>2026-03-28T10:11:49Z</time></trkpt><trkpt lat="45.47684622519178" lon="10.780889858360911"><ele>134.0</ele><time>2026-03-28T10:11:50Z</time></trkpt><trkpt lat="45.476859545143185" lon="10.780783993025581"><ele>134.0</ele><time>2026-03-28T10:11:51Z</time></trkpt><trkpt lat="45.47685954514317" lon="10.780654051225799"><ele>134.0</ele><time>2026-03-28T10:11:52Z</time></trkpt><trkpt lat="45.47685786407227" lon="10.780477799168041"><ele>134.5</ele><time>2026-03-28T10:11:53Z</time></trkpt><trkpt lat="45.47685466444285" lon="10.780296022966766"><ele>135.0</ele><time>2026-03-28T10:11:54Z</time></trkpt><trkpt lat="45.47685128770979" lon="10.78010418458875"><ele>135.5</ele><time>2026-03-28T10:11:55Z</time></trkpt><trkpt lat="45.47684981545889" lon="10.779919170093583"><ele>136.0</ele><time>2026-03-28T10:11:56Z</time></trkpt><trkpt lat="45.47684854563248" lon="10.779742165265066"><ele>136.5</ele><time>2026-03-28T10:11:57Z</time></trkpt><trkpt lat="45.476847231784326" lon="10.779564936606171"><ele>137.0</ele><time>2026-03-28T10:11:58Z</time></trkpt><trkpt lat="45.476845904270014" lon="10.779387642841694"><ele>137.5</ele><time>2026-03-28T10:11:59Z</time></trkpt><trkpt lat="45.47684450956203" lon="10.779201374509364"><ele>138.0</ele><time>2026-03-28T10:12:00Z</time></trkpt><trkpt lat="45.47684236979952" lon="10.778975002434349"><ele>138.33333333333334</ele><time>2026-03-28T10:12:01Z</time></trkpt><trkpt lat="45.47683970360072" lon="10.778753841989534"><ele>138.66666666666669</ele><time>2026-03-28T10:12:02Z</time></trkpt><trkpt lat="45.47683681898188" lon="10.778514564376511"><ele>139.0</ele><time>2026-03-28T10:12:03Z</time></trkpt><trkpt lat="45.47683408083126" lon="10.77828743555898"><ele>138.25</ele><time>2026-03-28T10:12:04Z</time></trkpt><trkpt lat="45.47683161854914" lon="10.778083189932637"><ele>137.5</ele><time>2026-03-28T10:12:05Z</time></trkpt><trkpt lat="45.476829447049155" lon="10.77790306462017"><ele>136.75</ele><time>2026-03-28T10:12:06Z</time></trkpt><trkpt lat="45.476827598248654" lon="10.777749707043206"><ele>136.0</ele><time>2026-03-28T10:12:07Z</time></trkpt><trkpt lat="45.47682593237227" lon="10.777611522974148"><ele>135.83333333333334</ele><time>2026-03-28T10:12:08Z</time></trkpt><trkpt lat="45.47682373692936" lon="10.777489250477506"><ele>135.66666666666669</ele><time>2026-03-28T10:12:09Z</time></trkpt><trkpt lat="45.476823132620524" lon="10.77738128455112"><ele>135.5</ele><time>2026-03-28T10:12:10Z</time></trkpt><trkpt lat="45.47682642328882" lon="10.777260969728621"><ele>135.33333333333334</ele><time>2026-03-28T10:12:11Z</time></trkpt><trkpt lat="45.47684133521626" lon="10.7771714292704"><ele>135.16666666666666</ele><time>2026-03-28T10:12:12Z</time></trkpt><trkpt lat="45.476893619839124" lon="10.77709453511764"><ele>135.0</ele><time>2026-03-28T10:12:13Z</time></trkpt><trkpt lat="45.47698426466982" lon="10.777067115058545"><ele>134.75</ele><time>2026-03-28T10:12:14Z</time></trkpt><trkpt lat="45.4771048966415" lon="10.777012297284692"><ele>134.5</ele><time>2026-03-28T10:12:15Z</time></trkpt><trkpt lat="45.47724215089854" lon="10.776955957426782"><ele>134.25</ele><time>2026-03-28T10:12:16Z</time></trkpt><trkpt lat="45.47737304444486" lon="10.776887956103954"><ele>134.0</ele><time>2026-03-28T10:12:17Z</time></trkpt><trkpt lat="45.477493457734774" lon="10.776857111840522"><ele>133.8</ele><time>2026-03-28T10:12:18Z</time></trkpt><trkpt lat="45.47759978976862" lon="10.776802555020792"><ele>133.60000000000002</ele><time>2026-03-28T10:12:19Z</time></trkpt><trkpt lat="45.4777088609308" lon="10.776759043116595"><ele>133.4</ele><time>2026-03-28T10:12:20Z</time></trkpt><trkpt lat="45.47780496297488" lon="10.776721792160728"><ele>133.20000000000002</ele><time>2026-03-28T10:12:21Z</time></trkpt><trkpt lat="45.47790299452218" lon="10.77672916495117"><ele>133.0</ele><time>2026-03-28T10:12:22Z</time></trkpt><trkpt lat="45.47798665551008" lon="10.776747800987183"><ele>134.33333333333334</ele><time>2026-03-28T10:12:23Z</time></trkpt><trkpt lat="45.47807574953006" lon="10.77676837960897"><ele>135.66666666666669</ele><time>2026-03-28T10:12:24Z</time></trkpt><trkpt lat="45.4781754172452" lon="10.77679472218278"><ele>137.0</ele><time>2026-03-28T10:12:25Z</time></trkpt><trkpt lat="45.4782417240787" lon="10.776809195815499"><ele>138.33333333333334</ele><time>2026-03-28T10:12:26Z</time></trkpt><trkpt lat="45.478308715816794" lon="10.776784062556166"><ele>139.66666666666666</ele><time>2026-03-28T10:12:27Z</time></trkpt><trkpt lat="45.47841027878199" lon="10.77674583745989"><ele>141.0</ele><time>2026-03-28T10:12:28Z</time></trkpt><trkpt lat="45.47851754987834" lon="10.776715097813312"><ele>141.0</ele><time>2026-03-28T10:12:29Z</time></trkpt><trkpt lat="45.47859023328925" lon="10.776682249249276"><ele>141.0</ele><time>2026-03-28T10:12:30Z</time></trkpt><trkpt lat="45.47864729927168" lon="10.77661861910937"><ele>141.0</ele><time>2026-03-28T10:12:31Z</time></trkpt><trkpt lat="45.47866896397655" lon="10.776532674770348"><ele>141.0</ele><time>2026-03-28T10:12:32Z</time></trkpt><trkpt lat="45.47871450977379" lon="10.776450538699482"><ele>141.0</ele><time>2026-03-28T10:12:33Z</time></trkpt><trkpt lat="45.4787315019447" lon="10.776351570397631"><ele>141.0</ele><time>2026-03-28T10:12:34Z</time></trkpt><trkpt lat="45.47872372925661" lon="10.776234953653184"><ele>141.0</ele><time>2026-03-28T10:12:35Z</time></trkpt><trkpt lat="45.47871543837468" lon="10.77613021893451"><ele>140.33333333333334</ele><time>2026-03-28T10:12:36Z</time></trkpt><trkpt lat="45.47872730019375" lon="10.775992728773891"><ele>139.66666666666666</ele><time>2026-03-28T10:12:38Z</time></trkpt><trkpt lat="45.47879125804996" lon="10.77592970641442"><ele>139.0</ele><time>2026-03-28T10:12:40Z</time></trkpt><trkpt lat="45.47886415023669" lon="10.77596370284259"><ele>138.33333333333331</ele><time>2026-03-28T10:12:41Z</time></trkpt><trkpt lat="45.47894992639989" lon="10.775961675583178"><ele>137.66666666666666</ele><time>2026-03-28T10:12:42Z</time></trkpt><trkpt lat="45.479036979778996" lon="10.775974363222364"><ele>137.0</ele><time>2026-03-28T10:12:43Z</time></trkpt><trkpt lat="45.47912766491687" lon="10.775985107067948"><ele>137.0</ele><time>2026-03-28T10:12:44Z</time></trkpt><trkpt lat="45.47921253894323" lon="10.775993032481898"><ele>137.0</ele><time>2026-03-28T10:12:45Z</time></trkpt><trkpt lat="45.4792856975273" lon="10.776003016404578"><ele>137.0</ele><time>2026-03-28T10:12:46Z</time></trkpt><trkpt lat="45.479394267439616" lon="10.77602094958729"><ele>137.0</ele><time>2026-03-28T10:12:48Z</time></trkpt><trkpt lat="45.479471170911204" lon="10.775934585981503"><ele>137.0</ele><time>2026-03-28T10:12:50Z</time></trkpt><trkpt lat="45.47948758330196" lon="10.7758366071487"><ele>137.0</ele><time>2026-03-28T10:12:51Z</time></trkpt><trkpt lat="45.479522214032066" lon="10.775732289003699"><ele>136.79999999999998</ele><time>2026-03-28T10:12:52Z</time></trkpt><trkpt lat="45.479542097029714" lon="10.775598889563534"><ele>136.6</ele><time>2026-03-28T10:12:53Z</time></trkpt><trkpt lat="45.47956476353321" lon="10.775454428064235"><ele>136.39999999999998</ele><time>2026-03-28T10:12:54Z</time></trkpt><trkpt lat="45.479595385333006" lon="10.77527859715398"><ele>136.2</ele><time>2026-03-28T10:12:55Z</time></trkpt><trkpt lat="45.47963632175795" lon="10.77514740808747"><ele>136.0</ele><time>2026-03-28T10:12:56Z</time></trkpt><trkpt lat="45.479691527659234" lon="10.774996644558769"><ele>135.25</ele><time>2026-03-28T10:12:57Z</time></trkpt><trkpt lat="45.47975714080533" lon="10.774817459602716"><ele>134.5</ele><time>2026-03-28T10:12:58Z</time></trkpt><trkpt lat="45.47982387109615" lon="10.774628324164686"><ele>133.75</ele><time>2026-03-28T10:12:59Z</time></trkpt><trkpt lat="45.47988839999128" lon="10.774437182016934"><ele>133.0</ele><time>2026-03-28T10:13:00Z</time></trkpt><trkpt lat="45.47994118942959" lon="10.774278850080448"><ele>133.0</ele><time>2026-03-28T10:13:01Z</time></trkpt><trkpt lat="45.480006370849864" lon="10.77408352790781"><ele>133.0</ele><time>2026-03-28T10:13:02Z</time></trkpt><trkpt lat="45.480061287988306" lon="10.773919878205058"><ele>133.0</ele><time>2026-03-28T10:13:03Z</time></trkpt><trkpt lat="45.480108367790706" lon="10.773786434451997"><ele>133.0</ele><time>2026-03-28T10:13:04Z</time></trkpt><trkpt lat="45.4801496073345" lon="10.773678883066767"><ele>133.0</ele><time>2026-03-28T10:13:05Z</time></trkpt><trkpt lat="45.48020415983398" lon="10.773590704240352"><ele>133.0</ele><time>2026-03-28T10:13:06Z</time></trkpt><trkpt lat="45.48027450836569" lon="10.773546931925498"><ele>133.0</ele><time>2026-03-28T10:13:07Z</time></trkpt><trkpt lat="45.480358641931495" lon="10.773521232356735"><ele>133.0</ele><time>2026-03-28T10:13:08Z</time></trkpt><trkpt lat="45.480465199971114" lon="10.77356611221215"><ele>133.0</ele><time>2026-03-28T10:13:09Z</time></trkpt><trkpt lat="45.4805694918288" lon="10.773608568162272"><ele>133.0</ele><time>2026-03-28T10:13:10Z</time></trkpt><trkpt lat="45.48063686671746" lon="10.773620724171275"><ele>133.0</ele><time>2026-03-28T10:13:11Z</time></trkpt><trkpt lat="45.48073593080495" lon="10.773574098044675"><ele>133.0</ele><time>2026-03-28T10:13:13Z</time></trkpt><trkpt lat="45.48077472412438" lon="10.773478715592255"><ele>133.0</ele><time>2026-03-28T10:13:14Z</time></trkpt><trkpt lat="45.480797980653215" lon="10.773356219967939"><ele>133.0</ele><time>2026-03-28T10:13:15Z</time></trkpt><trkpt lat="45.480815898670414" lon="10.773185728492944"><ele>133.0</ele><time>2026-03-28T10:13:16Z</time></trkpt><trkpt lat="45.48083809095528" lon="10.773001228744583"><ele>133.0</ele><time>2026-03-28T10:13:17Z</time></trkpt><trkpt lat="45.48085950820459" lon="10.772838595982023"><ele>133.0</ele><time>2026-03-28T10:13:18Z</time></trkpt><trkpt lat="45.4808853371715" lon="10.772713763288275"><ele>133.0</ele><time>2026-03-28T10:13:19Z</time></trkpt><trkpt lat="45.48093114292569" lon="10.77262010385814"><ele>133.0</ele><time>2026-03-28T10:13:20Z</time></trkpt><trkpt lat="45.48100257249328" lon="10.772525281522498"><ele>133.66666666666669</ele><time>2026-03-28T10:13:21Z</time></trkpt><trkpt lat="45.481098386002316" lon="10.772398902782273"><ele>134.33333333333334</ele><time>2026-03-28T10:13:22Z</time></trkpt><trkpt lat="45.481215715593265" lon="10.77224414395017"><ele>135.0</ele><time>2026-03-28T10:13:23Z</time></trkpt><trkpt lat="45.481339908022036" lon="10.772080333089587"><ele>135.0</ele><time>2026-03-28T10:13:24Z</time></trkpt><trkpt lat="45.481446735249875" lon="10.77193942705958"><ele>135.0</ele><time>2026-03-28T10:13:25Z</time></trkpt><trkpt lat="45.481529018718504" lon="10.771830158454605"><ele>135.0</ele><time>2026-03-28T10:13:26Z</time></trkpt><trkpt lat="45.48158320620751" lon="10.771730643059545"><ele>135.0</ele><time>2026-03-28T10:13:27Z</time></trkpt><trkpt lat="45.48166002409673" lon="10.771669588451928"><ele>135.0</ele><time>2026-03-28T10:13:28Z</time></trkpt><trkpt lat="45.48171269117073" lon="10.771593767930684"><ele>135.0</ele><time>2026-03-28T10:13:29Z</time></trkpt><trkpt lat="45.48176256474743" lon="10.771529511707863"><ele>135.0</ele><time>2026-03-28T10:13:30Z</time></trkpt><trkpt lat="45.48184224519443" lon="10.771450386450566"><ele>135.0</ele><time>2026-03-28T10:13:32Z</time></trkpt><trkpt lat="45.48188966694973" lon="10.771382755150972"><ele>135.0</ele><time>2026-03-28T10:13:36Z</time></trkpt><trkpt lat="45.48196670889838" lon="10.77124829040989"><ele>135.0</ele><time>2026-03-28T10:13:38Z</time></trkpt><trkpt lat="45.48203878429462" lon="10.771165668713135"><ele>135.0</ele><time>2026-03-28T10:13:39Z</time></trkpt><trkpt lat="45.48209601762902" lon="10.77108808771015"><ele>135.0</ele><time>2026-03-28T10:13:40Z</time></trkpt><trkpt lat="45.482138411677454" lon="10.770994181843012"><ele>135.0</ele><time>2026-03-28T10:13:41Z</time></trkpt><trkpt lat="45.48220811359319" lon="10.77089858237536"><ele>135.0</ele><time>2026-03-28T10:13:42Z</time></trkpt><trkpt lat="45.48228198875813" lon="10.770804045242786"><ele>135.0</ele><time>2026-03-28T10:13:43Z</time></trkpt><trkpt lat="45.482354684046385" lon="10.770698430978094"><ele>135.0</ele><time>2026-03-28T10:13:44Z</time></trkpt><trkpt lat="45.48241856118077" lon="10.770599331602323"><ele>135.0</ele><time>2026-03-28T10:13:45Z</time></trkpt><trkpt lat="45.48249063062281" lon="10.770523379457995"><ele>135.0</ele><time>2026-03-28T10:13:46Z</time></trkpt><trkpt lat="45.48253605368659" lon="10.77046114147088"><ele>135.0</ele><time>2026-03-28T10:13:47Z</time></trkpt><trkpt lat="45.48261951867325" lon="10.770353047639519"><ele>135.0</ele><time>2026-03-28T10:13:49Z</time></trkpt><trkpt lat="45.482736938593625" lon="10.770344961426392"><ele>135.0</ele><time>2026-03-28T10:13:51Z</time></trkpt><trkpt lat="45.48282733455584" lon="10.770397663475062"><ele>135.5</ele><time>2026-03-28T10:13:52Z</time></trkpt><trkpt lat="45.48293803756314" lon="10.770457326000157"><ele>136.0</ele><time>2026-03-28T10:13:53Z</time></trkpt><trkpt lat="45.48305872261595" lon="10.770517226315274"><ele>136.5</ele><time>2026-03-28T10:13:54Z</time></trkpt><trkpt lat="45.48319305279204" lon="10.770570008671957"><ele>137.0</ele><time>2026-03-28T10:13:55Z</time></trkpt><trkpt lat="45.48348020228165" lon="10.7706328562817"><ele>137.0</ele><time>2026-03-28T10:13:57Z</time></trkpt><trkpt lat="45.483612121298314" lon="10.770636583257398"><ele>137.0</ele><time>2026-03-28T10:13:58Z</time></trkpt><trkpt lat="45.48374150600113" lon="10.770643384050393"><ele>137.0</ele><time>2026-03-28T10:13:59Z</time></trkpt><trkpt lat="45.48385985967178" lon="10.770656171545566"><ele>137.0</ele><time>2026-03-28T10:14:00Z</time></trkpt><trkpt lat="45.48395625661263" lon="10.770681151288908"><ele>137.4</ele><time>2026-03-28T10:14:01Z</time></trkpt><trkpt lat="45.48405884842008" lon="10.770726730871687"><ele>137.79999999999998</ele><time>2026-03-28T10:14:02Z</time></trkpt><trkpt lat="45.4841702822628" lon="10.770783542732564"><ele>138.2</ele><time>2026-03-28T10:14:03Z</time></trkpt><trkpt lat="45.484274291321604" lon="10.770836242738511"><ele>138.6</ele><time>2026-03-28T10:14:04Z</time></trkpt><trkpt lat="45.484363344620064" lon="10.770893713701701"><ele>139.0</ele><time>2026-03-28T10:14:05Z</time></trkpt><trkpt lat="45.48444409472599" lon="10.770972733955254"><ele>138.75</ele><time>2026-03-28T10:14:06Z</time></trkpt><trkpt lat="45.484539468351784" lon="10.77108100366861"><ele>138.5</ele><time>2026-03-28T10:14:07Z</time></trkpt><trkpt lat="45.48464051506674" lon="10.771193854241199"><ele>138.25</ele><time>2026-03-28T10:14:08Z</time></trkpt><trkpt lat="45.48474043332894" lon="10.77129468998846"><ele>138.0</ele><time>2026-03-28T10:14:09Z</time></trkpt><trkpt lat="45.48484862782864" lon="10.77139563209342"><ele>137.0</ele><time>2026-03-28T10:14:10Z</time></trkpt><trkpt lat="45.484968956833164" lon="10.771440382636849"><ele>136.0</ele><time>2026-03-28T10:14:11Z</time></trkpt><trkpt lat="45.48508309545438" lon="10.7714928952908"><ele>135.0</ele><time>2026-03-28T10:14:12Z</time></trkpt><trkpt lat="45.48514626662976" lon="10.771678502042807"><ele>134.0</ele><time>2026-03-28T10:14:13Z</time></trkpt><trkpt lat="45.48522952780068" lon="10.771755075969633"><ele>134.0</ele><time>2026-03-28T10:14:14Z</time></trkpt><trkpt lat="45.48531861399765" lon="10.771844763450424"><ele>134.0</ele><time>2026-03-28T10:14:15Z</time></trkpt><trkpt lat="45.48542507455812" lon="10.771961069421108"><ele>134.0</ele><time>2026-03-28T10:14:16Z</time></trkpt><trkpt lat="45.48552816371254" lon="10.772077755255047"><ele>134.0</ele><time>2026-03-28T10:14:17Z</time></trkpt><trkpt lat="45.48561654519188" lon="10.772173553075877"><ele>134.2</ele><time>2026-03-28T10:14:18Z</time></trkpt><trkpt lat="45.4857034318897" lon="10.772261798477722"><ele>134.4</ele><time>2026-03-28T10:14:19Z</time></trkpt><trkpt lat="45.48579136301618" lon="10.772353572428095"><ele>134.6</ele><time>2026-03-28T10:14:20Z</time></trkpt><trkpt lat="45.4858836740721" lon="10.772443886533246"><ele>134.8</ele><time>2026-03-28T10:14:21Z</time></trkpt><trkpt lat="45.4859705718887" lon="10.772520367810136"><ele>135.0</ele><time>2026-03-28T10:14:22Z</time></trkpt><trkpt lat="45.486039377161475" lon="10.772581165693596"><ele>135.0</ele><time>2026-03-28T10:14:23Z</time></trkpt><trkpt lat="45.48610481157036" lon="10.772645841651824"><ele>135.0</ele><time>2026-03-28T10:14:24Z</time></trkpt><trkpt lat="45.48616840974376" lon="10.772702102236737"><ele>135.0</ele><time>2026-03-28T10:14:25Z</time></trkpt><trkpt lat="45.48623276165687" lon="10.772716538438544"><ele>135.0</ele><time>2026-03-28T10:14:26Z</time></trkpt><trkpt lat="45.486312537984986" lon="10.772800268118155"><ele>135.0</ele><time>2026-03-28T10:14:28Z</time></trkpt><trkpt lat="45.48653478772127" lon="10.773056246163366"><ele>136.0</ele><time>2026-03-28T10:14:30Z</time></trkpt><trkpt lat="45.4866566501799" lon="10.772371392940107"><ele>136.0</ele><time>2026-03-28T10:14:31Z</time></trkpt><trkpt lat="45.48678478351441" lon="10.77221698703382"><ele>136.0</ele><time>2026-03-28T10:14:32Z</time></trkpt><trkpt lat="45.486917125440776" lon="10.772047723435167"><ele>136.0</ele><time>2026-03-28T10:14:33Z</time></trkpt><trkpt lat="45.4870525188366" lon="10.771861737416273"><ele>136.0</ele><time>2026-03-28T10:14:34Z</time></trkpt><trkpt lat="45.48716955833942" lon="10.771655938336394"><ele>136.0</ele><time>2026-03-28T10:14:35Z</time></trkpt><trkpt lat="45.48726712471393" lon="10.771464332952583"><ele>136.0</ele><time>2026-03-28T10:14:36Z</time></trkpt><trkpt lat="45.487361318211086" lon="10.77128431156422"><ele>136.0</ele><time>2026-03-28T10:14:37Z</time></trkpt><trkpt lat="45.48745102023652" lon="10.771127241273362"><ele>136.0</ele><time>2026-03-28T10:14:38Z</time></trkpt><trkpt lat="45.48752970989577" lon="10.77098835262075"><ele>136.0</ele><time>2026-03-28T10:14:39Z</time></trkpt><trkpt lat="45.487601162945204" lon="10.770863497760434"><ele>136.0</ele><time>2026-03-28T10:14:40Z</time></trkpt><trkpt lat="45.48766110098532" lon="10.770751671758331"><ele>135.83333333333334</ele><time>2026-03-28T10:14:41Z</time></trkpt><trkpt lat="45.48771362823757" lon="10.770656377001837"><ele>135.66666666666669</ele><time>2026-03-28T10:14:42Z</time></trkpt><trkpt lat="45.487752842121196" lon="10.770576914110677"><ele>135.5</ele><time>2026-03-28T10:14:43Z</time></trkpt><trkpt lat="45.48783712281918" lon="10.770493610245474"><ele>135.33333333333334</ele><time>2026-03-28T10:14:45Z</time></trkpt><trkpt lat="45.487946659361505" lon="10.77051354593589"><ele>135.16666666666666</ele><time>2026-03-28T10:14:47Z</time></trkpt><trkpt lat="45.48801222276928" lon="10.77058061176454"><ele>135.0</ele><time>2026-03-28T10:14:48Z</time></trkpt><trkpt lat="45.488089612189704" lon="10.770683953228682"><ele>135.0</ele><time>2026-03-28T10:14:49Z</time></trkpt><trkpt lat="45.48816216353085" lon="10.770779514777919"><ele>135.0</ele><time>2026-03-28T10:14:50Z</time></trkpt><trkpt lat="45.488223238582364" lon="10.770851754087836"><ele>135.0</ele><time>2026-03-28T10:14:51Z</time></trkpt><trkpt lat="45.48827292669122" lon="10.770910798012528"><ele>135.0</ele><time>2026-03-28T10:14:52Z</time></trkpt><trkpt lat="45.488339225276164" lon="10.770995057275828"><ele>135.0</ele><time>2026-03-28T10:14:54Z</time></trkpt><trkpt lat="45.48839590810929" lon="10.77106804015294"><ele>135.0</ele><time>2026-03-28T10:14:57Z</time></trkpt><trkpt lat="45.48846886400162" lon="10.77111280597856"><ele>135.2</ele><time>2026-03-28T10:15:00Z</time></trkpt><trkpt lat="45.48840232926201" lon="10.771308798175431"><ele>135.4</ele><time>2026-03-28T10:15:01Z</time></trkpt><trkpt lat="45.488366949946915" lon="10.771388897930526"><ele>135.6</ele><time>2026-03-28T10:15:02Z</time></trkpt><trkpt lat="45.48833334543525" lon="10.77147560975959"><ele>135.8</ele><time>2026-03-28T10:15:03Z</time></trkpt><trkpt lat="45.488369596271696" lon="10.771616796413614"><ele>136.0</ele><time>2026-03-28T10:15:05Z</time></trkpt><trkpt lat="45.488441505377196" lon="10.77160260267925"><ele>136.0</ele><time>2026-03-28T10:15:06Z</time></trkpt><trkpt lat="45.48851955434195" lon="10.771579932804512"><ele>136.0</ele><time>2026-03-28T10:15:08Z</time></trkpt><trkpt lat="45.488559220945035" lon="10.77148118244486"><ele>136.0</ele><time>2026-03-28T10:15:09Z</time></trkpt><trkpt lat="45.48861992048134" lon="10.77136320924293"><ele>136.0</ele><time>2026-03-28T10:15:10Z</time></trkpt><trkpt lat="45.48870721088463" lon="10.771242682169229"><ele>136.0</ele><time>2026-03-28T10:15:11Z</time></trkpt><trkpt lat="45.488795174349896" lon="10.771116855686106"><ele>136.5</ele><time>2026-03-28T10:15:12Z</time></trkpt><trkpt lat="45.48888166840291" lon="10.7710078059065"><ele>137.0</ele><time>2026-03-28T10:15:13Z</time></trkpt><trkpt lat="45.488988474327506" lon="10.770923997932938"><ele>137.5</ele><time>2026-03-28T10:15:14Z</time></trkpt><trkpt lat="45.489116484920594" lon="10.770856912596866"><ele>138.0</ele><time>2026-03-28T10:15:15Z</time></trkpt><trkpt lat="45.48926053288444" lon="10.770795794746515"><ele>138.0</ele><time>2026-03-28T10:15:16Z</time></trkpt><trkpt lat="45.48941523333905" lon="10.770741291464873"><ele>138.0</ele><time>2026-03-28T10:15:17Z</time></trkpt><trkpt lat="45.48957187033451" lon="10.770689950513647"><ele>138.0</ele><time>2026-03-28T10:15:18Z</time></trkpt><trkpt lat="45.48975532376305" lon="10.770640977836248"><ele>138.0</ele><time>2026-03-28T10:15:19Z</time></trkpt><trkpt lat="45.48994494786308" lon="10.770595029801797"><ele>138.0</ele><time>2026-03-28T10:15:20Z</time></trkpt><trkpt lat="45.49014392496827" lon="10.77053801580322"><ele>138.0</ele><time>2026-03-28T10:15:21Z</time></trkpt><trkpt lat="45.49034561529819" lon="10.770484795498591"><ele>138.0</ele><time>2026-03-28T10:15:22Z</time></trkpt><trkpt lat="45.49056196455822" lon="10.770433420190484"><ele>138.0</ele><time>2026-03-28T10:15:23Z</time></trkpt><trkpt lat="45.49077876288441" lon="10.770379347265017"><ele>138.0</ele><time>2026-03-28T10:15:24Z</time></trkpt><trkpt lat="45.490988298409356" lon="10.770320357210405"><ele>138.0</ele><time>2026-03-28T10:15:25Z</time></trkpt><trkpt lat="45.49118825895711" lon="10.770252402800628"><ele>138.0</ele><time>2026-03-28T10:15:26Z</time></trkpt><trkpt lat="45.49138335433207" lon="10.770177488631044"><ele>138.0</ele><time>2026-03-28T10:15:27Z</time></trkpt><trkpt lat="45.49157945776496" lon="10.770092847630934"><ele>137.0</ele><time>2026-03-28T10:15:28Z</time></trkpt><trkpt lat="45.491774725624445" lon="10.769997094411073"><ele>136.0</ele><time>2026-03-28T10:15:29Z</time></trkpt><trkpt lat="45.4919650709396" lon="10.769892792715165"><ele>135.0</ele><time>2026-03-28T10:15:30Z</time></trkpt><trkpt lat="45.49214727036509" lon="10.769775794143202"><ele>134.33333333333334</ele><time>2026-03-28T10:15:31Z</time></trkpt><trkpt lat="45.492314997090645" lon="10.769654478770919"><ele>133.66666666666669</ele><time>2026-03-28T10:15:32Z</time></trkpt><trkpt lat="45.49247767759829" lon="10.769531876425345"><ele>133.0</ele><time>2026-03-28T10:15:33Z</time></trkpt><trkpt lat="45.492641313635886" lon="10.769411968707374"><ele>131.33333333333334</ele><time>2026-03-28T10:15:34Z</time></trkpt><trkpt lat="45.49281263244698" lon="10.769309728141879"><ele>129.66666666666666</ele><time>2026-03-28T10:15:35Z</time></trkpt><trkpt lat="45.49299915489955" lon="10.769227093612697"><ele>128.0</ele><time>2026-03-28T10:15:36Z</time></trkpt><trkpt lat="45.49319677269083" lon="10.769177563410558"><ele>127.66666666666666</ele><time>2026-03-28T10:15:37Z</time></trkpt><trkpt lat="45.49340571344745" lon="10.769145584360178"><ele>127.33333333333334</ele><time>2026-03-28T10:15:38Z</time></trkpt><trkpt lat="45.493612407622706" lon="10.76910510084202"><ele>127.0</ele><time>2026-03-28T10:15:39Z</time></trkpt><trkpt lat="45.493831975259184" lon="10.76903404082617"><ele>126.66666666666667</ele><time>2026-03-28T10:15:40Z</time></trkpt><trkpt lat="45.49404569466369" lon="10.768941499268818"><ele>126.33333333333334</ele><time>2026-03-28T10:15:41Z</time></trkpt><trkpt lat="45.49425258618273" lon="10.768837387832408"><ele>126.0</ele><time>2026-03-28T10:15:42Z</time></trkpt><trkpt lat="45.49445134755639" lon="10.768756826549499"><ele>126.5</ele><time>2026-03-28T10:15:43Z</time></trkpt><trkpt lat="45.49467290101488" lon="10.768719142425136"><ele>127.0</ele><time>2026-03-28T10:15:44Z</time></trkpt><trkpt lat="45.494900323951704" lon="10.768717980170399"><ele>127.0</ele><time>2026-03-28T10:15:45Z</time></trkpt><trkpt lat="45.49511886675501" lon="10.76872673537377"><ele>127.0</ele><time>2026-03-28T10:15:46Z</time></trkpt><trkpt lat="45.49533466068279" lon="10.768730859035715"><ele>127.0</ele><time>2026-03-28T10:15:47Z</time></trkpt><trkpt lat="45.495552701475624" lon="10.768726699550113"><ele>127.0</ele><time>2026-03-28T10:15:48Z</time></trkpt><trkpt lat="45.495757087669794" lon="10.768718901809528"><ele>127.0</ele><time>2026-03-28T10:15:49Z</time></trkpt><trkpt lat="45.495947895997865" lon="10.768713542459556"><ele>127.0</ele><time>2026-03-28T10:15:50Z</time></trkpt><trkpt lat="45.496125153355784" lon="10.76871107690959"><ele>127.25</ele><time>2026-03-28T10:15:51Z</time></trkpt><trkpt lat="45.496279561587784" lon="10.768704023339867"><ele>127.5</ele><time>2026-03-28T10:15:52Z</time></trkpt><trkpt lat="45.4964154715698" lon="10.768696430631376"><ele>127.75</ele><time>2026-03-28T10:15:53Z</time></trkpt><trkpt lat="45.49652368263383" lon="10.768696675811526"><ele>128.0</ele><time>2026-03-28T10:15:54Z</time></trkpt><trkpt lat="45.49658886026732" lon="10.768703355973726"><ele>128.0</ele><time>2026-03-28T10:15:55Z</time></trkpt><trkpt lat="45.49665250462788" lon="10.768672370948192"><ele>128.0</ele><time>2026-03-28T10:15:59Z</time></trkpt><trkpt lat="45.49659009837844" lon="10.768684291375424"><ele>128.0</ele><time>2026-03-28T10:16:02Z</time></trkpt><trkpt lat="45.49638798204245" lon="10.768659274164774"><ele>128.0</ele><time>2026-03-28T10:16:04Z</time></trkpt><trkpt lat="45.49627995379803" lon="10.768670065497389"><ele>128.0</ele><time>2026-03-28T10:16:05Z</time></trkpt><trkpt lat="45.49615612837543" lon="10.768679761786235"><ele>127.75</ele><time>2026-03-28T10:16:06Z</time></trkpt><trkpt lat="45.49602576131945" lon="10.768684673186975"><ele>127.5</ele><time>2026-03-28T10:16:07Z</time></trkpt><trkpt lat="45.495883599228634" lon="10.768687749613614"><ele>127.25</ele><time>2026-03-28T10:16:08Z</time></trkpt><trkpt lat="45.49572875476468" lon="10.768693235269696"><ele>127.0</ele><time>2026-03-28T10:16:09Z</time></trkpt><trkpt lat="45.49553878428915" lon="10.768706263128113"><ele>127.0</ele><time>2026-03-28T10:16:10Z</time></trkpt><trkpt lat="45.495328915687615" lon="10.768714454448851"><ele>127.0</ele><time>2026-03-28T10:16:11Z</time></trkpt><trkpt lat="45.495264631453665" lon="10.768709603793232"><ele>127.0</ele><time>2026-03-28T10:16:12Z</time></trkpt><trkpt lat="45.49508216616766" lon="10.768720091897023"><ele>127.0</ele><time>2026-03-28T10:16:13Z</time></trkpt><trkpt lat="45.49488958877997" lon="10.768692638275454"><ele>127.0</ele><time>2026-03-28T10:16:14Z</time></trkpt><trkpt lat="45.49469419433346" lon="10.768691191779952"><ele>127.0</ele><time>2026-03-28T10:16:15Z</time></trkpt><trkpt lat="45.49449229907012" lon="10.768698729921127"><ele>126.66666666666667</ele><time>2026-03-28T10:16:16Z</time></trkpt><trkpt lat="45.49430093215379" lon="10.768752538255876"><ele>126.33333333333334</ele><time>2026-03-28T10:16:17Z</time></trkpt><trkpt lat="45.49410217028078" lon="10.768852136358477"><ele>126.0</ele><time>2026-03-28T10:16:18Z</time></trkpt><trkpt lat="45.49388962157797" lon="10.76895586111692"><ele>126.5</ele><time>2026-03-28T10:16:19Z</time></trkpt><trkpt lat="45.49366365317527" lon="10.769042637284498"><ele>127.0</ele><time>2026-03-28T10:16:20Z</time></trkpt><trkpt lat="45.49344905211368" lon="10.76907358193559"><ele>127.0</ele><time>2026-03-28T10:16:21Z</time></trkpt><trkpt lat="45.493255990394495" lon="10.76911331916234"><ele>127.0</ele><time>2026-03-28T10:16:22Z</time></trkpt><trkpt lat="45.49308474161742" lon="10.769160684303746"><ele>127.0</ele><time>2026-03-28T10:16:23Z</time></trkpt><trkpt lat="45.49293032138928" lon="10.769226122961918"><ele>127.25</ele><time>2026-03-28T10:16:24Z</time></trkpt><trkpt lat="45.49278998459774" lon="10.769269827096906"><ele>127.5</ele><time>2026-03-28T10:16:25Z</time></trkpt><trkpt lat="45.492675735814515" lon="10.769318718595713"><ele>127.75</ele><time>2026-03-28T10:16:26Z</time></trkpt><trkpt lat="45.49259014090517" lon="10.7693777419266"><ele>128.0</ele><time>2026-03-28T10:16:27Z</time></trkpt><trkpt lat="45.49248712346613" lon="10.769476078434101"><ele>129.25</ele><time>2026-03-28T10:16:30Z</time></trkpt><trkpt lat="45.4925918342117" lon="10.769698485028423"><ele>130.5</ele><time>2026-03-28T10:16:33Z</time></trkpt><trkpt lat="45.492643739221236" lon="10.76981696723731"><ele>131.75</ele><time>2026-03-28T10:16:34Z</time></trkpt><trkpt lat="45.492717182380915" lon="10.769970467230943"><ele>133.0</ele><time>2026-03-28T10:16:35Z</time></trkpt><trkpt lat="45.492789285330396" lon="10.770121968133978"><ele>133.0</ele><time>2026-03-28T10:16:36Z</time></trkpt><trkpt lat="45.492845661618695" lon="10.770276172418317"><ele>133.0</ele><time>2026-03-28T10:16:37Z</time></trkpt><trkpt lat="45.492911056758736" lon="10.770402631203822"><ele>133.0</ele><time>2026-03-28T10:16:38Z</time></trkpt><trkpt lat="45.49296441664904" lon="10.77052005858745"><ele>133.0</ele><time>2026-03-28T10:16:39Z</time></trkpt><trkpt lat="45.49300534830482" lon="10.770651734996177"><ele>133.0</ele><time>2026-03-28T10:16:40Z</time></trkpt><trkpt lat="45.49306599123805" lon="10.770756975668535"><ele>133.0</ele><time>2026-03-28T10:16:41Z</time></trkpt><trkpt lat="45.49313005101745" lon="10.77087097026668"><ele>133.0</ele><time>2026-03-28T10:16:42Z</time></trkpt><trkpt lat="45.49318022833282" lon="10.770990400165449"><ele>133.0</ele><time>2026-03-28T10:16:43Z</time></trkpt><trkpt lat="45.49324075309594" lon="10.77108412097913"><ele>133.0</ele><time>2026-03-28T10:16:44Z</time></trkpt><trkpt lat="45.49329895858183" lon="10.771151071241855"><ele>133.0</ele><time>2026-03-28T10:16:45Z</time></trkpt><trkpt lat="45.493361313419584" lon="10.771184314489652"><ele>133.0</ele><time>2026-03-28T10:16:46Z</time></trkpt><trkpt lat="45.49344983068827" lon="10.77118896142065"><ele>134.0</ele><time>2026-03-28T10:16:47Z</time></trkpt><trkpt lat="45.493567861023976" lon="10.771180733568471"><ele>135.0</ele><time>2026-03-28T10:16:48Z</time></trkpt><trkpt lat="45.493699809104484" lon="10.771153432238478"><ele>136.0</ele><time>2026-03-28T10:16:49Z</time></trkpt><trkpt lat="45.493830361173565" lon="10.77117110501865"><ele>137.0</ele><time>2026-03-28T10:16:50Z</time></trkpt><trkpt lat="45.4939518321532" lon="10.771181907403463"><ele>137.0</ele><time>2026-03-28T10:16:51Z</time></trkpt><trkpt lat="45.4940673488443" lon="10.771176722258947"><ele>137.0</ele><time>2026-03-28T10:16:52Z</time></trkpt><trkpt lat="45.49416320961404" lon="10.771208138848"><ele>137.0</ele><time>2026-03-28T10:16:53Z</time></trkpt><trkpt lat="45.49422901816469" lon="10.771222127660787"><ele>137.0</ele><time>2026-03-28T10:16:54Z</time></trkpt><trkpt lat="45.494316644040424" lon="10.77129240568564"><ele>137.0</ele><time>2026-03-28T10:16:56Z</time></trkpt><trkpt lat="45.49433531970278" lon="10.771481191804085"><ele>137.0</ele><time>2026-03-28T10:16:58Z</time></trkpt><trkpt lat="45.49434862638906" lon="10.771627248286343"><ele>137.0</ele><time>2026-03-28T10:16:59Z</time></trkpt><trkpt lat="45.49434626466253" lon="10.771800563470984"><ele>137.0</ele><time>2026-03-28T10:17:00Z</time></trkpt><trkpt lat="45.494355570359886" lon="10.772001404166545"><ele>137.0</ele><time>2026-03-28T10:17:01Z</time></trkpt><trkpt lat="45.49435973355792" lon="10.772200108525665"><ele>137.0</ele><time>2026-03-28T10:17:02Z</time></trkpt><trkpt lat="45.494377790443544" lon="10.772406405390576"><ele>137.0</ele><time>2026-03-28T10:17:03Z</time></trkpt><trkpt lat="45.49438649739174" lon="10.772608444933459"><ele>137.0</ele><time>2026-03-28T10:17:04Z</time></trkpt><trkpt lat="45.49439598359568" lon="10.772810498629326"><ele>137.0</ele><time>2026-03-28T10:17:05Z</time></trkpt><trkpt lat="45.49441061106978" lon="10.773016013248586"><ele>137.33333333333331</ele><time>2026-03-28T10:17:06Z</time></trkpt><trkpt lat="45.49444557425761" lon="10.773237193914614"><ele>137.66666666666666</ele><time>2026-03-28T10:17:07Z</time></trkpt><trkpt lat="45.49446125299125" lon="10.773468029505587"><ele>138.0</ele><time>2026-03-28T10:17:08Z</time></trkpt><trkpt lat="45.49448165677232" lon="10.773664384218526"><ele>139.0</ele><time>2026-03-28T10:17:09Z</time></trkpt><trkpt lat="45.494489131100984" lon="10.773843324495058"><ele>140.0</ele><time>2026-03-28T10:17:10Z</time></trkpt><trkpt lat="45.49451039087085" lon="10.774016212521737"><ele>141.0</ele><time>2026-03-28T10:17:11Z</time></trkpt><trkpt lat="45.494536721874574" lon="10.774199069094408"><ele>142.0</ele><time>2026-03-28T10:17:12Z</time></trkpt><trkpt lat="45.49456295260878" lon="10.774377359658418"><ele>142.0</ele><time>2026-03-28T10:17:13Z</time></trkpt><trkpt lat="45.494591329594506" lon="10.774552622342071"><ele>142.0</ele><time>2026-03-28T10:17:14Z</time></trkpt><trkpt lat="45.49459215491359" lon="10.774708093700262"><ele>142.0</ele><time>2026-03-28T10:17:15Z</time></trkpt><trkpt lat="45.49457637198496" lon="10.774845371102563"><ele>142.0</ele><time>2026-03-28T10:17:16Z</time></trkpt><trkpt lat="45.49455326228839" lon="10.7749524767078"><ele>142.0</ele><time>2026-03-28T10:17:17Z</time></trkpt><trkpt lat="45.49453701666725" lon="10.77507721935048"><ele>143.5</ele><time>2026-03-28T10:17:18Z</time></trkpt><trkpt lat="45.494623632537916" lon="10.775247981295463"><ele>145.0</ele><time>2026-03-28T10:17:19Z</time></trkpt><trkpt lat="45.4946303012856" lon="10.775417796498889"><ele>146.5</ele><time>2026-03-28T10:17:20Z</time></trkpt><trkpt lat="45.4946408189647" lon="10.775577178155967"><ele>148.0</ele><time>2026-03-28T10:17:21Z</time></trkpt><trkpt lat="45.49464891100937" lon="10.775701263533147"><ele>148.0</ele><time>2026-03-28T10:17:22Z</time></trkpt><trkpt lat="45.49465857431627" lon="10.77582620995933"><ele>148.0</ele><time>2026-03-28T10:17:23Z</time></trkpt><trkpt lat="45.494662171622515" lon="10.775961986087111"><ele>148.0</ele><time>2026-03-28T10:17:24Z</time></trkpt><trkpt lat="45.49466836809993" lon="10.776098211757773"><ele>148.0</ele><time>2026-03-28T10:17:25Z</time></trkpt><trkpt lat="45.49467474011211" lon="10.776217572555652"><ele>148.0</ele><time>2026-03-28T10:17:26Z</time></trkpt><trkpt lat="45.49467646582496" lon="10.776320529002597"><ele>148.0</ele><time>2026-03-28T10:17:27Z</time></trkpt><trkpt lat="45.49468632654931" lon="10.776416233952244"><ele>148.33333333333334</ele><time>2026-03-28T10:17:28Z</time></trkpt><trkpt lat="45.49477922499254" lon="10.776517669726564"><ele>148.66666666666669</ele><time>2026-03-28T10:17:30Z</time></trkpt><trkpt lat="45.49484804924051" lon="10.776556739496046"><ele>149.0</ele><time>2026-03-28T10:17:31Z</time></trkpt><trkpt lat="45.49491949027072" lon="10.776627896779333"><ele>149.33333333333334</ele><time>2026-03-28T10:17:32Z</time></trkpt><trkpt lat="45.49497199170577" lon="10.776697776405479"><ele>149.66666666666666</ele><time>2026-03-28T10:17:33Z</time></trkpt><trkpt lat="45.49502912112348" lon="10.77676411993112"><ele>150.0</ele><time>2026-03-28T10:17:34Z</time></trkpt><trkpt lat="45.49509079650685" lon="10.776814225090735"><ele>149.66666666666666</ele><time>2026-03-28T10:17:35Z</time></trkpt><trkpt lat="45.49515235330768" lon="10.77685776222492"><ele>149.33333333333334</ele><time>2026-03-28T10:17:36Z</time></trkpt><trkpt lat="45.49521831353647" lon="10.77690546214106"><ele>149.0</ele><time>2026-03-28T10:17:37Z</time></trkpt><trkpt lat="45.49528194510651" lon="10.776966495132024"><ele>148.66666666666669</ele><time>2026-03-28T10:17:38Z</time></trkpt><trkpt lat="45.49535459798582" lon="10.777039526710814"><ele>148.33333333333334</ele><time>2026-03-28T10:17:39Z</time></trkpt><trkpt lat="45.49543584523323" lon="10.777127801681832"><ele>148.0</ele><time>2026-03-28T10:17:40Z</time></trkpt><trkpt lat="45.49551623414709" lon="10.777237137566047"><ele>147.6</ele><time>2026-03-28T10:17:41Z</time></trkpt><trkpt lat="45.495589843068586" lon="10.777352356463565"><ele>147.20000000000002</ele><time>2026-03-28T10:17:42Z</time></trkpt><trkpt lat="45.495646906358324" lon="10.777441995132238"><ele>146.8</ele><time>2026-03-28T10:17:43Z</time></trkpt><trkpt lat="45.49569188585995" lon="10.777543842019407"><ele>146.4</ele><time>2026-03-28T10:17:44Z</time></trkpt><trkpt lat="45.49573155649844" lon="10.777666167075925"><ele>146.0</ele><time>2026-03-28T10:17:45Z</time></trkpt><trkpt lat="45.49575848595301" lon="10.77777368350087"><ele>145.0</ele><time>2026-03-28T10:17:46Z</time></trkpt><trkpt lat="45.49579423327468" lon="10.77790967810583"><ele>144.0</ele><time>2026-03-28T10:17:48Z</time></trkpt><trkpt lat="45.49588084468972" lon="10.77797183193358"><ele>143.0</ele><time>2026-03-28T10:17:50Z</time></trkpt><trkpt lat="45.49594551003265" lon="10.777964671493107"><ele>142.0</ele><time>2026-03-28T10:17:51Z</time></trkpt><trkpt lat="45.4960231133742" lon="10.777942927259037"><ele>141.0</ele><time>2026-03-28T10:17:52Z</time></trkpt><trkpt lat="45.496082038726264" lon="10.777910124638709"><ele>140.0</ele><time>2026-03-28T10:17:53Z</time></trkpt><trkpt lat="45.496152639833866" lon="10.777868209707824"><ele>140.0</ele><time>2026-03-28T10:17:54Z</time></trkpt><trkpt lat="45.49621843003806" lon="10.777854682074555"><ele>140.0</ele><time>2026-03-28T10:17:55Z</time></trkpt><trkpt lat="45.49629374400652" lon="10.777849535283474"><ele>140.0</ele><time>2026-03-28T10:17:56Z</time></trkpt><trkpt lat="45.496367021606304" lon="10.77784337420942"><ele>140.0</ele><time>2026-03-28T10:17:57Z</time></trkpt><trkpt lat="45.4964337169839" lon="10.777845646603568"><ele>140.0</ele><time>2026-03-28T10:17:58Z</time></trkpt><trkpt lat="45.49651997233826" lon="10.777839197369955"><ele>140.0</ele><time>2026-03-28T10:17:59Z</time></trkpt><trkpt lat="45.4965858630886" lon="10.777840609136693"><ele>140.0</ele><time>2026-03-28T10:18:00Z</time></trkpt><trkpt lat="45.496693430783075" lon="10.77783076397251"><ele>139.83333333333331</ele><time>2026-03-28T10:18:02Z</time></trkpt><trkpt lat="45.49680451717405" lon="10.777860588496562"><ele>139.66666666666666</ele><time>2026-03-28T10:18:04Z</time></trkpt><trkpt lat="45.49685918970246" lon="10.77791279512616"><ele>139.5</ele><time>2026-03-28T10:18:05Z</time></trkpt><trkpt lat="45.49691423864014" lon="10.777982410681163"><ele>139.33333333333334</ele><time>2026-03-28T10:18:06Z</time></trkpt><trkpt lat="45.49697181024514" lon="10.778071214118796"><ele>139.16666666666669</ele><time>2026-03-28T10:18:07Z</time></trkpt><trkpt lat="45.49702622705388" lon="10.778143824995885"><ele>139.0</ele><time>2026-03-28T10:18:08Z</time></trkpt><trkpt lat="45.49708724242878" lon="10.778187935665638"><ele>139.2</ele><time>2026-03-28T10:18:09Z</time></trkpt><trkpt lat="45.49715170334197" lon="10.778207066296705"><ele>139.4</ele><time>2026-03-28T10:18:10Z</time></trkpt><trkpt lat="45.497227023736954" lon="10.77824746999305"><ele>139.6</ele><time>2026-03-28T10:18:12Z</time></trkpt><trkpt lat="45.49720489269119" lon="10.778424680496078"><ele>139.8</ele><time>2026-03-28T10:18:15Z</time></trkpt><trkpt lat="45.497170813149005" lon="10.778554519408278"><ele>140.0</ele><time>2026-03-28T10:18:16Z</time></trkpt><trkpt lat="45.4971392946913" lon="10.77871041480028"><ele>140.0</ele><time>2026-03-28T10:18:17Z</time></trkpt><trkpt lat="45.4971010792559" lon="10.778902155799116"><ele>140.0</ele><time>2026-03-28T10:18:18Z</time></trkpt><trkpt lat="45.497064833158696" lon="10.779106949660031"><ele>140.0</ele><time>2026-03-28T10:18:19Z</time></trkpt><trkpt lat="45.49702738715649" lon="10.779296685243942"><ele>140.0</ele><time>2026-03-28T10:18:20Z</time></trkpt><trkpt lat="45.49699899741487" lon="10.779501542432195"><ele>138.33333333333331</ele><time>2026-03-28T10:18:21Z</time></trkpt><trkpt lat="45.49697844886373" lon="10.779718682533758"><ele>136.66666666666666</ele><time>2026-03-28T10:18:22Z</time></trkpt><trkpt lat="45.49696368355269" lon="10.779950253681722"><ele>135.0</ele><time>2026-03-28T10:18:23Z</time></trkpt><trkpt lat="45.49695785599601" lon="10.780168888094362"><ele>135.0</ele><time>2026-03-28T10:18:24Z</time></trkpt><trkpt lat="45.49695867821314" lon="10.780374584423358"><ele>135.0</ele><time>2026-03-28T10:18:25Z</time></trkpt><trkpt lat="45.49695877914638" lon="10.780539173577534"><ele>135.0</ele><time>2026-03-28T10:18:26Z</time></trkpt><trkpt lat="45.49694674453192" lon="10.780677854642947"><ele>135.0</ele><time>2026-03-28T10:18:27Z</time></trkpt><trkpt lat="45.496920781161734" lon="10.780795467250682"><ele>135.0</ele><time>2026-03-28T10:18:28Z</time></trkpt><trkpt lat="45.49687498797227" lon="10.780885317821836"><ele>135.0</ele><time>2026-03-28T10:18:29Z</time></trkpt><trkpt lat="45.496833263164866" lon="10.780963654344848"><ele>135.0</ele><time>2026-03-28T10:18:30Z</time></trkpt><trkpt lat="45.49682644794839" lon="10.781101608547285"><ele>135.0</ele><time>2026-03-28T10:18:32Z</time></trkpt><trkpt lat="45.49691322756494" lon="10.781183318761368"><ele>135.0</ele><time>2026-03-28T10:18:34Z</time></trkpt><trkpt lat="45.49702959375639" lon="10.781169836688164"><ele>135.0</ele><time>2026-03-28T10:18:36Z</time></trkpt><trkpt lat="45.497101941847085" lon="10.781164127793796"><ele>136.5</ele><time>2026-03-28T10:18:37Z</time></trkpt><trkpt lat="45.49718653756559" lon="10.781168016061196"><ele>138.0</ele><time>2026-03-28T10:18:38Z</time></trkpt><trkpt lat="45.49729468250322" lon="10.78117719196277"><ele>139.5</ele><time>2026-03-28T10:18:39Z</time></trkpt><trkpt lat="45.49741838979447" lon="10.78117786702383"><ele>141.0</ele><time>2026-03-28T10:18:40Z</time></trkpt><trkpt lat="45.49755319740463" lon="10.7811762490616"><ele>141.0</ele><time>2026-03-28T10:18:41Z</time></trkpt><trkpt lat="45.49768294199031" lon="10.781184810251085"><ele>141.0</ele><time>2026-03-28T10:18:42Z</time></trkpt><trkpt lat="45.49778702238016" lon="10.781197629856877"><ele>141.0</ele><time>2026-03-28T10:18:43Z</time></trkpt><trkpt lat="45.497859173167626" lon="10.781210492617841"><ele>141.0</ele><time>2026-03-28T10:18:44Z</time></trkpt><trkpt lat="45.49793234371924" lon="10.7813164909704"><ele>141.0</ele><time>2026-03-28T10:18:46Z</time></trkpt><trkpt lat="45.49792887756151" lon="10.781467190434514"><ele>143.75</ele><time>2026-03-28T10:18:47Z</time></trkpt><trkpt lat="45.49793155292092" lon="10.781629391415965"><ele>146.5</ele><time>2026-03-28T10:18:48Z</time></trkpt><trkpt lat="45.49793083531011" lon="10.781801443580207"><ele>149.25</ele><time>2026-03-28T10:18:49Z</time></trkpt><trkpt lat="45.49793777668399" lon="10.782000057921268"><ele>152.0</ele><time>2026-03-28T10:18:50Z</time></trkpt><trkpt lat="45.49795091804499" lon="10.782165858834915"><ele>152.4</ele><time>2026-03-28T10:18:51Z</time></trkpt><trkpt lat="45.497957422455144" lon="10.782298961120537"><ele>152.79999999999998</ele><time>2026-03-28T10:18:52Z</time></trkpt><trkpt lat="45.497966476648045" lon="10.782412033090955"><ele>153.2</ele><time>2026-03-28T10:18:53Z</time></trkpt><trkpt lat="45.49797835387203" lon="10.7825396718167"><ele>153.6</ele><time>2026-03-28T10:18:54Z</time></trkpt><trkpt lat="45.49799346932052" lon="10.782681670210264"><ele>154.0</ele><time>2026-03-28T10:18:55Z</time></trkpt><trkpt lat="45.49801474795626" lon="10.782828559952673"><ele>154.0</ele><time>2026-03-28T10:18:56Z</time></trkpt><trkpt lat="45.49802960002968" lon="10.782986594227907"><ele>154.0</ele><time>2026-03-28T10:18:57Z</time></trkpt><trkpt lat="45.49804017702073" lon="10.783132083110063"><ele>154.0</ele><time>2026-03-28T10:18:58Z</time></trkpt><trkpt lat="45.498061900328274" lon="10.783270898090493"><ele>154.0</ele><time>2026-03-28T10:18:59Z</time></trkpt><trkpt lat="45.49811299216292" lon="10.78339740833141"><ele>154.0</ele><time>2026-03-28T10:19:00Z</time></trkpt><trkpt lat="45.49817913472364" lon="10.783535374402836"><ele>154.33333333333334</ele><time>2026-03-28T10:19:01Z</time></trkpt><trkpt lat="45.49821235053524" lon="10.783677512314771"><ele>154.66666666666669</ele><time>2026-03-28T10:19:02Z</time></trkpt><trkpt lat="45.49821195187727" lon="10.783817284070922"><ele>155.0</ele><time>2026-03-28T10:19:03Z</time></trkpt><trkpt lat="45.49819574400941" lon="10.783924245371251"><ele>155.33333333333334</ele><time>2026-03-28T10:19:04Z</time></trkpt><trkpt lat="45.4981730745653" lon="10.78405240120336"><ele>155.66666666666666</ele><time>2026-03-28T10:19:06Z</time></trkpt><trkpt lat="45.49818373515143" lon="10.784141007377782"><ele>156.0</ele><time>2026-03-28T10:19:08Z</time></trkpt><trkpt lat="45.49829666691126" lon="10.784140603361504"><ele>156.0</ele><time>2026-03-28T10:19:09Z</time></trkpt><trkpt lat="45.49840451802709" lon="10.784128874939155"><ele>156.0</ele><time>2026-03-28T10:19:10Z</time></trkpt><trkpt lat="45.4985391489844" lon="10.78411587872464"><ele>156.0</ele><time>2026-03-28T10:19:11Z</time></trkpt><trkpt lat="45.498676005731745" lon="10.784115310679576"><ele>156.0</ele><time>2026-03-28T10:19:12Z</time></trkpt><trkpt lat="45.49879538030803" lon="10.784127799252467"><ele>156.2</ele><time>2026-03-28T10:19:13Z</time></trkpt><trkpt lat="45.49889963211517" lon="10.784136083721593"><ele>156.39999999999998</ele><time>2026-03-28T10:19:14Z</time></trkpt><trkpt lat="45.49899670142019" lon="10.784152249273776"><ele>156.6</ele><time>2026-03-28T10:19:15Z</time></trkpt><trkpt lat="45.49909465126953" lon="10.784145928165424"><ele>156.79999999999998</ele><time>2026-03-28T10:19:16Z</time></trkpt><trkpt lat="45.49919590651915" lon="10.784150416470634"><ele>157.0</ele><time>2026-03-28T10:19:17Z</time></trkpt><trkpt lat="45.49928479273504" lon="10.78413430462027"><ele>157.0</ele><time>2026-03-28T10:19:18Z</time></trkpt><trkpt lat="45.49936281172952" lon="10.784124520622038"><ele>157.0</ele><time>2026-03-28T10:19:19Z</time></trkpt><trkpt lat="45.4994421549183" lon="10.784117900851903"><ele>157.0</ele><time>2026-03-28T10:19:20Z</time></trkpt><trkpt lat="45.499517847387196" lon="10.784113317685536"><ele>157.0</ele><time>2026-03-28T10:19:21Z</time></trkpt><trkpt lat="45.49959395319867" lon="10.78412003759411"><ele>157.0</ele><time>2026-03-28T10:19:22Z</time></trkpt><trkpt lat="45.499670258866324" lon="10.784077235902442"><ele>157.0</ele><time>2026-03-28T10:19:23Z</time></trkpt><trkpt lat="45.49974080211551" lon="10.78398573291812"><ele>157.33333333333334</ele><time>2026-03-28T10:19:24Z</time></trkpt><trkpt lat="45.499814803856744" lon="10.783912140554124"><ele>157.66666666666669</ele><time>2026-03-28T10:19:25Z</time></trkpt><trkpt lat="45.49989000255253" lon="10.783846892071143"><ele>158.0</ele><time>2026-03-28T10:19:26Z</time></trkpt><trkpt lat="45.499962745307954" lon="10.783792147427611"><ele>158.33333333333334</ele><time>2026-03-28T10:19:27Z</time></trkpt><trkpt lat="45.500025279344094" lon="10.783719508567176"><ele>158.66666666666666</ele><time>2026-03-28T10:19:28Z</time></trkpt><trkpt lat="45.50008421438709" lon="10.783676613339061"><ele>159.0</ele><time>2026-03-28T10:19:29Z</time></trkpt><trkpt lat="45.50014961138013" lon="10.783642065830406"><ele>159.0</ele><time>2026-03-28T10:19:30Z</time></trkpt><trkpt lat="45.50020748021247" lon="10.783590047843028"><ele>159.0</ele><time>2026-03-28T10:19:31Z</time></trkpt><trkpt lat="45.500259978643214" lon="10.783535837700338"><ele>159.0</ele><time>2026-03-28T10:19:32Z</time></trkpt><trkpt lat="45.50030724127062" lon="10.783468146681091"><ele>159.0</ele><time>2026-03-28T10:19:33Z</time></trkpt><trkpt lat="45.500346270720534" lon="10.783382003577085"><ele>159.0</ele><time>2026-03-28T10:19:34Z</time></trkpt><trkpt lat="45.50038601834685" lon="10.783298510935309"><ele>159.0</ele><time>2026-03-28T10:19:35Z</time></trkpt><trkpt lat="45.500417839951254" lon="10.783200757181751"><ele>159.0</ele><time>2026-03-28T10:19:36Z</time></trkpt><trkpt lat="45.50045128839269" lon="10.783118070820576"><ele>159.16666666666666</ele><time>2026-03-28T10:19:37Z</time></trkpt><trkpt lat="45.50050265657822" lon="10.78305839597391"><ele>159.33333333333334</ele><time>2026-03-28T10:19:38Z</time></trkpt><trkpt lat="45.50054664527708" lon="10.782978063837561"><ele>159.5</ele><time>2026-03-28T10:19:39Z</time></trkpt><trkpt lat="45.500577295388176" lon="10.782894608447613"><ele>159.66666666666669</ele><time>2026-03-28T10:19:40Z</time></trkpt><trkpt lat="45.5006786062557" lon="10.782813621797297"><ele>159.83333333333334</ele><time>2026-03-28T10:19:42Z</time></trkpt><trkpt lat="45.50079814048243" lon="10.782804318953566"><ele>160.0</ele><time>2026-03-28T10:19:44Z</time></trkpt><trkpt lat="45.500872679490406" lon="10.782793533698122"><ele>160.0</ele><time>2026-03-28T10:19:45Z</time></trkpt><trkpt lat="45.50096143837552" lon="10.782781776289092"><ele>160.0</ele><time>2026-03-28T10:19:46Z</time></trkpt><trkpt lat="45.501067513747266" lon="10.782767905335406"><ele>160.0</ele><time>2026-03-28T10:19:47Z</time></trkpt><trkpt lat="45.501183631223114" lon="10.782728368517905"><ele>160.0</ele><time>2026-03-28T10:19:48Z</time></trkpt><trkpt lat="45.501274373275486" lon="10.782714324124045"><ele>160.0</ele><time>2026-03-28T10:19:49Z</time></trkpt><trkpt lat="45.50136425333229" lon="10.782701147342818"><ele>160.16666666666669</ele><time>2026-03-28T10:19:50Z</time></trkpt><trkpt lat="45.50145601212347" lon="10.782674228983698"><ele>160.33333333333334</ele><time>2026-03-28T10:19:51Z</time></trkpt><trkpt lat="45.5015445054976" lon="10.782654654641819"><ele>160.5</ele><time>2026-03-28T10:19:52Z</time></trkpt><trkpt lat="45.501621195511404" lon="10.782671878150284"><ele>160.66666666666666</ele><time>2026-03-28T10:19:53Z</time></trkpt><trkpt lat="45.50170660260924" lon="10.782688161957113"><ele>160.83333333333331</ele><time>2026-03-28T10:19:54Z</time></trkpt><trkpt lat="45.50179903624187" lon="10.78270236592285"><ele>161.0</ele><time>2026-03-28T10:19:55Z</time></trkpt><trkpt lat="45.50188145185941" lon="10.782734251406803"><ele>161.0</ele><time>2026-03-28T10:19:56Z</time></trkpt><trkpt lat="45.501956076633995" lon="10.782780060959675"><ele>161.0</ele><time>2026-03-28T10:19:57Z</time></trkpt><trkpt lat="45.50204545073213" lon="10.782825259347925"><ele>161.0</ele><time>2026-03-28T10:19:58Z</time></trkpt><trkpt lat="45.50212309200708" lon="10.782883728454577"><ele>161.0</ele><time>2026-03-28T10:19:59Z</time></trkpt><trkpt lat="45.50219961590041" lon="10.782913519965527"><ele>161.0</ele><time>2026-03-28T10:20:00Z</time></trkpt><trkpt lat="45.50226388825289" lon="10.782975010704819"><ele>161.0</ele><time>2026-03-28T10:20:01Z</time></trkpt><trkpt lat="45.502333057474985" lon="10.78298085436168"><ele>160.0</ele><time>2026-03-28T10:20:02Z</time></trkpt><trkpt lat="45.502489303134446" lon="10.782965037105935"><ele>159.0</ele><time>2026-03-28T10:20:04Z</time></trkpt><trkpt lat="45.50259417710399" lon="10.782957702592423"><ele>158.0</ele><time>2026-03-28T10:20:05Z</time></trkpt><trkpt lat="45.50268458475981" lon="10.782948315508564"><ele>157.0</ele><time>2026-03-28T10:20:06Z</time></trkpt><trkpt lat="45.50275248631483" lon="10.782942142072434"><ele>156.0</ele><time>2026-03-28T10:20:07Z</time></trkpt><trkpt lat="45.50282795364574" lon="10.782944196922543"><ele>156.0</ele><time>2026-03-28T10:20:08Z</time></trkpt><trkpt lat="45.502893504888924" lon="10.782982270418449"><ele>156.0</ele><time>2026-03-28T10:20:09Z</time></trkpt><trkpt lat="45.50296611179292" lon="10.78301656617564"><ele>156.0</ele><time>2026-03-28T10:20:10Z</time></trkpt><trkpt lat="45.503034210970114" lon="10.783025010046275"><ele>156.0</ele><time>2026-03-28T10:20:11Z</time></trkpt><trkpt lat="45.503108902392476" lon="10.783033860092646"><ele>156.0</ele><time>2026-03-28T10:20:12Z</time></trkpt><trkpt lat="45.50320127675365" lon="10.783029171112048"><ele>156.0</ele><time>2026-03-28T10:20:13Z</time></trkpt><trkpt lat="45.503300170574434" lon="10.783030173421778"><ele>156.0</ele><time>2026-03-28T10:20:14Z</time></trkpt><trkpt lat="45.50340597261187" lon="10.783067895633822"><ele>156.0</ele><time>2026-03-28T10:20:15Z</time></trkpt><trkpt lat="45.503474602833535" lon="10.783092137588632"><ele>156.0</ele><time>2026-03-28T10:20:16Z</time></trkpt><trkpt lat="45.50355628963938" lon="10.783107988622673"><ele>156.0</ele><time>2026-03-28T10:20:17Z</time></trkpt><trkpt lat="45.50364969568661" lon="10.783095554604404"><ele>156.0</ele><time>2026-03-28T10:20:18Z</time></trkpt><trkpt lat="45.50373649813687" lon="10.783070079721725"><ele>156.0</ele><time>2026-03-28T10:20:19Z</time></trkpt><trkpt lat="45.503835204683355" lon="10.783060418566135"><ele>156.0</ele><time>2026-03-28T10:20:20Z</time></trkpt><trkpt lat="45.50393857197971" lon="10.783044495005537"><ele>156.0</ele><time>2026-03-28T10:20:21Z</time></trkpt><trkpt lat="45.504049123645686" lon="10.783031790845296"><ele>156.0</ele><time>2026-03-28T10:20:22Z</time></trkpt><trkpt lat="45.50415991719261" lon="10.783019058886932"><ele>156.0</ele><time>2026-03-28T10:20:23Z</time></trkpt><trkpt lat="45.50425845497681" lon="10.7829830071175"><ele>156.0</ele><time>2026-03-28T10:20:24Z</time></trkpt><trkpt lat="45.504352165627864" lon="10.782973138526597"><ele>156.0</ele><time>2026-03-28T10:20:25Z</time></trkpt><trkpt lat="45.504424461696814" lon="10.782987338478906"><ele>156.0</ele><time>2026-03-28T10:20:26Z</time></trkpt><trkpt lat="45.50453376719555" lon="10.783021772374495"><ele>156.0</ele><time>2026-03-28T10:20:28Z</time></trkpt><trkpt lat="45.50458489766675" lon="10.78309108711636"><ele>156.0</ele><time>2026-03-28T10:20:29Z</time></trkpt><trkpt lat="45.50464651577573" lon="10.783125495771221"><ele>156.0</ele><time>2026-03-28T10:20:30Z</time></trkpt><trkpt lat="45.504717727039804" lon="10.783184432690812"><ele>156.0</ele><time>2026-03-28T10:20:31Z</time></trkpt><trkpt lat="45.50478214204086" lon="10.78319982045247"><ele>155.33333333333334</ele><time>2026-03-28T10:20:32Z</time></trkpt><trkpt lat="45.504848967414624" lon="10.78320336548072"><ele>154.66666666666666</ele><time>2026-03-28T10:20:33Z</time></trkpt><trkpt lat="45.504915159264435" lon="10.783195290701475"><ele>154.0</ele><time>2026-03-28T10:20:34Z</time></trkpt><trkpt lat="45.50498948220374" lon="10.783176150207494"><ele>153.33333333333331</ele><time>2026-03-28T10:20:35Z</time></trkpt><trkpt lat="45.50509670168943" lon="10.783172301839958"><ele>152.66666666666666</ele><time>2026-03-28T10:20:37Z</time></trkpt><trkpt lat="45.50516870978955" lon="10.783215432203345"><ele>152.0</ele><time>2026-03-28T10:20:39Z</time></trkpt><trkpt lat="45.50520677624536" lon="10.783329232633083"><ele>152.0</ele><time>2026-03-28T10:20:42Z</time></trkpt><trkpt lat="45.5051912716705" lon="10.783488157963383"><ele>152.0</ele><time>2026-03-28T10:20:44Z</time></trkpt><trkpt lat="45.50518683574342" lon="10.78360915401866"><ele>152.0</ele><time>2026-03-28T10:20:45Z</time></trkpt><trkpt lat="45.50519651508211" lon="10.783745219067718"><ele>152.0</ele><time>2026-03-28T10:20:46Z</time></trkpt><trkpt lat="45.50521254253482" lon="10.783892398736572"><ele>152.0</ele><time>2026-03-28T10:20:47Z</time></trkpt><trkpt lat="45.505228777188314" lon="10.784018322320684"><ele>151.79999999999998</ele><time>2026-03-28T10:20:48Z</time></trkpt><trkpt lat="45.50521065496907" lon="10.784114321796455"><ele>151.6</ele><time>2026-03-28T10:20:49Z</time></trkpt><trkpt lat="45.505212213828024" lon="10.784305735134158"><ele>151.39999999999998</ele><time>2026-03-28T10:20:51Z</time></trkpt><trkpt lat="45.50522292285914" lon="10.784395771652392"><ele>151.2</ele><time>2026-03-28T10:20:52Z</time></trkpt><trkpt lat="45.50528368777249" lon="10.784503487997451"><ele>151.0</ele><time>2026-03-28T10:20:53Z</time></trkpt><trkpt lat="45.50530960297452" lon="10.78464055220492"><ele>150.8</ele><time>2026-03-28T10:27:43Z</time></trkpt><trkpt lat="45.50531823223495" lon="10.784735387859893"><ele>150.6</ele><time>2026-03-28T10:27:44Z</time></trkpt><trkpt lat="45.50533434353818" lon="10.78485277646226"><ele>150.4</ele><time>2026-03-28T10:27:45Z</time></trkpt><trkpt lat="45.50534922020545" lon="10.784983157949851"><ele>150.2</ele><time>2026-03-28T10:27:46Z</time></trkpt><trkpt lat="45.5053795007027" lon="10.785147431650236"><ele>150.0</ele><time>2026-03-28T10:27:47Z</time></trkpt><trkpt lat="45.50539147840799" lon="10.785321617524264"><ele>149.75</ele><time>2026-03-28T10:27:48Z</time></trkpt><trkpt lat="45.505417089216955" lon="10.785521335557576"><ele>149.5</ele><time>2026-03-28T10:27:49Z</time></trkpt><trkpt lat="45.50544151605138" lon="10.785727437703887"><ele>149.25</ele><time>2026-03-28T10:27:50Z</time></trkpt><trkpt lat="45.50546629716638" lon="10.785947881612312"><ele>149.0</ele><time>2026-03-28T10:27:51Z</time></trkpt><trkpt lat="45.50549002149861" lon="10.786164651592923"><ele>148.66666666666666</ele><time>2026-03-28T10:27:52Z</time></trkpt><trkpt lat="45.50551705386862" lon="10.78640179770901"><ele>148.33333333333334</ele><time>2026-03-28T10:27:53Z</time></trkpt><trkpt lat="45.50553912251039" lon="10.786609683767626"><ele>148.0</ele><time>2026-03-28T10:27:54Z</time></trkpt><trkpt lat="45.505572989487916" lon="10.786841474446046"><ele>147.0</ele><time>2026-03-28T10:27:55Z</time></trkpt><trkpt lat="45.50560414628332" lon="10.787069499449506"><ele>146.0</ele><time>2026-03-28T10:27:56Z</time></trkpt><trkpt lat="45.505631891449305" lon="10.787288930459601"><ele>145.0</ele><time>2026-03-28T10:27:57Z</time></trkpt><trkpt lat="45.50565561920209" lon="10.787487120227128"><ele>145.25</ele><time>2026-03-28T10:27:58Z</time></trkpt><trkpt lat="45.50567705249291" lon="10.787678662409682"><ele>145.5</ele><time>2026-03-28T10:27:59Z</time></trkpt><trkpt lat="45.50569539465509" lon="10.787852069964892"><ele>145.75</ele><time>2026-03-28T10:28:00Z</time></trkpt><trkpt lat="45.505714337020635" lon="10.788010683548324"><ele>146.0</ele><time>2026-03-28T10:28:01Z</time></trkpt><trkpt lat="45.50572973751199" lon="10.788161053948597"><ele>146.0</ele><time>2026-03-28T10:28:02Z</time></trkpt><trkpt lat="45.50574724253233" lon="10.78829850358033"><ele>146.0</ele><time>2026-03-28T10:28:03Z</time></trkpt><trkpt lat="45.50577140974495" lon="10.788422684664168"><ele>146.0</ele><time>2026-03-28T10:28:04Z</time></trkpt><trkpt lat="45.50585879108711" lon="10.788530135340435"><ele>146.0</ele><time>2026-03-28T10:28:05Z</time></trkpt><trkpt lat="45.505906354250634" lon="10.788679249020406"><ele>146.0</ele><time>2026-03-28T10:28:06Z</time></trkpt><trkpt lat="45.50593246429777" lon="10.788821282546259"><ele>145.75</ele><time>2026-03-28T10:28:07Z</time></trkpt><trkpt lat="45.50595870192102" lon="10.78894557086192"><ele>145.5</ele><time>2026-03-28T10:28:08Z</time></trkpt><trkpt lat="45.50599491627267" lon="10.789103650223653"><ele>145.25</ele><time>2026-03-28T10:28:09Z</time></trkpt><trkpt lat="45.5060386528137" lon="10.789262771770892"><ele>145.0</ele><time>2026-03-28T10:28:10Z</time></trkpt><trkpt lat="45.506079604920025" lon="10.789428598540946"><ele>145.6</ele><time>2026-03-28T10:28:11Z</time></trkpt><trkpt lat="45.50611943729018" lon="10.789574334071327"><ele>146.2</ele><time>2026-03-28T10:28:12Z</time></trkpt><trkpt lat="45.50614242281047" lon="10.789709502293766"><ele>146.8</ele><time>2026-03-28T10:28:13Z</time></trkpt><trkpt lat="45.5061676062439" lon="10.789824272884294"><ele>147.4</ele><time>2026-03-28T10:28:14Z</time></trkpt><trkpt lat="45.50618915786042" lon="10.789937467876115"><ele>148.0</ele><time>2026-03-28T10:28:15Z</time></trkpt><trkpt lat="45.506217339907465" lon="10.790066287163384"><ele>148.0</ele><time>2026-03-28T10:28:16Z</time></trkpt><trkpt lat="45.50624283959503" lon="10.790219816626106"><ele>148.0</ele><time>2026-03-28T10:28:17Z</time></trkpt><trkpt lat="45.50624547077289" lon="10.790372866145075"><ele>148.0</ele><time>2026-03-28T10:28:18Z</time></trkpt><trkpt lat="45.50627648817129" lon="10.790548797629448"><ele>148.0</ele><time>2026-03-28T10:28:19Z</time></trkpt><trkpt lat="45.506289923703115" lon="10.79068559148885"><ele>148.0</ele><time>2026-03-28T10:28:20Z</time></trkpt><trkpt lat="45.50628591908469" lon="10.790808482895095"><ele>148.0</ele><time>2026-03-28T10:28:21Z</time></trkpt><trkpt lat="45.506298826853154" lon="10.790952018448923"><ele>148.0</ele><time>2026-03-28T10:28:22Z</time></trkpt><trkpt lat="45.506311071036805" lon="10.791107404418357"><ele>148.0</ele><time>2026-03-28T10:28:23Z</time></trkpt><trkpt lat="45.50632219190917" lon="10.791272907043265"><ele>148.0</ele><time>2026-03-28T10:28:24Z</time></trkpt><trkpt lat="45.50634639585829" lon="10.79143535969455"><ele>148.0</ele><time>2026-03-28T10:28:25Z</time></trkpt><trkpt lat="45.50636051730662" lon="10.791586461965554"><ele>148.20000000000002</ele><time>2026-03-28T10:28:26Z</time></trkpt><trkpt lat="45.506369484570925" lon="10.791713897489087"><ele>148.4</ele><time>2026-03-28T10:28:27Z</time></trkpt><trkpt lat="45.506379446801006" lon="10.791836062018003"><ele>148.60000000000002</ele><time>2026-03-28T10:28:28Z</time></trkpt><trkpt lat="45.50640412513481" lon="10.79197798089159"><ele>148.8</ele><time>2026-03-28T10:28:29Z</time></trkpt><trkpt lat="45.50643687726805" lon="10.792124931080235"><ele>149.0</ele><time>2026-03-28T10:28:30Z</time></trkpt><trkpt lat="45.50645871940242" lon="10.792261091222809"><ele>149.0</ele><time>2026-03-28T10:28:31Z</time></trkpt><trkpt lat="45.50649626864975" lon="10.792429913992184"><ele>149.0</ele><time>2026-03-28T10:28:32Z</time></trkpt><trkpt lat="45.50654428761687" lon="10.792578180905771"><ele>149.0</ele><time>2026-03-28T10:28:33Z</time></trkpt><trkpt lat="45.50656211984404" lon="10.792717180470776"><ele>149.0</ele><time>2026-03-28T10:28:34Z</time></trkpt><trkpt lat="45.50660036239926" lon="10.792806198710016"><ele>149.0</ele><time>2026-03-28T10:28:35Z</time></trkpt><trkpt lat="45.50660211319117" lon="10.792904723453015"><ele>149.2</ele><time>2026-03-28T10:28:36Z</time></trkpt><trkpt lat="45.506618577461786" lon="10.793055650628823"><ele>149.4</ele><time>2026-03-28T10:28:38Z</time></trkpt><trkpt lat="45.50662075498404" lon="10.793244522543636"><ele>149.6</ele><time>2026-03-28T10:28:40Z</time></trkpt><trkpt lat="45.5066321827282" lon="10.793368947105295"><ele>149.8</ele><time>2026-03-28T10:28:41Z</time></trkpt><trkpt lat="45.50662436612846" lon="10.79351374674346"><ele>150.0</ele><time>2026-03-28T10:28:42Z</time></trkpt><trkpt lat="45.50662440187643" lon="10.793654724692582"><ele>150.4</ele><time>2026-03-28T10:28:43Z</time></trkpt><trkpt lat="45.50661797263344" lon="10.793800054425283"><ele>150.8</ele><time>2026-03-28T10:28:44Z</time></trkpt><trkpt lat="45.506606682842694" lon="10.793948069528298"><ele>151.2</ele><time>2026-03-28T10:28:45Z</time></trkpt><trkpt lat="45.5065828333623" lon="10.794082594333668"><ele>151.6</ele><time>2026-03-28T10:28:46Z</time></trkpt><trkpt lat="45.506586723772266" lon="10.794201799126402"><ele>152.0</ele><time>2026-03-28T10:28:47Z</time></trkpt><trkpt lat="45.506576146431584" lon="10.79432349800301"><ele>151.79999999999998</ele><time>2026-03-28T10:28:48Z</time></trkpt><trkpt lat="45.50656662276485" lon="10.79445674269554"><ele>151.6</ele><time>2026-03-28T10:28:49Z</time></trkpt><trkpt lat="45.50654368259202" lon="10.794599161513469"><ele>151.39999999999998</ele><time>2026-03-28T10:28:50Z</time></trkpt><trkpt lat="45.506549235879895" lon="10.79472912088501"><ele>151.2</ele><time>2026-03-28T10:28:51Z</time></trkpt><trkpt lat="45.5065428292426" lon="10.794850961665219"><ele>151.0</ele><time>2026-03-28T10:28:52Z</time></trkpt><trkpt lat="45.5065310371149" lon="10.794995841729898"><ele>151.0</ele><time>2026-03-28T10:28:54Z</time></trkpt><trkpt lat="45.506542958698795" lon="10.795093385189281"><ele>151.0</ele><time>2026-03-28T10:28:57Z</time></trkpt><trkpt lat="45.50652677354163" lon="10.795202091179938"><ele>151.0</ele><time>2026-03-28T10:29:22Z</time></trkpt><trkpt lat="45.50663521413295" lon="10.79538494900458"><ele>151.0</ele><time>2026-03-28T10:29:24Z</time></trkpt><trkpt lat="45.50668713764768" lon="10.795457654650294"><ele>151.0</ele><time>2026-03-28T10:29:25Z</time></trkpt><trkpt lat="45.50675457698148" lon="10.795482003710003"><ele>151.0</ele><time>2026-03-28T10:29:26Z</time></trkpt><trkpt lat="45.50682429479067" lon="10.795466189559088"><ele>151.0</ele><time>2026-03-28T10:29:27Z</time></trkpt><trkpt lat="45.50688714700317" lon="10.79539996485259"><ele>151.0</ele><time>2026-03-28T10:29:28Z</time></trkpt><trkpt lat="45.50692019748488" lon="10.795293908479842"><ele>151.0</ele><time>2026-03-28T10:29:29Z</time></trkpt><trkpt lat="45.50691773049537" lon="10.795164418415753"><ele>151.0</ele><time>2026-03-28T10:29:30Z</time></trkpt><trkpt lat="45.50689955892901" lon="10.795027937035309"><ele>151.0</ele><time>2026-03-28T10:29:31Z</time></trkpt><trkpt lat="45.506908567382446" lon="10.794889469585346"><ele>151.0</ele><time>2026-03-28T10:29:32Z</time></trkpt><trkpt lat="45.50695530915976" lon="10.794768135446484"><ele>151.0</ele><time>2026-03-28T10:29:33Z</time></trkpt><trkpt lat="45.50703044388418" lon="10.794660612625572"><ele>151.0</ele><time>2026-03-28T10:29:34Z</time></trkpt><trkpt lat="45.50712990913868" lon="10.794551590250256"><ele>151.0</ele><time>2026-03-28T10:29:35Z</time></trkpt><trkpt lat="45.50723145051312" lon="10.794442075716717"><ele>151.0</ele><time>2026-03-28T10:29:36Z</time></trkpt><trkpt lat="45.507341629398766" lon="10.794317464470678"><ele>151.0</ele><time>2026-03-28T10:29:37Z</time></trkpt><trkpt lat="45.50746749010189" lon="10.794169627285878"><ele>151.0</ele><time>2026-03-28T10:29:38Z</time></trkpt><trkpt lat="45.507586537070274" lon="10.794026617390218"><ele>151.0</ele><time>2026-03-28T10:29:39Z</time></trkpt><trkpt lat="45.50769985044972" lon="10.793902580125428"><ele>151.0</ele><time>2026-03-28T10:29:40Z</time></trkpt><trkpt lat="45.50779833748361" lon="10.79378123453949"><ele>151.0</ele><time>2026-03-28T10:29:41Z</time></trkpt><trkpt lat="45.50789538671939" lon="10.793667420346976"><ele>151.0</ele><time>2026-03-28T10:29:42Z</time></trkpt><trkpt lat="45.50799742962562" lon="10.793550211450855"><ele>151.0</ele><time>2026-03-28T10:29:43Z</time></trkpt><trkpt lat="45.50810220624088" lon="10.793433603561024"><ele>151.0</ele><time>2026-03-28T10:29:44Z</time></trkpt><trkpt lat="45.508209474369195" lon="10.793310880460583"><ele>151.0</ele><time>2026-03-28T10:29:45Z</time></trkpt><trkpt lat="45.50832877674136" lon="10.793183925362808"><ele>151.0</ele><time>2026-03-28T10:29:46Z</time></trkpt><trkpt lat="45.50845482342873" lon="10.793041273566109"><ele>151.0</ele><time>2026-03-28T10:29:47Z</time></trkpt><trkpt lat="45.508590450858634" lon="10.79288153355672"><ele>151.0</ele><time>2026-03-28T10:29:48Z</time></trkpt><trkpt lat="45.508721455865356" lon="10.792741410461364"><ele>151.0</ele><time>2026-03-28T10:29:49Z</time></trkpt><trkpt lat="45.50883905219985" lon="10.792605049546546"><ele>151.25</ele><time>2026-03-28T10:29:50Z</time></trkpt><trkpt lat="45.50895890174115" lon="10.792463076489627"><ele>151.5</ele><time>2026-03-28T10:29:51Z</time></trkpt><trkpt lat="45.50907414812455" lon="10.7923288689308"><ele>151.75</ele><time>2026-03-28T10:29:52Z</time></trkpt><trkpt lat="45.50917423453134" lon="10.792197556053107"><ele>152.0</ele><time>2026-03-28T10:29:53Z</time></trkpt><trkpt lat="45.5092531804127" lon="10.792055202737723"><ele>152.0</ele><time>2026-03-28T10:29:54Z</time></trkpt><trkpt lat="45.509317808797924" lon="10.791899063938535"><ele>152.0</ele><time>2026-03-28T10:29:55Z</time></trkpt><trkpt lat="45.50937942178521" lon="10.791737654262914"><ele>152.0</ele><time>2026-03-28T10:29:56Z</time></trkpt><trkpt lat="45.5094360099337" lon="10.7915645855049"><ele>152.0</ele><time>2026-03-28T10:29:57Z</time></trkpt><trkpt lat="45.50948818377923" lon="10.791386376181608"><ele>151.75</ele><time>2026-03-28T10:29:58Z</time></trkpt><trkpt lat="45.50953731874114" lon="10.791196470713496"><ele>151.5</ele><time>2026-03-28T10:29:59Z</time></trkpt><trkpt lat="45.50957369054267" lon="10.791000059717378"><ele>151.25</ele><time>2026-03-28T10:30:00Z</time></trkpt><trkpt lat="45.509595496207815" lon="10.790787621665379"><ele>151.0</ele><time>2026-03-28T10:30:01Z</time></trkpt><trkpt lat="45.50959931530097" lon="10.790573008955649"><ele>151.66666666666669</ele><time>2026-03-28T10:30:02Z</time></trkpt><trkpt lat="45.50959400004704" lon="10.790361204653182"><ele>152.33333333333334</ele><time>2026-03-28T10:30:03Z</time></trkpt><trkpt lat="45.50960033921825" lon="10.790123014806401"><ele>153.0</ele><time>2026-03-28T10:30:04Z</time></trkpt><trkpt lat="45.50959938302823" lon="10.789863786611452"><ele>153.33333333333334</ele><time>2026-03-28T10:30:05Z</time></trkpt><trkpt lat="45.50959956329032" lon="10.789585786573845"><ele>153.66666666666669</ele><time>2026-03-28T10:30:06Z</time></trkpt><trkpt lat="45.50960857148857" lon="10.789306534593058"><ele>154.0</ele><time>2026-03-28T10:30:07Z</time></trkpt><trkpt lat="45.50963107754707" lon="10.78901746986945"><ele>153.33333333333334</ele><time>2026-03-28T10:30:08Z</time></trkpt><trkpt lat="45.5096770245242" lon="10.788744114987933"><ele>152.66666666666666</ele><time>2026-03-28T10:30:09Z</time></trkpt><trkpt lat="45.50971523692338" lon="10.788485038480436"><ele>152.0</ele><time>2026-03-28T10:30:10Z</time></trkpt><trkpt lat="45.5097487812076" lon="10.788250311325095"><ele>151.66666666666666</ele><time>2026-03-28T10:30:11Z</time></trkpt><trkpt lat="45.50976603087071" lon="10.78803822726759"><ele>151.33333333333334</ele><time>2026-03-28T10:30:12Z</time></trkpt><trkpt lat="45.509759178318546" lon="10.787810915528391"><ele>151.0</ele><time>2026-03-28T10:30:13Z</time></trkpt><trkpt lat="45.50972725154147" lon="10.787570245519344"><ele>151.33333333333334</ele><time>2026-03-28T10:30:14Z</time></trkpt><trkpt lat="45.50970696205677" lon="10.787305394004836"><ele>151.66666666666666</ele><time>2026-03-28T10:30:15Z</time></trkpt><trkpt lat="45.509667460340935" lon="10.78705066062048"><ele>152.0</ele><time>2026-03-28T10:30:16Z</time></trkpt><trkpt lat="45.50961762817756" lon="10.786821097581512"><ele>152.0</ele><time>2026-03-28T10:30:17Z</time></trkpt><trkpt lat="45.509596486702" lon="10.786591812143117"><ele>152.0</ele><time>2026-03-28T10:30:18Z</time></trkpt><trkpt lat="45.5096083028944" lon="10.786391903334835"><ele>152.0</ele><time>2026-03-28T10:30:19Z</time></trkpt><trkpt lat="45.50953979195095" lon="10.786229396665469"><ele>152.0</ele><time>2026-03-28T10:30:20Z</time></trkpt><trkpt lat="45.50951106358071" lon="10.786039394848514"><ele>152.0</ele><time>2026-03-28T10:30:21Z</time></trkpt><trkpt lat="45.50949603341707" lon="10.785858015022725"><ele>152.0</ele><time>2026-03-28T10:30:22Z</time></trkpt><trkpt lat="45.50948923658539" lon="10.785661302334697"><ele>152.0</ele><time>2026-03-28T10:30:23Z</time></trkpt><trkpt lat="45.50951552304688" lon="10.785459955392982"><ele>152.0</ele><time>2026-03-28T10:30:24Z</time></trkpt><trkpt lat="45.50951098861977" lon="10.785300222945597"><ele>152.0</ele><time>2026-03-28T10:30:25Z</time></trkpt><trkpt lat="45.509511453944555" lon="10.785182221317106"><ele>152.0</ele><time>2026-03-28T10:30:26Z</time></trkpt><trkpt lat="45.50951643894655" lon="10.785075204968214"><ele>152.0</ele><time>2026-03-28T10:30:27Z</time></trkpt><trkpt lat="45.509549190692105" lon="10.784913475628171"><ele>152.0</ele><time>2026-03-28T10:30:29Z</time></trkpt><trkpt lat="45.509638954842615" lon="10.784834259897284"><ele>152.0</ele><time>2026-03-28T10:30:31Z</time></trkpt><trkpt lat="45.509725452879344" lon="10.784855202466334"><ele>152.25</ele><time>2026-03-28T10:30:32Z</time></trkpt><trkpt lat="45.50982381752386" lon="10.784835131493912"><ele>152.5</ele><time>2026-03-28T10:30:33Z</time></trkpt><trkpt lat="45.509951176584615" lon="10.784846378104406"><ele>152.75</ele><time>2026-03-28T10:30:34Z</time></trkpt><trkpt lat="45.510084188938215" lon="10.784871445956847"><ele>153.0</ele><time>2026-03-28T10:30:35Z</time></trkpt><trkpt lat="45.51023037124524" lon="10.784897690470235"><ele>153.0</ele><time>2026-03-28T10:30:36Z</time></trkpt><trkpt lat="45.510376650130034" lon="10.784919677637873"><ele>153.0</ele><time>2026-03-28T10:30:37Z</time></trkpt><trkpt lat="45.51053279079345" lon="10.78493598364037"><ele>153.0</ele><time>2026-03-28T10:30:38Z</time></trkpt><trkpt lat="45.51069547200738" lon="10.78495920483691"><ele>153.66666666666666</ele><time>2026-03-28T10:30:39Z</time></trkpt><trkpt lat="45.51085894838242" lon="10.784973874339144"><ele>154.33333333333331</ele><time>2026-03-28T10:30:40Z</time></trkpt><trkpt lat="45.511012341812524" lon="10.78498247243215"><ele>155.0</ele><time>2026-03-28T10:30:41Z</time></trkpt><trkpt lat="45.511144486408725" lon="10.784996414381569"><ele>155.4</ele><time>2026-03-28T10:30:42Z</time></trkpt><trkpt lat="45.51126500564636" lon="10.785012227513437"><ele>155.8</ele><time>2026-03-28T10:30:43Z</time></trkpt><trkpt lat="45.51136775790232" lon="10.785015771075907"><ele>156.2</ele><time>2026-03-28T10:30:44Z</time></trkpt><trkpt lat="45.51146921222725" lon="10.785004476668242"><ele>156.6</ele><time>2026-03-28T10:30:45Z</time></trkpt><trkpt lat="45.51155836922286" lon="10.784999472278809"><ele>157.0</ele><time>2026-03-28T10:30:46Z</time></trkpt><trkpt lat="45.51164086472092" lon="10.785004127833368"><ele>157.0</ele><time>2026-03-28T10:30:47Z</time></trkpt><trkpt lat="45.51170603002696" lon="10.785014009862408"><ele>157.0</ele><time>2026-03-28T10:30:48Z</time></trkpt><trkpt lat="45.51181885309979" lon="10.785035210382999"><ele>157.0</ele><time>2026-03-28T10:30:50Z</time></trkpt><trkpt lat="45.511928533337645" lon="10.78502723096243"><ele>157.0</ele><time>2026-03-28T10:30:52Z</time></trkpt><trkpt lat="45.51201634923313" lon="10.78498410211932"><ele>157.0</ele><time>2026-03-28T10:30:54Z</time></trkpt><trkpt lat="45.511994676862" lon="10.78483583637004"><ele>157.0</ele><time>2026-03-28T10:30:55Z</time></trkpt><trkpt lat="45.511998543902884" lon="10.784727762533063"><ele>157.0</ele><time>2026-03-28T10:30:56Z</time></trkpt><trkpt lat="45.512011809821615" lon="10.784627499613833"><ele>157.0</ele><time>2026-03-28T10:30:57Z</time></trkpt><trkpt lat="45.51203055969525" lon="10.784533283522501"><ele>157.0</ele><time>2026-03-28T10:30:58Z</time></trkpt><trkpt lat="45.51201798999045" lon="10.78444344626988"><ele>157.0</ele><time>2026-03-28T10:30:59Z</time></trkpt><trkpt lat="45.51200461011422" lon="10.784346007395065"><ele>157.0</ele><time>2026-03-28T10:31:01Z</time></trkpt><trkpt lat="45.511975936926156" lon="10.78415168461522"><ele>156.0</ele><time>2026-03-28T10:31:03Z</time></trkpt><trkpt lat="45.512303539843614" lon="10.784413811731998"><ele>155.0</ele><time>2026-03-28T10:31:06Z</time></trkpt><trkpt lat="45.51243505870691" lon="10.784431610937085"><ele>155.0</ele><time>2026-03-28T10:31:08Z</time></trkpt><trkpt lat="45.51250180916387" lon="10.784427636758204"><ele>155.0</ele><time>2026-03-28T10:31:09Z</time></trkpt><trkpt lat="45.512577151711525" lon="10.78441786143655"><ele>155.0</ele><time>2026-03-28T10:31:10Z</time></trkpt><trkpt lat="45.512660344249475" lon="10.784413304487027"><ele>155.0</ele><time>2026-03-28T10:31:11Z</time></trkpt><trkpt lat="45.512748325910295" lon="10.784411080119675"><ele>155.0</ele><time>2026-03-28T10:31:12Z</time></trkpt><trkpt lat="45.51284849445906" lon="10.784415999890005"><ele>155.0</ele><time>2026-03-28T10:31:13Z</time></trkpt><trkpt lat="45.51295869810619" lon="10.784414033712293"><ele>155.75</ele><time>2026-03-28T10:31:14Z</time></trkpt><trkpt lat="45.51308295137128" lon="10.784404916804473"><ele>156.5</ele><time>2026-03-28T10:31:15Z</time></trkpt><trkpt lat="45.513208181550894" lon="10.784399678380357"><ele>157.25</ele><time>2026-03-28T10:31:16Z</time></trkpt><trkpt lat="45.513333329975" lon="10.784387482456523"><ele>158.0</ele><time>2026-03-28T10:31:17Z</time></trkpt><trkpt lat="45.5134623526139" lon="10.784369839787004"><ele>158.0</ele><time>2026-03-28T10:31:18Z</time></trkpt><trkpt lat="45.51359289334932" lon="10.78435344618562"><ele>158.0</ele><time>2026-03-28T10:31:19Z</time></trkpt><trkpt lat="45.51371830487588" lon="10.784341926995666"><ele>158.0</ele><time>2026-03-28T10:31:20Z</time></trkpt><trkpt lat="45.51384523091779" lon="10.784325044535114"><ele>158.0</ele><time>2026-03-28T10:31:21Z</time></trkpt><trkpt lat="45.5139687783823" lon="10.784305685972404"><ele>158.75</ele><time>2026-03-28T10:31:22Z</time></trkpt><trkpt lat="45.51410076065456" lon="10.784282512227524"><ele>159.5</ele><time>2026-03-28T10:31:23Z</time></trkpt><trkpt lat="45.5142328540447" lon="10.784259457198347"><ele>160.25</ele><time>2026-03-28T10:31:24Z</time></trkpt><trkpt lat="45.514376432614185" lon="10.784232914238196"><ele>161.0</ele><time>2026-03-28T10:31:25Z</time></trkpt><trkpt lat="45.514527233236905" lon="10.784380882252133"><ele>161.5</ele><time>2026-03-28T10:31:26Z</time></trkpt><trkpt lat="45.51466239632746" lon="10.78435314247515"><ele>162.0</ele><time>2026-03-28T10:31:27Z</time></trkpt><trkpt lat="45.51478148479961" lon="10.784327122198595"><ele>162.5</ele><time>2026-03-28T10:31:28Z</time></trkpt><trkpt lat="45.514906669493925" lon="10.784299073535477"><ele>163.0</ele><time>2026-03-28T10:31:29Z</time></trkpt><trkpt lat="45.51501151831569" lon="10.784274866724289"><ele>163.4</ele><time>2026-03-28T10:31:30Z</time></trkpt><trkpt lat="45.515113676574416" lon="10.784250559784056"><ele>163.8</ele><time>2026-03-28T10:31:31Z</time></trkpt><trkpt lat="45.515208166590874" lon="10.78422716031746"><ele>164.2</ele><time>2026-03-28T10:31:32Z</time></trkpt><trkpt lat="45.51529077897893" lon="10.784206702289133"><ele>164.6</ele><time>2026-03-28T10:31:33Z</time></trkpt><trkpt lat="45.515353206568605" lon="10.784190722069946"><ele>165.0</ele><time>2026-03-28T10:31:34Z</time></trkpt><trkpt lat="45.51546533154547" lon="10.784161791709058"><ele>165.16666666666666</ele><time>2026-03-28T10:31:36Z</time></trkpt><trkpt lat="45.51553972810107" lon="10.784142595960247"><ele>165.33333333333334</ele><time>2026-03-28T10:31:37Z</time></trkpt><trkpt lat="45.51562172167773" lon="10.784121440051495"><ele>165.5</ele><time>2026-03-28T10:31:38Z</time></trkpt><trkpt lat="45.51570676896537" lon="10.784099496230784"><ele>165.66666666666669</ele><time>2026-03-28T10:31:39Z</time></trkpt><trkpt lat="45.51579688382417" lon="10.784076244876282"><ele>165.83333333333334</ele><time>2026-03-28T10:31:40Z</time></trkpt><trkpt lat="45.51588757722702" lon="10.784052844257035"><ele>166.0</ele><time>2026-03-28T10:31:41Z</time></trkpt><trkpt lat="45.515976477942246" lon="10.784029906183198"><ele>166.0</ele><time>2026-03-28T10:31:42Z</time></trkpt><trkpt lat="45.51607442932231" lon="10.78400463285379"><ele>166.0</ele><time>2026-03-28T10:31:43Z</time></trkpt><trkpt lat="45.516155835118305" lon="10.783983620638015"><ele>166.0</ele><time>2026-03-28T10:31:44Z</time></trkpt><trkpt lat="45.51622336344979" lon="10.783966197090184"><ele>166.0</ele><time>2026-03-28T10:31:45Z</time></trkpt><trkpt lat="45.51629467861506" lon="10.783947796412567"><ele>166.0</ele><time>2026-03-28T10:31:46Z</time></trkpt><trkpt lat="45.516366666151825" lon="10.783929222202449"><ele>166.0</ele><time>2026-03-28T10:31:47Z</time></trkpt><trkpt lat="45.51644513293756" lon="10.783908976312373"><ele>166.33333333333334</ele><time>2026-03-28T10:31:48Z</time></trkpt><trkpt lat="45.516533666307296" lon="10.783886133058695"><ele>166.66666666666669</ele><time>2026-03-28T10:31:49Z</time></trkpt><trkpt lat="45.51662080624196" lon="10.783863649274702"><ele>167.0</ele><time>2026-03-28T10:31:50Z</time></trkpt><trkpt lat="45.51671442981244" lon="10.783839492600546"><ele>167.33333333333334</ele><time>2026-03-28T10:31:51Z</time></trkpt><trkpt lat="45.51677892625088" lon="10.783822851304253"><ele>167.66666666666666</ele><time>2026-03-28T10:31:52Z</time></trkpt><trkpt lat="45.51688187331597" lon="10.783796289083336"><ele>168.0</ele><time>2026-03-28T10:31:54Z</time></trkpt><trkpt lat="45.51695433796512" lon="10.783777591692166"><ele>168.0</ele><time>2026-03-28T10:31:59Z</time></trkpt><trkpt lat="45.516949416881936" lon="10.783545847907321"><ele>168.0</ele><time>2026-03-28T10:32:03Z</time></trkpt><trkpt lat="45.517029544877744" lon="10.78357764186259"><ele>168.0</ele><time>2026-03-28T10:32:06Z</time></trkpt><trkpt lat="45.51718766255137" lon="10.783717389577951"><ele>168.0</ele><time>2026-03-28T10:32:08Z</time></trkpt><trkpt lat="45.51728193119319" lon="10.783693066475411"><ele>167.75</ele><time>2026-03-28T10:32:09Z</time></trkpt><trkpt lat="45.51738783328989" lon="10.783666231724988"><ele>167.5</ele><time>2026-03-28T10:32:10Z</time></trkpt><trkpt lat="45.51751277300452" lon="10.783634613272469"><ele>167.25</ele><time>2026-03-28T10:32:11Z</time></trkpt><trkpt lat="45.51764898929979" lon="10.783600141004895"><ele>167.0</ele><time>2026-03-28T10:32:12Z</time></trkpt><trkpt lat="45.5177860799475" lon="10.783565447548773"><ele>167.66666666666666</ele><time>2026-03-28T10:32:13Z</time></trkpt><trkpt lat="45.5179439856168" lon="10.783525486420562"><ele>168.33333333333334</ele><time>2026-03-28T10:32:14Z</time></trkpt><trkpt lat="45.51809561054467" lon="10.783487114722652"><ele>169.0</ele><time>2026-03-28T10:32:15Z</time></trkpt><trkpt lat="45.51825379164195" lon="10.783447083881422"><ele>169.66666666666669</ele><time>2026-03-28T10:32:16Z</time></trkpt><trkpt lat="45.518414999793904" lon="10.783406286956403"><ele>170.33333333333334</ele><time>2026-03-28T10:32:17Z</time></trkpt><trkpt lat="45.51856995208513" lon="10.78336707321878"><ele>171.0</ele><time>2026-03-28T10:32:18Z</time></trkpt><trkpt lat="45.5187294167157" lon="10.78332671754995"><ele>170.0</ele><time>2026-03-28T10:32:19Z</time></trkpt><trkpt lat="45.51888124763826" lon="10.783288293759131"><ele>169.0</ele><time>2026-03-28T10:32:20Z</time></trkpt><trkpt lat="45.519031464780156" lon="10.783250278310723"><ele>168.0</ele><time>2026-03-28T10:32:21Z</time></trkpt><trkpt lat="45.519178228440076" lon="10.783213136884436"><ele>168.0</ele><time>2026-03-28T10:32:22Z</time></trkpt><trkpt lat="45.51934760947994" lon="10.78317027165199"><ele>168.0</ele><time>2026-03-28T10:32:23Z</time></trkpt><trkpt lat="45.51952154695242" lon="10.783126253348756"><ele>168.0</ele><time>2026-03-28T10:32:24Z</time></trkpt><trkpt lat="45.519677949641114" lon="10.783086672524975"><ele>167.66666666666666</ele><time>2026-03-28T10:32:25Z</time></trkpt><trkpt lat="45.519849093179346" lon="10.78304336127225"><ele>167.33333333333331</ele><time>2026-03-28T10:32:26Z</time></trkpt><trkpt lat="45.51999992608979" lon="10.783005190084959"><ele>167.0</ele><time>2026-03-28T10:32:27Z</time></trkpt><trkpt lat="45.5201728348907" lon="10.782960853226207"><ele>167.0</ele><time>2026-03-28T10:32:28Z</time></trkpt><trkpt lat="45.520343174498265" lon="10.782916823278322"><ele>167.0</ele><time>2026-03-28T10:32:29Z</time></trkpt><trkpt lat="45.520505601402895" lon="10.782874838603616"><ele>167.0</ele><time>2026-03-28T10:32:30Z</time></trkpt><trkpt lat="45.52066938932449" lon="10.78283250214123"><ele>166.66666666666666</ele><time>2026-03-28T10:32:31Z</time></trkpt><trkpt lat="45.5208157630553" lon="10.782794835012233"><ele>166.33333333333334</ele><time>2026-03-28T10:32:32Z</time></trkpt><trkpt lat="45.52096733468936" lon="10.782756402948255"><ele>166.0</ele><time>2026-03-28T10:32:33Z</time></trkpt><trkpt lat="45.521129966155705" lon="10.782715175295332"><ele>167.33333333333334</ele><time>2026-03-28T10:32:34Z</time></trkpt><trkpt lat="45.52128499503188" lon="10.782675874893588"><ele>168.66666666666666</ele><time>2026-03-28T10:32:35Z</time></trkpt><trkpt lat="45.52145922396556" lon="10.782631706871992"><ele>170.0</ele><time>2026-03-28T10:32:36Z</time></trkpt><trkpt lat="45.52162794880465" lon="10.782588934327345"><ele>170.0</ele><time>2026-03-28T10:32:37Z</time></trkpt><trkpt lat="45.52180932094853" lon="10.7825425266417"><ele>170.0</ele><time>2026-03-28T10:32:38Z</time></trkpt><trkpt lat="45.52198980167512" lon="10.782497046070624"><ele>170.0</ele><time>2026-03-28T10:32:39Z</time></trkpt><trkpt lat="45.52216545083671" lon="10.78245278314879"><ele>169.33333333333331</ele><time>2026-03-28T10:32:40Z</time></trkpt><trkpt lat="45.52232754158624" lon="10.782411936760377"><ele>168.66666666666666</ele><time>2026-03-28T10:32:41Z</time></trkpt><trkpt lat="45.522473515977005" lon="10.782375151681697"><ele>168.0</ele><time>2026-03-28T10:32:42Z</time></trkpt><trkpt lat="45.52262018756406" lon="10.782338190886112"><ele>168.0</ele><time>2026-03-28T10:32:43Z</time></trkpt><trkpt lat="45.52278391885451" lon="10.78229693122223"><ele>168.0</ele><time>2026-03-28T10:32:44Z</time></trkpt><trkpt lat="45.52293005003243" lon="10.782260106633215"><ele>168.0</ele><time>2026-03-28T10:32:45Z</time></trkpt><trkpt lat="45.5230673458821" lon="10.78222540782589"><ele>167.0</ele><time>2026-03-28T10:32:46Z</time></trkpt><trkpt lat="45.523202788954094" lon="10.78219061017914"><ele>166.0</ele><time>2026-03-28T10:32:47Z</time></trkpt><trkpt lat="45.52332332984461" lon="10.782159641166137"><ele>165.0</ele><time>2026-03-28T10:32:48Z</time></trkpt><trkpt lat="45.523434698293904" lon="10.782131028741466"><ele>164.0</ele><time>2026-03-28T10:32:49Z</time></trkpt><trkpt lat="45.52355179597863" lon="10.782100944334264"><ele>164.0</ele><time>2026-03-28T10:32:50Z</time></trkpt><trkpt lat="45.523660069045306" lon="10.782073127129031"><ele>164.0</ele><time>2026-03-28T10:32:51Z</time></trkpt><trkpt lat="45.52377499135882" lon="10.782043601617179"><ele>164.0</ele><time>2026-03-28T10:32:52Z</time></trkpt><trkpt lat="45.52389064282351" lon="10.782013888811926"><ele>164.0</ele><time>2026-03-28T10:32:53Z</time></trkpt><trkpt lat="45.52400040235964" lon="10.781985689707568"><ele>164.0</ele><time>2026-03-28T10:32:54Z</time></trkpt><trkpt lat="45.52408806174921" lon="10.78196316850021"><ele>164.0</ele><time>2026-03-28T10:32:55Z</time></trkpt><trkpt lat="45.52417687936832" lon="10.781940349692105"><ele>164.0</ele><time>2026-03-28T10:32:56Z</time></trkpt><trkpt lat="45.524252565617694" lon="10.781920904689375"><ele>164.0</ele><time>2026-03-28T10:32:57Z</time></trkpt><trkpt lat="45.52432508270782" lon="10.781902273795351"><ele>164.0</ele><time>2026-03-28T10:32:59Z</time></trkpt><trkpt lat="45.524417929804805" lon="10.781878618765809"><ele>164.0</ele><time>2026-03-28T10:33:04Z</time></trkpt><trkpt lat="45.5244836154342" lon="10.781861978474536"><ele>163.5</ele><time>2026-03-28T10:33:05Z</time></trkpt><trkpt lat="45.52454481420275" lon="10.781834418039042"><ele>163.0</ele><time>2026-03-28T10:33:06Z</time></trkpt><trkpt lat="45.524531408384554" lon="10.781226991011371"><ele>162.5</ele><time>2026-03-28T10:33:07Z</time></trkpt><trkpt lat="45.52456995726067" lon="10.781062009360761"><ele>162.0</ele><time>2026-03-28T10:33:08Z</time></trkpt><trkpt lat="45.52458821769591" lon="10.780891366417864"><ele>161.5</ele><time>2026-03-28T10:33:09Z</time></trkpt><trkpt lat="45.524577248130676" lon="10.780697740461875"><ele>161.0</ele><time>2026-03-28T10:33:10Z</time></trkpt><trkpt lat="45.52455006205561" lon="10.780472618181374"><ele>162.33333333333331</ele><time>2026-03-28T10:33:11Z</time></trkpt><trkpt lat="45.5245282308392" lon="10.780263841747802"><ele>163.66666666666666</ele><time>2026-03-28T10:33:12Z</time></trkpt><trkpt lat="45.52452264867344" lon="10.780042528747556"><ele>165.0</ele><time>2026-03-28T10:33:13Z</time></trkpt><trkpt lat="45.524542326967676" lon="10.779796899459734"><ele>164.0</ele><time>2026-03-28T10:33:14Z</time></trkpt><trkpt lat="45.52459333374394" lon="10.77955672585289"><ele>163.0</ele><time>2026-03-28T10:33:15Z</time></trkpt><trkpt lat="45.524603409194" lon="10.779358454352575"><ele>162.0</ele><time>2026-03-28T10:33:16Z</time></trkpt><trkpt lat="45.524607170813006" lon="10.779181142523068"><ele>161.0</ele><time>2026-03-28T10:33:17Z</time></trkpt><trkpt lat="45.52459700112768" lon="10.779011813961977"><ele>160.75</ele><time>2026-03-28T10:33:18Z</time></trkpt><trkpt lat="45.52458176059183" lon="10.778826204110063"><ele>160.5</ele><time>2026-03-28T10:33:19Z</time></trkpt><trkpt lat="45.52456263628657" lon="10.778628917559798"><ele>160.25</ele><time>2026-03-28T10:33:20Z</time></trkpt><trkpt lat="45.524544116510874" lon="10.778428524802555"><ele>160.0</ele><time>2026-03-28T10:33:21Z</time></trkpt><trkpt lat="45.52452957139132" lon="10.77825285861154"><ele>159.8</ele><time>2026-03-28T10:33:22Z</time></trkpt><trkpt lat="45.52451521885455" lon="10.778094471325467"><ele>159.6</ele><time>2026-03-28T10:33:23Z</time></trkpt><trkpt lat="45.524501573018206" lon="10.777960626960843"><ele>159.4</ele><time>2026-03-28T10:33:24Z</time></trkpt><trkpt lat="45.52448965570911" lon="10.777846747513298"><ele>159.2</ele><time>2026-03-28T10:33:25Z</time></trkpt><trkpt lat="45.52447680283622" lon="10.777733392206482"><ele>159.0</ele><time>2026-03-28T10:33:26Z</time></trkpt><trkpt lat="45.524462363517834" lon="10.777606049249925"><ele>159.0</ele><time>2026-03-28T10:33:27Z</time></trkpt><trkpt lat="45.52445126453294" lon="10.777473593739012"><ele>159.0</ele><time>2026-03-28T10:33:28Z</time></trkpt><trkpt lat="45.52443850514079" lon="10.77731234546837"><ele>159.0</ele><time>2026-03-28T10:33:29Z</time></trkpt><trkpt lat="45.52442613381868" lon="10.777128668831583"><ele>159.0</ele><time>2026-03-28T10:33:30Z</time></trkpt><trkpt lat="45.524411050500866" lon="10.776904955568996"><ele>158.75</ele><time>2026-03-28T10:33:31Z</time></trkpt><trkpt lat="45.52439500277664" lon="10.776679641475994"><ele>158.5</ele><time>2026-03-28T10:33:32Z</time></trkpt><trkpt lat="45.524377724822244" lon="10.776486016942652"><ele>158.25</ele><time>2026-03-28T10:33:33Z</time></trkpt><trkpt lat="45.524365189874324" lon="10.776344374469907"><ele>158.0</ele><time>2026-03-28T10:33:34Z</time></trkpt><trkpt lat="45.52436164494925" lon="10.776240530744248"><ele>158.0</ele><time>2026-03-28T10:33:35Z</time></trkpt><trkpt lat="45.5244089480112" lon="10.776076427619909"><ele>158.0</ele><time>2026-03-28T10:33:37Z</time></trkpt><trkpt lat="45.52448183800315" lon="10.776008508985136"><ele>158.0</ele><time>2026-03-28T10:33:38Z</time></trkpt><trkpt lat="45.52458916271287" lon="10.77595299507007"><ele>158.0</ele><time>2026-03-28T10:33:39Z</time></trkpt><trkpt lat="45.52471326419221" lon="10.775927619945655"><ele>158.0</ele><time>2026-03-28T10:33:40Z</time></trkpt><trkpt lat="45.52485854832221" lon="10.775919059915477"><ele>158.0</ele><time>2026-03-28T10:33:41Z</time></trkpt><trkpt lat="45.525008513718646" lon="10.775920261838241"><ele>158.0</ele><time>2026-03-28T10:33:42Z</time></trkpt><trkpt lat="45.52516065349279" lon="10.77591843759501"><ele>158.0</ele><time>2026-03-28T10:33:43Z</time></trkpt><trkpt lat="45.52531390627532" lon="10.775907682859488"><ele>158.0</ele><time>2026-03-28T10:33:44Z</time></trkpt><trkpt lat="45.52546304139116" lon="10.775882839695626"><ele>158.0</ele><time>2026-03-28T10:33:45Z</time></trkpt><trkpt lat="45.52559529520952" lon="10.775852601762624"><ele>158.0</ele><time>2026-03-28T10:33:46Z</time></trkpt><trkpt lat="45.52571621338819" lon="10.775834278177745"><ele>158.0</ele><time>2026-03-28T10:33:47Z</time></trkpt><trkpt lat="45.52583354913034" lon="10.775811349111052"><ele>158.0</ele><time>2026-03-28T10:33:48Z</time></trkpt><trkpt lat="45.525944526311704" lon="10.77577575444852"><ele>158.0</ele><time>2026-03-28T10:33:49Z</time></trkpt><trkpt lat="45.5260537845364" lon="10.775728538625838"><ele>158.0</ele><time>2026-03-28T10:33:50Z</time></trkpt><trkpt lat="45.52616560777015" lon="10.775664480596658"><ele>158.0</ele><time>2026-03-28T10:33:51Z</time></trkpt><trkpt lat="45.526295131617815" lon="10.775606651544516"><ele>158.0</ele><time>2026-03-28T10:33:52Z</time></trkpt><trkpt lat="45.526410478175734" lon="10.775531911095175"><ele>158.0</ele><time>2026-03-28T10:33:53Z</time></trkpt><trkpt lat="45.52651763545768" lon="10.775480228982612"><ele>158.0</ele><time>2026-03-28T10:33:54Z</time></trkpt><trkpt lat="45.52662477932118" lon="10.775459609760254"><ele>158.0</ele><time>2026-03-28T10:33:55Z</time></trkpt><trkpt lat="45.52674002340645" lon="10.775463878865326"><ele>158.0</ele><time>2026-03-28T10:33:56Z</time></trkpt><trkpt lat="45.52685508443355" lon="10.775499578917602"><ele>158.0</ele><time>2026-03-28T10:33:57Z</time></trkpt><trkpt lat="45.52696824767025" lon="10.775568793782524"><ele>158.0</ele><time>2026-03-28T10:33:58Z</time></trkpt><trkpt lat="45.52709422787357" lon="10.775642034687246"><ele>158.0</ele><time>2026-03-28T10:33:59Z</time></trkpt><trkpt lat="45.527233422100466" lon="10.775708010707154"><ele>157.5</ele><time>2026-03-28T10:34:00Z</time></trkpt><trkpt lat="45.52738230972848" lon="10.775769569524455"><ele>157.0</ele><time>2026-03-28T10:34:01Z</time></trkpt><trkpt lat="45.52751865503217" lon="10.77583257403673"><ele>156.5</ele><time>2026-03-28T10:34:02Z</time></trkpt><trkpt lat="45.52762725542529" lon="10.77589111374872"><ele>156.0</ele><time>2026-03-28T10:34:03Z</time></trkpt><trkpt lat="45.527732776071765" lon="10.775944639314154"><ele>156.0</ele><time>2026-03-28T10:34:04Z</time></trkpt><trkpt lat="45.527841484830844" lon="10.775981030339217"><ele>156.0</ele><time>2026-03-28T10:34:05Z</time></trkpt><trkpt lat="45.527954756176854" lon="10.776004534535272"><ele>156.0</ele><time>2026-03-28T10:34:06Z</time></trkpt><trkpt lat="45.5280674615585" lon="10.77601338583999"><ele>156.0</ele><time>2026-03-28T10:34:07Z</time></trkpt><trkpt lat="45.528195472715176" lon="10.776008338722418"><ele>156.25</ele><time>2026-03-28T10:34:08Z</time></trkpt><trkpt lat="45.52832701510781" lon="10.776008820015187"><ele>156.5</ele><time>2026-03-28T10:34:09Z</time></trkpt><trkpt lat="45.5284544826563" lon="10.776019355910847"><ele>156.75</ele><time>2026-03-28T10:34:10Z</time></trkpt><trkpt lat="45.528574494596576" lon="10.776024761016059"><ele>157.0</ele><time>2026-03-28T10:34:11Z</time></trkpt><trkpt lat="45.52868309464284" lon="10.776022495298339"><ele>157.75</ele><time>2026-03-28T10:34:12Z</time></trkpt><trkpt lat="45.52878481803939" lon="10.776005966505698"><ele>158.5</ele><time>2026-03-28T10:34:13Z</time></trkpt><trkpt lat="45.52889428030571" lon="10.775972366271105"><ele>159.25</ele><time>2026-03-28T10:34:14Z</time></trkpt><trkpt lat="45.52900650631789" lon="10.775919721557022"><ele>160.0</ele><time>2026-03-28T10:34:15Z</time></trkpt><trkpt lat="45.52912325137332" lon="10.775838583102106"><ele>160.0</ele><time>2026-03-28T10:34:16Z</time></trkpt><trkpt lat="45.529232237579606" lon="10.775735877963827"><ele>160.0</ele><time>2026-03-28T10:34:17Z</time></trkpt><trkpt lat="45.52934250806514" lon="10.775622200156107"><ele>160.0</ele><time>2026-03-28T10:34:18Z</time></trkpt><trkpt lat="45.52944431905882" lon="10.775519231064248"><ele>160.0</ele><time>2026-03-28T10:34:19Z</time></trkpt><trkpt lat="45.5295468940779" lon="10.775415573291998"><ele>160.16666666666669</ele><time>2026-03-28T10:34:20Z</time></trkpt><trkpt lat="45.52963634396114" lon="10.77533274854468"><ele>160.33333333333334</ele><time>2026-03-28T10:34:21Z</time></trkpt><trkpt lat="45.52971743753834" lon="10.775272572628166"><ele>160.5</ele><time>2026-03-28T10:34:22Z</time></trkpt><trkpt lat="45.529791299675274" lon="10.775240632298033"><ele>160.66666666666666</ele><time>2026-03-28T10:34:23Z</time></trkpt><trkpt lat="45.52986795204214" lon="10.775240849651793"><ele>160.83333333333331</ele><time>2026-03-28T10:34:24Z</time></trkpt><trkpt lat="45.52994352578765" lon="10.77528311229746"><ele>161.0</ele><time>2026-03-28T10:34:25Z</time></trkpt><trkpt lat="45.53002959346692" lon="10.775348329684933"><ele>161.0</ele><time>2026-03-28T10:34:26Z</time></trkpt><trkpt lat="45.53013435822037" lon="10.775416980811956"><ele>161.0</ele><time>2026-03-28T10:34:27Z</time></trkpt><trkpt lat="45.53025445521787" lon="10.775482673956793"><ele>161.0</ele><time>2026-03-28T10:34:28Z</time></trkpt><trkpt lat="45.53037064944955" lon="10.775541163675602"><ele>161.0</ele><time>2026-03-28T10:34:29Z</time></trkpt><trkpt lat="45.53046046610053" lon="10.775592574958862"><ele>161.0</ele><time>2026-03-28T10:34:30Z</time></trkpt><trkpt lat="45.530534300574345" lon="10.775652263041092"><ele>161.0</ele><time>2026-03-28T10:34:31Z</time></trkpt><trkpt lat="45.530600443027765" lon="10.775747299891291"><ele>161.0</ele><time>2026-03-28T10:34:32Z</time></trkpt><trkpt lat="45.530655746726545" lon="10.775885137205458"><ele>161.0</ele><time>2026-03-28T10:34:33Z</time></trkpt><trkpt lat="45.53070119669526" lon="10.776041259824858"><ele>161.0</ele><time>2026-03-28T10:34:34Z</time></trkpt><trkpt lat="45.53072411729303" lon="10.776203687389774"><ele>160.60000000000002</ele><time>2026-03-28T10:34:35Z</time></trkpt><trkpt lat="45.53074596308076" lon="10.776327137253"><ele>160.20000000000002</ele><time>2026-03-28T10:34:36Z</time></trkpt><trkpt lat="45.5307972041684" lon="10.77644913138985"><ele>159.8</ele><time>2026-03-28T10:34:37Z</time></trkpt><trkpt lat="45.53086868381422" lon="10.776553640180294"><ele>159.4</ele><time>2026-03-28T10:34:38Z</time></trkpt><trkpt lat="45.53094570714341" lon="10.776623319834409"><ele>159.0</ele><time>2026-03-28T10:34:39Z</time></trkpt><trkpt lat="45.53103769598872" lon="10.77667723304161"><ele>159.0</ele><time>2026-03-28T10:34:40Z</time></trkpt><trkpt lat="45.5311396813817" lon="10.776721052760875"><ele>159.0</ele><time>2026-03-28T10:34:41Z</time></trkpt><trkpt lat="45.531251545289535" lon="10.77675723047677"><ele>159.0</ele><time>2026-03-28T10:34:42Z</time></trkpt><trkpt lat="45.53135657280976" lon="10.776787584724719"><ele>159.0</ele><time>2026-03-28T10:34:43Z</time></trkpt><trkpt lat="45.531438617159246" lon="10.776816774344233"><ele>159.0</ele><time>2026-03-28T10:34:44Z</time></trkpt><trkpt lat="45.53149371560318" lon="10.77686033428871"><ele>160.0</ele><time>2026-03-28T10:34:45Z</time></trkpt><trkpt lat="45.53157639340137" lon="10.777019099728237"><ele>161.0</ele><time>2026-03-28T10:34:47Z</time></trkpt><trkpt lat="45.531576436568876" lon="10.777115936781996"><ele>162.0</ele><time>2026-03-28T10:34:48Z</time></trkpt><trkpt lat="45.53156285051502" lon="10.777237566342768"><ele>163.0</ele><time>2026-03-28T10:34:50Z</time></trkpt><trkpt lat="45.53158994789146" lon="10.777329356678777"><ele>164.0</ele><time>2026-03-28T10:34:57Z</time></trkpt><trkpt lat="45.53171343336601" lon="10.77733054299921"><ele>164.0</ele><time>2026-03-28T10:34:58Z</time></trkpt><trkpt lat="45.53180025076726" lon="10.777253709987304"><ele>164.0</ele><time>2026-03-28T10:34:59Z</time></trkpt><trkpt lat="45.531886952831" lon="10.777149211952564"><ele>164.0</ele><time>2026-03-28T10:35:00Z</time></trkpt><trkpt lat="45.5319867744887" lon="10.777031117334381"><ele>164.0</ele><time>2026-03-28T10:35:01Z</time></trkpt><trkpt lat="45.53209939364388" lon="10.776913388127687"><ele>164.33333333333331</ele><time>2026-03-28T10:35:02Z</time></trkpt><trkpt lat="45.53222624161158" lon="10.776783978900115"><ele>164.66666666666666</ele><time>2026-03-28T10:35:03Z</time></trkpt><trkpt lat="45.53235907329864" lon="10.776644135178405"><ele>165.0</ele><time>2026-03-28T10:35:04Z</time></trkpt><trkpt lat="45.53249464830117" lon="10.776502310852358"><ele>165.0</ele><time>2026-03-28T10:35:05Z</time></trkpt><trkpt lat="45.532639369521526" lon="10.776350916272964"><ele>165.0</ele><time>2026-03-28T10:35:06Z</time></trkpt><trkpt lat="45.53277768596359" lon="10.77621294578845"><ele>165.0</ele><time>2026-03-28T10:35:07Z</time></trkpt><trkpt lat="45.53291783401674" lon="10.776072584287865"><ele>164.66666666666666</ele><time>2026-03-28T10:35:08Z</time></trkpt><trkpt lat="45.53305859182418" lon="10.775938012806755"><ele>164.33333333333331</ele><time>2026-03-28T10:35:09Z</time></trkpt><trkpt lat="45.533202953870926" lon="10.775862504161472"><ele>164.0</ele><time>2026-03-28T10:35:10Z</time></trkpt><trkpt lat="45.53336273516188" lon="10.775810569643353"><ele>164.0</ele><time>2026-03-28T10:35:11Z</time></trkpt><trkpt lat="45.53352198555859" lon="10.775800409940452"><ele>164.0</ele><time>2026-03-28T10:35:12Z</time></trkpt><trkpt lat="45.53368095413207" lon="10.775825920472306"><ele>164.0</ele><time>2026-03-28T10:35:13Z</time></trkpt><trkpt lat="45.533848745792" lon="10.775879057348833"><ele>164.66666666666666</ele><time>2026-03-28T10:35:14Z</time></trkpt><trkpt lat="45.53403152546339" lon="10.775952095744307"><ele>165.33333333333334</ele><time>2026-03-28T10:35:15Z</time></trkpt><trkpt lat="45.53420690719132" lon="10.77602947129938"><ele>166.0</ele><time>2026-03-28T10:35:16Z</time></trkpt><trkpt lat="45.53437574767651" lon="10.77609974783769"><ele>166.33333333333334</ele><time>2026-03-28T10:35:17Z</time></trkpt><trkpt lat="45.53455098485743" lon="10.776166850972594"><ele>166.66666666666666</ele><time>2026-03-28T10:35:18Z</time></trkpt><trkpt lat="45.5347254396074" lon="10.776231073426349"><ele>167.0</ele><time>2026-03-28T10:35:19Z</time></trkpt><trkpt lat="45.5348882548859" lon="10.776272536773796"><ele>168.0</ele><time>2026-03-28T10:35:20Z</time></trkpt><trkpt lat="45.53504543388767" lon="10.776281650893509"><ele>169.0</ele><time>2026-03-28T10:35:21Z</time></trkpt><trkpt lat="45.53521388202254" lon="10.776250504288083"><ele>170.0</ele><time>2026-03-28T10:35:22Z</time></trkpt><trkpt lat="45.535378433811914" lon="10.776179036928216"><ele>170.0</ele><time>2026-03-28T10:35:23Z</time></trkpt><trkpt lat="45.53553635318466" lon="10.776095312255025"><ele>170.0</ele><time>2026-03-28T10:35:24Z</time></trkpt><trkpt lat="45.53568670708617" lon="10.775998410540875"><ele>170.0</ele><time>2026-03-28T10:35:25Z</time></trkpt><trkpt lat="45.53582322442913" lon="10.775907353298974"><ele>170.0</ele><time>2026-03-28T10:35:26Z</time></trkpt><trkpt lat="45.53595897841676" lon="10.77582889145993"><ele>170.0</ele><time>2026-03-28T10:35:27Z</time></trkpt><trkpt lat="45.53608793745574" lon="10.77575655857037"><ele>170.0</ele><time>2026-03-28T10:35:28Z</time></trkpt><trkpt lat="45.536211789250764" lon="10.775677620846864"><ele>170.0</ele><time>2026-03-28T10:35:29Z</time></trkpt><trkpt lat="45.5363275683112" lon="10.775616357045372"><ele>170.2</ele><time>2026-03-28T10:35:30Z</time></trkpt><trkpt lat="45.53644153566079" lon="10.775552801279714"><ele>170.4</ele><time>2026-03-28T10:35:31Z</time></trkpt><trkpt lat="45.536545053492965" lon="10.775492441227364"><ele>170.60000000000002</ele><time>2026-03-28T10:35:32Z</time></trkpt><trkpt lat="45.53663866766609" lon="10.775428804901207"><ele>170.8</ele><time>2026-03-28T10:35:33Z</time></trkpt><trkpt lat="45.53672627606165" lon="10.77537473700671"><ele>171.0</ele><time>2026-03-28T10:35:34Z</time></trkpt><trkpt lat="45.53681357785685" lon="10.775325627354178"><ele>171.0</ele><time>2026-03-28T10:35:35Z</time></trkpt><trkpt lat="45.53690573475356" lon="10.775272497299806"><ele>171.0</ele><time>2026-03-28T10:35:36Z</time></trkpt><trkpt lat="45.53699717211422" lon="10.775221654944167"><ele>171.0</ele><time>2026-03-28T10:35:37Z</time></trkpt><trkpt lat="45.53708248200612" lon="10.77517345013617"><ele>171.0</ele><time>2026-03-28T10:35:38Z</time></trkpt><trkpt lat="45.53716077537153" lon="10.775125255986868"><ele>171.0</ele><time>2026-03-28T10:35:39Z</time></trkpt><trkpt lat="45.53723027957344" lon="10.775083337481782"><ele>171.75</ele><time>2026-03-28T10:35:40Z</time></trkpt><trkpt lat="45.537315717956176" lon="10.775034403462941"><ele>172.5</ele><time>2026-03-28T10:35:42Z</time></trkpt><trkpt lat="45.537384822775344" lon="10.775009673607466"><ele>173.25</ele><time>2026-03-28T10:35:44Z</time></trkpt><trkpt lat="45.537507050304654" lon="10.77498615257544"><ele>174.0</ele><time>2026-03-28T10:35:46Z</time></trkpt><trkpt lat="45.53754301688551" lon="10.775256346417235"><ele>174.25</ele><time>2026-03-28T10:35:48Z</time></trkpt><trkpt lat="45.53754600377267" lon="10.775387638494827"><ele>174.5</ele><time>2026-03-28T10:35:49Z</time></trkpt><trkpt lat="45.53755149274465" lon="10.775508750708532"><ele>174.75</ele><time>2026-03-28T10:35:50Z</time></trkpt><trkpt lat="45.53758302602641" lon="10.775701288454636"><ele>175.0</ele><time>2026-03-28T10:35:51Z</time></trkpt><trkpt lat="45.53759772877959" lon="10.77589947079238"><ele>174.33333333333334</ele><time>2026-03-28T10:35:52Z</time></trkpt><trkpt lat="45.5375954320803" lon="10.776133822837519"><ele>173.66666666666666</ele><time>2026-03-28T10:35:53Z</time></trkpt><trkpt lat="45.537619987016754" lon="10.776368310077242"><ele>173.0</ele><time>2026-03-28T10:35:54Z</time></trkpt><trkpt lat="45.537625819658615" lon="10.77662588762124"><ele>174.0</ele><time>2026-03-28T10:35:55Z</time></trkpt><trkpt lat="45.53762925054915" lon="10.776895577085925"><ele>175.0</ele><time>2026-03-28T10:35:56Z</time></trkpt><trkpt lat="45.53763323681312" lon="10.77716350567676"><ele>176.0</ele><time>2026-03-28T10:35:57Z</time></trkpt><trkpt lat="45.537645834995" lon="10.77741101576412"><ele>176.0</ele><time>2026-03-28T10:35:58Z</time></trkpt><trkpt lat="45.537653606847" lon="10.777634587415287"><ele>176.0</ele><time>2026-03-28T10:35:59Z</time></trkpt><trkpt lat="45.53765060196618" lon="10.777863852017823"><ele>176.0</ele><time>2026-03-28T10:36:00Z</time></trkpt><trkpt lat="45.537675624431515" lon="10.778089015539901"><ele>175.66666666666666</ele><time>2026-03-28T10:36:01Z</time></trkpt><trkpt lat="45.53769278417199" lon="10.77831541096761"><ele>175.33333333333334</ele><time>2026-03-28T10:36:02Z</time></trkpt><trkpt lat="45.53770881849572" lon="10.778540325611313"><ele>175.0</ele><time>2026-03-28T10:36:03Z</time></trkpt><trkpt lat="45.53772081605739" lon="10.778755567890562"><ele>174.33333333333334</ele><time>2026-03-28T10:36:04Z</time></trkpt><trkpt lat="45.53773511320961" lon="10.778979785641353"><ele>173.66666666666666</ele><time>2026-03-28T10:36:05Z</time></trkpt><trkpt lat="45.53775054747072" lon="10.77920671248568"><ele>173.0</ele><time>2026-03-28T10:36:06Z</time></trkpt><trkpt lat="45.53776419531942" lon="10.779429528333456"><ele>173.0</ele><time>2026-03-28T10:36:07Z</time></trkpt><trkpt lat="45.53777547208059" lon="10.779650081623007"><ele>173.0</ele><time>2026-03-28T10:36:08Z</time></trkpt><trkpt lat="45.53778424886178" lon="10.779835353003095"><ele>173.0</ele><time>2026-03-28T10:36:09Z</time></trkpt><trkpt lat="45.53779506887763" lon="10.780010437577504"><ele>173.0</ele><time>2026-03-28T10:36:10Z</time></trkpt><trkpt lat="45.537804396980846" lon="10.780157817628696"><ele>173.0</ele><time>2026-03-28T10:36:11Z</time></trkpt><trkpt lat="45.53778225614008" lon="10.780055196743964"><ele>173.0</ele><time>2026-03-28T10:36:12Z</time></trkpt><trkpt lat="45.53780601525761" lon="10.780154822719338"><ele>173.0</ele><time>2026-03-28T10:36:13Z</time></trkpt><trkpt lat="45.537696526688336" lon="10.78010850868991"><ele>173.0</ele><time>2026-03-28T10:36:14Z</time></trkpt><trkpt lat="45.53759014561352" lon="10.780114614306422"><ele>173.0</ele><time>2026-03-28T10:36:15Z</time></trkpt><trkpt lat="45.537456841658745" lon="10.780122424780982"><ele>173.0</ele><time>2026-03-28T10:36:16Z</time></trkpt><trkpt lat="45.53731004397953" lon="10.78014170488193"><ele>173.0</ele><time>2026-03-28T10:36:17Z</time></trkpt><trkpt lat="45.53716958687032" lon="10.78018419851755"><ele>173.0</ele><time>2026-03-28T10:36:18Z</time></trkpt><trkpt lat="45.537002292887905" lon="10.780184439006131"><ele>172.0</ele><time>2026-03-28T10:36:19Z</time></trkpt><trkpt lat="45.53684079715208" lon="10.780202702054181"><ele>171.0</ele><time>2026-03-28T10:36:20Z</time></trkpt><trkpt lat="45.53668271661303" lon="10.780225327867356"><ele>170.0</ele><time>2026-03-28T10:36:21Z</time></trkpt><trkpt lat="45.53651700770014" lon="10.780251992634032"><ele>170.0</ele><time>2026-03-28T10:36:22Z</time></trkpt><trkpt lat="45.53635801789751" lon="10.780278234288486"><ele>170.0</ele><time>2026-03-28T10:36:23Z</time></trkpt><trkpt lat="45.53619437462273" lon="10.780305244022202"><ele>170.0</ele><time>2026-03-28T10:36:24Z</time></trkpt><trkpt lat="45.53602580989124" lon="10.780333066035427"><ele>168.25</ele><time>2026-03-28T10:36:25Z</time></trkpt><trkpt lat="45.53587423520214" lon="10.780358083803533"><ele>166.5</ele><time>2026-03-28T10:36:26Z</time></trkpt><trkpt lat="45.535730915143944" lon="10.780401876149007"><ele>164.75</ele><time>2026-03-28T10:36:27Z</time></trkpt><trkpt lat="45.53558196452095" lon="10.780428840062983"><ele>163.0</ele><time>2026-03-28T10:36:28Z</time></trkpt><trkpt lat="45.53542153010866" lon="10.78043340492969"><ele>163.33333333333334</ele><time>2026-03-28T10:36:29Z</time></trkpt><trkpt lat="45.535259243451826" lon="10.780461796369824"><ele>163.66666666666666</ele><time>2026-03-28T10:36:30Z</time></trkpt><trkpt lat="45.535094159715335" lon="10.780491054292295"><ele>164.0</ele><time>2026-03-28T10:36:31Z</time></trkpt><trkpt lat="45.53491328559673" lon="10.780519209904426"><ele>164.0</ele><time>2026-03-28T10:36:32Z</time></trkpt><trkpt lat="45.53473842868685" lon="10.780541505065479"><ele>164.0</ele><time>2026-03-28T10:36:33Z</time></trkpt><trkpt lat="45.5345674721467" lon="10.780561805327684"><ele>164.0</ele><time>2026-03-28T10:36:34Z</time></trkpt><trkpt lat="45.534414878288004" lon="10.780579925115893"><ele>163.33333333333331</ele><time>2026-03-28T10:36:35Z</time></trkpt><trkpt lat="45.53426477984996" lon="10.780596382977643"><ele>162.66666666666666</ele><time>2026-03-28T10:36:36Z</time></trkpt><trkpt lat="45.534103552657086" lon="10.780610248080286"><ele>162.0</ele><time>2026-03-28T10:36:37Z</time></trkpt><trkpt lat="45.53393947634208" lon="10.780623007084857"><ele>162.0</ele><time>2026-03-28T10:36:38Z</time></trkpt><trkpt lat="45.53377821457993" lon="10.780639206685363"><ele>162.0</ele><time>2026-03-28T10:36:39Z</time></trkpt><trkpt lat="45.53362845362909" lon="10.780683335379026"><ele>162.0</ele><time>2026-03-28T10:36:40Z</time></trkpt><trkpt lat="45.533489526892744" lon="10.780701118847142"><ele>162.5</ele><time>2026-03-28T10:36:41Z</time></trkpt><trkpt lat="45.5333628329815" lon="10.780756528330015"><ele>163.0</ele><time>2026-03-28T10:36:42Z</time></trkpt><trkpt lat="45.533212903350325" lon="10.780725028066074"><ele>163.5</ele><time>2026-03-28T10:36:43Z</time></trkpt><trkpt lat="45.53307634803883" lon="10.780742185143913"><ele>164.0</ele><time>2026-03-28T10:36:44Z</time></trkpt><trkpt lat="45.53294960143215" lon="10.780760474691553"><ele>164.5</ele><time>2026-03-28T10:36:45Z</time></trkpt><trkpt lat="45.532830143548075" lon="10.780782515845669"><ele>165.0</ele><time>2026-03-28T10:36:46Z</time></trkpt><trkpt lat="45.532709381259885" lon="10.780797642706217"><ele>165.5</ele><time>2026-03-28T10:36:47Z</time></trkpt><trkpt lat="45.53259757984066" lon="10.78080895307549"><ele>166.0</ele><time>2026-03-28T10:36:48Z</time></trkpt><trkpt lat="45.53249480852092" lon="10.78081794916519"><ele>166.0</ele><time>2026-03-28T10:36:49Z</time></trkpt><trkpt lat="45.53239787043454" lon="10.780831884091954"><ele>166.0</ele><time>2026-03-28T10:36:50Z</time></trkpt><trkpt lat="45.53231048586877" lon="10.780848473383383"><ele>166.0</ele><time>2026-03-28T10:36:51Z</time></trkpt><trkpt lat="45.53222663512601" lon="10.780874029937275"><ele>166.0</ele><time>2026-03-28T10:36:52Z</time></trkpt><trkpt lat="45.532143794512066" lon="10.780898954362984"><ele>166.0</ele><time>2026-03-28T10:36:53Z</time></trkpt><trkpt lat="45.53202407286387" lon="10.780908471886287"><ele>165.66666666666669</ele><time>2026-03-28T10:36:55Z</time></trkpt><trkpt lat="45.53193783443642" lon="10.780928518081824"><ele>165.33333333333334</ele><time>2026-03-28T10:36:57Z</time></trkpt><trkpt lat="45.53191377335843" lon="10.781054894169523"><ele>165.0</ele><time>2026-03-28T10:36:59Z</time></trkpt><trkpt lat="45.53194235762235" lon="10.78113764794609"><ele>164.66666666666666</ele><time>2026-03-28T10:37:00Z</time></trkpt><trkpt lat="45.53198967670043" lon="10.781235226883743"><ele>164.33333333333331</ele><time>2026-03-28T10:37:01Z</time></trkpt><trkpt lat="45.532038154255694" lon="10.781357727051804"><ele>164.0</ele><time>2026-03-28T10:37:02Z</time></trkpt><trkpt lat="45.53209354174458" lon="10.781505144875917"><ele>164.0</ele><time>2026-03-28T10:37:03Z</time></trkpt><trkpt lat="45.53215160292982" lon="10.781670394818757"><ele>164.0</ele><time>2026-03-28T10:37:04Z</time></trkpt><trkpt lat="45.53221214827031" lon="10.781868419168916"><ele>164.0</ele><time>2026-03-28T10:37:05Z</time></trkpt><trkpt lat="45.532280304947605" lon="10.782074662598015"><ele>164.0</ele><time>2026-03-28T10:37:06Z</time></trkpt><trkpt lat="45.53233658861024" lon="10.78226638895139"><ele>163.66666666666666</ele><time>2026-03-28T10:37:07Z</time></trkpt><trkpt lat="45.53237754037315" lon="10.782471641227588"><ele>163.33333333333334</ele><time>2026-03-28T10:37:08Z</time></trkpt><trkpt lat="45.532426895111364" lon="10.782681274780877"><ele>163.0</ele><time>2026-03-28T10:37:09Z</time></trkpt><trkpt lat="45.53248443544512" lon="10.78290171786607"><ele>163.0</ele><time>2026-03-28T10:37:10Z</time></trkpt><trkpt lat="45.532537877733006" lon="10.783117960940084"><ele>163.0</ele><time>2026-03-28T10:37:11Z</time></trkpt><trkpt lat="45.53257668201544" lon="10.783278351012848"><ele>163.0</ele><time>2026-03-28T10:37:12Z</time></trkpt><trkpt lat="45.53259935786521" lon="10.783445373086256"><ele>163.0</ele><time>2026-03-28T10:37:13Z</time></trkpt><trkpt lat="45.532600506598875" lon="10.783585065035748"><ele>163.4</ele><time>2026-03-28T10:37:14Z</time></trkpt><trkpt lat="45.5325695683538" lon="10.783707437491383"><ele>163.8</ele><time>2026-03-28T10:37:15Z</time></trkpt><trkpt lat="45.53252089834267" lon="10.783814518640913"><ele>164.2</ele><time>2026-03-28T10:37:16Z</time></trkpt><trkpt lat="45.53246030479594" lon="10.783938869190859"><ele>164.6</ele><time>2026-03-28T10:37:17Z</time></trkpt><trkpt lat="45.53240367239268" lon="10.784088524431773"><ele>165.0</ele><time>2026-03-28T10:37:18Z</time></trkpt><trkpt lat="45.5323531161454" lon="10.784243258122425"><ele>165.33333333333334</ele><time>2026-03-28T10:37:19Z</time></trkpt><trkpt lat="45.53231090756639" lon="10.784372880440664"><ele>165.66666666666666</ele><time>2026-03-28T10:37:20Z</time></trkpt><trkpt lat="45.53226883313925" lon="10.784488201949383"><ele>166.0</ele><time>2026-03-28T10:37:21Z</time></trkpt><trkpt lat="45.53224066855842" lon="10.784597248595754"><ele>166.33333333333331</ele><time>2026-03-28T10:37:22Z</time></trkpt><trkpt lat="45.53222299013585" lon="10.784723365591464"><ele>166.66666666666666</ele><time>2026-03-28T10:37:23Z</time></trkpt><trkpt lat="45.53222188158359" lon="10.78484194613462"><ele>167.0</ele><time>2026-03-28T10:37:24Z</time></trkpt><trkpt lat="45.5322429504969" lon="10.784961930960597"><ele>167.0</ele><time>2026-03-28T10:37:25Z</time></trkpt><trkpt lat="45.53227801843214" lon="10.785078243470291"><ele>167.0</ele><time>2026-03-28T10:37:26Z</time></trkpt><trkpt lat="45.53229947638998" lon="10.785182107415078"><ele>167.0</ele><time>2026-03-28T10:37:27Z</time></trkpt><trkpt lat="45.53228909500855" lon="10.785289982458783"><ele>167.0</ele><time>2026-03-28T10:37:28Z</time></trkpt><trkpt lat="45.532249888037995" lon="10.785402110405895"><ele>167.0</ele><time>2026-03-28T10:37:29Z</time></trkpt><trkpt lat="45.53218672675043" lon="10.785518902050983"><ele>167.0</ele><time>2026-03-28T10:37:30Z</time></trkpt><trkpt lat="45.53210605039465" lon="10.785641920074719"><ele>166.75</ele><time>2026-03-28T10:37:31Z</time></trkpt><trkpt lat="45.53202527350978" lon="10.785765889874694"><ele>166.5</ele><time>2026-03-28T10:37:32Z</time></trkpt><trkpt lat="45.53194194446295" lon="10.78588553403961"><ele>166.25</ele><time>2026-03-28T10:37:33Z</time></trkpt><trkpt lat="45.53185766903977" lon="10.785996110089458"><ele>166.0</ele><time>2026-03-28T10:37:34Z</time></trkpt><trkpt lat="45.53177331148158" lon="10.786102824502887"><ele>167.0</ele><time>2026-03-28T10:37:35Z</time></trkpt><trkpt lat="45.531685977862594" lon="10.786219289117627"><ele>168.0</ele><time>2026-03-28T10:37:36Z</time></trkpt><trkpt lat="45.53160017142088" lon="10.786358976609163"><ele>169.0</ele><time>2026-03-28T10:37:37Z</time></trkpt><trkpt lat="45.531511754605674" lon="10.786518327773246"><ele>170.0</ele><time>2026-03-28T10:37:38Z</time></trkpt><trkpt lat="45.53142804750652" lon="10.786674048476703"><ele>170.0</ele><time>2026-03-28T10:37:39Z</time></trkpt><trkpt lat="45.531340830759184" lon="10.786829688228675"><ele>170.0</ele><time>2026-03-28T10:37:40Z</time></trkpt><trkpt lat="45.53126651386897" lon="10.786969544023476"><ele>170.0</ele><time>2026-03-28T10:37:41Z</time></trkpt><trkpt lat="45.531204205614195" lon="10.787074740413212"><ele>170.0</ele><time>2026-03-28T10:37:42Z</time></trkpt><trkpt lat="45.53116437465081" lon="10.78715324051144"><ele>170.0</ele><time>2026-03-28T10:37:43Z</time></trkpt><trkpt lat="45.53113014305995" lon="10.787302902386879"><ele>170.16666666666666</ele><time>2026-03-28T10:37:45Z</time></trkpt><trkpt lat="45.531135333364844" lon="10.787398888610475"><ele>170.33333333333331</ele><time>2026-03-28T10:37:46Z</time></trkpt><trkpt lat="45.53115936688222" lon="10.78751642551061"><ele>170.5</ele><time>2026-03-28T10:37:47Z</time></trkpt><trkpt lat="45.53117622079823" lon="10.787654884434762"><ele>170.66666666666666</ele><time>2026-03-28T10:37:48Z</time></trkpt><trkpt lat="45.531208239213804" lon="10.787790349235204"><ele>170.83333333333334</ele><time>2026-03-28T10:37:49Z</time></trkpt><trkpt lat="45.53123715453659" lon="10.787901625451306"><ele>171.0</ele><time>2026-03-28T10:37:50Z</time></trkpt><trkpt lat="45.531280289456454" lon="10.788019799013577"><ele>172.16666666666666</ele><time>2026-03-28T10:37:51Z</time></trkpt><trkpt lat="45.531344939031975" lon="10.788133348113156"><ele>173.33333333333334</ele><time>2026-03-28T10:37:52Z</time></trkpt><trkpt lat="45.53139633193699" lon="10.788233608676936"><ele>174.5</ele><time>2026-03-28T10:37:53Z</time></trkpt><trkpt lat="45.531430482964176" lon="10.788333987433083"><ele>175.66666666666669</ele><time>2026-03-28T10:37:54Z</time></trkpt><trkpt lat="45.53146929542604" lon="10.788435320594653"><ele>176.83333333333334</ele><time>2026-03-28T10:37:55Z</time></trkpt><trkpt lat="45.531497665603716" lon="10.788533779756646"><ele>178.0</ele><time>2026-03-28T10:37:57Z</time></trkpt><trkpt lat="45.53153122917586" lon="10.788634723318756"><ele>178.0</ele><time>2026-03-28T10:38:02Z</time></trkpt><trkpt lat="45.53166101674511" lon="10.788575815621877"><ele>178.0</ele><time>2026-03-28T10:38:04Z</time></trkpt><trkpt lat="45.5317666387374" lon="10.788470218554332"><ele>178.0</ele><time>2026-03-28T10:38:05Z</time></trkpt><trkpt lat="45.53186931880745" lon="10.788382521599956"><ele>178.0</ele><time>2026-03-28T10:38:06Z</time></trkpt><trkpt lat="45.53198686985995" lon="10.788283136929584"><ele>178.66666666666669</ele><time>2026-03-28T10:38:07Z</time></trkpt><trkpt lat="45.5321173685427" lon="10.788181152744896"><ele>179.33333333333334</ele><time>2026-03-28T10:38:08Z</time></trkpt><trkpt lat="45.532253502989484" lon="10.788080699738662"><ele>180.0</ele><time>2026-03-28T10:38:09Z</time></trkpt><trkpt lat="45.532396954334835" lon="10.787992629295015"><ele>180.0</ele><time>2026-03-28T10:38:10Z</time></trkpt><trkpt lat="45.53252452791355" lon="10.787921105922274"><ele>180.0</ele><time>2026-03-28T10:38:11Z</time></trkpt><trkpt lat="45.53263253201031" lon="10.787870398793855"><ele>180.0</ele><time>2026-03-28T10:38:12Z</time></trkpt><trkpt lat="45.53272748928559" lon="10.787813862280503"><ele>180.0</ele><time>2026-03-28T10:38:13Z</time></trkpt><trkpt lat="45.53279143864451" lon="10.787770549014452"><ele>180.0</ele><time>2026-03-28T10:38:14Z</time></trkpt><trkpt lat="45.53287062614242" lon="10.787754415065194"><ele>180.25</ele><time>2026-03-28T10:38:16Z</time></trkpt><trkpt lat="45.53294175936322" lon="10.787916005384426"><ele>180.5</ele><time>2026-03-28T10:38:18Z</time></trkpt><trkpt lat="45.53299263718347" lon="10.78804886686"><ele>180.75</ele><time>2026-03-28T10:38:19Z</time></trkpt><trkpt lat="45.5330637933623" lon="10.788206252201856"><ele>181.0</ele><time>2026-03-28T10:38:20Z</time></trkpt><trkpt lat="45.53315059223365" lon="10.78837154754584"><ele>181.66666666666669</ele><time>2026-03-28T10:38:21Z</time></trkpt><trkpt lat="45.53333250377739" lon="10.788727616997381"><ele>182.33333333333334</ele><time>2026-03-28T10:38:23Z</time></trkpt><trkpt lat="45.53340579953425" lon="10.788878353720294"><ele>183.0</ele><time>2026-03-28T10:38:24Z</time></trkpt><trkpt lat="45.53346760353836" lon="10.789012152799982"><ele>183.0</ele><time>2026-03-28T10:38:25Z</time></trkpt><trkpt lat="45.533518091314384" lon="10.78913755133752"><ele>183.0</ele><time>2026-03-28T10:38:26Z</time></trkpt><trkpt lat="45.53357263077084" lon="10.789254182202168"><ele>183.0</ele><time>2026-03-28T10:38:27Z</time></trkpt><trkpt lat="45.53363781474515" lon="10.789394316663532"><ele>183.0</ele><time>2026-03-28T10:38:28Z</time></trkpt><trkpt lat="45.53371896347551" lon="10.789535913202808"><ele>183.0</ele><time>2026-03-28T10:38:29Z</time></trkpt><trkpt lat="45.53380851825085" lon="10.789671960639154"><ele>187.5</ele><time>2026-03-28T10:38:30Z</time></trkpt><trkpt lat="45.53390266077988" lon="10.789795343770043"><ele>192.0</ele><time>2026-03-28T10:38:31Z</time></trkpt><trkpt lat="45.53400321375921" lon="10.789894023333614"><ele>196.5</ele><time>2026-03-28T10:38:32Z</time></trkpt><trkpt lat="45.534116265781826" lon="10.789994317516134"><ele>201.0</ele><time>2026-03-28T10:38:33Z</time></trkpt><trkpt lat="45.53421133270626" lon="10.790092498071466"><ele>201.8</ele><time>2026-03-28T10:38:34Z</time></trkpt><trkpt lat="45.53428969181531" lon="10.790175623644409"><ele>202.60000000000002</ele><time>2026-03-28T10:38:35Z</time></trkpt><trkpt lat="45.534342077618966" lon="10.790230500658993"><ele>203.4</ele><time>2026-03-28T10:38:36Z</time></trkpt><trkpt lat="45.53443590880587" lon="10.790302241459575"><ele>204.2</ele><time>2026-03-28T10:38:38Z</time></trkpt><trkpt lat="45.534542999886156" lon="10.790353620621062"><ele>205.0</ele><time>2026-03-28T10:38:40Z</time></trkpt><trkpt lat="45.5346166294439" lon="10.790391962413445"><ele>205.49999999999997</ele><time>2026-03-28T10:38:41Z</time></trkpt><trkpt lat="45.53468764790365" lon="10.79049615167012"><ele>206.0</ele><time>2026-03-28T10:38:43Z</time></trkpt><trkpt lat="45.534729044792904" lon="10.790596344110382"><ele>206.5</ele><time>2026-03-28T10:38:44Z</time></trkpt><trkpt lat="45.5347798135928" lon="10.790701522426234"><ele>207.0</ele><time>2026-03-28T10:38:45Z</time></trkpt><trkpt lat="45.53483093045505" lon="10.790772418301142"><ele>207.49999999999997</ele><time>2026-03-28T10:38:46Z</time></trkpt><trkpt lat="45.53487577852668" lon="10.79084078303577"><ele>208.0</ele><time>2026-03-28T10:38:47Z</time></trkpt><trkpt lat="45.534946292955226" lon="10.79095183939969"><ele>208.0</ele><time>2026-03-28T10:38:49Z</time></trkpt><trkpt lat="45.535035879893165" lon="10.791055928970056"><ele>208.0</ele><time>2026-03-28T10:38:51Z</time></trkpt><trkpt lat="45.53509512425377" lon="10.791126859976112"><ele>208.0</ele><time>2026-03-28T10:38:52Z</time></trkpt><trkpt lat="45.5351646889071" lon="10.791208875047014"><ele>208.0</ele><time>2026-03-28T10:38:53Z</time></trkpt><trkpt lat="45.535240667046516" lon="10.791114794962814"><ele>208.0</ele><time>2026-03-28T10:38:54Z</time></trkpt><trkpt lat="45.53517174612344" lon="10.790998270927087"><ele>202.0</ele><time>2026-03-28T10:38:57Z</time></trkpt><trkpt lat="45.535575393687196" lon="10.791096731228825"><ele>196.0</ele><time>2026-03-28T10:39:18Z</time></trkpt><trkpt lat="45.53568817085786" lon="10.791122299734417"><ele>195.99999999999997</ele><time>2026-03-28T10:39:20Z</time></trkpt><trkpt lat="45.53574676606035" lon="10.79116188583904"><ele>196.0</ele><time>2026-03-28T10:39:21Z</time></trkpt><trkpt lat="45.535812412482954" lon="10.791243325738414"><ele>196.0</ele><time>2026-03-28T10:39:22Z</time></trkpt><trkpt lat="45.535878428530275" lon="10.791343321740015"><ele>196.0</ele><time>2026-03-28T10:39:23Z</time></trkpt><trkpt lat="45.53592244099856" lon="10.79143319729468"><ele>195.99999999999997</ele><time>2026-03-28T10:39:24Z</time></trkpt><trkpt lat="45.53594943923017" lon="10.791541930098722"><ele>196.0</ele><time>2026-03-28T10:39:25Z</time></trkpt><trkpt lat="45.5360666936278" lon="10.79166697955812"><ele>195.99999999999997</ele><time>2026-03-28T10:39:28Z</time></trkpt><trkpt lat="45.53612686682747" lon="10.791637187327064"><ele>196.0</ele><time>2026-03-28T10:39:30Z</time></trkpt><trkpt lat="45.536197126725106" lon="10.791561344999794"><ele>196.0</ele><time>2026-03-28T10:39:32Z</time></trkpt><trkpt lat="45.536250946867334" lon="10.791418255103366"><ele>196.0</ele><time>2026-03-28T10:39:34Z</time></trkpt><trkpt lat="45.536302999654055" lon="10.791357998130552"><ele>195.99999999999997</ele><time>2026-03-28T10:39:35Z</time></trkpt><trkpt lat="45.53640695376291" lon="10.791331548234377"><ele>196.0</ele><time>2026-03-28T10:39:37Z</time></trkpt><trkpt lat="45.536478800517344" lon="10.791340731056248"><ele>193.99999999999997</ele><time>2026-03-28T10:39:38Z</time></trkpt><trkpt lat="45.53656339656012" lon="10.791340315462708"><ele>192.0</ele><time>2026-03-28T10:39:39Z</time></trkpt><trkpt lat="45.53663514307781" lon="10.791333544286067"><ele>190.0</ele><time>2026-03-28T10:39:40Z</time></trkpt><trkpt lat="45.53671815038236" lon="10.791381407792336"><ele>188.0</ele><time>2026-03-28T10:39:42Z</time></trkpt><trkpt lat="45.53680617627084" lon="10.791356469158922"><ele>186.0</ele><time>2026-03-28T10:39:45Z</time></trkpt><trkpt lat="45.53688884989857" lon="10.791287932642398"><ele>184.0</ele><time>2026-03-28T10:39:47Z</time></trkpt><trkpt lat="45.5369684368554" lon="10.79120549292"><ele>184.0</ele><time>2026-03-28T10:39:49Z</time></trkpt><trkpt lat="45.537027269077065" lon="10.79117348416222"><ele>184.0</ele><time>2026-03-28T10:39:50Z</time></trkpt><trkpt lat="45.537092205977885" lon="10.791079898267059"><ele>184.0</ele><time>2026-03-28T10:39:52Z</time></trkpt><trkpt lat="45.53716123676624" lon="10.791003694813352"><ele>184.0</ele><time>2026-03-28T10:39:54Z</time></trkpt><trkpt lat="45.53726873566407" lon="10.790953084230345"><ele>184.0</ele><time>2026-03-28T10:39:56Z</time></trkpt><trkpt lat="45.53736084951508" lon="10.79094414721244"><ele>184.0</ele><time>2026-03-28T10:39:58Z</time></trkpt><trkpt lat="45.537453457070086" lon="10.790883240047512"><ele>185.0</ele><time>2026-03-28T10:40:00Z</time></trkpt><trkpt lat="45.5375314684188" lon="10.790820544864111"><ele>186.0</ele><time>2026-03-28T10:40:02Z</time></trkpt><trkpt lat="45.537601239546746" lon="10.790767234178906"><ele>187.0</ele><time>2026-03-28T10:40:04Z</time></trkpt><trkpt lat="45.537703755832986" lon="10.790699026157661"><ele>188.0</ele><time>2026-03-28T10:40:06Z</time></trkpt><trkpt lat="45.53777138396329" lon="10.790680270876287"><ele>189.0</ele><time>2026-03-28T10:40:07Z</time></trkpt><trkpt lat="45.53787872486839" lon="10.790635033928694"><ele>185.66666666666666</ele><time>2026-03-28T10:40:09Z</time></trkpt><trkpt lat="45.53798784604058" lon="10.79056081906464"><ele>182.33333333333334</ele><time>2026-03-28T10:40:11Z</time></trkpt><trkpt lat="45.538043922701064" lon="10.790500018190274"><ele>179.0</ele><time>2026-03-28T10:40:12Z</time></trkpt><trkpt lat="45.53810277489207" lon="10.790432285570727"><ele>175.66666666666669</ele><time>2026-03-28T10:40:13Z</time></trkpt><trkpt lat="45.53815560590774" lon="10.79034747855142"><ele>172.33333333333334</ele><time>2026-03-28T10:40:14Z</time></trkpt><trkpt lat="45.53822570627947" lon="10.790298175471673"><ele>169.0</ele><time>2026-03-28T10:40:15Z</time></trkpt><trkpt lat="45.53827833706335" lon="10.79023468104022"><ele>171.33333333333334</ele><time>2026-03-28T10:40:16Z</time></trkpt><trkpt lat="45.5383278922864" lon="10.790161399001162"><ele>173.66666666666669</ele><time>2026-03-28T10:40:17Z</time></trkpt><trkpt lat="45.53840724070888" lon="10.790071897200388"><ele>176.0</ele><time>2026-03-28T10:40:18Z</time></trkpt><trkpt lat="45.538468125784945" lon="10.789974975641963"><ele>178.33333333333334</ele><time>2026-03-28T10:40:19Z</time></trkpt><trkpt lat="45.53851498082713" lon="10.78987624496591"><ele>180.66666666666666</ele><time>2026-03-28T10:40:20Z</time></trkpt><trkpt lat="45.53856916770106" lon="10.789778275834847"><ele>183.0</ele><time>2026-03-28T10:40:21Z</time></trkpt><trkpt lat="45.5386251386454" lon="10.789693305962814"><ele>183.0</ele><time>2026-03-28T10:40:22Z</time></trkpt><trkpt lat="45.538687717593646" lon="10.789607326205209"><ele>183.0</ele><time>2026-03-28T10:40:23Z</time></trkpt><trkpt lat="45.53875728334503" lon="10.789536934056247"><ele>183.0</ele><time>2026-03-28T10:40:24Z</time></trkpt><trkpt lat="45.538823855541466" lon="10.789468417359945"><ele>183.0</ele><time>2026-03-28T10:40:25Z</time></trkpt><trkpt lat="45.538891756078975" lon="10.789385670276747"><ele>183.0</ele><time>2026-03-28T10:40:26Z</time></trkpt><trkpt lat="45.53894738895157" lon="10.789293429820818"><ele>183.0</ele><time>2026-03-28T10:40:27Z</time></trkpt><trkpt lat="45.53901539871212" lon="10.789198287877214"><ele>181.60000000000002</ele><time>2026-03-28T10:40:28Z</time></trkpt><trkpt lat="45.53909619033032" lon="10.789106248844092"><ele>180.20000000000002</ele><time>2026-03-28T10:40:29Z</time></trkpt><trkpt lat="45.539148087242445" lon="10.788969936465811"><ele>178.8</ele><time>2026-03-28T10:40:30Z</time></trkpt><trkpt lat="45.53919259241704" lon="10.78884962312217"><ele>177.4</ele><time>2026-03-28T10:40:31Z</time></trkpt><trkpt lat="45.53925870983839" lon="10.788742447365122"><ele>176.0</ele><time>2026-03-28T10:40:32Z</time></trkpt><trkpt lat="45.53930886468603" lon="10.788650332520563"><ele>176.0</ele><time>2026-03-28T10:40:33Z</time></trkpt><trkpt lat="45.539353534928814" lon="10.788565540077071"><ele>176.0</ele><time>2026-03-28T10:40:34Z</time></trkpt><trkpt lat="45.539404917721775" lon="10.78848375908172"><ele>176.0</ele><time>2026-03-28T10:40:35Z</time></trkpt><trkpt lat="45.5394512714381" lon="10.788361527886243"><ele>176.0</ele><time>2026-03-28T10:40:36Z</time></trkpt><trkpt lat="45.53947771201203" lon="10.788223989765726"><ele>176.0</ele><time>2026-03-28T10:40:37Z</time></trkpt><trkpt lat="45.539516083077984" lon="10.788116415345495"><ele>176.0</ele><time>2026-03-28T10:40:38Z</time></trkpt><trkpt lat="45.53955857044867" lon="10.788024113789781"><ele>175.5</ele><time>2026-03-28T10:40:39Z</time></trkpt><trkpt lat="45.53961233976662" lon="10.787937357597375"><ele>175.0</ele><time>2026-03-28T10:40:40Z</time></trkpt><trkpt lat="45.53966767555122" lon="10.787884982212635"><ele>174.5</ele><time>2026-03-28T10:40:41Z</time></trkpt><trkpt lat="45.539741272486445" lon="10.787798008963629"><ele>174.0</ele><time>2026-03-28T10:40:42Z</time></trkpt><trkpt lat="45.53980280174655" lon="10.787720108376961"><ele>173.5</ele><time>2026-03-28T10:40:43Z</time></trkpt><trkpt lat="45.5398742854931" lon="10.787651420871146"><ele>173.0</ele><time>2026-03-28T10:40:44Z</time></trkpt><trkpt lat="45.539966918947314" lon="10.787595888559856"><ele>175.0</ele><time>2026-03-28T10:40:45Z</time></trkpt><trkpt lat="45.540046892373155" lon="10.787517707775303"><ele>177.0</ele><time>2026-03-28T10:40:46Z</time></trkpt><trkpt lat="45.54011482027938" lon="10.787434123777329"><ele>179.0</ele><time>2026-03-28T10:40:47Z</time></trkpt><trkpt lat="45.540177339908894" lon="10.787340009805137"><ele>181.0</ele><time>2026-03-28T10:40:48Z</time></trkpt><trkpt lat="45.540235933544075" lon="10.787244528163628"><ele>183.0</ele><time>2026-03-28T10:40:49Z</time></trkpt><trkpt lat="45.540299599678036" lon="10.787158432291642"><ele>183.0</ele><time>2026-03-28T10:40:50Z</time></trkpt><trkpt lat="45.5403513869768" lon="10.787086908078091"><ele>183.0</ele><time>2026-03-28T10:40:51Z</time></trkpt><trkpt lat="45.540403514481135" lon="10.787018008394098"><ele>183.0</ele><time>2026-03-28T10:40:52Z</time></trkpt><trkpt lat="45.54043124291119" lon="10.786923106974378"><ele>183.0</ele><time>2026-03-28T10:40:53Z</time></trkpt><trkpt lat="45.54051703359543" lon="10.786767472958287"><ele>183.0</ele><time>2026-03-28T10:40:55Z</time></trkpt><trkpt lat="45.54051373674606" lon="10.786636440633089"><ele>183.0</ele><time>2026-03-28T10:40:56Z</time></trkpt><trkpt lat="45.54053152087437" lon="10.786511340524713"><ele>183.33333333333334</ele><time>2026-03-28T10:40:58Z</time></trkpt><trkpt lat="45.54058289045181" lon="10.78635800390461"><ele>183.66666666666666</ele><time>2026-03-28T10:41:00Z</time></trkpt><trkpt lat="45.54061938083095" lon="10.786280119084363"><ele>184.0</ele><time>2026-03-28T10:41:01Z</time></trkpt><trkpt lat="45.5406799556867" lon="10.786157619199123"><ele>184.33333333333331</ele><time>2026-03-28T10:41:03Z</time></trkpt><trkpt lat="45.54071348545924" lon="10.786076436583617"><ele>184.66666666666666</ele><time>2026-03-28T10:41:04Z</time></trkpt><trkpt lat="45.540771454914605" lon="10.78600585298933"><ele>185.0</ele><time>2026-03-28T10:41:05Z</time></trkpt><trkpt lat="45.54082135415229" lon="10.785896144048108"><ele>185.0</ele><time>2026-03-28T10:41:06Z</time></trkpt><trkpt lat="45.540899075407026" lon="10.785794191115302"><ele>185.0</ele><time>2026-03-28T10:41:07Z</time></trkpt><trkpt lat="45.540958157901905" lon="10.785673295803452"><ele>185.0</ele><time>2026-03-28T10:41:08Z</time></trkpt><trkpt lat="45.54102537051091" lon="10.785580532784763"><ele>185.0</ele><time>2026-03-28T10:41:09Z</time></trkpt><trkpt lat="45.54111253118435" lon="10.785501871979916"><ele>185.0</ele><time>2026-03-28T10:41:10Z</time></trkpt><trkpt lat="45.54119359524309" lon="10.785407923861552"><ele>184.8</ele><time>2026-03-28T10:41:11Z</time></trkpt><trkpt lat="45.54126971981346" lon="10.785326074062564"><ele>184.6</ele><time>2026-03-28T10:41:12Z</time></trkpt><trkpt lat="45.54133782208653" lon="10.785235177576544"><ele>184.39999999999998</ele><time>2026-03-28T10:41:13Z</time></trkpt><trkpt lat="45.54142806507197" lon="10.785165959477407"><ele>184.2</ele><time>2026-03-28T10:41:14Z</time></trkpt><trkpt lat="45.54154498984699" lon="10.785117160706248"><ele>184.0</ele><time>2026-03-28T10:41:15Z</time></trkpt><trkpt lat="45.54164501031738" lon="10.78502491882817"><ele>184.0</ele><time>2026-03-28T10:41:16Z</time></trkpt><trkpt lat="45.54174742000942" lon="10.78496038566622"><ele>184.0</ele><time>2026-03-28T10:41:17Z</time></trkpt><trkpt lat="45.541855355810995" lon="10.784877970005383"><ele>184.0</ele><time>2026-03-28T10:41:18Z</time></trkpt><trkpt lat="45.54195538389252" lon="10.784802743641457"><ele>184.0</ele><time>2026-03-28T10:41:19Z</time></trkpt><trkpt lat="45.54204190084549" lon="10.784738089978273"><ele>184.0</ele><time>2026-03-28T10:41:20Z</time></trkpt><trkpt lat="45.5421160445464" lon="10.78467439126553"><ele>183.5</ele><time>2026-03-28T10:41:21Z</time></trkpt><trkpt lat="45.54218668901598" lon="10.784574627459412"><ele>183.0</ele><time>2026-03-28T10:41:22Z</time></trkpt><trkpt lat="45.54225859554011" lon="10.784447970427815"><ele>182.5</ele><time>2026-03-28T10:41:23Z</time></trkpt><trkpt lat="45.542336770265045" lon="10.784293700453487"><ele>182.0</ele><time>2026-03-28T10:41:24Z</time></trkpt><trkpt lat="45.542419882573824" lon="10.784118666735365"><ele>183.33333333333331</ele><time>2026-03-28T10:41:25Z</time></trkpt><trkpt lat="45.542510230486805" lon="10.783928797634825"><ele>184.66666666666666</ele><time>2026-03-28T10:41:26Z</time></trkpt><trkpt lat="45.54260193833305" lon="10.783758267908153"><ele>186.0</ele><time>2026-03-28T10:41:27Z</time></trkpt><trkpt lat="45.54271507260365" lon="10.783591414429502"><ele>186.0</ele><time>2026-03-28T10:41:28Z</time></trkpt><trkpt lat="45.54285025771401" lon="10.783443341491635"><ele>186.0</ele><time>2026-03-28T10:41:29Z</time></trkpt><trkpt lat="45.54298401841922" lon="10.783288382567013"><ele>186.0</ele><time>2026-03-28T10:41:30Z</time></trkpt><trkpt lat="45.54308663732265" lon="10.78315856999517"><ele>186.0</ele><time>2026-03-28T10:41:31Z</time></trkpt><trkpt lat="45.543171227107734" lon="10.78304187623333"><ele>186.0</ele><time>2026-03-28T10:41:32Z</time></trkpt><trkpt lat="45.54323949659215" lon="10.782922453686448"><ele>186.0</ele><time>2026-03-28T10:41:33Z</time></trkpt><trkpt lat="45.54328549744767" lon="10.782799692287428"><ele>186.0</ele><time>2026-03-28T10:41:34Z</time></trkpt><trkpt lat="45.54329249473516" lon="10.782682894854714"><ele>186.0</ele><time>2026-03-28T10:41:35Z</time></trkpt><trkpt lat="45.543287197575964" lon="10.782590404069945"><ele>187.0</ele><time>2026-03-28T10:41:37Z</time></trkpt><trkpt lat="45.54328996150289" lon="10.782471355874236"><ele>188.0</ele><time>2026-03-28T10:41:44Z</time></trkpt><trkpt lat="45.54321514676446" lon="10.782350898671444"><ele>189.0</ele><time>2026-03-28T10:41:45Z</time></trkpt><trkpt lat="45.54318251639237" lon="10.782215518202861"><ele>190.0</ele><time>2026-03-28T10:41:46Z</time></trkpt><trkpt lat="45.54316006794131" lon="10.782096860254418"><ele>191.0</ele><time>2026-03-28T10:41:47Z</time></trkpt><trkpt lat="45.543137219821865" lon="10.781977407160982"><ele>191.0</ele><time>2026-03-28T10:41:48Z</time></trkpt><trkpt lat="45.5431219319862" lon="10.781859894842867"><ele>191.0</ele><time>2026-03-28T10:41:49Z</time></trkpt><trkpt lat="45.5431169333022" lon="10.781744039596134"><ele>191.0</ele><time>2026-03-28T10:41:50Z</time></trkpt><trkpt lat="45.54319240053407" lon="10.78165204582012"><ele>191.0</ele><time>2026-03-28T10:41:51Z</time></trkpt><trkpt lat="45.54323804383639" lon="10.78149562325474"><ele>191.0</ele><time>2026-03-28T10:41:52Z</time></trkpt><trkpt lat="45.54330081447906" lon="10.781339243686011"><ele>191.0</ele><time>2026-03-28T10:41:53Z</time></trkpt><trkpt lat="45.54335283242665" lon="10.781217218653781"><ele>191.0</ele><time>2026-03-28T10:41:54Z</time></trkpt><trkpt lat="45.543388424456175" lon="10.781124533348628"><ele>191.0</ele><time>2026-03-28T10:41:55Z</time></trkpt><trkpt lat="45.54345429306058" lon="10.78104131788349"><ele>191.0</ele><time>2026-03-28T10:41:57Z</time></trkpt><trkpt lat="45.54354598640475" lon="10.781096226764163"><ele>191.0</ele><time>2026-03-28T10:41:58Z</time></trkpt><trkpt lat="45.54361457341563" lon="10.78118664736972"><ele>191.0</ele><time>2026-03-28T10:41:59Z</time></trkpt><trkpt lat="45.54368044212472" lon="10.781320712246043"><ele>191.0</ele><time>2026-03-28T10:42:00Z</time></trkpt><trkpt lat="45.54376067992387" lon="10.781476878279234"><ele>191.0</ele><time>2026-03-28T10:42:01Z</time></trkpt><trkpt lat="45.54385236250224" lon="10.781616258740222"><ele>191.0</ele><time>2026-03-28T10:42:02Z</time></trkpt><trkpt lat="45.54396686397246" lon="10.781761456946198"><ele>189.66666666666666</ele><time>2026-03-28T10:42:03Z</time></trkpt><trkpt lat="45.54410256848678" lon="10.781916826450745"><ele>188.33333333333334</ele><time>2026-03-28T10:42:04Z</time></trkpt><trkpt lat="45.54424429772952" lon="10.782081238976861"><ele>187.0</ele><time>2026-03-28T10:42:05Z</time></trkpt><trkpt lat="45.544391735194516" lon="10.782272045060289"><ele>187.0</ele><time>2026-03-28T10:42:06Z</time></trkpt><trkpt lat="45.54454332742227" lon="10.782477093439844"><ele>187.0</ele><time>2026-03-28T10:42:07Z</time></trkpt><trkpt lat="45.544706204320185" lon="10.782674076557846"><ele>187.0</ele><time>2026-03-28T10:42:08Z</time></trkpt><trkpt lat="45.54487973735286" lon="10.782877035868808"><ele>186.0</ele><time>2026-03-28T10:42:09Z</time></trkpt><trkpt lat="45.545052302119544" lon="10.783097717710742"><ele>185.0</ele><time>2026-03-28T10:42:10Z</time></trkpt><trkpt lat="45.5452086382152" lon="10.783316162521254"><ele>184.66666666666666</ele><time>2026-03-28T10:42:11Z</time></trkpt><trkpt lat="45.545352670400284" lon="10.783533118025392"><ele>184.33333333333334</ele><time>2026-03-28T10:42:12Z</time></trkpt><trkpt lat="45.54548484751788" lon="10.783742570661843"><ele>184.0</ele><time>2026-03-28T10:42:13Z</time></trkpt><trkpt lat="45.54561536205423" lon="10.783944536095335"><ele>184.0</ele><time>2026-03-28T10:42:14Z</time></trkpt><trkpt lat="45.545722058657184" lon="10.78412365298213"><ele>184.0</ele><time>2026-03-28T10:42:15Z</time></trkpt><trkpt lat="45.54582333814482" lon="10.784295399963295"><ele>184.0</ele><time>2026-03-28T10:42:16Z</time></trkpt><trkpt lat="45.545918306230575" lon="10.78445274939255"><ele>183.33333333333334</ele><time>2026-03-28T10:42:17Z</time></trkpt><trkpt lat="45.546015284190084" lon="10.784617379579242"><ele>182.66666666666666</ele><time>2026-03-28T10:42:18Z</time></trkpt><trkpt lat="45.546110537832895" lon="10.784785124129467"><ele>182.0</ele><time>2026-03-28T10:42:19Z</time></trkpt><trkpt lat="45.54621955268764" lon="10.784963527824525"><ele>182.0</ele><time>2026-03-28T10:42:20Z</time></trkpt><trkpt lat="45.54633694559762" lon="10.785151532101006"><ele>182.0</ele><time>2026-03-28T10:42:21Z</time></trkpt><trkpt lat="45.546451588688655" lon="10.78537007880245"><ele>182.0</ele><time>2026-03-28T10:42:22Z</time></trkpt><trkpt lat="45.54656134255838" lon="10.785600736356606"><ele>182.0</ele><time>2026-03-28T10:42:23Z</time></trkpt><trkpt lat="45.5466926780108" lon="10.785841739389136"><ele>182.0</ele><time>2026-03-28T10:42:24Z</time></trkpt><trkpt lat="45.546833491158594" lon="10.786079674606544"><ele>182.0</ele><time>2026-03-28T10:42:25Z</time></trkpt><trkpt lat="45.54698526236135" lon="10.786331060809937"><ele>177.5</ele><time>2026-03-28T10:42:26Z</time></trkpt><trkpt lat="45.54713443717919" lon="10.786581850418605"><ele>173.0</ele><time>2026-03-28T10:42:27Z</time></trkpt><trkpt lat="45.54727738155968" lon="10.786835412884157"><ele>173.0</ele><time>2026-03-28T10:42:28Z</time></trkpt><trkpt lat="45.54741114968385" lon="10.787083481944311"><ele>173.0</ele><time>2026-03-28T10:42:29Z</time></trkpt><trkpt lat="45.54753930027738" lon="10.787329125402302"><ele>173.0</ele><time>2026-03-28T10:42:30Z</time></trkpt><trkpt lat="45.54766530944202" lon="10.787567668710835"><ele>173.0</ele><time>2026-03-28T10:42:31Z</time></trkpt><trkpt lat="45.54778466177683" lon="10.787786238002141"><ele>173.0</ele><time>2026-03-28T10:42:32Z</time></trkpt><trkpt lat="45.547894965372244" lon="10.78798572956298"><ele>173.0</ele><time>2026-03-28T10:42:33Z</time></trkpt><trkpt lat="45.54799419831212" lon="10.788168411822825"><ele>173.60000000000002</ele><time>2026-03-28T10:42:34Z</time></trkpt><trkpt lat="45.54807491146226" lon="10.78832326668683"><ele>174.20000000000002</ele><time>2026-03-28T10:42:35Z</time></trkpt><trkpt lat="45.54814437932336" lon="10.788457158641508"><ele>174.8</ele><time>2026-03-28T10:42:36Z</time></trkpt><trkpt lat="45.548211784774395" lon="10.788559604938815"><ele>175.4</ele><time>2026-03-28T10:42:37Z</time></trkpt><trkpt lat="45.548266890491306" lon="10.788633696384212"><ele>176.0</ele><time>2026-03-28T10:42:38Z</time></trkpt><trkpt lat="45.548310915213385" lon="10.78869902517662"><ele>176.83333333333331</ele><time>2026-03-28T10:42:39Z</time></trkpt><trkpt lat="45.54825871316624" lon="10.788826353686503"><ele>177.66666666666666</ele><time>2026-03-28T10:42:42Z</time></trkpt><trkpt lat="45.54820815337239" lon="10.788881320312557"><ele>178.5</ele><time>2026-03-28T10:42:43Z</time></trkpt><trkpt lat="45.54813664428429" lon="10.788959459618745"><ele>179.33333333333334</ele><time>2026-03-28T10:42:44Z</time></trkpt><trkpt lat="45.54806185419463" lon="10.789039001361788"><ele>180.16666666666669</ele><time>2026-03-28T10:42:45Z</time></trkpt><trkpt lat="45.54799375311676" lon="10.789131087020923"><ele>181.0</ele><time>2026-03-28T10:42:46Z</time></trkpt><trkpt lat="45.547925031926766" lon="10.78921922078935"><ele>181.66666666666669</ele><time>2026-03-28T10:42:47Z</time></trkpt><trkpt lat="45.54775445638449" lon="10.78938617026592"><ele>182.33333333333334</ele><time>2026-03-28T10:42:48Z</time></trkpt><trkpt lat="45.547642719382786" lon="10.78951019798423"><ele>183.0</ele><time>2026-03-28T10:42:49Z</time></trkpt><trkpt lat="45.54754515198191" lon="10.789615816900426"><ele>183.0</ele><time>2026-03-28T10:42:50Z</time></trkpt><trkpt lat="45.54745943177642" lon="10.78967337401303"><ele>183.0</ele><time>2026-03-28T10:42:51Z</time></trkpt><trkpt lat="45.54736200786323" lon="10.789721461163245"><ele>183.0</ele><time>2026-03-28T10:42:52Z</time></trkpt><trkpt lat="45.547245571890414" lon="10.789780859766479"><ele>183.0</ele><time>2026-03-28T10:42:53Z</time></trkpt><trkpt lat="45.547136538547115" lon="10.789836481945061"><ele>183.0</ele><time>2026-03-28T10:42:54Z</time></trkpt><trkpt lat="45.54704093759596" lon="10.789886573545148"><ele>182.60000000000002</ele><time>2026-03-28T10:42:55Z</time></trkpt><trkpt lat="45.54694576880116" lon="10.789936665044413"><ele>182.20000000000002</ele><time>2026-03-28T10:42:56Z</time></trkpt><trkpt lat="45.54685629291745" lon="10.78999241728527"><ele>181.8</ele><time>2026-03-28T10:42:57Z</time></trkpt><trkpt lat="45.5467745061374" lon="10.790056374346936"><ele>181.4</ele><time>2026-03-28T10:42:58Z</time></trkpt><trkpt lat="45.54670495634244" lon="10.790149306759767"><ele>181.0</ele><time>2026-03-28T10:42:59Z</time></trkpt><trkpt lat="45.546673412546724" lon="10.79031657120991"><ele>180.75</ele><time>2026-03-28T10:43:00Z</time></trkpt><trkpt lat="45.546652901051374" lon="10.790454669239981"><ele>180.5</ele><time>2026-03-28T10:43:01Z</time></trkpt><trkpt lat="45.546631603118705" lon="10.790621356519614"><ele>180.25</ele><time>2026-03-28T10:43:02Z</time></trkpt><trkpt lat="45.546600163466906" lon="10.790831646569822"><ele>180.0</ele><time>2026-03-28T10:43:03Z</time></trkpt><trkpt lat="45.546564978436336" lon="10.79106603132899"><ele>181.0</ele><time>2026-03-28T10:43:04Z</time></trkpt><trkpt lat="45.54652845316681" lon="10.791291920745405"><ele>182.0</ele><time>2026-03-28T10:43:05Z</time></trkpt><trkpt lat="45.54648978991957" lon="10.791541849019389"><ele>183.0</ele><time>2026-03-28T10:43:06Z</time></trkpt><trkpt lat="45.546450997671016" lon="10.791796388818124"><ele>183.0</ele><time>2026-03-28T10:43:07Z</time></trkpt><trkpt lat="45.54641238852281" lon="10.792037111915928"><ele>183.0</ele><time>2026-03-28T10:43:08Z</time></trkpt><trkpt lat="45.546375565205" lon="10.792257223025178"><ele>183.0</ele><time>2026-03-28T10:43:09Z</time></trkpt><trkpt lat="45.54634718387549" lon="10.792451314690076"><ele>183.0</ele><time>2026-03-28T10:43:10Z</time></trkpt><trkpt lat="45.546318793876594" lon="10.792638874059042"><ele>183.0</ele><time>2026-03-28T10:43:11Z</time></trkpt><trkpt lat="45.54629278384828" lon="10.792800692483425"><ele>183.0</ele><time>2026-03-28T10:43:12Z</time></trkpt><trkpt lat="45.54627954773079" lon="10.792918105687837"><ele>183.0</ele><time>2026-03-28T10:43:13Z</time></trkpt><trkpt lat="45.54626679986449" lon="10.79303712662327"><ele>183.0</ele><time>2026-03-28T10:43:15Z</time></trkpt><trkpt lat="45.54644900996946" lon="10.793124056414706"><ele>182.75</ele><time>2026-03-28T10:43:18Z</time></trkpt><trkpt lat="45.546550805568906" lon="10.793159691880067"><ele>182.5</ele><time>2026-03-28T10:43:19Z</time></trkpt><trkpt lat="45.54666071044318" lon="10.793203383749217"><ele>182.25</ele><time>2026-03-28T10:43:20Z</time></trkpt><trkpt lat="45.54678909704124" lon="10.793239674567644"><ele>182.0</ele><time>2026-03-28T10:43:21Z</time></trkpt><trkpt lat="45.54692260213302" lon="10.793310086578922"><ele>182.0</ele><time>2026-03-28T10:43:22Z</time></trkpt><trkpt lat="45.547047632412436" lon="10.793356948765426"><ele>182.0</ele><time>2026-03-28T10:43:23Z</time></trkpt><trkpt lat="45.547147521977124" lon="10.793413484433975"><ele>182.0</ele><time>2026-03-28T10:43:24Z</time></trkpt><trkpt lat="45.54723073017082" lon="10.793460766832329"><ele>182.0</ele><time>2026-03-28T10:43:25Z</time></trkpt><trkpt lat="45.547293786399855" lon="10.793502028481305"><ele>182.0</ele><time>2026-03-28T10:43:26Z</time></trkpt><trkpt lat="45.54740999250612" lon="10.793505207967616"><ele>182.0</ele><time>2026-03-28T10:43:28Z</time></trkpt><trkpt lat="45.54749980850342" lon="10.79339074477556"><ele>182.0</ele><time>2026-03-28T10:43:30Z</time></trkpt><trkpt lat="45.54750312005423" lon="10.793251561502034"><ele>182.0</ele><time>2026-03-28T10:43:31Z</time></trkpt><trkpt lat="45.547534384250866" lon="10.79311154367177"><ele>182.0</ele><time>2026-03-28T10:43:32Z</time></trkpt><trkpt lat="45.54754785804983" lon="10.792937657723936"><ele>182.0</ele><time>2026-03-28T10:43:33Z</time></trkpt><trkpt lat="45.54757399304277" lon="10.79278578174498"><ele>181.8</ele><time>2026-03-28T10:43:34Z</time></trkpt><trkpt lat="45.547593487695856" lon="10.792668137581598"><ele>181.6</ele><time>2026-03-28T10:43:35Z</time></trkpt><trkpt lat="45.54762716432731" lon="10.79258739773855"><ele>181.4</ele><time>2026-03-28T10:43:36Z</time></trkpt><trkpt lat="45.5476713838307" lon="10.792454814704659"><ele>181.20000000000002</ele><time>2026-03-28T10:43:38Z</time></trkpt><trkpt lat="45.54779103241317" lon="10.79239368373158"><ele>181.0</ele><time>2026-03-28T10:43:40Z</time></trkpt><trkpt lat="45.547863208220825" lon="10.792412247997406"><ele>181.4</ele><time>2026-03-28T10:43:41Z</time></trkpt><trkpt lat="45.54792007022864" lon="10.792460490873324"><ele>181.8</ele><time>2026-03-28T10:43:42Z</time></trkpt><trkpt lat="45.54795578921112" lon="10.79255995946349"><ele>182.20000000000002</ele><time>2026-03-28T10:43:43Z</time></trkpt><trkpt lat="45.54803529981208" lon="10.792618680543052"><ele>182.60000000000002</ele><time>2026-03-28T10:43:44Z</time></trkpt><trkpt lat="45.54812249770606" lon="10.792703242525919"><ele>183.0</ele><time>2026-03-28T10:43:45Z</time></trkpt><trkpt lat="45.54822599916672" lon="10.792771119174745"><ele>183.0</ele><time>2026-03-28T10:43:46Z</time></trkpt><trkpt lat="45.548322416418756" lon="10.792802442469863"><ele>183.0</ele><time>2026-03-28T10:43:47Z</time></trkpt><trkpt lat="45.548435583731" lon="10.79283312864203"><ele>183.0</ele><time>2026-03-28T10:43:48Z</time></trkpt><trkpt lat="45.5485554669063" lon="10.79285027308189"><ele>183.0</ele><time>2026-03-28T10:43:49Z</time></trkpt><trkpt lat="45.548690083359304" lon="10.79285201740752"><ele>184.0</ele><time>2026-03-28T10:43:50Z</time></trkpt><trkpt lat="45.548829422901804" lon="10.792837462501613"><ele>185.0</ele><time>2026-03-28T10:43:51Z</time></trkpt><trkpt lat="45.548958830873595" lon="10.792811424851218"><ele>186.0</ele><time>2026-03-28T10:43:52Z</time></trkpt><trkpt lat="45.549068017953616" lon="10.792763680862286"><ele>187.0</ele><time>2026-03-28T10:43:53Z</time></trkpt><trkpt lat="45.54917324741605" lon="10.792735630102017"><ele>187.0</ele><time>2026-03-28T10:43:54Z</time></trkpt><trkpt lat="45.54928512450458" lon="10.79270571915657"><ele>187.0</ele><time>2026-03-28T10:43:55Z</time></trkpt><trkpt lat="45.5494087798859" lon="10.792716244598086"><ele>187.0</ele><time>2026-03-28T10:43:56Z</time></trkpt><trkpt lat="45.54951146550831" lon="10.792736886586807"><ele>187.0</ele><time>2026-03-28T10:43:57Z</time></trkpt><trkpt lat="45.54961569000039" lon="10.792753101964726"><ele>187.0</ele><time>2026-03-28T10:43:58Z</time></trkpt><trkpt lat="45.549681841560606" lon="10.79280298023006"><ele>186.8</ele><time>2026-03-28T10:43:59Z</time></trkpt><trkpt lat="45.549747574255775" lon="10.792857180023363"><ele>186.6</ele><time>2026-03-28T10:44:00Z</time></trkpt><trkpt lat="45.549810520147425" lon="10.792921571543616"><ele>186.4</ele><time>2026-03-28T10:44:01Z</time></trkpt><trkpt lat="45.54989285145269" lon="10.79299302556673"><ele>186.20000000000002</ele><time>2026-03-28T10:44:02Z</time></trkpt><trkpt lat="45.5499894060275" lon="10.793100909239843"><ele>186.0</ele><time>2026-03-28T10:44:03Z</time></trkpt><trkpt lat="45.550082747037095" lon="10.793203144517303"><ele>186.0</ele><time>2026-03-28T10:44:04Z</time></trkpt><trkpt lat="45.55017160767825" lon="10.7933077401804"><ele>186.0</ele><time>2026-03-28T10:44:05Z</time></trkpt><trkpt lat="45.55024488311496" lon="10.79343753682082"><ele>186.0</ele><time>2026-03-28T10:44:06Z</time></trkpt><trkpt lat="45.55032162090365" lon="10.793578449119876"><ele>186.0</ele><time>2026-03-28T10:44:07Z</time></trkpt><trkpt lat="45.550396110188586" lon="10.79369501982036"><ele>186.20000000000002</ele><time>2026-03-28T10:44:08Z</time></trkpt><trkpt lat="45.55047024150824" lon="10.793824071932823"><ele>186.4</ele><time>2026-03-28T10:44:09Z</time></trkpt><trkpt lat="45.55053664651451" lon="10.793944555487464"><ele>186.6</ele><time>2026-03-28T10:44:10Z</time></trkpt><trkpt lat="45.55059672963058" lon="10.79406082212056"><ele>186.8</ele><time>2026-03-28T10:44:11Z</time></trkpt><trkpt lat="45.55065390950547" lon="10.794180108668986"><ele>187.0</ele><time>2026-03-28T10:44:12Z</time></trkpt><trkpt lat="45.55070704709999" lon="10.79429358424457"><ele>186.83333333333334</ele><time>2026-03-28T10:44:13Z</time></trkpt><trkpt lat="45.55074393535865" lon="10.794414762038372"><ele>186.66666666666669</ele><time>2026-03-28T10:44:14Z</time></trkpt><trkpt lat="45.55075794741554" lon="10.794514577181234"><ele>186.5</ele><time>2026-03-28T10:44:15Z</time></trkpt><trkpt lat="45.550753993351954" lon="10.79460684089122"><ele>186.33333333333334</ele><time>2026-03-28T10:44:16Z</time></trkpt><trkpt lat="45.5507518211695" lon="10.794710662075383"><ele>186.16666666666666</ele><time>2026-03-28T10:44:17Z</time></trkpt><trkpt lat="45.550752317725454" lon="10.79485191971926"><ele>186.0</ele><time>2026-03-28T10:44:18Z</time></trkpt><trkpt lat="45.55075853630955" lon="10.79501016832517"><ele>186.0</ele><time>2026-03-28T10:44:19Z</time></trkpt><trkpt lat="45.5507527263239" lon="10.795213414885458"><ele>186.0</ele><time>2026-03-28T10:44:20Z</time></trkpt><trkpt lat="45.550749602486015" lon="10.795436681813188"><ele>186.0</ele><time>2026-03-28T10:44:21Z</time></trkpt><trkpt lat="45.550742793912455" lon="10.795663030568072"><ele>186.0</ele><time>2026-03-28T10:44:22Z</time></trkpt><trkpt lat="45.55075347804383" lon="10.795883966286317"><ele>186.0</ele><time>2026-03-28T10:44:23Z</time></trkpt><trkpt lat="45.55076315748003" lon="10.796079898812266"><ele>186.0</ele><time>2026-03-28T10:44:24Z</time></trkpt><trkpt lat="45.5507605903829" lon="10.79625992799939"><ele>186.0</ele><time>2026-03-28T10:44:25Z</time></trkpt><trkpt lat="45.55076909362805" lon="10.796416883447732"><ele>186.0</ele><time>2026-03-28T10:44:26Z</time></trkpt><trkpt lat="45.550776770270666" lon="10.796558581204236"><ele>186.0</ele><time>2026-03-28T10:44:27Z</time></trkpt><trkpt lat="45.55079388059653" lon="10.796657969967086"><ele>186.0</ele><time>2026-03-28T10:44:28Z</time></trkpt><trkpt lat="45.55081922154724" lon="10.796802228639052"><ele>186.0</ele><time>2026-03-28T10:44:30Z</time></trkpt><trkpt lat="45.55082513471538" lon="10.796955360603482"><ele>186.0</ele><time>2026-03-28T10:44:33Z</time></trkpt><trkpt lat="45.55080875085353" lon="10.797066460649638"><ele>186.0</ele><time>2026-03-28T10:44:35Z</time></trkpt><trkpt lat="45.55080959096044" lon="10.797175394034548"><ele>186.0</ele><time>2026-03-28T10:44:36Z</time></trkpt><trkpt lat="45.550806668364714" lon="10.797316446483169"><ele>186.0</ele><time>2026-03-28T10:44:37Z</time></trkpt><trkpt lat="45.55080344513599" lon="10.797472760586897"><ele>186.0</ele><time>2026-03-28T10:44:38Z</time></trkpt><trkpt lat="45.550801135029225" lon="10.797658933934233"><ele>186.0</ele><time>2026-03-28T10:44:39Z</time></trkpt><trkpt lat="45.55079510924981" lon="10.797856296805698"><ele>186.0</ele><time>2026-03-28T10:44:40Z</time></trkpt><trkpt lat="45.55078413264446" lon="10.798079441124115"><ele>186.0</ele><time>2026-03-28T10:44:41Z</time></trkpt><trkpt lat="45.55077128069885" lon="10.798308654899683"><ele>186.0</ele><time>2026-03-28T10:44:42Z</time></trkpt><trkpt lat="45.550755696752425" lon="10.798544357404225"><ele>185.66666666666666</ele><time>2026-03-28T10:44:43Z</time></trkpt><trkpt lat="45.550741285958054" lon="10.798810907590871"><ele>185.33333333333331</ele><time>2026-03-28T10:44:44Z</time></trkpt><trkpt lat="45.55073916836166" lon="10.799086813797897"><ele>185.0</ele><time>2026-03-28T10:44:45Z</time></trkpt><trkpt lat="45.550744064224816" lon="10.799358409813717"><ele>184.66666666666666</ele><time>2026-03-28T10:44:46Z</time></trkpt><trkpt lat="45.55075352844899" lon="10.79964936392915"><ele>184.33333333333334</ele><time>2026-03-28T10:44:47Z</time></trkpt><trkpt lat="45.55077072490598" lon="10.799959634668683"><ele>184.0</ele><time>2026-03-28T10:44:48Z</time></trkpt><trkpt lat="45.55078913615826" lon="10.80026265905823"><ele>182.66666666666669</ele><time>2026-03-28T10:44:49Z</time></trkpt><trkpt lat="45.55080767567959" lon="10.800561767911487"><ele>181.33333333333334</ele><time>2026-03-28T10:44:50Z</time></trkpt><trkpt lat="45.55082988677945" lon="10.800839236313005"><ele>180.0</ele><time>2026-03-28T10:44:51Z</time></trkpt><trkpt lat="45.55085289479294" lon="10.80109501400807"><ele>179.0</ele><time>2026-03-28T10:44:52Z</time></trkpt><trkpt lat="45.550867285347685" lon="10.801346044184681"><ele>178.0</ele><time>2026-03-28T10:44:53Z</time></trkpt><trkpt lat="45.55086442893954" lon="10.801614911958998"><ele>177.0</ele><time>2026-03-28T10:44:54Z</time></trkpt><trkpt lat="45.55084490916804" lon="10.801881475478611"><ele>177.0</ele><time>2026-03-28T10:44:55Z</time></trkpt><trkpt lat="45.55081532434482" lon="10.802144458719841"><ele>177.0</ele><time>2026-03-28T10:44:56Z</time></trkpt><trkpt lat="45.55079041688855" lon="10.802380219697119"><ele>177.0</ele><time>2026-03-28T10:44:57Z</time></trkpt><trkpt lat="45.55076586508266" lon="10.80261061093572"><ele>176.0</ele><time>2026-03-28T10:44:58Z</time></trkpt><trkpt lat="45.55072313989153" lon="10.802812875835414"><ele>175.0</ele><time>2026-03-28T10:44:59Z</time></trkpt><trkpt lat="45.55066333923272" lon="10.803006505166314"><ele>174.0</ele><time>2026-03-28T10:45:00Z</time></trkpt><trkpt lat="45.55058797687019" lon="10.803181912260703"><ele>173.0</ele><time>2026-03-28T10:45:01Z</time></trkpt><trkpt lat="45.55050777994096" lon="10.803325783455541"><ele>173.0</ele><time>2026-03-28T10:45:02Z</time></trkpt><trkpt lat="45.550426161966534" lon="10.803445311334753"><ele>173.0</ele><time>2026-03-28T10:45:03Z</time></trkpt><trkpt lat="45.55036260661219" lon="10.80354787046759"><ele>173.0</ele><time>2026-03-28T10:45:04Z</time></trkpt><trkpt lat="45.55033048145261" lon="10.803657448771101"><ele>173.0</ele><time>2026-03-28T10:45:05Z</time></trkpt><trkpt lat="45.55033789168096" lon="10.803761940482165"><ele>173.0</ele><time>2026-03-28T10:45:06Z</time></trkpt><trkpt lat="45.55037685591913" lon="10.803852374112246"><ele>173.0</ele><time>2026-03-28T10:45:07Z</time></trkpt><trkpt lat="45.55044268742323" lon="10.803918612594808"><ele>172.5</ele><time>2026-03-28T10:45:08Z</time></trkpt><trkpt lat="45.5505328469693" lon="10.803963753434399"><ele>172.0</ele><time>2026-03-28T10:45:09Z</time></trkpt><trkpt lat="45.55064611026793" lon="10.803995474213023"><ele>171.5</ele><time>2026-03-28T10:45:10Z</time></trkpt><trkpt lat="45.55079412813678" lon="10.804021195358157"><ele>171.0</ele><time>2026-03-28T10:45:11Z</time></trkpt><trkpt lat="45.550960545776626" lon="10.804022265754876"><ele>171.0</ele><time>2026-03-28T10:45:12Z</time></trkpt><trkpt lat="45.55113512853229" lon="10.80397309782685"><ele>171.0</ele><time>2026-03-28T10:45:13Z</time></trkpt><trkpt lat="45.551337405373395" lon="10.803975025171827"><ele>171.0</ele><time>2026-03-28T10:45:14Z</time></trkpt><trkpt lat="45.551538644807536" lon="10.803959691598063"><ele>171.33333333333334</ele><time>2026-03-28T10:45:15Z</time></trkpt><trkpt lat="45.5517456772628" lon="10.80394944122844"><ele>171.66666666666669</ele><time>2026-03-28T10:45:16Z</time></trkpt><trkpt lat="45.55196674374728" lon="10.803933371908997"><ele>172.0</ele><time>2026-03-28T10:45:17Z</time></trkpt><trkpt lat="45.55219575718964" lon="10.803911197293035"><ele>172.0</ele><time>2026-03-28T10:45:18Z</time></trkpt><trkpt lat="45.552416275661315" lon="10.803878684348268"><ele>172.0</ele><time>2026-03-28T10:45:19Z</time></trkpt><trkpt lat="45.552629948577014" lon="10.803845272812335"><ele>172.0</ele><time>2026-03-28T10:45:20Z</time></trkpt><trkpt lat="45.55284385492359" lon="10.803804861410034"><ele>173.0</ele><time>2026-03-28T10:45:21Z</time></trkpt><trkpt lat="45.55306266547207" lon="10.803757216534839"><ele>174.0</ele><time>2026-03-28T10:45:22Z</time></trkpt><trkpt lat="45.553282009836884" lon="10.803707504276794"><ele>175.0</ele><time>2026-03-28T10:45:23Z</time></trkpt><trkpt lat="45.55349720119167" lon="10.803668488104622"><ele>175.0</ele><time>2026-03-28T10:45:24Z</time></trkpt><trkpt lat="45.55370603025708" lon="10.803639019638585"><ele>175.0</ele><time>2026-03-28T10:45:25Z</time></trkpt><trkpt lat="45.553908222731025" lon="10.80361854823419"><ele>175.0</ele><time>2026-03-28T10:45:26Z</time></trkpt><trkpt lat="45.55411060212801" lon="10.803602094410248"><ele>175.0</ele><time>2026-03-28T10:45:27Z</time></trkpt><trkpt lat="45.554310190670606" lon="10.80360697134595"><ele>175.0</ele><time>2026-03-28T10:45:28Z</time></trkpt><trkpt lat="45.55450530963852" lon="10.803627417563415"><ele>175.0</ele><time>2026-03-28T10:45:29Z</time></trkpt><trkpt lat="45.55469295772995" lon="10.80364840037673"><ele>176.0</ele><time>2026-03-28T10:45:30Z</time></trkpt><trkpt lat="45.5548632055699" lon="10.803651748478188"><ele>177.0</ele><time>2026-03-28T10:45:31Z</time></trkpt><trkpt lat="45.55504457380238" lon="10.80362696979014"><ele>178.0</ele><time>2026-03-28T10:45:32Z</time></trkpt><trkpt lat="45.55522644263394" lon="10.80355986600892"><ele>178.0</ele><time>2026-03-28T10:45:33Z</time></trkpt><trkpt lat="45.55540412199707" lon="10.803457429482606"><ele>178.0</ele><time>2026-03-28T10:45:34Z</time></trkpt><trkpt lat="45.555587559185824" lon="10.80332244144701"><ele>178.0</ele><time>2026-03-28T10:45:35Z</time></trkpt><trkpt lat="45.55576679127585" lon="10.803159353054854"><ele>178.0</ele><time>2026-03-28T10:45:36Z</time></trkpt><trkpt lat="45.55594574090345" lon="10.80300605771263"><ele>178.0</ele><time>2026-03-28T10:45:37Z</time></trkpt><trkpt lat="45.55610117004042" lon="10.802855359076755"><ele>178.0</ele><time>2026-03-28T10:45:38Z</time></trkpt><trkpt lat="45.556241509734505" lon="10.802719871457345"><ele>178.66666666666669</ele><time>2026-03-28T10:45:39Z</time></trkpt><trkpt lat="45.55638499210404" lon="10.802584710602082"><ele>179.33333333333334</ele><time>2026-03-28T10:45:40Z</time></trkpt><trkpt lat="45.55652085669225" lon="10.80245540493413"><ele>180.0</ele><time>2026-03-28T10:45:41Z</time></trkpt><trkpt lat="45.556664937658304" lon="10.802349452908821"><ele>180.0</ele><time>2026-03-28T10:45:42Z</time></trkpt><trkpt lat="45.55679502523731" lon="10.80221370944311"><ele>180.0</ele><time>2026-03-28T10:45:43Z</time></trkpt><trkpt lat="45.55694212558071" lon="10.802092446006078"><ele>180.0</ele><time>2026-03-28T10:45:44Z</time></trkpt><trkpt lat="45.557085022232236" lon="10.801960279276912"><ele>181.0</ele><time>2026-03-28T10:45:45Z</time></trkpt><trkpt lat="45.55722965238352" lon="10.801814961220083"><ele>182.0</ele><time>2026-03-28T10:45:46Z</time></trkpt><trkpt lat="45.55737957686727" lon="10.801670519645633"><ele>183.0</ele><time>2026-03-28T10:45:47Z</time></trkpt><trkpt lat="45.557524073716415" lon="10.801532028533266"><ele>183.0</ele><time>2026-03-28T10:45:48Z</time></trkpt><trkpt lat="45.55767123352149" lon="10.801413544926435"><ele>183.0</ele><time>2026-03-28T10:45:49Z</time></trkpt><trkpt lat="45.55782642377469" lon="10.801296842070487"><ele>183.0</ele><time>2026-03-28T10:45:50Z</time></trkpt><trkpt lat="45.557982852284574" lon="10.801178713505871"><ele>183.66666666666666</ele><time>2026-03-28T10:45:51Z</time></trkpt><trkpt lat="45.55812545239832" lon="10.801070067521458"><ele>184.33333333333331</ele><time>2026-03-28T10:45:52Z</time></trkpt><trkpt lat="45.55826175230284" lon="10.800963596553906"><ele>185.0</ele><time>2026-03-28T10:45:53Z</time></trkpt><trkpt lat="45.558394901178104" lon="10.800847605416719"><ele>185.0</ele><time>2026-03-28T10:45:54Z</time></trkpt><trkpt lat="45.55851946143493" lon="10.8007176522467"><ele>185.0</ele><time>2026-03-28T10:45:55Z</time></trkpt><trkpt lat="45.558628169830506" lon="10.800583757729664"><ele>185.0</ele><time>2026-03-28T10:45:56Z</time></trkpt><trkpt lat="45.55873629435389" lon="10.800448798893017"><ele>185.0</ele><time>2026-03-28T10:45:57Z</time></trkpt><trkpt lat="45.558856506166734" lon="10.80031311356769"><ele>185.0</ele><time>2026-03-28T10:45:58Z</time></trkpt><trkpt lat="45.55898217338368" lon="10.80018014754141"><ele>185.0</ele><time>2026-03-28T10:45:59Z</time></trkpt><trkpt lat="45.55910969278329" lon="10.800049663610247"><ele>185.0</ele><time>2026-03-28T10:46:00Z</time></trkpt><trkpt lat="45.559256842136385" lon="10.799959076217023"><ele>185.0</ele><time>2026-03-28T10:46:01Z</time></trkpt><trkpt lat="45.55940903633677" lon="10.799895947242966"><ele>185.0</ele><time>2026-03-28T10:46:02Z</time></trkpt><trkpt lat="45.55956815935523" lon="10.799868301591008"><ele>185.0</ele><time>2026-03-28T10:46:03Z</time></trkpt><trkpt lat="45.559733356226985" lon="10.799867404181414"><ele>185.33333333333331</ele><time>2026-03-28T10:46:04Z</time></trkpt><trkpt lat="45.559906863585944" lon="10.799890433138474"><ele>185.66666666666666</ele><time>2026-03-28T10:46:05Z</time></trkpt><trkpt lat="45.560066485773284" lon="10.799918149423675"><ele>186.0</ele><time>2026-03-28T10:46:06Z</time></trkpt><trkpt lat="45.56022888992692" lon="10.79993882134593"><ele>185.66666666666666</ele><time>2026-03-28T10:46:07Z</time></trkpt><trkpt lat="45.560389919581624" lon="10.799956495135536"><ele>185.33333333333331</ele><time>2026-03-28T10:46:08Z</time></trkpt><trkpt lat="45.56054715578934" lon="10.7999784110215"><ele>185.0</ele><time>2026-03-28T10:46:09Z</time></trkpt><trkpt lat="45.56072645555942" lon="10.799997137605363"><ele>185.0</ele><time>2026-03-28T10:46:10Z</time></trkpt><trkpt lat="45.56089104086052" lon="10.80001838789491"><ele>185.0</ele><time>2026-03-28T10:46:11Z</time></trkpt><trkpt lat="45.56105652864483" lon="10.800035521921872"><ele>185.0</ele><time>2026-03-28T10:46:12Z</time></trkpt><trkpt lat="45.56122853381467" lon="10.80005494679476"><ele>185.33333333333331</ele><time>2026-03-28T10:46:13Z</time></trkpt><trkpt lat="45.5613931338023" lon="10.800078330510145"><ele>185.66666666666666</ele><time>2026-03-28T10:46:14Z</time></trkpt><trkpt lat="45.561554936669914" lon="10.80009741782314"><ele>186.0</ele><time>2026-03-28T10:46:15Z</time></trkpt><trkpt lat="45.56171993396939" lon="10.800113756705356"><ele>186.0</ele><time>2026-03-28T10:46:16Z</time></trkpt><trkpt lat="45.56187942045657" lon="10.800131002813895"><ele>186.0</ele><time>2026-03-28T10:46:17Z</time></trkpt><trkpt lat="45.562037124067615" lon="10.800153105886745"><ele>186.0</ele><time>2026-03-28T10:46:18Z</time></trkpt><trkpt lat="45.56219990201634" lon="10.80018356927186"><ele>186.66666666666666</ele><time>2026-03-28T10:46:19Z</time></trkpt><trkpt lat="45.562369933238756" lon="10.80021559552943"><ele>187.33333333333331</ele><time>2026-03-28T10:46:20Z</time></trkpt><trkpt lat="45.562535202299465" lon="10.800259692943586"><ele>188.0</ele><time>2026-03-28T10:46:21Z</time></trkpt><trkpt lat="45.56270314884591" lon="10.800309414076482"><ele>188.0</ele><time>2026-03-28T10:46:22Z</time></trkpt><trkpt lat="45.562862898857176" lon="10.800362487319592"><ele>188.0</ele><time>2026-03-28T10:46:23Z</time></trkpt><trkpt lat="45.56301714180941" lon="10.800422677218162"><ele>188.0</ele><time>2026-03-28T10:46:24Z</time></trkpt><trkpt lat="45.563175263722954" lon="10.800494007068039"><ele>189.0</ele><time>2026-03-28T10:46:25Z</time></trkpt><trkpt lat="45.56332340260945" lon="10.800581431449988"><ele>190.0</ele><time>2026-03-28T10:46:26Z</time></trkpt><trkpt lat="45.56346755895509" lon="10.800683947914981"><ele>191.0</ele><time>2026-03-28T10:46:27Z</time></trkpt><trkpt lat="45.56361304694667" lon="10.800801270394372"><ele>191.0</ele><time>2026-03-28T10:46:28Z</time></trkpt><trkpt lat="45.563759399438474" lon="10.800923635389093"><ele>191.0</ele><time>2026-03-28T10:46:29Z</time></trkpt><trkpt lat="45.56390645826335" lon="10.80105053008254"><ele>191.0</ele><time>2026-03-28T10:46:30Z</time></trkpt><trkpt lat="45.56404409848827" lon="10.801171529049206"><ele>190.33333333333331</ele><time>2026-03-28T10:46:31Z</time></trkpt><trkpt lat="45.56418254453264" lon="10.801289635331708"><ele>189.66666666666666</ele><time>2026-03-28T10:46:32Z</time></trkpt><trkpt lat="45.564318839426626" lon="10.80140253182986"><ele>189.0</ele><time>2026-03-28T10:46:33Z</time></trkpt><trkpt lat="45.56445683521727" lon="10.801508789699056"><ele>189.66666666666666</ele><time>2026-03-28T10:46:34Z</time></trkpt><trkpt lat="45.56459338442773" lon="10.80160333621456"><ele>190.33333333333331</ele><time>2026-03-28T10:46:35Z</time></trkpt><trkpt lat="45.56473768421369" lon="10.801684232487473"><ele>191.0</ele><time>2026-03-28T10:46:36Z</time></trkpt><trkpt lat="45.56488389409045" lon="10.801756376596959"><ele>191.0</ele><time>2026-03-28T10:46:37Z</time></trkpt><trkpt lat="45.56503556247841" lon="10.801816842234189"><ele>191.0</ele><time>2026-03-28T10:46:38Z</time></trkpt><trkpt lat="45.56519458369963" lon="10.801859457720631"><ele>191.0</ele><time>2026-03-28T10:46:39Z</time></trkpt><trkpt lat="45.56536058346224" lon="10.801897115059958"><ele>191.0</ele><time>2026-03-28T10:46:40Z</time></trkpt><trkpt lat="45.56553223161743" lon="10.801935511281302"><ele>191.0</ele><time>2026-03-28T10:46:41Z</time></trkpt><trkpt lat="45.56570234372821" lon="10.801977109315567"><ele>191.0</ele><time>2026-03-28T10:46:42Z</time></trkpt><trkpt lat="45.56585958275637" lon="10.802018726437016"><ele>191.0</ele><time>2026-03-28T10:46:43Z</time></trkpt><trkpt lat="45.56601992961133" lon="10.802053688780529"><ele>191.0</ele><time>2026-03-28T10:46:44Z</time></trkpt><trkpt lat="45.56618146088642" lon="10.802093295867774"><ele>191.0</ele><time>2026-03-28T10:46:45Z</time></trkpt><trkpt lat="45.566342903647346" lon="10.802137513101716"><ele>190.66666666666666</ele><time>2026-03-28T10:46:46Z</time></trkpt><trkpt lat="45.566520458999726" lon="10.802179593158202"><ele>190.33333333333334</ele><time>2026-03-28T10:46:47Z</time></trkpt><trkpt lat="45.56669180408392" lon="10.802219800416553"><ele>190.0</ele><time>2026-03-28T10:46:48Z</time></trkpt><trkpt lat="45.56687855884768" lon="10.802246309573013"><ele>190.66666666666669</ele><time>2026-03-28T10:46:49Z</time></trkpt><trkpt lat="45.567079444306735" lon="10.80225895359706"><ele>191.33333333333334</ele><time>2026-03-28T10:46:50Z</time></trkpt><trkpt lat="45.56727154336276" lon="10.802264804387796"><ele>192.0</ele><time>2026-03-28T10:46:51Z</time></trkpt><trkpt lat="45.56742452359244" lon="10.802261914845317"><ele>192.0</ele><time>2026-03-28T10:46:52Z</time></trkpt><trkpt lat="45.56757515602345" lon="10.802250209962747"><ele>192.0</ele><time>2026-03-28T10:46:53Z</time></trkpt><trkpt lat="45.56772642583706" lon="10.802235615762754"><ele>192.0</ele><time>2026-03-28T10:46:54Z</time></trkpt><trkpt lat="45.56787296547784" lon="10.802218623611427"><ele>192.0</ele><time>2026-03-28T10:46:55Z</time></trkpt><trkpt lat="45.56802202713872" lon="10.80219904169605"><ele>191.66666666666666</ele><time>2026-03-28T10:46:56Z</time></trkpt><trkpt lat="45.56817664899502" lon="10.802175614447341"><ele>191.33333333333331</ele><time>2026-03-28T10:46:57Z</time></trkpt><trkpt lat="45.568327713640116" lon="10.802153002761287"><ele>191.0</ele><time>2026-03-28T10:46:58Z</time></trkpt><trkpt lat="45.56847412307874" lon="10.802137502927176"><ele>191.0</ele><time>2026-03-28T10:46:59Z</time></trkpt><trkpt lat="45.568606330110896" lon="10.802130144945858"><ele>191.0</ele><time>2026-03-28T10:47:00Z</time></trkpt><trkpt lat="45.56872685994804" lon="10.802121888798817"><ele>191.0</ele><time>2026-03-28T10:47:01Z</time></trkpt><trkpt lat="45.56884401888871" lon="10.802114022321023"><ele>191.0</ele><time>2026-03-28T10:47:02Z</time></trkpt><trkpt lat="45.56895128161982" lon="10.802118087005976"><ele>191.60000000000002</ele><time>2026-03-28T10:47:03Z</time></trkpt><trkpt lat="45.56904945782451" lon="10.802135093274968"><ele>192.2</ele><time>2026-03-28T10:47:04Z</time></trkpt><trkpt lat="45.56913788971675" lon="10.802156087475387"><ele>192.8</ele><time>2026-03-28T10:47:05Z</time></trkpt><trkpt lat="45.56921726418663" lon="10.802182069404253"><ele>193.39999999999998</ele><time>2026-03-28T10:47:06Z</time></trkpt><trkpt lat="45.56931959839954" lon="10.802190205329328"><ele>194.0</ele><time>2026-03-28T10:47:08Z</time></trkpt><trkpt lat="45.56938964955542" lon="10.801844588991056"><ele>193.6</ele><time>2026-03-28T10:47:09Z</time></trkpt><trkpt lat="45.56944783275895" lon="10.8016991270311"><ele>193.2</ele><time>2026-03-28T10:47:10Z</time></trkpt><trkpt lat="45.569492828024714" lon="10.801524433756983"><ele>192.79999999999998</ele><time>2026-03-28T10:47:11Z</time></trkpt><trkpt lat="45.56952173334041" lon="10.801380573818882"><ele>192.39999999999998</ele><time>2026-03-28T10:47:12Z</time></trkpt><trkpt lat="45.56953093995908" lon="10.80125999204957"><ele>192.0</ele><time>2026-03-28T10:47:13Z</time></trkpt><trkpt lat="45.569558623327694" lon="10.80114455139625"><ele>192.0</ele><time>2026-03-28T10:47:14Z</time></trkpt><trkpt lat="45.56952452037524" lon="10.801039534476383"><ele>192.0</ele><time>2026-03-28T10:47:15Z</time></trkpt><trkpt lat="45.569499100862295" lon="10.800923157699772"><ele>192.0</ele><time>2026-03-28T10:47:16Z</time></trkpt><trkpt lat="45.569468969253606" lon="10.800756714375089"><ele>192.0</ele><time>2026-03-28T10:47:18Z</time></trkpt><trkpt lat="45.56945628925727" lon="10.800659293710225"><ele>192.0</ele><time>2026-03-28T10:47:19Z</time></trkpt><trkpt lat="45.56945057080598" lon="10.800099821930814"><ele>192.25</ele><time>2026-03-28T10:47:20Z</time></trkpt><trkpt lat="45.56949361546207" lon="10.79996928139086"><ele>192.5</ele><time>2026-03-28T10:47:22Z</time></trkpt><trkpt lat="45.56952962482552" lon="10.79988129965199"><ele>192.75</ele><time>2026-03-28T10:47:23Z</time></trkpt><trkpt lat="45.56961617007983" lon="10.799719128996161"><ele>193.0</ele><time>2026-03-28T10:47:24Z</time></trkpt><trkpt lat="45.56977304066271" lon="10.799592326378427"><ele>193.2</ele><time>2026-03-28T10:47:25Z</time></trkpt><trkpt lat="45.56983926330138" lon="10.799530819193533"><ele>193.4</ele><time>2026-03-28T10:47:27Z</time></trkpt><trkpt lat="45.56989947067904" lon="10.799476807968292"><ele>193.6</ele><time>2026-03-28T10:47:29Z</time></trkpt><trkpt lat="45.56997258705705" lon="10.799404620772858"><ele>193.79999999999998</ele><time>2026-03-28T10:47:31Z</time></trkpt><trkpt lat="45.570061603698065" lon="10.799334024483676"><ele>194.0</ele><time>2026-03-28T10:47:33Z</time></trkpt><trkpt lat="45.5701780540756" lon="10.799290148568149"><ele>195.0</ele><time>2026-03-28T10:47:35Z</time></trkpt><trkpt lat="45.57029831325823" lon="10.799266209977963"><ele>196.0</ele><time>2026-03-28T10:47:37Z</time></trkpt><trkpt lat="45.57037936763895" lon="10.799229549956358"><ele>197.0</ele><time>2026-03-28T10:47:38Z</time></trkpt><trkpt lat="45.570536634334104" lon="10.799139025888898"><ele>198.0</ele><time>2026-03-28T10:47:40Z</time></trkpt><trkpt lat="45.57068145116333" lon="10.799054064515051"><ele>197.0</ele><time>2026-03-28T10:47:41Z</time></trkpt><trkpt lat="45.57102069379883" lon="10.799520035277798"><ele>197.00000000000003</ele><time>2026-03-28T10:47:42Z</time></trkpt><trkpt lat="45.57109859171723" lon="10.799476940065302"><ele>197.0</ele><time>2026-03-28T10:47:43Z</time></trkpt><trkpt lat="45.57117282686782" lon="10.799427335169346"><ele>197.0</ele><time>2026-03-28T10:47:44Z</time></trkpt><trkpt lat="45.571244955078356" lon="10.799379028585072"><ele>197.0</ele><time>2026-03-28T10:47:45Z</time></trkpt><trkpt lat="45.571319795540866" lon="10.799320736429161"><ele>197.00000000000003</ele><time>2026-03-28T10:47:46Z</time></trkpt><trkpt lat="45.57138081663629" lon="10.799269114635143"><ele>197.0</ele><time>2026-03-28T10:47:47Z</time></trkpt><trkpt lat="45.57144436343609" lon="10.799221737187793"><ele>197.66666666666669</ele><time>2026-03-28T10:47:48Z</time></trkpt><trkpt lat="45.571502461327576" lon="10.799183041571405"><ele>198.33333333333334</ele><time>2026-03-28T10:47:49Z</time></trkpt><trkpt lat="45.57156786779801" lon="10.799138905369366"><ele>199.0</ele><time>2026-03-28T10:47:50Z</time></trkpt><trkpt lat="45.57163752626865" lon="10.799091714943584"><ele>199.66666666666669</ele><time>2026-03-28T10:47:51Z</time></trkpt><trkpt lat="45.57171147834393" lon="10.799037505557115"><ele>200.33333333333334</ele><time>2026-03-28T10:47:52Z</time></trkpt><trkpt lat="45.571779157500984" lon="10.798986222781368"><ele>201.0</ele><time>2026-03-28T10:47:53Z</time></trkpt><trkpt lat="45.571848025539936" lon="10.798927460438097"><ele>201.0</ele><time>2026-03-28T10:47:54Z</time></trkpt><trkpt lat="45.571927735648025" lon="10.798876244925113"><ele>201.0</ele><time>2026-03-28T10:47:55Z</time></trkpt><trkpt lat="45.57200491692314" lon="10.798827281055583"><ele>201.0</ele><time>2026-03-28T10:47:56Z</time></trkpt><trkpt lat="45.57207215987337" lon="10.798765462411584"><ele>201.0</ele><time>2026-03-28T10:47:57Z</time></trkpt><trkpt lat="45.572141556399686" lon="10.798689219030548"><ele>201.0</ele><time>2026-03-28T10:47:58Z</time></trkpt><trkpt lat="45.572212748333286" lon="10.7986085076836"><ele>201.0</ele><time>2026-03-28T10:47:59Z</time></trkpt><trkpt lat="45.57229555138496" lon="10.798549269835426"><ele>202.0</ele><time>2026-03-28T10:48:00Z</time></trkpt><trkpt lat="45.572393733767356" lon="10.798498364914128"><ele>203.0</ele><time>2026-03-28T10:48:01Z</time></trkpt><trkpt lat="45.57250146948794" lon="10.798434150790635"><ele>204.0</ele><time>2026-03-28T10:48:02Z</time></trkpt><trkpt lat="45.572599512869196" lon="10.798359990332177"><ele>205.0</ele><time>2026-03-28T10:48:03Z</time></trkpt><trkpt lat="45.572700079446754" lon="10.79828824882641"><ele>206.0</ele><time>2026-03-28T10:48:04Z</time></trkpt><trkpt lat="45.57279657719123" lon="10.798231478904096"><ele>205.4</ele><time>2026-03-28T10:48:05Z</time></trkpt><trkpt lat="45.572886945109204" lon="10.798180508684707"><ele>204.8</ele><time>2026-03-28T10:48:06Z</time></trkpt><trkpt lat="45.572983792094284" lon="10.798142848878102"><ele>204.20000000000002</ele><time>2026-03-28T10:48:07Z</time></trkpt><trkpt lat="45.57309230362392" lon="10.798092847085142"><ele>203.60000000000002</ele><time>2026-03-28T10:48:08Z</time></trkpt><trkpt lat="45.57320797437386" lon="10.798044407996256"><ele>203.0</ele><time>2026-03-28T10:48:09Z</time></trkpt><trkpt lat="45.57331790008504" lon="10.79800453689258"><ele>203.0</ele><time>2026-03-28T10:48:10Z</time></trkpt><trkpt lat="45.573417845143055" lon="10.797964530459762"><ele>203.0</ele><time>2026-03-28T10:48:11Z</time></trkpt><trkpt lat="45.57350195428043" lon="10.797930043549501"><ele>203.0</ele><time>2026-03-28T10:48:12Z</time></trkpt><trkpt lat="45.57359685288864" lon="10.797890134478985"><ele>203.0</ele><time>2026-03-28T10:48:13Z</time></trkpt><trkpt lat="45.57367687222688" lon="10.797855877423743"><ele>203.0</ele><time>2026-03-28T10:48:14Z</time></trkpt><trkpt lat="45.57374940182159" lon="10.797818673815126"><ele>202.0</ele><time>2026-03-28T10:48:15Z</time></trkpt><trkpt lat="45.573844901657694" lon="10.797777144440179"><ele>201.0</ele><time>2026-03-28T10:48:16Z</time></trkpt><trkpt lat="45.57393520050863" lon="10.797739573206442"><ele>200.0</ele><time>2026-03-28T10:48:17Z</time></trkpt><trkpt lat="45.574010495052185" lon="10.79769332353296"><ele>199.0</ele><time>2026-03-28T10:48:18Z</time></trkpt><trkpt lat="45.5740946793209" lon="10.797639932338798"><ele>198.0</ele><time>2026-03-28T10:48:19Z</time></trkpt><trkpt lat="45.57417412124714" lon="10.797583214426773"><ele>198.4</ele><time>2026-03-28T10:48:20Z</time></trkpt><trkpt lat="45.574248951050286" lon="10.797538395354145"><ele>198.8</ele><time>2026-03-28T10:48:21Z</time></trkpt><trkpt lat="45.57432577495142" lon="10.797468293057195"><ele>199.2</ele><time>2026-03-28T10:48:22Z</time></trkpt><trkpt lat="45.57439493156248" lon="10.797375842090725"><ele>199.6</ele><time>2026-03-28T10:48:23Z</time></trkpt><trkpt lat="45.574475137388404" lon="10.797270634831454"><ele>200.0</ele><time>2026-03-28T10:48:24Z</time></trkpt><trkpt lat="45.57453621409028" lon="10.797174182665813"><ele>200.0</ele><time>2026-03-28T10:48:25Z</time></trkpt><trkpt lat="45.574584000449846" lon="10.797081607787872"><ele>200.0</ele><time>2026-03-28T10:48:26Z</time></trkpt><trkpt lat="45.57464754164096" lon="10.797011196650077"><ele>200.0</ele><time>2026-03-28T10:48:27Z</time></trkpt><trkpt lat="45.57472912852799" lon="10.796925043202716"><ele>200.0</ele><time>2026-03-28T10:48:28Z</time></trkpt><trkpt lat="45.57482090965899" lon="10.796847447892016"><ele>200.0</ele><time>2026-03-28T10:48:29Z</time></trkpt><trkpt lat="45.574923278039435" lon="10.796779587061595"><ele>202.2</ele><time>2026-03-28T10:48:30Z</time></trkpt><trkpt lat="45.575008407120244" lon="10.79672130448526"><ele>204.4</ele><time>2026-03-28T10:48:31Z</time></trkpt><trkpt lat="45.57509886066087" lon="10.796650192385558"><ele>206.60000000000002</ele><time>2026-03-28T10:48:32Z</time></trkpt><trkpt lat="45.57519382346082" lon="10.796563455087096"><ele>208.8</ele><time>2026-03-28T10:48:33Z</time></trkpt><trkpt lat="45.57527502516836" lon="10.79647033077503"><ele>211.0</ele><time>2026-03-28T10:48:34Z</time></trkpt><trkpt lat="45.57534902805882" lon="10.796384301716767"><ele>209.60000000000002</ele><time>2026-03-28T10:48:35Z</time></trkpt><trkpt lat="45.57542539739064" lon="10.7962884356736"><ele>208.2</ele><time>2026-03-28T10:48:36Z</time></trkpt><trkpt lat="45.57550542456314" lon="10.796171575777953"><ele>206.8</ele><time>2026-03-28T10:48:37Z</time></trkpt><trkpt lat="45.57558495580228" lon="10.796067492458869"><ele>205.39999999999998</ele><time>2026-03-28T10:48:38Z</time></trkpt><trkpt lat="45.57565917878542" lon="10.795948723429316"><ele>204.0</ele><time>2026-03-28T10:48:39Z</time></trkpt><trkpt lat="45.575725685938295" lon="10.795835933700284"><ele>204.0</ele><time>2026-03-28T10:48:40Z</time></trkpt><trkpt lat="45.575780452881546" lon="10.795734507103965"><ele>204.0</ele><time>2026-03-28T10:48:41Z</time></trkpt><trkpt lat="45.5758362667767" lon="10.795635246926977"><ele>204.0</ele><time>2026-03-28T10:48:42Z</time></trkpt><trkpt lat="45.57588216674002" lon="10.795539388739531"><ele>204.0</ele><time>2026-03-28T10:48:43Z</time></trkpt><trkpt lat="45.57594561045502" lon="10.795451109586246"><ele>204.0</ele><time>2026-03-28T10:48:44Z</time></trkpt><trkpt lat="45.576020523647394" lon="10.795364160156629"><ele>204.0</ele><time>2026-03-28T10:48:45Z</time></trkpt><trkpt lat="45.5760873720355" lon="10.795295426754807"><ele>204.0</ele><time>2026-03-28T10:48:46Z</time></trkpt><trkpt lat="45.576150457606495" lon="10.795242996904717"><ele>204.0</ele><time>2026-03-28T10:48:47Z</time></trkpt><trkpt lat="45.57620513504329" lon="10.79519667188895"><ele>204.0</ele><time>2026-03-28T10:48:48Z</time></trkpt><trkpt lat="45.57628549626217" lon="10.795143131255715"><ele>204.0</ele><time>2026-03-28T10:48:50Z</time></trkpt><trkpt lat="45.57637980369136" lon="10.795138910112609"><ele>204.0</ele><time>2026-03-28T10:48:53Z</time></trkpt><trkpt lat="45.57644862943865" lon="10.79514070710427"><ele>204.0</ele><time>2026-03-28T10:48:57Z</time></trkpt><trkpt lat="45.57652801615954" lon="10.795152927404256"><ele>203.6</ele><time>2026-03-28T10:48:59Z</time></trkpt><trkpt lat="45.57650718077319" lon="10.794920056262315"><ele>203.2</ele><time>2026-03-28T10:49:01Z</time></trkpt><trkpt lat="45.57652006079572" lon="10.794812187354646"><ele>202.79999999999998</ele><time>2026-03-28T10:49:02Z</time></trkpt><trkpt lat="45.57652103586754" lon="10.794672398264598"><ele>202.39999999999998</ele><time>2026-03-28T10:49:03Z</time></trkpt><trkpt lat="45.57652245846835" lon="10.79451726313023"><ele>202.0</ele><time>2026-03-28T10:49:04Z</time></trkpt><trkpt lat="45.576527298538636" lon="10.794340420344342"><ele>202.33333333333331</ele><time>2026-03-28T10:49:05Z</time></trkpt><trkpt lat="45.57653329615979" lon="10.7941375154496"><ele>202.66666666666669</ele><time>2026-03-28T10:49:06Z</time></trkpt><trkpt lat="45.57653999508353" lon="10.793910885160443"><ele>203.0</ele><time>2026-03-28T10:49:07Z</time></trkpt><trkpt lat="45.57654689123962" lon="10.793677582116738"><ele>202.66666666666669</ele><time>2026-03-28T10:49:08Z</time></trkpt><trkpt lat="45.576544620511655" lon="10.793431600438266"><ele>202.33333333333331</ele><time>2026-03-28T10:49:09Z</time></trkpt><trkpt lat="45.576551378603156" lon="10.793192409614708"><ele>202.0</ele><time>2026-03-28T10:49:10Z</time></trkpt><trkpt lat="45.57655753139022" lon="10.792984147825173"><ele>202.0</ele><time>2026-03-28T10:49:11Z</time></trkpt><trkpt lat="45.576563864576016" lon="10.792766163314177"><ele>202.0</ele><time>2026-03-28T10:49:12Z</time></trkpt><trkpt lat="45.57658925298868" lon="10.792546367295177"><ele>202.0</ele><time>2026-03-28T10:49:13Z</time></trkpt><trkpt lat="45.57659782755268" lon="10.792335267020066"><ele>202.0</ele><time>2026-03-28T10:49:14Z</time></trkpt><trkpt lat="45.576606529402035" lon="10.79212103308628"><ele>202.0</ele><time>2026-03-28T10:49:15Z</time></trkpt><trkpt lat="45.57660947255013" lon="10.79189919266488"><ele>202.0</ele><time>2026-03-28T10:49:16Z</time></trkpt><trkpt lat="45.57657389815808" lon="10.791696746741785"><ele>202.0</ele><time>2026-03-28T10:49:17Z</time></trkpt><trkpt lat="45.576527564831736" lon="10.79148871936219"><ele>202.0</ele><time>2026-03-28T10:49:18Z</time></trkpt><trkpt lat="45.5764530540662" lon="10.791296407384023"><ele>202.0</ele><time>2026-03-28T10:49:19Z</time></trkpt><trkpt lat="45.5763741102556" lon="10.791101860448581"><ele>203.0</ele><time>2026-03-28T10:49:20Z</time></trkpt><trkpt lat="45.576270578454846" lon="10.790953417655242"><ele>204.0</ele><time>2026-03-28T10:49:21Z</time></trkpt><trkpt lat="45.57615321143339" lon="10.790813881816588"><ele>205.0</ele><time>2026-03-28T10:49:22Z</time></trkpt><trkpt lat="45.576069625798645" lon="10.79062451048635"><ele>205.0</ele><time>2026-03-28T10:49:23Z</time></trkpt><trkpt lat="45.57598348483415" lon="10.790438840269998"><ele>205.0</ele><time>2026-03-28T10:49:24Z</time></trkpt><trkpt lat="45.57589575484072" lon="10.790239739229728"><ele>205.0</ele><time>2026-03-28T10:49:25Z</time></trkpt><trkpt lat="45.57581615167289" lon="10.790049242771232"><ele>206.0</ele><time>2026-03-28T10:49:26Z</time></trkpt><trkpt lat="45.575728134466374" lon="10.789889384182306"><ele>207.0</ele><time>2026-03-28T10:49:27Z</time></trkpt><trkpt lat="45.575660656868095" lon="10.789723897325803"><ele>208.0</ele><time>2026-03-28T10:49:28Z</time></trkpt><trkpt lat="45.57560511459188" lon="10.789582288239872"><ele>209.0</ele><time>2026-03-28T10:49:29Z</time></trkpt><trkpt lat="45.575551671127236" lon="10.789448254868313"><ele>211.75</ele><time>2026-03-28T10:49:30Z</time></trkpt><trkpt lat="45.57551741925132" lon="10.789284433625564"><ele>214.5</ele><time>2026-03-28T10:49:31Z</time></trkpt><trkpt lat="45.57546342924938" lon="10.789113564843102"><ele>217.25</ele><time>2026-03-28T10:49:32Z</time></trkpt><trkpt lat="45.5754423698898" lon="10.78891581832102"><ele>220.0</ele><time>2026-03-28T10:49:33Z</time></trkpt><trkpt lat="45.57543535035587" lon="10.788707507727683"><ele>219.66666666666666</ele><time>2026-03-28T10:49:34Z</time></trkpt><trkpt lat="45.575435760720126" lon="10.788483824969731"><ele>219.33333333333331</ele><time>2026-03-28T10:49:35Z</time></trkpt><trkpt lat="45.57544666143712" lon="10.78823851550183"><ele>219.0</ele><time>2026-03-28T10:49:36Z</time></trkpt><trkpt lat="45.57545798179566" lon="10.7880000799118"><ele>219.0</ele><time>2026-03-28T10:49:37Z</time></trkpt><trkpt lat="45.57547034461947" lon="10.78776473924504"><ele>219.0</ele><time>2026-03-28T10:49:38Z</time></trkpt><trkpt lat="45.575489662039665" lon="10.787549854260233"><ele>219.0</ele><time>2026-03-28T10:49:39Z</time></trkpt><trkpt lat="45.57551650772121" lon="10.78734198206031"><ele>219.0</ele><time>2026-03-28T10:49:40Z</time></trkpt><trkpt lat="45.575543036871174" lon="10.787151173733871"><ele>219.0</ele><time>2026-03-28T10:49:41Z</time></trkpt><trkpt lat="45.57556712854237" lon="10.786955912390683"><ele>219.0</ele><time>2026-03-28T10:49:42Z</time></trkpt><trkpt lat="45.575591548538576" lon="10.78676981067438"><ele>219.0</ele><time>2026-03-28T10:49:43Z</time></trkpt><trkpt lat="45.575613763329976" lon="10.786592644631643"><ele>219.0</ele><time>2026-03-28T10:49:44Z</time></trkpt><trkpt lat="45.57563978258909" lon="10.78640865668844"><ele>219.0</ele><time>2026-03-28T10:49:45Z</time></trkpt><trkpt lat="45.57564326003371" lon="10.786214031529612"><ele>219.0</ele><time>2026-03-28T10:49:46Z</time></trkpt><trkpt lat="45.57564194639877" lon="10.785996523037468"><ele>219.0</ele><time>2026-03-28T10:49:47Z</time></trkpt><trkpt lat="45.57563127123974" lon="10.785767224414075"><ele>220.66666666666669</ele><time>2026-03-28T10:49:48Z</time></trkpt><trkpt lat="45.57561198863236" lon="10.785542531781934"><ele>222.33333333333334</ele><time>2026-03-28T10:49:49Z</time></trkpt><trkpt lat="45.57558263824931" lon="10.785339316010429"><ele>224.0</ele><time>2026-03-28T10:49:50Z</time></trkpt><trkpt lat="45.5755706130789" lon="10.785108439981112"><ele>226.33333333333334</ele><time>2026-03-28T10:49:51Z</time></trkpt><trkpt lat="45.57552827784738" lon="10.78488016989079"><ele>228.66666666666669</ele><time>2026-03-28T10:49:52Z</time></trkpt><trkpt lat="45.575500357468876" lon="10.78465022403543"><ele>231.0</ele><time>2026-03-28T10:49:53Z</time></trkpt><trkpt lat="45.57546834753651" lon="10.78445270561375"><ele>233.33333333333331</ele><time>2026-03-28T10:49:54Z</time></trkpt><trkpt lat="45.5754531772551" lon="10.784247321332696"><ele>235.66666666666666</ele><time>2026-03-28T10:49:55Z</time></trkpt><trkpt lat="45.57541901446988" lon="10.784035179262663"><ele>238.0</ele><time>2026-03-28T10:49:56Z</time></trkpt><trkpt lat="45.57538352995273" lon="10.783817065441758"><ele>233.0</ele><time>2026-03-28T10:49:57Z</time></trkpt><trkpt lat="45.575334371258" lon="10.783607808845408"><ele>228.0</ele><time>2026-03-28T10:49:58Z</time></trkpt><trkpt lat="45.57531649629833" lon="10.783389103983998"><ele>223.0</ele><time>2026-03-28T10:49:59Z</time></trkpt><trkpt lat="45.57530272949437" lon="10.783159371407278"><ele>223.0</ele><time>2026-03-28T10:50:00Z</time></trkpt><trkpt lat="45.57529048180709" lon="10.782903961604871"><ele>223.0</ele><time>2026-03-28T10:50:01Z</time></trkpt><trkpt lat="45.57528279148793" lon="10.782660751428072"><ele>223.0</ele><time>2026-03-28T10:50:02Z</time></trkpt><trkpt lat="45.575276239022266" lon="10.782437980191668"><ele>224.0</ele><time>2026-03-28T10:50:03Z</time></trkpt><trkpt lat="45.57527140544919" lon="10.782231818265547"><ele>225.0</ele><time>2026-03-28T10:50:04Z</time></trkpt><trkpt lat="45.57526997611782" lon="10.782043377876935"><ele>226.0</ele><time>2026-03-28T10:50:05Z</time></trkpt><trkpt lat="45.575288215677595" lon="10.781859929932425"><ele>227.0</ele><time>2026-03-28T10:50:06Z</time></trkpt><trkpt lat="45.57533668716188" lon="10.78166747996069"><ele>232.66666666666669</ele><time>2026-03-28T10:50:07Z</time></trkpt><trkpt lat="45.57540974650912" lon="10.781481502968758"><ele>238.33333333333331</ele><time>2026-03-28T10:50:08Z</time></trkpt><trkpt lat="45.575505359013995" lon="10.781285381882915"><ele>244.0</ele><time>2026-03-28T10:50:09Z</time></trkpt><trkpt lat="45.57559276612371" lon="10.781101234527176"><ele>243.25</ele><time>2026-03-28T10:50:10Z</time></trkpt><trkpt lat="45.57565116746132" lon="10.78092585975476"><ele>242.5</ele><time>2026-03-28T10:50:11Z</time></trkpt><trkpt lat="45.57568746946356" lon="10.780734832898208"><ele>241.75</ele><time>2026-03-28T10:50:12Z</time></trkpt><trkpt lat="45.57570510541164" lon="10.780529188311277"><ele>241.0</ele><time>2026-03-28T10:50:13Z</time></trkpt><trkpt lat="45.57570523892858" lon="10.78031673059608"><ele>238.75</ele><time>2026-03-28T10:50:14Z</time></trkpt><trkpt lat="45.57569043924681" lon="10.780114093329427"><ele>236.5</ele><time>2026-03-28T10:50:15Z</time></trkpt><trkpt lat="45.575656217407655" lon="10.779920463654499"><ele>234.25</ele><time>2026-03-28T10:50:16Z</time></trkpt><trkpt lat="45.57559599275793" lon="10.779720284449644"><ele>232.0</ele><time>2026-03-28T10:50:17Z</time></trkpt><trkpt lat="45.57551345339783" lon="10.779519151511877"><ele>232.33333333333331</ele><time>2026-03-28T10:50:18Z</time></trkpt><trkpt lat="45.575402485265464" lon="10.779319735968219"><ele>232.66666666666669</ele><time>2026-03-28T10:50:19Z</time></trkpt><trkpt lat="45.575272113950724" lon="10.779118270212672"><ele>233.0</ele><time>2026-03-28T10:50:20Z</time></trkpt><trkpt lat="45.575134349942054" lon="10.778926780207378"><ele>233.0</ele><time>2026-03-28T10:50:21Z</time></trkpt><trkpt lat="45.57501718361459" lon="10.77871184351745"><ele>233.0</ele><time>2026-03-28T10:50:22Z</time></trkpt><trkpt lat="45.57490021103913" lon="10.778502079671563"><ele>233.0</ele><time>2026-03-28T10:50:23Z</time></trkpt><trkpt lat="45.57479140033712" lon="10.778283296207118"><ele>229.33333333333334</ele><time>2026-03-28T10:50:24Z</time></trkpt><trkpt lat="45.57468391985696" lon="10.778049338779809"><ele>225.66666666666669</ele><time>2026-03-28T10:50:25Z</time></trkpt><trkpt lat="45.574583044147325" lon="10.777811106306498"><ele>222.0</ele><time>2026-03-28T10:50:26Z</time></trkpt><trkpt lat="45.57447710587997" lon="10.777552008757771"><ele>220.5</ele><time>2026-03-28T10:50:27Z</time></trkpt><trkpt lat="45.57436086817726" lon="10.777270008476714"><ele>219.0</ele><time>2026-03-28T10:50:28Z</time></trkpt><trkpt lat="45.57423772659795" lon="10.776970583941573"><ele>219.5</ele><time>2026-03-28T10:50:29Z</time></trkpt><trkpt lat="45.574118933284005" lon="10.776674266045422"><ele>220.0</ele><time>2026-03-28T10:50:30Z</time></trkpt><trkpt lat="45.57400612701551" lon="10.776380784579672"><ele>220.0</ele><time>2026-03-28T10:50:31Z</time></trkpt><trkpt lat="45.57390009703972" lon="10.7760899634825"><ele>220.0</ele><time>2026-03-28T10:50:32Z</time></trkpt><trkpt lat="45.57380145856329" lon="10.775801989220296"><ele>219.66666666666666</ele><time>2026-03-28T10:50:33Z</time></trkpt><trkpt lat="45.573712433089426" lon="10.775528752350452"><ele>219.33333333333331</ele><time>2026-03-28T10:50:34Z</time></trkpt><trkpt lat="45.5736363591991" lon="10.77527372861462"><ele>219.0</ele><time>2026-03-28T10:50:35Z</time></trkpt><trkpt lat="45.57356868327265" lon="10.775027925327857"><ele>218.25</ele><time>2026-03-28T10:50:36Z</time></trkpt><trkpt lat="45.573519649251544" lon="10.7748195368252"><ele>217.5</ele><time>2026-03-28T10:50:37Z</time></trkpt><trkpt lat="45.57348388583964" lon="10.774635760915043"><ele>216.75</ele><time>2026-03-28T10:50:38Z</time></trkpt><trkpt lat="45.57344850379765" lon="10.774489692257315"><ele>216.0</ele><time>2026-03-28T10:50:39Z</time></trkpt><trkpt lat="45.57343098366905" lon="10.774366360533653"><ele>215.4</ele><time>2026-03-28T10:50:40Z</time></trkpt><trkpt lat="45.57343347072604" lon="10.77427154246255"><ele>214.8</ele><time>2026-03-28T10:50:41Z</time></trkpt><trkpt lat="45.57340377027311" lon="10.774120417375505"><ele>214.20000000000002</ele><time>2026-03-28T10:50:43Z</time></trkpt><trkpt lat="45.573408887564575" lon="10.774010637932571"><ele>213.60000000000002</ele><time>2026-03-28T10:50:56Z</time></trkpt><trkpt lat="45.57340261523632" lon="10.773836172028759"><ele>213.0</ele><time>2026-03-28T10:50:58Z</time></trkpt><trkpt lat="45.573395800309484" lon="10.773703125451465"><ele>213.0</ele><time>2026-03-28T10:50:59Z</time></trkpt><trkpt lat="45.57338258033989" lon="10.773537365930459"><ele>213.0</ele><time>2026-03-28T10:51:00Z</time></trkpt><trkpt lat="45.573368700041655" lon="10.773321102750707"><ele>213.0</ele><time>2026-03-28T10:51:01Z</time></trkpt><trkpt lat="45.57336125345301" lon="10.773049101425096"><ele>213.0</ele><time>2026-03-28T10:51:02Z</time></trkpt><trkpt lat="45.57338596817249" lon="10.772753303632701"><ele>213.0</ele><time>2026-03-28T10:51:03Z</time></trkpt><trkpt lat="45.573387812290605" lon="10.772464123735302"><ele>213.0</ele><time>2026-03-28T10:51:05Z</time></trkpt><trkpt lat="45.57342316270634" lon="10.772198913458737"><ele>213.0</ele><time>2026-03-28T10:51:06Z</time></trkpt><trkpt lat="45.57344746098969" lon="10.771948696932316"><ele>213.0</ele><time>2026-03-28T10:51:07Z</time></trkpt><trkpt lat="45.573469814213816" lon="10.77173955417906"><ele>213.0</ele><time>2026-03-28T10:51:08Z</time></trkpt><trkpt lat="45.57349098742234" lon="10.771564309450726"><ele>213.0</ele><time>2026-03-28T10:51:09Z</time></trkpt><trkpt lat="45.57350859803519" lon="10.771429615328586"><ele>212.66666666666666</ele><time>2026-03-28T10:51:10Z</time></trkpt><trkpt lat="45.57351249245973" lon="10.771325712408375"><ele>212.33333333333331</ele><time>2026-03-28T10:51:11Z</time></trkpt><trkpt lat="45.57353392483671" lon="10.77119961118302"><ele>212.0</ele><time>2026-03-28T10:51:13Z</time></trkpt><trkpt lat="45.57355676625625" lon="10.77111489749349"><ele>211.66666666666666</ele><time>2026-03-28T10:51:16Z</time></trkpt><trkpt lat="45.57357078626413" lon="10.771016508917292"><ele>211.33333333333331</ele><time>2026-03-28T10:52:00Z</time></trkpt><trkpt lat="45.57358750422219" lon="10.7709089442877"><ele>211.0</ele><time>2026-03-28T10:52:01Z</time></trkpt><trkpt lat="45.573606414864145" lon="10.770784067284339"><ele>210.75</ele><time>2026-03-28T10:52:02Z</time></trkpt><trkpt lat="45.573624063167046" lon="10.770657150428812"><ele>210.5</ele><time>2026-03-28T10:52:03Z</time></trkpt><trkpt lat="45.57364285210139" lon="10.770484046733783"><ele>210.25</ele><time>2026-03-28T10:52:04Z</time></trkpt><trkpt lat="45.573646968046404" lon="10.770292729045957"><ele>210.0</ele><time>2026-03-28T10:52:05Z</time></trkpt><trkpt lat="45.573630420275016" lon="10.77009896370965"><ele>209.66666666666669</ele><time>2026-03-28T10:52:06Z</time></trkpt><trkpt lat="45.57363386424227" lon="10.769882471371744"><ele>209.33333333333334</ele><time>2026-03-28T10:52:07Z</time></trkpt><trkpt lat="45.57363735899912" lon="10.769653821898636"><ele>209.0</ele><time>2026-03-28T10:52:08Z</time></trkpt><trkpt lat="45.57363575143997" lon="10.769433991076829"><ele>208.66666666666669</ele><time>2026-03-28T10:52:09Z</time></trkpt><trkpt lat="45.57366017895068" lon="10.769201984550676"><ele>208.33333333333331</ele><time>2026-03-28T10:52:10Z</time></trkpt><trkpt lat="45.57367008613172" lon="10.768963159538364"><ele>208.0</ele><time>2026-03-28T10:52:11Z</time></trkpt><trkpt lat="45.573674062510214" lon="10.768729774542628"><ele>207.5</ele><time>2026-03-28T10:52:12Z</time></trkpt><trkpt lat="45.573673772197075" lon="10.768512908444244"><ele>207.0</ele><time>2026-03-28T10:52:13Z</time></trkpt><trkpt lat="45.57366951528908" lon="10.76831312209133"><ele>206.5</ele><time>2026-03-28T10:52:14Z</time></trkpt><trkpt lat="45.57364913409493" lon="10.768133460929578"><ele>206.0</ele><time>2026-03-28T10:52:15Z</time></trkpt><trkpt lat="45.57365762947709" lon="10.76796344208176"><ele>206.0</ele><time>2026-03-28T10:52:16Z</time></trkpt><trkpt lat="45.57363803170895" lon="10.76779362316005"><ele>206.0</ele><time>2026-03-28T10:52:17Z</time></trkpt><trkpt lat="45.573636754098835" lon="10.767620584764135"><ele>206.0</ele><time>2026-03-28T10:52:18Z</time></trkpt><trkpt lat="45.573653133313925" lon="10.76747003284569"><ele>206.0</ele><time>2026-03-28T10:52:19Z</time></trkpt><trkpt lat="45.57364034323176" lon="10.76731834812478"><ele>205.8</ele><time>2026-03-28T10:52:20Z</time></trkpt><trkpt lat="45.57365989657758" lon="10.767155336973289"><ele>205.60000000000002</ele><time>2026-03-28T10:52:21Z</time></trkpt><trkpt lat="45.57365221266177" lon="10.767004011031668"><ele>205.4</ele><time>2026-03-28T10:52:22Z</time></trkpt><trkpt lat="45.57366545389941" lon="10.766853793741907"><ele>205.2</ele><time>2026-03-28T10:52:23Z</time></trkpt><trkpt lat="45.57367362673175" lon="10.766681455868092"><ele>205.0</ele><time>2026-03-28T10:52:24Z</time></trkpt><trkpt lat="45.573688715488835" lon="10.766500853630097"><ele>205.0</ele><time>2026-03-28T10:52:25Z</time></trkpt><trkpt lat="45.57370026351469" lon="10.76633232095872"><ele>205.0</ele><time>2026-03-28T10:52:26Z</time></trkpt><trkpt lat="45.57370536431458" lon="10.76616035240321"><ele>205.0</ele><time>2026-03-28T10:52:27Z</time></trkpt><trkpt lat="45.573700781677054" lon="10.765981096715906"><ele>205.0</ele><time>2026-03-28T10:52:28Z</time></trkpt><trkpt lat="45.57367923752931" lon="10.765807691382568"><ele>205.0</ele><time>2026-03-28T10:52:29Z</time></trkpt><trkpt lat="45.57364169267956" lon="10.765648267931407"><ele>205.0</ele><time>2026-03-28T10:52:30Z</time></trkpt><trkpt lat="45.57358753179075" lon="10.76548170605193"><ele>205.0</ele><time>2026-03-28T10:52:31Z</time></trkpt><trkpt lat="45.57351370054669" lon="10.765306413030753"><ele>205.0</ele><time>2026-03-28T10:52:32Z</time></trkpt><trkpt lat="45.57343245740246" lon="10.765137887782872"><ele>205.5</ele><time>2026-03-28T10:52:33Z</time></trkpt><trkpt lat="45.57335507700014" lon="10.764995125932275"><ele>206.0</ele><time>2026-03-28T10:52:34Z</time></trkpt><trkpt lat="45.573286755587766" lon="10.76486233293431"><ele>206.5</ele><time>2026-03-28T10:52:35Z</time></trkpt><trkpt lat="45.573219582296694" lon="10.764731491757528"><ele>207.0</ele><time>2026-03-28T10:52:36Z</time></trkpt><trkpt lat="45.57315112658948" lon="10.764595233887158"><ele>207.0</ele><time>2026-03-28T10:52:37Z</time></trkpt><trkpt lat="45.57308727761685" lon="10.764451933033714"><ele>207.0</ele><time>2026-03-28T10:52:38Z</time></trkpt><trkpt lat="45.57305999906635" lon="10.764279468445778"><ele>207.0</ele><time>2026-03-28T10:52:39Z</time></trkpt><trkpt lat="45.57303263126448" lon="10.764096367893536"><ele>207.0</ele><time>2026-03-28T10:52:40Z</time></trkpt><trkpt lat="45.5729995440445" lon="10.763872380261402"><ele>206.66666666666669</ele><time>2026-03-28T10:52:41Z</time></trkpt><trkpt lat="45.572962802015084" lon="10.763611084534388"><ele>206.33333333333334</ele><time>2026-03-28T10:52:42Z</time></trkpt><trkpt lat="45.5729239747836" lon="10.76332865136228"><ele>206.0</ele><time>2026-03-28T10:52:43Z</time></trkpt><trkpt lat="45.572885686869895" lon="10.763050141363074"><ele>204.66666666666669</ele><time>2026-03-28T10:52:44Z</time></trkpt><trkpt lat="45.57282671504548" lon="10.762751903298827"><ele>203.33333333333331</ele><time>2026-03-28T10:52:45Z</time></trkpt><trkpt lat="45.57279304022702" lon="10.76243050898882"><ele>202.0</ele><time>2026-03-28T10:52:46Z</time></trkpt><trkpt lat="45.57273831510144" lon="10.762105639947341"><ele>202.0</ele><time>2026-03-28T10:52:47Z</time></trkpt><trkpt lat="45.57268660282572" lon="10.761795866041842"><ele>202.0</ele><time>2026-03-28T10:52:48Z</time></trkpt><trkpt lat="45.57263415263939" lon="10.761468784509296"><ele>202.0</ele><time>2026-03-28T10:52:49Z</time></trkpt><trkpt lat="45.572579699128134" lon="10.761129209207906"><ele>202.0</ele><time>2026-03-28T10:52:50Z</time></trkpt><trkpt lat="45.57251916632983" lon="10.760822350930104"><ele>202.0</ele><time>2026-03-28T10:52:51Z</time></trkpt><trkpt lat="45.57247726574777" lon="10.760544119663258"><ele>202.0</ele><time>2026-03-28T10:52:52Z</time></trkpt><trkpt lat="45.57243614309974" lon="10.760293119306903"><ele>202.0</ele><time>2026-03-28T10:52:53Z</time></trkpt><trkpt lat="45.57239640408145" lon="10.760063502194251"><ele>202.0</ele><time>2026-03-28T10:52:54Z</time></trkpt><trkpt lat="45.57235782601158" lon="10.759866631850898"><ele>202.0</ele><time>2026-03-28T10:52:55Z</time></trkpt><trkpt lat="45.57232835704968" lon="10.759696418929991"><ele>202.0</ele><time>2026-03-28T10:52:56Z</time></trkpt><trkpt lat="45.572304191071595" lon="10.759533960873771"><ele>202.0</ele><time>2026-03-28T10:52:57Z</time></trkpt><trkpt lat="45.572281617734625" lon="10.759383442412965"><ele>202.33333333333331</ele><time>2026-03-28T10:52:58Z</time></trkpt><trkpt lat="45.57225695134397" lon="10.759249833963215"><ele>202.66666666666666</ele><time>2026-03-28T10:52:59Z</time></trkpt><trkpt lat="45.572235021877184" lon="10.759125080581219"><ele>203.0</ele><time>2026-03-28T10:53:00Z</time></trkpt><trkpt lat="45.57222024512749" lon="10.759021783233079"><ele>203.33333333333331</ele><time>2026-03-28T10:53:01Z</time></trkpt><trkpt lat="45.572196739983596" lon="10.758878347616474"><ele>203.66666666666666</ele><time>2026-03-28T10:53:03Z</time></trkpt><trkpt lat="45.572178436503286" lon="10.75877827418657"><ele>204.0</ele><time>2026-03-28T10:53:05Z</time></trkpt><trkpt lat="45.57217548923302" lon="10.758679653830441"><ele>204.75</ele><time>2026-03-28T10:53:08Z</time></trkpt><trkpt lat="45.57221322567739" lon="10.758518212781764"><ele>205.5</ele><time>2026-03-28T10:53:10Z</time></trkpt><trkpt lat="45.57227938435791" lon="10.75840729223741"><ele>206.25</ele><time>2026-03-28T10:53:12Z</time></trkpt><trkpt lat="45.57237188980434" lon="10.758283886458997"><ele>207.0</ele><time>2026-03-28T10:53:14Z</time></trkpt><trkpt lat="45.57250324760579" lon="10.758254008166372"><ele>207.0</ele><time>2026-03-28T10:53:16Z</time></trkpt><trkpt lat="45.572571294675434" lon="10.75823150661828"><ele>207.0</ele><time>2026-03-28T10:53:17Z</time></trkpt><trkpt lat="45.572658877759096" lon="10.758203528086991"><ele>207.0</ele><time>2026-03-28T10:53:18Z</time></trkpt><trkpt lat="45.57275775985454" lon="10.758166454863629"><ele>207.0</ele><time>2026-03-28T10:53:19Z</time></trkpt><trkpt lat="45.5728413940396" lon="10.758130984079846"><ele>207.0</ele><time>2026-03-28T10:53:20Z</time></trkpt><trkpt lat="45.57292419327542" lon="10.758103031676145"><ele>207.0</ele><time>2026-03-28T10:53:21Z</time></trkpt><trkpt lat="45.573018640635006" lon="10.758070746652812"><ele>206.8</ele><time>2026-03-28T10:53:22Z</time></trkpt><trkpt lat="45.57312529425777" lon="10.758035211841747"><ele>206.6</ele><time>2026-03-28T10:53:23Z</time></trkpt><trkpt lat="45.57322448375949" lon="10.758000484675625"><ele>206.4</ele><time>2026-03-28T10:53:24Z</time></trkpt><trkpt lat="45.57331396770879" lon="10.757964604877287"><ele>206.20000000000002</ele><time>2026-03-28T10:53:25Z</time></trkpt><trkpt lat="45.57341390191757" lon="10.757933892213675"><ele>206.0</ele><time>2026-03-28T10:53:26Z</time></trkpt><trkpt lat="45.573517202790214" lon="10.757901482555843"><ele>206.0</ele><time>2026-03-28T10:53:27Z</time></trkpt><trkpt lat="45.57362404887479" lon="10.757868413644431"><ele>206.0</ele><time>2026-03-28T10:53:28Z</time></trkpt><trkpt lat="45.57373220505526" lon="10.757835664906526"><ele>206.0</ele><time>2026-03-28T10:53:29Z</time></trkpt><trkpt lat="45.5738498774659" lon="10.757796355339199"><ele>206.0</ele><time>2026-03-28T10:53:30Z</time></trkpt><trkpt lat="45.57397085929319" lon="10.75775615978017"><ele>205.75</ele><time>2026-03-28T10:53:31Z</time></trkpt><trkpt lat="45.574093065359634" lon="10.757714218130662"><ele>205.5</ele><time>2026-03-28T10:53:32Z</time></trkpt><trkpt lat="45.57421701126276" lon="10.757679392354254"><ele>205.25</ele><time>2026-03-28T10:53:33Z</time></trkpt><trkpt lat="45.574345299756835" lon="10.757641286017378"><ele>205.0</ele><time>2026-03-28T10:53:34Z</time></trkpt><trkpt lat="45.574465269290805" lon="10.757607636785222"><ele>205.4</ele><time>2026-03-28T10:53:35Z</time></trkpt><trkpt lat="45.5745670777753" lon="10.7575746557481"><ele>205.8</ele><time>2026-03-28T10:53:36Z</time></trkpt><trkpt lat="45.574664729127264" lon="10.757543821110918"><ele>206.2</ele><time>2026-03-28T10:53:37Z</time></trkpt><trkpt lat="45.574762605022485" lon="10.757510262257101"><ele>206.6</ele><time>2026-03-28T10:53:38Z</time></trkpt><trkpt lat="45.57485815164484" lon="10.757477767834105"><ele>207.0</ele><time>2026-03-28T10:53:39Z</time></trkpt><trkpt lat="45.574976251547156" lon="10.757437738932708"><ele>207.0</ele><time>2026-03-28T10:53:40Z</time></trkpt><trkpt lat="45.57510761548267" lon="10.757394523843946"><ele>207.0</ele><time>2026-03-28T10:53:41Z</time></trkpt><trkpt lat="45.57524058568009" lon="10.757349760531165"><ele>207.0</ele><time>2026-03-28T10:53:42Z</time></trkpt><trkpt lat="45.575373292502775" lon="10.757301020543771"><ele>207.0</ele><time>2026-03-28T10:53:43Z</time></trkpt><trkpt lat="45.57550386303186" lon="10.757254854742275"><ele>207.25</ele><time>2026-03-28T10:53:44Z</time></trkpt><trkpt lat="45.57563659986461" lon="10.757209741695323"><ele>207.5</ele><time>2026-03-28T10:53:45Z</time></trkpt><trkpt lat="45.5757681309881" lon="10.757166324871031"><ele>207.75</ele><time>2026-03-28T10:53:46Z</time></trkpt><trkpt lat="45.57589970035712" lon="10.757119934412705"><ele>208.0</ele><time>2026-03-28T10:53:47Z</time></trkpt><trkpt lat="45.57603366883245" lon="10.757074039942234"><ele>208.0</ele><time>2026-03-28T10:53:48Z</time></trkpt><trkpt lat="45.57617962323873" lon="10.757048874007094"><ele>208.0</ele><time>2026-03-28T10:53:49Z</time></trkpt><trkpt lat="45.57632229155862" lon="10.756978136429888"><ele>208.0</ele><time>2026-03-28T10:53:50Z</time></trkpt><trkpt lat="45.57647757245303" lon="10.75693393168454"><ele>207.33333333333331</ele><time>2026-03-28T10:53:51Z</time></trkpt><trkpt lat="45.57663456692651" lon="10.756888920078497"><ele>206.66666666666669</ele><time>2026-03-28T10:53:52Z</time></trkpt><trkpt lat="45.576789136167186" lon="10.756836066678606"><ele>206.0</ele><time>2026-03-28T10:53:53Z</time></trkpt><trkpt lat="45.576950104742465" lon="10.756778698943748"><ele>206.0</ele><time>2026-03-28T10:53:54Z</time></trkpt><trkpt lat="45.57710630726637" lon="10.756723105860033"><ele>206.0</ele><time>2026-03-28T10:53:55Z</time></trkpt><trkpt lat="45.57724628481688" lon="10.756678922624596"><ele>206.0</ele><time>2026-03-28T10:53:56Z</time></trkpt><trkpt lat="45.57736879312527" lon="10.756645270757753"><ele>206.0</ele><time>2026-03-28T10:53:57Z</time></trkpt><trkpt lat="45.57748466883234" lon="10.756609981678807"><ele>206.0</ele><time>2026-03-28T10:53:58Z</time></trkpt><trkpt lat="45.57761110875439" lon="10.756564954449264"><ele>206.0</ele><time>2026-03-28T10:53:59Z</time></trkpt><trkpt lat="45.57775445126472" lon="10.756514881973763"><ele>206.0</ele><time>2026-03-28T10:54:00Z</time></trkpt><trkpt lat="45.57790784989154" lon="10.756462442051408"><ele>206.0</ele><time>2026-03-28T10:54:01Z</time></trkpt><trkpt lat="45.57807076944799" lon="10.756407139791524"><ele>205.66666666666669</ele><time>2026-03-28T10:54:02Z</time></trkpt><trkpt lat="45.578237933870625" lon="10.756348197888059"><ele>205.33333333333331</ele><time>2026-03-28T10:54:03Z</time></trkpt><trkpt lat="45.57839837819071" lon="10.756289703709957"><ele>205.0</ele><time>2026-03-28T10:54:04Z</time></trkpt><trkpt lat="45.578563321744305" lon="10.756227405498745"><ele>205.33333333333331</ele><time>2026-03-28T10:54:05Z</time></trkpt><trkpt lat="45.578721007567715" lon="10.75615436841357"><ele>205.66666666666669</ele><time>2026-03-28T10:54:06Z</time></trkpt><trkpt lat="45.578882643471836" lon="10.75606852870434"><ele>206.0</ele><time>2026-03-28T10:54:07Z</time></trkpt><trkpt lat="45.579034913202875" lon="10.75596838229761"><ele>206.5</ele><time>2026-03-28T10:54:08Z</time></trkpt><trkpt lat="45.57917041732826" lon="10.755855551170274"><ele>207.0</ele><time>2026-03-28T10:54:09Z</time></trkpt><trkpt lat="45.579291795879975" lon="10.755754198738858"><ele>207.5</ele><time>2026-03-28T10:54:10Z</time></trkpt><trkpt lat="45.57940458525909" lon="10.755658857370888"><ele>208.0</ele><time>2026-03-28T10:54:11Z</time></trkpt><trkpt lat="45.579512927811514" lon="10.755559826042967"><ele>208.0</ele><time>2026-03-28T10:54:12Z</time></trkpt><trkpt lat="45.57961898473744" lon="10.755461667549955"><ele>208.0</ele><time>2026-03-28T10:54:13Z</time></trkpt><trkpt lat="45.57972201082659" lon="10.755373389698528"><ele>208.0</ele><time>2026-03-28T10:54:14Z</time></trkpt><trkpt lat="45.579814192038945" lon="10.755272496174179"><ele>208.0</ele><time>2026-03-28T10:54:15Z</time></trkpt><trkpt lat="45.57990572326264" lon="10.755191973778421"><ele>207.99999999999997</ele><time>2026-03-28T10:54:16Z</time></trkpt><trkpt lat="45.57997996697637" lon="10.755124422413598"><ele>208.0</ele><time>2026-03-28T10:54:17Z</time></trkpt><trkpt lat="45.58003351750752" lon="10.755069280832307"><ele>208.0</ele><time>2026-03-28T10:54:18Z</time></trkpt><trkpt lat="45.5800992595358" lon="10.755035746132945"><ele>208.0</ele><time>2026-03-28T10:54:20Z</time></trkpt><trkpt lat="45.58000655020764" lon="10.755104483038052"><ele>207.99999999999997</ele><time>2026-03-28T10:54:23Z</time></trkpt><trkpt lat="45.57991064988357" lon="10.755072800941852"><ele>208.0</ele><time>2026-03-28T10:54:24Z</time></trkpt><trkpt lat="45.57986633998669" lon="10.755138030925107"><ele>208.0</ele><time>2026-03-28T10:54:25Z</time></trkpt><trkpt lat="45.579774941503416" lon="10.755215059873391"><ele>208.0</ele><time>2026-03-28T10:54:27Z</time></trkpt><trkpt lat="45.57969571794328" lon="10.755291024950996"><ele>208.0</ele><time>2026-03-28T10:54:29Z</time></trkpt><trkpt lat="45.579600274931956" lon="10.755390249498861"><ele>208.0</ele><time>2026-03-28T10:54:31Z</time></trkpt><trkpt lat="45.57951861462183" lon="10.755484463981352"><ele>208.0</ele><time>2026-03-28T10:54:32Z</time></trkpt><trkpt lat="45.579430794070056" lon="10.755575802518559"><ele>208.0</ele><time>2026-03-28T10:54:33Z</time></trkpt><trkpt lat="45.57932428678469" lon="10.75567752413523"><ele>208.0</ele><time>2026-03-28T10:54:34Z</time></trkpt><trkpt lat="45.579199622292435" lon="10.755789162747996"><ele>208.0</ele><time>2026-03-28T10:54:35Z</time></trkpt><trkpt lat="45.579055682029974" lon="10.755893669333709"><ele>208.0</ele><time>2026-03-28T10:54:36Z</time></trkpt><trkpt lat="45.57890225848615" lon="10.75599955177322"><ele>207.33333333333331</ele><time>2026-03-28T10:54:37Z</time></trkpt><trkpt lat="45.57873678284674" lon="10.756094746590401"><ele>206.66666666666669</ele><time>2026-03-28T10:54:38Z</time></trkpt><trkpt lat="45.578577278448506" lon="10.756166820213169"><ele>206.0</ele><time>2026-03-28T10:54:39Z</time></trkpt><trkpt lat="45.57842687055663" lon="10.75622823506154"><ele>205.75</ele><time>2026-03-28T10:54:40Z</time></trkpt><trkpt lat="45.57828602544831" lon="10.756282224736777"><ele>205.5</ele><time>2026-03-28T10:54:41Z</time></trkpt><trkpt lat="45.578151885181576" lon="10.75633535751102"><ele>205.25</ele><time>2026-03-28T10:54:42Z</time></trkpt><trkpt lat="45.578030837987434" lon="10.75637508701126"><ele>205.0</ele><time>2026-03-28T10:54:43Z</time></trkpt><trkpt lat="45.57791597518004" lon="10.75641639253069"><ele>205.25</ele><time>2026-03-28T10:54:44Z</time></trkpt><trkpt lat="45.57779644505413" lon="10.756453408279544"><ele>205.5</ele><time>2026-03-28T10:54:45Z</time></trkpt><trkpt lat="45.57767879175623" lon="10.756493085893894"><ele>205.75</ele><time>2026-03-28T10:54:46Z</time></trkpt><trkpt lat="45.5775684684516" lon="10.756528240537271"><ele>206.0</ele><time>2026-03-28T10:54:47Z</time></trkpt><trkpt lat="45.577460688076364" lon="10.75656681548075"><ele>206.00000000000003</ele><time>2026-03-28T10:54:48Z</time></trkpt><trkpt lat="45.577365411256686" lon="10.756600456149071"><ele>206.0</ele><time>2026-03-28T10:54:49Z</time></trkpt><trkpt lat="45.57728042398433" lon="10.756626085073052"><ele>206.0</ele><time>2026-03-28T10:54:50Z</time></trkpt><trkpt lat="45.5772115423275" lon="10.756652042904285"><ele>206.0</ele><time>2026-03-28T10:54:51Z</time></trkpt><trkpt lat="45.57713801940399" lon="10.756679110831643"><ele>206.00000000000003</ele><time>2026-03-28T10:54:52Z</time></trkpt><trkpt lat="45.577071845627465" lon="10.756691901255081"><ele>206.0</ele><time>2026-03-28T10:54:53Z</time></trkpt><trkpt lat="45.57701010928794" lon="10.756652004299594"><ele>206.0</ele><time>2026-03-28T10:54:55Z</time></trkpt><trkpt lat="45.577038124009654" lon="10.756512717972019"><ele>206.0</ele><time>2026-03-28T10:54:56Z</time></trkpt><trkpt lat="45.57708100884724" lon="10.756417486222336"><ele>206.0</ele><time>2026-03-28T10:54:57Z</time></trkpt><trkpt lat="45.57715282250609" lon="10.756309519862237"><ele>206.0</ele><time>2026-03-28T10:54:58Z</time></trkpt><trkpt lat="45.57719872600043" lon="10.756148274003655"><ele>206.0</ele><time>2026-03-28T10:54:59Z</time></trkpt><trkpt lat="45.577232803186185" lon="10.75595852113651"><ele>206.0</ele><time>2026-03-28T10:55:00Z</time></trkpt><trkpt lat="45.57725273539594" lon="10.755769267133788"><ele>206.0</ele><time>2026-03-28T10:55:01Z</time></trkpt><trkpt lat="45.57724644412895" lon="10.755546979343764"><ele>206.0</ele><time>2026-03-28T10:55:02Z</time></trkpt><trkpt lat="45.577222744436945" lon="10.755325171501958"><ele>206.0</ele><time>2026-03-28T10:55:03Z</time></trkpt><trkpt lat="45.57719231470184" lon="10.75511359040309"><ele>206.25</ele><time>2026-03-28T10:55:04Z</time></trkpt><trkpt lat="45.57716480642761" lon="10.754922322404688"><ele>206.5</ele><time>2026-03-28T10:55:05Z</time></trkpt><trkpt lat="45.57713879470944" lon="10.754749697745746"><ele>206.75</ele><time>2026-03-28T10:55:06Z</time></trkpt><trkpt lat="45.577114233646036" lon="10.754600056535212"><ele>207.0</ele><time>2026-03-28T10:55:07Z</time></trkpt><trkpt lat="45.5770776807396" lon="10.754483307533532"><ele>207.0</ele><time>2026-03-28T10:55:08Z</time></trkpt><trkpt lat="45.5770514472443" lon="10.75437685085526"><ele>207.0</ele><time>2026-03-28T10:55:09Z</time></trkpt><trkpt lat="45.57703619123084" lon="10.754277042550193"><ele>207.0</ele><time>2026-03-28T10:55:10Z</time></trkpt><trkpt lat="45.576986570467234" lon="10.75416033676271"><ele>207.0</ele><time>2026-03-28T10:55:12Z</time></trkpt><trkpt lat="45.57692442353893" lon="10.754130458185404"><ele>207.0</ele><time>2026-03-28T10:55:14Z</time></trkpt><trkpt lat="45.57685135896218" lon="10.754131164713533"><ele>207.0</ele><time>2026-03-28T10:55:22Z</time></trkpt><trkpt lat="45.576781321364905" lon="10.754146596489788"><ele>210.0</ele><time>2026-03-28T10:55:24Z</time></trkpt><trkpt lat="45.576769998574036" lon="10.754249048953485"><ele>210.0</ele><time>2026-03-28T10:55:26Z</time></trkpt><trkpt lat="45.57673416468997" lon="10.754073035153752"><ele>210.0</ele><time>2026-03-28T10:55:28Z</time></trkpt><trkpt lat="45.5766395122817" lon="10.754149469091322"><ele>210.0</ele><time>2026-03-28T10:55:30Z</time></trkpt></trkseg></trk></gpx>